<?xml version="1.0" encoding="UTF-8" standalone="no" ?>
<gpx xmlns="http://www.topografix.com/GPX/1/1" xmlns:xsi="http://www.w3.org/2001/XMLSchema-instance" xsi:schemaLocation="http://www.topografix.com/GPX/1/1 http://www.topografix.com/GPX/1/1/gpx.xsd" version="1.1" creator="VisuGPX - https://www.visugpx.com">
  <metadata>
    <name>ainsa</name>
  </metadata>
  <trk>
    <name><![CDATA[Ainsa 16]]></name>
    <extensions>
      <line xmlns="http://www.topografix.com/GPX/gpx_style/0/2">
        <color>888800</color>
        <width>4</width>
      </line>
    </extensions>
    <trkseg>
      <trkpt lat="42.30693" lon="0.04185">
        <ele>851</ele>
        <time>2015-09-24T08:13:46Z</time>
      </trkpt>
      <trkpt lat="42.30696" lon="0.04184">
        <ele>850.9</ele>
        <time>2015-09-24T08:14:00Z</time>
      </trkpt>
      <trkpt lat="42.307" lon="0.04184">
        <ele>850.7</ele>
        <time>2015-09-24T08:14:04Z</time>
      </trkpt>
      <trkpt lat="42.30704" lon="0.04185">
        <ele>850.4</ele>
        <time>2015-09-24T08:14:07Z</time>
      </trkpt>
      <trkpt lat="42.30706" lon="0.04187">
        <ele>850.1</ele>
        <time>2015-09-24T08:14:09Z</time>
      </trkpt>
      <trkpt lat="42.30709" lon="0.0419">
        <ele>849.9</ele>
        <time>2015-09-24T08:14:11Z</time>
      </trkpt>
      <trkpt lat="42.30711" lon="0.04192">
        <ele>849.7</ele>
        <time>2015-09-24T08:14:13Z</time>
      </trkpt>
      <trkpt lat="42.30714" lon="0.04196">
        <ele>849.5</ele>
        <time>2015-09-24T08:14:16Z</time>
      </trkpt>
      <trkpt lat="42.30715" lon="0.04199">
        <ele>849.3</ele>
        <time>2015-09-24T08:14:18Z</time>
      </trkpt>
      <trkpt lat="42.30717" lon="0.04202">
        <ele>849.2</ele>
        <time>2015-09-24T08:14:20Z</time>
      </trkpt>
      <trkpt lat="42.30718" lon="0.04208">
        <ele>848.9</ele>
        <time>2015-09-24T08:14:23Z</time>
      </trkpt>
      <trkpt lat="42.30719" lon="0.04213">
        <ele>848.8</ele>
        <time>2015-09-24T08:14:25Z</time>
      </trkpt>
      <trkpt lat="42.30719" lon="0.0422">
        <ele>848.6</ele>
        <time>2015-09-24T08:14:27Z</time>
      </trkpt>
      <trkpt lat="42.30719" lon="0.04224">
        <ele>848.5</ele>
        <time>2015-09-24T08:14:28Z</time>
      </trkpt>
      <trkpt lat="42.30719" lon="0.04228">
        <ele>848.4</ele>
        <time>2015-09-24T08:14:29Z</time>
      </trkpt>
      <trkpt lat="42.30718" lon="0.04232">
        <ele>848.3</ele>
        <time>2015-09-24T08:14:30Z</time>
      </trkpt>
      <trkpt lat="42.30719" lon="0.04237">
        <ele>848.2</ele>
        <time>2015-09-24T08:14:31Z</time>
      </trkpt>
      <trkpt lat="42.30719" lon="0.04242">
        <ele>848.1</ele>
        <time>2015-09-24T08:14:32Z</time>
      </trkpt>
      <trkpt lat="42.30719" lon="0.04246">
        <ele>848</ele>
        <time>2015-09-24T08:14:33Z</time>
      </trkpt>
      <trkpt lat="42.30719" lon="0.04251">
        <ele>847.9</ele>
        <time>2015-09-24T08:14:34Z</time>
      </trkpt>
      <trkpt lat="42.3072" lon="0.04257">
        <ele>847.8</ele>
        <time>2015-09-24T08:14:35Z</time>
      </trkpt>
      <trkpt lat="42.3072" lon="0.04263">
        <ele>847.6</ele>
        <time>2015-09-24T08:14:36Z</time>
      </trkpt>
      <trkpt lat="42.30721" lon="0.04269">
        <ele>847.5</ele>
        <time>2015-09-24T08:14:37Z</time>
      </trkpt>
      <trkpt lat="42.30721" lon="0.04275">
        <ele>847.4</ele>
        <time>2015-09-24T08:14:38Z</time>
      </trkpt>
      <trkpt lat="42.30722" lon="0.04281">
        <ele>847.2</ele>
        <time>2015-09-24T08:14:39Z</time>
      </trkpt>
      <trkpt lat="42.30722" lon="0.04287">
        <ele>847.1</ele>
        <time>2015-09-24T08:14:40Z</time>
      </trkpt>
      <trkpt lat="42.30723" lon="0.04293">
        <ele>847</ele>
        <time>2015-09-24T08:14:41Z</time>
      </trkpt>
      <trkpt lat="42.30724" lon="0.043">
        <ele>846.7</ele>
        <time>2015-09-24T08:14:42Z</time>
      </trkpt>
      <trkpt lat="42.30724" lon="0.04306">
        <ele>846.5</ele>
        <time>2015-09-24T08:14:43Z</time>
      </trkpt>
      <trkpt lat="42.30725" lon="0.04312">
        <ele>846.4</ele>
        <time>2015-09-24T08:14:44Z</time>
      </trkpt>
      <trkpt lat="42.30725" lon="0.04319">
        <ele>846.2</ele>
        <time>2015-09-24T08:14:45Z</time>
      </trkpt>
      <trkpt lat="42.30725" lon="0.04325">
        <ele>846</ele>
        <time>2015-09-24T08:14:46Z</time>
      </trkpt>
      <trkpt lat="42.30724" lon="0.04331">
        <ele>845.8</ele>
        <time>2015-09-24T08:14:47Z</time>
      </trkpt>
      <trkpt lat="42.30724" lon="0.04338">
        <ele>845.5</ele>
        <time>2015-09-24T08:14:48Z</time>
      </trkpt>
      <trkpt lat="42.30723" lon="0.04344">
        <ele>845.3</ele>
        <time>2015-09-24T08:14:49Z</time>
      </trkpt>
      <trkpt lat="42.30723" lon="0.04349">
        <ele>845.2</ele>
        <time>2015-09-24T08:14:50Z</time>
      </trkpt>
      <trkpt lat="42.30722" lon="0.04356">
        <ele>844.9</ele>
        <time>2015-09-24T08:14:51Z</time>
      </trkpt>
      <trkpt lat="42.30721" lon="0.04361">
        <ele>844.7</ele>
        <time>2015-09-24T08:14:52Z</time>
      </trkpt>
      <trkpt lat="42.3072" lon="0.04367">
        <ele>844.5</ele>
        <time>2015-09-24T08:14:53Z</time>
      </trkpt>
      <trkpt lat="42.30719" lon="0.04373">
        <ele>844.3</ele>
        <time>2015-09-24T08:14:54Z</time>
      </trkpt>
      <trkpt lat="42.30717" lon="0.04378">
        <ele>844.2</ele>
        <time>2015-09-24T08:14:55Z</time>
      </trkpt>
      <trkpt lat="42.30716" lon="0.04384">
        <ele>844.1</ele>
        <time>2015-09-24T08:14:56Z</time>
      </trkpt>
      <trkpt lat="42.30715" lon="0.0439">
        <ele>844</ele>
        <time>2015-09-24T08:14:57Z</time>
      </trkpt>
      <trkpt lat="42.30714" lon="0.04395">
        <ele>843.9</ele>
        <time>2015-09-24T08:14:58Z</time>
      </trkpt>
      <trkpt lat="42.30713" lon="0.04401">
        <ele>843.8</ele>
        <time>2015-09-24T08:14:59Z</time>
      </trkpt>
      <trkpt lat="42.30711" lon="0.04407">
        <ele>843.7</ele>
        <time>2015-09-24T08:15:00Z</time>
      </trkpt>
      <trkpt lat="42.3071" lon="0.04413">
        <ele>843.6</ele>
        <time>2015-09-24T08:15:01Z</time>
      </trkpt>
      <trkpt lat="42.30708" lon="0.04418">
        <ele>843.5</ele>
        <time>2015-09-24T08:15:02Z</time>
      </trkpt>
      <trkpt lat="42.30707" lon="0.04424">
        <ele>843.4</ele>
        <time>2015-09-24T08:15:03Z</time>
      </trkpt>
      <trkpt lat="42.30706" lon="0.04429">
        <ele>843.3</ele>
        <time>2015-09-24T08:15:04Z</time>
      </trkpt>
      <trkpt lat="42.30705" lon="0.04435">
        <ele>843.2</ele>
        <time>2015-09-24T08:15:05Z</time>
      </trkpt>
      <trkpt lat="42.30704" lon="0.0444">
        <ele>843.1</ele>
        <time>2015-09-24T08:15:06Z</time>
      </trkpt>
      <trkpt lat="42.30703" lon="0.04446">
        <ele>843</ele>
        <time>2015-09-24T08:15:07Z</time>
      </trkpt>
      <trkpt lat="42.30703" lon="0.04452">
        <ele>842.9</ele>
        <time>2015-09-24T08:15:08Z</time>
      </trkpt>
      <trkpt lat="42.30702" lon="0.04458">
        <ele>842.9</ele>
        <time>2015-09-24T08:15:09Z</time>
      </trkpt>
      <trkpt lat="42.30701" lon="0.04463">
        <ele>842.9</ele>
        <time>2015-09-24T08:15:10Z</time>
      </trkpt>
      <trkpt lat="42.30701" lon="0.04469">
        <ele>842.9</ele>
        <time>2015-09-24T08:15:11Z</time>
      </trkpt>
      <trkpt lat="42.307" lon="0.04476">
        <ele>843</ele>
        <time>2015-09-24T08:15:12Z</time>
      </trkpt>
      <trkpt lat="42.30699" lon="0.04482">
        <ele>843</ele>
        <time>2015-09-24T08:15:13Z</time>
      </trkpt>
      <trkpt lat="42.30699" lon="0.04488">
        <ele>843</ele>
        <time>2015-09-24T08:15:14Z</time>
      </trkpt>
      <trkpt lat="42.30698" lon="0.04494">
        <ele>843.1</ele>
        <time>2015-09-24T08:15:15Z</time>
      </trkpt>
      <trkpt lat="42.30697" lon="0.04501">
        <ele>843.1</ele>
        <time>2015-09-24T08:15:16Z</time>
      </trkpt>
      <trkpt lat="42.30696" lon="0.04507">
        <ele>843.1</ele>
        <time>2015-09-24T08:15:17Z</time>
      </trkpt>
      <trkpt lat="42.30695" lon="0.04513">
        <ele>843.1</ele>
        <time>2015-09-24T08:15:18Z</time>
      </trkpt>
      <trkpt lat="42.30695" lon="0.0452">
        <ele>843.2</ele>
        <time>2015-09-24T08:15:19Z</time>
      </trkpt>
      <trkpt lat="42.30694" lon="0.04527">
        <ele>843.2</ele>
        <time>2015-09-24T08:15:20Z</time>
      </trkpt>
      <trkpt lat="42.30693" lon="0.04534">
        <ele>843.2</ele>
        <time>2015-09-24T08:15:21Z</time>
      </trkpt>
      <trkpt lat="42.30692" lon="0.0454">
        <ele>843.2</ele>
        <time>2015-09-24T08:15:22Z</time>
      </trkpt>
      <trkpt lat="42.30692" lon="0.04548">
        <ele>843.3</ele>
        <time>2015-09-24T08:15:23Z</time>
      </trkpt>
      <trkpt lat="42.30692" lon="0.04555">
        <ele>843.3</ele>
        <time>2015-09-24T08:15:24Z</time>
      </trkpt>
      <trkpt lat="42.30692" lon="0.04562">
        <ele>843.4</ele>
        <time>2015-09-24T08:15:25Z</time>
      </trkpt>
      <trkpt lat="42.30693" lon="0.04568">
        <ele>843.5</ele>
        <time>2015-09-24T08:15:26Z</time>
      </trkpt>
      <trkpt lat="42.30694" lon="0.04575">
        <ele>843.6</ele>
        <time>2015-09-24T08:15:27Z</time>
      </trkpt>
      <trkpt lat="42.30695" lon="0.04582">
        <ele>843.8</ele>
        <time>2015-09-24T08:15:28Z</time>
      </trkpt>
      <trkpt lat="42.30695" lon="0.04589">
        <ele>843.8</ele>
        <time>2015-09-24T08:15:29Z</time>
      </trkpt>
      <trkpt lat="42.30695" lon="0.04595">
        <ele>843.9</ele>
        <time>2015-09-24T08:15:30Z</time>
      </trkpt>
      <trkpt lat="42.30695" lon="0.04602">
        <ele>844</ele>
        <time>2015-09-24T08:15:31Z</time>
      </trkpt>
      <trkpt lat="42.30694" lon="0.04608">
        <ele>844</ele>
        <time>2015-09-24T08:15:32Z</time>
      </trkpt>
      <trkpt lat="42.30694" lon="0.04614">
        <ele>844</ele>
        <time>2015-09-24T08:15:33Z</time>
      </trkpt>
      <trkpt lat="42.30694" lon="0.0462">
        <ele>844.1</ele>
        <time>2015-09-24T08:15:34Z</time>
      </trkpt>
      <trkpt lat="42.30693" lon="0.04627">
        <ele>844.1</ele>
        <time>2015-09-24T08:15:35Z</time>
      </trkpt>
      <trkpt lat="42.30692" lon="0.04633">
        <ele>844.2</ele>
        <time>2015-09-24T08:15:36Z</time>
      </trkpt>
      <trkpt lat="42.30692" lon="0.04638">
        <ele>844.2</ele>
        <time>2015-09-24T08:15:37Z</time>
      </trkpt>
      <trkpt lat="42.30691" lon="0.04644">
        <ele>844.3</ele>
        <time>2015-09-24T08:15:38Z</time>
      </trkpt>
      <trkpt lat="42.3069" lon="0.0465">
        <ele>844.4</ele>
        <time>2015-09-24T08:15:39Z</time>
      </trkpt>
      <trkpt lat="42.30689" lon="0.04656">
        <ele>844.5</ele>
        <time>2015-09-24T08:15:40Z</time>
      </trkpt>
      <trkpt lat="42.30688" lon="0.04661">
        <ele>844.5</ele>
        <time>2015-09-24T08:15:41Z</time>
      </trkpt>
      <trkpt lat="42.30687" lon="0.04667">
        <ele>844.6</ele>
        <time>2015-09-24T08:15:42Z</time>
      </trkpt>
      <trkpt lat="42.30685" lon="0.04672">
        <ele>844.7</ele>
        <time>2015-09-24T08:15:43Z</time>
      </trkpt>
      <trkpt lat="42.30684" lon="0.04678">
        <ele>844.7</ele>
        <time>2015-09-24T08:15:44Z</time>
      </trkpt>
      <trkpt lat="42.30683" lon="0.04683">
        <ele>844.8</ele>
        <time>2015-09-24T08:15:45Z</time>
      </trkpt>
      <trkpt lat="42.30682" lon="0.04689">
        <ele>844.9</ele>
        <time>2015-09-24T08:15:46Z</time>
      </trkpt>
      <trkpt lat="42.30681" lon="0.04694">
        <ele>845</ele>
        <time>2015-09-24T08:15:47Z</time>
      </trkpt>
      <trkpt lat="42.3068" lon="0.047">
        <ele>845.1</ele>
        <time>2015-09-24T08:15:48Z</time>
      </trkpt>
      <trkpt lat="42.3068" lon="0.04705">
        <ele>845.2</ele>
        <time>2015-09-24T08:15:49Z</time>
      </trkpt>
      <trkpt lat="42.30679" lon="0.0471">
        <ele>845.4</ele>
        <time>2015-09-24T08:15:50Z</time>
      </trkpt>
      <trkpt lat="42.30678" lon="0.04715">
        <ele>845.7</ele>
        <time>2015-09-24T08:15:51Z</time>
      </trkpt>
      <trkpt lat="42.30677" lon="0.0472">
        <ele>846</ele>
        <time>2015-09-24T08:15:52Z</time>
      </trkpt>
      <trkpt lat="42.30676" lon="0.04725">
        <ele>846.2</ele>
        <time>2015-09-24T08:15:53Z</time>
      </trkpt>
      <trkpt lat="42.30675" lon="0.0473">
        <ele>846.5</ele>
        <time>2015-09-24T08:15:54Z</time>
      </trkpt>
      <trkpt lat="42.30674" lon="0.04736">
        <ele>846.8</ele>
        <time>2015-09-24T08:15:55Z</time>
      </trkpt>
      <trkpt lat="42.30673" lon="0.0474">
        <ele>847.1</ele>
        <time>2015-09-24T08:15:56Z</time>
      </trkpt>
      <trkpt lat="42.30672" lon="0.04745">
        <ele>847.4</ele>
        <time>2015-09-24T08:15:57Z</time>
      </trkpt>
      <trkpt lat="42.30672" lon="0.0475">
        <ele>847.6</ele>
        <time>2015-09-24T08:15:58Z</time>
      </trkpt>
      <trkpt lat="42.30672" lon="0.04755">
        <ele>847.9</ele>
        <time>2015-09-24T08:15:59Z</time>
      </trkpt>
      <trkpt lat="42.30672" lon="0.04759">
        <ele>848.2</ele>
        <time>2015-09-24T08:16:00Z</time>
      </trkpt>
      <trkpt lat="42.30671" lon="0.04764">
        <ele>848.4</ele>
        <time>2015-09-24T08:16:01Z</time>
      </trkpt>
      <trkpt lat="42.3067" lon="0.04768">
        <ele>848.7</ele>
        <time>2015-09-24T08:16:02Z</time>
      </trkpt>
      <trkpt lat="42.3067" lon="0.04772">
        <ele>848.9</ele>
        <time>2015-09-24T08:16:03Z</time>
      </trkpt>
      <trkpt lat="42.30669" lon="0.04776">
        <ele>849.1</ele>
        <time>2015-09-24T08:16:04Z</time>
      </trkpt>
      <trkpt lat="42.30668" lon="0.04781">
        <ele>849.4</ele>
        <time>2015-09-24T08:16:05Z</time>
      </trkpt>
      <trkpt lat="42.30668" lon="0.04785">
        <ele>849.6</ele>
        <time>2015-09-24T08:16:06Z</time>
      </trkpt>
      <trkpt lat="42.30668" lon="0.04789">
        <ele>849.9</ele>
        <time>2015-09-24T08:16:07Z</time>
      </trkpt>
      <trkpt lat="42.30667" lon="0.04794">
        <ele>850.2</ele>
        <time>2015-09-24T08:16:08Z</time>
      </trkpt>
      <trkpt lat="42.30667" lon="0.04798">
        <ele>850.5</ele>
        <time>2015-09-24T08:16:09Z</time>
      </trkpt>
      <trkpt lat="42.30667" lon="0.04802">
        <ele>850.8</ele>
        <time>2015-09-24T08:16:10Z</time>
      </trkpt>
      <trkpt lat="42.30667" lon="0.04806">
        <ele>851</ele>
        <time>2015-09-24T08:16:11Z</time>
      </trkpt>
      <trkpt lat="42.30667" lon="0.0481">
        <ele>851.3</ele>
        <time>2015-09-24T08:16:12Z</time>
      </trkpt>
      <trkpt lat="42.30666" lon="0.04817">
        <ele>851.8</ele>
        <time>2015-09-24T08:16:14Z</time>
      </trkpt>
      <trkpt lat="42.30665" lon="0.04824">
        <ele>852.3</ele>
        <time>2015-09-24T08:16:16Z</time>
      </trkpt>
      <trkpt lat="42.30665" lon="0.04831">
        <ele>852.8</ele>
        <time>2015-09-24T08:16:18Z</time>
      </trkpt>
      <trkpt lat="42.30665" lon="0.04837">
        <ele>853.3</ele>
        <time>2015-09-24T08:16:20Z</time>
      </trkpt>
      <trkpt lat="42.30664" lon="0.04843">
        <ele>853.7</ele>
        <time>2015-09-24T08:16:22Z</time>
      </trkpt>
      <trkpt lat="42.30663" lon="0.0485">
        <ele>854.2</ele>
        <time>2015-09-24T08:16:24Z</time>
      </trkpt>
      <trkpt lat="42.30662" lon="0.04855">
        <ele>854.6</ele>
        <time>2015-09-24T08:16:26Z</time>
      </trkpt>
      <trkpt lat="42.30661" lon="0.04861">
        <ele>855.1</ele>
        <time>2015-09-24T08:16:28Z</time>
      </trkpt>
      <trkpt lat="42.30658" lon="0.04866">
        <ele>855.5</ele>
        <time>2015-09-24T08:16:30Z</time>
      </trkpt>
      <trkpt lat="42.30656" lon="0.0487">
        <ele>855.9</ele>
        <time>2015-09-24T08:16:32Z</time>
      </trkpt>
      <trkpt lat="42.30653" lon="0.04875">
        <ele>856.3</ele>
        <time>2015-09-24T08:16:34Z</time>
      </trkpt>
      <trkpt lat="42.3065" lon="0.04879">
        <ele>856.9</ele>
        <time>2015-09-24T08:16:36Z</time>
      </trkpt>
      <trkpt lat="42.30648" lon="0.04883">
        <ele>857.5</ele>
        <time>2015-09-24T08:16:38Z</time>
      </trkpt>
      <trkpt lat="42.30645" lon="0.04888">
        <ele>858.1</ele>
        <time>2015-09-24T08:16:40Z</time>
      </trkpt>
      <trkpt lat="42.30642" lon="0.04892">
        <ele>858.7</ele>
        <time>2015-09-24T08:16:42Z</time>
      </trkpt>
      <trkpt lat="42.3064" lon="0.04897">
        <ele>859.3</ele>
        <time>2015-09-24T08:16:44Z</time>
      </trkpt>
      <trkpt lat="42.30637" lon="0.04901">
        <ele>859.9</ele>
        <time>2015-09-24T08:16:46Z</time>
      </trkpt>
      <trkpt lat="42.30634" lon="0.04905">
        <ele>860.5</ele>
        <time>2015-09-24T08:16:48Z</time>
      </trkpt>
      <trkpt lat="42.30631" lon="0.04909">
        <ele>861</ele>
        <time>2015-09-24T08:16:50Z</time>
      </trkpt>
      <trkpt lat="42.30628" lon="0.04914">
        <ele>861.6</ele>
        <time>2015-09-24T08:16:52Z</time>
      </trkpt>
      <trkpt lat="42.30625" lon="0.04918">
        <ele>862.1</ele>
        <time>2015-09-24T08:16:54Z</time>
      </trkpt>
      <trkpt lat="42.30622" lon="0.04922">
        <ele>862.6</ele>
        <time>2015-09-24T08:16:56Z</time>
      </trkpt>
      <trkpt lat="42.30619" lon="0.04925">
        <ele>863</ele>
        <time>2015-09-24T08:16:58Z</time>
      </trkpt>
      <trkpt lat="42.30615" lon="0.04929">
        <ele>863.5</ele>
        <time>2015-09-24T08:17:00Z</time>
      </trkpt>
      <trkpt lat="42.30612" lon="0.04932">
        <ele>864</ele>
        <time>2015-09-24T08:17:02Z</time>
      </trkpt>
      <trkpt lat="42.30609" lon="0.04936">
        <ele>864.6</ele>
        <time>2015-09-24T08:17:04Z</time>
      </trkpt>
      <trkpt lat="42.30606" lon="0.0494">
        <ele>865.2</ele>
        <time>2015-09-24T08:17:06Z</time>
      </trkpt>
      <trkpt lat="42.30602" lon="0.04943">
        <ele>865.6</ele>
        <time>2015-09-24T08:17:08Z</time>
      </trkpt>
      <trkpt lat="42.30599" lon="0.04945">
        <ele>866.1</ele>
        <time>2015-09-24T08:17:10Z</time>
      </trkpt>
      <trkpt lat="42.30595" lon="0.04948">
        <ele>866.6</ele>
        <time>2015-09-24T08:17:12Z</time>
      </trkpt>
      <trkpt lat="42.30592" lon="0.04952">
        <ele>867.2</ele>
        <time>2015-09-24T08:17:14Z</time>
      </trkpt>
      <trkpt lat="42.30589" lon="0.04955">
        <ele>867.7</ele>
        <time>2015-09-24T08:17:16Z</time>
      </trkpt>
      <trkpt lat="42.30586" lon="0.04958">
        <ele>868.3</ele>
        <time>2015-09-24T08:17:18Z</time>
      </trkpt>
      <trkpt lat="42.30583" lon="0.04961">
        <ele>868.8</ele>
        <time>2015-09-24T08:17:20Z</time>
      </trkpt>
      <trkpt lat="42.3058" lon="0.04963">
        <ele>869.2</ele>
        <time>2015-09-24T08:17:22Z</time>
      </trkpt>
      <trkpt lat="42.30576" lon="0.04964">
        <ele>869.4</ele>
        <time>2015-09-24T08:17:24Z</time>
      </trkpt>
      <trkpt lat="42.30572" lon="0.04966">
        <ele>869.7</ele>
        <time>2015-09-24T08:17:26Z</time>
      </trkpt>
      <trkpt lat="42.30569" lon="0.04968">
        <ele>870.1</ele>
        <time>2015-09-24T08:17:28Z</time>
      </trkpt>
      <trkpt lat="42.30566" lon="0.0497">
        <ele>870.4</ele>
        <time>2015-09-24T08:17:30Z</time>
      </trkpt>
      <trkpt lat="42.30562" lon="0.04971">
        <ele>870.6</ele>
        <time>2015-09-24T08:17:32Z</time>
      </trkpt>
      <trkpt lat="42.30558" lon="0.04972">
        <ele>870.8</ele>
        <time>2015-09-24T08:17:34Z</time>
      </trkpt>
      <trkpt lat="42.30554" lon="0.04973">
        <ele>871</ele>
        <time>2015-09-24T08:17:36Z</time>
      </trkpt>
      <trkpt lat="42.3055" lon="0.04975">
        <ele>871.3</ele>
        <time>2015-09-24T08:17:38Z</time>
      </trkpt>
      <trkpt lat="42.30546" lon="0.04977">
        <ele>871.6</ele>
        <time>2015-09-24T08:17:40Z</time>
      </trkpt>
      <trkpt lat="42.30542" lon="0.04978">
        <ele>871.9</ele>
        <time>2015-09-24T08:17:42Z</time>
      </trkpt>
      <trkpt lat="42.30538" lon="0.04979">
        <ele>872.2</ele>
        <time>2015-09-24T08:17:44Z</time>
      </trkpt>
      <trkpt lat="42.30534" lon="0.04981">
        <ele>872.6</ele>
        <time>2015-09-24T08:17:46Z</time>
      </trkpt>
      <trkpt lat="42.3053" lon="0.04982">
        <ele>873.1</ele>
        <time>2015-09-24T08:17:48Z</time>
      </trkpt>
      <trkpt lat="42.30526" lon="0.04984">
        <ele>873.5</ele>
        <time>2015-09-24T08:17:50Z</time>
      </trkpt>
      <trkpt lat="42.30522" lon="0.04986">
        <ele>873.9</ele>
        <time>2015-09-24T08:17:52Z</time>
      </trkpt>
      <trkpt lat="42.30518" lon="0.04988">
        <ele>874.3</ele>
        <time>2015-09-24T08:17:54Z</time>
      </trkpt>
      <trkpt lat="42.30514" lon="0.0499">
        <ele>874.7</ele>
        <time>2015-09-24T08:17:56Z</time>
      </trkpt>
      <trkpt lat="42.3051" lon="0.04991">
        <ele>875</ele>
        <time>2015-09-24T08:17:58Z</time>
      </trkpt>
      <trkpt lat="42.30506" lon="0.04993">
        <ele>875.4</ele>
        <time>2015-09-24T08:18:00Z</time>
      </trkpt>
      <trkpt lat="42.30503" lon="0.04995">
        <ele>875.8</ele>
        <time>2015-09-24T08:18:02Z</time>
      </trkpt>
      <trkpt lat="42.30499" lon="0.04997">
        <ele>876.1</ele>
        <time>2015-09-24T08:18:04Z</time>
      </trkpt>
      <trkpt lat="42.30495" lon="0.04999">
        <ele>876.5</ele>
        <time>2015-09-24T08:18:06Z</time>
      </trkpt>
      <trkpt lat="42.30491" lon="0.05">
        <ele>876.8</ele>
        <time>2015-09-24T08:18:08Z</time>
      </trkpt>
      <trkpt lat="42.30487" lon="0.05002">
        <ele>877.1</ele>
        <time>2015-09-24T08:18:10Z</time>
      </trkpt>
      <trkpt lat="42.30483" lon="0.05003">
        <ele>877.4</ele>
        <time>2015-09-24T08:18:12Z</time>
      </trkpt>
      <trkpt lat="42.30477" lon="0.05005">
        <ele>877.7</ele>
        <time>2015-09-24T08:18:14Z</time>
      </trkpt>
      <trkpt lat="42.30474" lon="0.05007">
        <ele>877.9</ele>
        <time>2015-09-24T08:18:15Z</time>
      </trkpt>
      <trkpt lat="42.30471" lon="0.05008">
        <ele>878.1</ele>
        <time>2015-09-24T08:18:16Z</time>
      </trkpt>
      <trkpt lat="42.30468" lon="0.05009">
        <ele>878.3</ele>
        <time>2015-09-24T08:18:17Z</time>
      </trkpt>
      <trkpt lat="42.30466" lon="0.0501">
        <ele>878.5</ele>
        <time>2015-09-24T08:18:18Z</time>
      </trkpt>
      <trkpt lat="42.30463" lon="0.05012">
        <ele>878.7</ele>
        <time>2015-09-24T08:18:19Z</time>
      </trkpt>
      <trkpt lat="42.3046" lon="0.05014">
        <ele>878.9</ele>
        <time>2015-09-24T08:18:20Z</time>
      </trkpt>
      <trkpt lat="42.30457" lon="0.05017">
        <ele>879.2</ele>
        <time>2015-09-24T08:18:21Z</time>
      </trkpt>
      <trkpt lat="42.30455" lon="0.05019">
        <ele>879.6</ele>
        <time>2015-09-24T08:18:22Z</time>
      </trkpt>
      <trkpt lat="42.30452" lon="0.05022">
        <ele>880.1</ele>
        <time>2015-09-24T08:18:23Z</time>
      </trkpt>
      <trkpt lat="42.3045" lon="0.05025">
        <ele>880.4</ele>
        <time>2015-09-24T08:18:24Z</time>
      </trkpt>
      <trkpt lat="42.30447" lon="0.05029">
        <ele>880.8</ele>
        <time>2015-09-24T08:18:25Z</time>
      </trkpt>
      <trkpt lat="42.30446" lon="0.05033">
        <ele>881.1</ele>
        <time>2015-09-24T08:18:26Z</time>
      </trkpt>
      <trkpt lat="42.30444" lon="0.05038">
        <ele>881.4</ele>
        <time>2015-09-24T08:18:27Z</time>
      </trkpt>
      <trkpt lat="42.30444" lon="0.05042">
        <ele>881.6</ele>
        <time>2015-09-24T08:18:28Z</time>
      </trkpt>
      <trkpt lat="42.30443" lon="0.05047">
        <ele>881.6</ele>
        <time>2015-09-24T08:18:29Z</time>
      </trkpt>
      <trkpt lat="42.30442" lon="0.05051">
        <ele>881.6</ele>
        <time>2015-09-24T08:18:30Z</time>
      </trkpt>
      <trkpt lat="42.3044" lon="0.05054">
        <ele>881.8</ele>
        <time>2015-09-24T08:18:31Z</time>
      </trkpt>
      <trkpt lat="42.30436" lon="0.05055">
        <ele>882.1</ele>
        <time>2015-09-24T08:18:32Z</time>
      </trkpt>
      <trkpt lat="42.30432" lon="0.05055">
        <ele>882.5</ele>
        <time>2015-09-24T08:18:33Z</time>
      </trkpt>
      <trkpt lat="42.30428" lon="0.05053">
        <ele>882.9</ele>
        <time>2015-09-24T08:18:34Z</time>
      </trkpt>
      <trkpt lat="42.30424" lon="0.05052">
        <ele>883.3</ele>
        <time>2015-09-24T08:18:35Z</time>
      </trkpt>
      <trkpt lat="42.3042" lon="0.05051">
        <ele>883.8</ele>
        <time>2015-09-24T08:18:36Z</time>
      </trkpt>
      <trkpt lat="42.30417" lon="0.0505">
        <ele>884.2</ele>
        <time>2015-09-24T08:18:37Z</time>
      </trkpt>
      <trkpt lat="42.30413" lon="0.05049">
        <ele>884.6</ele>
        <time>2015-09-24T08:18:38Z</time>
      </trkpt>
      <trkpt lat="42.30409" lon="0.05048">
        <ele>885</ele>
        <time>2015-09-24T08:18:39Z</time>
      </trkpt>
      <trkpt lat="42.30406" lon="0.05048">
        <ele>885.3</ele>
        <time>2015-09-24T08:18:40Z</time>
      </trkpt>
      <trkpt lat="42.30403" lon="0.05048">
        <ele>885.7</ele>
        <time>2015-09-24T08:18:41Z</time>
      </trkpt>
      <trkpt lat="42.30399" lon="0.05048">
        <ele>886</ele>
        <time>2015-09-24T08:18:42Z</time>
      </trkpt>
      <trkpt lat="42.30396" lon="0.05048">
        <ele>886.4</ele>
        <time>2015-09-24T08:18:43Z</time>
      </trkpt>
      <trkpt lat="42.30393" lon="0.05048">
        <ele>886.7</ele>
        <time>2015-09-24T08:18:44Z</time>
      </trkpt>
      <trkpt lat="42.3039" lon="0.05049">
        <ele>886.9</ele>
        <time>2015-09-24T08:18:45Z</time>
      </trkpt>
      <trkpt lat="42.30387" lon="0.05049">
        <ele>887.2</ele>
        <time>2015-09-24T08:18:46Z</time>
      </trkpt>
      <trkpt lat="42.30383" lon="0.0505">
        <ele>887.5</ele>
        <time>2015-09-24T08:18:47Z</time>
      </trkpt>
      <trkpt lat="42.3038" lon="0.05051">
        <ele>887.7</ele>
        <time>2015-09-24T08:18:48Z</time>
      </trkpt>
      <trkpt lat="42.30378" lon="0.05052">
        <ele>887.9</ele>
        <time>2015-09-24T08:18:49Z</time>
      </trkpt>
      <trkpt lat="42.30373" lon="0.05054">
        <ele>888.1</ele>
        <time>2015-09-24T08:18:51Z</time>
      </trkpt>
      <trkpt lat="42.30369" lon="0.05056">
        <ele>888</ele>
        <time>2015-09-24T08:18:53Z</time>
      </trkpt>
      <trkpt lat="42.30365" lon="0.0506">
        <ele>887.8</ele>
        <time>2015-09-24T08:18:55Z</time>
      </trkpt>
      <trkpt lat="42.30361" lon="0.05065">
        <ele>887.5</ele>
        <time>2015-09-24T08:18:57Z</time>
      </trkpt>
      <trkpt lat="42.30358" lon="0.0507">
        <ele>887.2</ele>
        <time>2015-09-24T08:18:59Z</time>
      </trkpt>
      <trkpt lat="42.30354" lon="0.05075">
        <ele>887</ele>
        <time>2015-09-24T08:19:01Z</time>
      </trkpt>
      <trkpt lat="42.30349" lon="0.05078">
        <ele>886.9</ele>
        <time>2015-09-24T08:19:03Z</time>
      </trkpt>
      <trkpt lat="42.30346" lon="0.05079">
        <ele>886.9</ele>
        <time>2015-09-24T08:19:04Z</time>
      </trkpt>
      <trkpt lat="42.30343" lon="0.0508">
        <ele>886.9</ele>
        <time>2015-09-24T08:19:05Z</time>
      </trkpt>
      <trkpt lat="42.3034" lon="0.05081">
        <ele>886.9</ele>
        <time>2015-09-24T08:19:06Z</time>
      </trkpt>
      <trkpt lat="42.30337" lon="0.05083">
        <ele>886.9</ele>
        <time>2015-09-24T08:19:07Z</time>
      </trkpt>
      <trkpt lat="42.30334" lon="0.05084">
        <ele>886.9</ele>
        <time>2015-09-24T08:19:08Z</time>
      </trkpt>
      <trkpt lat="42.30331" lon="0.05086">
        <ele>886.9</ele>
        <time>2015-09-24T08:19:09Z</time>
      </trkpt>
      <trkpt lat="42.30328" lon="0.05088">
        <ele>886.8</ele>
        <time>2015-09-24T08:19:10Z</time>
      </trkpt>
      <trkpt lat="42.30325" lon="0.0509">
        <ele>886.8</ele>
        <time>2015-09-24T08:19:11Z</time>
      </trkpt>
      <trkpt lat="42.30321" lon="0.05092">
        <ele>886.7</ele>
        <time>2015-09-24T08:19:12Z</time>
      </trkpt>
      <trkpt lat="42.30319" lon="0.05095">
        <ele>886.6</ele>
        <time>2015-09-24T08:19:13Z</time>
      </trkpt>
      <trkpt lat="42.30316" lon="0.05098">
        <ele>886.4</ele>
        <time>2015-09-24T08:19:14Z</time>
      </trkpt>
      <trkpt lat="42.30313" lon="0.05101">
        <ele>886.3</ele>
        <time>2015-09-24T08:19:15Z</time>
      </trkpt>
      <trkpt lat="42.3031" lon="0.05103">
        <ele>886.1</ele>
        <time>2015-09-24T08:19:16Z</time>
      </trkpt>
      <trkpt lat="42.30307" lon="0.05106">
        <ele>886.1</ele>
        <time>2015-09-24T08:19:17Z</time>
      </trkpt>
      <trkpt lat="42.30304" lon="0.05107">
        <ele>886.1</ele>
        <time>2015-09-24T08:19:18Z</time>
      </trkpt>
      <trkpt lat="42.303" lon="0.05108">
        <ele>886.1</ele>
        <time>2015-09-24T08:19:19Z</time>
      </trkpt>
      <trkpt lat="42.30296" lon="0.05109">
        <ele>886.2</ele>
        <time>2015-09-24T08:19:20Z</time>
      </trkpt>
      <trkpt lat="42.30293" lon="0.0511">
        <ele>886.2</ele>
        <time>2015-09-24T08:19:21Z</time>
      </trkpt>
      <trkpt lat="42.30289" lon="0.05111">
        <ele>886.1</ele>
        <time>2015-09-24T08:19:22Z</time>
      </trkpt>
      <trkpt lat="42.30284" lon="0.05113">
        <ele>885.8</ele>
        <time>2015-09-24T08:19:23Z</time>
      </trkpt>
      <trkpt lat="42.3028" lon="0.05114">
        <ele>885.5</ele>
        <time>2015-09-24T08:19:24Z</time>
      </trkpt>
      <trkpt lat="42.30276" lon="0.05115">
        <ele>885.3</ele>
        <time>2015-09-24T08:19:25Z</time>
      </trkpt>
      <trkpt lat="42.30271" lon="0.05116">
        <ele>885.1</ele>
        <time>2015-09-24T08:19:26Z</time>
      </trkpt>
      <trkpt lat="42.30267" lon="0.05116">
        <ele>884.9</ele>
        <time>2015-09-24T08:19:27Z</time>
      </trkpt>
      <trkpt lat="42.30263" lon="0.05116">
        <ele>884.8</ele>
        <time>2015-09-24T08:19:28Z</time>
      </trkpt>
      <trkpt lat="42.30258" lon="0.05116">
        <ele>884.6</ele>
        <time>2015-09-24T08:19:29Z</time>
      </trkpt>
      <trkpt lat="42.30254" lon="0.05116">
        <ele>884.5</ele>
        <time>2015-09-24T08:19:30Z</time>
      </trkpt>
      <trkpt lat="42.30249" lon="0.05117">
        <ele>884.3</ele>
        <time>2015-09-24T08:19:31Z</time>
      </trkpt>
      <trkpt lat="42.30245" lon="0.05117">
        <ele>884.1</ele>
        <time>2015-09-24T08:19:32Z</time>
      </trkpt>
      <trkpt lat="42.30241" lon="0.05117">
        <ele>883.9</ele>
        <time>2015-09-24T08:19:33Z</time>
      </trkpt>
      <trkpt lat="42.30237" lon="0.05118">
        <ele>883.8</ele>
        <time>2015-09-24T08:19:34Z</time>
      </trkpt>
      <trkpt lat="42.30232" lon="0.05118">
        <ele>883.6</ele>
        <time>2015-09-24T08:19:35Z</time>
      </trkpt>
      <trkpt lat="42.30228" lon="0.05117">
        <ele>883.5</ele>
        <time>2015-09-24T08:19:36Z</time>
      </trkpt>
      <trkpt lat="42.30223" lon="0.05116">
        <ele>883.4</ele>
        <time>2015-09-24T08:19:37Z</time>
      </trkpt>
      <trkpt lat="42.30219" lon="0.05117">
        <ele>883.2</ele>
        <time>2015-09-24T08:19:38Z</time>
      </trkpt>
      <trkpt lat="42.30214" lon="0.05117">
        <ele>883</ele>
        <time>2015-09-24T08:19:39Z</time>
      </trkpt>
      <trkpt lat="42.3021" lon="0.05118">
        <ele>882.8</ele>
        <time>2015-09-24T08:19:40Z</time>
      </trkpt>
      <trkpt lat="42.30205" lon="0.05119">
        <ele>882.7</ele>
        <time>2015-09-24T08:19:41Z</time>
      </trkpt>
      <trkpt lat="42.302" lon="0.05119">
        <ele>882.7</ele>
        <time>2015-09-24T08:19:42Z</time>
      </trkpt>
      <trkpt lat="42.30195" lon="0.05119">
        <ele>882.7</ele>
        <time>2015-09-24T08:19:43Z</time>
      </trkpt>
      <trkpt lat="42.3019" lon="0.05118">
        <ele>882.7</ele>
        <time>2015-09-24T08:19:44Z</time>
      </trkpt>
      <trkpt lat="42.30186" lon="0.05119">
        <ele>882.6</ele>
        <time>2015-09-24T08:19:45Z</time>
      </trkpt>
      <trkpt lat="42.30182" lon="0.05119">
        <ele>882.6</ele>
        <time>2015-09-24T08:19:46Z</time>
      </trkpt>
      <trkpt lat="42.30177" lon="0.05119">
        <ele>882.6</ele>
        <time>2015-09-24T08:19:47Z</time>
      </trkpt>
      <trkpt lat="42.30172" lon="0.05118">
        <ele>882.6</ele>
        <time>2015-09-24T08:19:48Z</time>
      </trkpt>
      <trkpt lat="42.30167" lon="0.05119">
        <ele>882.6</ele>
        <time>2015-09-24T08:19:49Z</time>
      </trkpt>
      <trkpt lat="42.30162" lon="0.0512">
        <ele>882.4</ele>
        <time>2015-09-24T08:19:50Z</time>
      </trkpt>
      <trkpt lat="42.30155" lon="0.05122">
        <ele>882.3</ele>
        <time>2015-09-24T08:19:51Z</time>
      </trkpt>
      <trkpt lat="42.30149" lon="0.05124">
        <ele>882.1</ele>
        <time>2015-09-24T08:19:52Z</time>
      </trkpt>
      <trkpt lat="42.30144" lon="0.05126">
        <ele>881.9</ele>
        <time>2015-09-24T08:19:53Z</time>
      </trkpt>
      <trkpt lat="42.30139" lon="0.0513">
        <ele>881.6</ele>
        <time>2015-09-24T08:19:54Z</time>
      </trkpt>
      <trkpt lat="42.30135" lon="0.05135">
        <ele>881.3</ele>
        <time>2015-09-24T08:19:55Z</time>
      </trkpt>
      <trkpt lat="42.30131" lon="0.0514">
        <ele>880.9</ele>
        <time>2015-09-24T08:19:56Z</time>
      </trkpt>
      <trkpt lat="42.30126" lon="0.05144">
        <ele>880.7</ele>
        <time>2015-09-24T08:19:57Z</time>
      </trkpt>
      <trkpt lat="42.30122" lon="0.05148">
        <ele>880.5</ele>
        <time>2015-09-24T08:19:58Z</time>
      </trkpt>
      <trkpt lat="42.30117" lon="0.05152">
        <ele>880.4</ele>
        <time>2015-09-24T08:19:59Z</time>
      </trkpt>
      <trkpt lat="42.30112" lon="0.05155">
        <ele>880.4</ele>
        <time>2015-09-24T08:20:00Z</time>
      </trkpt>
      <trkpt lat="42.30108" lon="0.05158">
        <ele>880.4</ele>
        <time>2015-09-24T08:20:01Z</time>
      </trkpt>
      <trkpt lat="42.30103" lon="0.05161">
        <ele>880.4</ele>
        <time>2015-09-24T08:20:02Z</time>
      </trkpt>
      <trkpt lat="42.30099" lon="0.05164">
        <ele>880.3</ele>
        <time>2015-09-24T08:20:03Z</time>
      </trkpt>
      <trkpt lat="42.30094" lon="0.05167">
        <ele>880.3</ele>
        <time>2015-09-24T08:20:04Z</time>
      </trkpt>
      <trkpt lat="42.30089" lon="0.05171">
        <ele>880.2</ele>
        <time>2015-09-24T08:20:05Z</time>
      </trkpt>
      <trkpt lat="42.30084" lon="0.05175">
        <ele>880.1</ele>
        <time>2015-09-24T08:20:06Z</time>
      </trkpt>
      <trkpt lat="42.30079" lon="0.05179">
        <ele>880</ele>
        <time>2015-09-24T08:20:07Z</time>
      </trkpt>
      <trkpt lat="42.30074" lon="0.05181">
        <ele>880</ele>
        <time>2015-09-24T08:20:08Z</time>
      </trkpt>
      <trkpt lat="42.30068" lon="0.05183">
        <ele>880.1</ele>
        <time>2015-09-24T08:20:09Z</time>
      </trkpt>
      <trkpt lat="42.30062" lon="0.05184">
        <ele>880.3</ele>
        <time>2015-09-24T08:20:10Z</time>
      </trkpt>
      <trkpt lat="42.30057" lon="0.05184">
        <ele>880.5</ele>
        <time>2015-09-24T08:20:11Z</time>
      </trkpt>
      <trkpt lat="42.30051" lon="0.05183">
        <ele>880.7</ele>
        <time>2015-09-24T08:20:12Z</time>
      </trkpt>
      <trkpt lat="42.30046" lon="0.05182">
        <ele>881</ele>
        <time>2015-09-24T08:20:13Z</time>
      </trkpt>
      <trkpt lat="42.30041" lon="0.05182">
        <ele>881.3</ele>
        <time>2015-09-24T08:20:14Z</time>
      </trkpt>
      <trkpt lat="42.30034" lon="0.05182">
        <ele>881.6</ele>
        <time>2015-09-24T08:20:15Z</time>
      </trkpt>
      <trkpt lat="42.30029" lon="0.05184">
        <ele>881.7</ele>
        <time>2015-09-24T08:20:16Z</time>
      </trkpt>
      <trkpt lat="42.30023" lon="0.05186">
        <ele>881.8</ele>
        <time>2015-09-24T08:20:17Z</time>
      </trkpt>
      <trkpt lat="42.30019" lon="0.05187">
        <ele>881.9</ele>
        <time>2015-09-24T08:20:18Z</time>
      </trkpt>
      <trkpt lat="42.30014" lon="0.05188">
        <ele>882.1</ele>
        <time>2015-09-24T08:20:19Z</time>
      </trkpt>
      <trkpt lat="42.30009" lon="0.05189">
        <ele>882.3</ele>
        <time>2015-09-24T08:20:20Z</time>
      </trkpt>
      <trkpt lat="42.30004" lon="0.0519">
        <ele>882.4</ele>
        <time>2015-09-24T08:20:21Z</time>
      </trkpt>
      <trkpt lat="42.3" lon="0.05191">
        <ele>882.6</ele>
        <time>2015-09-24T08:20:22Z</time>
      </trkpt>
      <trkpt lat="42.29995" lon="0.05192">
        <ele>882.7</ele>
        <time>2015-09-24T08:20:23Z</time>
      </trkpt>
      <trkpt lat="42.2999" lon="0.05193">
        <ele>882.9</ele>
        <time>2015-09-24T08:20:24Z</time>
      </trkpt>
      <trkpt lat="42.29986" lon="0.05194">
        <ele>883</ele>
        <time>2015-09-24T08:20:25Z</time>
      </trkpt>
      <trkpt lat="42.29982" lon="0.05195">
        <ele>883.1</ele>
        <time>2015-09-24T08:20:26Z</time>
      </trkpt>
      <trkpt lat="42.29978" lon="0.05198">
        <ele>883</ele>
        <time>2015-09-24T08:20:27Z</time>
      </trkpt>
      <trkpt lat="42.29974" lon="0.052">
        <ele>883.1</ele>
        <time>2015-09-24T08:20:28Z</time>
      </trkpt>
      <trkpt lat="42.29968" lon="0.05202">
        <ele>883.2</ele>
        <time>2015-09-24T08:20:29Z</time>
      </trkpt>
      <trkpt lat="42.29963" lon="0.05204">
        <ele>883.2</ele>
        <time>2015-09-24T08:20:30Z</time>
      </trkpt>
      <trkpt lat="42.29958" lon="0.05206">
        <ele>883.3</ele>
        <time>2015-09-24T08:20:31Z</time>
      </trkpt>
      <trkpt lat="42.29952" lon="0.05208">
        <ele>883.4</ele>
        <time>2015-09-24T08:20:32Z</time>
      </trkpt>
      <trkpt lat="42.29946" lon="0.05212">
        <ele>883.4</ele>
        <time>2015-09-24T08:20:33Z</time>
      </trkpt>
      <trkpt lat="42.29941" lon="0.05215">
        <ele>883.4</ele>
        <time>2015-09-24T08:20:34Z</time>
      </trkpt>
      <trkpt lat="42.29936" lon="0.0522">
        <ele>883.3</ele>
        <time>2015-09-24T08:20:35Z</time>
      </trkpt>
      <trkpt lat="42.29931" lon="0.05224">
        <ele>883.3</ele>
        <time>2015-09-24T08:20:36Z</time>
      </trkpt>
      <trkpt lat="42.29926" lon="0.05227">
        <ele>883.4</ele>
        <time>2015-09-24T08:20:37Z</time>
      </trkpt>
      <trkpt lat="42.29921" lon="0.05229">
        <ele>883.6</ele>
        <time>2015-09-24T08:20:38Z</time>
      </trkpt>
      <trkpt lat="42.29915" lon="0.05231">
        <ele>883.9</ele>
        <time>2015-09-24T08:20:39Z</time>
      </trkpt>
      <trkpt lat="42.2991" lon="0.05233">
        <ele>884.1</ele>
        <time>2015-09-24T08:20:40Z</time>
      </trkpt>
      <trkpt lat="42.29906" lon="0.05236">
        <ele>884.2</ele>
        <time>2015-09-24T08:20:41Z</time>
      </trkpt>
      <trkpt lat="42.29902" lon="0.0524">
        <ele>884.1</ele>
        <time>2015-09-24T08:20:42Z</time>
      </trkpt>
      <trkpt lat="42.299" lon="0.05243">
        <ele>884.1</ele>
        <time>2015-09-24T08:20:43Z</time>
      </trkpt>
      <trkpt lat="42.29896" lon="0.05247">
        <ele>884.1</ele>
        <time>2015-09-24T08:20:45Z</time>
      </trkpt>
      <trkpt lat="42.29892" lon="0.05251">
        <ele>884.1</ele>
        <time>2015-09-24T08:20:47Z</time>
      </trkpt>
      <trkpt lat="42.29889" lon="0.05253">
        <ele>884.2</ele>
        <time>2015-09-24T08:20:49Z</time>
      </trkpt>
      <trkpt lat="42.29887" lon="0.05256">
        <ele>884.2</ele>
        <time>2015-09-24T08:20:51Z</time>
      </trkpt>
      <trkpt lat="42.29883" lon="0.05259">
        <ele>884.3</ele>
        <time>2015-09-24T08:20:53Z</time>
      </trkpt>
      <trkpt lat="42.29879" lon="0.05262">
        <ele>884.4</ele>
        <time>2015-09-24T08:20:55Z</time>
      </trkpt>
      <trkpt lat="42.29875" lon="0.05266">
        <ele>884.6</ele>
        <time>2015-09-24T08:20:57Z</time>
      </trkpt>
      <trkpt lat="42.2987" lon="0.05268">
        <ele>885.1</ele>
        <time>2015-09-24T08:20:59Z</time>
      </trkpt>
      <trkpt lat="42.29867" lon="0.0527">
        <ele>885.3</ele>
        <time>2015-09-24T08:21:00Z</time>
      </trkpt>
      <trkpt lat="42.29864" lon="0.05271">
        <ele>885.6</ele>
        <time>2015-09-24T08:21:01Z</time>
      </trkpt>
      <trkpt lat="42.29861" lon="0.05273">
        <ele>885.9</ele>
        <time>2015-09-24T08:21:02Z</time>
      </trkpt>
      <trkpt lat="42.29858" lon="0.05274">
        <ele>886.2</ele>
        <time>2015-09-24T08:21:03Z</time>
      </trkpt>
      <trkpt lat="42.29856" lon="0.05276">
        <ele>886.4</ele>
        <time>2015-09-24T08:21:04Z</time>
      </trkpt>
      <trkpt lat="42.29853" lon="0.05278">
        <ele>886.7</ele>
        <time>2015-09-24T08:21:05Z</time>
      </trkpt>
      <trkpt lat="42.2985" lon="0.0528">
        <ele>886.9</ele>
        <time>2015-09-24T08:21:06Z</time>
      </trkpt>
      <trkpt lat="42.29847" lon="0.05283">
        <ele>887.2</ele>
        <time>2015-09-24T08:21:07Z</time>
      </trkpt>
      <trkpt lat="42.29843" lon="0.05286">
        <ele>887.5</ele>
        <time>2015-09-24T08:21:08Z</time>
      </trkpt>
      <trkpt lat="42.2984" lon="0.05288">
        <ele>887.8</ele>
        <time>2015-09-24T08:21:09Z</time>
      </trkpt>
      <trkpt lat="42.29836" lon="0.0529">
        <ele>888.2</ele>
        <time>2015-09-24T08:21:10Z</time>
      </trkpt>
      <trkpt lat="42.29832" lon="0.05293">
        <ele>888.5</ele>
        <time>2015-09-24T08:21:11Z</time>
      </trkpt>
      <trkpt lat="42.29829" lon="0.05295">
        <ele>888.8</ele>
        <time>2015-09-24T08:21:12Z</time>
      </trkpt>
      <trkpt lat="42.29826" lon="0.05297">
        <ele>889</ele>
        <time>2015-09-24T08:21:13Z</time>
      </trkpt>
      <trkpt lat="42.29822" lon="0.05299">
        <ele>889.2</ele>
        <time>2015-09-24T08:21:14Z</time>
      </trkpt>
      <trkpt lat="42.29819" lon="0.053">
        <ele>889.5</ele>
        <time>2015-09-24T08:21:15Z</time>
      </trkpt>
      <trkpt lat="42.29816" lon="0.05302">
        <ele>889.7</ele>
        <time>2015-09-24T08:21:16Z</time>
      </trkpt>
      <trkpt lat="42.29813" lon="0.05303">
        <ele>890</ele>
        <time>2015-09-24T08:21:17Z</time>
      </trkpt>
      <trkpt lat="42.2981" lon="0.05305">
        <ele>890.2</ele>
        <time>2015-09-24T08:21:18Z</time>
      </trkpt>
      <trkpt lat="42.29807" lon="0.05307">
        <ele>890.3</ele>
        <time>2015-09-24T08:21:19Z</time>
      </trkpt>
      <trkpt lat="42.29804" lon="0.05309">
        <ele>890.4</ele>
        <time>2015-09-24T08:21:20Z</time>
      </trkpt>
      <trkpt lat="42.29802" lon="0.05311">
        <ele>890.4</ele>
        <time>2015-09-24T08:21:21Z</time>
      </trkpt>
      <trkpt lat="42.29799" lon="0.05314">
        <ele>890.5</ele>
        <time>2015-09-24T08:21:22Z</time>
      </trkpt>
      <trkpt lat="42.29797" lon="0.05316">
        <ele>890.5</ele>
        <time>2015-09-24T08:21:23Z</time>
      </trkpt>
      <trkpt lat="42.29794" lon="0.05319">
        <ele>890.5</ele>
        <time>2015-09-24T08:21:24Z</time>
      </trkpt>
      <trkpt lat="42.29791" lon="0.05321">
        <ele>890.5</ele>
        <time>2015-09-24T08:21:25Z</time>
      </trkpt>
      <trkpt lat="42.29788" lon="0.05324">
        <ele>890.4</ele>
        <time>2015-09-24T08:21:26Z</time>
      </trkpt>
      <trkpt lat="42.29785" lon="0.05326">
        <ele>890.4</ele>
        <time>2015-09-24T08:21:27Z</time>
      </trkpt>
      <trkpt lat="42.29781" lon="0.05329">
        <ele>890.3</ele>
        <time>2015-09-24T08:21:28Z</time>
      </trkpt>
      <trkpt lat="42.29778" lon="0.05331">
        <ele>890.3</ele>
        <time>2015-09-24T08:21:29Z</time>
      </trkpt>
      <trkpt lat="42.29775" lon="0.05333">
        <ele>890.3</ele>
        <time>2015-09-24T08:21:30Z</time>
      </trkpt>
      <trkpt lat="42.29771" lon="0.05336">
        <ele>890.4</ele>
        <time>2015-09-24T08:21:31Z</time>
      </trkpt>
      <trkpt lat="42.29767" lon="0.05337">
        <ele>890.5</ele>
        <time>2015-09-24T08:21:32Z</time>
      </trkpt>
      <trkpt lat="42.29762" lon="0.05338">
        <ele>890.8</ele>
        <time>2015-09-24T08:21:33Z</time>
      </trkpt>
      <trkpt lat="42.29758" lon="0.05339">
        <ele>891.1</ele>
        <time>2015-09-24T08:21:34Z</time>
      </trkpt>
      <trkpt lat="42.29753" lon="0.0534">
        <ele>891.3</ele>
        <time>2015-09-24T08:21:35Z</time>
      </trkpt>
      <trkpt lat="42.2975" lon="0.05342">
        <ele>891.4</ele>
        <time>2015-09-24T08:21:36Z</time>
      </trkpt>
      <trkpt lat="42.29747" lon="0.05346">
        <ele>891.2</ele>
        <time>2015-09-24T08:21:37Z</time>
      </trkpt>
      <trkpt lat="42.29745" lon="0.0535">
        <ele>891</ele>
        <time>2015-09-24T08:21:38Z</time>
      </trkpt>
      <trkpt lat="42.29743" lon="0.05355">
        <ele>890.7</ele>
        <time>2015-09-24T08:21:39Z</time>
      </trkpt>
      <trkpt lat="42.29742" lon="0.05358">
        <ele>890.5</ele>
        <time>2015-09-24T08:21:40Z</time>
      </trkpt>
      <trkpt lat="42.29739" lon="0.05364">
        <ele>890.2</ele>
        <time>2015-09-24T08:21:42Z</time>
      </trkpt>
      <trkpt lat="42.29737" lon="0.05366">
        <ele>890.1</ele>
        <time>2015-09-24T08:21:43Z</time>
      </trkpt>
      <trkpt lat="42.29735" lon="0.05369">
        <ele>890</ele>
        <time>2015-09-24T08:21:44Z</time>
      </trkpt>
      <trkpt lat="42.29732" lon="0.05375">
        <ele>889.8</ele>
        <time>2015-09-24T08:21:46Z</time>
      </trkpt>
      <trkpt lat="42.2973" lon="0.05378">
        <ele>889.8</ele>
        <time>2015-09-24T08:21:47Z</time>
      </trkpt>
      <trkpt lat="42.29728" lon="0.05381">
        <ele>889.7</ele>
        <time>2015-09-24T08:21:48Z</time>
      </trkpt>
      <trkpt lat="42.29727" lon="0.05384">
        <ele>889.6</ele>
        <time>2015-09-24T08:21:49Z</time>
      </trkpt>
      <trkpt lat="42.29725" lon="0.05387">
        <ele>889.6</ele>
        <time>2015-09-24T08:21:50Z</time>
      </trkpt>
      <trkpt lat="42.29724" lon="0.0539">
        <ele>889.5</ele>
        <time>2015-09-24T08:21:51Z</time>
      </trkpt>
      <trkpt lat="42.29722" lon="0.05393">
        <ele>889.5</ele>
        <time>2015-09-24T08:21:52Z</time>
      </trkpt>
      <trkpt lat="42.29721" lon="0.05396">
        <ele>889.4</ele>
        <time>2015-09-24T08:21:53Z</time>
      </trkpt>
      <trkpt lat="42.2972" lon="0.054">
        <ele>889.3</ele>
        <time>2015-09-24T08:21:54Z</time>
      </trkpt>
      <trkpt lat="42.29718" lon="0.05403">
        <ele>889.1</ele>
        <time>2015-09-24T08:21:55Z</time>
      </trkpt>
      <trkpt lat="42.29717" lon="0.05406">
        <ele>889</ele>
        <time>2015-09-24T08:21:56Z</time>
      </trkpt>
      <trkpt lat="42.29715" lon="0.0541">
        <ele>889</ele>
        <time>2015-09-24T08:21:57Z</time>
      </trkpt>
      <trkpt lat="42.29713" lon="0.05412">
        <ele>889</ele>
        <time>2015-09-24T08:21:58Z</time>
      </trkpt>
      <trkpt lat="42.2971" lon="0.05414">
        <ele>889</ele>
        <time>2015-09-24T08:21:59Z</time>
      </trkpt>
      <trkpt lat="42.29707" lon="0.05415">
        <ele>889.2</ele>
        <time>2015-09-24T08:22:00Z</time>
      </trkpt>
      <trkpt lat="42.29705" lon="0.05415">
        <ele>889.5</ele>
        <time>2015-09-24T08:22:01Z</time>
      </trkpt>
      <trkpt lat="42.29702" lon="0.05412">
        <ele>890</ele>
        <time>2015-09-24T08:22:03Z</time>
      </trkpt>
      <trkpt lat="42.29699" lon="0.05409">
        <ele>890.5</ele>
        <time>2015-09-24T08:22:05Z</time>
      </trkpt>
      <trkpt lat="42.29696" lon="0.05406">
        <ele>891</ele>
        <time>2015-09-24T08:22:07Z</time>
      </trkpt>
      <trkpt lat="42.29692" lon="0.05404">
        <ele>891.5</ele>
        <time>2015-09-24T08:22:09Z</time>
      </trkpt>
      <trkpt lat="42.29688" lon="0.05402">
        <ele>892</ele>
        <time>2015-09-24T08:22:11Z</time>
      </trkpt>
      <trkpt lat="42.29685" lon="0.05401">
        <ele>892.5</ele>
        <time>2015-09-24T08:22:13Z</time>
      </trkpt>
      <trkpt lat="42.29681" lon="0.054">
        <ele>892.9</ele>
        <time>2015-09-24T08:22:15Z</time>
      </trkpt>
      <trkpt lat="42.29677" lon="0.05399">
        <ele>893.4</ele>
        <time>2015-09-24T08:22:17Z</time>
      </trkpt>
      <trkpt lat="42.29673" lon="0.05397">
        <ele>893.9</ele>
        <time>2015-09-24T08:22:19Z</time>
      </trkpt>
      <trkpt lat="42.29669" lon="0.05395">
        <ele>894.5</ele>
        <time>2015-09-24T08:22:21Z</time>
      </trkpt>
      <trkpt lat="42.29665" lon="0.05394">
        <ele>895</ele>
        <time>2015-09-24T08:22:23Z</time>
      </trkpt>
      <trkpt lat="42.2966" lon="0.05392">
        <ele>895.6</ele>
        <time>2015-09-24T08:22:25Z</time>
      </trkpt>
      <trkpt lat="42.29656" lon="0.0539">
        <ele>896.2</ele>
        <time>2015-09-24T08:22:27Z</time>
      </trkpt>
      <trkpt lat="42.29652" lon="0.05389">
        <ele>896.8</ele>
        <time>2015-09-24T08:22:29Z</time>
      </trkpt>
      <trkpt lat="42.29648" lon="0.05387">
        <ele>897.4</ele>
        <time>2015-09-24T08:22:31Z</time>
      </trkpt>
      <trkpt lat="42.29643" lon="0.05386">
        <ele>898</ele>
        <time>2015-09-24T08:22:33Z</time>
      </trkpt>
      <trkpt lat="42.29639" lon="0.05385">
        <ele>898.5</ele>
        <time>2015-09-24T08:22:35Z</time>
      </trkpt>
      <trkpt lat="42.29635" lon="0.05383">
        <ele>899.1</ele>
        <time>2015-09-24T08:22:37Z</time>
      </trkpt>
      <trkpt lat="42.29631" lon="0.05379">
        <ele>899.9</ele>
        <time>2015-09-24T08:22:39Z</time>
      </trkpt>
      <trkpt lat="42.29628" lon="0.05375">
        <ele>900.6</ele>
        <time>2015-09-24T08:22:41Z</time>
      </trkpt>
      <trkpt lat="42.29625" lon="0.05372">
        <ele>901.2</ele>
        <time>2015-09-24T08:22:43Z</time>
      </trkpt>
      <trkpt lat="42.29621" lon="0.05368">
        <ele>901.6</ele>
        <time>2015-09-24T08:22:45Z</time>
      </trkpt>
      <trkpt lat="42.29618" lon="0.05365">
        <ele>901.9</ele>
        <time>2015-09-24T08:22:47Z</time>
      </trkpt>
      <trkpt lat="42.29614" lon="0.05363">
        <ele>902.2</ele>
        <time>2015-09-24T08:22:49Z</time>
      </trkpt>
      <trkpt lat="42.2961" lon="0.05362">
        <ele>902.4</ele>
        <time>2015-09-24T08:22:51Z</time>
      </trkpt>
      <trkpt lat="42.29606" lon="0.0536">
        <ele>902.7</ele>
        <time>2015-09-24T08:22:53Z</time>
      </trkpt>
      <trkpt lat="42.29602" lon="0.05359">
        <ele>902.9</ele>
        <time>2015-09-24T08:22:55Z</time>
      </trkpt>
      <trkpt lat="42.29598" lon="0.05357">
        <ele>903.2</ele>
        <time>2015-09-24T08:22:57Z</time>
      </trkpt>
      <trkpt lat="42.29594" lon="0.05356">
        <ele>903.4</ele>
        <time>2015-09-24T08:22:59Z</time>
      </trkpt>
      <trkpt lat="42.2959" lon="0.05354">
        <ele>903.7</ele>
        <time>2015-09-24T08:23:01Z</time>
      </trkpt>
      <trkpt lat="42.29585" lon="0.05352">
        <ele>904</ele>
        <time>2015-09-24T08:23:03Z</time>
      </trkpt>
      <trkpt lat="42.29581" lon="0.0535">
        <ele>904.3</ele>
        <time>2015-09-24T08:23:05Z</time>
      </trkpt>
      <trkpt lat="42.29576" lon="0.05349">
        <ele>904.6</ele>
        <time>2015-09-24T08:23:07Z</time>
      </trkpt>
      <trkpt lat="42.29572" lon="0.05347">
        <ele>905</ele>
        <time>2015-09-24T08:23:09Z</time>
      </trkpt>
      <trkpt lat="42.29568" lon="0.05345">
        <ele>905.3</ele>
        <time>2015-09-24T08:23:11Z</time>
      </trkpt>
      <trkpt lat="42.29564" lon="0.05342">
        <ele>905.7</ele>
        <time>2015-09-24T08:23:13Z</time>
      </trkpt>
      <trkpt lat="42.29561" lon="0.0534">
        <ele>906.1</ele>
        <time>2015-09-24T08:23:15Z</time>
      </trkpt>
      <trkpt lat="42.29557" lon="0.05337">
        <ele>906.5</ele>
        <time>2015-09-24T08:23:17Z</time>
      </trkpt>
      <trkpt lat="42.29553" lon="0.05335">
        <ele>906.9</ele>
        <time>2015-09-24T08:23:19Z</time>
      </trkpt>
      <trkpt lat="42.2955" lon="0.05333">
        <ele>907.2</ele>
        <time>2015-09-24T08:23:21Z</time>
      </trkpt>
      <trkpt lat="42.29545" lon="0.05331">
        <ele>907.6</ele>
        <time>2015-09-24T08:23:23Z</time>
      </trkpt>
      <trkpt lat="42.29541" lon="0.0533">
        <ele>907.9</ele>
        <time>2015-09-24T08:23:25Z</time>
      </trkpt>
      <trkpt lat="42.29536" lon="0.05329">
        <ele>908.1</ele>
        <time>2015-09-24T08:23:27Z</time>
      </trkpt>
      <trkpt lat="42.29531" lon="0.05328">
        <ele>908.2</ele>
        <time>2015-09-24T08:23:29Z</time>
      </trkpt>
      <trkpt lat="42.29527" lon="0.05329">
        <ele>908.1</ele>
        <time>2015-09-24T08:23:30Z</time>
      </trkpt>
      <trkpt lat="42.29524" lon="0.0533">
        <ele>908.1</ele>
        <time>2015-09-24T08:23:31Z</time>
      </trkpt>
      <trkpt lat="42.29521" lon="0.0533">
        <ele>908.1</ele>
        <time>2015-09-24T08:23:32Z</time>
      </trkpt>
      <trkpt lat="42.29517" lon="0.0533">
        <ele>908.1</ele>
        <time>2015-09-24T08:23:33Z</time>
      </trkpt>
      <trkpt lat="42.29514" lon="0.0533">
        <ele>908.1</ele>
        <time>2015-09-24T08:23:34Z</time>
      </trkpt>
      <trkpt lat="42.2951" lon="0.0533">
        <ele>908.2</ele>
        <time>2015-09-24T08:23:35Z</time>
      </trkpt>
      <trkpt lat="42.29506" lon="0.0533">
        <ele>908.2</ele>
        <time>2015-09-24T08:23:36Z</time>
      </trkpt>
      <trkpt lat="42.29503" lon="0.05329">
        <ele>908.3</ele>
        <time>2015-09-24T08:23:37Z</time>
      </trkpt>
      <trkpt lat="42.29499" lon="0.05329">
        <ele>908.4</ele>
        <time>2015-09-24T08:23:38Z</time>
      </trkpt>
      <trkpt lat="42.29495" lon="0.05328">
        <ele>908.5</ele>
        <time>2015-09-24T08:23:39Z</time>
      </trkpt>
      <trkpt lat="42.29492" lon="0.05328">
        <ele>908.5</ele>
        <time>2015-09-24T08:23:40Z</time>
      </trkpt>
      <trkpt lat="42.29488" lon="0.05327">
        <ele>908.6</ele>
        <time>2015-09-24T08:23:41Z</time>
      </trkpt>
      <trkpt lat="42.29485" lon="0.05326">
        <ele>908.7</ele>
        <time>2015-09-24T08:23:42Z</time>
      </trkpt>
      <trkpt lat="42.29482" lon="0.05325">
        <ele>908.8</ele>
        <time>2015-09-24T08:23:43Z</time>
      </trkpt>
      <trkpt lat="42.29479" lon="0.05325">
        <ele>908.9</ele>
        <time>2015-09-24T08:23:44Z</time>
      </trkpt>
      <trkpt lat="42.29476" lon="0.05324">
        <ele>908.9</ele>
        <time>2015-09-24T08:23:45Z</time>
      </trkpt>
      <trkpt lat="42.2947" lon="0.05323">
        <ele>909</ele>
        <time>2015-09-24T08:23:47Z</time>
      </trkpt>
      <trkpt lat="42.29468" lon="0.05322">
        <ele>909.1</ele>
        <time>2015-09-24T08:23:48Z</time>
      </trkpt>
      <trkpt lat="42.29465" lon="0.05322">
        <ele>909.2</ele>
        <time>2015-09-24T08:23:49Z</time>
      </trkpt>
      <trkpt lat="42.29462" lon="0.05321">
        <ele>909.2</ele>
        <time>2015-09-24T08:23:50Z</time>
      </trkpt>
      <trkpt lat="42.29459" lon="0.05321">
        <ele>909.2</ele>
        <time>2015-09-24T08:23:51Z</time>
      </trkpt>
      <trkpt lat="42.29456" lon="0.05321">
        <ele>909.3</ele>
        <time>2015-09-24T08:23:52Z</time>
      </trkpt>
      <trkpt lat="42.29451" lon="0.05322">
        <ele>909.5</ele>
        <time>2015-09-24T08:23:53Z</time>
      </trkpt>
      <trkpt lat="42.29447" lon="0.05321">
        <ele>909.7</ele>
        <time>2015-09-24T08:23:54Z</time>
      </trkpt>
      <trkpt lat="42.29441" lon="0.05319">
        <ele>910</ele>
        <time>2015-09-24T08:23:55Z</time>
      </trkpt>
      <trkpt lat="42.29437" lon="0.05317">
        <ele>910.4</ele>
        <time>2015-09-24T08:23:56Z</time>
      </trkpt>
      <trkpt lat="42.29433" lon="0.05315">
        <ele>910.6</ele>
        <time>2015-09-24T08:23:57Z</time>
      </trkpt>
      <trkpt lat="42.2943" lon="0.05311">
        <ele>910.9</ele>
        <time>2015-09-24T08:23:58Z</time>
      </trkpt>
      <trkpt lat="42.29427" lon="0.05308">
        <ele>911.2</ele>
        <time>2015-09-24T08:23:59Z</time>
      </trkpt>
      <trkpt lat="42.29425" lon="0.05305">
        <ele>911.4</ele>
        <time>2015-09-24T08:24:00Z</time>
      </trkpt>
      <trkpt lat="42.29423" lon="0.05302">
        <ele>911.7</ele>
        <time>2015-09-24T08:24:01Z</time>
      </trkpt>
      <trkpt lat="42.29421" lon="0.05299">
        <ele>911.9</ele>
        <time>2015-09-24T08:24:02Z</time>
      </trkpt>
      <trkpt lat="42.29418" lon="0.05297">
        <ele>912.2</ele>
        <time>2015-09-24T08:24:03Z</time>
      </trkpt>
      <trkpt lat="42.29414" lon="0.05294">
        <ele>912.5</ele>
        <time>2015-09-24T08:24:05Z</time>
      </trkpt>
      <trkpt lat="42.2941" lon="0.05292">
        <ele>912.8</ele>
        <time>2015-09-24T08:24:07Z</time>
      </trkpt>
      <trkpt lat="42.29405" lon="0.05289">
        <ele>913.1</ele>
        <time>2015-09-24T08:24:09Z</time>
      </trkpt>
      <trkpt lat="42.29401" lon="0.05288">
        <ele>913.4</ele>
        <time>2015-09-24T08:24:11Z</time>
      </trkpt>
      <trkpt lat="42.29397" lon="0.05287">
        <ele>913.7</ele>
        <time>2015-09-24T08:24:13Z</time>
      </trkpt>
      <trkpt lat="42.29394" lon="0.05286">
        <ele>913.8</ele>
        <time>2015-09-24T08:24:15Z</time>
      </trkpt>
      <trkpt lat="42.2939" lon="0.05285">
        <ele>914</ele>
        <time>2015-09-24T08:24:17Z</time>
      </trkpt>
      <trkpt lat="42.29387" lon="0.05285">
        <ele>914.1</ele>
        <time>2015-09-24T08:24:19Z</time>
      </trkpt>
      <trkpt lat="42.29384" lon="0.05284">
        <ele>914.3</ele>
        <time>2015-09-24T08:24:21Z</time>
      </trkpt>
      <trkpt lat="42.2938" lon="0.05283">
        <ele>914.5</ele>
        <time>2015-09-24T08:24:23Z</time>
      </trkpt>
      <trkpt lat="42.29377" lon="0.05283">
        <ele>914.6</ele>
        <time>2015-09-24T08:24:25Z</time>
      </trkpt>
      <trkpt lat="42.29373" lon="0.05282">
        <ele>914.8</ele>
        <time>2015-09-24T08:24:27Z</time>
      </trkpt>
      <trkpt lat="42.2937" lon="0.05282">
        <ele>915</ele>
        <time>2015-09-24T08:24:29Z</time>
      </trkpt>
      <trkpt lat="42.29366" lon="0.05281">
        <ele>915.2</ele>
        <time>2015-09-24T08:24:31Z</time>
      </trkpt>
      <trkpt lat="42.29363" lon="0.05281">
        <ele>915.4</ele>
        <time>2015-09-24T08:24:33Z</time>
      </trkpt>
      <trkpt lat="42.29359" lon="0.05281">
        <ele>915.5</ele>
        <time>2015-09-24T08:24:35Z</time>
      </trkpt>
      <trkpt lat="42.29356" lon="0.05281">
        <ele>915.7</ele>
        <time>2015-09-24T08:24:37Z</time>
      </trkpt>
      <trkpt lat="42.29352" lon="0.0528">
        <ele>915.9</ele>
        <time>2015-09-24T08:24:39Z</time>
      </trkpt>
      <trkpt lat="42.29349" lon="0.0528">
        <ele>916.1</ele>
        <time>2015-09-24T08:24:41Z</time>
      </trkpt>
      <trkpt lat="42.29345" lon="0.05278">
        <ele>916.3</ele>
        <time>2015-09-24T08:24:43Z</time>
      </trkpt>
      <trkpt lat="42.29342" lon="0.05276">
        <ele>916.6</ele>
        <time>2015-09-24T08:24:45Z</time>
      </trkpt>
      <trkpt lat="42.29339" lon="0.05274">
        <ele>916.9</ele>
        <time>2015-09-24T08:24:47Z</time>
      </trkpt>
      <trkpt lat="42.29336" lon="0.05271">
        <ele>917.2</ele>
        <time>2015-09-24T08:24:49Z</time>
      </trkpt>
      <trkpt lat="42.29332" lon="0.05268">
        <ele>917.6</ele>
        <time>2015-09-24T08:24:51Z</time>
      </trkpt>
      <trkpt lat="42.29328" lon="0.05266">
        <ele>917.9</ele>
        <time>2015-09-24T08:24:53Z</time>
      </trkpt>
      <trkpt lat="42.29324" lon="0.05265">
        <ele>918.2</ele>
        <time>2015-09-24T08:24:55Z</time>
      </trkpt>
      <trkpt lat="42.29319" lon="0.05265">
        <ele>918.4</ele>
        <time>2015-09-24T08:24:57Z</time>
      </trkpt>
      <trkpt lat="42.29315" lon="0.05267">
        <ele>918.5</ele>
        <time>2015-09-24T08:24:59Z</time>
      </trkpt>
      <trkpt lat="42.29312" lon="0.05269">
        <ele>918.5</ele>
        <time>2015-09-24T08:25:00Z</time>
      </trkpt>
      <trkpt lat="42.29309" lon="0.0527">
        <ele>918.5</ele>
        <time>2015-09-24T08:25:01Z</time>
      </trkpt>
      <trkpt lat="42.29304" lon="0.05272">
        <ele>918.6</ele>
        <time>2015-09-24T08:25:03Z</time>
      </trkpt>
      <trkpt lat="42.29299" lon="0.05273">
        <ele>918.8</ele>
        <time>2015-09-24T08:25:05Z</time>
      </trkpt>
      <trkpt lat="42.29294" lon="0.05274">
        <ele>919</ele>
        <time>2015-09-24T08:25:07Z</time>
      </trkpt>
      <trkpt lat="42.29291" lon="0.05275">
        <ele>919</ele>
        <time>2015-09-24T08:25:08Z</time>
      </trkpt>
      <trkpt lat="42.29288" lon="0.05275">
        <ele>919</ele>
        <time>2015-09-24T08:25:09Z</time>
      </trkpt>
      <trkpt lat="42.29285" lon="0.05276">
        <ele>919.1</ele>
        <time>2015-09-24T08:25:10Z</time>
      </trkpt>
      <trkpt lat="42.29282" lon="0.05276">
        <ele>919.1</ele>
        <time>2015-09-24T08:25:11Z</time>
      </trkpt>
      <trkpt lat="42.29279" lon="0.05275">
        <ele>919.2</ele>
        <time>2015-09-24T08:25:12Z</time>
      </trkpt>
      <trkpt lat="42.29276" lon="0.05275">
        <ele>919.3</ele>
        <time>2015-09-24T08:25:13Z</time>
      </trkpt>
      <trkpt lat="42.29273" lon="0.05274">
        <ele>919.4</ele>
        <time>2015-09-24T08:25:14Z</time>
      </trkpt>
      <trkpt lat="42.2927" lon="0.05273">
        <ele>919.5</ele>
        <time>2015-09-24T08:25:15Z</time>
      </trkpt>
      <trkpt lat="42.29267" lon="0.05272">
        <ele>919.6</ele>
        <time>2015-09-24T08:25:16Z</time>
      </trkpt>
      <trkpt lat="42.29264" lon="0.05272">
        <ele>919.7</ele>
        <time>2015-09-24T08:25:17Z</time>
      </trkpt>
      <trkpt lat="42.29261" lon="0.05272">
        <ele>919.7</ele>
        <time>2015-09-24T08:25:18Z</time>
      </trkpt>
      <trkpt lat="42.29258" lon="0.05273">
        <ele>919.7</ele>
        <time>2015-09-24T08:25:19Z</time>
      </trkpt>
      <trkpt lat="42.29255" lon="0.05274">
        <ele>919.6</ele>
        <time>2015-09-24T08:25:20Z</time>
      </trkpt>
      <trkpt lat="42.29252" lon="0.05275">
        <ele>919.6</ele>
        <time>2015-09-24T08:25:21Z</time>
      </trkpt>
      <trkpt lat="42.2925" lon="0.05275">
        <ele>919.6</ele>
        <time>2015-09-24T08:25:22Z</time>
      </trkpt>
      <trkpt lat="42.29246" lon="0.05276">
        <ele>919.6</ele>
        <time>2015-09-24T08:25:23Z</time>
      </trkpt>
      <trkpt lat="42.29243" lon="0.05276">
        <ele>919.6</ele>
        <time>2015-09-24T08:25:24Z</time>
      </trkpt>
      <trkpt lat="42.2924" lon="0.05277">
        <ele>919.6</ele>
        <time>2015-09-24T08:25:25Z</time>
      </trkpt>
      <trkpt lat="42.29237" lon="0.05277">
        <ele>919.6</ele>
        <time>2015-09-24T08:25:26Z</time>
      </trkpt>
      <trkpt lat="42.29234" lon="0.05277">
        <ele>919.7</ele>
        <time>2015-09-24T08:25:27Z</time>
      </trkpt>
      <trkpt lat="42.29231" lon="0.05276">
        <ele>919.8</ele>
        <time>2015-09-24T08:25:28Z</time>
      </trkpt>
      <trkpt lat="42.29228" lon="0.05275">
        <ele>919.9</ele>
        <time>2015-09-24T08:25:29Z</time>
      </trkpt>
      <trkpt lat="42.29225" lon="0.05274">
        <ele>920.1</ele>
        <time>2015-09-24T08:25:30Z</time>
      </trkpt>
      <trkpt lat="42.2922" lon="0.05272">
        <ele>920.4</ele>
        <time>2015-09-24T08:25:32Z</time>
      </trkpt>
      <trkpt lat="42.29215" lon="0.0527">
        <ele>920.7</ele>
        <time>2015-09-24T08:25:34Z</time>
      </trkpt>
      <trkpt lat="42.29213" lon="0.05269">
        <ele>920.9</ele>
        <time>2015-09-24T08:25:35Z</time>
      </trkpt>
      <trkpt lat="42.2921" lon="0.05268">
        <ele>921.1</ele>
        <time>2015-09-24T08:25:36Z</time>
      </trkpt>
      <trkpt lat="42.29207" lon="0.05267">
        <ele>921.3</ele>
        <time>2015-09-24T08:25:37Z</time>
      </trkpt>
      <trkpt lat="42.29205" lon="0.05266">
        <ele>921.5</ele>
        <time>2015-09-24T08:25:38Z</time>
      </trkpt>
      <trkpt lat="42.29202" lon="0.05265">
        <ele>921.7</ele>
        <time>2015-09-24T08:25:39Z</time>
      </trkpt>
      <trkpt lat="42.29199" lon="0.05264">
        <ele>921.9</ele>
        <time>2015-09-24T08:25:40Z</time>
      </trkpt>
      <trkpt lat="42.29196" lon="0.05263">
        <ele>922.1</ele>
        <time>2015-09-24T08:25:41Z</time>
      </trkpt>
      <trkpt lat="42.29194" lon="0.05262">
        <ele>922.2</ele>
        <time>2015-09-24T08:25:42Z</time>
      </trkpt>
      <trkpt lat="42.29191" lon="0.05261">
        <ele>922.4</ele>
        <time>2015-09-24T08:25:43Z</time>
      </trkpt>
      <trkpt lat="42.29188" lon="0.05261">
        <ele>922.5</ele>
        <time>2015-09-24T08:25:44Z</time>
      </trkpt>
      <trkpt lat="42.29184" lon="0.0526">
        <ele>922.7</ele>
        <time>2015-09-24T08:25:45Z</time>
      </trkpt>
      <trkpt lat="42.29181" lon="0.05259">
        <ele>922.9</ele>
        <time>2015-09-24T08:25:46Z</time>
      </trkpt>
      <trkpt lat="42.29178" lon="0.05258">
        <ele>923.1</ele>
        <time>2015-09-24T08:25:47Z</time>
      </trkpt>
      <trkpt lat="42.29175" lon="0.05257">
        <ele>923.3</ele>
        <time>2015-09-24T08:25:48Z</time>
      </trkpt>
      <trkpt lat="42.29171" lon="0.05256">
        <ele>923.5</ele>
        <time>2015-09-24T08:25:49Z</time>
      </trkpt>
      <trkpt lat="42.29168" lon="0.05256">
        <ele>923.7</ele>
        <time>2015-09-24T08:25:50Z</time>
      </trkpt>
      <trkpt lat="42.29165" lon="0.05255">
        <ele>923.8</ele>
        <time>2015-09-24T08:25:51Z</time>
      </trkpt>
      <trkpt lat="42.29161" lon="0.05255">
        <ele>924</ele>
        <time>2015-09-24T08:25:52Z</time>
      </trkpt>
      <trkpt lat="42.29158" lon="0.05254">
        <ele>924.1</ele>
        <time>2015-09-24T08:25:53Z</time>
      </trkpt>
      <trkpt lat="42.29155" lon="0.05254">
        <ele>924.2</ele>
        <time>2015-09-24T08:25:54Z</time>
      </trkpt>
      <trkpt lat="42.29151" lon="0.05254">
        <ele>924.2</ele>
        <time>2015-09-24T08:25:55Z</time>
      </trkpt>
      <trkpt lat="42.29148" lon="0.05254">
        <ele>924.3</ele>
        <time>2015-09-24T08:25:56Z</time>
      </trkpt>
      <trkpt lat="42.29145" lon="0.05254">
        <ele>924.5</ele>
        <time>2015-09-24T08:25:57Z</time>
      </trkpt>
      <trkpt lat="42.29142" lon="0.05254">
        <ele>924.6</ele>
        <time>2015-09-24T08:25:58Z</time>
      </trkpt>
      <trkpt lat="42.29139" lon="0.05253">
        <ele>924.7</ele>
        <time>2015-09-24T08:25:59Z</time>
      </trkpt>
      <trkpt lat="42.29136" lon="0.05253">
        <ele>924.8</ele>
        <time>2015-09-24T08:26:00Z</time>
      </trkpt>
      <trkpt lat="42.29133" lon="0.05253">
        <ele>924.9</ele>
        <time>2015-09-24T08:26:01Z</time>
      </trkpt>
      <trkpt lat="42.2913" lon="0.05252">
        <ele>925.1</ele>
        <time>2015-09-24T08:26:02Z</time>
      </trkpt>
      <trkpt lat="42.29127" lon="0.05251">
        <ele>925.3</ele>
        <time>2015-09-24T08:26:03Z</time>
      </trkpt>
      <trkpt lat="42.29124" lon="0.0525">
        <ele>925.5</ele>
        <time>2015-09-24T08:26:04Z</time>
      </trkpt>
      <trkpt lat="42.29122" lon="0.05249">
        <ele>925.6</ele>
        <time>2015-09-24T08:26:05Z</time>
      </trkpt>
      <trkpt lat="42.29119" lon="0.05249">
        <ele>925.8</ele>
        <time>2015-09-24T08:26:06Z</time>
      </trkpt>
      <trkpt lat="42.29116" lon="0.05248">
        <ele>925.9</ele>
        <time>2015-09-24T08:26:07Z</time>
      </trkpt>
      <trkpt lat="42.29113" lon="0.05248">
        <ele>926</ele>
        <time>2015-09-24T08:26:08Z</time>
      </trkpt>
      <trkpt lat="42.2911" lon="0.05247">
        <ele>926.1</ele>
        <time>2015-09-24T08:26:09Z</time>
      </trkpt>
      <trkpt lat="42.29108" lon="0.05247">
        <ele>926.2</ele>
        <time>2015-09-24T08:26:10Z</time>
      </trkpt>
      <trkpt lat="42.29105" lon="0.05247">
        <ele>926.3</ele>
        <time>2015-09-24T08:26:11Z</time>
      </trkpt>
      <trkpt lat="42.29102" lon="0.05246">
        <ele>926.3</ele>
        <time>2015-09-24T08:26:12Z</time>
      </trkpt>
      <trkpt lat="42.29097" lon="0.05245">
        <ele>926.5</ele>
        <time>2015-09-24T08:26:14Z</time>
      </trkpt>
      <trkpt lat="42.29092" lon="0.05243">
        <ele>926.9</ele>
        <time>2015-09-24T08:26:16Z</time>
      </trkpt>
      <trkpt lat="42.29088" lon="0.05241">
        <ele>927.2</ele>
        <time>2015-09-24T08:26:18Z</time>
      </trkpt>
      <trkpt lat="42.29084" lon="0.05241">
        <ele>927.3</ele>
        <time>2015-09-24T08:26:20Z</time>
      </trkpt>
      <trkpt lat="42.29079" lon="0.0524">
        <ele>927.5</ele>
        <time>2015-09-24T08:26:22Z</time>
      </trkpt>
      <trkpt lat="42.29076" lon="0.0524">
        <ele>927.6</ele>
        <time>2015-09-24T08:26:23Z</time>
      </trkpt>
      <trkpt lat="42.29071" lon="0.05239">
        <ele>927.7</ele>
        <time>2015-09-24T08:26:25Z</time>
      </trkpt>
      <trkpt lat="42.29066" lon="0.05238">
        <ele>927.9</ele>
        <time>2015-09-24T08:26:27Z</time>
      </trkpt>
      <trkpt lat="42.29063" lon="0.05238">
        <ele>927.9</ele>
        <time>2015-09-24T08:26:28Z</time>
      </trkpt>
      <trkpt lat="42.2906" lon="0.05238">
        <ele>927.9</ele>
        <time>2015-09-24T08:26:29Z</time>
      </trkpt>
      <trkpt lat="42.29057" lon="0.05238">
        <ele>927.9</ele>
        <time>2015-09-24T08:26:30Z</time>
      </trkpt>
      <trkpt lat="42.29054" lon="0.05238">
        <ele>927.9</ele>
        <time>2015-09-24T08:26:31Z</time>
      </trkpt>
      <trkpt lat="42.29051" lon="0.05239">
        <ele>927.9</ele>
        <time>2015-09-24T08:26:32Z</time>
      </trkpt>
      <trkpt lat="42.29047" lon="0.05239">
        <ele>927.9</ele>
        <time>2015-09-24T08:26:33Z</time>
      </trkpt>
      <trkpt lat="42.29044" lon="0.0524">
        <ele>927.8</ele>
        <time>2015-09-24T08:26:34Z</time>
      </trkpt>
      <trkpt lat="42.29041" lon="0.05241">
        <ele>927.8</ele>
        <time>2015-09-24T08:26:35Z</time>
      </trkpt>
      <trkpt lat="42.29037" lon="0.05242">
        <ele>927.7</ele>
        <time>2015-09-24T08:26:36Z</time>
      </trkpt>
      <trkpt lat="42.29034" lon="0.05243">
        <ele>927.6</ele>
        <time>2015-09-24T08:26:37Z</time>
      </trkpt>
      <trkpt lat="42.2903" lon="0.05244">
        <ele>927.5</ele>
        <time>2015-09-24T08:26:38Z</time>
      </trkpt>
      <trkpt lat="42.29027" lon="0.05246">
        <ele>927.4</ele>
        <time>2015-09-24T08:26:39Z</time>
      </trkpt>
      <trkpt lat="42.29023" lon="0.05248">
        <ele>927.3</ele>
        <time>2015-09-24T08:26:40Z</time>
      </trkpt>
      <trkpt lat="42.2902" lon="0.0525">
        <ele>927.1</ele>
        <time>2015-09-24T08:26:41Z</time>
      </trkpt>
      <trkpt lat="42.29017" lon="0.05253">
        <ele>926.9</ele>
        <time>2015-09-24T08:26:42Z</time>
      </trkpt>
      <trkpt lat="42.29013" lon="0.05255">
        <ele>926.8</ele>
        <time>2015-09-24T08:26:43Z</time>
      </trkpt>
      <trkpt lat="42.2901" lon="0.05257">
        <ele>926.7</ele>
        <time>2015-09-24T08:26:44Z</time>
      </trkpt>
      <trkpt lat="42.29006" lon="0.05258">
        <ele>926.7</ele>
        <time>2015-09-24T08:26:45Z</time>
      </trkpt>
      <trkpt lat="42.29003" lon="0.05257">
        <ele>926.9</ele>
        <time>2015-09-24T08:26:46Z</time>
      </trkpt>
      <trkpt lat="42.28999" lon="0.05256">
        <ele>927.2</ele>
        <time>2015-09-24T08:26:48Z</time>
      </trkpt>
      <trkpt lat="42.28995" lon="0.05253">
        <ele>927.6</ele>
        <time>2015-09-24T08:26:50Z</time>
      </trkpt>
      <trkpt lat="42.28991" lon="0.05251">
        <ele>927.9</ele>
        <time>2015-09-24T08:26:52Z</time>
      </trkpt>
      <trkpt lat="42.28988" lon="0.05249">
        <ele>928.2</ele>
        <time>2015-09-24T08:26:54Z</time>
      </trkpt>
      <trkpt lat="42.28984" lon="0.05247">
        <ele>928.5</ele>
        <time>2015-09-24T08:26:56Z</time>
      </trkpt>
      <trkpt lat="42.28981" lon="0.05245">
        <ele>928.7</ele>
        <time>2015-09-24T08:26:58Z</time>
      </trkpt>
      <trkpt lat="42.28977" lon="0.05244">
        <ele>928.9</ele>
        <time>2015-09-24T08:27:00Z</time>
      </trkpt>
      <trkpt lat="42.28973" lon="0.05244">
        <ele>929.1</ele>
        <time>2015-09-24T08:27:02Z</time>
      </trkpt>
      <trkpt lat="42.28969" lon="0.05243">
        <ele>929.2</ele>
        <time>2015-09-24T08:27:04Z</time>
      </trkpt>
      <trkpt lat="42.28965" lon="0.05242">
        <ele>929.4</ele>
        <time>2015-09-24T08:27:06Z</time>
      </trkpt>
      <trkpt lat="42.28961" lon="0.05242">
        <ele>929.6</ele>
        <time>2015-09-24T08:27:08Z</time>
      </trkpt>
      <trkpt lat="42.28957" lon="0.0524">
        <ele>929.8</ele>
        <time>2015-09-24T08:27:10Z</time>
      </trkpt>
      <trkpt lat="42.28953" lon="0.05239">
        <ele>930.1</ele>
        <time>2015-09-24T08:27:12Z</time>
      </trkpt>
      <trkpt lat="42.28949" lon="0.05237">
        <ele>930.4</ele>
        <time>2015-09-24T08:27:14Z</time>
      </trkpt>
      <trkpt lat="42.28945" lon="0.05236">
        <ele>930.7</ele>
        <time>2015-09-24T08:27:16Z</time>
      </trkpt>
      <trkpt lat="42.2894" lon="0.05235">
        <ele>931</ele>
        <time>2015-09-24T08:27:18Z</time>
      </trkpt>
      <trkpt lat="42.28936" lon="0.05234">
        <ele>931.2</ele>
        <time>2015-09-24T08:27:20Z</time>
      </trkpt>
      <trkpt lat="42.28931" lon="0.05234">
        <ele>931.4</ele>
        <time>2015-09-24T08:27:22Z</time>
      </trkpt>
      <trkpt lat="42.28929" lon="0.05234">
        <ele>931.6</ele>
        <time>2015-09-24T08:27:23Z</time>
      </trkpt>
      <trkpt lat="42.28923" lon="0.05234">
        <ele>931.8</ele>
        <time>2015-09-24T08:27:25Z</time>
      </trkpt>
      <trkpt lat="42.28918" lon="0.05234">
        <ele>932</ele>
        <time>2015-09-24T08:27:27Z</time>
      </trkpt>
      <trkpt lat="42.28913" lon="0.05235">
        <ele>932.3</ele>
        <time>2015-09-24T08:27:29Z</time>
      </trkpt>
      <trkpt lat="42.28908" lon="0.05235">
        <ele>932.5</ele>
        <time>2015-09-24T08:27:31Z</time>
      </trkpt>
      <trkpt lat="42.28903" lon="0.05234">
        <ele>932.8</ele>
        <time>2015-09-24T08:27:33Z</time>
      </trkpt>
      <trkpt lat="42.28899" lon="0.05232">
        <ele>933</ele>
        <time>2015-09-24T08:27:35Z</time>
      </trkpt>
      <trkpt lat="42.28894" lon="0.05231">
        <ele>933.3</ele>
        <time>2015-09-24T08:27:37Z</time>
      </trkpt>
      <trkpt lat="42.28889" lon="0.05231">
        <ele>933.5</ele>
        <time>2015-09-24T08:27:39Z</time>
      </trkpt>
      <trkpt lat="42.28886" lon="0.05232">
        <ele>933.7</ele>
        <time>2015-09-24T08:27:40Z</time>
      </trkpt>
      <trkpt lat="42.28883" lon="0.05233">
        <ele>933.8</ele>
        <time>2015-09-24T08:27:41Z</time>
      </trkpt>
      <trkpt lat="42.2888" lon="0.05234">
        <ele>933.8</ele>
        <time>2015-09-24T08:27:42Z</time>
      </trkpt>
      <trkpt lat="42.28877" lon="0.05236">
        <ele>933.9</ele>
        <time>2015-09-24T08:27:43Z</time>
      </trkpt>
      <trkpt lat="42.28874" lon="0.05237">
        <ele>934</ele>
        <time>2015-09-24T08:27:44Z</time>
      </trkpt>
      <trkpt lat="42.28871" lon="0.05238">
        <ele>934</ele>
        <time>2015-09-24T08:27:45Z</time>
      </trkpt>
      <trkpt lat="42.28869" lon="0.05239">
        <ele>934</ele>
        <time>2015-09-24T08:27:46Z</time>
      </trkpt>
      <trkpt lat="42.28866" lon="0.0524">
        <ele>934</ele>
        <time>2015-09-24T08:27:47Z</time>
      </trkpt>
      <trkpt lat="42.28863" lon="0.0524">
        <ele>934</ele>
        <time>2015-09-24T08:27:48Z</time>
      </trkpt>
      <trkpt lat="42.2886" lon="0.05241">
        <ele>934.1</ele>
        <time>2015-09-24T08:27:49Z</time>
      </trkpt>
      <trkpt lat="42.28857" lon="0.05241">
        <ele>934.1</ele>
        <time>2015-09-24T08:27:50Z</time>
      </trkpt>
      <trkpt lat="42.28854" lon="0.05241">
        <ele>934.1</ele>
        <time>2015-09-24T08:27:51Z</time>
      </trkpt>
      <trkpt lat="42.28851" lon="0.05241">
        <ele>934.2</ele>
        <time>2015-09-24T08:27:52Z</time>
      </trkpt>
      <trkpt lat="42.28848" lon="0.05241">
        <ele>934.2</ele>
        <time>2015-09-24T08:27:53Z</time>
      </trkpt>
      <trkpt lat="42.28845" lon="0.05242">
        <ele>934.2</ele>
        <time>2015-09-24T08:27:54Z</time>
      </trkpt>
      <trkpt lat="42.28842" lon="0.05243">
        <ele>934.2</ele>
        <time>2015-09-24T08:27:55Z</time>
      </trkpt>
      <trkpt lat="42.28839" lon="0.05244">
        <ele>934.2</ele>
        <time>2015-09-24T08:27:56Z</time>
      </trkpt>
      <trkpt lat="42.28836" lon="0.05246">
        <ele>934.2</ele>
        <time>2015-09-24T08:27:57Z</time>
      </trkpt>
      <trkpt lat="42.28833" lon="0.05248">
        <ele>934.1</ele>
        <time>2015-09-24T08:27:58Z</time>
      </trkpt>
      <trkpt lat="42.28829" lon="0.0525">
        <ele>934.1</ele>
        <time>2015-09-24T08:27:59Z</time>
      </trkpt>
      <trkpt lat="42.28826" lon="0.05251">
        <ele>934.1</ele>
        <time>2015-09-24T08:28:00Z</time>
      </trkpt>
      <trkpt lat="42.28822" lon="0.05251">
        <ele>934.1</ele>
        <time>2015-09-24T08:28:01Z</time>
      </trkpt>
      <trkpt lat="42.28819" lon="0.05251">
        <ele>934.1</ele>
        <time>2015-09-24T08:28:02Z</time>
      </trkpt>
      <trkpt lat="42.28815" lon="0.05251">
        <ele>934.2</ele>
        <time>2015-09-24T08:28:03Z</time>
      </trkpt>
      <trkpt lat="42.28811" lon="0.0525">
        <ele>934.3</ele>
        <time>2015-09-24T08:28:04Z</time>
      </trkpt>
      <trkpt lat="42.28808" lon="0.05249">
        <ele>934.4</ele>
        <time>2015-09-24T08:28:05Z</time>
      </trkpt>
      <trkpt lat="42.28805" lon="0.05248">
        <ele>934.5</ele>
        <time>2015-09-24T08:28:06Z</time>
      </trkpt>
      <trkpt lat="42.28801" lon="0.05246">
        <ele>934.6</ele>
        <time>2015-09-24T08:28:07Z</time>
      </trkpt>
      <trkpt lat="42.28798" lon="0.05245">
        <ele>934.7</ele>
        <time>2015-09-24T08:28:08Z</time>
      </trkpt>
      <trkpt lat="42.28795" lon="0.05243">
        <ele>934.9</ele>
        <time>2015-09-24T08:28:09Z</time>
      </trkpt>
      <trkpt lat="42.28792" lon="0.05242">
        <ele>935</ele>
        <time>2015-09-24T08:28:10Z</time>
      </trkpt>
      <trkpt lat="42.28788" lon="0.05241">
        <ele>934.9</ele>
        <time>2015-09-24T08:28:11Z</time>
      </trkpt>
      <trkpt lat="42.28785" lon="0.05241">
        <ele>934.8</ele>
        <time>2015-09-24T08:28:12Z</time>
      </trkpt>
      <trkpt lat="42.28781" lon="0.05241">
        <ele>934.6</ele>
        <time>2015-09-24T08:28:13Z</time>
      </trkpt>
      <trkpt lat="42.28777" lon="0.05241">
        <ele>934.5</ele>
        <time>2015-09-24T08:28:14Z</time>
      </trkpt>
      <trkpt lat="42.28773" lon="0.05241">
        <ele>934.3</ele>
        <time>2015-09-24T08:28:15Z</time>
      </trkpt>
      <trkpt lat="42.28769" lon="0.0524">
        <ele>934.2</ele>
        <time>2015-09-24T08:28:16Z</time>
      </trkpt>
      <trkpt lat="42.28766" lon="0.05238">
        <ele>934.2</ele>
        <time>2015-09-24T08:28:17Z</time>
      </trkpt>
      <trkpt lat="42.28762" lon="0.05236">
        <ele>934.1</ele>
        <time>2015-09-24T08:28:18Z</time>
      </trkpt>
      <trkpt lat="42.28758" lon="0.05235">
        <ele>934.1</ele>
        <time>2015-09-24T08:28:19Z</time>
      </trkpt>
      <trkpt lat="42.28754" lon="0.05233">
        <ele>934</ele>
        <time>2015-09-24T08:28:20Z</time>
      </trkpt>
      <trkpt lat="42.2875" lon="0.05231">
        <ele>934</ele>
        <time>2015-09-24T08:28:21Z</time>
      </trkpt>
      <trkpt lat="42.28746" lon="0.05231">
        <ele>933.9</ele>
        <time>2015-09-24T08:28:22Z</time>
      </trkpt>
      <trkpt lat="42.28742" lon="0.0523">
        <ele>933.7</ele>
        <time>2015-09-24T08:28:23Z</time>
      </trkpt>
      <trkpt lat="42.28738" lon="0.05231">
        <ele>933.5</ele>
        <time>2015-09-24T08:28:24Z</time>
      </trkpt>
      <trkpt lat="42.28731" lon="0.05233">
        <ele>933.2</ele>
        <time>2015-09-24T08:28:25Z</time>
      </trkpt>
      <trkpt lat="42.28726" lon="0.05232">
        <ele>933</ele>
        <time>2015-09-24T08:28:26Z</time>
      </trkpt>
      <trkpt lat="42.28721" lon="0.05231">
        <ele>932.9</ele>
        <time>2015-09-24T08:28:27Z</time>
      </trkpt>
      <trkpt lat="42.28716" lon="0.05229">
        <ele>932.8</ele>
        <time>2015-09-24T08:28:28Z</time>
      </trkpt>
      <trkpt lat="42.28712" lon="0.05228">
        <ele>932.7</ele>
        <time>2015-09-24T08:28:29Z</time>
      </trkpt>
      <trkpt lat="42.28707" lon="0.05227">
        <ele>932.6</ele>
        <time>2015-09-24T08:28:30Z</time>
      </trkpt>
      <trkpt lat="42.28702" lon="0.05227">
        <ele>932.5</ele>
        <time>2015-09-24T08:28:31Z</time>
      </trkpt>
      <trkpt lat="42.28697" lon="0.05226">
        <ele>932.4</ele>
        <time>2015-09-24T08:28:32Z</time>
      </trkpt>
      <trkpt lat="42.28692" lon="0.05224">
        <ele>932.5</ele>
        <time>2015-09-24T08:28:33Z</time>
      </trkpt>
      <trkpt lat="42.28687" lon="0.05221">
        <ele>932.5</ele>
        <time>2015-09-24T08:28:34Z</time>
      </trkpt>
      <trkpt lat="42.28682" lon="0.05219">
        <ele>932.6</ele>
        <time>2015-09-24T08:28:35Z</time>
      </trkpt>
      <trkpt lat="42.28678" lon="0.05216">
        <ele>932.7</ele>
        <time>2015-09-24T08:28:36Z</time>
      </trkpt>
      <trkpt lat="42.28674" lon="0.05214">
        <ele>932.8</ele>
        <time>2015-09-24T08:28:37Z</time>
      </trkpt>
      <trkpt lat="42.2867" lon="0.05211">
        <ele>932.8</ele>
        <time>2015-09-24T08:28:38Z</time>
      </trkpt>
      <trkpt lat="42.28665" lon="0.05209">
        <ele>932.9</ele>
        <time>2015-09-24T08:28:39Z</time>
      </trkpt>
      <trkpt lat="42.28661" lon="0.05206">
        <ele>932.9</ele>
        <time>2015-09-24T08:28:40Z</time>
      </trkpt>
      <trkpt lat="42.28657" lon="0.05204">
        <ele>932.9</ele>
        <time>2015-09-24T08:28:41Z</time>
      </trkpt>
      <trkpt lat="42.28653" lon="0.05202">
        <ele>932.8</ele>
        <time>2015-09-24T08:28:42Z</time>
      </trkpt>
      <trkpt lat="42.28648" lon="0.052">
        <ele>932.8</ele>
        <time>2015-09-24T08:28:43Z</time>
      </trkpt>
      <trkpt lat="42.28644" lon="0.05198">
        <ele>932.8</ele>
        <time>2015-09-24T08:28:44Z</time>
      </trkpt>
      <trkpt lat="42.2864" lon="0.05196">
        <ele>932.7</ele>
        <time>2015-09-24T08:28:45Z</time>
      </trkpt>
      <trkpt lat="42.28637" lon="0.05194">
        <ele>932.7</ele>
        <time>2015-09-24T08:28:46Z</time>
      </trkpt>
      <trkpt lat="42.28633" lon="0.05191">
        <ele>932.6</ele>
        <time>2015-09-24T08:28:47Z</time>
      </trkpt>
      <trkpt lat="42.28629" lon="0.05189">
        <ele>932.6</ele>
        <time>2015-09-24T08:28:48Z</time>
      </trkpt>
      <trkpt lat="42.28625" lon="0.05187">
        <ele>932.5</ele>
        <time>2015-09-24T08:28:49Z</time>
      </trkpt>
      <trkpt lat="42.28622" lon="0.05185">
        <ele>932.5</ele>
        <time>2015-09-24T08:28:50Z</time>
      </trkpt>
      <trkpt lat="42.28618" lon="0.05182">
        <ele>932.4</ele>
        <time>2015-09-24T08:28:51Z</time>
      </trkpt>
      <trkpt lat="42.28615" lon="0.0518">
        <ele>932.3</ele>
        <time>2015-09-24T08:28:52Z</time>
      </trkpt>
      <trkpt lat="42.28611" lon="0.05177">
        <ele>932.3</ele>
        <time>2015-09-24T08:28:53Z</time>
      </trkpt>
      <trkpt lat="42.28608" lon="0.05175">
        <ele>932.2</ele>
        <time>2015-09-24T08:28:54Z</time>
      </trkpt>
      <trkpt lat="42.28604" lon="0.05172">
        <ele>932.1</ele>
        <time>2015-09-24T08:28:55Z</time>
      </trkpt>
      <trkpt lat="42.286" lon="0.0517">
        <ele>932</ele>
        <time>2015-09-24T08:28:56Z</time>
      </trkpt>
      <trkpt lat="42.28596" lon="0.05168">
        <ele>931.9</ele>
        <time>2015-09-24T08:28:57Z</time>
      </trkpt>
      <trkpt lat="42.28592" lon="0.05166">
        <ele>931.8</ele>
        <time>2015-09-24T08:28:58Z</time>
      </trkpt>
      <trkpt lat="42.28588" lon="0.05164">
        <ele>931.7</ele>
        <time>2015-09-24T08:28:59Z</time>
      </trkpt>
      <trkpt lat="42.28584" lon="0.05163">
        <ele>931.6</ele>
        <time>2015-09-24T08:29:00Z</time>
      </trkpt>
      <trkpt lat="42.2858" lon="0.05161">
        <ele>931.4</ele>
        <time>2015-09-24T08:29:01Z</time>
      </trkpt>
      <trkpt lat="42.28576" lon="0.05159">
        <ele>931.3</ele>
        <time>2015-09-24T08:29:02Z</time>
      </trkpt>
      <trkpt lat="42.28572" lon="0.05156">
        <ele>931.2</ele>
        <time>2015-09-24T08:29:03Z</time>
      </trkpt>
      <trkpt lat="42.28569" lon="0.05153">
        <ele>931.1</ele>
        <time>2015-09-24T08:29:04Z</time>
      </trkpt>
      <trkpt lat="42.28565" lon="0.0515">
        <ele>931</ele>
        <time>2015-09-24T08:29:05Z</time>
      </trkpt>
      <trkpt lat="42.28562" lon="0.05146">
        <ele>930.8</ele>
        <time>2015-09-24T08:29:06Z</time>
      </trkpt>
      <trkpt lat="42.28559" lon="0.05142">
        <ele>930.7</ele>
        <time>2015-09-24T08:29:07Z</time>
      </trkpt>
      <trkpt lat="42.28556" lon="0.05138">
        <ele>930.6</ele>
        <time>2015-09-24T08:29:08Z</time>
      </trkpt>
      <trkpt lat="42.28552" lon="0.05134">
        <ele>930.5</ele>
        <time>2015-09-24T08:29:09Z</time>
      </trkpt>
      <trkpt lat="42.28549" lon="0.05131">
        <ele>930.4</ele>
        <time>2015-09-24T08:29:10Z</time>
      </trkpt>
      <trkpt lat="42.28546" lon="0.05127">
        <ele>930.2</ele>
        <time>2015-09-24T08:29:11Z</time>
      </trkpt>
      <trkpt lat="42.28543" lon="0.05123">
        <ele>929.8</ele>
        <time>2015-09-24T08:29:12Z</time>
      </trkpt>
      <trkpt lat="42.28539" lon="0.0512">
        <ele>928.6</ele>
        <time>2015-09-24T08:29:13Z</time>
      </trkpt>
      <trkpt lat="42.28536" lon="0.05117">
        <ele>927.3</ele>
        <time>2015-09-24T08:29:14Z</time>
      </trkpt>
      <trkpt lat="42.28533" lon="0.05113">
        <ele>925.8</ele>
        <time>2015-09-24T08:29:15Z</time>
      </trkpt>
      <trkpt lat="42.2853" lon="0.05109">
        <ele>924.4</ele>
        <time>2015-09-24T08:29:16Z</time>
      </trkpt>
      <trkpt lat="42.28527" lon="0.05105">
        <ele>922.8</ele>
        <time>2015-09-24T08:29:17Z</time>
      </trkpt>
      <trkpt lat="42.28525" lon="0.05101">
        <ele>921.3</ele>
        <time>2015-09-24T08:29:18Z</time>
      </trkpt>
      <trkpt lat="42.28523" lon="0.05096">
        <ele>919.7</ele>
        <time>2015-09-24T08:29:19Z</time>
      </trkpt>
      <trkpt lat="42.2852" lon="0.05091">
        <ele>918.1</ele>
        <time>2015-09-24T08:29:20Z</time>
      </trkpt>
      <trkpt lat="42.28519" lon="0.05087">
        <ele>916.7</ele>
        <time>2015-09-24T08:29:21Z</time>
      </trkpt>
      <trkpt lat="42.28517" lon="0.05083">
        <ele>915.2</ele>
        <time>2015-09-24T08:29:22Z</time>
      </trkpt>
      <trkpt lat="42.28514" lon="0.05079">
        <ele>913.6</ele>
        <time>2015-09-24T08:29:23Z</time>
      </trkpt>
      <trkpt lat="42.28511" lon="0.05076">
        <ele>911.9</ele>
        <time>2015-09-24T08:29:24Z</time>
      </trkpt>
      <trkpt lat="42.28508" lon="0.05074">
        <ele>910.3</ele>
        <time>2015-09-24T08:29:25Z</time>
      </trkpt>
      <trkpt lat="42.28504" lon="0.05073">
        <ele>908.9</ele>
        <time>2015-09-24T08:29:26Z</time>
      </trkpt>
      <trkpt lat="42.28499" lon="0.05074">
        <ele>907.7</ele>
        <time>2015-09-24T08:29:27Z</time>
      </trkpt>
      <trkpt lat="42.28495" lon="0.05075">
        <ele>906.8</ele>
        <time>2015-09-24T08:29:28Z</time>
      </trkpt>
      <trkpt lat="42.28491" lon="0.05077">
        <ele>906.2</ele>
        <time>2015-09-24T08:29:29Z</time>
      </trkpt>
      <trkpt lat="42.28487" lon="0.05079">
        <ele>905.7</ele>
        <time>2015-09-24T08:29:30Z</time>
      </trkpt>
      <trkpt lat="42.28483" lon="0.05082">
        <ele>905.2</ele>
        <time>2015-09-24T08:29:31Z</time>
      </trkpt>
      <trkpt lat="42.28479" lon="0.05084">
        <ele>904.7</ele>
        <time>2015-09-24T08:29:32Z</time>
      </trkpt>
      <trkpt lat="42.28475" lon="0.05087">
        <ele>904.3</ele>
        <time>2015-09-24T08:29:33Z</time>
      </trkpt>
      <trkpt lat="42.28469" lon="0.0509">
        <ele>903.9</ele>
        <time>2015-09-24T08:29:34Z</time>
      </trkpt>
      <trkpt lat="42.28465" lon="0.05093">
        <ele>903.4</ele>
        <time>2015-09-24T08:29:35Z</time>
      </trkpt>
      <trkpt lat="42.2846" lon="0.05095">
        <ele>903</ele>
        <time>2015-09-24T08:29:36Z</time>
      </trkpt>
      <trkpt lat="42.28456" lon="0.05097">
        <ele>902.6</ele>
        <time>2015-09-24T08:29:37Z</time>
      </trkpt>
      <trkpt lat="42.28452" lon="0.05101">
        <ele>902</ele>
        <time>2015-09-24T08:29:38Z</time>
      </trkpt>
      <trkpt lat="42.28448" lon="0.05104">
        <ele>901.3</ele>
        <time>2015-09-24T08:29:39Z</time>
      </trkpt>
      <trkpt lat="42.28444" lon="0.05108">
        <ele>901.1</ele>
        <time>2015-09-24T08:29:40Z</time>
      </trkpt>
      <trkpt lat="42.2844" lon="0.05111">
        <ele>900.9</ele>
        <time>2015-09-24T08:29:41Z</time>
      </trkpt>
      <trkpt lat="42.28437" lon="0.05115">
        <ele>900.8</ele>
        <time>2015-09-24T08:29:42Z</time>
      </trkpt>
      <trkpt lat="42.28433" lon="0.05118">
        <ele>900.6</ele>
        <time>2015-09-24T08:29:43Z</time>
      </trkpt>
      <trkpt lat="42.28429" lon="0.05121">
        <ele>900.4</ele>
        <time>2015-09-24T08:29:44Z</time>
      </trkpt>
      <trkpt lat="42.28426" lon="0.05124">
        <ele>900.3</ele>
        <time>2015-09-24T08:29:45Z</time>
      </trkpt>
      <trkpt lat="42.28422" lon="0.05127">
        <ele>899.6</ele>
        <time>2015-09-24T08:29:46Z</time>
      </trkpt>
      <trkpt lat="42.28418" lon="0.0513">
        <ele>898.8</ele>
        <time>2015-09-24T08:29:47Z</time>
      </trkpt>
      <trkpt lat="42.28414" lon="0.05133">
        <ele>898</ele>
        <time>2015-09-24T08:29:48Z</time>
      </trkpt>
      <trkpt lat="42.2841" lon="0.05136">
        <ele>897.6</ele>
        <time>2015-09-24T08:29:49Z</time>
      </trkpt>
      <trkpt lat="42.28406" lon="0.05139">
        <ele>897.2</ele>
        <time>2015-09-24T08:29:50Z</time>
      </trkpt>
      <trkpt lat="42.28401" lon="0.05144">
        <ele>897.1</ele>
        <time>2015-09-24T08:29:51Z</time>
      </trkpt>
      <trkpt lat="42.28397" lon="0.05147">
        <ele>896.9</ele>
        <time>2015-09-24T08:29:52Z</time>
      </trkpt>
      <trkpt lat="42.28394" lon="0.0515">
        <ele>896.9</ele>
        <time>2015-09-24T08:29:53Z</time>
      </trkpt>
      <trkpt lat="42.2839" lon="0.05154">
        <ele>897.3</ele>
        <time>2015-09-24T08:29:54Z</time>
      </trkpt>
      <trkpt lat="42.28386" lon="0.05159">
        <ele>897.7</ele>
        <time>2015-09-24T08:29:55Z</time>
      </trkpt>
      <trkpt lat="42.28381" lon="0.05163">
        <ele>898</ele>
        <time>2015-09-24T08:29:56Z</time>
      </trkpt>
      <trkpt lat="42.28376" lon="0.05165">
        <ele>897.6</ele>
        <time>2015-09-24T08:29:57Z</time>
      </trkpt>
      <trkpt lat="42.28371" lon="0.05166">
        <ele>897.6</ele>
        <time>2015-09-24T08:29:58Z</time>
      </trkpt>
      <trkpt lat="42.28364" lon="0.05168">
        <ele>897.7</ele>
        <time>2015-09-24T08:29:59Z</time>
      </trkpt>
      <trkpt lat="42.28359" lon="0.05168">
        <ele>897.4</ele>
        <time>2015-09-24T08:30:00Z</time>
      </trkpt>
      <trkpt lat="42.28354" lon="0.05168">
        <ele>897.1</ele>
        <time>2015-09-24T08:30:01Z</time>
      </trkpt>
      <trkpt lat="42.28349" lon="0.05169">
        <ele>896.9</ele>
        <time>2015-09-24T08:30:02Z</time>
      </trkpt>
      <trkpt lat="42.28343" lon="0.05171">
        <ele>897.2</ele>
        <time>2015-09-24T08:30:03Z</time>
      </trkpt>
      <trkpt lat="42.28338" lon="0.05172">
        <ele>897.3</ele>
        <time>2015-09-24T08:30:04Z</time>
      </trkpt>
      <trkpt lat="42.28332" lon="0.05173">
        <ele>897.5</ele>
        <time>2015-09-24T08:30:05Z</time>
      </trkpt>
      <trkpt lat="42.28327" lon="0.05174">
        <ele>897.5</ele>
        <time>2015-09-24T08:30:06Z</time>
      </trkpt>
      <trkpt lat="42.28322" lon="0.05175">
        <ele>897.4</ele>
        <time>2015-09-24T08:30:07Z</time>
      </trkpt>
      <trkpt lat="42.28317" lon="0.05176">
        <ele>897.5</ele>
        <time>2015-09-24T08:30:08Z</time>
      </trkpt>
      <trkpt lat="42.28311" lon="0.05177">
        <ele>897.3</ele>
        <time>2015-09-24T08:30:09Z</time>
      </trkpt>
      <trkpt lat="42.28306" lon="0.05177">
        <ele>897.1</ele>
        <time>2015-09-24T08:30:10Z</time>
      </trkpt>
      <trkpt lat="42.283" lon="0.05177">
        <ele>896.6</ele>
        <time>2015-09-24T08:30:11Z</time>
      </trkpt>
      <trkpt lat="42.28295" lon="0.05177">
        <ele>896</ele>
        <time>2015-09-24T08:30:12Z</time>
      </trkpt>
      <trkpt lat="42.28289" lon="0.05177">
        <ele>895.9</ele>
        <time>2015-09-24T08:30:13Z</time>
      </trkpt>
      <trkpt lat="42.28283" lon="0.05178">
        <ele>896.3</ele>
        <time>2015-09-24T08:30:14Z</time>
      </trkpt>
      <trkpt lat="42.28277" lon="0.05178">
        <ele>896.6</ele>
        <time>2015-09-24T08:30:15Z</time>
      </trkpt>
      <trkpt lat="42.28271" lon="0.0518">
        <ele>897.2</ele>
        <time>2015-09-24T08:30:16Z</time>
      </trkpt>
      <trkpt lat="42.28264" lon="0.05182">
        <ele>897.9</ele>
        <time>2015-09-24T08:30:17Z</time>
      </trkpt>
      <trkpt lat="42.28258" lon="0.05183">
        <ele>898.6</ele>
        <time>2015-09-24T08:30:18Z</time>
      </trkpt>
      <trkpt lat="42.28252" lon="0.05185">
        <ele>899.3</ele>
        <time>2015-09-24T08:30:19Z</time>
      </trkpt>
      <trkpt lat="42.28246" lon="0.05186">
        <ele>899.6</ele>
        <time>2015-09-24T08:30:20Z</time>
      </trkpt>
      <trkpt lat="42.28239" lon="0.05186">
        <ele>899.6</ele>
        <time>2015-09-24T08:30:21Z</time>
      </trkpt>
      <trkpt lat="42.28234" lon="0.05184">
        <ele>899.1</ele>
        <time>2015-09-24T08:30:22Z</time>
      </trkpt>
      <trkpt lat="42.28228" lon="0.05182">
        <ele>898.4</ele>
        <time>2015-09-24T08:30:23Z</time>
      </trkpt>
      <trkpt lat="42.28222" lon="0.0518">
        <ele>897.7</ele>
        <time>2015-09-24T08:30:24Z</time>
      </trkpt>
      <trkpt lat="42.28215" lon="0.05178">
        <ele>897.2</ele>
        <time>2015-09-24T08:30:25Z</time>
      </trkpt>
      <trkpt lat="42.28209" lon="0.05177">
        <ele>896.9</ele>
        <time>2015-09-24T08:30:26Z</time>
      </trkpt>
      <trkpt lat="42.28203" lon="0.05176">
        <ele>896.7</ele>
        <time>2015-09-24T08:30:27Z</time>
      </trkpt>
      <trkpt lat="42.28197" lon="0.05176">
        <ele>896.6</ele>
        <time>2015-09-24T08:30:28Z</time>
      </trkpt>
      <trkpt lat="42.28192" lon="0.05176">
        <ele>896.6</ele>
        <time>2015-09-24T08:30:29Z</time>
      </trkpt>
      <trkpt lat="42.28186" lon="0.05175">
        <ele>896.6</ele>
        <time>2015-09-24T08:30:30Z</time>
      </trkpt>
      <trkpt lat="42.2818" lon="0.05176">
        <ele>896.8</ele>
        <time>2015-09-24T08:30:31Z</time>
      </trkpt>
      <trkpt lat="42.28175" lon="0.05176">
        <ele>896.9</ele>
        <time>2015-09-24T08:30:32Z</time>
      </trkpt>
      <trkpt lat="42.2817" lon="0.05177">
        <ele>897.1</ele>
        <time>2015-09-24T08:30:33Z</time>
      </trkpt>
      <trkpt lat="42.28166" lon="0.05178">
        <ele>897.4</ele>
        <time>2015-09-24T08:30:34Z</time>
      </trkpt>
      <trkpt lat="42.28161" lon="0.05179">
        <ele>897.8</ele>
        <time>2015-09-24T08:30:35Z</time>
      </trkpt>
      <trkpt lat="42.28158" lon="0.05181">
        <ele>898.4</ele>
        <time>2015-09-24T08:30:36Z</time>
      </trkpt>
      <trkpt lat="42.28154" lon="0.05184">
        <ele>899</ele>
        <time>2015-09-24T08:30:37Z</time>
      </trkpt>
      <trkpt lat="42.28152" lon="0.0519">
        <ele>900.4</ele>
        <time>2015-09-24T08:30:39Z</time>
      </trkpt>
      <trkpt lat="42.28151" lon="0.05195">
        <ele>901.6</ele>
        <time>2015-09-24T08:30:41Z</time>
      </trkpt>
      <trkpt lat="42.28155" lon="0.052">
        <ele>903</ele>
        <time>2015-09-24T08:30:43Z</time>
      </trkpt>
      <trkpt lat="42.28157" lon="0.05202">
        <ele>903.5</ele>
        <time>2015-09-24T08:30:44Z</time>
      </trkpt>
      <trkpt lat="42.2816" lon="0.05205">
        <ele>904.3</ele>
        <time>2015-09-24T08:30:45Z</time>
      </trkpt>
      <trkpt lat="42.28162" lon="0.05207">
        <ele>905.1</ele>
        <time>2015-09-24T08:30:46Z</time>
      </trkpt>
      <trkpt lat="42.28165" lon="0.05211">
        <ele>905.5</ele>
        <time>2015-09-24T08:30:47Z</time>
      </trkpt>
      <trkpt lat="42.28168" lon="0.05214">
        <ele>905.7</ele>
        <time>2015-09-24T08:30:48Z</time>
      </trkpt>
      <trkpt lat="42.2817" lon="0.05217">
        <ele>905.9</ele>
        <time>2015-09-24T08:30:49Z</time>
      </trkpt>
      <trkpt lat="42.28172" lon="0.05221">
        <ele>906.1</ele>
        <time>2015-09-24T08:30:50Z</time>
      </trkpt>
      <trkpt lat="42.28174" lon="0.05225">
        <ele>906.3</ele>
        <time>2015-09-24T08:30:51Z</time>
      </trkpt>
      <trkpt lat="42.28177" lon="0.05229">
        <ele>906.5</ele>
        <time>2015-09-24T08:30:52Z</time>
      </trkpt>
      <trkpt lat="42.2818" lon="0.05231">
        <ele>906.7</ele>
        <time>2015-09-24T08:30:53Z</time>
      </trkpt>
      <trkpt lat="42.28182" lon="0.05231">
        <ele>906.8</ele>
        <time>2015-09-24T08:30:54Z</time>
      </trkpt>
      <trkpt lat="42.28186" lon="0.05231">
        <ele>906.9</ele>
        <time>2015-09-24T08:30:55Z</time>
      </trkpt>
      <trkpt lat="42.28189" lon="0.0523">
        <ele>906.9</ele>
        <time>2015-09-24T08:30:56Z</time>
      </trkpt>
      <trkpt lat="42.28192" lon="0.05228">
        <ele>907</ele>
        <time>2015-09-24T08:30:57Z</time>
      </trkpt>
      <trkpt lat="42.28194" lon="0.05225">
        <ele>907</ele>
        <time>2015-09-24T08:30:58Z</time>
      </trkpt>
      <trkpt lat="42.28197" lon="0.05222">
        <ele>907</ele>
        <time>2015-09-24T08:30:59Z</time>
      </trkpt>
      <trkpt lat="42.282" lon="0.05219">
        <ele>907</ele>
        <time>2015-09-24T08:31:00Z</time>
      </trkpt>
      <trkpt lat="42.28202" lon="0.05216">
        <ele>907</ele>
        <time>2015-09-24T08:31:01Z</time>
      </trkpt>
      <trkpt lat="42.28205" lon="0.05213">
        <ele>907</ele>
        <time>2015-09-24T08:31:02Z</time>
      </trkpt>
      <trkpt lat="42.28208" lon="0.0521">
        <ele>907</ele>
        <time>2015-09-24T08:31:03Z</time>
      </trkpt>
      <trkpt lat="42.28211" lon="0.05209">
        <ele>907</ele>
        <time>2015-09-24T08:31:04Z</time>
      </trkpt>
      <trkpt lat="42.28214" lon="0.05208">
        <ele>907.1</ele>
        <time>2015-09-24T08:31:05Z</time>
      </trkpt>
      <trkpt lat="42.28217" lon="0.0521">
        <ele>907.1</ele>
        <time>2015-09-24T08:31:06Z</time>
      </trkpt>
      <trkpt lat="42.2822" lon="0.05212">
        <ele>907.3</ele>
        <time>2015-09-24T08:31:07Z</time>
      </trkpt>
      <trkpt lat="42.28224" lon="0.05215">
        <ele>907.4</ele>
        <time>2015-09-24T08:31:08Z</time>
      </trkpt>
      <trkpt lat="42.28228" lon="0.05218">
        <ele>907.5</ele>
        <time>2015-09-24T08:31:09Z</time>
      </trkpt>
      <trkpt lat="42.28231" lon="0.05221">
        <ele>907.6</ele>
        <time>2015-09-24T08:31:10Z</time>
      </trkpt>
      <trkpt lat="42.28235" lon="0.05224">
        <ele>907.8</ele>
        <time>2015-09-24T08:31:11Z</time>
      </trkpt>
      <trkpt lat="42.28238" lon="0.05227">
        <ele>908</ele>
        <time>2015-09-24T08:31:12Z</time>
      </trkpt>
      <trkpt lat="42.28241" lon="0.0523">
        <ele>908.1</ele>
        <time>2015-09-24T08:31:13Z</time>
      </trkpt>
      <trkpt lat="42.28245" lon="0.05233">
        <ele>908.3</ele>
        <time>2015-09-24T08:31:14Z</time>
      </trkpt>
      <trkpt lat="42.28249" lon="0.05235">
        <ele>908.4</ele>
        <time>2015-09-24T08:31:15Z</time>
      </trkpt>
      <trkpt lat="42.28253" lon="0.05238">
        <ele>908.6</ele>
        <time>2015-09-24T08:31:16Z</time>
      </trkpt>
      <trkpt lat="42.28257" lon="0.05241">
        <ele>908.8</ele>
        <time>2015-09-24T08:31:17Z</time>
      </trkpt>
      <trkpt lat="42.2826" lon="0.05243">
        <ele>909</ele>
        <time>2015-09-24T08:31:18Z</time>
      </trkpt>
      <trkpt lat="42.28264" lon="0.05246">
        <ele>909.2</ele>
        <time>2015-09-24T08:31:19Z</time>
      </trkpt>
      <trkpt lat="42.28268" lon="0.05249">
        <ele>909.4</ele>
        <time>2015-09-24T08:31:20Z</time>
      </trkpt>
      <trkpt lat="42.28272" lon="0.05252">
        <ele>909.6</ele>
        <time>2015-09-24T08:31:21Z</time>
      </trkpt>
      <trkpt lat="42.28275" lon="0.05255">
        <ele>909.8</ele>
        <time>2015-09-24T08:31:22Z</time>
      </trkpt>
      <trkpt lat="42.2828" lon="0.05259">
        <ele>910.1</ele>
        <time>2015-09-24T08:31:23Z</time>
      </trkpt>
      <trkpt lat="42.28284" lon="0.05261">
        <ele>910.3</ele>
        <time>2015-09-24T08:31:24Z</time>
      </trkpt>
      <trkpt lat="42.28288" lon="0.05264">
        <ele>910.6</ele>
        <time>2015-09-24T08:31:25Z</time>
      </trkpt>
      <trkpt lat="42.28292" lon="0.05267">
        <ele>910.9</ele>
        <time>2015-09-24T08:31:26Z</time>
      </trkpt>
      <trkpt lat="42.28296" lon="0.05271">
        <ele>911.2</ele>
        <time>2015-09-24T08:31:27Z</time>
      </trkpt>
      <trkpt lat="42.283" lon="0.05275">
        <ele>911.6</ele>
        <time>2015-09-24T08:31:28Z</time>
      </trkpt>
      <trkpt lat="42.28304" lon="0.05279">
        <ele>912</ele>
        <time>2015-09-24T08:31:29Z</time>
      </trkpt>
      <trkpt lat="42.28308" lon="0.05284">
        <ele>912.4</ele>
        <time>2015-09-24T08:31:30Z</time>
      </trkpt>
      <trkpt lat="42.28311" lon="0.05288">
        <ele>912.8</ele>
        <time>2015-09-24T08:31:31Z</time>
      </trkpt>
      <trkpt lat="42.28316" lon="0.05292">
        <ele>913.1</ele>
        <time>2015-09-24T08:31:32Z</time>
      </trkpt>
      <trkpt lat="42.28321" lon="0.05296">
        <ele>913.1</ele>
        <time>2015-09-24T08:31:33Z</time>
      </trkpt>
      <trkpt lat="42.28326" lon="0.05299">
        <ele>913.1</ele>
        <time>2015-09-24T08:31:34Z</time>
      </trkpt>
      <trkpt lat="42.2833" lon="0.05302">
        <ele>913.1</ele>
        <time>2015-09-24T08:31:35Z</time>
      </trkpt>
      <trkpt lat="42.28335" lon="0.05304">
        <ele>913.2</ele>
        <time>2015-09-24T08:31:36Z</time>
      </trkpt>
      <trkpt lat="42.28339" lon="0.05306">
        <ele>913.3</ele>
        <time>2015-09-24T08:31:37Z</time>
      </trkpt>
      <trkpt lat="42.28343" lon="0.05308">
        <ele>913.3</ele>
        <time>2015-09-24T08:31:38Z</time>
      </trkpt>
      <trkpt lat="42.28348" lon="0.05311">
        <ele>913.3</ele>
        <time>2015-09-24T08:31:39Z</time>
      </trkpt>
      <trkpt lat="42.28352" lon="0.05313">
        <ele>913.3</ele>
        <time>2015-09-24T08:31:40Z</time>
      </trkpt>
      <trkpt lat="42.28356" lon="0.05318">
        <ele>913.2</ele>
        <time>2015-09-24T08:31:41Z</time>
      </trkpt>
      <trkpt lat="42.28361" lon="0.05321">
        <ele>913.2</ele>
        <time>2015-09-24T08:31:42Z</time>
      </trkpt>
      <trkpt lat="42.28366" lon="0.05324">
        <ele>913.2</ele>
        <time>2015-09-24T08:31:43Z</time>
      </trkpt>
      <trkpt lat="42.2837" lon="0.05327">
        <ele>913.2</ele>
        <time>2015-09-24T08:31:44Z</time>
      </trkpt>
      <trkpt lat="42.28375" lon="0.05328">
        <ele>913.4</ele>
        <time>2015-09-24T08:31:45Z</time>
      </trkpt>
      <trkpt lat="42.2838" lon="0.05332">
        <ele>913.3</ele>
        <time>2015-09-24T08:31:46Z</time>
      </trkpt>
      <trkpt lat="42.28384" lon="0.05335">
        <ele>913.2</ele>
        <time>2015-09-24T08:31:47Z</time>
      </trkpt>
      <trkpt lat="42.28388" lon="0.05339">
        <ele>913</ele>
        <time>2015-09-24T08:31:48Z</time>
      </trkpt>
      <trkpt lat="42.28392" lon="0.05345">
        <ele>912.8</ele>
        <time>2015-09-24T08:31:49Z</time>
      </trkpt>
      <trkpt lat="42.28395" lon="0.05349">
        <ele>912.6</ele>
        <time>2015-09-24T08:31:50Z</time>
      </trkpt>
      <trkpt lat="42.284" lon="0.05354">
        <ele>912.4</ele>
        <time>2015-09-24T08:31:51Z</time>
      </trkpt>
      <trkpt lat="42.28404" lon="0.05358">
        <ele>912.3</ele>
        <time>2015-09-24T08:31:52Z</time>
      </trkpt>
      <trkpt lat="42.28409" lon="0.05361">
        <ele>912.2</ele>
        <time>2015-09-24T08:31:53Z</time>
      </trkpt>
      <trkpt lat="42.28413" lon="0.05364">
        <ele>912.2</ele>
        <time>2015-09-24T08:31:54Z</time>
      </trkpt>
      <trkpt lat="42.28417" lon="0.05367">
        <ele>912.1</ele>
        <time>2015-09-24T08:31:55Z</time>
      </trkpt>
      <trkpt lat="42.28422" lon="0.05371">
        <ele>912</ele>
        <time>2015-09-24T08:31:56Z</time>
      </trkpt>
      <trkpt lat="42.28426" lon="0.05375">
        <ele>911.9</ele>
        <time>2015-09-24T08:31:57Z</time>
      </trkpt>
      <trkpt lat="42.2843" lon="0.05378">
        <ele>911.7</ele>
        <time>2015-09-24T08:31:58Z</time>
      </trkpt>
      <trkpt lat="42.28433" lon="0.05382">
        <ele>911.5</ele>
        <time>2015-09-24T08:31:59Z</time>
      </trkpt>
      <trkpt lat="42.28436" lon="0.05387">
        <ele>911.3</ele>
        <time>2015-09-24T08:32:00Z</time>
      </trkpt>
      <trkpt lat="42.28439" lon="0.05391">
        <ele>911</ele>
        <time>2015-09-24T08:32:01Z</time>
      </trkpt>
      <trkpt lat="42.28442" lon="0.05394">
        <ele>910.9</ele>
        <time>2015-09-24T08:32:02Z</time>
      </trkpt>
      <trkpt lat="42.28445" lon="0.05397">
        <ele>910.7</ele>
        <time>2015-09-24T08:32:03Z</time>
      </trkpt>
      <trkpt lat="42.28448" lon="0.054">
        <ele>910.6</ele>
        <time>2015-09-24T08:32:04Z</time>
      </trkpt>
      <trkpt lat="42.28451" lon="0.05403">
        <ele>910.4</ele>
        <time>2015-09-24T08:32:05Z</time>
      </trkpt>
      <trkpt lat="42.28454" lon="0.05407">
        <ele>910.2</ele>
        <time>2015-09-24T08:32:06Z</time>
      </trkpt>
      <trkpt lat="42.28457" lon="0.05411">
        <ele>909.9</ele>
        <time>2015-09-24T08:32:07Z</time>
      </trkpt>
      <trkpt lat="42.2846" lon="0.05415">
        <ele>909.7</ele>
        <time>2015-09-24T08:32:08Z</time>
      </trkpt>
      <trkpt lat="42.28464" lon="0.05418">
        <ele>909.6</ele>
        <time>2015-09-24T08:32:09Z</time>
      </trkpt>
      <trkpt lat="42.28467" lon="0.05422">
        <ele>909.4</ele>
        <time>2015-09-24T08:32:10Z</time>
      </trkpt>
      <trkpt lat="42.28471" lon="0.05426">
        <ele>909.2</ele>
        <time>2015-09-24T08:32:11Z</time>
      </trkpt>
      <trkpt lat="42.28474" lon="0.05429">
        <ele>909</ele>
        <time>2015-09-24T08:32:12Z</time>
      </trkpt>
      <trkpt lat="42.28478" lon="0.05432">
        <ele>908.8</ele>
        <time>2015-09-24T08:32:13Z</time>
      </trkpt>
      <trkpt lat="42.28481" lon="0.05435">
        <ele>908.7</ele>
        <time>2015-09-24T08:32:14Z</time>
      </trkpt>
      <trkpt lat="42.28485" lon="0.05437">
        <ele>908.6</ele>
        <time>2015-09-24T08:32:15Z</time>
      </trkpt>
      <trkpt lat="42.28489" lon="0.0544">
        <ele>908.5</ele>
        <time>2015-09-24T08:32:16Z</time>
      </trkpt>
      <trkpt lat="42.28493" lon="0.05441">
        <ele>908.4</ele>
        <time>2015-09-24T08:32:17Z</time>
      </trkpt>
      <trkpt lat="42.28497" lon="0.05443">
        <ele>908.4</ele>
        <time>2015-09-24T08:32:18Z</time>
      </trkpt>
      <trkpt lat="42.28502" lon="0.05446">
        <ele>908.3</ele>
        <time>2015-09-24T08:32:19Z</time>
      </trkpt>
      <trkpt lat="42.28505" lon="0.05446">
        <ele>908.4</ele>
        <time>2015-09-24T08:32:20Z</time>
      </trkpt>
      <trkpt lat="42.28508" lon="0.05446">
        <ele>908.4</ele>
        <time>2015-09-24T08:32:21Z</time>
      </trkpt>
      <trkpt lat="42.28511" lon="0.05447">
        <ele>908.4</ele>
        <time>2015-09-24T08:32:22Z</time>
      </trkpt>
      <trkpt lat="42.28514" lon="0.05448">
        <ele>908.3</ele>
        <time>2015-09-24T08:32:23Z</time>
      </trkpt>
      <trkpt lat="42.28517" lon="0.0545">
        <ele>908.2</ele>
        <time>2015-09-24T08:32:24Z</time>
      </trkpt>
      <trkpt lat="42.28519" lon="0.05452">
        <ele>908.1</ele>
        <time>2015-09-24T08:32:25Z</time>
      </trkpt>
      <trkpt lat="42.28522" lon="0.05454">
        <ele>908</ele>
        <time>2015-09-24T08:32:26Z</time>
      </trkpt>
      <trkpt lat="42.28525" lon="0.05456">
        <ele>907.8</ele>
        <time>2015-09-24T08:32:27Z</time>
      </trkpt>
      <trkpt lat="42.28527" lon="0.05458">
        <ele>907.7</ele>
        <time>2015-09-24T08:32:28Z</time>
      </trkpt>
      <trkpt lat="42.2853" lon="0.0546">
        <ele>907.6</ele>
        <time>2015-09-24T08:32:29Z</time>
      </trkpt>
      <trkpt lat="42.28532" lon="0.05462">
        <ele>907.5</ele>
        <time>2015-09-24T08:32:30Z</time>
      </trkpt>
      <trkpt lat="42.28535" lon="0.05464">
        <ele>907.3</ele>
        <time>2015-09-24T08:32:31Z</time>
      </trkpt>
      <trkpt lat="42.28537" lon="0.05466">
        <ele>907.2</ele>
        <time>2015-09-24T08:32:32Z</time>
      </trkpt>
      <trkpt lat="42.2854" lon="0.05469">
        <ele>907.1</ele>
        <time>2015-09-24T08:32:33Z</time>
      </trkpt>
      <trkpt lat="42.28543" lon="0.05472">
        <ele>907</ele>
        <time>2015-09-24T08:32:34Z</time>
      </trkpt>
      <trkpt lat="42.28546" lon="0.05476">
        <ele>906.8</ele>
        <time>2015-09-24T08:32:35Z</time>
      </trkpt>
      <trkpt lat="42.28549" lon="0.05481">
        <ele>906.6</ele>
        <time>2015-09-24T08:32:36Z</time>
      </trkpt>
      <trkpt lat="42.28552" lon="0.05489">
        <ele>906.1</ele>
        <time>2015-09-24T08:32:37Z</time>
      </trkpt>
      <trkpt lat="42.28555" lon="0.05495">
        <ele>905.8</ele>
        <time>2015-09-24T08:32:38Z</time>
      </trkpt>
      <trkpt lat="42.28559" lon="0.05499">
        <ele>905.7</ele>
        <time>2015-09-24T08:32:39Z</time>
      </trkpt>
      <trkpt lat="42.28562" lon="0.05502">
        <ele>905.6</ele>
        <time>2015-09-24T08:32:40Z</time>
      </trkpt>
      <trkpt lat="42.28564" lon="0.05505">
        <ele>905.6</ele>
        <time>2015-09-24T08:32:41Z</time>
      </trkpt>
      <trkpt lat="42.28567" lon="0.05508">
        <ele>905.6</ele>
        <time>2015-09-24T08:32:42Z</time>
      </trkpt>
      <trkpt lat="42.28569" lon="0.0551">
        <ele>905.5</ele>
        <time>2015-09-24T08:32:43Z</time>
      </trkpt>
      <trkpt lat="42.28571" lon="0.05513">
        <ele>905.4</ele>
        <time>2015-09-24T08:32:44Z</time>
      </trkpt>
      <trkpt lat="42.28574" lon="0.05517">
        <ele>905.3</ele>
        <time>2015-09-24T08:32:46Z</time>
      </trkpt>
      <trkpt lat="42.28578" lon="0.0552">
        <ele>905.3</ele>
        <time>2015-09-24T08:32:48Z</time>
      </trkpt>
      <trkpt lat="42.28581" lon="0.05524">
        <ele>905.2</ele>
        <time>2015-09-24T08:32:50Z</time>
      </trkpt>
      <trkpt lat="42.28584" lon="0.05529">
        <ele>905.1</ele>
        <time>2015-09-24T08:32:52Z</time>
      </trkpt>
      <trkpt lat="42.28587" lon="0.05532">
        <ele>905</ele>
        <time>2015-09-24T08:32:53Z</time>
      </trkpt>
      <trkpt lat="42.28589" lon="0.05534">
        <ele>905</ele>
        <time>2015-09-24T08:32:54Z</time>
      </trkpt>
      <trkpt lat="42.28591" lon="0.05536">
        <ele>905</ele>
        <time>2015-09-24T08:32:55Z</time>
      </trkpt>
      <trkpt lat="42.28595" lon="0.0554">
        <ele>904.9</ele>
        <time>2015-09-24T08:32:57Z</time>
      </trkpt>
      <trkpt lat="42.28597" lon="0.05544">
        <ele>904.8</ele>
        <time>2015-09-24T08:32:59Z</time>
      </trkpt>
      <trkpt lat="42.28601" lon="0.05547">
        <ele>904.9</ele>
        <time>2015-09-24T08:33:01Z</time>
      </trkpt>
      <trkpt lat="42.28604" lon="0.05551">
        <ele>904.9</ele>
        <time>2015-09-24T08:33:03Z</time>
      </trkpt>
      <trkpt lat="42.28608" lon="0.05555">
        <ele>904.8</ele>
        <time>2015-09-24T08:33:05Z</time>
      </trkpt>
      <trkpt lat="42.28612" lon="0.0556">
        <ele>904.7</ele>
        <time>2015-09-24T08:33:07Z</time>
      </trkpt>
      <trkpt lat="42.28614" lon="0.05563">
        <ele>904.7</ele>
        <time>2015-09-24T08:33:08Z</time>
      </trkpt>
      <trkpt lat="42.28617" lon="0.05566">
        <ele>904.7</ele>
        <time>2015-09-24T08:33:09Z</time>
      </trkpt>
      <trkpt lat="42.28619" lon="0.05568">
        <ele>904.7</ele>
        <time>2015-09-24T08:33:10Z</time>
      </trkpt>
      <trkpt lat="42.28622" lon="0.05571">
        <ele>904.7</ele>
        <time>2015-09-24T08:33:11Z</time>
      </trkpt>
      <trkpt lat="42.28624" lon="0.05573">
        <ele>904.7</ele>
        <time>2015-09-24T08:33:12Z</time>
      </trkpt>
      <trkpt lat="42.28627" lon="0.05575">
        <ele>904.8</ele>
        <time>2015-09-24T08:33:13Z</time>
      </trkpt>
      <trkpt lat="42.2863" lon="0.05576">
        <ele>904.9</ele>
        <time>2015-09-24T08:33:14Z</time>
      </trkpt>
      <trkpt lat="42.28633" lon="0.05578">
        <ele>905</ele>
        <time>2015-09-24T08:33:15Z</time>
      </trkpt>
      <trkpt lat="42.28635" lon="0.0558">
        <ele>905.1</ele>
        <time>2015-09-24T08:33:16Z</time>
      </trkpt>
      <trkpt lat="42.28638" lon="0.05581">
        <ele>905.2</ele>
        <time>2015-09-24T08:33:17Z</time>
      </trkpt>
      <trkpt lat="42.28641" lon="0.05583">
        <ele>905.3</ele>
        <time>2015-09-24T08:33:18Z</time>
      </trkpt>
      <trkpt lat="42.28643" lon="0.05584">
        <ele>905.3</ele>
        <time>2015-09-24T08:33:19Z</time>
      </trkpt>
      <trkpt lat="42.28646" lon="0.05586">
        <ele>905.4</ele>
        <time>2015-09-24T08:33:20Z</time>
      </trkpt>
      <trkpt lat="42.28648" lon="0.05588">
        <ele>905.5</ele>
        <time>2015-09-24T08:33:21Z</time>
      </trkpt>
      <trkpt lat="42.28651" lon="0.0559">
        <ele>905.5</ele>
        <time>2015-09-24T08:33:22Z</time>
      </trkpt>
      <trkpt lat="42.28653" lon="0.05592">
        <ele>905.6</ele>
        <time>2015-09-24T08:33:23Z</time>
      </trkpt>
      <trkpt lat="42.28655" lon="0.05595">
        <ele>905.6</ele>
        <time>2015-09-24T08:33:24Z</time>
      </trkpt>
      <trkpt lat="42.28658" lon="0.05599">
        <ele>905.6</ele>
        <time>2015-09-24T08:33:25Z</time>
      </trkpt>
      <trkpt lat="42.28661" lon="0.05602">
        <ele>905.6</ele>
        <time>2015-09-24T08:33:26Z</time>
      </trkpt>
      <trkpt lat="42.28665" lon="0.05606">
        <ele>905.6</ele>
        <time>2015-09-24T08:33:27Z</time>
      </trkpt>
      <trkpt lat="42.28668" lon="0.0561">
        <ele>905.6</ele>
        <time>2015-09-24T08:33:28Z</time>
      </trkpt>
      <trkpt lat="42.28671" lon="0.05615">
        <ele>905.6</ele>
        <time>2015-09-24T08:33:29Z</time>
      </trkpt>
      <trkpt lat="42.28675" lon="0.0562">
        <ele>905.6</ele>
        <time>2015-09-24T08:33:30Z</time>
      </trkpt>
      <trkpt lat="42.28679" lon="0.05624">
        <ele>905.6</ele>
        <time>2015-09-24T08:33:31Z</time>
      </trkpt>
      <trkpt lat="42.28682" lon="0.05628">
        <ele>905.6</ele>
        <time>2015-09-24T08:33:32Z</time>
      </trkpt>
      <trkpt lat="42.28686" lon="0.05632">
        <ele>905.7</ele>
        <time>2015-09-24T08:33:33Z</time>
      </trkpt>
      <trkpt lat="42.28689" lon="0.05635">
        <ele>905.8</ele>
        <time>2015-09-24T08:33:34Z</time>
      </trkpt>
      <trkpt lat="42.28692" lon="0.05638">
        <ele>905.9</ele>
        <time>2015-09-24T08:33:35Z</time>
      </trkpt>
      <trkpt lat="42.28696" lon="0.05642">
        <ele>905.9</ele>
        <time>2015-09-24T08:33:36Z</time>
      </trkpt>
      <trkpt lat="42.28699" lon="0.05645">
        <ele>906</ele>
        <time>2015-09-24T08:33:37Z</time>
      </trkpt>
      <trkpt lat="42.28702" lon="0.05648">
        <ele>906.1</ele>
        <time>2015-09-24T08:33:38Z</time>
      </trkpt>
      <trkpt lat="42.28705" lon="0.05651">
        <ele>906.1</ele>
        <time>2015-09-24T08:33:39Z</time>
      </trkpt>
      <trkpt lat="42.28708" lon="0.05655">
        <ele>906.2</ele>
        <time>2015-09-24T08:33:40Z</time>
      </trkpt>
      <trkpt lat="42.28711" lon="0.05658">
        <ele>906.2</ele>
        <time>2015-09-24T08:33:41Z</time>
      </trkpt>
      <trkpt lat="42.28714" lon="0.05661">
        <ele>906.3</ele>
        <time>2015-09-24T08:33:42Z</time>
      </trkpt>
      <trkpt lat="42.28717" lon="0.05665">
        <ele>906.2</ele>
        <time>2015-09-24T08:33:43Z</time>
      </trkpt>
      <trkpt lat="42.2872" lon="0.05669">
        <ele>906.2</ele>
        <time>2015-09-24T08:33:44Z</time>
      </trkpt>
      <trkpt lat="42.28723" lon="0.05672">
        <ele>906.2</ele>
        <time>2015-09-24T08:33:45Z</time>
      </trkpt>
      <trkpt lat="42.28726" lon="0.05675">
        <ele>906.3</ele>
        <time>2015-09-24T08:33:46Z</time>
      </trkpt>
      <trkpt lat="42.28728" lon="0.05678">
        <ele>906.3</ele>
        <time>2015-09-24T08:33:47Z</time>
      </trkpt>
      <trkpt lat="42.2873" lon="0.05681">
        <ele>906.3</ele>
        <time>2015-09-24T08:33:48Z</time>
      </trkpt>
      <trkpt lat="42.28732" lon="0.05683">
        <ele>906.3</ele>
        <time>2015-09-24T08:33:49Z</time>
      </trkpt>
      <trkpt lat="42.28734" lon="0.05686">
        <ele>906.4</ele>
        <time>2015-09-24T08:33:50Z</time>
      </trkpt>
      <trkpt lat="42.28737" lon="0.05688">
        <ele>906.4</ele>
        <time>2015-09-24T08:33:51Z</time>
      </trkpt>
      <trkpt lat="42.28739" lon="0.0569">
        <ele>906.5</ele>
        <time>2015-09-24T08:33:52Z</time>
      </trkpt>
      <trkpt lat="42.28744" lon="0.05693">
        <ele>906.7</ele>
        <time>2015-09-24T08:33:54Z</time>
      </trkpt>
      <trkpt lat="42.28746" lon="0.05695">
        <ele>906.8</ele>
        <time>2015-09-24T08:33:55Z</time>
      </trkpt>
      <trkpt lat="42.28748" lon="0.05698">
        <ele>906.9</ele>
        <time>2015-09-24T08:33:56Z</time>
      </trkpt>
      <trkpt lat="42.2875" lon="0.057">
        <ele>906.9</ele>
        <time>2015-09-24T08:33:57Z</time>
      </trkpt>
      <trkpt lat="42.28754" lon="0.05705">
        <ele>907</ele>
        <time>2015-09-24T08:33:59Z</time>
      </trkpt>
      <trkpt lat="42.28756" lon="0.05708">
        <ele>907.1</ele>
        <time>2015-09-24T08:34:00Z</time>
      </trkpt>
      <trkpt lat="42.28758" lon="0.05711">
        <ele>907.2</ele>
        <time>2015-09-24T08:34:01Z</time>
      </trkpt>
      <trkpt lat="42.28762" lon="0.05716">
        <ele>907.5</ele>
        <time>2015-09-24T08:34:03Z</time>
      </trkpt>
      <trkpt lat="42.28764" lon="0.05719">
        <ele>907.7</ele>
        <time>2015-09-24T08:34:04Z</time>
      </trkpt>
      <trkpt lat="42.28766" lon="0.05721">
        <ele>907.9</ele>
        <time>2015-09-24T08:34:05Z</time>
      </trkpt>
      <trkpt lat="42.28768" lon="0.05723">
        <ele>908.1</ele>
        <time>2015-09-24T08:34:06Z</time>
      </trkpt>
      <trkpt lat="42.28771" lon="0.05726">
        <ele>908.3</ele>
        <time>2015-09-24T08:34:07Z</time>
      </trkpt>
      <trkpt lat="42.28773" lon="0.05728">
        <ele>908.5</ele>
        <time>2015-09-24T08:34:08Z</time>
      </trkpt>
      <trkpt lat="42.28776" lon="0.05731">
        <ele>908.7</ele>
        <time>2015-09-24T08:34:10Z</time>
      </trkpt>
      <trkpt lat="42.28775" lon="0.05735">
        <ele>908.6</ele>
        <time>2015-09-24T08:34:14Z</time>
      </trkpt>
      <trkpt lat="42.28772" lon="0.05738">
        <ele>908.5</ele>
        <time>2015-09-24T08:34:16Z</time>
      </trkpt>
      <trkpt lat="42.28771" lon="0.05741">
        <ele>908.3</ele>
        <time>2015-09-24T08:34:17Z</time>
      </trkpt>
      <trkpt lat="42.28769" lon="0.05744">
        <ele>908.2</ele>
        <time>2015-09-24T08:34:18Z</time>
      </trkpt>
      <trkpt lat="42.28767" lon="0.05747">
        <ele>908</ele>
        <time>2015-09-24T08:34:19Z</time>
      </trkpt>
      <trkpt lat="42.28763" lon="0.05752">
        <ele>907.8</ele>
        <time>2015-09-24T08:34:21Z</time>
      </trkpt>
      <trkpt lat="42.2876" lon="0.05757">
        <ele>907.6</ele>
        <time>2015-09-24T08:34:23Z</time>
      </trkpt>
      <trkpt lat="42.28756" lon="0.05761">
        <ele>907.3</ele>
        <time>2015-09-24T08:34:25Z</time>
      </trkpt>
      <trkpt lat="42.28751" lon="0.05763">
        <ele>906.9</ele>
        <time>2015-09-24T08:34:27Z</time>
      </trkpt>
      <trkpt lat="42.28744" lon="0.05764">
        <ele>906.4</ele>
        <time>2015-09-24T08:34:29Z</time>
      </trkpt>
      <trkpt lat="42.28741" lon="0.05765">
        <ele>906.2</ele>
        <time>2015-09-24T08:34:30Z</time>
      </trkpt>
      <trkpt lat="42.28738" lon="0.05765">
        <ele>905.9</ele>
        <time>2015-09-24T08:34:31Z</time>
      </trkpt>
      <trkpt lat="42.28735" lon="0.05767">
        <ele>905.7</ele>
        <time>2015-09-24T08:34:32Z</time>
      </trkpt>
      <trkpt lat="42.28732" lon="0.05768">
        <ele>905.5</ele>
        <time>2015-09-24T08:34:33Z</time>
      </trkpt>
      <trkpt lat="42.28729" lon="0.05769">
        <ele>905.3</ele>
        <time>2015-09-24T08:34:34Z</time>
      </trkpt>
      <trkpt lat="42.28726" lon="0.0577">
        <ele>905.1</ele>
        <time>2015-09-24T08:34:35Z</time>
      </trkpt>
      <trkpt lat="42.28723" lon="0.05771">
        <ele>904.9</ele>
        <time>2015-09-24T08:34:36Z</time>
      </trkpt>
      <trkpt lat="42.2872" lon="0.05771">
        <ele>904.6</ele>
        <time>2015-09-24T08:34:37Z</time>
      </trkpt>
      <trkpt lat="42.28717" lon="0.05772">
        <ele>904.4</ele>
        <time>2015-09-24T08:34:38Z</time>
      </trkpt>
      <trkpt lat="42.28714" lon="0.05772">
        <ele>904.2</ele>
        <time>2015-09-24T08:34:39Z</time>
      </trkpt>
      <trkpt lat="42.2871" lon="0.05773">
        <ele>903.9</ele>
        <time>2015-09-24T08:34:40Z</time>
      </trkpt>
      <trkpt lat="42.28707" lon="0.05774">
        <ele>903.7</ele>
        <time>2015-09-24T08:34:41Z</time>
      </trkpt>
      <trkpt lat="42.28703" lon="0.05776">
        <ele>903.4</ele>
        <time>2015-09-24T08:34:42Z</time>
      </trkpt>
      <trkpt lat="42.287" lon="0.05778">
        <ele>903.2</ele>
        <time>2015-09-24T08:34:43Z</time>
      </trkpt>
      <trkpt lat="42.28696" lon="0.0578">
        <ele>903</ele>
        <time>2015-09-24T08:34:44Z</time>
      </trkpt>
      <trkpt lat="42.28693" lon="0.05782">
        <ele>902.8</ele>
        <time>2015-09-24T08:34:45Z</time>
      </trkpt>
      <trkpt lat="42.2869" lon="0.05784">
        <ele>902.6</ele>
        <time>2015-09-24T08:34:46Z</time>
      </trkpt>
      <trkpt lat="42.28687" lon="0.05786">
        <ele>902.3</ele>
        <time>2015-09-24T08:34:47Z</time>
      </trkpt>
      <trkpt lat="42.28683" lon="0.05788">
        <ele>902.1</ele>
        <time>2015-09-24T08:34:48Z</time>
      </trkpt>
      <trkpt lat="42.28679" lon="0.05789">
        <ele>901.9</ele>
        <time>2015-09-24T08:34:49Z</time>
      </trkpt>
      <trkpt lat="42.28676" lon="0.05789">
        <ele>901.6</ele>
        <time>2015-09-24T08:34:50Z</time>
      </trkpt>
      <trkpt lat="42.28672" lon="0.05789">
        <ele>901.3</ele>
        <time>2015-09-24T08:34:51Z</time>
      </trkpt>
      <trkpt lat="42.28668" lon="0.05789">
        <ele>901.1</ele>
        <time>2015-09-24T08:34:52Z</time>
      </trkpt>
      <trkpt lat="42.28665" lon="0.0579">
        <ele>900.8</ele>
        <time>2015-09-24T08:34:53Z</time>
      </trkpt>
      <trkpt lat="42.28662" lon="0.05793">
        <ele>900.7</ele>
        <time>2015-09-24T08:34:54Z</time>
      </trkpt>
      <trkpt lat="42.28659" lon="0.05797">
        <ele>900.6</ele>
        <time>2015-09-24T08:34:55Z</time>
      </trkpt>
      <trkpt lat="42.28657" lon="0.05801">
        <ele>900.6</ele>
        <time>2015-09-24T08:34:56Z</time>
      </trkpt>
      <trkpt lat="42.28655" lon="0.05805">
        <ele>900.5</ele>
        <time>2015-09-24T08:34:57Z</time>
      </trkpt>
      <trkpt lat="42.28653" lon="0.0581">
        <ele>900.5</ele>
        <time>2015-09-24T08:34:58Z</time>
      </trkpt>
      <trkpt lat="42.2865" lon="0.05814">
        <ele>900.3</ele>
        <time>2015-09-24T08:34:59Z</time>
      </trkpt>
      <trkpt lat="42.28647" lon="0.05818">
        <ele>900.2</ele>
        <time>2015-09-24T08:35:00Z</time>
      </trkpt>
      <trkpt lat="42.28644" lon="0.05822">
        <ele>900</ele>
        <time>2015-09-24T08:35:01Z</time>
      </trkpt>
      <trkpt lat="42.2864" lon="0.05827">
        <ele>899.7</ele>
        <time>2015-09-24T08:35:02Z</time>
      </trkpt>
      <trkpt lat="42.28637" lon="0.05832">
        <ele>899.5</ele>
        <time>2015-09-24T08:35:03Z</time>
      </trkpt>
      <trkpt lat="42.28635" lon="0.05837">
        <ele>899.4</ele>
        <time>2015-09-24T08:35:04Z</time>
      </trkpt>
      <trkpt lat="42.28633" lon="0.05841">
        <ele>899.3</ele>
        <time>2015-09-24T08:35:05Z</time>
      </trkpt>
      <trkpt lat="42.28631" lon="0.05844">
        <ele>899.2</ele>
        <time>2015-09-24T08:35:06Z</time>
      </trkpt>
      <trkpt lat="42.28628" lon="0.05846">
        <ele>899</ele>
        <time>2015-09-24T08:35:07Z</time>
      </trkpt>
      <trkpt lat="42.28625" lon="0.05846">
        <ele>898.7</ele>
        <time>2015-09-24T08:35:08Z</time>
      </trkpt>
      <trkpt lat="42.28622" lon="0.05846">
        <ele>898.4</ele>
        <time>2015-09-24T08:35:09Z</time>
      </trkpt>
      <trkpt lat="42.2862" lon="0.05848">
        <ele>898.2</ele>
        <time>2015-09-24T08:35:10Z</time>
      </trkpt>
      <trkpt lat="42.28617" lon="0.0585">
        <ele>898</ele>
        <time>2015-09-24T08:35:11Z</time>
      </trkpt>
      <trkpt lat="42.28612" lon="0.05853">
        <ele>897.7</ele>
        <time>2015-09-24T08:35:13Z</time>
      </trkpt>
      <trkpt lat="42.28608" lon="0.05854">
        <ele>897.4</ele>
        <time>2015-09-24T08:35:15Z</time>
      </trkpt>
      <trkpt lat="42.28605" lon="0.05853">
        <ele>897.1</ele>
        <time>2015-09-24T08:35:18Z</time>
      </trkpt>
      <trkpt lat="42.28602" lon="0.05853">
        <ele>896.9</ele>
        <time>2015-09-24T08:35:25Z</time>
      </trkpt>
      <trkpt lat="42.28598" lon="0.05853">
        <ele>896.5</ele>
        <time>2015-09-24T08:35:32Z</time>
      </trkpt>
      <trkpt lat="42.28594" lon="0.05852">
        <ele>896.2</ele>
        <time>2015-09-24T08:35:34Z</time>
      </trkpt>
      <trkpt lat="42.28591" lon="0.05852">
        <ele>895.9</ele>
        <time>2015-09-24T08:35:36Z</time>
      </trkpt>
      <trkpt lat="42.28587" lon="0.05851">
        <ele>895.6</ele>
        <time>2015-09-24T08:35:38Z</time>
      </trkpt>
      <trkpt lat="42.28584" lon="0.0585">
        <ele>895.3</ele>
        <time>2015-09-24T08:35:40Z</time>
      </trkpt>
      <trkpt lat="42.2858" lon="0.0585">
        <ele>895</ele>
        <time>2015-09-24T08:35:42Z</time>
      </trkpt>
      <trkpt lat="42.28576" lon="0.05849">
        <ele>894.6</ele>
        <time>2015-09-24T08:35:44Z</time>
      </trkpt>
      <trkpt lat="42.28573" lon="0.05847">
        <ele>894.3</ele>
        <time>2015-09-24T08:35:46Z</time>
      </trkpt>
      <trkpt lat="42.28567" lon="0.05845">
        <ele>893.7</ele>
        <time>2015-09-24T08:35:48Z</time>
      </trkpt>
      <trkpt lat="42.28564" lon="0.05845">
        <ele>893.5</ele>
        <time>2015-09-24T08:35:49Z</time>
      </trkpt>
      <trkpt lat="42.28561" lon="0.05845">
        <ele>893.2</ele>
        <time>2015-09-24T08:35:50Z</time>
      </trkpt>
      <trkpt lat="42.28558" lon="0.05844">
        <ele>892.9</ele>
        <time>2015-09-24T08:35:51Z</time>
      </trkpt>
      <trkpt lat="42.28554" lon="0.05842">
        <ele>892.5</ele>
        <time>2015-09-24T08:35:53Z</time>
      </trkpt>
      <trkpt lat="42.28552" lon="0.05839">
        <ele>892.2</ele>
        <time>2015-09-24T08:35:55Z</time>
      </trkpt>
      <trkpt lat="42.2855" lon="0.05836">
        <ele>891.8</ele>
        <time>2015-09-24T08:35:57Z</time>
      </trkpt>
      <trkpt lat="42.28547" lon="0.05834">
        <ele>891.5</ele>
        <time>2015-09-24T08:35:59Z</time>
      </trkpt>
      <trkpt lat="42.28544" lon="0.05834">
        <ele>891.2</ele>
        <time>2015-09-24T08:36:02Z</time>
      </trkpt>
      <trkpt lat="42.28541" lon="0.05836">
        <ele>891</ele>
        <time>2015-09-24T08:36:04Z</time>
      </trkpt>
      <trkpt lat="42.28538" lon="0.05837">
        <ele>890.8</ele>
        <time>2015-09-24T08:36:05Z</time>
      </trkpt>
      <trkpt lat="42.28536" lon="0.0584">
        <ele>890.7</ele>
        <time>2015-09-24T08:36:06Z</time>
      </trkpt>
      <trkpt lat="42.28533" lon="0.05842">
        <ele>890.6</ele>
        <time>2015-09-24T08:36:07Z</time>
      </trkpt>
      <trkpt lat="42.28531" lon="0.05844">
        <ele>890.4</ele>
        <time>2015-09-24T08:36:08Z</time>
      </trkpt>
      <trkpt lat="42.28527" lon="0.05848">
        <ele>890.2</ele>
        <time>2015-09-24T08:36:10Z</time>
      </trkpt>
      <trkpt lat="42.28524" lon="0.05847">
        <ele>889.8</ele>
        <time>2015-09-24T08:36:14Z</time>
      </trkpt>
      <trkpt lat="42.2852" lon="0.05847">
        <ele>889.5</ele>
        <time>2015-09-24T08:36:16Z</time>
      </trkpt>
      <trkpt lat="42.28516" lon="0.05849">
        <ele>889.1</ele>
        <time>2015-09-24T08:36:18Z</time>
      </trkpt>
      <trkpt lat="42.28512" lon="0.05851">
        <ele>888.9</ele>
        <time>2015-09-24T08:36:19Z</time>
      </trkpt>
      <trkpt lat="42.28509" lon="0.05852">
        <ele>888.7</ele>
        <time>2015-09-24T08:36:20Z</time>
      </trkpt>
      <trkpt lat="42.28507" lon="0.05854">
        <ele>888.5</ele>
        <time>2015-09-24T08:36:21Z</time>
      </trkpt>
      <trkpt lat="42.28504" lon="0.05856">
        <ele>888.4</ele>
        <time>2015-09-24T08:36:23Z</time>
      </trkpt>
      <trkpt lat="42.28501" lon="0.05859">
        <ele>888.2</ele>
        <time>2015-09-24T08:36:25Z</time>
      </trkpt>
      <trkpt lat="42.28496" lon="0.05864">
        <ele>887.9</ele>
        <time>2015-09-24T08:36:27Z</time>
      </trkpt>
      <trkpt lat="42.28492" lon="0.05866">
        <ele>887.8</ele>
        <time>2015-09-24T08:36:28Z</time>
      </trkpt>
      <trkpt lat="42.28489" lon="0.05868">
        <ele>887.6</ele>
        <time>2015-09-24T08:36:29Z</time>
      </trkpt>
      <trkpt lat="42.28487" lon="0.0587">
        <ele>887.5</ele>
        <time>2015-09-24T08:36:30Z</time>
      </trkpt>
      <trkpt lat="42.28484" lon="0.05874">
        <ele>887.4</ele>
        <time>2015-09-24T08:36:32Z</time>
      </trkpt>
      <trkpt lat="42.28482" lon="0.05877">
        <ele>887.3</ele>
        <time>2015-09-24T08:36:35Z</time>
      </trkpt>
      <trkpt lat="42.28479" lon="0.05877">
        <ele>887</ele>
        <time>2015-09-24T08:36:37Z</time>
      </trkpt>
      <trkpt lat="42.28474" lon="0.05877">
        <ele>886.6</ele>
        <time>2015-09-24T08:36:39Z</time>
      </trkpt>
      <trkpt lat="42.28472" lon="0.05878">
        <ele>886.4</ele>
        <time>2015-09-24T08:36:40Z</time>
      </trkpt>
      <trkpt lat="42.28469" lon="0.0588">
        <ele>886.2</ele>
        <time>2015-09-24T08:36:41Z</time>
      </trkpt>
      <trkpt lat="42.28466" lon="0.05882">
        <ele>886</ele>
        <time>2015-09-24T08:36:42Z</time>
      </trkpt>
      <trkpt lat="42.28464" lon="0.05884">
        <ele>885.8</ele>
        <time>2015-09-24T08:36:43Z</time>
      </trkpt>
      <trkpt lat="42.28461" lon="0.05885">
        <ele>885.6</ele>
        <time>2015-09-24T08:36:44Z</time>
      </trkpt>
      <trkpt lat="42.28459" lon="0.05888">
        <ele>885.5</ele>
        <time>2015-09-24T08:36:45Z</time>
      </trkpt>
      <trkpt lat="42.28457" lon="0.0589">
        <ele>885.4</ele>
        <time>2015-09-24T08:36:46Z</time>
      </trkpt>
      <trkpt lat="42.28451" lon="0.0589">
        <ele>884.8</ele>
        <time>2015-09-24T08:36:48Z</time>
      </trkpt>
      <trkpt lat="42.28449" lon="0.05888">
        <ele>884.5</ele>
        <time>2015-09-24T08:36:49Z</time>
      </trkpt>
      <trkpt lat="42.28446" lon="0.05888">
        <ele>884.2</ele>
        <time>2015-09-24T08:36:50Z</time>
      </trkpt>
      <trkpt lat="42.28444" lon="0.0589">
        <ele>884</ele>
        <time>2015-09-24T08:36:51Z</time>
      </trkpt>
      <trkpt lat="42.28441" lon="0.05892">
        <ele>883.8</ele>
        <time>2015-09-24T08:36:52Z</time>
      </trkpt>
      <trkpt lat="42.28438" lon="0.05895">
        <ele>883.7</ele>
        <time>2015-09-24T08:36:53Z</time>
      </trkpt>
      <trkpt lat="42.28435" lon="0.05899">
        <ele>883.5</ele>
        <time>2015-09-24T08:36:54Z</time>
      </trkpt>
      <trkpt lat="42.28433" lon="0.05902">
        <ele>883.4</ele>
        <time>2015-09-24T08:36:55Z</time>
      </trkpt>
      <trkpt lat="42.2843" lon="0.05906">
        <ele>883.3</ele>
        <time>2015-09-24T08:36:56Z</time>
      </trkpt>
      <trkpt lat="42.28426" lon="0.05907">
        <ele>882.9</ele>
        <time>2015-09-24T08:36:57Z</time>
      </trkpt>
      <trkpt lat="42.28422" lon="0.05907">
        <ele>882.5</ele>
        <time>2015-09-24T08:36:58Z</time>
      </trkpt>
      <trkpt lat="42.28417" lon="0.05905">
        <ele>882</ele>
        <time>2015-09-24T08:36:59Z</time>
      </trkpt>
      <trkpt lat="42.28411" lon="0.05902">
        <ele>881.2</ele>
        <time>2015-09-24T08:37:00Z</time>
      </trkpt>
      <trkpt lat="42.28407" lon="0.05899">
        <ele>880.6</ele>
        <time>2015-09-24T08:37:01Z</time>
      </trkpt>
      <trkpt lat="42.28402" lon="0.05897">
        <ele>880.1</ele>
        <time>2015-09-24T08:37:02Z</time>
      </trkpt>
      <trkpt lat="42.28399" lon="0.05895">
        <ele>879.7</ele>
        <time>2015-09-24T08:37:03Z</time>
      </trkpt>
      <trkpt lat="42.28396" lon="0.05895">
        <ele>879.3</ele>
        <time>2015-09-24T08:37:04Z</time>
      </trkpt>
      <trkpt lat="42.28393" lon="0.05895">
        <ele>879</ele>
        <time>2015-09-24T08:37:05Z</time>
      </trkpt>
      <trkpt lat="42.28389" lon="0.05895">
        <ele>878.6</ele>
        <time>2015-09-24T08:37:28Z</time>
      </trkpt>
      <trkpt lat="42.28385" lon="0.05895">
        <ele>878.2</ele>
        <time>2015-09-24T08:37:30Z</time>
      </trkpt>
      <trkpt lat="42.28379" lon="0.05896">
        <ele>877.6</ele>
        <time>2015-09-24T08:37:32Z</time>
      </trkpt>
      <trkpt lat="42.28375" lon="0.05898">
        <ele>877.3</ele>
        <time>2015-09-24T08:37:33Z</time>
      </trkpt>
      <trkpt lat="42.28371" lon="0.05899">
        <ele>877</ele>
        <time>2015-09-24T08:37:34Z</time>
      </trkpt>
      <trkpt lat="42.28366" lon="0.05901">
        <ele>876.6</ele>
        <time>2015-09-24T08:37:35Z</time>
      </trkpt>
      <trkpt lat="42.28362" lon="0.05902">
        <ele>876.2</ele>
        <time>2015-09-24T08:37:36Z</time>
      </trkpt>
      <trkpt lat="42.28357" lon="0.05903">
        <ele>875.7</ele>
        <time>2015-09-24T08:37:37Z</time>
      </trkpt>
      <trkpt lat="42.28353" lon="0.05903">
        <ele>875.2</ele>
        <time>2015-09-24T08:37:38Z</time>
      </trkpt>
      <trkpt lat="42.28348" lon="0.05903">
        <ele>874.8</ele>
        <time>2015-09-24T08:37:39Z</time>
      </trkpt>
      <trkpt lat="42.28342" lon="0.05906">
        <ele>874.3</ele>
        <time>2015-09-24T08:37:40Z</time>
      </trkpt>
      <trkpt lat="42.28338" lon="0.05907">
        <ele>874</ele>
        <time>2015-09-24T08:37:41Z</time>
      </trkpt>
      <trkpt lat="42.28334" lon="0.0591">
        <ele>873.7</ele>
        <time>2015-09-24T08:37:42Z</time>
      </trkpt>
      <trkpt lat="42.28331" lon="0.05914">
        <ele>873.5</ele>
        <time>2015-09-24T08:37:43Z</time>
      </trkpt>
      <trkpt lat="42.28328" lon="0.05918">
        <ele>873.5</ele>
        <time>2015-09-24T08:37:44Z</time>
      </trkpt>
      <trkpt lat="42.28325" lon="0.05924">
        <ele>873.6</ele>
        <time>2015-09-24T08:37:45Z</time>
      </trkpt>
      <trkpt lat="42.28323" lon="0.05929">
        <ele>873.6</ele>
        <time>2015-09-24T08:37:46Z</time>
      </trkpt>
      <trkpt lat="42.2832" lon="0.05935">
        <ele>873.6</ele>
        <time>2015-09-24T08:37:47Z</time>
      </trkpt>
      <trkpt lat="42.28317" lon="0.0594">
        <ele>873.7</ele>
        <time>2015-09-24T08:37:48Z</time>
      </trkpt>
      <trkpt lat="42.28315" lon="0.05944">
        <ele>873.7</ele>
        <time>2015-09-24T08:37:49Z</time>
      </trkpt>
      <trkpt lat="42.28312" lon="0.05948">
        <ele>873.6</ele>
        <time>2015-09-24T08:37:51Z</time>
      </trkpt>
      <trkpt lat="42.28309" lon="0.05947">
        <ele>873.1</ele>
        <time>2015-09-24T08:37:53Z</time>
      </trkpt>
      <trkpt lat="42.28305" lon="0.05942">
        <ele>872.5</ele>
        <time>2015-09-24T08:37:55Z</time>
      </trkpt>
      <trkpt lat="42.28302" lon="0.05939">
        <ele>871.9</ele>
        <time>2015-09-24T08:37:57Z</time>
      </trkpt>
      <trkpt lat="42.28299" lon="0.05939">
        <ele>871.7</ele>
        <time>2015-09-24T08:38:05Z</time>
      </trkpt>
      <trkpt lat="42.28297" lon="0.05941">
        <ele>871.5</ele>
        <time>2015-09-24T08:38:10Z</time>
      </trkpt>
      <trkpt lat="42.28294" lon="0.05942">
        <ele>871.2</ele>
        <time>2015-09-24T08:38:16Z</time>
      </trkpt>
      <trkpt lat="42.28292" lon="0.05943">
        <ele>871.1</ele>
        <time>2015-09-24T08:38:23Z</time>
      </trkpt>
      <trkpt lat="42.28293" lon="0.0594">
        <ele>871</ele>
        <time>2015-09-24T08:39:41Z</time>
      </trkpt>
      <trkpt lat="42.28288" lon="0.05943">
        <ele>870.5</ele>
        <time>2015-09-24T08:41:12Z</time>
      </trkpt>
      <trkpt lat="42.28285" lon="0.05941">
        <ele>870</ele>
        <time>2015-09-24T08:41:16Z</time>
      </trkpt>
      <trkpt lat="42.28282" lon="0.05938">
        <ele>869.4</ele>
        <time>2015-09-24T08:41:18Z</time>
      </trkpt>
      <trkpt lat="42.28278" lon="0.05936">
        <ele>868.6</ele>
        <time>2015-09-24T08:41:20Z</time>
      </trkpt>
      <trkpt lat="42.28275" lon="0.05935">
        <ele>868.1</ele>
        <time>2015-09-24T08:41:21Z</time>
      </trkpt>
      <trkpt lat="42.28272" lon="0.05935">
        <ele>867.6</ele>
        <time>2015-09-24T08:41:22Z</time>
      </trkpt>
      <trkpt lat="42.28268" lon="0.05934">
        <ele>867</ele>
        <time>2015-09-24T08:41:23Z</time>
      </trkpt>
      <trkpt lat="42.28264" lon="0.05933">
        <ele>866.4</ele>
        <time>2015-09-24T08:41:24Z</time>
      </trkpt>
      <trkpt lat="42.28261" lon="0.05931">
        <ele>865.7</ele>
        <time>2015-09-24T08:41:25Z</time>
      </trkpt>
      <trkpt lat="42.28257" lon="0.05929">
        <ele>865.1</ele>
        <time>2015-09-24T08:41:26Z</time>
      </trkpt>
      <trkpt lat="42.28253" lon="0.05926">
        <ele>864.4</ele>
        <time>2015-09-24T08:41:27Z</time>
      </trkpt>
      <trkpt lat="42.2825" lon="0.05922">
        <ele>863.7</ele>
        <time>2015-09-24T08:41:28Z</time>
      </trkpt>
      <trkpt lat="42.28246" lon="0.05919">
        <ele>863.1</ele>
        <time>2015-09-24T08:41:29Z</time>
      </trkpt>
      <trkpt lat="42.28243" lon="0.05917">
        <ele>862.4</ele>
        <time>2015-09-24T08:41:30Z</time>
      </trkpt>
      <trkpt lat="42.28239" lon="0.05915">
        <ele>861.8</ele>
        <time>2015-09-24T08:41:31Z</time>
      </trkpt>
      <trkpt lat="42.28234" lon="0.05914">
        <ele>861.1</ele>
        <time>2015-09-24T08:41:32Z</time>
      </trkpt>
      <trkpt lat="42.28228" lon="0.05915">
        <ele>860.3</ele>
        <time>2015-09-24T08:41:33Z</time>
      </trkpt>
      <trkpt lat="42.28225" lon="0.05915">
        <ele>859.8</ele>
        <time>2015-09-24T08:41:34Z</time>
      </trkpt>
      <trkpt lat="42.28221" lon="0.05914">
        <ele>859.3</ele>
        <time>2015-09-24T08:41:35Z</time>
      </trkpt>
      <trkpt lat="42.28216" lon="0.05916">
        <ele>858.6</ele>
        <time>2015-09-24T08:41:37Z</time>
      </trkpt>
      <trkpt lat="42.28215" lon="0.0592">
        <ele>858.5</ele>
        <time>2015-09-24T08:41:38Z</time>
      </trkpt>
      <trkpt lat="42.28212" lon="0.05923">
        <ele>858.3</ele>
        <time>2015-09-24T08:41:39Z</time>
      </trkpt>
      <trkpt lat="42.28209" lon="0.05927">
        <ele>858</ele>
        <time>2015-09-24T08:41:40Z</time>
      </trkpt>
      <trkpt lat="42.28207" lon="0.05932">
        <ele>857.9</ele>
        <time>2015-09-24T08:41:41Z</time>
      </trkpt>
      <trkpt lat="42.28205" lon="0.05935">
        <ele>857.7</ele>
        <time>2015-09-24T08:41:42Z</time>
      </trkpt>
      <trkpt lat="42.28202" lon="0.05938">
        <ele>857.5</ele>
        <time>2015-09-24T08:41:43Z</time>
      </trkpt>
      <trkpt lat="42.28199" lon="0.0594">
        <ele>857.2</ele>
        <time>2015-09-24T08:41:44Z</time>
      </trkpt>
      <trkpt lat="42.28196" lon="0.05942">
        <ele>856.9</ele>
        <time>2015-09-24T08:41:45Z</time>
      </trkpt>
      <trkpt lat="42.28193" lon="0.05945">
        <ele>856.7</ele>
        <time>2015-09-24T08:41:47Z</time>
      </trkpt>
      <trkpt lat="42.28193" lon="0.05949">
        <ele>856.8</ele>
        <time>2015-09-24T08:42:01Z</time>
      </trkpt>
      <trkpt lat="42.28192" lon="0.05952">
        <ele>856.7</ele>
        <time>2015-09-24T08:42:13Z</time>
      </trkpt>
      <trkpt lat="42.28189" lon="0.05952">
        <ele>856.4</ele>
        <time>2015-09-24T08:42:17Z</time>
      </trkpt>
      <trkpt lat="42.28186" lon="0.05953">
        <ele>856.1</ele>
        <time>2015-09-24T08:42:18Z</time>
      </trkpt>
      <trkpt lat="42.28182" lon="0.05954">
        <ele>855.7</ele>
        <time>2015-09-24T08:42:19Z</time>
      </trkpt>
      <trkpt lat="42.28179" lon="0.05956">
        <ele>855.4</ele>
        <time>2015-09-24T08:42:20Z</time>
      </trkpt>
      <trkpt lat="42.28175" lon="0.05959">
        <ele>855.1</ele>
        <time>2015-09-24T08:42:21Z</time>
      </trkpt>
      <trkpt lat="42.28172" lon="0.05962">
        <ele>854.8</ele>
        <time>2015-09-24T08:42:22Z</time>
      </trkpt>
      <trkpt lat="42.28169" lon="0.05966">
        <ele>854.7</ele>
        <time>2015-09-24T08:42:23Z</time>
      </trkpt>
      <trkpt lat="42.28167" lon="0.05971">
        <ele>854.8</ele>
        <time>2015-09-24T08:42:24Z</time>
      </trkpt>
      <trkpt lat="42.28166" lon="0.05976">
        <ele>855</ele>
        <time>2015-09-24T08:42:25Z</time>
      </trkpt>
      <trkpt lat="42.28165" lon="0.0598">
        <ele>855.1</ele>
        <time>2015-09-24T08:42:26Z</time>
      </trkpt>
      <trkpt lat="42.28162" lon="0.05984">
        <ele>855.1</ele>
        <time>2015-09-24T08:42:27Z</time>
      </trkpt>
      <trkpt lat="42.28158" lon="0.05987">
        <ele>854.8</ele>
        <time>2015-09-24T08:42:28Z</time>
      </trkpt>
      <trkpt lat="42.28154" lon="0.05988">
        <ele>854.5</ele>
        <time>2015-09-24T08:42:29Z</time>
      </trkpt>
      <trkpt lat="42.2815" lon="0.0599">
        <ele>854.3</ele>
        <time>2015-09-24T08:42:30Z</time>
      </trkpt>
      <trkpt lat="42.28147" lon="0.05994">
        <ele>854.1</ele>
        <time>2015-09-24T08:42:31Z</time>
      </trkpt>
      <trkpt lat="42.28143" lon="0.05997">
        <ele>854</ele>
        <time>2015-09-24T08:42:32Z</time>
      </trkpt>
      <trkpt lat="42.28139" lon="0.06">
        <ele>853.9</ele>
        <time>2015-09-24T08:42:33Z</time>
      </trkpt>
      <trkpt lat="42.28135" lon="0.06002">
        <ele>853.7</ele>
        <time>2015-09-24T08:42:34Z</time>
      </trkpt>
      <trkpt lat="42.28131" lon="0.06004">
        <ele>853.4</ele>
        <time>2015-09-24T08:42:35Z</time>
      </trkpt>
      <trkpt lat="42.28127" lon="0.06006">
        <ele>853.2</ele>
        <time>2015-09-24T08:42:36Z</time>
      </trkpt>
      <trkpt lat="42.28123" lon="0.06008">
        <ele>853.1</ele>
        <time>2015-09-24T08:42:37Z</time>
      </trkpt>
      <trkpt lat="42.28119" lon="0.06009">
        <ele>853.1</ele>
        <time>2015-09-24T08:42:38Z</time>
      </trkpt>
      <trkpt lat="42.28114" lon="0.0601">
        <ele>853</ele>
        <time>2015-09-24T08:42:39Z</time>
      </trkpt>
      <trkpt lat="42.2811" lon="0.06009">
        <ele>852.8</ele>
        <time>2015-09-24T08:42:40Z</time>
      </trkpt>
      <trkpt lat="42.28105" lon="0.06009">
        <ele>852.7</ele>
        <time>2015-09-24T08:42:41Z</time>
      </trkpt>
      <trkpt lat="42.28101" lon="0.06008">
        <ele>852.5</ele>
        <time>2015-09-24T08:42:42Z</time>
      </trkpt>
      <trkpt lat="42.28097" lon="0.0601">
        <ele>852.6</ele>
        <time>2015-09-24T08:42:43Z</time>
      </trkpt>
      <trkpt lat="42.28095" lon="0.0601">
        <ele>852.4</ele>
        <time>2015-09-24T08:42:44Z</time>
      </trkpt>
      <trkpt lat="42.28091" lon="0.06008">
        <ele>852.2</ele>
        <time>2015-09-24T08:42:45Z</time>
      </trkpt>
      <trkpt lat="42.28088" lon="0.06006">
        <ele>851.9</ele>
        <time>2015-09-24T08:42:46Z</time>
      </trkpt>
      <trkpt lat="42.28084" lon="0.06005">
        <ele>851.7</ele>
        <time>2015-09-24T08:42:47Z</time>
      </trkpt>
      <trkpt lat="42.28081" lon="0.06003">
        <ele>851.5</ele>
        <time>2015-09-24T08:42:48Z</time>
      </trkpt>
      <trkpt lat="42.28078" lon="0.06001">
        <ele>851.2</ele>
        <time>2015-09-24T08:42:49Z</time>
      </trkpt>
      <trkpt lat="42.28077" lon="0.05997">
        <ele>850.7</ele>
        <time>2015-09-24T08:42:51Z</time>
      </trkpt>
      <trkpt lat="42.28077" lon="0.05993">
        <ele>850.4</ele>
        <time>2015-09-24T08:42:52Z</time>
      </trkpt>
      <trkpt lat="42.28076" lon="0.05989">
        <ele>850</ele>
        <time>2015-09-24T08:42:53Z</time>
      </trkpt>
      <trkpt lat="42.28075" lon="0.05985">
        <ele>849.6</ele>
        <time>2015-09-24T08:42:54Z</time>
      </trkpt>
      <trkpt lat="42.28073" lon="0.0598">
        <ele>849.1</ele>
        <time>2015-09-24T08:42:55Z</time>
      </trkpt>
      <trkpt lat="42.28072" lon="0.05976">
        <ele>848.7</ele>
        <time>2015-09-24T08:42:56Z</time>
      </trkpt>
      <trkpt lat="42.28067" lon="0.05972">
        <ele>848.2</ele>
        <time>2015-09-24T08:42:57Z</time>
      </trkpt>
      <trkpt lat="42.28063" lon="0.05969">
        <ele>847.7</ele>
        <time>2015-09-24T08:42:58Z</time>
      </trkpt>
      <trkpt lat="42.2806" lon="0.05965">
        <ele>847.2</ele>
        <time>2015-09-24T08:42:59Z</time>
      </trkpt>
      <trkpt lat="42.28057" lon="0.0596">
        <ele>846.7</ele>
        <time>2015-09-24T08:43:00Z</time>
      </trkpt>
      <trkpt lat="42.28056" lon="0.05955">
        <ele>846.2</ele>
        <time>2015-09-24T08:43:01Z</time>
      </trkpt>
      <trkpt lat="42.28054" lon="0.0595">
        <ele>845.6</ele>
        <time>2015-09-24T08:43:02Z</time>
      </trkpt>
      <trkpt lat="42.28054" lon="0.05944">
        <ele>845</ele>
        <time>2015-09-24T08:43:04Z</time>
      </trkpt>
      <trkpt lat="42.28049" lon="0.05941">
        <ele>844.5</ele>
        <time>2015-09-24T08:43:06Z</time>
      </trkpt>
      <trkpt lat="42.28046" lon="0.0594">
        <ele>844.3</ele>
        <time>2015-09-24T08:43:07Z</time>
      </trkpt>
      <trkpt lat="42.28044" lon="0.05939">
        <ele>844</ele>
        <time>2015-09-24T08:43:08Z</time>
      </trkpt>
      <trkpt lat="42.28042" lon="0.05936">
        <ele>843.6</ele>
        <time>2015-09-24T08:43:09Z</time>
      </trkpt>
      <trkpt lat="42.28041" lon="0.05932">
        <ele>843.1</ele>
        <time>2015-09-24T08:43:10Z</time>
      </trkpt>
      <trkpt lat="42.2804" lon="0.05928">
        <ele>842.6</ele>
        <time>2015-09-24T08:43:11Z</time>
      </trkpt>
      <trkpt lat="42.28039" lon="0.05924">
        <ele>842.1</ele>
        <time>2015-09-24T08:43:12Z</time>
      </trkpt>
      <trkpt lat="42.28038" lon="0.0592">
        <ele>841.5</ele>
        <time>2015-09-24T08:43:13Z</time>
      </trkpt>
      <trkpt lat="42.28036" lon="0.05916">
        <ele>841</ele>
        <time>2015-09-24T08:43:14Z</time>
      </trkpt>
      <trkpt lat="42.28034" lon="0.05912">
        <ele>840.4</ele>
        <time>2015-09-24T08:43:15Z</time>
      </trkpt>
      <trkpt lat="42.28031" lon="0.05908">
        <ele>839.8</ele>
        <time>2015-09-24T08:43:16Z</time>
      </trkpt>
      <trkpt lat="42.28028" lon="0.05903">
        <ele>839.1</ele>
        <time>2015-09-24T08:43:17Z</time>
      </trkpt>
      <trkpt lat="42.28026" lon="0.05899">
        <ele>838.4</ele>
        <time>2015-09-24T08:43:18Z</time>
      </trkpt>
      <trkpt lat="42.28023" lon="0.05894">
        <ele>837.7</ele>
        <time>2015-09-24T08:43:19Z</time>
      </trkpt>
      <trkpt lat="42.28019" lon="0.0589">
        <ele>837</ele>
        <time>2015-09-24T08:43:20Z</time>
      </trkpt>
      <trkpt lat="42.28016" lon="0.05886">
        <ele>836.4</ele>
        <time>2015-09-24T08:43:21Z</time>
      </trkpt>
      <trkpt lat="42.28013" lon="0.05883">
        <ele>835.8</ele>
        <time>2015-09-24T08:43:22Z</time>
      </trkpt>
      <trkpt lat="42.2801" lon="0.05879">
        <ele>835.2</ele>
        <time>2015-09-24T08:43:23Z</time>
      </trkpt>
      <trkpt lat="42.28007" lon="0.05876">
        <ele>834.6</ele>
        <time>2015-09-24T08:43:24Z</time>
      </trkpt>
      <trkpt lat="42.28004" lon="0.05873">
        <ele>834.5</ele>
        <time>2015-09-24T08:43:25Z</time>
      </trkpt>
      <trkpt lat="42.28" lon="0.05871">
        <ele>834.4</ele>
        <time>2015-09-24T08:43:26Z</time>
      </trkpt>
      <trkpt lat="42.27997" lon="0.05869">
        <ele>834.5</ele>
        <time>2015-09-24T08:43:27Z</time>
      </trkpt>
      <trkpt lat="42.27993" lon="0.05866">
        <ele>834.5</ele>
        <time>2015-09-24T08:43:28Z</time>
      </trkpt>
      <trkpt lat="42.2799" lon="0.05863">
        <ele>834.6</ele>
        <time>2015-09-24T08:43:29Z</time>
      </trkpt>
      <trkpt lat="42.27987" lon="0.05861">
        <ele>834.7</ele>
        <time>2015-09-24T08:43:30Z</time>
      </trkpt>
      <trkpt lat="42.27983" lon="0.0586">
        <ele>834.5</ele>
        <time>2015-09-24T08:43:31Z</time>
      </trkpt>
      <trkpt lat="42.27979" lon="0.05859">
        <ele>834.3</ele>
        <time>2015-09-24T08:43:32Z</time>
      </trkpt>
      <trkpt lat="42.27973" lon="0.05861">
        <ele>833.8</ele>
        <time>2015-09-24T08:43:33Z</time>
      </trkpt>
      <trkpt lat="42.27968" lon="0.05861">
        <ele>833.3</ele>
        <time>2015-09-24T08:43:34Z</time>
      </trkpt>
      <trkpt lat="42.27963" lon="0.05861">
        <ele>833</ele>
        <time>2015-09-24T08:43:35Z</time>
      </trkpt>
      <trkpt lat="42.27959" lon="0.05861">
        <ele>832.8</ele>
        <time>2015-09-24T08:43:36Z</time>
      </trkpt>
      <trkpt lat="42.27955" lon="0.05861">
        <ele>832.4</ele>
        <time>2015-09-24T08:43:37Z</time>
      </trkpt>
      <trkpt lat="42.2795" lon="0.05862">
        <ele>831.8</ele>
        <time>2015-09-24T08:43:38Z</time>
      </trkpt>
      <trkpt lat="42.27946" lon="0.05863">
        <ele>831.3</ele>
        <time>2015-09-24T08:43:39Z</time>
      </trkpt>
      <trkpt lat="42.27941" lon="0.05863">
        <ele>831</ele>
        <time>2015-09-24T08:43:40Z</time>
      </trkpt>
      <trkpt lat="42.27937" lon="0.05862">
        <ele>830.8</ele>
        <time>2015-09-24T08:43:41Z</time>
      </trkpt>
      <trkpt lat="42.27934" lon="0.0586">
        <ele>830.7</ele>
        <time>2015-09-24T08:43:42Z</time>
      </trkpt>
      <trkpt lat="42.2793" lon="0.05858">
        <ele>830.6</ele>
        <time>2015-09-24T08:43:43Z</time>
      </trkpt>
      <trkpt lat="42.27927" lon="0.05857">
        <ele>830.5</ele>
        <time>2015-09-24T08:43:44Z</time>
      </trkpt>
      <trkpt lat="42.27924" lon="0.05857">
        <ele>830.2</ele>
        <time>2015-09-24T08:43:45Z</time>
      </trkpt>
      <trkpt lat="42.27921" lon="0.05857">
        <ele>830</ele>
        <time>2015-09-24T08:43:46Z</time>
      </trkpt>
      <trkpt lat="42.27918" lon="0.05856">
        <ele>829.8</ele>
        <time>2015-09-24T08:43:47Z</time>
      </trkpt>
      <trkpt lat="42.27914" lon="0.05856">
        <ele>829.5</ele>
        <time>2015-09-24T08:43:48Z</time>
      </trkpt>
      <trkpt lat="42.27911" lon="0.05855">
        <ele>829.3</ele>
        <time>2015-09-24T08:43:49Z</time>
      </trkpt>
      <trkpt lat="42.27908" lon="0.05855">
        <ele>829.1</ele>
        <time>2015-09-24T08:43:50Z</time>
      </trkpt>
      <trkpt lat="42.27905" lon="0.05854">
        <ele>828.9</ele>
        <time>2015-09-24T08:43:51Z</time>
      </trkpt>
      <trkpt lat="42.27902" lon="0.05851">
        <ele>828.9</ele>
        <time>2015-09-24T08:43:52Z</time>
      </trkpt>
      <trkpt lat="42.27899" lon="0.05849">
        <ele>828.9</ele>
        <time>2015-09-24T08:43:53Z</time>
      </trkpt>
      <trkpt lat="42.27897" lon="0.05847">
        <ele>828.9</ele>
        <time>2015-09-24T08:43:54Z</time>
      </trkpt>
      <trkpt lat="42.27893" lon="0.05845">
        <ele>828.8</ele>
        <time>2015-09-24T08:43:55Z</time>
      </trkpt>
      <trkpt lat="42.2789" lon="0.05844">
        <ele>828.7</ele>
        <time>2015-09-24T08:43:56Z</time>
      </trkpt>
      <trkpt lat="42.27887" lon="0.05842">
        <ele>828.7</ele>
        <time>2015-09-24T08:43:57Z</time>
      </trkpt>
      <trkpt lat="42.27884" lon="0.0584">
        <ele>828.6</ele>
        <time>2015-09-24T08:43:58Z</time>
      </trkpt>
      <trkpt lat="42.27881" lon="0.05838">
        <ele>828.5</ele>
        <time>2015-09-24T08:43:59Z</time>
      </trkpt>
      <trkpt lat="42.27878" lon="0.05837">
        <ele>828.3</ele>
        <time>2015-09-24T08:44:00Z</time>
      </trkpt>
      <trkpt lat="42.27875" lon="0.05841">
        <ele>827.7</ele>
        <time>2015-09-24T08:44:02Z</time>
      </trkpt>
      <trkpt lat="42.27872" lon="0.05845">
        <ele>827.1</ele>
        <time>2015-09-24T08:44:04Z</time>
      </trkpt>
      <trkpt lat="42.27869" lon="0.05846">
        <ele>826.7</ele>
        <time>2015-09-24T08:44:06Z</time>
      </trkpt>
      <trkpt lat="42.27865" lon="0.05844">
        <ele>826.7</ele>
        <time>2015-09-24T08:44:08Z</time>
      </trkpt>
      <trkpt lat="42.27863" lon="0.05842">
        <ele>826.8</ele>
        <time>2015-09-24T08:44:10Z</time>
      </trkpt>
      <trkpt lat="42.27859" lon="0.0584">
        <ele>826.8</ele>
        <time>2015-09-24T08:44:12Z</time>
      </trkpt>
      <trkpt lat="42.27856" lon="0.05838">
        <ele>826.9</ele>
        <time>2015-09-24T08:44:14Z</time>
      </trkpt>
      <trkpt lat="42.27854" lon="0.05835">
        <ele>827.2</ele>
        <time>2015-09-24T08:44:15Z</time>
      </trkpt>
      <trkpt lat="42.27851" lon="0.05829">
        <ele>827.8</ele>
        <time>2015-09-24T08:44:17Z</time>
      </trkpt>
      <trkpt lat="42.27849" lon="0.05827">
        <ele>827.9</ele>
        <time>2015-09-24T08:44:18Z</time>
      </trkpt>
      <trkpt lat="42.27846" lon="0.05826">
        <ele>828</ele>
        <time>2015-09-24T08:44:19Z</time>
      </trkpt>
      <trkpt lat="42.27843" lon="0.05824">
        <ele>828.1</ele>
        <time>2015-09-24T08:44:20Z</time>
      </trkpt>
      <trkpt lat="42.2784" lon="0.05822">
        <ele>828.3</ele>
        <time>2015-09-24T08:44:21Z</time>
      </trkpt>
      <trkpt lat="42.27838" lon="0.05819">
        <ele>828.5</ele>
        <time>2015-09-24T08:44:22Z</time>
      </trkpt>
      <trkpt lat="42.27836" lon="0.05817">
        <ele>828.9</ele>
        <time>2015-09-24T08:44:23Z</time>
      </trkpt>
      <trkpt lat="42.27833" lon="0.05811">
        <ele>829.5</ele>
        <time>2015-09-24T08:44:25Z</time>
      </trkpt>
      <trkpt lat="42.27828" lon="0.05807">
        <ele>830</ele>
        <time>2015-09-24T08:44:27Z</time>
      </trkpt>
      <trkpt lat="42.27825" lon="0.05807">
        <ele>830</ele>
        <time>2015-09-24T08:44:28Z</time>
      </trkpt>
      <trkpt lat="42.27823" lon="0.05806">
        <ele>830.1</ele>
        <time>2015-09-24T08:44:29Z</time>
      </trkpt>
      <trkpt lat="42.27818" lon="0.05803">
        <ele>830.4</ele>
        <time>2015-09-24T08:44:31Z</time>
      </trkpt>
      <trkpt lat="42.27814" lon="0.05801">
        <ele>830.7</ele>
        <time>2015-09-24T08:44:33Z</time>
      </trkpt>
      <trkpt lat="42.2781" lon="0.05799">
        <ele>830.9</ele>
        <time>2015-09-24T08:44:35Z</time>
      </trkpt>
      <trkpt lat="42.27806" lon="0.05797">
        <ele>831.3</ele>
        <time>2015-09-24T08:44:37Z</time>
      </trkpt>
      <trkpt lat="42.27803" lon="0.05795">
        <ele>831.6</ele>
        <time>2015-09-24T08:44:39Z</time>
      </trkpt>
      <trkpt lat="42.27799" lon="0.05793">
        <ele>831.9</ele>
        <time>2015-09-24T08:44:42Z</time>
      </trkpt>
      <trkpt lat="42.27796" lon="0.05793">
        <ele>831.9</ele>
        <time>2015-09-24T08:44:44Z</time>
      </trkpt>
      <trkpt lat="42.27792" lon="0.05793">
        <ele>831.8</ele>
        <time>2015-09-24T08:44:46Z</time>
      </trkpt>
      <trkpt lat="42.27787" lon="0.05794">
        <ele>831.6</ele>
        <time>2015-09-24T08:44:48Z</time>
      </trkpt>
      <trkpt lat="42.27782" lon="0.05796">
        <ele>831.2</ele>
        <time>2015-09-24T08:44:50Z</time>
      </trkpt>
      <trkpt lat="42.27779" lon="0.05796">
        <ele>831</ele>
        <time>2015-09-24T08:44:51Z</time>
      </trkpt>
      <trkpt lat="42.27774" lon="0.05796">
        <ele>831.1</ele>
        <time>2015-09-24T08:44:53Z</time>
      </trkpt>
      <trkpt lat="42.27769" lon="0.05797">
        <ele>830.8</ele>
        <time>2015-09-24T08:44:55Z</time>
      </trkpt>
      <trkpt lat="42.27765" lon="0.05799">
        <ele>830.4</ele>
        <time>2015-09-24T08:44:57Z</time>
      </trkpt>
      <trkpt lat="42.2776" lon="0.05799">
        <ele>830.4</ele>
        <time>2015-09-24T08:44:59Z</time>
      </trkpt>
      <trkpt lat="42.27756" lon="0.05799">
        <ele>830.5</ele>
        <time>2015-09-24T08:45:01Z</time>
      </trkpt>
      <trkpt lat="42.27751" lon="0.05798">
        <ele>830.6</ele>
        <time>2015-09-24T08:45:03Z</time>
      </trkpt>
      <trkpt lat="42.27746" lon="0.05799">
        <ele>830.4</ele>
        <time>2015-09-24T08:45:05Z</time>
      </trkpt>
      <trkpt lat="42.27743" lon="0.058">
        <ele>830.2</ele>
        <time>2015-09-24T08:45:06Z</time>
      </trkpt>
      <trkpt lat="42.2774" lon="0.05801">
        <ele>830</ele>
        <time>2015-09-24T08:45:07Z</time>
      </trkpt>
      <trkpt lat="42.27736" lon="0.05801">
        <ele>829.8</ele>
        <time>2015-09-24T08:45:08Z</time>
      </trkpt>
      <trkpt lat="42.27732" lon="0.05802">
        <ele>829.6</ele>
        <time>2015-09-24T08:45:09Z</time>
      </trkpt>
      <trkpt lat="42.27728" lon="0.05803">
        <ele>829.4</ele>
        <time>2015-09-24T08:45:10Z</time>
      </trkpt>
      <trkpt lat="42.27723" lon="0.05804">
        <ele>829.1</ele>
        <time>2015-09-24T08:45:11Z</time>
      </trkpt>
      <trkpt lat="42.27719" lon="0.05804">
        <ele>829</ele>
        <time>2015-09-24T08:45:12Z</time>
      </trkpt>
      <trkpt lat="42.27715" lon="0.05804">
        <ele>829</ele>
        <time>2015-09-24T08:45:13Z</time>
      </trkpt>
      <trkpt lat="42.27711" lon="0.05803">
        <ele>829.2</ele>
        <time>2015-09-24T08:45:14Z</time>
      </trkpt>
      <trkpt lat="42.27708" lon="0.05802">
        <ele>829.4</ele>
        <time>2015-09-24T08:45:15Z</time>
      </trkpt>
      <trkpt lat="42.27706" lon="0.05801">
        <ele>829.4</ele>
        <time>2015-09-24T08:45:16Z</time>
      </trkpt>
      <trkpt lat="42.27703" lon="0.058">
        <ele>829.3</ele>
        <time>2015-09-24T08:45:17Z</time>
      </trkpt>
      <trkpt lat="42.277" lon="0.05799">
        <ele>829.3</ele>
        <time>2015-09-24T08:45:18Z</time>
      </trkpt>
      <trkpt lat="42.27696" lon="0.05798">
        <ele>829.2</ele>
        <time>2015-09-24T08:45:20Z</time>
      </trkpt>
      <trkpt lat="42.27692" lon="0.05798">
        <ele>828.7</ele>
        <time>2015-09-24T08:45:22Z</time>
      </trkpt>
      <trkpt lat="42.27687" lon="0.05798">
        <ele>828.2</ele>
        <time>2015-09-24T08:45:24Z</time>
      </trkpt>
      <trkpt lat="42.27682" lon="0.05798">
        <ele>827.9</ele>
        <time>2015-09-24T08:45:26Z</time>
      </trkpt>
      <trkpt lat="42.2768" lon="0.05797">
        <ele>827.8</ele>
        <time>2015-09-24T08:45:38Z</time>
      </trkpt>
      <trkpt lat="42.27677" lon="0.05798">
        <ele>827.3</ele>
        <time>2015-09-24T08:45:54Z</time>
      </trkpt>
      <trkpt lat="42.27674" lon="0.05798">
        <ele>827</ele>
        <time>2015-09-24T08:45:57Z</time>
      </trkpt>
      <trkpt lat="42.27671" lon="0.05797">
        <ele>826.9</ele>
        <time>2015-09-24T08:46:00Z</time>
      </trkpt>
      <trkpt lat="42.27668" lon="0.05796">
        <ele>826.9</ele>
        <time>2015-09-24T08:46:05Z</time>
      </trkpt>
      <trkpt lat="42.27665" lon="0.05795">
        <ele>826.7</ele>
        <time>2015-09-24T08:46:10Z</time>
      </trkpt>
      <trkpt lat="42.27661" lon="0.05795">
        <ele>826.3</ele>
        <time>2015-09-24T08:46:18Z</time>
      </trkpt>
      <trkpt lat="42.27658" lon="0.05796">
        <ele>825.8</ele>
        <time>2015-09-24T08:46:20Z</time>
      </trkpt>
      <trkpt lat="42.27653" lon="0.05797">
        <ele>825.2</ele>
        <time>2015-09-24T08:46:22Z</time>
      </trkpt>
      <trkpt lat="42.27651" lon="0.05798">
        <ele>824.7</ele>
        <time>2015-09-24T08:46:23Z</time>
      </trkpt>
      <trkpt lat="42.27646" lon="0.05801">
        <ele>823.8</ele>
        <time>2015-09-24T08:46:25Z</time>
      </trkpt>
      <trkpt lat="42.27641" lon="0.05804">
        <ele>822.8</ele>
        <time>2015-09-24T08:46:27Z</time>
      </trkpt>
      <trkpt lat="42.27639" lon="0.05806">
        <ele>822.3</ele>
        <time>2015-09-24T08:46:28Z</time>
      </trkpt>
      <trkpt lat="42.27636" lon="0.05808">
        <ele>821.7</ele>
        <time>2015-09-24T08:46:29Z</time>
      </trkpt>
      <trkpt lat="42.27632" lon="0.05809">
        <ele>821.3</ele>
        <time>2015-09-24T08:46:30Z</time>
      </trkpt>
      <trkpt lat="42.27629" lon="0.05809">
        <ele>821.1</ele>
        <time>2015-09-24T08:46:31Z</time>
      </trkpt>
      <trkpt lat="42.27626" lon="0.05807">
        <ele>821.1</ele>
        <time>2015-09-24T08:46:32Z</time>
      </trkpt>
      <trkpt lat="42.27623" lon="0.05805">
        <ele>821</ele>
        <time>2015-09-24T08:46:33Z</time>
      </trkpt>
      <trkpt lat="42.2762" lon="0.05805">
        <ele>820.8</ele>
        <time>2015-09-24T08:46:34Z</time>
      </trkpt>
      <trkpt lat="42.27617" lon="0.05807">
        <ele>820.4</ele>
        <time>2015-09-24T08:46:35Z</time>
      </trkpt>
      <trkpt lat="42.27615" lon="0.05808">
        <ele>820</ele>
        <time>2015-09-24T08:46:36Z</time>
      </trkpt>
      <trkpt lat="42.27611" lon="0.05808">
        <ele>819.7</ele>
        <time>2015-09-24T08:46:37Z</time>
      </trkpt>
      <trkpt lat="42.27608" lon="0.05808">
        <ele>819.4</ele>
        <time>2015-09-24T08:46:38Z</time>
      </trkpt>
      <trkpt lat="42.27604" lon="0.05809">
        <ele>818.9</ele>
        <time>2015-09-24T08:46:39Z</time>
      </trkpt>
      <trkpt lat="42.276" lon="0.0581">
        <ele>818.5</ele>
        <time>2015-09-24T08:46:40Z</time>
      </trkpt>
      <trkpt lat="42.27596" lon="0.05812">
        <ele>817.9</ele>
        <time>2015-09-24T08:46:41Z</time>
      </trkpt>
      <trkpt lat="42.27593" lon="0.05813">
        <ele>817.5</ele>
        <time>2015-09-24T08:46:42Z</time>
      </trkpt>
      <trkpt lat="42.2759" lon="0.05813">
        <ele>817.2</ele>
        <time>2015-09-24T08:46:43Z</time>
      </trkpt>
      <trkpt lat="42.27585" lon="0.05811">
        <ele>817.1</ele>
        <time>2015-09-24T08:46:45Z</time>
      </trkpt>
      <trkpt lat="42.2758" lon="0.05808">
        <ele>816.9</ele>
        <time>2015-09-24T08:46:47Z</time>
      </trkpt>
      <trkpt lat="42.27578" lon="0.05806">
        <ele>816.9</ele>
        <time>2015-09-24T08:46:48Z</time>
      </trkpt>
      <trkpt lat="42.27576" lon="0.05804">
        <ele>817</ele>
        <time>2015-09-24T08:46:49Z</time>
      </trkpt>
      <trkpt lat="42.27571" lon="0.058">
        <ele>817.1</ele>
        <time>2015-09-24T08:46:51Z</time>
      </trkpt>
      <trkpt lat="42.27569" lon="0.058">
        <ele>816.8</ele>
        <time>2015-09-24T08:46:52Z</time>
      </trkpt>
      <trkpt lat="42.27566" lon="0.05801">
        <ele>816.4</ele>
        <time>2015-09-24T08:46:53Z</time>
      </trkpt>
      <trkpt lat="42.27563" lon="0.05802">
        <ele>816.1</ele>
        <time>2015-09-24T08:46:54Z</time>
      </trkpt>
      <trkpt lat="42.2756" lon="0.05803">
        <ele>815.8</ele>
        <time>2015-09-24T08:46:55Z</time>
      </trkpt>
      <trkpt lat="42.27556" lon="0.058">
        <ele>815.6</ele>
        <time>2015-09-24T08:46:57Z</time>
      </trkpt>
      <trkpt lat="42.27551" lon="0.05798">
        <ele>815.3</ele>
        <time>2015-09-24T08:46:59Z</time>
      </trkpt>
      <trkpt lat="42.27548" lon="0.05796">
        <ele>815.2</ele>
        <time>2015-09-24T08:47:00Z</time>
      </trkpt>
      <trkpt lat="42.27544" lon="0.05794">
        <ele>815</ele>
        <time>2015-09-24T08:47:01Z</time>
      </trkpt>
      <trkpt lat="42.27542" lon="0.05793">
        <ele>814.9</ele>
        <time>2015-09-24T08:47:02Z</time>
      </trkpt>
      <trkpt lat="42.27539" lon="0.05791">
        <ele>814.7</ele>
        <time>2015-09-24T08:47:03Z</time>
      </trkpt>
      <trkpt lat="42.27535" lon="0.05789">
        <ele>814.4</ele>
        <time>2015-09-24T08:47:05Z</time>
      </trkpt>
      <trkpt lat="42.27531" lon="0.05791">
        <ele>813.8</ele>
        <time>2015-09-24T08:47:07Z</time>
      </trkpt>
      <trkpt lat="42.27528" lon="0.05793">
        <ele>813.4</ele>
        <time>2015-09-24T08:47:08Z</time>
      </trkpt>
      <trkpt lat="42.27525" lon="0.05796">
        <ele>812.8</ele>
        <time>2015-09-24T08:47:09Z</time>
      </trkpt>
      <trkpt lat="42.27523" lon="0.05799">
        <ele>812.3</ele>
        <time>2015-09-24T08:47:10Z</time>
      </trkpt>
      <trkpt lat="42.27519" lon="0.05801">
        <ele>811.8</ele>
        <time>2015-09-24T08:47:11Z</time>
      </trkpt>
      <trkpt lat="42.27516" lon="0.05803">
        <ele>811.3</ele>
        <time>2015-09-24T08:47:12Z</time>
      </trkpt>
      <trkpt lat="42.27514" lon="0.05805">
        <ele>810.8</ele>
        <time>2015-09-24T08:47:13Z</time>
      </trkpt>
      <trkpt lat="42.27511" lon="0.05807">
        <ele>810.3</ele>
        <time>2015-09-24T08:47:14Z</time>
      </trkpt>
      <trkpt lat="42.2751" lon="0.05812">
        <ele>809.8</ele>
        <time>2015-09-24T08:47:15Z</time>
      </trkpt>
      <trkpt lat="42.27509" lon="0.05817">
        <ele>809.2</ele>
        <time>2015-09-24T08:47:16Z</time>
      </trkpt>
      <trkpt lat="42.27507" lon="0.05821">
        <ele>808.7</ele>
        <time>2015-09-24T08:47:17Z</time>
      </trkpt>
      <trkpt lat="42.27505" lon="0.05824">
        <ele>808.2</ele>
        <time>2015-09-24T08:47:18Z</time>
      </trkpt>
      <trkpt lat="42.27503" lon="0.05828">
        <ele>807.6</ele>
        <time>2015-09-24T08:47:19Z</time>
      </trkpt>
      <trkpt lat="42.27501" lon="0.0583">
        <ele>807.1</ele>
        <time>2015-09-24T08:47:20Z</time>
      </trkpt>
      <trkpt lat="42.27497" lon="0.05833">
        <ele>806.5</ele>
        <time>2015-09-24T08:47:22Z</time>
      </trkpt>
      <trkpt lat="42.27494" lon="0.05836">
        <ele>805.8</ele>
        <time>2015-09-24T08:47:24Z</time>
      </trkpt>
      <trkpt lat="42.2749" lon="0.05837">
        <ele>805.2</ele>
        <time>2015-09-24T08:47:26Z</time>
      </trkpt>
      <trkpt lat="42.27485" lon="0.05839">
        <ele>804.5</ele>
        <time>2015-09-24T08:47:28Z</time>
      </trkpt>
      <trkpt lat="42.27481" lon="0.05843">
        <ele>803.7</ele>
        <time>2015-09-24T08:47:30Z</time>
      </trkpt>
      <trkpt lat="42.27478" lon="0.05845">
        <ele>803.2</ele>
        <time>2015-09-24T08:47:31Z</time>
      </trkpt>
      <trkpt lat="42.27474" lon="0.05848">
        <ele>802.4</ele>
        <time>2015-09-24T08:47:32Z</time>
      </trkpt>
      <trkpt lat="42.27467" lon="0.0585">
        <ele>801.4</ele>
        <time>2015-09-24T08:47:33Z</time>
      </trkpt>
      <trkpt lat="42.27463" lon="0.05852">
        <ele>800.8</ele>
        <time>2015-09-24T08:47:34Z</time>
      </trkpt>
      <trkpt lat="42.27459" lon="0.05852">
        <ele>800.3</ele>
        <time>2015-09-24T08:47:35Z</time>
      </trkpt>
      <trkpt lat="42.27456" lon="0.05852">
        <ele>799.8</ele>
        <time>2015-09-24T08:47:36Z</time>
      </trkpt>
      <trkpt lat="42.27452" lon="0.05853">
        <ele>799.3</ele>
        <time>2015-09-24T08:47:37Z</time>
      </trkpt>
      <trkpt lat="42.27449" lon="0.05854">
        <ele>798.7</ele>
        <time>2015-09-24T08:47:38Z</time>
      </trkpt>
      <trkpt lat="42.27445" lon="0.05855">
        <ele>798.1</ele>
        <time>2015-09-24T08:47:39Z</time>
      </trkpt>
      <trkpt lat="42.27441" lon="0.05854">
        <ele>797.7</ele>
        <time>2015-09-24T08:47:40Z</time>
      </trkpt>
      <trkpt lat="42.27438" lon="0.05853">
        <ele>797.3</ele>
        <time>2015-09-24T08:47:41Z</time>
      </trkpt>
      <trkpt lat="42.27434" lon="0.05852">
        <ele>796.9</ele>
        <time>2015-09-24T08:47:42Z</time>
      </trkpt>
      <trkpt lat="42.2743" lon="0.05852">
        <ele>796.3</ele>
        <time>2015-09-24T08:47:44Z</time>
      </trkpt>
      <trkpt lat="42.27426" lon="0.05852">
        <ele>795.9</ele>
        <time>2015-09-24T08:47:46Z</time>
      </trkpt>
      <trkpt lat="42.27422" lon="0.05852">
        <ele>795.3</ele>
        <time>2015-09-24T08:47:48Z</time>
      </trkpt>
      <trkpt lat="42.27417" lon="0.05851">
        <ele>794.7</ele>
        <time>2015-09-24T08:47:50Z</time>
      </trkpt>
      <trkpt lat="42.27414" lon="0.05851">
        <ele>794.3</ele>
        <time>2015-09-24T08:47:52Z</time>
      </trkpt>
      <trkpt lat="42.27417" lon="0.05851">
        <ele>794.6</ele>
        <time>2015-09-24T08:47:55Z</time>
      </trkpt>
      <trkpt lat="42.27413" lon="0.05851">
        <ele>794.2</ele>
        <time>2015-09-24T08:48:22Z</time>
      </trkpt>
      <trkpt lat="42.2741" lon="0.05854">
        <ele>793.4</ele>
        <time>2015-09-24T08:48:24Z</time>
      </trkpt>
      <trkpt lat="42.27406" lon="0.0586">
        <ele>792.5</ele>
        <time>2015-09-24T08:48:26Z</time>
      </trkpt>
      <trkpt lat="42.27404" lon="0.05863">
        <ele>791.9</ele>
        <time>2015-09-24T08:48:27Z</time>
      </trkpt>
      <trkpt lat="42.27402" lon="0.05866">
        <ele>791.3</ele>
        <time>2015-09-24T08:48:28Z</time>
      </trkpt>
      <trkpt lat="42.27399" lon="0.05869">
        <ele>790.7</ele>
        <time>2015-09-24T08:48:29Z</time>
      </trkpt>
      <trkpt lat="42.27397" lon="0.05872">
        <ele>790.2</ele>
        <time>2015-09-24T08:48:30Z</time>
      </trkpt>
      <trkpt lat="42.27394" lon="0.05875">
        <ele>789.6</ele>
        <time>2015-09-24T08:48:31Z</time>
      </trkpt>
      <trkpt lat="42.27392" lon="0.05877">
        <ele>788.8</ele>
        <time>2015-09-24T08:48:32Z</time>
      </trkpt>
      <trkpt lat="42.27389" lon="0.05879">
        <ele>787.9</ele>
        <time>2015-09-24T08:48:33Z</time>
      </trkpt>
      <trkpt lat="42.27384" lon="0.05881">
        <ele>786.6</ele>
        <time>2015-09-24T08:48:35Z</time>
      </trkpt>
      <trkpt lat="42.27381" lon="0.05881">
        <ele>786.2</ele>
        <time>2015-09-24T08:48:36Z</time>
      </trkpt>
      <trkpt lat="42.27378" lon="0.05881">
        <ele>785.9</ele>
        <time>2015-09-24T08:48:37Z</time>
      </trkpt>
      <trkpt lat="42.2737" lon="0.05878">
        <ele>785.3</ele>
        <time>2015-09-24T08:48:38Z</time>
      </trkpt>
      <trkpt lat="42.27365" lon="0.05877">
        <ele>784.6</ele>
        <time>2015-09-24T08:48:39Z</time>
      </trkpt>
      <trkpt lat="42.2736" lon="0.05876">
        <ele>783.9</ele>
        <time>2015-09-24T08:48:40Z</time>
      </trkpt>
      <trkpt lat="42.27356" lon="0.05874">
        <ele>783.4</ele>
        <time>2015-09-24T08:48:41Z</time>
      </trkpt>
      <trkpt lat="42.27352" lon="0.05873">
        <ele>782.8</ele>
        <time>2015-09-24T08:48:42Z</time>
      </trkpt>
      <trkpt lat="42.27348" lon="0.05872">
        <ele>782.1</ele>
        <time>2015-09-24T08:48:43Z</time>
      </trkpt>
      <trkpt lat="42.27345" lon="0.05871">
        <ele>781.5</ele>
        <time>2015-09-24T08:48:44Z</time>
      </trkpt>
      <trkpt lat="42.27342" lon="0.0587">
        <ele>780.9</ele>
        <time>2015-09-24T08:48:45Z</time>
      </trkpt>
      <trkpt lat="42.27339" lon="0.05868">
        <ele>780.4</ele>
        <time>2015-09-24T08:48:46Z</time>
      </trkpt>
      <trkpt lat="42.27335" lon="0.05867">
        <ele>779.9</ele>
        <time>2015-09-24T08:48:47Z</time>
      </trkpt>
      <trkpt lat="42.27332" lon="0.05867">
        <ele>779.2</ele>
        <time>2015-09-24T08:48:48Z</time>
      </trkpt>
      <trkpt lat="42.27328" lon="0.05867">
        <ele>778.3</ele>
        <time>2015-09-24T08:48:49Z</time>
      </trkpt>
      <trkpt lat="42.27324" lon="0.05867">
        <ele>777.5</ele>
        <time>2015-09-24T08:48:50Z</time>
      </trkpt>
      <trkpt lat="42.27319" lon="0.05867">
        <ele>776.7</ele>
        <time>2015-09-24T08:48:51Z</time>
      </trkpt>
      <trkpt lat="42.27315" lon="0.05867">
        <ele>775.9</ele>
        <time>2015-09-24T08:48:52Z</time>
      </trkpt>
      <trkpt lat="42.27312" lon="0.05868">
        <ele>775.2</ele>
        <time>2015-09-24T08:48:53Z</time>
      </trkpt>
      <trkpt lat="42.27308" lon="0.05869">
        <ele>774.4</ele>
        <time>2015-09-24T08:48:54Z</time>
      </trkpt>
      <trkpt lat="42.27306" lon="0.0587">
        <ele>773.9</ele>
        <time>2015-09-24T08:48:55Z</time>
      </trkpt>
      <trkpt lat="42.27302" lon="0.05874">
        <ele>773</ele>
        <time>2015-09-24T08:48:57Z</time>
      </trkpt>
      <trkpt lat="42.27297" lon="0.05876">
        <ele>772</ele>
        <time>2015-09-24T08:48:59Z</time>
      </trkpt>
      <trkpt lat="42.27292" lon="0.05875">
        <ele>771</ele>
        <time>2015-09-24T08:49:01Z</time>
      </trkpt>
      <trkpt lat="42.27287" lon="0.05874">
        <ele>770.1</ele>
        <time>2015-09-24T08:49:03Z</time>
      </trkpt>
      <trkpt lat="42.27284" lon="0.05872">
        <ele>769.5</ele>
        <time>2015-09-24T08:49:05Z</time>
      </trkpt>
      <trkpt lat="42.27281" lon="0.05871">
        <ele>769</ele>
        <time>2015-09-24T08:49:07Z</time>
      </trkpt>
      <trkpt lat="42.27279" lon="0.05872">
        <ele>768.4</ele>
        <time>2015-09-24T08:49:09Z</time>
      </trkpt>
      <trkpt lat="42.27274" lon="0.05874">
        <ele>767.5</ele>
        <time>2015-09-24T08:49:11Z</time>
      </trkpt>
      <trkpt lat="42.27272" lon="0.05875">
        <ele>766.9</ele>
        <time>2015-09-24T08:49:12Z</time>
      </trkpt>
      <trkpt lat="42.27267" lon="0.05876">
        <ele>765.6</ele>
        <time>2015-09-24T08:49:14Z</time>
      </trkpt>
      <trkpt lat="42.27264" lon="0.05877">
        <ele>764.9</ele>
        <time>2015-09-24T08:49:15Z</time>
      </trkpt>
      <trkpt lat="42.27259" lon="0.05878">
        <ele>763.8</ele>
        <time>2015-09-24T08:49:17Z</time>
      </trkpt>
      <trkpt lat="42.27254" lon="0.05877">
        <ele>763.1</ele>
        <time>2015-09-24T08:49:19Z</time>
      </trkpt>
      <trkpt lat="42.2725" lon="0.05875">
        <ele>762.4</ele>
        <time>2015-09-24T08:49:21Z</time>
      </trkpt>
      <trkpt lat="42.27245" lon="0.05874">
        <ele>761.5</ele>
        <time>2015-09-24T08:49:23Z</time>
      </trkpt>
      <trkpt lat="42.27243" lon="0.05872">
        <ele>761.1</ele>
        <time>2015-09-24T08:49:29Z</time>
      </trkpt>
      <trkpt lat="42.2724" lon="0.05871">
        <ele>760.6</ele>
        <time>2015-09-24T08:49:35Z</time>
      </trkpt>
      <trkpt lat="42.27237" lon="0.05871">
        <ele>760</ele>
        <time>2015-09-24T08:49:42Z</time>
      </trkpt>
      <trkpt lat="42.27232" lon="0.0587">
        <ele>759</ele>
        <time>2015-09-24T08:49:50Z</time>
      </trkpt>
      <trkpt lat="42.27227" lon="0.05869">
        <ele>758.2</ele>
        <time>2015-09-24T08:49:52Z</time>
      </trkpt>
      <trkpt lat="42.27223" lon="0.05867">
        <ele>757.4</ele>
        <time>2015-09-24T08:49:54Z</time>
      </trkpt>
      <trkpt lat="42.2722" lon="0.05865">
        <ele>756.9</ele>
        <time>2015-09-24T08:49:56Z</time>
      </trkpt>
      <trkpt lat="42.27217" lon="0.05863">
        <ele>756.4</ele>
        <time>2015-09-24T08:50:02Z</time>
      </trkpt>
      <trkpt lat="42.27214" lon="0.05862">
        <ele>755.8</ele>
        <time>2015-09-24T08:50:06Z</time>
      </trkpt>
      <trkpt lat="42.27211" lon="0.05862">
        <ele>755.2</ele>
        <time>2015-09-24T08:50:11Z</time>
      </trkpt>
      <trkpt lat="42.27208" lon="0.0586">
        <ele>754.6</ele>
        <time>2015-09-24T08:50:13Z</time>
      </trkpt>
      <trkpt lat="42.27205" lon="0.05858">
        <ele>754.1</ele>
        <time>2015-09-24T08:50:14Z</time>
      </trkpt>
      <trkpt lat="42.27203" lon="0.05856">
        <ele>753.7</ele>
        <time>2015-09-24T08:50:15Z</time>
      </trkpt>
      <trkpt lat="42.27199" lon="0.05853">
        <ele>753.1</ele>
        <time>2015-09-24T08:50:17Z</time>
      </trkpt>
      <trkpt lat="42.27196" lon="0.05852">
        <ele>752.5</ele>
        <time>2015-09-24T08:50:19Z</time>
      </trkpt>
      <trkpt lat="42.27193" lon="0.05851">
        <ele>752</ele>
        <time>2015-09-24T08:50:21Z</time>
      </trkpt>
      <trkpt lat="42.27192" lon="0.05855">
        <ele>751.7</ele>
        <time>2015-09-24T08:50:32Z</time>
      </trkpt>
      <trkpt lat="42.27194" lon="0.05859">
        <ele>751.9</ele>
        <time>2015-09-24T08:50:34Z</time>
      </trkpt>
      <trkpt lat="42.27196" lon="0.05863">
        <ele>752</ele>
        <time>2015-09-24T08:50:36Z</time>
      </trkpt>
      <trkpt lat="42.27197" lon="0.05867">
        <ele>752</ele>
        <time>2015-09-24T08:50:37Z</time>
      </trkpt>
      <trkpt lat="42.27198" lon="0.0587">
        <ele>752.1</ele>
        <time>2015-09-24T08:50:38Z</time>
      </trkpt>
      <trkpt lat="42.272" lon="0.05874">
        <ele>752.4</ele>
        <time>2015-09-24T08:50:39Z</time>
      </trkpt>
      <trkpt lat="42.27202" lon="0.05877">
        <ele>752.4</ele>
        <time>2015-09-24T08:50:40Z</time>
      </trkpt>
      <trkpt lat="42.27203" lon="0.0588">
        <ele>752.2</ele>
        <time>2015-09-24T08:50:41Z</time>
      </trkpt>
      <trkpt lat="42.27205" lon="0.05886">
        <ele>751.8</ele>
        <time>2015-09-24T08:50:43Z</time>
      </trkpt>
      <trkpt lat="42.27209" lon="0.05891">
        <ele>751.8</ele>
        <time>2015-09-24T08:50:45Z</time>
      </trkpt>
      <trkpt lat="42.27212" lon="0.05893">
        <ele>751.9</ele>
        <time>2015-09-24T08:50:46Z</time>
      </trkpt>
      <trkpt lat="42.27214" lon="0.05895">
        <ele>752</ele>
        <time>2015-09-24T08:50:47Z</time>
      </trkpt>
      <trkpt lat="42.27216" lon="0.05898">
        <ele>751.9</ele>
        <time>2015-09-24T08:50:48Z</time>
      </trkpt>
      <trkpt lat="42.27218" lon="0.05901">
        <ele>751.8</ele>
        <time>2015-09-24T08:50:49Z</time>
      </trkpt>
      <trkpt lat="42.2722" lon="0.05904">
        <ele>751.9</ele>
        <time>2015-09-24T08:50:50Z</time>
      </trkpt>
      <trkpt lat="42.27222" lon="0.05906">
        <ele>751.8</ele>
        <time>2015-09-24T08:50:51Z</time>
      </trkpt>
      <trkpt lat="42.27224" lon="0.05909">
        <ele>751.7</ele>
        <time>2015-09-24T08:50:52Z</time>
      </trkpt>
      <trkpt lat="42.27225" lon="0.05913">
        <ele>751.3</ele>
        <time>2015-09-24T08:50:53Z</time>
      </trkpt>
      <trkpt lat="42.27226" lon="0.05916">
        <ele>751</ele>
        <time>2015-09-24T08:50:54Z</time>
      </trkpt>
      <trkpt lat="42.27226" lon="0.0592">
        <ele>750.6</ele>
        <time>2015-09-24T08:50:55Z</time>
      </trkpt>
      <trkpt lat="42.27228" lon="0.05925">
        <ele>750</ele>
        <time>2015-09-24T08:50:57Z</time>
      </trkpt>
      <trkpt lat="42.27227" lon="0.05921">
        <ele>750.4</ele>
        <time>2015-09-24T08:50:59Z</time>
      </trkpt>
      <trkpt lat="42.27227" lon="0.05928">
        <ele>749.5</ele>
        <time>2015-09-24T08:52:13Z</time>
      </trkpt>
      <trkpt lat="42.2723" lon="0.05934">
        <ele>749</ele>
        <time>2015-09-24T08:52:15Z</time>
      </trkpt>
      <trkpt lat="42.27233" lon="0.05939">
        <ele>749</ele>
        <time>2015-09-24T08:52:17Z</time>
      </trkpt>
      <trkpt lat="42.27236" lon="0.05943">
        <ele>748.8</ele>
        <time>2015-09-24T08:52:19Z</time>
      </trkpt>
      <trkpt lat="42.27239" lon="0.05946">
        <ele>748.9</ele>
        <time>2015-09-24T08:52:21Z</time>
      </trkpt>
      <trkpt lat="42.27243" lon="0.0595">
        <ele>749.1</ele>
        <time>2015-09-24T08:52:23Z</time>
      </trkpt>
      <trkpt lat="42.27244" lon="0.05953">
        <ele>748.7</ele>
        <time>2015-09-24T08:52:24Z</time>
      </trkpt>
      <trkpt lat="42.27246" lon="0.05958">
        <ele>748.3</ele>
        <time>2015-09-24T08:52:25Z</time>
      </trkpt>
      <trkpt lat="42.27247" lon="0.05962">
        <ele>748.1</ele>
        <time>2015-09-24T08:52:26Z</time>
      </trkpt>
      <trkpt lat="42.27249" lon="0.05966">
        <ele>748</ele>
        <time>2015-09-24T08:52:27Z</time>
      </trkpt>
      <trkpt lat="42.27249" lon="0.0597">
        <ele>747.8</ele>
        <time>2015-09-24T08:52:28Z</time>
      </trkpt>
      <trkpt lat="42.2725" lon="0.05975">
        <ele>747.4</ele>
        <time>2015-09-24T08:52:29Z</time>
      </trkpt>
      <trkpt lat="42.2725" lon="0.05979">
        <ele>747</ele>
        <time>2015-09-24T08:52:30Z</time>
      </trkpt>
      <trkpt lat="42.2725" lon="0.05984">
        <ele>746.5</ele>
        <time>2015-09-24T08:52:31Z</time>
      </trkpt>
      <trkpt lat="42.27248" lon="0.05988">
        <ele>745.9</ele>
        <time>2015-09-24T08:52:32Z</time>
      </trkpt>
      <trkpt lat="42.27247" lon="0.05991">
        <ele>745.4</ele>
        <time>2015-09-24T08:52:33Z</time>
      </trkpt>
      <trkpt lat="42.27245" lon="0.05995">
        <ele>744.8</ele>
        <time>2015-09-24T08:52:34Z</time>
      </trkpt>
      <trkpt lat="42.27243" lon="0.06">
        <ele>744</ele>
        <time>2015-09-24T08:52:36Z</time>
      </trkpt>
      <trkpt lat="42.27242" lon="0.06003">
        <ele>743.7</ele>
        <time>2015-09-24T08:52:38Z</time>
      </trkpt>
      <trkpt lat="42.27244" lon="0.06007">
        <ele>743.5</ele>
        <time>2015-09-24T08:52:40Z</time>
      </trkpt>
      <trkpt lat="42.27245" lon="0.06011">
        <ele>743.4</ele>
        <time>2015-09-24T08:52:42Z</time>
      </trkpt>
      <trkpt lat="42.27246" lon="0.06016">
        <ele>743.1</ele>
        <time>2015-09-24T08:52:44Z</time>
      </trkpt>
      <trkpt lat="42.27245" lon="0.06019">
        <ele>742.6</ele>
        <time>2015-09-24T08:52:50Z</time>
      </trkpt>
      <trkpt lat="42.27244" lon="0.06024">
        <ele>742.1</ele>
        <time>2015-09-24T08:52:56Z</time>
      </trkpt>
      <trkpt lat="42.27243" lon="0.06028">
        <ele>741.7</ele>
        <time>2015-09-24T08:53:00Z</time>
      </trkpt>
      <trkpt lat="42.27244" lon="0.06032">
        <ele>741.4</ele>
        <time>2015-09-24T08:53:04Z</time>
      </trkpt>
      <trkpt lat="42.27246" lon="0.06035">
        <ele>741.4</ele>
        <time>2015-09-24T08:53:08Z</time>
      </trkpt>
      <trkpt lat="42.27249" lon="0.06037">
        <ele>741.4</ele>
        <time>2015-09-24T08:53:12Z</time>
      </trkpt>
      <trkpt lat="42.27252" lon="0.06039">
        <ele>741.4</ele>
        <time>2015-09-24T08:53:16Z</time>
      </trkpt>
      <trkpt lat="42.27254" lon="0.06042">
        <ele>741.3</ele>
        <time>2015-09-24T08:53:20Z</time>
      </trkpt>
      <trkpt lat="42.27257" lon="0.06044">
        <ele>741.9</ele>
        <time>2015-09-24T08:53:25Z</time>
      </trkpt>
      <trkpt lat="42.27259" lon="0.06047">
        <ele>742.4</ele>
        <time>2015-09-24T08:53:30Z</time>
      </trkpt>
      <trkpt lat="42.27258" lon="0.06051">
        <ele>743.1</ele>
        <time>2015-09-24T08:53:34Z</time>
      </trkpt>
      <trkpt lat="42.27257" lon="0.06056">
        <ele>743.8</ele>
        <time>2015-09-24T08:53:38Z</time>
      </trkpt>
      <trkpt lat="42.27257" lon="0.0606">
        <ele>744.5</ele>
        <time>2015-09-24T08:53:42Z</time>
      </trkpt>
      <trkpt lat="42.27255" lon="0.06062">
        <ele>744.8</ele>
        <time>2015-09-24T08:53:47Z</time>
      </trkpt>
      <trkpt lat="42.27251" lon="0.06062">
        <ele>744.7</ele>
        <time>2015-09-24T08:53:51Z</time>
      </trkpt>
      <trkpt lat="42.27248" lon="0.06064">
        <ele>744.9</ele>
        <time>2015-09-24T08:53:55Z</time>
      </trkpt>
      <trkpt lat="42.27246" lon="0.06067">
        <ele>745.6</ele>
        <time>2015-09-24T08:53:59Z</time>
      </trkpt>
      <trkpt lat="42.27245" lon="0.0607">
        <ele>746.1</ele>
        <time>2015-09-24T08:54:03Z</time>
      </trkpt>
      <trkpt lat="42.27243" lon="0.06073">
        <ele>746.7</ele>
        <time>2015-09-24T08:54:07Z</time>
      </trkpt>
      <trkpt lat="42.2724" lon="0.06074">
        <ele>746.9</ele>
        <time>2015-09-24T08:54:11Z</time>
      </trkpt>
      <trkpt lat="42.27237" lon="0.06074">
        <ele>746.9</ele>
        <time>2015-09-24T08:54:16Z</time>
      </trkpt>
      <trkpt lat="42.27234" lon="0.06076">
        <ele>747.4</ele>
        <time>2015-09-24T08:54:20Z</time>
      </trkpt>
      <trkpt lat="42.27231" lon="0.06079">
        <ele>747.9</ele>
        <time>2015-09-24T08:54:24Z</time>
      </trkpt>
      <trkpt lat="42.27228" lon="0.06078">
        <ele>747.9</ele>
        <time>2015-09-24T08:54:28Z</time>
      </trkpt>
      <trkpt lat="42.27225" lon="0.0608">
        <ele>748.3</ele>
        <time>2015-09-24T08:54:32Z</time>
      </trkpt>
      <trkpt lat="42.27222" lon="0.06082">
        <ele>748.8</ele>
        <time>2015-09-24T08:54:36Z</time>
      </trkpt>
      <trkpt lat="42.27221" lon="0.06085">
        <ele>749.7</ele>
        <time>2015-09-24T08:54:40Z</time>
      </trkpt>
      <trkpt lat="42.27221" lon="0.06089">
        <ele>750.6</ele>
        <time>2015-09-24T08:54:44Z</time>
      </trkpt>
      <trkpt lat="42.27221" lon="0.06093">
        <ele>751.6</ele>
        <time>2015-09-24T08:54:48Z</time>
      </trkpt>
      <trkpt lat="42.2722" lon="0.06097">
        <ele>752.5</ele>
        <time>2015-09-24T08:54:52Z</time>
      </trkpt>
      <trkpt lat="42.2722" lon="0.061">
        <ele>753.4</ele>
        <time>2015-09-24T08:54:56Z</time>
      </trkpt>
      <trkpt lat="42.27219" lon="0.06104">
        <ele>754.4</ele>
        <time>2015-09-24T08:55:00Z</time>
      </trkpt>
      <trkpt lat="42.27217" lon="0.06107">
        <ele>755.3</ele>
        <time>2015-09-24T08:55:04Z</time>
      </trkpt>
      <trkpt lat="42.27215" lon="0.06109">
        <ele>756</ele>
        <time>2015-09-24T08:55:08Z</time>
      </trkpt>
      <trkpt lat="42.27215" lon="0.06113">
        <ele>757</ele>
        <time>2015-09-24T08:55:12Z</time>
      </trkpt>
      <trkpt lat="42.27216" lon="0.06116">
        <ele>757.8</ele>
        <time>2015-09-24T08:55:16Z</time>
      </trkpt>
      <trkpt lat="42.27213" lon="0.06118">
        <ele>758.6</ele>
        <time>2015-09-24T08:55:20Z</time>
      </trkpt>
      <trkpt lat="42.2721" lon="0.06119">
        <ele>759.3</ele>
        <time>2015-09-24T08:55:25Z</time>
      </trkpt>
      <trkpt lat="42.27208" lon="0.06123">
        <ele>760.5</ele>
        <time>2015-09-24T08:55:30Z</time>
      </trkpt>
      <trkpt lat="42.27206" lon="0.06126">
        <ele>762.3</ele>
        <time>2015-09-24T08:55:34Z</time>
      </trkpt>
      <trkpt lat="42.27204" lon="0.06129">
        <ele>764.4</ele>
        <time>2015-09-24T08:55:38Z</time>
      </trkpt>
      <trkpt lat="42.27201" lon="0.06131">
        <ele>766.1</ele>
        <time>2015-09-24T08:55:41Z</time>
      </trkpt>
      <trkpt lat="42.27198" lon="0.06132">
        <ele>767.9</ele>
        <time>2015-09-24T08:55:44Z</time>
      </trkpt>
      <trkpt lat="42.27195" lon="0.06132">
        <ele>768.8</ele>
        <time>2015-09-24T08:55:47Z</time>
      </trkpt>
      <trkpt lat="42.27192" lon="0.06131">
        <ele>769.9</ele>
        <time>2015-09-24T08:55:51Z</time>
      </trkpt>
      <trkpt lat="42.27189" lon="0.06131">
        <ele>771.2</ele>
        <time>2015-09-24T08:55:55Z</time>
      </trkpt>
      <trkpt lat="42.27186" lon="0.06131">
        <ele>772.6</ele>
        <time>2015-09-24T08:55:59Z</time>
      </trkpt>
      <trkpt lat="42.27183" lon="0.06131">
        <ele>773.9</ele>
        <time>2015-09-24T08:56:04Z</time>
      </trkpt>
      <trkpt lat="42.2718" lon="0.06129">
        <ele>774.4</ele>
        <time>2015-09-24T08:56:09Z</time>
      </trkpt>
      <trkpt lat="42.27178" lon="0.06128">
        <ele>774.9</ele>
        <time>2015-09-24T08:56:14Z</time>
      </trkpt>
      <trkpt lat="42.27176" lon="0.06125">
        <ele>775.2</ele>
        <time>2015-09-24T08:56:19Z</time>
      </trkpt>
      <trkpt lat="42.27173" lon="0.06124">
        <ele>775.6</ele>
        <time>2015-09-24T08:56:23Z</time>
      </trkpt>
      <trkpt lat="42.2717" lon="0.06123">
        <ele>776.8</ele>
        <time>2015-09-24T08:56:28Z</time>
      </trkpt>
      <trkpt lat="42.27167" lon="0.06122">
        <ele>777.7</ele>
        <time>2015-09-24T08:56:33Z</time>
      </trkpt>
      <trkpt lat="42.27164" lon="0.0612">
        <ele>777.8</ele>
        <time>2015-09-24T08:56:38Z</time>
      </trkpt>
      <trkpt lat="42.27162" lon="0.06118">
        <ele>778</ele>
        <time>2015-09-24T08:56:42Z</time>
      </trkpt>
      <trkpt lat="42.27159" lon="0.06116">
        <ele>778.3</ele>
        <time>2015-09-24T08:56:46Z</time>
      </trkpt>
      <trkpt lat="42.27157" lon="0.06113">
        <ele>778.3</ele>
        <time>2015-09-24T08:56:54Z</time>
      </trkpt>
      <trkpt lat="42.27154" lon="0.06112">
        <ele>778.6</ele>
        <time>2015-09-24T08:56:59Z</time>
      </trkpt>
      <trkpt lat="42.27152" lon="0.0611">
        <ele>778.5</ele>
        <time>2015-09-24T08:57:03Z</time>
      </trkpt>
      <trkpt lat="42.27149" lon="0.06108">
        <ele>779</ele>
        <time>2015-09-24T08:57:07Z</time>
      </trkpt>
      <trkpt lat="42.27146" lon="0.06107">
        <ele>779.5</ele>
        <time>2015-09-24T08:57:12Z</time>
      </trkpt>
      <trkpt lat="42.27144" lon="0.06104">
        <ele>778.7</ele>
        <time>2015-09-24T08:57:17Z</time>
      </trkpt>
      <trkpt lat="42.27142" lon="0.06101">
        <ele>778.4</ele>
        <time>2015-09-24T08:57:21Z</time>
      </trkpt>
      <trkpt lat="42.27139" lon="0.06102">
        <ele>779.8</ele>
        <time>2015-09-24T08:57:25Z</time>
      </trkpt>
      <trkpt lat="42.27136" lon="0.061">
        <ele>780</ele>
        <time>2015-09-24T08:57:30Z</time>
      </trkpt>
      <trkpt lat="42.27133" lon="0.06099">
        <ele>780.5</ele>
        <time>2015-09-24T08:57:34Z</time>
      </trkpt>
      <trkpt lat="42.2713" lon="0.06099">
        <ele>781.6</ele>
        <time>2015-09-24T08:57:39Z</time>
      </trkpt>
      <trkpt lat="42.27127" lon="0.06099">
        <ele>782.8</ele>
        <time>2015-09-24T08:57:45Z</time>
      </trkpt>
      <trkpt lat="42.27124" lon="0.06097">
        <ele>782.3</ele>
        <time>2015-09-24T08:57:49Z</time>
      </trkpt>
      <trkpt lat="42.27121" lon="0.06096">
        <ele>781.6</ele>
        <time>2015-09-24T08:57:53Z</time>
      </trkpt>
      <trkpt lat="42.27118" lon="0.06096">
        <ele>781.3</ele>
        <time>2015-09-24T08:57:58Z</time>
      </trkpt>
      <trkpt lat="42.27115" lon="0.06094">
        <ele>780.5</ele>
        <time>2015-09-24T08:58:02Z</time>
      </trkpt>
      <trkpt lat="42.27113" lon="0.06093">
        <ele>780</ele>
        <time>2015-09-24T08:58:09Z</time>
      </trkpt>
      <trkpt lat="42.27109" lon="0.06092">
        <ele>779.6</ele>
        <time>2015-09-24T08:58:11Z</time>
      </trkpt>
      <trkpt lat="42.27107" lon="0.06091">
        <ele>778.9</ele>
        <time>2015-09-24T08:58:13Z</time>
      </trkpt>
      <trkpt lat="42.27104" lon="0.06089">
        <ele>777.9</ele>
        <time>2015-09-24T08:58:15Z</time>
      </trkpt>
      <trkpt lat="42.27102" lon="0.06087">
        <ele>776.7</ele>
        <time>2015-09-24T08:58:17Z</time>
      </trkpt>
      <trkpt lat="42.271" lon="0.06084">
        <ele>775.4</ele>
        <time>2015-09-24T08:58:19Z</time>
      </trkpt>
      <trkpt lat="42.27098" lon="0.06081">
        <ele>774.2</ele>
        <time>2015-09-24T08:58:21Z</time>
      </trkpt>
      <trkpt lat="42.27096" lon="0.06079">
        <ele>773</ele>
        <time>2015-09-24T08:58:23Z</time>
      </trkpt>
      <trkpt lat="42.27093" lon="0.06077">
        <ele>772.1</ele>
        <time>2015-09-24T08:58:25Z</time>
      </trkpt>
      <trkpt lat="42.2709" lon="0.06076">
        <ele>771.8</ele>
        <time>2015-09-24T08:58:27Z</time>
      </trkpt>
      <trkpt lat="42.27087" lon="0.06075">
        <ele>771.4</ele>
        <time>2015-09-24T08:58:29Z</time>
      </trkpt>
      <trkpt lat="42.27084" lon="0.06071">
        <ele>770</ele>
        <time>2015-09-24T08:58:32Z</time>
      </trkpt>
      <trkpt lat="42.27082" lon="0.06069">
        <ele>768.8</ele>
        <time>2015-09-24T08:58:34Z</time>
      </trkpt>
      <trkpt lat="42.27079" lon="0.06064">
        <ele>767</ele>
        <time>2015-09-24T08:58:36Z</time>
      </trkpt>
      <trkpt lat="42.27075" lon="0.06059">
        <ele>765.2</ele>
        <time>2015-09-24T08:58:38Z</time>
      </trkpt>
      <trkpt lat="42.27072" lon="0.06055">
        <ele>763.7</ele>
        <time>2015-09-24T08:58:40Z</time>
      </trkpt>
      <trkpt lat="42.27069" lon="0.06053">
        <ele>763</ele>
        <time>2015-09-24T08:58:47Z</time>
      </trkpt>
      <trkpt lat="42.27066" lon="0.06051">
        <ele>762.2</ele>
        <time>2015-09-24T08:58:48Z</time>
      </trkpt>
      <trkpt lat="42.27064" lon="0.06048">
        <ele>761.3</ele>
        <time>2015-09-24T08:58:49Z</time>
      </trkpt>
      <trkpt lat="42.27061" lon="0.06045">
        <ele>760.4</ele>
        <time>2015-09-24T08:58:50Z</time>
      </trkpt>
      <trkpt lat="42.27058" lon="0.06042">
        <ele>759.4</ele>
        <time>2015-09-24T08:58:51Z</time>
      </trkpt>
      <trkpt lat="42.27054" lon="0.06039">
        <ele>758.9</ele>
        <time>2015-09-24T08:58:52Z</time>
      </trkpt>
      <trkpt lat="42.27051" lon="0.06036">
        <ele>758.3</ele>
        <time>2015-09-24T08:58:53Z</time>
      </trkpt>
      <trkpt lat="42.27048" lon="0.06034">
        <ele>757.8</ele>
        <time>2015-09-24T08:58:54Z</time>
      </trkpt>
      <trkpt lat="42.27045" lon="0.06031">
        <ele>757.4</ele>
        <time>2015-09-24T08:58:55Z</time>
      </trkpt>
      <trkpt lat="42.27041" lon="0.0603">
        <ele>757.3</ele>
        <time>2015-09-24T08:58:56Z</time>
      </trkpt>
      <trkpt lat="42.27037" lon="0.0603">
        <ele>757.3</ele>
        <time>2015-09-24T08:58:57Z</time>
      </trkpt>
      <trkpt lat="42.27034" lon="0.06029">
        <ele>757.4</ele>
        <time>2015-09-24T08:58:58Z</time>
      </trkpt>
      <trkpt lat="42.27029" lon="0.0603">
        <ele>757.8</ele>
        <time>2015-09-24T08:58:59Z</time>
      </trkpt>
      <trkpt lat="42.27025" lon="0.06032">
        <ele>758.5</ele>
        <time>2015-09-24T08:59:00Z</time>
      </trkpt>
      <trkpt lat="42.27022" lon="0.06034">
        <ele>759.5</ele>
        <time>2015-09-24T08:59:01Z</time>
      </trkpt>
      <trkpt lat="42.27018" lon="0.06037">
        <ele>760.5</ele>
        <time>2015-09-24T08:59:02Z</time>
      </trkpt>
      <trkpt lat="42.27014" lon="0.06039">
        <ele>761.4</ele>
        <time>2015-09-24T08:59:03Z</time>
      </trkpt>
      <trkpt lat="42.27011" lon="0.06041">
        <ele>762.2</ele>
        <time>2015-09-24T08:59:04Z</time>
      </trkpt>
      <trkpt lat="42.27009" lon="0.06044">
        <ele>763.2</ele>
        <time>2015-09-24T08:59:09Z</time>
      </trkpt>
      <trkpt lat="42.27006" lon="0.06046">
        <ele>764</ele>
        <time>2015-09-24T08:59:14Z</time>
      </trkpt>
      <trkpt lat="42.27004" lon="0.06048">
        <ele>764.9</ele>
        <time>2015-09-24T08:59:15Z</time>
      </trkpt>
      <trkpt lat="42.27002" lon="0.06051">
        <ele>765.9</ele>
        <time>2015-09-24T08:59:16Z</time>
      </trkpt>
      <trkpt lat="42.27" lon="0.06055">
        <ele>766.9</ele>
        <time>2015-09-24T08:59:17Z</time>
      </trkpt>
      <trkpt lat="42.26998" lon="0.06058">
        <ele>767.9</ele>
        <time>2015-09-24T08:59:18Z</time>
      </trkpt>
      <trkpt lat="42.26996" lon="0.0606">
        <ele>768.7</ele>
        <time>2015-09-24T08:59:19Z</time>
      </trkpt>
      <trkpt lat="42.26994" lon="0.06062">
        <ele>769.3</ele>
        <time>2015-09-24T08:59:20Z</time>
      </trkpt>
      <trkpt lat="42.26991" lon="0.06063">
        <ele>769.7</ele>
        <time>2015-09-24T08:59:21Z</time>
      </trkpt>
      <trkpt lat="42.26988" lon="0.06063">
        <ele>769.7</ele>
        <time>2015-09-24T08:59:22Z</time>
      </trkpt>
      <trkpt lat="42.26986" lon="0.06062">
        <ele>769.6</ele>
        <time>2015-09-24T08:59:23Z</time>
      </trkpt>
      <trkpt lat="42.26981" lon="0.06062">
        <ele>769.6</ele>
        <time>2015-09-24T08:59:25Z</time>
      </trkpt>
      <trkpt lat="42.26978" lon="0.06066">
        <ele>770.7</ele>
        <time>2015-09-24T08:59:27Z</time>
      </trkpt>
      <trkpt lat="42.26975" lon="0.06072">
        <ele>772.3</ele>
        <time>2015-09-24T08:59:29Z</time>
      </trkpt>
      <trkpt lat="42.26973" lon="0.06075">
        <ele>773.3</ele>
        <time>2015-09-24T08:59:30Z</time>
      </trkpt>
      <trkpt lat="42.26971" lon="0.06079">
        <ele>774.2</ele>
        <time>2015-09-24T08:59:31Z</time>
      </trkpt>
      <trkpt lat="42.26968" lon="0.06081">
        <ele>775</ele>
        <time>2015-09-24T08:59:32Z</time>
      </trkpt>
      <trkpt lat="42.26965" lon="0.06084">
        <ele>775.5</ele>
        <time>2015-09-24T08:59:33Z</time>
      </trkpt>
      <trkpt lat="42.26962" lon="0.06085">
        <ele>776</ele>
        <time>2015-09-24T08:59:34Z</time>
      </trkpt>
      <trkpt lat="42.26959" lon="0.06086">
        <ele>776.2</ele>
        <time>2015-09-24T08:59:35Z</time>
      </trkpt>
      <trkpt lat="42.26956" lon="0.06087">
        <ele>776.7</ele>
        <time>2015-09-24T08:59:36Z</time>
      </trkpt>
      <trkpt lat="42.26952" lon="0.06086">
        <ele>776.7</ele>
        <time>2015-09-24T08:59:38Z</time>
      </trkpt>
      <trkpt lat="42.2695" lon="0.0608">
        <ele>775.6</ele>
        <time>2015-09-24T08:59:40Z</time>
      </trkpt>
      <trkpt lat="42.26947" lon="0.06075">
        <ele>774.7</ele>
        <time>2015-09-24T08:59:42Z</time>
      </trkpt>
      <trkpt lat="42.26943" lon="0.06071">
        <ele>774.1</ele>
        <time>2015-09-24T08:59:44Z</time>
      </trkpt>
      <trkpt lat="42.26939" lon="0.06066">
        <ele>773.3</ele>
        <time>2015-09-24T08:59:46Z</time>
      </trkpt>
      <trkpt lat="42.26935" lon="0.06061">
        <ele>772.6</ele>
        <time>2015-09-24T08:59:48Z</time>
      </trkpt>
      <trkpt lat="42.26931" lon="0.06057">
        <ele>772.1</ele>
        <time>2015-09-24T08:59:50Z</time>
      </trkpt>
      <trkpt lat="42.26927" lon="0.06055">
        <ele>772</ele>
        <time>2015-09-24T08:59:52Z</time>
      </trkpt>
      <trkpt lat="42.26924" lon="0.06053">
        <ele>771.8</ele>
        <time>2015-09-24T08:59:54Z</time>
      </trkpt>
      <trkpt lat="42.26922" lon="0.06049">
        <ele>771.3</ele>
        <time>2015-09-24T08:59:56Z</time>
      </trkpt>
      <trkpt lat="42.26918" lon="0.06047">
        <ele>771.1</ele>
        <time>2015-09-24T08:59:58Z</time>
      </trkpt>
      <trkpt lat="42.26914" lon="0.06046">
        <ele>771.4</ele>
        <time>2015-09-24T09:00:00Z</time>
      </trkpt>
      <trkpt lat="42.26909" lon="0.06047">
        <ele>772.2</ele>
        <time>2015-09-24T09:00:02Z</time>
      </trkpt>
      <trkpt lat="42.26905" lon="0.0605">
        <ele>773.4</ele>
        <time>2015-09-24T09:00:04Z</time>
      </trkpt>
      <trkpt lat="42.26902" lon="0.06053">
        <ele>774.4</ele>
        <time>2015-09-24T09:00:06Z</time>
      </trkpt>
      <trkpt lat="42.269" lon="0.06055">
        <ele>775.3</ele>
        <time>2015-09-24T09:00:09Z</time>
      </trkpt>
      <trkpt lat="42.26898" lon="0.06059">
        <ele>776.2</ele>
        <time>2015-09-24T09:00:11Z</time>
      </trkpt>
      <trkpt lat="42.26895" lon="0.06064">
        <ele>777.8</ele>
        <time>2015-09-24T09:00:13Z</time>
      </trkpt>
      <trkpt lat="42.26891" lon="0.06068">
        <ele>779.3</ele>
        <time>2015-09-24T09:00:15Z</time>
      </trkpt>
      <trkpt lat="42.26887" lon="0.06072">
        <ele>780.7</ele>
        <time>2015-09-24T09:00:17Z</time>
      </trkpt>
      <trkpt lat="42.26882" lon="0.06075">
        <ele>781.8</ele>
        <time>2015-09-24T09:00:19Z</time>
      </trkpt>
      <trkpt lat="42.26879" lon="0.06076">
        <ele>782.3</ele>
        <time>2015-09-24T09:00:20Z</time>
      </trkpt>
      <trkpt lat="42.26876" lon="0.06078">
        <ele>783.2</ele>
        <time>2015-09-24T09:00:21Z</time>
      </trkpt>
      <trkpt lat="42.26873" lon="0.06081">
        <ele>784.4</ele>
        <time>2015-09-24T09:00:22Z</time>
      </trkpt>
      <trkpt lat="42.2687" lon="0.06084">
        <ele>785.7</ele>
        <time>2015-09-24T09:00:23Z</time>
      </trkpt>
      <trkpt lat="42.26866" lon="0.06086">
        <ele>786.8</ele>
        <time>2015-09-24T09:00:24Z</time>
      </trkpt>
      <trkpt lat="42.26863" lon="0.06086">
        <ele>787.7</ele>
        <time>2015-09-24T09:00:25Z</time>
      </trkpt>
      <trkpt lat="42.26859" lon="0.06086">
        <ele>788.2</ele>
        <time>2015-09-24T09:00:26Z</time>
      </trkpt>
      <trkpt lat="42.26856" lon="0.06081">
        <ele>787.8</ele>
        <time>2015-09-24T09:00:28Z</time>
      </trkpt>
      <trkpt lat="42.26853" lon="0.06075">
        <ele>787</ele>
        <time>2015-09-24T09:00:30Z</time>
      </trkpt>
      <trkpt lat="42.26851" lon="0.06068">
        <ele>785.9</ele>
        <time>2015-09-24T09:00:32Z</time>
      </trkpt>
      <trkpt lat="42.26849" lon="0.06063">
        <ele>785.2</ele>
        <time>2015-09-24T09:00:34Z</time>
      </trkpt>
      <trkpt lat="42.26847" lon="0.06061">
        <ele>785.2</ele>
        <time>2015-09-24T09:00:36Z</time>
      </trkpt>
      <trkpt lat="42.26844" lon="0.06062">
        <ele>785.9</ele>
        <time>2015-09-24T09:00:38Z</time>
      </trkpt>
      <trkpt lat="42.26841" lon="0.06064">
        <ele>787</ele>
        <time>2015-09-24T09:00:40Z</time>
      </trkpt>
      <trkpt lat="42.26838" lon="0.06064">
        <ele>787.7</ele>
        <time>2015-09-24T09:00:42Z</time>
      </trkpt>
      <trkpt lat="42.26834" lon="0.06062">
        <ele>788</ele>
        <time>2015-09-24T09:00:44Z</time>
      </trkpt>
      <trkpt lat="42.26832" lon="0.06061">
        <ele>788.3</ele>
        <time>2015-09-24T09:00:46Z</time>
      </trkpt>
      <trkpt lat="42.26829" lon="0.06058">
        <ele>788.2</ele>
        <time>2015-09-24T09:00:48Z</time>
      </trkpt>
      <trkpt lat="42.26826" lon="0.06056">
        <ele>788.4</ele>
        <time>2015-09-24T09:00:50Z</time>
      </trkpt>
      <trkpt lat="42.26823" lon="0.06056">
        <ele>788.9</ele>
        <time>2015-09-24T09:00:52Z</time>
      </trkpt>
      <trkpt lat="42.2682" lon="0.06055">
        <ele>789.3</ele>
        <time>2015-09-24T09:00:54Z</time>
      </trkpt>
      <trkpt lat="42.26816" lon="0.06054">
        <ele>789.8</ele>
        <time>2015-09-24T09:00:56Z</time>
      </trkpt>
      <trkpt lat="42.26814" lon="0.06054">
        <ele>790.3</ele>
        <time>2015-09-24T09:00:58Z</time>
      </trkpt>
      <trkpt lat="42.26811" lon="0.06052">
        <ele>790.3</ele>
        <time>2015-09-24T09:01:00Z</time>
      </trkpt>
      <trkpt lat="42.26808" lon="0.06051">
        <ele>790.7</ele>
        <time>2015-09-24T09:01:03Z</time>
      </trkpt>
      <trkpt lat="42.26804" lon="0.06052">
        <ele>791.9</ele>
        <time>2015-09-24T09:01:06Z</time>
      </trkpt>
      <trkpt lat="42.26801" lon="0.06054">
        <ele>792.8</ele>
        <time>2015-09-24T09:01:08Z</time>
      </trkpt>
      <trkpt lat="42.26798" lon="0.06054">
        <ele>793.6</ele>
        <time>2015-09-24T09:01:10Z</time>
      </trkpt>
      <trkpt lat="42.26795" lon="0.06054">
        <ele>794.2</ele>
        <time>2015-09-24T09:01:12Z</time>
      </trkpt>
      <trkpt lat="42.26791" lon="0.06054">
        <ele>794.8</ele>
        <time>2015-09-24T09:01:14Z</time>
      </trkpt>
      <trkpt lat="42.26788" lon="0.06054">
        <ele>795.6</ele>
        <time>2015-09-24T09:01:16Z</time>
      </trkpt>
      <trkpt lat="42.26785" lon="0.06053">
        <ele>796.2</ele>
        <time>2015-09-24T09:01:18Z</time>
      </trkpt>
      <trkpt lat="42.26781" lon="0.06052">
        <ele>796.7</ele>
        <time>2015-09-24T09:01:20Z</time>
      </trkpt>
      <trkpt lat="42.26777" lon="0.06052">
        <ele>797.4</ele>
        <time>2015-09-24T09:01:22Z</time>
      </trkpt>
      <trkpt lat="42.26774" lon="0.06052">
        <ele>798.4</ele>
        <time>2015-09-24T09:01:24Z</time>
      </trkpt>
      <trkpt lat="42.2677" lon="0.06052">
        <ele>799.2</ele>
        <time>2015-09-24T09:01:26Z</time>
      </trkpt>
      <trkpt lat="42.26767" lon="0.0605">
        <ele>799.3</ele>
        <time>2015-09-24T09:01:28Z</time>
      </trkpt>
      <trkpt lat="42.26763" lon="0.06048">
        <ele>799.6</ele>
        <time>2015-09-24T09:01:30Z</time>
      </trkpt>
      <trkpt lat="42.26759" lon="0.06047">
        <ele>800.3</ele>
        <time>2015-09-24T09:01:32Z</time>
      </trkpt>
      <trkpt lat="42.26756" lon="0.06048">
        <ele>801.2</ele>
        <time>2015-09-24T09:01:34Z</time>
      </trkpt>
      <trkpt lat="42.26752" lon="0.06046">
        <ele>801.7</ele>
        <time>2015-09-24T09:01:36Z</time>
      </trkpt>
      <trkpt lat="42.26749" lon="0.06043">
        <ele>801.5</ele>
        <time>2015-09-24T09:01:38Z</time>
      </trkpt>
      <trkpt lat="42.26745" lon="0.06039">
        <ele>801.4</ele>
        <time>2015-09-24T09:01:40Z</time>
      </trkpt>
      <trkpt lat="42.26743" lon="0.06037">
        <ele>801.4</ele>
        <time>2015-09-24T09:01:41Z</time>
      </trkpt>
      <trkpt lat="42.2674" lon="0.06034">
        <ele>801.3</ele>
        <time>2015-09-24T09:01:42Z</time>
      </trkpt>
      <trkpt lat="42.26738" lon="0.06032">
        <ele>801.2</ele>
        <time>2015-09-24T09:01:43Z</time>
      </trkpt>
      <trkpt lat="42.26736" lon="0.0603">
        <ele>801.1</ele>
        <time>2015-09-24T09:01:44Z</time>
      </trkpt>
      <trkpt lat="42.26732" lon="0.06026">
        <ele>801</ele>
        <time>2015-09-24T09:01:46Z</time>
      </trkpt>
      <trkpt lat="42.26728" lon="0.06023">
        <ele>801.1</ele>
        <time>2015-09-24T09:01:48Z</time>
      </trkpt>
      <trkpt lat="42.26725" lon="0.0602">
        <ele>801.1</ele>
        <time>2015-09-24T09:01:50Z</time>
      </trkpt>
      <trkpt lat="42.26721" lon="0.06017">
        <ele>801.1</ele>
        <time>2015-09-24T09:01:52Z</time>
      </trkpt>
      <trkpt lat="42.26717" lon="0.06015">
        <ele>801.2</ele>
        <time>2015-09-24T09:01:54Z</time>
      </trkpt>
      <trkpt lat="42.26713" lon="0.06012">
        <ele>801.2</ele>
        <time>2015-09-24T09:01:56Z</time>
      </trkpt>
      <trkpt lat="42.26709" lon="0.06009">
        <ele>801.2</ele>
        <time>2015-09-24T09:01:58Z</time>
      </trkpt>
      <trkpt lat="42.26704" lon="0.06007">
        <ele>801.7</ele>
        <time>2015-09-24T09:02:00Z</time>
      </trkpt>
      <trkpt lat="42.267" lon="0.06006">
        <ele>802.3</ele>
        <time>2015-09-24T09:02:02Z</time>
      </trkpt>
      <trkpt lat="42.26696" lon="0.06005">
        <ele>803</ele>
        <time>2015-09-24T09:02:04Z</time>
      </trkpt>
      <trkpt lat="42.26692" lon="0.06004">
        <ele>803.4</ele>
        <time>2015-09-24T09:02:06Z</time>
      </trkpt>
      <trkpt lat="42.26688" lon="0.06001">
        <ele>803.5</ele>
        <time>2015-09-24T09:02:08Z</time>
      </trkpt>
      <trkpt lat="42.26684" lon="0.06">
        <ele>803.9</ele>
        <time>2015-09-24T09:02:10Z</time>
      </trkpt>
      <trkpt lat="42.2668" lon="0.05999">
        <ele>804.4</ele>
        <time>2015-09-24T09:02:12Z</time>
      </trkpt>
      <trkpt lat="42.26677" lon="0.05999">
        <ele>805.1</ele>
        <time>2015-09-24T09:02:14Z</time>
      </trkpt>
      <trkpt lat="42.26673" lon="0.06">
        <ele>806.3</ele>
        <time>2015-09-24T09:02:16Z</time>
      </trkpt>
      <trkpt lat="42.26669" lon="0.06002">
        <ele>807.4</ele>
        <time>2015-09-24T09:02:18Z</time>
      </trkpt>
      <trkpt lat="42.26666" lon="0.06001">
        <ele>808</ele>
        <time>2015-09-24T09:02:20Z</time>
      </trkpt>
      <trkpt lat="42.26663" lon="0.06001">
        <ele>808.5</ele>
        <time>2015-09-24T09:02:22Z</time>
      </trkpt>
      <trkpt lat="42.2666" lon="0.06001">
        <ele>809.2</ele>
        <time>2015-09-24T09:02:24Z</time>
      </trkpt>
      <trkpt lat="42.26657" lon="0.06001">
        <ele>809.6</ele>
        <time>2015-09-24T09:02:26Z</time>
      </trkpt>
      <trkpt lat="42.26654" lon="0.05999">
        <ele>809.8</ele>
        <time>2015-09-24T09:02:28Z</time>
      </trkpt>
      <trkpt lat="42.26651" lon="0.05998">
        <ele>810.1</ele>
        <time>2015-09-24T09:02:30Z</time>
      </trkpt>
      <trkpt lat="42.26648" lon="0.05997">
        <ele>810.4</ele>
        <time>2015-09-24T09:02:32Z</time>
      </trkpt>
      <trkpt lat="42.26643" lon="0.05995">
        <ele>810.7</ele>
        <time>2015-09-24T09:02:34Z</time>
      </trkpt>
      <trkpt lat="42.26639" lon="0.05992">
        <ele>810.8</ele>
        <time>2015-09-24T09:02:36Z</time>
      </trkpt>
      <trkpt lat="42.26635" lon="0.05989">
        <ele>810.8</ele>
        <time>2015-09-24T09:02:38Z</time>
      </trkpt>
      <trkpt lat="42.26632" lon="0.05987">
        <ele>810.8</ele>
        <time>2015-09-24T09:02:39Z</time>
      </trkpt>
      <trkpt lat="42.26629" lon="0.05985">
        <ele>810.9</ele>
        <time>2015-09-24T09:02:40Z</time>
      </trkpt>
      <trkpt lat="42.26626" lon="0.05983">
        <ele>811</ele>
        <time>2015-09-24T09:02:41Z</time>
      </trkpt>
      <trkpt lat="42.26623" lon="0.05982">
        <ele>811.2</ele>
        <time>2015-09-24T09:02:42Z</time>
      </trkpt>
      <trkpt lat="42.26619" lon="0.0598">
        <ele>811.8</ele>
        <time>2015-09-24T09:02:43Z</time>
      </trkpt>
      <trkpt lat="42.26616" lon="0.0598">
        <ele>812.5</ele>
        <time>2015-09-24T09:02:44Z</time>
      </trkpt>
      <trkpt lat="42.26612" lon="0.05979">
        <ele>813.2</ele>
        <time>2015-09-24T09:02:45Z</time>
      </trkpt>
      <trkpt lat="42.26609" lon="0.05979">
        <ele>813.9</ele>
        <time>2015-09-24T09:02:46Z</time>
      </trkpt>
      <trkpt lat="42.26605" lon="0.05977">
        <ele>814.5</ele>
        <time>2015-09-24T09:02:47Z</time>
      </trkpt>
      <trkpt lat="42.26601" lon="0.05976">
        <ele>814.9</ele>
        <time>2015-09-24T09:02:48Z</time>
      </trkpt>
      <trkpt lat="42.26598" lon="0.05974">
        <ele>815.3</ele>
        <time>2015-09-24T09:02:49Z</time>
      </trkpt>
      <trkpt lat="42.26595" lon="0.05972">
        <ele>815.7</ele>
        <time>2015-09-24T09:02:50Z</time>
      </trkpt>
      <trkpt lat="42.26591" lon="0.05971">
        <ele>816.5</ele>
        <time>2015-09-24T09:02:52Z</time>
      </trkpt>
      <trkpt lat="42.26587" lon="0.05969">
        <ele>817.2</ele>
        <time>2015-09-24T09:02:54Z</time>
      </trkpt>
      <trkpt lat="42.26583" lon="0.05966">
        <ele>817.7</ele>
        <time>2015-09-24T09:02:56Z</time>
      </trkpt>
      <trkpt lat="42.26579" lon="0.05963">
        <ele>818.2</ele>
        <time>2015-09-24T09:02:58Z</time>
      </trkpt>
      <trkpt lat="42.26575" lon="0.05961">
        <ele>818.9</ele>
        <time>2015-09-24T09:03:00Z</time>
      </trkpt>
      <trkpt lat="42.26571" lon="0.05958">
        <ele>819.5</ele>
        <time>2015-09-24T09:03:02Z</time>
      </trkpt>
      <trkpt lat="42.26567" lon="0.05955">
        <ele>819.9</ele>
        <time>2015-09-24T09:03:04Z</time>
      </trkpt>
      <trkpt lat="42.26564" lon="0.05952">
        <ele>820.1</ele>
        <time>2015-09-24T09:03:06Z</time>
      </trkpt>
      <trkpt lat="42.26561" lon="0.0595">
        <ele>820.6</ele>
        <time>2015-09-24T09:03:08Z</time>
      </trkpt>
      <trkpt lat="42.26558" lon="0.05949">
        <ele>821.1</ele>
        <time>2015-09-24T09:03:10Z</time>
      </trkpt>
      <trkpt lat="42.26555" lon="0.05947">
        <ele>821.4</ele>
        <time>2015-09-24T09:03:12Z</time>
      </trkpt>
      <trkpt lat="42.26552" lon="0.05945">
        <ele>821.6</ele>
        <time>2015-09-24T09:03:14Z</time>
      </trkpt>
      <trkpt lat="42.2655" lon="0.05943">
        <ele>821.9</ele>
        <time>2015-09-24T09:03:16Z</time>
      </trkpt>
      <trkpt lat="42.26547" lon="0.0594">
        <ele>822.1</ele>
        <time>2015-09-24T09:03:18Z</time>
      </trkpt>
      <trkpt lat="42.26545" lon="0.05938">
        <ele>822.3</ele>
        <time>2015-09-24T09:03:20Z</time>
      </trkpt>
      <trkpt lat="42.26542" lon="0.05935">
        <ele>822.3</ele>
        <time>2015-09-24T09:03:22Z</time>
      </trkpt>
      <trkpt lat="42.2654" lon="0.05932">
        <ele>821.9</ele>
        <time>2015-09-24T09:03:24Z</time>
      </trkpt>
      <trkpt lat="42.26538" lon="0.0593">
        <ele>821.4</ele>
        <time>2015-09-24T09:03:26Z</time>
      </trkpt>
      <trkpt lat="42.26536" lon="0.05928">
        <ele>821.1</ele>
        <time>2015-09-24T09:03:28Z</time>
      </trkpt>
      <trkpt lat="42.26534" lon="0.05926">
        <ele>820.8</ele>
        <time>2015-09-24T09:03:30Z</time>
      </trkpt>
      <trkpt lat="42.26531" lon="0.05923">
        <ele>820.6</ele>
        <time>2015-09-24T09:03:32Z</time>
      </trkpt>
      <trkpt lat="42.26528" lon="0.05921">
        <ele>820.4</ele>
        <time>2015-09-24T09:03:34Z</time>
      </trkpt>
      <trkpt lat="42.26525" lon="0.05919">
        <ele>820.2</ele>
        <time>2015-09-24T09:03:36Z</time>
      </trkpt>
      <trkpt lat="42.26523" lon="0.05916">
        <ele>820.1</ele>
        <time>2015-09-24T09:03:38Z</time>
      </trkpt>
      <trkpt lat="42.26519" lon="0.05914">
        <ele>820.1</ele>
        <time>2015-09-24T09:03:40Z</time>
      </trkpt>
      <trkpt lat="42.26516" lon="0.05913">
        <ele>820.4</ele>
        <time>2015-09-24T09:03:42Z</time>
      </trkpt>
      <trkpt lat="42.26513" lon="0.05911">
        <ele>820.4</ele>
        <time>2015-09-24T09:03:44Z</time>
      </trkpt>
      <trkpt lat="42.2651" lon="0.05908">
        <ele>820.4</ele>
        <time>2015-09-24T09:03:46Z</time>
      </trkpt>
      <trkpt lat="42.26506" lon="0.05905">
        <ele>820.5</ele>
        <time>2015-09-24T09:03:48Z</time>
      </trkpt>
      <trkpt lat="42.26503" lon="0.05902">
        <ele>820.7</ele>
        <time>2015-09-24T09:03:50Z</time>
      </trkpt>
      <trkpt lat="42.26499" lon="0.059">
        <ele>821</ele>
        <time>2015-09-24T09:03:52Z</time>
      </trkpt>
      <trkpt lat="42.26496" lon="0.05897">
        <ele>821.2</ele>
        <time>2015-09-24T09:03:54Z</time>
      </trkpt>
      <trkpt lat="42.26493" lon="0.05895">
        <ele>821.5</ele>
        <time>2015-09-24T09:03:56Z</time>
      </trkpt>
      <trkpt lat="42.2649" lon="0.05893">
        <ele>822</ele>
        <time>2015-09-24T09:03:58Z</time>
      </trkpt>
      <trkpt lat="42.26486" lon="0.05892">
        <ele>822.5</ele>
        <time>2015-09-24T09:04:00Z</time>
      </trkpt>
      <trkpt lat="42.26483" lon="0.0589">
        <ele>823.1</ele>
        <time>2015-09-24T09:04:02Z</time>
      </trkpt>
      <trkpt lat="42.26479" lon="0.05888">
        <ele>823.7</ele>
        <time>2015-09-24T09:04:04Z</time>
      </trkpt>
      <trkpt lat="42.26476" lon="0.05887">
        <ele>824.3</ele>
        <time>2015-09-24T09:04:06Z</time>
      </trkpt>
      <trkpt lat="42.26472" lon="0.05885">
        <ele>824.9</ele>
        <time>2015-09-24T09:04:08Z</time>
      </trkpt>
      <trkpt lat="42.26469" lon="0.05884">
        <ele>825.6</ele>
        <time>2015-09-24T09:04:10Z</time>
      </trkpt>
      <trkpt lat="42.26466" lon="0.05882">
        <ele>826.4</ele>
        <time>2015-09-24T09:04:12Z</time>
      </trkpt>
      <trkpt lat="42.26462" lon="0.05881">
        <ele>827</ele>
        <time>2015-09-24T09:04:14Z</time>
      </trkpt>
      <trkpt lat="42.26459" lon="0.05879">
        <ele>827.8</ele>
        <time>2015-09-24T09:04:16Z</time>
      </trkpt>
      <trkpt lat="42.26456" lon="0.05878">
        <ele>827.7</ele>
        <time>2015-09-24T09:04:18Z</time>
      </trkpt>
      <trkpt lat="42.26453" lon="0.05877">
        <ele>827.2</ele>
        <time>2015-09-24T09:04:23Z</time>
      </trkpt>
      <trkpt lat="42.26451" lon="0.05875">
        <ele>826.9</ele>
        <time>2015-09-24T09:04:26Z</time>
      </trkpt>
      <trkpt lat="42.26449" lon="0.05872">
        <ele>826.1</ele>
        <time>2015-09-24T09:04:29Z</time>
      </trkpt>
      <trkpt lat="42.26446" lon="0.05869">
        <ele>825.3</ele>
        <time>2015-09-24T09:04:32Z</time>
      </trkpt>
      <trkpt lat="42.26442" lon="0.05866">
        <ele>824.4</ele>
        <time>2015-09-24T09:04:35Z</time>
      </trkpt>
      <trkpt lat="42.26439" lon="0.05862">
        <ele>823.5</ele>
        <time>2015-09-24T09:04:37Z</time>
      </trkpt>
      <trkpt lat="42.26436" lon="0.05859">
        <ele>822.5</ele>
        <time>2015-09-24T09:04:39Z</time>
      </trkpt>
      <trkpt lat="42.26432" lon="0.05855">
        <ele>821.3</ele>
        <time>2015-09-24T09:04:41Z</time>
      </trkpt>
      <trkpt lat="42.26428" lon="0.05851">
        <ele>820.1</ele>
        <time>2015-09-24T09:04:43Z</time>
      </trkpt>
      <trkpt lat="42.26424" lon="0.0585">
        <ele>819.3</ele>
        <time>2015-09-24T09:05:05Z</time>
      </trkpt>
      <trkpt lat="42.26427" lon="0.05847">
        <ele>819.4</ele>
        <time>2015-09-24T09:05:35Z</time>
      </trkpt>
      <trkpt lat="42.26424" lon="0.05847">
        <ele>818.8</ele>
        <time>2015-09-24T09:06:03Z</time>
      </trkpt>
      <trkpt lat="42.26424" lon="0.05843">
        <ele>818.4</ele>
        <time>2015-09-24T09:06:07Z</time>
      </trkpt>
      <trkpt lat="42.26427" lon="0.05841">
        <ele>818.5</ele>
        <time>2015-09-24T09:06:13Z</time>
      </trkpt>
      <trkpt lat="42.26431" lon="0.05835">
        <ele>818.3</ele>
        <time>2015-09-24T09:06:15Z</time>
      </trkpt>
      <trkpt lat="42.26433" lon="0.05832">
        <ele>818.2</ele>
        <time>2015-09-24T09:06:16Z</time>
      </trkpt>
      <trkpt lat="42.26435" lon="0.05828">
        <ele>817.9</ele>
        <time>2015-09-24T09:06:17Z</time>
      </trkpt>
      <trkpt lat="42.26437" lon="0.05823">
        <ele>817.6</ele>
        <time>2015-09-24T09:06:18Z</time>
      </trkpt>
      <trkpt lat="42.26439" lon="0.05816">
        <ele>817</ele>
        <time>2015-09-24T09:06:19Z</time>
      </trkpt>
      <trkpt lat="42.2644" lon="0.05808">
        <ele>815.9</ele>
        <time>2015-09-24T09:06:20Z</time>
      </trkpt>
      <trkpt lat="42.2644" lon="0.05799">
        <ele>814.9</ele>
        <time>2015-09-24T09:06:21Z</time>
      </trkpt>
      <trkpt lat="42.26441" lon="0.05791">
        <ele>813.8</ele>
        <time>2015-09-24T09:06:22Z</time>
      </trkpt>
      <trkpt lat="42.26441" lon="0.05783">
        <ele>812.7</ele>
        <time>2015-09-24T09:06:23Z</time>
      </trkpt>
      <trkpt lat="42.2644" lon="0.05776">
        <ele>811.7</ele>
        <time>2015-09-24T09:06:24Z</time>
      </trkpt>
      <trkpt lat="42.2644" lon="0.05769">
        <ele>810.6</ele>
        <time>2015-09-24T09:06:25Z</time>
      </trkpt>
      <trkpt lat="42.2644" lon="0.05763">
        <ele>809.8</ele>
        <time>2015-09-24T09:06:26Z</time>
      </trkpt>
      <trkpt lat="42.26438" lon="0.05759">
        <ele>808.8</ele>
        <time>2015-09-24T09:06:27Z</time>
      </trkpt>
      <trkpt lat="42.26435" lon="0.05757">
        <ele>807.8</ele>
        <time>2015-09-24T09:06:28Z</time>
      </trkpt>
      <trkpt lat="42.26432" lon="0.05757">
        <ele>807</ele>
        <time>2015-09-24T09:06:29Z</time>
      </trkpt>
      <trkpt lat="42.26429" lon="0.05758">
        <ele>806.4</ele>
        <time>2015-09-24T09:06:30Z</time>
      </trkpt>
      <trkpt lat="42.26426" lon="0.05759">
        <ele>805.9</ele>
        <time>2015-09-24T09:06:31Z</time>
      </trkpt>
      <trkpt lat="42.26421" lon="0.0576">
        <ele>805.1</ele>
        <time>2015-09-24T09:06:32Z</time>
      </trkpt>
      <trkpt lat="42.26417" lon="0.05761">
        <ele>804.2</ele>
        <time>2015-09-24T09:06:33Z</time>
      </trkpt>
      <trkpt lat="42.26412" lon="0.05762">
        <ele>803.2</ele>
        <time>2015-09-24T09:06:34Z</time>
      </trkpt>
      <trkpt lat="42.26406" lon="0.05764">
        <ele>802.2</ele>
        <time>2015-09-24T09:06:35Z</time>
      </trkpt>
      <trkpt lat="42.264" lon="0.05766">
        <ele>801.3</ele>
        <time>2015-09-24T09:06:36Z</time>
      </trkpt>
      <trkpt lat="42.26394" lon="0.0577">
        <ele>800.9</ele>
        <time>2015-09-24T09:06:37Z</time>
      </trkpt>
      <trkpt lat="42.26389" lon="0.05775">
        <ele>800.9</ele>
        <time>2015-09-24T09:06:38Z</time>
      </trkpt>
      <trkpt lat="42.26384" lon="0.05781">
        <ele>801.2</ele>
        <time>2015-09-24T09:06:39Z</time>
      </trkpt>
      <trkpt lat="42.2638" lon="0.05787">
        <ele>801.8</ele>
        <time>2015-09-24T09:06:40Z</time>
      </trkpt>
      <trkpt lat="42.26375" lon="0.05793">
        <ele>802.3</ele>
        <time>2015-09-24T09:06:41Z</time>
      </trkpt>
      <trkpt lat="42.2637" lon="0.05797">
        <ele>801.5</ele>
        <time>2015-09-24T09:06:42Z</time>
      </trkpt>
      <trkpt lat="42.26364" lon="0.05801">
        <ele>800.6</ele>
        <time>2015-09-24T09:06:43Z</time>
      </trkpt>
      <trkpt lat="42.2636" lon="0.05803">
        <ele>799.8</ele>
        <time>2015-09-24T09:06:44Z</time>
      </trkpt>
      <trkpt lat="42.26355" lon="0.05807">
        <ele>799.2</ele>
        <time>2015-09-24T09:06:45Z</time>
      </trkpt>
      <trkpt lat="42.26353" lon="0.05811">
        <ele>799.2</ele>
        <time>2015-09-24T09:06:46Z</time>
      </trkpt>
      <trkpt lat="42.26351" lon="0.05814">
        <ele>799.3</ele>
        <time>2015-09-24T09:06:47Z</time>
      </trkpt>
      <trkpt lat="42.26349" lon="0.0582">
        <ele>799.6</ele>
        <time>2015-09-24T09:06:49Z</time>
      </trkpt>
      <trkpt lat="42.26349" lon="0.05823">
        <ele>800.2</ele>
        <time>2015-09-24T09:06:51Z</time>
      </trkpt>
      <trkpt lat="42.26349" lon="0.05828">
        <ele>801.1</ele>
        <time>2015-09-24T09:06:53Z</time>
      </trkpt>
      <trkpt lat="42.26351" lon="0.05834">
        <ele>802.4</ele>
        <time>2015-09-24T09:06:55Z</time>
      </trkpt>
      <trkpt lat="42.26351" lon="0.0584">
        <ele>803.5</ele>
        <time>2015-09-24T09:06:57Z</time>
      </trkpt>
      <trkpt lat="42.26352" lon="0.05847">
        <ele>804.7</ele>
        <time>2015-09-24T09:06:59Z</time>
      </trkpt>
      <trkpt lat="42.26352" lon="0.05853">
        <ele>805.7</ele>
        <time>2015-09-24T09:07:01Z</time>
      </trkpt>
      <trkpt lat="42.26352" lon="0.05857">
        <ele>806.6</ele>
        <time>2015-09-24T09:07:03Z</time>
      </trkpt>
      <trkpt lat="42.26354" lon="0.05862">
        <ele>807.7</ele>
        <time>2015-09-24T09:07:05Z</time>
      </trkpt>
      <trkpt lat="42.26356" lon="0.05869">
        <ele>809.3</ele>
        <time>2015-09-24T09:07:07Z</time>
      </trkpt>
      <trkpt lat="42.26357" lon="0.05872">
        <ele>810.3</ele>
        <time>2015-09-24T09:07:08Z</time>
      </trkpt>
      <trkpt lat="42.26358" lon="0.05875">
        <ele>811.2</ele>
        <time>2015-09-24T09:07:09Z</time>
      </trkpt>
      <trkpt lat="42.2636" lon="0.05879">
        <ele>811.4</ele>
        <time>2015-09-24T09:07:10Z</time>
      </trkpt>
      <trkpt lat="42.26362" lon="0.05882">
        <ele>811.7</ele>
        <time>2015-09-24T09:07:11Z</time>
      </trkpt>
      <trkpt lat="42.26364" lon="0.05887">
        <ele>811.8</ele>
        <time>2015-09-24T09:07:12Z</time>
      </trkpt>
      <trkpt lat="42.26366" lon="0.05893">
        <ele>811.9</ele>
        <time>2015-09-24T09:07:13Z</time>
      </trkpt>
      <trkpt lat="42.26367" lon="0.05901">
        <ele>811.6</ele>
        <time>2015-09-24T09:07:14Z</time>
      </trkpt>
      <trkpt lat="42.26368" lon="0.05907">
        <ele>811.5</ele>
        <time>2015-09-24T09:07:15Z</time>
      </trkpt>
      <trkpt lat="42.2637" lon="0.05911">
        <ele>811.4</ele>
        <time>2015-09-24T09:07:16Z</time>
      </trkpt>
      <trkpt lat="42.26371" lon="0.05918">
        <ele>811.4</ele>
        <time>2015-09-24T09:07:18Z</time>
      </trkpt>
      <trkpt lat="42.26372" lon="0.05923">
        <ele>811.2</ele>
        <time>2015-09-24T09:07:20Z</time>
      </trkpt>
      <trkpt lat="42.26372" lon="0.05916">
        <ele>811.6</ele>
        <time>2015-09-24T09:07:35Z</time>
      </trkpt>
      <trkpt lat="42.2637" lon="0.05913">
        <ele>811.5</ele>
        <time>2015-09-24T09:07:36Z</time>
      </trkpt>
      <trkpt lat="42.26369" lon="0.05909">
        <ele>811.4</ele>
        <time>2015-09-24T09:07:37Z</time>
      </trkpt>
      <trkpt lat="42.26367" lon="0.05905">
        <ele>811.3</ele>
        <time>2015-09-24T09:07:38Z</time>
      </trkpt>
      <trkpt lat="42.26366" lon="0.05901">
        <ele>811.4</ele>
        <time>2015-09-24T09:07:39Z</time>
      </trkpt>
      <trkpt lat="42.26365" lon="0.05897">
        <ele>811.5</ele>
        <time>2015-09-24T09:07:40Z</time>
      </trkpt>
      <trkpt lat="42.26364" lon="0.05893">
        <ele>811.5</ele>
        <time>2015-09-24T09:07:41Z</time>
      </trkpt>
      <trkpt lat="42.26363" lon="0.05889">
        <ele>811.5</ele>
        <time>2015-09-24T09:07:42Z</time>
      </trkpt>
      <trkpt lat="42.26362" lon="0.05885">
        <ele>811.5</ele>
        <time>2015-09-24T09:07:43Z</time>
      </trkpt>
      <trkpt lat="42.26361" lon="0.05881">
        <ele>811.5</ele>
        <time>2015-09-24T09:07:44Z</time>
      </trkpt>
      <trkpt lat="42.2636" lon="0.05878">
        <ele>811.4</ele>
        <time>2015-09-24T09:07:45Z</time>
      </trkpt>
      <trkpt lat="42.26359" lon="0.05874">
        <ele>811.1</ele>
        <time>2015-09-24T09:07:46Z</time>
      </trkpt>
      <trkpt lat="42.26357" lon="0.05871">
        <ele>810.1</ele>
        <time>2015-09-24T09:07:47Z</time>
      </trkpt>
      <trkpt lat="42.26356" lon="0.05867">
        <ele>809.1</ele>
        <time>2015-09-24T09:07:48Z</time>
      </trkpt>
      <trkpt lat="42.26354" lon="0.05864">
        <ele>808.1</ele>
        <time>2015-09-24T09:07:49Z</time>
      </trkpt>
      <trkpt lat="42.26353" lon="0.0586">
        <ele>807.2</ele>
        <time>2015-09-24T09:07:50Z</time>
      </trkpt>
      <trkpt lat="42.26352" lon="0.05856">
        <ele>806.2</ele>
        <time>2015-09-24T09:07:51Z</time>
      </trkpt>
      <trkpt lat="42.26351" lon="0.05852">
        <ele>805.4</ele>
        <time>2015-09-24T09:07:52Z</time>
      </trkpt>
      <trkpt lat="42.2635" lon="0.05848">
        <ele>804.6</ele>
        <time>2015-09-24T09:07:53Z</time>
      </trkpt>
      <trkpt lat="42.2635" lon="0.05844">
        <ele>803.8</ele>
        <time>2015-09-24T09:07:54Z</time>
      </trkpt>
      <trkpt lat="42.2635" lon="0.0584">
        <ele>803.1</ele>
        <time>2015-09-24T09:07:55Z</time>
      </trkpt>
      <trkpt lat="42.2635" lon="0.05834">
        <ele>802.1</ele>
        <time>2015-09-24T09:07:56Z</time>
      </trkpt>
      <trkpt lat="42.26349" lon="0.05829">
        <ele>801</ele>
        <time>2015-09-24T09:07:57Z</time>
      </trkpt>
      <trkpt lat="42.26348" lon="0.05824">
        <ele>800.1</ele>
        <time>2015-09-24T09:07:58Z</time>
      </trkpt>
      <trkpt lat="42.26348" lon="0.05819">
        <ele>799.2</ele>
        <time>2015-09-24T09:07:59Z</time>
      </trkpt>
      <trkpt lat="42.26348" lon="0.05814">
        <ele>798.3</ele>
        <time>2015-09-24T09:08:01Z</time>
      </trkpt>
      <trkpt lat="42.26348" lon="0.05809">
        <ele>797.7</ele>
        <time>2015-09-24T09:08:03Z</time>
      </trkpt>
      <trkpt lat="42.26349" lon="0.05804">
        <ele>797</ele>
        <time>2015-09-24T09:08:05Z</time>
      </trkpt>
      <trkpt lat="42.26349" lon="0.058">
        <ele>796.5</ele>
        <time>2015-09-24T09:08:07Z</time>
      </trkpt>
      <trkpt lat="42.26349" lon="0.05808">
        <ele>797.6</ele>
        <time>2015-09-24T09:10:22Z</time>
      </trkpt>
      <trkpt lat="42.26349" lon="0.05814">
        <ele>798.7</ele>
        <time>2015-09-24T09:10:24Z</time>
      </trkpt>
      <trkpt lat="42.26349" lon="0.05818">
        <ele>799.4</ele>
        <time>2015-09-24T09:10:25Z</time>
      </trkpt>
      <trkpt lat="42.26349" lon="0.05823">
        <ele>800.3</ele>
        <time>2015-09-24T09:10:26Z</time>
      </trkpt>
      <trkpt lat="42.2635" lon="0.05829">
        <ele>801.3</ele>
        <time>2015-09-24T09:10:27Z</time>
      </trkpt>
      <trkpt lat="42.2635" lon="0.05835">
        <ele>802.4</ele>
        <time>2015-09-24T09:10:28Z</time>
      </trkpt>
      <trkpt lat="42.26351" lon="0.0584">
        <ele>803.5</ele>
        <time>2015-09-24T09:10:29Z</time>
      </trkpt>
      <trkpt lat="42.26352" lon="0.05845">
        <ele>804.5</ele>
        <time>2015-09-24T09:10:30Z</time>
      </trkpt>
      <trkpt lat="42.26352" lon="0.05851">
        <ele>805.5</ele>
        <time>2015-09-24T09:10:31Z</time>
      </trkpt>
      <trkpt lat="42.26353" lon="0.05855">
        <ele>806.4</ele>
        <time>2015-09-24T09:10:32Z</time>
      </trkpt>
      <trkpt lat="42.26354" lon="0.05859">
        <ele>807.3</ele>
        <time>2015-09-24T09:10:33Z</time>
      </trkpt>
      <trkpt lat="42.26355" lon="0.05864">
        <ele>808.3</ele>
        <time>2015-09-24T09:10:34Z</time>
      </trkpt>
      <trkpt lat="42.26356" lon="0.05868">
        <ele>809.5</ele>
        <time>2015-09-24T09:10:35Z</time>
      </trkpt>
      <trkpt lat="42.26358" lon="0.05874">
        <ele>811</ele>
        <time>2015-09-24T09:10:36Z</time>
      </trkpt>
      <trkpt lat="42.2636" lon="0.05879">
        <ele>811.4</ele>
        <time>2015-09-24T09:10:37Z</time>
      </trkpt>
      <trkpt lat="42.26364" lon="0.05886">
        <ele>811.8</ele>
        <time>2015-09-24T09:10:38Z</time>
      </trkpt>
      <trkpt lat="42.26366" lon="0.05893">
        <ele>811.9</ele>
        <time>2015-09-24T09:10:39Z</time>
      </trkpt>
      <trkpt lat="42.26367" lon="0.059">
        <ele>811.7</ele>
        <time>2015-09-24T09:10:40Z</time>
      </trkpt>
      <trkpt lat="42.26369" lon="0.05908">
        <ele>811.7</ele>
        <time>2015-09-24T09:10:41Z</time>
      </trkpt>
      <trkpt lat="42.26371" lon="0.05915">
        <ele>811.6</ele>
        <time>2015-09-24T09:10:42Z</time>
      </trkpt>
      <trkpt lat="42.26373" lon="0.05922">
        <ele>811.5</ele>
        <time>2015-09-24T09:10:43Z</time>
      </trkpt>
      <trkpt lat="42.26375" lon="0.05928">
        <ele>811.5</ele>
        <time>2015-09-24T09:10:44Z</time>
      </trkpt>
      <trkpt lat="42.26376" lon="0.05933">
        <ele>811.4</ele>
        <time>2015-09-24T09:10:45Z</time>
      </trkpt>
      <trkpt lat="42.26377" lon="0.05938">
        <ele>811.2</ele>
        <time>2015-09-24T09:10:46Z</time>
      </trkpt>
      <trkpt lat="42.26378" lon="0.05944">
        <ele>810.9</ele>
        <time>2015-09-24T09:10:47Z</time>
      </trkpt>
      <trkpt lat="42.2638" lon="0.0595">
        <ele>810.7</ele>
        <time>2015-09-24T09:10:48Z</time>
      </trkpt>
      <trkpt lat="42.26382" lon="0.05957">
        <ele>810.5</ele>
        <time>2015-09-24T09:10:49Z</time>
      </trkpt>
      <trkpt lat="42.26383" lon="0.05963">
        <ele>810.2</ele>
        <time>2015-09-24T09:10:50Z</time>
      </trkpt>
      <trkpt lat="42.26385" lon="0.05972">
        <ele>809.5</ele>
        <time>2015-09-24T09:10:51Z</time>
      </trkpt>
      <trkpt lat="42.26385" lon="0.05981">
        <ele>808.6</ele>
        <time>2015-09-24T09:10:52Z</time>
      </trkpt>
      <trkpt lat="42.26386" lon="0.0599">
        <ele>807.8</ele>
        <time>2015-09-24T09:10:53Z</time>
      </trkpt>
      <trkpt lat="42.26387" lon="0.05999">
        <ele>806.9</ele>
        <time>2015-09-24T09:10:54Z</time>
      </trkpt>
      <trkpt lat="42.26388" lon="0.06009">
        <ele>806</ele>
        <time>2015-09-24T09:10:55Z</time>
      </trkpt>
      <trkpt lat="42.2639" lon="0.06019">
        <ele>805.2</ele>
        <time>2015-09-24T09:10:56Z</time>
      </trkpt>
      <trkpt lat="42.26391" lon="0.06028">
        <ele>804.4</ele>
        <time>2015-09-24T09:10:57Z</time>
      </trkpt>
      <trkpt lat="42.26392" lon="0.06035">
        <ele>803.8</ele>
        <time>2015-09-24T09:10:58Z</time>
      </trkpt>
      <trkpt lat="42.26393" lon="0.06042">
        <ele>803.2</ele>
        <time>2015-09-24T09:10:59Z</time>
      </trkpt>
      <trkpt lat="42.26393" lon="0.06047">
        <ele>802.7</ele>
        <time>2015-09-24T09:11:00Z</time>
      </trkpt>
      <trkpt lat="42.26393" lon="0.0605">
        <ele>802.3</ele>
        <time>2015-09-24T09:11:01Z</time>
      </trkpt>
      <trkpt lat="42.26393" lon="0.06056">
        <ele>801.6</ele>
        <time>2015-09-24T09:11:03Z</time>
      </trkpt>
      <trkpt lat="42.26393" lon="0.06062">
        <ele>800.9</ele>
        <time>2015-09-24T09:11:05Z</time>
      </trkpt>
      <trkpt lat="42.26394" lon="0.06069">
        <ele>800.3</ele>
        <time>2015-09-24T09:11:07Z</time>
      </trkpt>
      <trkpt lat="42.26394" lon="0.06076">
        <ele>799.6</ele>
        <time>2015-09-24T09:11:09Z</time>
      </trkpt>
      <trkpt lat="42.26394" lon="0.06083">
        <ele>798.8</ele>
        <time>2015-09-24T09:11:11Z</time>
      </trkpt>
      <trkpt lat="42.26394" lon="0.06089">
        <ele>798</ele>
        <time>2015-09-24T09:11:13Z</time>
      </trkpt>
      <trkpt lat="42.26393" lon="0.06094">
        <ele>797.3</ele>
        <time>2015-09-24T09:11:15Z</time>
      </trkpt>
      <trkpt lat="42.26392" lon="0.06098">
        <ele>796.6</ele>
        <time>2015-09-24T09:11:17Z</time>
      </trkpt>
      <trkpt lat="42.26392" lon="0.06094">
        <ele>797.1</ele>
        <time>2015-09-24T09:11:27Z</time>
      </trkpt>
      <trkpt lat="42.26392" lon="0.06089">
        <ele>797.5</ele>
        <time>2015-09-24T09:11:29Z</time>
      </trkpt>
      <trkpt lat="42.26392" lon="0.06084">
        <ele>798.2</ele>
        <time>2015-09-24T09:11:31Z</time>
      </trkpt>
      <trkpt lat="42.26392" lon="0.06079">
        <ele>798.8</ele>
        <time>2015-09-24T09:11:33Z</time>
      </trkpt>
      <trkpt lat="42.26393" lon="0.06074">
        <ele>799.5</ele>
        <time>2015-09-24T09:11:36Z</time>
      </trkpt>
      <trkpt lat="42.26393" lon="0.06068">
        <ele>800.4</ele>
        <time>2015-09-24T09:11:39Z</time>
      </trkpt>
      <trkpt lat="42.26393" lon="0.06061">
        <ele>801</ele>
        <time>2015-09-24T09:11:41Z</time>
      </trkpt>
      <trkpt lat="42.26392" lon="0.06055">
        <ele>801.6</ele>
        <time>2015-09-24T09:11:43Z</time>
      </trkpt>
      <trkpt lat="42.26392" lon="0.06049">
        <ele>802.3</ele>
        <time>2015-09-24T09:11:45Z</time>
      </trkpt>
      <trkpt lat="42.26392" lon="0.06042">
        <ele>803</ele>
        <time>2015-09-24T09:11:47Z</time>
      </trkpt>
      <trkpt lat="42.26392" lon="0.06035">
        <ele>803.7</ele>
        <time>2015-09-24T09:11:49Z</time>
      </trkpt>
      <trkpt lat="42.26391" lon="0.06029">
        <ele>804.3</ele>
        <time>2015-09-24T09:11:51Z</time>
      </trkpt>
      <trkpt lat="42.2639" lon="0.06022">
        <ele>804.8</ele>
        <time>2015-09-24T09:11:53Z</time>
      </trkpt>
      <trkpt lat="42.26389" lon="0.06016">
        <ele>805.3</ele>
        <time>2015-09-24T09:11:55Z</time>
      </trkpt>
      <trkpt lat="42.26387" lon="0.06009">
        <ele>805.7</ele>
        <time>2015-09-24T09:11:57Z</time>
      </trkpt>
      <trkpt lat="42.26387" lon="0.06003">
        <ele>806.3</ele>
        <time>2015-09-24T09:11:59Z</time>
      </trkpt>
      <trkpt lat="42.26386" lon="0.05996">
        <ele>806.9</ele>
        <time>2015-09-24T09:12:01Z</time>
      </trkpt>
      <trkpt lat="42.26385" lon="0.05993">
        <ele>807.1</ele>
        <time>2015-09-24T09:12:04Z</time>
      </trkpt>
      <trkpt lat="42.26382" lon="0.05991">
        <ele>806.7</ele>
        <time>2015-09-24T09:12:07Z</time>
      </trkpt>
      <trkpt lat="42.26379" lon="0.05987">
        <ele>806.5</ele>
        <time>2015-09-24T09:12:09Z</time>
      </trkpt>
      <trkpt lat="42.26376" lon="0.05982">
        <ele>806.5</ele>
        <time>2015-09-24T09:12:11Z</time>
      </trkpt>
      <trkpt lat="42.26373" lon="0.05979">
        <ele>806.1</ele>
        <time>2015-09-24T09:12:13Z</time>
      </trkpt>
      <trkpt lat="42.26369" lon="0.05979">
        <ele>805</ele>
        <time>2015-09-24T09:12:15Z</time>
      </trkpt>
      <trkpt lat="42.26363" lon="0.05979">
        <ele>803.6</ele>
        <time>2015-09-24T09:12:17Z</time>
      </trkpt>
      <trkpt lat="42.2636" lon="0.05978">
        <ele>803.1</ele>
        <time>2015-09-24T09:12:18Z</time>
      </trkpt>
      <trkpt lat="42.26357" lon="0.05976">
        <ele>802.6</ele>
        <time>2015-09-24T09:12:19Z</time>
      </trkpt>
      <trkpt lat="42.26354" lon="0.05975">
        <ele>802</ele>
        <time>2015-09-24T09:12:20Z</time>
      </trkpt>
      <trkpt lat="42.26351" lon="0.05975">
        <ele>801.2</ele>
        <time>2015-09-24T09:12:21Z</time>
      </trkpt>
      <trkpt lat="42.26348" lon="0.05975">
        <ele>800.4</ele>
        <time>2015-09-24T09:12:22Z</time>
      </trkpt>
      <trkpt lat="42.26343" lon="0.05976">
        <ele>799.2</ele>
        <time>2015-09-24T09:12:23Z</time>
      </trkpt>
      <trkpt lat="42.26339" lon="0.05977">
        <ele>798.2</ele>
        <time>2015-09-24T09:12:24Z</time>
      </trkpt>
      <trkpt lat="42.26336" lon="0.05979">
        <ele>797.1</ele>
        <time>2015-09-24T09:12:25Z</time>
      </trkpt>
      <trkpt lat="42.26333" lon="0.05982">
        <ele>796.2</ele>
        <time>2015-09-24T09:12:26Z</time>
      </trkpt>
      <trkpt lat="42.2633" lon="0.05985">
        <ele>795.2</ele>
        <time>2015-09-24T09:12:27Z</time>
      </trkpt>
      <trkpt lat="42.26327" lon="0.05988">
        <ele>794.2</ele>
        <time>2015-09-24T09:12:28Z</time>
      </trkpt>
      <trkpt lat="42.26324" lon="0.05991">
        <ele>793.2</ele>
        <time>2015-09-24T09:12:29Z</time>
      </trkpt>
      <trkpt lat="42.26321" lon="0.05994">
        <ele>792.2</ele>
        <time>2015-09-24T09:12:30Z</time>
      </trkpt>
      <trkpt lat="42.26318" lon="0.05997">
        <ele>791.2</ele>
        <time>2015-09-24T09:12:31Z</time>
      </trkpt>
      <trkpt lat="42.26315" lon="0.05998">
        <ele>790.4</ele>
        <time>2015-09-24T09:12:32Z</time>
      </trkpt>
      <trkpt lat="42.26311" lon="0.05999">
        <ele>789.6</ele>
        <time>2015-09-24T09:12:33Z</time>
      </trkpt>
      <trkpt lat="42.26307" lon="0.06001">
        <ele>788.4</ele>
        <time>2015-09-24T09:12:35Z</time>
      </trkpt>
      <trkpt lat="42.26302" lon="0.06003">
        <ele>787.2</ele>
        <time>2015-09-24T09:12:37Z</time>
      </trkpt>
      <trkpt lat="42.26299" lon="0.06002">
        <ele>786.6</ele>
        <time>2015-09-24T09:12:38Z</time>
      </trkpt>
      <trkpt lat="42.26295" lon="0.06">
        <ele>785.7</ele>
        <time>2015-09-24T09:12:39Z</time>
      </trkpt>
      <trkpt lat="42.26291" lon="0.05999">
        <ele>785</ele>
        <time>2015-09-24T09:12:40Z</time>
      </trkpt>
      <trkpt lat="42.26288" lon="0.05999">
        <ele>784.5</ele>
        <time>2015-09-24T09:12:41Z</time>
      </trkpt>
      <trkpt lat="42.26285" lon="0.06">
        <ele>784</ele>
        <time>2015-09-24T09:12:42Z</time>
      </trkpt>
      <trkpt lat="42.26282" lon="0.06002">
        <ele>783.5</ele>
        <time>2015-09-24T09:12:43Z</time>
      </trkpt>
      <trkpt lat="42.26279" lon="0.06003">
        <ele>783</ele>
        <time>2015-09-24T09:12:44Z</time>
      </trkpt>
      <trkpt lat="42.26276" lon="0.06004">
        <ele>782.5</ele>
        <time>2015-09-24T09:12:45Z</time>
      </trkpt>
      <trkpt lat="42.26273" lon="0.06003">
        <ele>782.1</ele>
        <time>2015-09-24T09:12:46Z</time>
      </trkpt>
      <trkpt lat="42.2627" lon="0.06003">
        <ele>781.6</ele>
        <time>2015-09-24T09:12:47Z</time>
      </trkpt>
      <trkpt lat="42.26267" lon="0.06003">
        <ele>781.2</ele>
        <time>2015-09-24T09:12:48Z</time>
      </trkpt>
      <trkpt lat="42.26264" lon="0.06005">
        <ele>780.7</ele>
        <time>2015-09-24T09:12:49Z</time>
      </trkpt>
      <trkpt lat="42.26262" lon="0.06007">
        <ele>780.2</ele>
        <time>2015-09-24T09:12:50Z</time>
      </trkpt>
      <trkpt lat="42.26259" lon="0.06011">
        <ele>779.6</ele>
        <time>2015-09-24T09:12:51Z</time>
      </trkpt>
      <trkpt lat="42.26256" lon="0.06015">
        <ele>778.9</ele>
        <time>2015-09-24T09:12:52Z</time>
      </trkpt>
      <trkpt lat="42.26254" lon="0.06021">
        <ele>778.3</ele>
        <time>2015-09-24T09:12:53Z</time>
      </trkpt>
      <trkpt lat="42.26253" lon="0.06027">
        <ele>778</ele>
        <time>2015-09-24T09:12:54Z</time>
      </trkpt>
      <trkpt lat="42.26252" lon="0.06033">
        <ele>777.6</ele>
        <time>2015-09-24T09:12:55Z</time>
      </trkpt>
      <trkpt lat="42.26251" lon="0.06038">
        <ele>777.2</ele>
        <time>2015-09-24T09:12:56Z</time>
      </trkpt>
      <trkpt lat="42.26248" lon="0.06043">
        <ele>776.7</ele>
        <time>2015-09-24T09:12:57Z</time>
      </trkpt>
      <trkpt lat="42.26245" lon="0.06047">
        <ele>776.2</ele>
        <time>2015-09-24T09:12:58Z</time>
      </trkpt>
      <trkpt lat="42.2624" lon="0.06049">
        <ele>775.5</ele>
        <time>2015-09-24T09:12:59Z</time>
      </trkpt>
      <trkpt lat="42.26236" lon="0.06052">
        <ele>774.9</ele>
        <time>2015-09-24T09:13:00Z</time>
      </trkpt>
      <trkpt lat="42.26232" lon="0.06053">
        <ele>774.4</ele>
        <time>2015-09-24T09:13:01Z</time>
      </trkpt>
      <trkpt lat="42.26229" lon="0.06055">
        <ele>774</ele>
        <time>2015-09-24T09:13:02Z</time>
      </trkpt>
      <trkpt lat="42.26226" lon="0.06055">
        <ele>773.5</ele>
        <time>2015-09-24T09:13:03Z</time>
      </trkpt>
      <trkpt lat="42.26222" lon="0.06055">
        <ele>773.1</ele>
        <time>2015-09-24T09:13:04Z</time>
      </trkpt>
      <trkpt lat="42.26219" lon="0.06055">
        <ele>772.7</ele>
        <time>2015-09-24T09:13:05Z</time>
      </trkpt>
      <trkpt lat="42.26215" lon="0.06055">
        <ele>772.3</ele>
        <time>2015-09-24T09:13:06Z</time>
      </trkpt>
      <trkpt lat="42.26212" lon="0.06056">
        <ele>771.9</ele>
        <time>2015-09-24T09:13:07Z</time>
      </trkpt>
      <trkpt lat="42.26208" lon="0.06057">
        <ele>771.4</ele>
        <time>2015-09-24T09:13:08Z</time>
      </trkpt>
      <trkpt lat="42.26204" lon="0.06058">
        <ele>770.9</ele>
        <time>2015-09-24T09:13:09Z</time>
      </trkpt>
      <trkpt lat="42.262" lon="0.06059">
        <ele>770.4</ele>
        <time>2015-09-24T09:13:10Z</time>
      </trkpt>
      <trkpt lat="42.26196" lon="0.06061">
        <ele>769.9</ele>
        <time>2015-09-24T09:13:11Z</time>
      </trkpt>
      <trkpt lat="42.26191" lon="0.06063">
        <ele>769.3</ele>
        <time>2015-09-24T09:13:12Z</time>
      </trkpt>
      <trkpt lat="42.26186" lon="0.06064">
        <ele>768.7</ele>
        <time>2015-09-24T09:13:13Z</time>
      </trkpt>
      <trkpt lat="42.26181" lon="0.06065">
        <ele>768</ele>
        <time>2015-09-24T09:13:14Z</time>
      </trkpt>
      <trkpt lat="42.26175" lon="0.06065">
        <ele>767.3</ele>
        <time>2015-09-24T09:13:15Z</time>
      </trkpt>
      <trkpt lat="42.26168" lon="0.06064">
        <ele>766.6</ele>
        <time>2015-09-24T09:13:16Z</time>
      </trkpt>
      <trkpt lat="42.26162" lon="0.06063">
        <ele>765.9</ele>
        <time>2015-09-24T09:13:17Z</time>
      </trkpt>
      <trkpt lat="42.26156" lon="0.06062">
        <ele>765.3</ele>
        <time>2015-09-24T09:13:18Z</time>
      </trkpt>
      <trkpt lat="42.26151" lon="0.06062">
        <ele>764.7</ele>
        <time>2015-09-24T09:13:19Z</time>
      </trkpt>
      <trkpt lat="42.26146" lon="0.06062">
        <ele>764.2</ele>
        <time>2015-09-24T09:13:20Z</time>
      </trkpt>
      <trkpt lat="42.26143" lon="0.06064">
        <ele>763.8</ele>
        <time>2015-09-24T09:13:21Z</time>
      </trkpt>
      <trkpt lat="42.2614" lon="0.06066">
        <ele>763.4</ele>
        <time>2015-09-24T09:13:22Z</time>
      </trkpt>
      <trkpt lat="42.26137" lon="0.0607">
        <ele>763</ele>
        <time>2015-09-24T09:13:23Z</time>
      </trkpt>
      <trkpt lat="42.26133" lon="0.06074">
        <ele>762.5</ele>
        <time>2015-09-24T09:13:24Z</time>
      </trkpt>
      <trkpt lat="42.26128" lon="0.06078">
        <ele>761.9</ele>
        <time>2015-09-24T09:13:25Z</time>
      </trkpt>
      <trkpt lat="42.26123" lon="0.06082">
        <ele>761.2</ele>
        <time>2015-09-24T09:13:26Z</time>
      </trkpt>
      <trkpt lat="42.26118" lon="0.06086">
        <ele>760.3</ele>
        <time>2015-09-24T09:13:27Z</time>
      </trkpt>
      <trkpt lat="42.26113" lon="0.06091">
        <ele>759.3</ele>
        <time>2015-09-24T09:13:28Z</time>
      </trkpt>
      <trkpt lat="42.26107" lon="0.06096">
        <ele>758.4</ele>
        <time>2015-09-24T09:13:29Z</time>
      </trkpt>
      <trkpt lat="42.26102" lon="0.061">
        <ele>757.6</ele>
        <time>2015-09-24T09:13:30Z</time>
      </trkpt>
      <trkpt lat="42.26097" lon="0.06104">
        <ele>756.7</ele>
        <time>2015-09-24T09:13:31Z</time>
      </trkpt>
      <trkpt lat="42.26091" lon="0.06108">
        <ele>755.7</ele>
        <time>2015-09-24T09:13:32Z</time>
      </trkpt>
      <trkpt lat="42.26084" lon="0.06112">
        <ele>754.6</ele>
        <time>2015-09-24T09:13:33Z</time>
      </trkpt>
      <trkpt lat="42.26078" lon="0.06114">
        <ele>753.6</ele>
        <time>2015-09-24T09:13:34Z</time>
      </trkpt>
      <trkpt lat="42.26074" lon="0.06118">
        <ele>753</ele>
        <time>2015-09-24T09:13:35Z</time>
      </trkpt>
      <trkpt lat="42.26069" lon="0.0612">
        <ele>752.2</ele>
        <time>2015-09-24T09:13:36Z</time>
      </trkpt>
      <trkpt lat="42.26065" lon="0.06121">
        <ele>751.5</ele>
        <time>2015-09-24T09:13:37Z</time>
      </trkpt>
      <trkpt lat="42.2606" lon="0.06122">
        <ele>750.8</ele>
        <time>2015-09-24T09:13:38Z</time>
      </trkpt>
      <trkpt lat="42.26056" lon="0.06122">
        <ele>750.2</ele>
        <time>2015-09-24T09:13:39Z</time>
      </trkpt>
      <trkpt lat="42.26051" lon="0.06123">
        <ele>749.4</ele>
        <time>2015-09-24T09:13:40Z</time>
      </trkpt>
      <trkpt lat="42.26047" lon="0.06124">
        <ele>748.8</ele>
        <time>2015-09-24T09:13:41Z</time>
      </trkpt>
      <trkpt lat="42.26043" lon="0.06125">
        <ele>748.2</ele>
        <time>2015-09-24T09:13:42Z</time>
      </trkpt>
      <trkpt lat="42.26039" lon="0.06126">
        <ele>747.8</ele>
        <time>2015-09-24T09:13:43Z</time>
      </trkpt>
      <trkpt lat="42.26037" lon="0.06127">
        <ele>747.5</ele>
        <time>2015-09-24T09:13:44Z</time>
      </trkpt>
      <trkpt lat="42.26032" lon="0.0613">
        <ele>747</ele>
        <time>2015-09-24T09:13:46Z</time>
      </trkpt>
      <trkpt lat="42.26029" lon="0.06132">
        <ele>746.7</ele>
        <time>2015-09-24T09:13:47Z</time>
      </trkpt>
      <trkpt lat="42.26025" lon="0.06133">
        <ele>746.3</ele>
        <time>2015-09-24T09:13:49Z</time>
      </trkpt>
      <trkpt lat="42.26022" lon="0.06132">
        <ele>746.1</ele>
        <time>2015-09-24T09:13:50Z</time>
      </trkpt>
      <trkpt lat="42.26019" lon="0.06131">
        <ele>745.9</ele>
        <time>2015-09-24T09:13:51Z</time>
      </trkpt>
      <trkpt lat="42.26016" lon="0.06129">
        <ele>745.7</ele>
        <time>2015-09-24T09:13:52Z</time>
      </trkpt>
      <trkpt lat="42.26014" lon="0.06127">
        <ele>745.5</ele>
        <time>2015-09-24T09:13:53Z</time>
      </trkpt>
      <trkpt lat="42.26011" lon="0.06125">
        <ele>745.4</ele>
        <time>2015-09-24T09:13:54Z</time>
      </trkpt>
      <trkpt lat="42.26008" lon="0.06122">
        <ele>745.2</ele>
        <time>2015-09-24T09:13:55Z</time>
      </trkpt>
      <trkpt lat="42.26006" lon="0.0612">
        <ele>744.9</ele>
        <time>2015-09-24T09:13:56Z</time>
      </trkpt>
      <trkpt lat="42.26003" lon="0.06117">
        <ele>744.7</ele>
        <time>2015-09-24T09:13:57Z</time>
      </trkpt>
      <trkpt lat="42.25999" lon="0.06114">
        <ele>744.3</ele>
        <time>2015-09-24T09:13:58Z</time>
      </trkpt>
      <trkpt lat="42.25995" lon="0.0611">
        <ele>744</ele>
        <time>2015-09-24T09:13:59Z</time>
      </trkpt>
      <trkpt lat="42.2599" lon="0.06104">
        <ele>743.5</ele>
        <time>2015-09-24T09:14:00Z</time>
      </trkpt>
      <trkpt lat="42.25986" lon="0.061">
        <ele>743.2</ele>
        <time>2015-09-24T09:14:01Z</time>
      </trkpt>
      <trkpt lat="42.25983" lon="0.06096">
        <ele>742.9</ele>
        <time>2015-09-24T09:14:02Z</time>
      </trkpt>
      <trkpt lat="42.25979" lon="0.06092">
        <ele>742.6</ele>
        <time>2015-09-24T09:14:03Z</time>
      </trkpt>
      <trkpt lat="42.25975" lon="0.06088">
        <ele>742.3</ele>
        <time>2015-09-24T09:14:04Z</time>
      </trkpt>
      <trkpt lat="42.25971" lon="0.06083">
        <ele>742</ele>
        <time>2015-09-24T09:14:05Z</time>
      </trkpt>
      <trkpt lat="42.25968" lon="0.06079">
        <ele>741.7</ele>
        <time>2015-09-24T09:14:06Z</time>
      </trkpt>
      <trkpt lat="42.25964" lon="0.06074">
        <ele>741.5</ele>
        <time>2015-09-24T09:14:07Z</time>
      </trkpt>
      <trkpt lat="42.25961" lon="0.06069">
        <ele>741.2</ele>
        <time>2015-09-24T09:14:08Z</time>
      </trkpt>
      <trkpt lat="42.25958" lon="0.06065">
        <ele>741</ele>
        <time>2015-09-24T09:14:09Z</time>
      </trkpt>
      <trkpt lat="42.25955" lon="0.06061">
        <ele>740.5</ele>
        <time>2015-09-24T09:14:10Z</time>
      </trkpt>
      <trkpt lat="42.25952" lon="0.06057">
        <ele>739.9</ele>
        <time>2015-09-24T09:14:11Z</time>
      </trkpt>
      <trkpt lat="42.25949" lon="0.06054">
        <ele>739.3</ele>
        <time>2015-09-24T09:14:12Z</time>
      </trkpt>
      <trkpt lat="42.25945" lon="0.0605">
        <ele>738.7</ele>
        <time>2015-09-24T09:14:13Z</time>
      </trkpt>
      <trkpt lat="42.25941" lon="0.06047">
        <ele>738.1</ele>
        <time>2015-09-24T09:14:14Z</time>
      </trkpt>
      <trkpt lat="42.25938" lon="0.06043">
        <ele>737.6</ele>
        <time>2015-09-24T09:14:15Z</time>
      </trkpt>
      <trkpt lat="42.25935" lon="0.06039">
        <ele>736.9</ele>
        <time>2015-09-24T09:14:16Z</time>
      </trkpt>
      <trkpt lat="42.25932" lon="0.06033">
        <ele>736.1</ele>
        <time>2015-09-24T09:14:17Z</time>
      </trkpt>
      <trkpt lat="42.25929" lon="0.06028">
        <ele>735.4</ele>
        <time>2015-09-24T09:14:18Z</time>
      </trkpt>
      <trkpt lat="42.25926" lon="0.06024">
        <ele>734.7</ele>
        <time>2015-09-24T09:14:19Z</time>
      </trkpt>
      <trkpt lat="42.25922" lon="0.0602">
        <ele>733.9</ele>
        <time>2015-09-24T09:14:20Z</time>
      </trkpt>
      <trkpt lat="42.25919" lon="0.06018">
        <ele>733.4</ele>
        <time>2015-09-24T09:14:21Z</time>
      </trkpt>
      <trkpt lat="42.25916" lon="0.06017">
        <ele>732.8</ele>
        <time>2015-09-24T09:14:23Z</time>
      </trkpt>
      <trkpt lat="42.25913" lon="0.06018">
        <ele>732.5</ele>
        <time>2015-09-24T09:14:29Z</time>
      </trkpt>
      <trkpt lat="42.2591" lon="0.06016">
        <ele>731.9</ele>
        <time>2015-09-24T09:14:34Z</time>
      </trkpt>
      <trkpt lat="42.25908" lon="0.06012">
        <ele>731.6</ele>
        <time>2015-09-24T09:14:36Z</time>
      </trkpt>
      <trkpt lat="42.25909" lon="0.06006">
        <ele>731.5</ele>
        <time>2015-09-24T09:14:38Z</time>
      </trkpt>
      <trkpt lat="42.25911" lon="0.06001">
        <ele>731.4</ele>
        <time>2015-09-24T09:14:39Z</time>
      </trkpt>
      <trkpt lat="42.25912" lon="0.05997">
        <ele>731.4</ele>
        <time>2015-09-24T09:14:40Z</time>
      </trkpt>
      <trkpt lat="42.25913" lon="0.05993">
        <ele>731.4</ele>
        <time>2015-09-24T09:14:41Z</time>
      </trkpt>
      <trkpt lat="42.25914" lon="0.05988">
        <ele>731.4</ele>
        <time>2015-09-24T09:14:42Z</time>
      </trkpt>
      <trkpt lat="42.25915" lon="0.05984">
        <ele>731.3</ele>
        <time>2015-09-24T09:14:43Z</time>
      </trkpt>
      <trkpt lat="42.25915" lon="0.05979">
        <ele>731.2</ele>
        <time>2015-09-24T09:14:44Z</time>
      </trkpt>
      <trkpt lat="42.25916" lon="0.05975">
        <ele>731.1</ele>
        <time>2015-09-24T09:14:45Z</time>
      </trkpt>
      <trkpt lat="42.25917" lon="0.05972">
        <ele>731.1</ele>
        <time>2015-09-24T09:14:46Z</time>
      </trkpt>
      <trkpt lat="42.2592" lon="0.05968">
        <ele>731.3</ele>
        <time>2015-09-24T09:14:47Z</time>
      </trkpt>
      <trkpt lat="42.25923" lon="0.05965">
        <ele>731.5</ele>
        <time>2015-09-24T09:14:48Z</time>
      </trkpt>
      <trkpt lat="42.25925" lon="0.05962">
        <ele>731.6</ele>
        <time>2015-09-24T09:14:49Z</time>
      </trkpt>
      <trkpt lat="42.25927" lon="0.05959">
        <ele>731.7</ele>
        <time>2015-09-24T09:14:50Z</time>
      </trkpt>
      <trkpt lat="42.25928" lon="0.05955">
        <ele>731.6</ele>
        <time>2015-09-24T09:14:51Z</time>
      </trkpt>
      <trkpt lat="42.25925" lon="0.05951">
        <ele>731.2</ele>
        <time>2015-09-24T09:14:53Z</time>
      </trkpt>
      <trkpt lat="42.25922" lon="0.05948">
        <ele>730.8</ele>
        <time>2015-09-24T09:14:55Z</time>
      </trkpt>
      <trkpt lat="42.25919" lon="0.05945">
        <ele>730.5</ele>
        <time>2015-09-24T09:14:57Z</time>
      </trkpt>
      <trkpt lat="42.25916" lon="0.05942">
        <ele>730.2</ele>
        <time>2015-09-24T09:14:59Z</time>
      </trkpt>
      <trkpt lat="42.25914" lon="0.0594">
        <ele>729.9</ele>
        <time>2015-09-24T09:15:01Z</time>
      </trkpt>
      <trkpt lat="42.25911" lon="0.05937">
        <ele>729.6</ele>
        <time>2015-09-24T09:15:03Z</time>
      </trkpt>
      <trkpt lat="42.25908" lon="0.05935">
        <ele>729.2</ele>
        <time>2015-09-24T09:15:05Z</time>
      </trkpt>
      <trkpt lat="42.25904" lon="0.05932">
        <ele>728.8</ele>
        <time>2015-09-24T09:15:07Z</time>
      </trkpt>
      <trkpt lat="42.25899" lon="0.05929">
        <ele>728.3</ele>
        <time>2015-09-24T09:15:09Z</time>
      </trkpt>
      <trkpt lat="42.25895" lon="0.05924">
        <ele>727.9</ele>
        <time>2015-09-24T09:15:11Z</time>
      </trkpt>
      <trkpt lat="42.25893" lon="0.05921">
        <ele>727.7</ele>
        <time>2015-09-24T09:15:12Z</time>
      </trkpt>
      <trkpt lat="42.25889" lon="0.05918">
        <ele>727.3</ele>
        <time>2015-09-24T09:15:14Z</time>
      </trkpt>
      <trkpt lat="42.25884" lon="0.05916">
        <ele>726.8</ele>
        <time>2015-09-24T09:15:16Z</time>
      </trkpt>
      <trkpt lat="42.2588" lon="0.05916">
        <ele>726.4</ele>
        <time>2015-09-24T09:15:18Z</time>
      </trkpt>
      <trkpt lat="42.25875" lon="0.05919">
        <ele>726</ele>
        <time>2015-09-24T09:15:20Z</time>
      </trkpt>
      <trkpt lat="42.25872" lon="0.0592">
        <ele>725.8</ele>
        <time>2015-09-24T09:15:21Z</time>
      </trkpt>
      <trkpt lat="42.25869" lon="0.0592">
        <ele>725.7</ele>
        <time>2015-09-24T09:15:22Z</time>
      </trkpt>
      <trkpt lat="42.25865" lon="0.05922">
        <ele>725.5</ele>
        <time>2015-09-24T09:15:23Z</time>
      </trkpt>
      <trkpt lat="42.25863" lon="0.05923">
        <ele>725.3</ele>
        <time>2015-09-24T09:15:24Z</time>
      </trkpt>
      <trkpt lat="42.2586" lon="0.05924">
        <ele>725.2</ele>
        <time>2015-09-24T09:15:25Z</time>
      </trkpt>
      <trkpt lat="42.25857" lon="0.05925">
        <ele>725.1</ele>
        <time>2015-09-24T09:15:26Z</time>
      </trkpt>
      <trkpt lat="42.25854" lon="0.05926">
        <ele>724.9</ele>
        <time>2015-09-24T09:15:27Z</time>
      </trkpt>
      <trkpt lat="42.25851" lon="0.05927">
        <ele>724.7</ele>
        <time>2015-09-24T09:15:28Z</time>
      </trkpt>
      <trkpt lat="42.25846" lon="0.05927">
        <ele>724.5</ele>
        <time>2015-09-24T09:15:29Z</time>
      </trkpt>
      <trkpt lat="42.25838" lon="0.05928">
        <ele>724</ele>
        <time>2015-09-24T09:15:30Z</time>
      </trkpt>
      <trkpt lat="42.25832" lon="0.05929">
        <ele>723.8</ele>
        <time>2015-09-24T09:15:31Z</time>
      </trkpt>
      <trkpt lat="42.25826" lon="0.05929">
        <ele>723.4</ele>
        <time>2015-09-24T09:15:32Z</time>
      </trkpt>
      <trkpt lat="42.25819" lon="0.0593">
        <ele>723.1</ele>
        <time>2015-09-24T09:15:33Z</time>
      </trkpt>
      <trkpt lat="42.25813" lon="0.05929">
        <ele>722.8</ele>
        <time>2015-09-24T09:15:34Z</time>
      </trkpt>
      <trkpt lat="42.25807" lon="0.05929">
        <ele>722.4</ele>
        <time>2015-09-24T09:15:35Z</time>
      </trkpt>
      <trkpt lat="42.258" lon="0.05927">
        <ele>722.1</ele>
        <time>2015-09-24T09:15:36Z</time>
      </trkpt>
      <trkpt lat="42.25793" lon="0.05925">
        <ele>721.7</ele>
        <time>2015-09-24T09:15:37Z</time>
      </trkpt>
      <trkpt lat="42.25787" lon="0.05922">
        <ele>721</ele>
        <time>2015-09-24T09:15:38Z</time>
      </trkpt>
      <trkpt lat="42.25781" lon="0.05919">
        <ele>720.3</ele>
        <time>2015-09-24T09:15:39Z</time>
      </trkpt>
      <trkpt lat="42.25774" lon="0.05916">
        <ele>719.5</ele>
        <time>2015-09-24T09:15:40Z</time>
      </trkpt>
      <trkpt lat="42.25769" lon="0.05912">
        <ele>718.9</ele>
        <time>2015-09-24T09:15:41Z</time>
      </trkpt>
      <trkpt lat="42.25763" lon="0.05909">
        <ele>718.2</ele>
        <time>2015-09-24T09:15:42Z</time>
      </trkpt>
      <trkpt lat="42.25756" lon="0.05906">
        <ele>717.5</ele>
        <time>2015-09-24T09:15:43Z</time>
      </trkpt>
      <trkpt lat="42.2575" lon="0.05903">
        <ele>716.8</ele>
        <time>2015-09-24T09:15:44Z</time>
      </trkpt>
      <trkpt lat="42.25744" lon="0.059">
        <ele>716.2</ele>
        <time>2015-09-24T09:15:45Z</time>
      </trkpt>
      <trkpt lat="42.25739" lon="0.05897">
        <ele>715.7</ele>
        <time>2015-09-24T09:15:46Z</time>
      </trkpt>
      <trkpt lat="42.25733" lon="0.05893">
        <ele>715.1</ele>
        <time>2015-09-24T09:15:47Z</time>
      </trkpt>
      <trkpt lat="42.25727" lon="0.0589">
        <ele>714.6</ele>
        <time>2015-09-24T09:15:48Z</time>
      </trkpt>
      <trkpt lat="42.25722" lon="0.05887">
        <ele>714.1</ele>
        <time>2015-09-24T09:15:49Z</time>
      </trkpt>
      <trkpt lat="42.25717" lon="0.05886">
        <ele>713.6</ele>
        <time>2015-09-24T09:15:50Z</time>
      </trkpt>
      <trkpt lat="42.25712" lon="0.05886">
        <ele>713.2</ele>
        <time>2015-09-24T09:15:51Z</time>
      </trkpt>
      <trkpt lat="42.25709" lon="0.05884">
        <ele>712.8</ele>
        <time>2015-09-24T09:15:52Z</time>
      </trkpt>
      <trkpt lat="42.25705" lon="0.05881">
        <ele>712.4</ele>
        <time>2015-09-24T09:15:53Z</time>
      </trkpt>
      <trkpt lat="42.25702" lon="0.05878">
        <ele>712</ele>
        <time>2015-09-24T09:15:54Z</time>
      </trkpt>
      <trkpt lat="42.25698" lon="0.05874">
        <ele>711.5</ele>
        <time>2015-09-24T09:15:55Z</time>
      </trkpt>
      <trkpt lat="42.25695" lon="0.05872">
        <ele>710.7</ele>
        <time>2015-09-24T09:15:56Z</time>
      </trkpt>
      <trkpt lat="42.25691" lon="0.05869">
        <ele>709.9</ele>
        <time>2015-09-24T09:15:57Z</time>
      </trkpt>
      <trkpt lat="42.25688" lon="0.05866">
        <ele>709.2</ele>
        <time>2015-09-24T09:15:59Z</time>
      </trkpt>
      <trkpt lat="42.25686" lon="0.05863">
        <ele>708.6</ele>
        <time>2015-09-24T09:16:02Z</time>
      </trkpt>
      <trkpt lat="42.25683" lon="0.05861">
        <ele>708</ele>
        <time>2015-09-24T09:16:04Z</time>
      </trkpt>
      <trkpt lat="42.2568" lon="0.05858">
        <ele>707.3</ele>
        <time>2015-09-24T09:16:07Z</time>
      </trkpt>
      <trkpt lat="42.25678" lon="0.05852">
        <ele>706.5</ele>
        <time>2015-09-24T09:16:10Z</time>
      </trkpt>
      <trkpt lat="42.25677" lon="0.05849">
        <ele>705.9</ele>
        <time>2015-09-24T09:16:11Z</time>
      </trkpt>
      <trkpt lat="42.25675" lon="0.05846">
        <ele>705.4</ele>
        <time>2015-09-24T09:16:12Z</time>
      </trkpt>
      <trkpt lat="42.25673" lon="0.05842">
        <ele>704.8</ele>
        <time>2015-09-24T09:16:13Z</time>
      </trkpt>
      <trkpt lat="42.25671" lon="0.05839">
        <ele>704.2</ele>
        <time>2015-09-24T09:16:14Z</time>
      </trkpt>
      <trkpt lat="42.25669" lon="0.05836">
        <ele>703.6</ele>
        <time>2015-09-24T09:16:15Z</time>
      </trkpt>
      <trkpt lat="42.25666" lon="0.05834">
        <ele>703</ele>
        <time>2015-09-24T09:16:16Z</time>
      </trkpt>
      <trkpt lat="42.25664" lon="0.05831">
        <ele>702.4</ele>
        <time>2015-09-24T09:16:17Z</time>
      </trkpt>
      <trkpt lat="42.25662" lon="0.05828">
        <ele>701.8</ele>
        <time>2015-09-24T09:16:18Z</time>
      </trkpt>
      <trkpt lat="42.2566" lon="0.05824">
        <ele>701.1</ele>
        <time>2015-09-24T09:16:19Z</time>
      </trkpt>
      <trkpt lat="42.25657" lon="0.0582">
        <ele>700.4</ele>
        <time>2015-09-24T09:16:20Z</time>
      </trkpt>
      <trkpt lat="42.25655" lon="0.05817">
        <ele>699.7</ele>
        <time>2015-09-24T09:16:21Z</time>
      </trkpt>
      <trkpt lat="42.25652" lon="0.05814">
        <ele>699</ele>
        <time>2015-09-24T09:16:22Z</time>
      </trkpt>
      <trkpt lat="42.25649" lon="0.05812">
        <ele>698.4</ele>
        <time>2015-09-24T09:16:23Z</time>
      </trkpt>
      <trkpt lat="42.25646" lon="0.05811">
        <ele>697.9</ele>
        <time>2015-09-24T09:16:24Z</time>
      </trkpt>
      <trkpt lat="42.25644" lon="0.05809">
        <ele>697.3</ele>
        <time>2015-09-24T09:16:26Z</time>
      </trkpt>
      <trkpt lat="42.25641" lon="0.05806">
        <ele>696.6</ele>
        <time>2015-09-24T09:16:28Z</time>
      </trkpt>
      <trkpt lat="42.25638" lon="0.05803">
        <ele>695.9</ele>
        <time>2015-09-24T09:16:30Z</time>
      </trkpt>
      <trkpt lat="42.25635" lon="0.05799">
        <ele>695.2</ele>
        <time>2015-09-24T09:16:32Z</time>
      </trkpt>
      <trkpt lat="42.25633" lon="0.05796">
        <ele>694.6</ele>
        <time>2015-09-24T09:16:34Z</time>
      </trkpt>
      <trkpt lat="42.25631" lon="0.05793">
        <ele>693.9</ele>
        <time>2015-09-24T09:16:37Z</time>
      </trkpt>
      <trkpt lat="42.25628" lon="0.05791">
        <ele>693.3</ele>
        <time>2015-09-24T09:16:41Z</time>
      </trkpt>
      <trkpt lat="42.25627" lon="0.05786">
        <ele>692.8</ele>
        <time>2015-09-24T09:16:44Z</time>
      </trkpt>
      <trkpt lat="42.25626" lon="0.05782">
        <ele>692.2</ele>
        <time>2015-09-24T09:16:47Z</time>
      </trkpt>
      <trkpt lat="42.25625" lon="0.05778">
        <ele>691.7</ele>
        <time>2015-09-24T09:16:50Z</time>
      </trkpt>
      <trkpt lat="42.25624" lon="0.05774">
        <ele>691.2</ele>
        <time>2015-09-24T09:16:53Z</time>
      </trkpt>
      <trkpt lat="42.25622" lon="0.05771">
        <ele>690.6</ele>
        <time>2015-09-24T09:16:56Z</time>
      </trkpt>
      <trkpt lat="42.25621" lon="0.05774">
        <ele>690.5</ele>
        <time>2015-09-24T09:17:02Z</time>
      </trkpt>
      <trkpt lat="42.25618" lon="0.05774">
        <ele>690.1</ele>
        <time>2015-09-24T09:17:07Z</time>
      </trkpt>
      <trkpt lat="42.25616" lon="0.05776">
        <ele>690</ele>
        <time>2015-09-24T09:17:11Z</time>
      </trkpt>
      <trkpt lat="42.25613" lon="0.05777">
        <ele>689.5</ele>
        <time>2015-09-24T09:17:14Z</time>
      </trkpt>
      <trkpt lat="42.25609" lon="0.05777">
        <ele>688.9</ele>
        <time>2015-09-24T09:17:17Z</time>
      </trkpt>
      <trkpt lat="42.25606" lon="0.05778">
        <ele>688.4</ele>
        <time>2015-09-24T09:17:20Z</time>
      </trkpt>
      <trkpt lat="42.25603" lon="0.05779">
        <ele>688</ele>
        <time>2015-09-24T09:17:22Z</time>
      </trkpt>
      <trkpt lat="42.25599" lon="0.0578">
        <ele>687.4</ele>
        <time>2015-09-24T09:17:24Z</time>
      </trkpt>
      <trkpt lat="42.25595" lon="0.05781">
        <ele>686.7</ele>
        <time>2015-09-24T09:17:27Z</time>
      </trkpt>
      <trkpt lat="42.25592" lon="0.05781">
        <ele>686.2</ele>
        <time>2015-09-24T09:17:29Z</time>
      </trkpt>
      <trkpt lat="42.25588" lon="0.05782">
        <ele>685.6</ele>
        <time>2015-09-24T09:17:31Z</time>
      </trkpt>
      <trkpt lat="42.25584" lon="0.05781">
        <ele>684.8</ele>
        <time>2015-09-24T09:17:33Z</time>
      </trkpt>
      <trkpt lat="42.25579" lon="0.05782">
        <ele>684</ele>
        <time>2015-09-24T09:17:35Z</time>
      </trkpt>
      <trkpt lat="42.25575" lon="0.05786">
        <ele>683.3</ele>
        <time>2015-09-24T09:17:37Z</time>
      </trkpt>
      <trkpt lat="42.25573" lon="0.05788">
        <ele>682.9</ele>
        <time>2015-09-24T09:17:38Z</time>
      </trkpt>
      <trkpt lat="42.2557" lon="0.0579">
        <ele>682.4</ele>
        <time>2015-09-24T09:17:39Z</time>
      </trkpt>
      <trkpt lat="42.25567" lon="0.05791">
        <ele>681.9</ele>
        <time>2015-09-24T09:17:40Z</time>
      </trkpt>
      <trkpt lat="42.25564" lon="0.05792">
        <ele>681.2</ele>
        <time>2015-09-24T09:17:41Z</time>
      </trkpt>
      <trkpt lat="42.2556" lon="0.05792">
        <ele>680.5</ele>
        <time>2015-09-24T09:17:42Z</time>
      </trkpt>
      <trkpt lat="42.25556" lon="0.05792">
        <ele>679.8</ele>
        <time>2015-09-24T09:17:43Z</time>
      </trkpt>
      <trkpt lat="42.25553" lon="0.05792">
        <ele>679.1</ele>
        <time>2015-09-24T09:17:44Z</time>
      </trkpt>
      <trkpt lat="42.2555" lon="0.05791">
        <ele>678.6</ele>
        <time>2015-09-24T09:17:45Z</time>
      </trkpt>
      <trkpt lat="42.25548" lon="0.05789">
        <ele>678.2</ele>
        <time>2015-09-24T09:17:48Z</time>
      </trkpt>
      <trkpt lat="42.25548" lon="0.05781">
        <ele>678.4</ele>
        <time>2015-09-24T09:18:31Z</time>
      </trkpt>
      <trkpt lat="42.25542" lon="0.05776">
        <ele>677.6</ele>
        <time>2015-09-24T09:19:23Z</time>
      </trkpt>
      <trkpt lat="42.25538" lon="0.05777">
        <ele>677.7</ele>
        <time>2015-09-24T09:19:25Z</time>
      </trkpt>
      <trkpt lat="42.25534" lon="0.05777">
        <ele>677.9</ele>
        <time>2015-09-24T09:19:27Z</time>
      </trkpt>
      <trkpt lat="42.2553" lon="0.05777">
        <ele>678.1</ele>
        <time>2015-09-24T09:19:29Z</time>
      </trkpt>
      <trkpt lat="42.25526" lon="0.05777">
        <ele>678.2</ele>
        <time>2015-09-24T09:19:31Z</time>
      </trkpt>
      <trkpt lat="42.25523" lon="0.05778">
        <ele>678.3</ele>
        <time>2015-09-24T09:19:33Z</time>
      </trkpt>
      <trkpt lat="42.25521" lon="0.05779">
        <ele>678.4</ele>
        <time>2015-09-24T09:19:43Z</time>
      </trkpt>
      <trkpt lat="42.25518" lon="0.05777">
        <ele>678.7</ele>
        <time>2015-09-24T09:19:49Z</time>
      </trkpt>
      <trkpt lat="42.25515" lon="0.05777">
        <ele>678.8</ele>
        <time>2015-09-24T09:19:53Z</time>
      </trkpt>
      <trkpt lat="42.25514" lon="0.05781">
        <ele>678.6</ele>
        <time>2015-09-24T09:19:56Z</time>
      </trkpt>
      <trkpt lat="42.25513" lon="0.05785">
        <ele>678.4</ele>
        <time>2015-09-24T09:19:59Z</time>
      </trkpt>
      <trkpt lat="42.25511" lon="0.05787">
        <ele>678.4</ele>
        <time>2015-09-24T09:20:01Z</time>
      </trkpt>
      <trkpt lat="42.25509" lon="0.0579">
        <ele>678.3</ele>
        <time>2015-09-24T09:20:03Z</time>
      </trkpt>
      <trkpt lat="42.25506" lon="0.05791">
        <ele>678.3</ele>
        <time>2015-09-24T09:20:05Z</time>
      </trkpt>
      <trkpt lat="42.25503" lon="0.05791">
        <ele>678.5</ele>
        <time>2015-09-24T09:20:06Z</time>
      </trkpt>
      <trkpt lat="42.25499" lon="0.05789">
        <ele>678.7</ele>
        <time>2015-09-24T09:20:07Z</time>
      </trkpt>
      <trkpt lat="42.25496" lon="0.05788">
        <ele>678.9</ele>
        <time>2015-09-24T09:20:08Z</time>
      </trkpt>
      <trkpt lat="42.25492" lon="0.05786">
        <ele>679.2</ele>
        <time>2015-09-24T09:20:10Z</time>
      </trkpt>
      <trkpt lat="42.25496" lon="0.05786">
        <ele>679.1</ele>
        <time>2015-09-24T09:20:46Z</time>
      </trkpt>
      <trkpt lat="42.25499" lon="0.05785">
        <ele>679</ele>
        <time>2015-09-24T09:20:50Z</time>
      </trkpt>
      <trkpt lat="42.25501" lon="0.05782">
        <ele>679.1</ele>
        <time>2015-09-24T09:20:54Z</time>
      </trkpt>
      <trkpt lat="42.25496" lon="0.05785">
        <ele>679.1</ele>
        <time>2015-09-24T09:21:58Z</time>
      </trkpt>
      <trkpt lat="42.25494" lon="0.05788">
        <ele>679</ele>
        <time>2015-09-24T09:22:03Z</time>
      </trkpt>
      <trkpt lat="42.25491" lon="0.05787">
        <ele>679.2</ele>
        <time>2015-09-24T09:22:26Z</time>
      </trkpt>
      <trkpt lat="42.25493" lon="0.05784">
        <ele>679.3</ele>
        <time>2015-09-24T09:22:30Z</time>
      </trkpt>
      <trkpt lat="42.25495" lon="0.05786">
        <ele>679.1</ele>
        <time>2015-09-24T09:23:15Z</time>
      </trkpt>
      <trkpt lat="42.25498" lon="0.05788">
        <ele>678.8</ele>
        <time>2015-09-24T09:23:18Z</time>
      </trkpt>
      <trkpt lat="42.25501" lon="0.0579">
        <ele>678.6</ele>
        <time>2015-09-24T09:23:20Z</time>
      </trkpt>
      <trkpt lat="42.25501" lon="0.05795">
        <ele>678.5</ele>
        <time>2015-09-24T09:23:22Z</time>
      </trkpt>
      <trkpt lat="42.25496" lon="0.05803">
        <ele>678.7</ele>
        <time>2015-09-24T09:23:24Z</time>
      </trkpt>
      <trkpt lat="42.25492" lon="0.05809">
        <ele>678.8</ele>
        <time>2015-09-24T09:23:25Z</time>
      </trkpt>
      <trkpt lat="42.25487" lon="0.05817">
        <ele>678.9</ele>
        <time>2015-09-24T09:23:26Z</time>
      </trkpt>
      <trkpt lat="42.25483" lon="0.05824">
        <ele>678.9</ele>
        <time>2015-09-24T09:23:27Z</time>
      </trkpt>
      <trkpt lat="42.25479" lon="0.05832">
        <ele>678.8</ele>
        <time>2015-09-24T09:23:28Z</time>
      </trkpt>
      <trkpt lat="42.25477" lon="0.05842">
        <ele>678.6</ele>
        <time>2015-09-24T09:23:29Z</time>
      </trkpt>
      <trkpt lat="42.25475" lon="0.05852">
        <ele>678.4</ele>
        <time>2015-09-24T09:23:30Z</time>
      </trkpt>
      <trkpt lat="42.25473" lon="0.05862">
        <ele>678.1</ele>
        <time>2015-09-24T09:23:31Z</time>
      </trkpt>
      <trkpt lat="42.25471" lon="0.05872">
        <ele>677.8</ele>
        <time>2015-09-24T09:23:32Z</time>
      </trkpt>
      <trkpt lat="42.25467" lon="0.05881">
        <ele>677.3</ele>
        <time>2015-09-24T09:23:33Z</time>
      </trkpt>
      <trkpt lat="42.25462" lon="0.0589">
        <ele>676.8</ele>
        <time>2015-09-24T09:23:34Z</time>
      </trkpt>
      <trkpt lat="42.25456" lon="0.05897">
        <ele>676.3</ele>
        <time>2015-09-24T09:23:35Z</time>
      </trkpt>
      <trkpt lat="42.2545" lon="0.05904">
        <ele>676.4</ele>
        <time>2015-09-24T09:23:36Z</time>
      </trkpt>
      <trkpt lat="42.25444" lon="0.05908">
        <ele>676.5</ele>
        <time>2015-09-24T09:23:37Z</time>
      </trkpt>
      <trkpt lat="42.25439" lon="0.05912">
        <ele>676.5</ele>
        <time>2015-09-24T09:23:38Z</time>
      </trkpt>
      <trkpt lat="42.25434" lon="0.05915">
        <ele>676.5</ele>
        <time>2015-09-24T09:23:39Z</time>
      </trkpt>
      <trkpt lat="42.25429" lon="0.05917">
        <ele>676.6</ele>
        <time>2015-09-24T09:23:40Z</time>
      </trkpt>
      <trkpt lat="42.25424" lon="0.05918">
        <ele>676.7</ele>
        <time>2015-09-24T09:23:41Z</time>
      </trkpt>
      <trkpt lat="42.25421" lon="0.05917">
        <ele>676.8</ele>
        <time>2015-09-24T09:23:42Z</time>
      </trkpt>
      <trkpt lat="42.25417" lon="0.05915">
        <ele>677.1</ele>
        <time>2015-09-24T09:23:43Z</time>
      </trkpt>
      <trkpt lat="42.25415" lon="0.05912">
        <ele>677.5</ele>
        <time>2015-09-24T09:23:44Z</time>
      </trkpt>
      <trkpt lat="42.25414" lon="0.05909">
        <ele>677.8</ele>
        <time>2015-09-24T09:23:45Z</time>
      </trkpt>
      <trkpt lat="42.25414" lon="0.05903">
        <ele>678.4</ele>
        <time>2015-09-24T09:23:47Z</time>
      </trkpt>
      <trkpt lat="42.25415" lon="0.05898">
        <ele>678.7</ele>
        <time>2015-09-24T09:23:49Z</time>
      </trkpt>
      <trkpt lat="42.25417" lon="0.05893">
        <ele>679</ele>
        <time>2015-09-24T09:23:51Z</time>
      </trkpt>
      <trkpt lat="42.25419" lon="0.05888">
        <ele>679.3</ele>
        <time>2015-09-24T09:23:53Z</time>
      </trkpt>
      <trkpt lat="42.2542" lon="0.05883">
        <ele>679.5</ele>
        <time>2015-09-24T09:23:55Z</time>
      </trkpt>
      <trkpt lat="42.25422" lon="0.05879">
        <ele>679.8</ele>
        <time>2015-09-24T09:23:57Z</time>
      </trkpt>
      <trkpt lat="42.25423" lon="0.05874">
        <ele>680.1</ele>
        <time>2015-09-24T09:23:59Z</time>
      </trkpt>
      <trkpt lat="42.25423" lon="0.05869">
        <ele>680.4</ele>
        <time>2015-09-24T09:24:01Z</time>
      </trkpt>
      <trkpt lat="42.25424" lon="0.05864">
        <ele>680.6</ele>
        <time>2015-09-24T09:24:03Z</time>
      </trkpt>
      <trkpt lat="42.25424" lon="0.0586">
        <ele>680.9</ele>
        <time>2015-09-24T09:24:05Z</time>
      </trkpt>
      <trkpt lat="42.25424" lon="0.05855">
        <ele>681.3</ele>
        <time>2015-09-24T09:24:07Z</time>
      </trkpt>
      <trkpt lat="42.25424" lon="0.05851">
        <ele>681.5</ele>
        <time>2015-09-24T09:24:09Z</time>
      </trkpt>
      <trkpt lat="42.25424" lon="0.05847">
        <ele>681.9</ele>
        <time>2015-09-24T09:24:11Z</time>
      </trkpt>
      <trkpt lat="42.25423" lon="0.05843">
        <ele>682.3</ele>
        <time>2015-09-24T09:24:13Z</time>
      </trkpt>
      <trkpt lat="42.25423" lon="0.05839">
        <ele>682.6</ele>
        <time>2015-09-24T09:24:15Z</time>
      </trkpt>
      <trkpt lat="42.25422" lon="0.05834">
        <ele>683</ele>
        <time>2015-09-24T09:24:17Z</time>
      </trkpt>
      <trkpt lat="42.25422" lon="0.0583">
        <ele>683.3</ele>
        <time>2015-09-24T09:24:19Z</time>
      </trkpt>
      <trkpt lat="42.25421" lon="0.05826">
        <ele>683.7</ele>
        <time>2015-09-24T09:24:21Z</time>
      </trkpt>
      <trkpt lat="42.25421" lon="0.05822">
        <ele>684.1</ele>
        <time>2015-09-24T09:24:23Z</time>
      </trkpt>
      <trkpt lat="42.2542" lon="0.05818">
        <ele>684.6</ele>
        <time>2015-09-24T09:24:25Z</time>
      </trkpt>
      <trkpt lat="42.25418" lon="0.05813">
        <ele>685.1</ele>
        <time>2015-09-24T09:24:27Z</time>
      </trkpt>
      <trkpt lat="42.25416" lon="0.0581">
        <ele>685.7</ele>
        <time>2015-09-24T09:24:29Z</time>
      </trkpt>
      <trkpt lat="42.25414" lon="0.05806">
        <ele>686.3</ele>
        <time>2015-09-24T09:24:31Z</time>
      </trkpt>
      <trkpt lat="42.25411" lon="0.05803">
        <ele>687</ele>
        <time>2015-09-24T09:24:33Z</time>
      </trkpt>
      <trkpt lat="42.25408" lon="0.05799">
        <ele>687.7</ele>
        <time>2015-09-24T09:24:35Z</time>
      </trkpt>
      <trkpt lat="42.25406" lon="0.05796">
        <ele>688.5</ele>
        <time>2015-09-24T09:24:37Z</time>
      </trkpt>
      <trkpt lat="42.25403" lon="0.05792">
        <ele>689.2</ele>
        <time>2015-09-24T09:24:39Z</time>
      </trkpt>
      <trkpt lat="42.25401" lon="0.05788">
        <ele>689.8</ele>
        <time>2015-09-24T09:24:41Z</time>
      </trkpt>
      <trkpt lat="42.25399" lon="0.05785">
        <ele>690.3</ele>
        <time>2015-09-24T09:24:43Z</time>
      </trkpt>
      <trkpt lat="42.25396" lon="0.05782">
        <ele>690.8</ele>
        <time>2015-09-24T09:24:45Z</time>
      </trkpt>
      <trkpt lat="42.25394" lon="0.05778">
        <ele>691.3</ele>
        <time>2015-09-24T09:24:47Z</time>
      </trkpt>
      <trkpt lat="42.25392" lon="0.05775">
        <ele>691.8</ele>
        <time>2015-09-24T09:24:49Z</time>
      </trkpt>
      <trkpt lat="42.2539" lon="0.05771">
        <ele>692.2</ele>
        <time>2015-09-24T09:24:51Z</time>
      </trkpt>
      <trkpt lat="42.25389" lon="0.05767">
        <ele>692.6</ele>
        <time>2015-09-24T09:24:53Z</time>
      </trkpt>
      <trkpt lat="42.25387" lon="0.05763">
        <ele>693</ele>
        <time>2015-09-24T09:24:55Z</time>
      </trkpt>
      <trkpt lat="42.25384" lon="0.05761">
        <ele>693.5</ele>
        <time>2015-09-24T09:24:57Z</time>
      </trkpt>
      <trkpt lat="42.25381" lon="0.05758">
        <ele>693.9</ele>
        <time>2015-09-24T09:24:59Z</time>
      </trkpt>
      <trkpt lat="42.25378" lon="0.05756">
        <ele>694.4</ele>
        <time>2015-09-24T09:25:01Z</time>
      </trkpt>
      <trkpt lat="42.25375" lon="0.05754">
        <ele>694.8</ele>
        <time>2015-09-24T09:25:03Z</time>
      </trkpt>
      <trkpt lat="42.25373" lon="0.05752">
        <ele>695.1</ele>
        <time>2015-09-24T09:25:05Z</time>
      </trkpt>
      <trkpt lat="42.2537" lon="0.0575">
        <ele>695.3</ele>
        <time>2015-09-24T09:25:07Z</time>
      </trkpt>
      <trkpt lat="42.25368" lon="0.05748">
        <ele>695.5</ele>
        <time>2015-09-24T09:25:09Z</time>
      </trkpt>
      <trkpt lat="42.25365" lon="0.05746">
        <ele>695.7</ele>
        <time>2015-09-24T09:25:11Z</time>
      </trkpt>
      <trkpt lat="42.25362" lon="0.05744">
        <ele>695.8</ele>
        <time>2015-09-24T09:25:13Z</time>
      </trkpt>
      <trkpt lat="42.2536" lon="0.05743">
        <ele>696</ele>
        <time>2015-09-24T09:25:15Z</time>
      </trkpt>
      <trkpt lat="42.25356" lon="0.0574">
        <ele>696.3</ele>
        <time>2015-09-24T09:25:18Z</time>
      </trkpt>
      <trkpt lat="42.25354" lon="0.05737">
        <ele>696.5</ele>
        <time>2015-09-24T09:25:21Z</time>
      </trkpt>
      <trkpt lat="42.25351" lon="0.05735">
        <ele>696.7</ele>
        <time>2015-09-24T09:25:23Z</time>
      </trkpt>
      <trkpt lat="42.25348" lon="0.05733">
        <ele>697</ele>
        <time>2015-09-24T09:25:26Z</time>
      </trkpt>
      <trkpt lat="42.25345" lon="0.05729">
        <ele>697.2</ele>
        <time>2015-09-24T09:25:29Z</time>
      </trkpt>
      <trkpt lat="42.25342" lon="0.05726">
        <ele>697.5</ele>
        <time>2015-09-24T09:25:32Z</time>
      </trkpt>
      <trkpt lat="42.25339" lon="0.05723">
        <ele>697.7</ele>
        <time>2015-09-24T09:25:35Z</time>
      </trkpt>
      <trkpt lat="42.25336" lon="0.0572">
        <ele>698</ele>
        <time>2015-09-24T09:25:38Z</time>
      </trkpt>
      <trkpt lat="42.25333" lon="0.05717">
        <ele>698.3</ele>
        <time>2015-09-24T09:25:41Z</time>
      </trkpt>
      <trkpt lat="42.2533" lon="0.05713">
        <ele>698.5</ele>
        <time>2015-09-24T09:25:44Z</time>
      </trkpt>
      <trkpt lat="42.25327" lon="0.0571">
        <ele>698.8</ele>
        <time>2015-09-24T09:25:47Z</time>
      </trkpt>
      <trkpt lat="42.25324" lon="0.05707">
        <ele>699.1</ele>
        <time>2015-09-24T09:25:50Z</time>
      </trkpt>
      <trkpt lat="42.25322" lon="0.05705">
        <ele>699.4</ele>
        <time>2015-09-24T09:25:52Z</time>
      </trkpt>
      <trkpt lat="42.2532" lon="0.05702">
        <ele>699.6</ele>
        <time>2015-09-24T09:25:54Z</time>
      </trkpt>
      <trkpt lat="42.25317" lon="0.057">
        <ele>699.9</ele>
        <time>2015-09-24T09:25:56Z</time>
      </trkpt>
      <trkpt lat="42.25315" lon="0.05698">
        <ele>700.2</ele>
        <time>2015-09-24T09:25:58Z</time>
      </trkpt>
      <trkpt lat="42.25312" lon="0.05696">
        <ele>700.4</ele>
        <time>2015-09-24T09:26:01Z</time>
      </trkpt>
      <trkpt lat="42.25306" lon="0.05694">
        <ele>700.8</ele>
        <time>2015-09-24T09:27:26Z</time>
      </trkpt>
      <trkpt lat="42.25304" lon="0.05693">
        <ele>701.1</ele>
        <time>2015-09-24T09:27:28Z</time>
      </trkpt>
      <trkpt lat="42.253" lon="0.05692">
        <ele>701.3</ele>
        <time>2015-09-24T09:27:30Z</time>
      </trkpt>
      <trkpt lat="42.25295" lon="0.05691">
        <ele>701.6</ele>
        <time>2015-09-24T09:27:32Z</time>
      </trkpt>
      <trkpt lat="42.2529" lon="0.0569">
        <ele>701.8</ele>
        <time>2015-09-24T09:27:34Z</time>
      </trkpt>
      <trkpt lat="42.25287" lon="0.05689">
        <ele>701.7</ele>
        <time>2015-09-24T09:27:35Z</time>
      </trkpt>
      <trkpt lat="42.25284" lon="0.05688">
        <ele>701.6</ele>
        <time>2015-09-24T09:27:36Z</time>
      </trkpt>
      <trkpt lat="42.2528" lon="0.05686">
        <ele>701.5</ele>
        <time>2015-09-24T09:27:37Z</time>
      </trkpt>
      <trkpt lat="42.25276" lon="0.05685">
        <ele>701.4</ele>
        <time>2015-09-24T09:27:38Z</time>
      </trkpt>
      <trkpt lat="42.25272" lon="0.05683">
        <ele>701.3</ele>
        <time>2015-09-24T09:27:39Z</time>
      </trkpt>
      <trkpt lat="42.25268" lon="0.05681">
        <ele>701.3</ele>
        <time>2015-09-24T09:27:40Z</time>
      </trkpt>
      <trkpt lat="42.25264" lon="0.05678">
        <ele>701.2</ele>
        <time>2015-09-24T09:27:41Z</time>
      </trkpt>
      <trkpt lat="42.25258" lon="0.05674">
        <ele>701.2</ele>
        <time>2015-09-24T09:27:42Z</time>
      </trkpt>
      <trkpt lat="42.25252" lon="0.05668">
        <ele>701.3</ele>
        <time>2015-09-24T09:27:43Z</time>
      </trkpt>
      <trkpt lat="42.25247" lon="0.05662">
        <ele>701.4</ele>
        <time>2015-09-24T09:27:44Z</time>
      </trkpt>
      <trkpt lat="42.25241" lon="0.05655">
        <ele>701.5</ele>
        <time>2015-09-24T09:27:45Z</time>
      </trkpt>
      <trkpt lat="42.25236" lon="0.05649">
        <ele>701.7</ele>
        <time>2015-09-24T09:27:46Z</time>
      </trkpt>
      <trkpt lat="42.25231" lon="0.05643">
        <ele>701.8</ele>
        <time>2015-09-24T09:27:47Z</time>
      </trkpt>
      <trkpt lat="42.25225" lon="0.05636">
        <ele>702</ele>
        <time>2015-09-24T09:27:48Z</time>
      </trkpt>
      <trkpt lat="42.2522" lon="0.05629">
        <ele>702.2</ele>
        <time>2015-09-24T09:27:49Z</time>
      </trkpt>
      <trkpt lat="42.25214" lon="0.05624">
        <ele>702.3</ele>
        <time>2015-09-24T09:27:50Z</time>
      </trkpt>
      <trkpt lat="42.25207" lon="0.0562">
        <ele>702.2</ele>
        <time>2015-09-24T09:27:51Z</time>
      </trkpt>
      <trkpt lat="42.25201" lon="0.05617">
        <ele>702.3</ele>
        <time>2015-09-24T09:27:52Z</time>
      </trkpt>
      <trkpt lat="42.25194" lon="0.05614">
        <ele>702.3</ele>
        <time>2015-09-24T09:27:53Z</time>
      </trkpt>
      <trkpt lat="42.25188" lon="0.05612">
        <ele>702.3</ele>
        <time>2015-09-24T09:27:54Z</time>
      </trkpt>
      <trkpt lat="42.25182" lon="0.0561">
        <ele>702.2</ele>
        <time>2015-09-24T09:27:55Z</time>
      </trkpt>
      <trkpt lat="42.25177" lon="0.05607">
        <ele>702.2</ele>
        <time>2015-09-24T09:27:56Z</time>
      </trkpt>
      <trkpt lat="42.25172" lon="0.05605">
        <ele>702.2</ele>
        <time>2015-09-24T09:27:57Z</time>
      </trkpt>
      <trkpt lat="42.25167" lon="0.05602">
        <ele>702.2</ele>
        <time>2015-09-24T09:27:58Z</time>
      </trkpt>
      <trkpt lat="42.25163" lon="0.05599">
        <ele>702.2</ele>
        <time>2015-09-24T09:27:59Z</time>
      </trkpt>
      <trkpt lat="42.25159" lon="0.05597">
        <ele>702.1</ele>
        <time>2015-09-24T09:28:00Z</time>
      </trkpt>
      <trkpt lat="42.25155" lon="0.05596">
        <ele>702.1</ele>
        <time>2015-09-24T09:28:01Z</time>
      </trkpt>
      <trkpt lat="42.25151" lon="0.05594">
        <ele>702</ele>
        <time>2015-09-24T09:28:02Z</time>
      </trkpt>
      <trkpt lat="42.25147" lon="0.05593">
        <ele>701.9</ele>
        <time>2015-09-24T09:28:03Z</time>
      </trkpt>
      <trkpt lat="42.25143" lon="0.05592">
        <ele>701.9</ele>
        <time>2015-09-24T09:28:04Z</time>
      </trkpt>
      <trkpt lat="42.25139" lon="0.0559">
        <ele>701.8</ele>
        <time>2015-09-24T09:28:05Z</time>
      </trkpt>
      <trkpt lat="42.25136" lon="0.05589">
        <ele>701.7</ele>
        <time>2015-09-24T09:28:06Z</time>
      </trkpt>
      <trkpt lat="42.25132" lon="0.05587">
        <ele>701.6</ele>
        <time>2015-09-24T09:28:07Z</time>
      </trkpt>
      <trkpt lat="42.25128" lon="0.05586">
        <ele>701.5</ele>
        <time>2015-09-24T09:28:08Z</time>
      </trkpt>
      <trkpt lat="42.25123" lon="0.05584">
        <ele>701.5</ele>
        <time>2015-09-24T09:28:09Z</time>
      </trkpt>
      <trkpt lat="42.25119" lon="0.05582">
        <ele>701.4</ele>
        <time>2015-09-24T09:28:10Z</time>
      </trkpt>
      <trkpt lat="42.25114" lon="0.0558">
        <ele>701.4</ele>
        <time>2015-09-24T09:28:11Z</time>
      </trkpt>
      <trkpt lat="42.25109" lon="0.05579">
        <ele>701.4</ele>
        <time>2015-09-24T09:28:12Z</time>
      </trkpt>
      <trkpt lat="42.25105" lon="0.05578">
        <ele>701.3</ele>
        <time>2015-09-24T09:28:13Z</time>
      </trkpt>
      <trkpt lat="42.25101" lon="0.05577">
        <ele>701.3</ele>
        <time>2015-09-24T09:28:14Z</time>
      </trkpt>
      <trkpt lat="42.25098" lon="0.05574">
        <ele>701.3</ele>
        <time>2015-09-24T09:28:15Z</time>
      </trkpt>
      <trkpt lat="42.25094" lon="0.05572">
        <ele>701.3</ele>
        <time>2015-09-24T09:28:16Z</time>
      </trkpt>
      <trkpt lat="42.25091" lon="0.05569">
        <ele>701.3</ele>
        <time>2015-09-24T09:28:17Z</time>
      </trkpt>
      <trkpt lat="42.25088" lon="0.05566">
        <ele>701.3</ele>
        <time>2015-09-24T09:28:18Z</time>
      </trkpt>
      <trkpt lat="42.25085" lon="0.05564">
        <ele>701.3</ele>
        <time>2015-09-24T09:28:19Z</time>
      </trkpt>
      <trkpt lat="42.25082" lon="0.0556">
        <ele>701.3</ele>
        <time>2015-09-24T09:28:20Z</time>
      </trkpt>
      <trkpt lat="42.25079" lon="0.05557">
        <ele>701.3</ele>
        <time>2015-09-24T09:28:21Z</time>
      </trkpt>
      <trkpt lat="42.25076" lon="0.05554">
        <ele>701.3</ele>
        <time>2015-09-24T09:28:22Z</time>
      </trkpt>
      <trkpt lat="42.25072" lon="0.0555">
        <ele>701.3</ele>
        <time>2015-09-24T09:28:23Z</time>
      </trkpt>
      <trkpt lat="42.25069" lon="0.05546">
        <ele>701.3</ele>
        <time>2015-09-24T09:28:24Z</time>
      </trkpt>
      <trkpt lat="42.25066" lon="0.05542">
        <ele>701.3</ele>
        <time>2015-09-24T09:28:25Z</time>
      </trkpt>
      <trkpt lat="42.25063" lon="0.05538">
        <ele>701.4</ele>
        <time>2015-09-24T09:28:26Z</time>
      </trkpt>
      <trkpt lat="42.25059" lon="0.05534">
        <ele>701.5</ele>
        <time>2015-09-24T09:28:27Z</time>
      </trkpt>
      <trkpt lat="42.25055" lon="0.0553">
        <ele>701.6</ele>
        <time>2015-09-24T09:28:28Z</time>
      </trkpt>
      <trkpt lat="42.25051" lon="0.05527">
        <ele>701.7</ele>
        <time>2015-09-24T09:28:29Z</time>
      </trkpt>
      <trkpt lat="42.25047" lon="0.05524">
        <ele>701.8</ele>
        <time>2015-09-24T09:28:30Z</time>
      </trkpt>
      <trkpt lat="42.25043" lon="0.0552">
        <ele>701.8</ele>
        <time>2015-09-24T09:28:31Z</time>
      </trkpt>
      <trkpt lat="42.25038" lon="0.05516">
        <ele>701.8</ele>
        <time>2015-09-24T09:28:32Z</time>
      </trkpt>
      <trkpt lat="42.25034" lon="0.05514">
        <ele>701.8</ele>
        <time>2015-09-24T09:28:33Z</time>
      </trkpt>
      <trkpt lat="42.2503" lon="0.05512">
        <ele>701.7</ele>
        <time>2015-09-24T09:28:34Z</time>
      </trkpt>
      <trkpt lat="42.25025" lon="0.05509">
        <ele>701.7</ele>
        <time>2015-09-24T09:28:35Z</time>
      </trkpt>
      <trkpt lat="42.25021" lon="0.05507">
        <ele>701.6</ele>
        <time>2015-09-24T09:28:36Z</time>
      </trkpt>
      <trkpt lat="42.25016" lon="0.05505">
        <ele>701.6</ele>
        <time>2015-09-24T09:28:37Z</time>
      </trkpt>
      <trkpt lat="42.25011" lon="0.05502">
        <ele>701.5</ele>
        <time>2015-09-24T09:28:38Z</time>
      </trkpt>
      <trkpt lat="42.25006" lon="0.05499">
        <ele>701.5</ele>
        <time>2015-09-24T09:28:39Z</time>
      </trkpt>
      <trkpt lat="42.25002" lon="0.05497">
        <ele>701.4</ele>
        <time>2015-09-24T09:28:40Z</time>
      </trkpt>
      <trkpt lat="42.24997" lon="0.05494">
        <ele>701.3</ele>
        <time>2015-09-24T09:28:41Z</time>
      </trkpt>
      <trkpt lat="42.24992" lon="0.05492">
        <ele>701.3</ele>
        <time>2015-09-24T09:28:42Z</time>
      </trkpt>
      <trkpt lat="42.24987" lon="0.05489">
        <ele>701.2</ele>
        <time>2015-09-24T09:28:43Z</time>
      </trkpt>
      <trkpt lat="42.24982" lon="0.05487">
        <ele>701.1</ele>
        <time>2015-09-24T09:28:44Z</time>
      </trkpt>
      <trkpt lat="42.24977" lon="0.05486">
        <ele>700.9</ele>
        <time>2015-09-24T09:28:45Z</time>
      </trkpt>
      <trkpt lat="42.24972" lon="0.05484">
        <ele>700.8</ele>
        <time>2015-09-24T09:28:46Z</time>
      </trkpt>
      <trkpt lat="42.24967" lon="0.05482">
        <ele>700.7</ele>
        <time>2015-09-24T09:28:47Z</time>
      </trkpt>
      <trkpt lat="42.24962" lon="0.05481">
        <ele>700.6</ele>
        <time>2015-09-24T09:28:48Z</time>
      </trkpt>
      <trkpt lat="42.24957" lon="0.05479">
        <ele>700.4</ele>
        <time>2015-09-24T09:28:49Z</time>
      </trkpt>
      <trkpt lat="42.24952" lon="0.05477">
        <ele>700.2</ele>
        <time>2015-09-24T09:28:50Z</time>
      </trkpt>
      <trkpt lat="42.24946" lon="0.05475">
        <ele>700</ele>
        <time>2015-09-24T09:28:51Z</time>
      </trkpt>
      <trkpt lat="42.2494" lon="0.05474">
        <ele>699.7</ele>
        <time>2015-09-24T09:28:52Z</time>
      </trkpt>
      <trkpt lat="42.24934" lon="0.05472">
        <ele>699.5</ele>
        <time>2015-09-24T09:28:53Z</time>
      </trkpt>
      <trkpt lat="42.24929" lon="0.05469">
        <ele>699.3</ele>
        <time>2015-09-24T09:28:54Z</time>
      </trkpt>
      <trkpt lat="42.24923" lon="0.05466">
        <ele>699.1</ele>
        <time>2015-09-24T09:28:55Z</time>
      </trkpt>
      <trkpt lat="42.24917" lon="0.05463">
        <ele>698.9</ele>
        <time>2015-09-24T09:28:56Z</time>
      </trkpt>
      <trkpt lat="42.24911" lon="0.0546">
        <ele>698.7</ele>
        <time>2015-09-24T09:28:57Z</time>
      </trkpt>
      <trkpt lat="42.24906" lon="0.05457">
        <ele>698.6</ele>
        <time>2015-09-24T09:28:58Z</time>
      </trkpt>
      <trkpt lat="42.249" lon="0.05454">
        <ele>698.5</ele>
        <time>2015-09-24T09:28:59Z</time>
      </trkpt>
      <trkpt lat="42.24895" lon="0.05452">
        <ele>698.4</ele>
        <time>2015-09-24T09:29:00Z</time>
      </trkpt>
      <trkpt lat="42.24889" lon="0.05449">
        <ele>698.4</ele>
        <time>2015-09-24T09:29:01Z</time>
      </trkpt>
      <trkpt lat="42.24884" lon="0.05447">
        <ele>698.3</ele>
        <time>2015-09-24T09:29:02Z</time>
      </trkpt>
      <trkpt lat="42.24879" lon="0.05443">
        <ele>698.3</ele>
        <time>2015-09-24T09:29:03Z</time>
      </trkpt>
      <trkpt lat="42.24874" lon="0.05439">
        <ele>698.3</ele>
        <time>2015-09-24T09:29:04Z</time>
      </trkpt>
      <trkpt lat="42.24869" lon="0.05435">
        <ele>698.4</ele>
        <time>2015-09-24T09:29:05Z</time>
      </trkpt>
      <trkpt lat="42.24866" lon="0.05432">
        <ele>698.5</ele>
        <time>2015-09-24T09:29:06Z</time>
      </trkpt>
      <trkpt lat="42.24862" lon="0.05428">
        <ele>698.6</ele>
        <time>2015-09-24T09:29:07Z</time>
      </trkpt>
      <trkpt lat="42.24858" lon="0.05424">
        <ele>698.7</ele>
        <time>2015-09-24T09:29:08Z</time>
      </trkpt>
      <trkpt lat="42.24855" lon="0.05419">
        <ele>698.9</ele>
        <time>2015-09-24T09:29:09Z</time>
      </trkpt>
      <trkpt lat="42.24851" lon="0.05414">
        <ele>699</ele>
        <time>2015-09-24T09:29:10Z</time>
      </trkpt>
      <trkpt lat="42.24846" lon="0.0541">
        <ele>699</ele>
        <time>2015-09-24T09:29:11Z</time>
      </trkpt>
      <trkpt lat="42.24842" lon="0.05405">
        <ele>699</ele>
        <time>2015-09-24T09:29:12Z</time>
      </trkpt>
      <trkpt lat="42.24837" lon="0.05401">
        <ele>698.9</ele>
        <time>2015-09-24T09:29:13Z</time>
      </trkpt>
      <trkpt lat="42.24832" lon="0.05397">
        <ele>698.9</ele>
        <time>2015-09-24T09:29:14Z</time>
      </trkpt>
      <trkpt lat="42.24828" lon="0.05392">
        <ele>698.8</ele>
        <time>2015-09-24T09:29:15Z</time>
      </trkpt>
      <trkpt lat="42.24823" lon="0.05388">
        <ele>698.7</ele>
        <time>2015-09-24T09:29:16Z</time>
      </trkpt>
      <trkpt lat="42.24818" lon="0.05384">
        <ele>698.6</ele>
        <time>2015-09-24T09:29:17Z</time>
      </trkpt>
      <trkpt lat="42.24814" lon="0.05379">
        <ele>698.4</ele>
        <time>2015-09-24T09:29:18Z</time>
      </trkpt>
      <trkpt lat="42.24809" lon="0.05375">
        <ele>698.3</ele>
        <time>2015-09-24T09:29:19Z</time>
      </trkpt>
      <trkpt lat="42.24805" lon="0.0537">
        <ele>697.9</ele>
        <time>2015-09-24T09:29:20Z</time>
      </trkpt>
      <trkpt lat="42.248" lon="0.05366">
        <ele>697.5</ele>
        <time>2015-09-24T09:29:21Z</time>
      </trkpt>
      <trkpt lat="42.24795" lon="0.05362">
        <ele>697.1</ele>
        <time>2015-09-24T09:29:22Z</time>
      </trkpt>
      <trkpt lat="42.2479" lon="0.05358">
        <ele>696.8</ele>
        <time>2015-09-24T09:29:23Z</time>
      </trkpt>
      <trkpt lat="42.24785" lon="0.05355">
        <ele>696.7</ele>
        <time>2015-09-24T09:29:24Z</time>
      </trkpt>
      <trkpt lat="42.24781" lon="0.05351">
        <ele>696.7</ele>
        <time>2015-09-24T09:29:25Z</time>
      </trkpt>
      <trkpt lat="42.24776" lon="0.05347">
        <ele>696.6</ele>
        <time>2015-09-24T09:29:26Z</time>
      </trkpt>
      <trkpt lat="42.24771" lon="0.05344">
        <ele>696.6</ele>
        <time>2015-09-24T09:29:27Z</time>
      </trkpt>
      <trkpt lat="42.24767" lon="0.0534">
        <ele>696.5</ele>
        <time>2015-09-24T09:29:28Z</time>
      </trkpt>
      <trkpt lat="42.24762" lon="0.05336">
        <ele>696.5</ele>
        <time>2015-09-24T09:29:29Z</time>
      </trkpt>
      <trkpt lat="42.24758" lon="0.05333">
        <ele>696.5</ele>
        <time>2015-09-24T09:29:30Z</time>
      </trkpt>
      <trkpt lat="42.24754" lon="0.05329">
        <ele>696.5</ele>
        <time>2015-09-24T09:29:31Z</time>
      </trkpt>
      <trkpt lat="42.24751" lon="0.05324">
        <ele>696.5</ele>
        <time>2015-09-24T09:29:32Z</time>
      </trkpt>
      <trkpt lat="42.24748" lon="0.0532">
        <ele>696.5</ele>
        <time>2015-09-24T09:29:33Z</time>
      </trkpt>
      <trkpt lat="42.24746" lon="0.05317">
        <ele>696.5</ele>
        <time>2015-09-24T09:29:34Z</time>
      </trkpt>
      <trkpt lat="42.24742" lon="0.05313">
        <ele>696.5</ele>
        <time>2015-09-24T09:29:35Z</time>
      </trkpt>
      <trkpt lat="42.24739" lon="0.0531">
        <ele>696.6</ele>
        <time>2015-09-24T09:29:36Z</time>
      </trkpt>
      <trkpt lat="42.24735" lon="0.05304">
        <ele>696.6</ele>
        <time>2015-09-24T09:29:37Z</time>
      </trkpt>
      <trkpt lat="42.24731" lon="0.05297">
        <ele>696.7</ele>
        <time>2015-09-24T09:29:38Z</time>
      </trkpt>
      <trkpt lat="42.24728" lon="0.05292">
        <ele>696.8</ele>
        <time>2015-09-24T09:29:39Z</time>
      </trkpt>
      <trkpt lat="42.24726" lon="0.05285">
        <ele>697.2</ele>
        <time>2015-09-24T09:29:40Z</time>
      </trkpt>
      <trkpt lat="42.24724" lon="0.05279">
        <ele>697.6</ele>
        <time>2015-09-24T09:29:41Z</time>
      </trkpt>
      <trkpt lat="42.24723" lon="0.05272">
        <ele>698</ele>
        <time>2015-09-24T09:29:42Z</time>
      </trkpt>
      <trkpt lat="42.24721" lon="0.05264">
        <ele>698.5</ele>
        <time>2015-09-24T09:29:43Z</time>
      </trkpt>
      <trkpt lat="42.24719" lon="0.05256">
        <ele>698.9</ele>
        <time>2015-09-24T09:29:44Z</time>
      </trkpt>
      <trkpt lat="42.24717" lon="0.05249">
        <ele>699.4</ele>
        <time>2015-09-24T09:29:45Z</time>
      </trkpt>
      <trkpt lat="42.24715" lon="0.05243">
        <ele>699.8</ele>
        <time>2015-09-24T09:29:46Z</time>
      </trkpt>
      <trkpt lat="42.24713" lon="0.05238">
        <ele>700.1</ele>
        <time>2015-09-24T09:29:47Z</time>
      </trkpt>
      <trkpt lat="42.2471" lon="0.05235">
        <ele>700.4</ele>
        <time>2015-09-24T09:29:48Z</time>
      </trkpt>
      <trkpt lat="42.24707" lon="0.05234">
        <ele>700.5</ele>
        <time>2015-09-24T09:29:49Z</time>
      </trkpt>
      <trkpt lat="42.24703" lon="0.05232">
        <ele>700.7</ele>
        <time>2015-09-24T09:29:51Z</time>
      </trkpt>
      <trkpt lat="42.247" lon="0.0523">
        <ele>700.9</ele>
        <time>2015-09-24T09:29:53Z</time>
      </trkpt>
      <trkpt lat="42.24696" lon="0.05229">
        <ele>701</ele>
        <time>2015-09-24T09:29:55Z</time>
      </trkpt>
      <trkpt lat="42.24692" lon="0.05226">
        <ele>701.2</ele>
        <time>2015-09-24T09:29:57Z</time>
      </trkpt>
      <trkpt lat="42.24689" lon="0.05223">
        <ele>701.4</ele>
        <time>2015-09-24T09:29:59Z</time>
      </trkpt>
      <trkpt lat="42.24687" lon="0.05219">
        <ele>701.7</ele>
        <time>2015-09-24T09:30:01Z</time>
      </trkpt>
      <trkpt lat="42.24685" lon="0.05214">
        <ele>702</ele>
        <time>2015-09-24T09:30:03Z</time>
      </trkpt>
      <trkpt lat="42.24684" lon="0.05208">
        <ele>702.3</ele>
        <time>2015-09-24T09:30:05Z</time>
      </trkpt>
      <trkpt lat="42.24684" lon="0.05203">
        <ele>702.5</ele>
        <time>2015-09-24T09:30:07Z</time>
      </trkpt>
      <trkpt lat="42.24683" lon="0.05197">
        <ele>702.7</ele>
        <time>2015-09-24T09:30:09Z</time>
      </trkpt>
      <trkpt lat="42.24682" lon="0.05192">
        <ele>703</ele>
        <time>2015-09-24T09:30:11Z</time>
      </trkpt>
      <trkpt lat="42.24681" lon="0.05187">
        <ele>703.2</ele>
        <time>2015-09-24T09:30:13Z</time>
      </trkpt>
      <trkpt lat="42.24682" lon="0.05181">
        <ele>703.4</ele>
        <time>2015-09-24T09:30:15Z</time>
      </trkpt>
      <trkpt lat="42.24681" lon="0.05175">
        <ele>703.6</ele>
        <time>2015-09-24T09:30:17Z</time>
      </trkpt>
      <trkpt lat="42.2468" lon="0.0517">
        <ele>703.9</ele>
        <time>2015-09-24T09:30:19Z</time>
      </trkpt>
      <trkpt lat="42.24678" lon="0.05165">
        <ele>704.1</ele>
        <time>2015-09-24T09:30:21Z</time>
      </trkpt>
      <trkpt lat="42.24676" lon="0.05161">
        <ele>704.3</ele>
        <time>2015-09-24T09:30:23Z</time>
      </trkpt>
      <trkpt lat="42.24674" lon="0.05158">
        <ele>704.5</ele>
        <time>2015-09-24T09:30:25Z</time>
      </trkpt>
      <trkpt lat="42.24672" lon="0.05155">
        <ele>704.6</ele>
        <time>2015-09-24T09:30:27Z</time>
      </trkpt>
      <trkpt lat="42.2467" lon="0.05152">
        <ele>704.8</ele>
        <time>2015-09-24T09:30:29Z</time>
      </trkpt>
      <trkpt lat="42.24669" lon="0.05149">
        <ele>705</ele>
        <time>2015-09-24T09:30:31Z</time>
      </trkpt>
      <trkpt lat="42.24667" lon="0.05145">
        <ele>705.1</ele>
        <time>2015-09-24T09:30:33Z</time>
      </trkpt>
      <trkpt lat="42.24665" lon="0.05141">
        <ele>705.4</ele>
        <time>2015-09-24T09:30:36Z</time>
      </trkpt>
      <trkpt lat="42.24664" lon="0.05137">
        <ele>705.5</ele>
        <time>2015-09-24T09:30:38Z</time>
      </trkpt>
      <trkpt lat="42.24663" lon="0.05134">
        <ele>705.7</ele>
        <time>2015-09-24T09:30:40Z</time>
      </trkpt>
      <trkpt lat="42.24661" lon="0.05128">
        <ele>706</ele>
        <time>2015-09-24T09:30:42Z</time>
      </trkpt>
      <trkpt lat="42.24659" lon="0.05123">
        <ele>706.3</ele>
        <time>2015-09-24T09:30:44Z</time>
      </trkpt>
      <trkpt lat="42.24656" lon="0.05119">
        <ele>706.5</ele>
        <time>2015-09-24T09:30:46Z</time>
      </trkpt>
      <trkpt lat="42.24654" lon="0.05115">
        <ele>706.7</ele>
        <time>2015-09-24T09:30:48Z</time>
      </trkpt>
      <trkpt lat="42.24651" lon="0.05112">
        <ele>706.9</ele>
        <time>2015-09-24T09:30:50Z</time>
      </trkpt>
      <trkpt lat="42.24649" lon="0.0511">
        <ele>707</ele>
        <time>2015-09-24T09:30:52Z</time>
      </trkpt>
      <trkpt lat="42.24646" lon="0.05107">
        <ele>707.2</ele>
        <time>2015-09-24T09:30:54Z</time>
      </trkpt>
      <trkpt lat="42.24644" lon="0.05104">
        <ele>707.4</ele>
        <time>2015-09-24T09:30:56Z</time>
      </trkpt>
      <trkpt lat="42.24642" lon="0.05099">
        <ele>707.6</ele>
        <time>2015-09-24T09:30:58Z</time>
      </trkpt>
      <trkpt lat="42.2464" lon="0.05097">
        <ele>707.7</ele>
        <time>2015-09-24T09:30:59Z</time>
      </trkpt>
      <trkpt lat="42.24635" lon="0.05093">
        <ele>708</ele>
        <time>2015-09-24T09:31:01Z</time>
      </trkpt>
      <trkpt lat="42.2463" lon="0.0509">
        <ele>708.2</ele>
        <time>2015-09-24T09:31:03Z</time>
      </trkpt>
      <trkpt lat="42.24626" lon="0.05087">
        <ele>708.4</ele>
        <time>2015-09-24T09:31:05Z</time>
      </trkpt>
      <trkpt lat="42.24621" lon="0.05084">
        <ele>708</ele>
        <time>2015-09-24T09:31:07Z</time>
      </trkpt>
      <trkpt lat="42.24618" lon="0.05083">
        <ele>707.8</ele>
        <time>2015-09-24T09:31:08Z</time>
      </trkpt>
      <trkpt lat="42.24615" lon="0.05081">
        <ele>707.5</ele>
        <time>2015-09-24T09:31:09Z</time>
      </trkpt>
      <trkpt lat="42.24612" lon="0.05079">
        <ele>707.3</ele>
        <time>2015-09-24T09:31:10Z</time>
      </trkpt>
      <trkpt lat="42.2461" lon="0.05077">
        <ele>707</ele>
        <time>2015-09-24T09:31:11Z</time>
      </trkpt>
      <trkpt lat="42.24607" lon="0.05075">
        <ele>706.8</ele>
        <time>2015-09-24T09:31:12Z</time>
      </trkpt>
      <trkpt lat="42.24605" lon="0.05073">
        <ele>706.7</ele>
        <time>2015-09-24T09:31:13Z</time>
      </trkpt>
      <trkpt lat="42.24601" lon="0.05068">
        <ele>706.3</ele>
        <time>2015-09-24T09:31:15Z</time>
      </trkpt>
      <trkpt lat="42.24599" lon="0.05065">
        <ele>706.2</ele>
        <time>2015-09-24T09:31:16Z</time>
      </trkpt>
      <trkpt lat="42.24597" lon="0.05062">
        <ele>706.1</ele>
        <time>2015-09-24T09:31:17Z</time>
      </trkpt>
      <trkpt lat="42.24596" lon="0.05059">
        <ele>706</ele>
        <time>2015-09-24T09:31:18Z</time>
      </trkpt>
      <trkpt lat="42.24594" lon="0.05056">
        <ele>705.9</ele>
        <time>2015-09-24T09:31:19Z</time>
      </trkpt>
      <trkpt lat="42.2459" lon="0.05051">
        <ele>705.5</ele>
        <time>2015-09-24T09:31:21Z</time>
      </trkpt>
      <trkpt lat="42.24588" lon="0.05049">
        <ele>705.3</ele>
        <time>2015-09-24T09:31:22Z</time>
      </trkpt>
      <trkpt lat="42.24586" lon="0.05046">
        <ele>705.1</ele>
        <time>2015-09-24T09:31:23Z</time>
      </trkpt>
      <trkpt lat="42.24584" lon="0.05044">
        <ele>705</ele>
        <time>2015-09-24T09:31:24Z</time>
      </trkpt>
      <trkpt lat="42.24582" lon="0.05041">
        <ele>704.9</ele>
        <time>2015-09-24T09:31:25Z</time>
      </trkpt>
      <trkpt lat="42.24578" lon="0.05036">
        <ele>704.7</ele>
        <time>2015-09-24T09:31:27Z</time>
      </trkpt>
      <trkpt lat="42.24575" lon="0.05033">
        <ele>704.6</ele>
        <time>2015-09-24T09:31:28Z</time>
      </trkpt>
      <trkpt lat="42.24573" lon="0.05031">
        <ele>704.5</ele>
        <time>2015-09-24T09:31:29Z</time>
      </trkpt>
      <trkpt lat="42.24571" lon="0.05027">
        <ele>704.4</ele>
        <time>2015-09-24T09:31:30Z</time>
      </trkpt>
      <trkpt lat="42.24568" lon="0.05023">
        <ele>704.3</ele>
        <time>2015-09-24T09:31:31Z</time>
      </trkpt>
      <trkpt lat="42.24565" lon="0.05019">
        <ele>704.3</ele>
        <time>2015-09-24T09:31:32Z</time>
      </trkpt>
      <trkpt lat="42.24563" lon="0.05014">
        <ele>704.4</ele>
        <time>2015-09-24T09:31:33Z</time>
      </trkpt>
      <trkpt lat="42.24561" lon="0.05008">
        <ele>704.5</ele>
        <time>2015-09-24T09:31:34Z</time>
      </trkpt>
      <trkpt lat="42.24557" lon="0.04999">
        <ele>704.8</ele>
        <time>2015-09-24T09:31:35Z</time>
      </trkpt>
      <trkpt lat="42.24554" lon="0.04992">
        <ele>704.9</ele>
        <time>2015-09-24T09:31:36Z</time>
      </trkpt>
      <trkpt lat="42.24551" lon="0.04985">
        <ele>705</ele>
        <time>2015-09-24T09:31:37Z</time>
      </trkpt>
      <trkpt lat="42.24547" lon="0.04979">
        <ele>705.1</ele>
        <time>2015-09-24T09:31:38Z</time>
      </trkpt>
      <trkpt lat="42.24543" lon="0.04972">
        <ele>705.2</ele>
        <time>2015-09-24T09:31:39Z</time>
      </trkpt>
      <trkpt lat="42.2454" lon="0.04964">
        <ele>705.6</ele>
        <time>2015-09-24T09:31:40Z</time>
      </trkpt>
      <trkpt lat="42.24537" lon="0.04957">
        <ele>706.2</ele>
        <time>2015-09-24T09:31:41Z</time>
      </trkpt>
      <trkpt lat="42.24535" lon="0.0495">
        <ele>706.7</ele>
        <time>2015-09-24T09:31:42Z</time>
      </trkpt>
      <trkpt lat="42.24535" lon="0.04942">
        <ele>707.2</ele>
        <time>2015-09-24T09:31:43Z</time>
      </trkpt>
      <trkpt lat="42.24535" lon="0.04934">
        <ele>707.7</ele>
        <time>2015-09-24T09:31:44Z</time>
      </trkpt>
      <trkpt lat="42.24535" lon="0.04926">
        <ele>708.1</ele>
        <time>2015-09-24T09:31:45Z</time>
      </trkpt>
      <trkpt lat="42.24535" lon="0.04919">
        <ele>708.6</ele>
        <time>2015-09-24T09:31:46Z</time>
      </trkpt>
      <trkpt lat="42.24534" lon="0.04914">
        <ele>708.9</ele>
        <time>2015-09-24T09:31:47Z</time>
      </trkpt>
      <trkpt lat="42.24533" lon="0.04909">
        <ele>709.2</ele>
        <time>2015-09-24T09:31:48Z</time>
      </trkpt>
      <trkpt lat="42.24533" lon="0.04904">
        <ele>709.5</ele>
        <time>2015-09-24T09:31:49Z</time>
      </trkpt>
      <trkpt lat="42.2453" lon="0.04898">
        <ele>710</ele>
        <time>2015-09-24T09:31:50Z</time>
      </trkpt>
      <trkpt lat="42.24528" lon="0.04893">
        <ele>710.4</ele>
        <time>2015-09-24T09:31:51Z</time>
      </trkpt>
      <trkpt lat="42.24525" lon="0.04891">
        <ele>710.6</ele>
        <time>2015-09-24T09:31:52Z</time>
      </trkpt>
      <trkpt lat="42.24523" lon="0.04889">
        <ele>710.8</ele>
        <time>2015-09-24T09:31:54Z</time>
      </trkpt>
      <trkpt lat="42.24519" lon="0.04886">
        <ele>711.1</ele>
        <time>2015-09-24T09:31:57Z</time>
      </trkpt>
      <trkpt lat="42.24516" lon="0.04883">
        <ele>711.4</ele>
        <time>2015-09-24T09:31:59Z</time>
      </trkpt>
      <trkpt lat="42.24513" lon="0.0488">
        <ele>711.7</ele>
        <time>2015-09-24T09:32:01Z</time>
      </trkpt>
      <trkpt lat="42.24509" lon="0.04876">
        <ele>712.1</ele>
        <time>2015-09-24T09:32:03Z</time>
      </trkpt>
      <trkpt lat="42.24507" lon="0.04874">
        <ele>712.3</ele>
        <time>2015-09-24T09:32:04Z</time>
      </trkpt>
      <trkpt lat="42.24504" lon="0.04872">
        <ele>712.6</ele>
        <time>2015-09-24T09:32:05Z</time>
      </trkpt>
      <trkpt lat="42.24501" lon="0.0487">
        <ele>712.8</ele>
        <time>2015-09-24T09:32:06Z</time>
      </trkpt>
      <trkpt lat="42.24499" lon="0.04867">
        <ele>713.1</ele>
        <time>2015-09-24T09:32:07Z</time>
      </trkpt>
      <trkpt lat="42.24496" lon="0.04865">
        <ele>713.3</ele>
        <time>2015-09-24T09:32:08Z</time>
      </trkpt>
      <trkpt lat="42.24493" lon="0.04863">
        <ele>713.6</ele>
        <time>2015-09-24T09:32:09Z</time>
      </trkpt>
      <trkpt lat="42.24489" lon="0.04861">
        <ele>713.8</ele>
        <time>2015-09-24T09:32:10Z</time>
      </trkpt>
      <trkpt lat="42.24486" lon="0.04859">
        <ele>714.1</ele>
        <time>2015-09-24T09:32:11Z</time>
      </trkpt>
      <trkpt lat="42.24482" lon="0.04857">
        <ele>714.4</ele>
        <time>2015-09-24T09:32:12Z</time>
      </trkpt>
      <trkpt lat="42.24479" lon="0.04855">
        <ele>714.7</ele>
        <time>2015-09-24T09:32:13Z</time>
      </trkpt>
      <trkpt lat="42.24475" lon="0.04854">
        <ele>714.9</ele>
        <time>2015-09-24T09:32:14Z</time>
      </trkpt>
      <trkpt lat="42.24471" lon="0.04854">
        <ele>715</ele>
        <time>2015-09-24T09:32:15Z</time>
      </trkpt>
      <trkpt lat="42.24467" lon="0.04854">
        <ele>715.2</ele>
        <time>2015-09-24T09:32:16Z</time>
      </trkpt>
      <trkpt lat="42.24463" lon="0.04854">
        <ele>715.3</ele>
        <time>2015-09-24T09:32:17Z</time>
      </trkpt>
      <trkpt lat="42.2446" lon="0.04855">
        <ele>715.4</ele>
        <time>2015-09-24T09:32:18Z</time>
      </trkpt>
      <trkpt lat="42.24456" lon="0.04857">
        <ele>715.2</ele>
        <time>2015-09-24T09:32:19Z</time>
      </trkpt>
      <trkpt lat="42.24452" lon="0.04859">
        <ele>715</ele>
        <time>2015-09-24T09:32:20Z</time>
      </trkpt>
      <trkpt lat="42.24449" lon="0.0486">
        <ele>714.7</ele>
        <time>2015-09-24T09:32:21Z</time>
      </trkpt>
      <trkpt lat="42.24445" lon="0.04862">
        <ele>714.5</ele>
        <time>2015-09-24T09:32:22Z</time>
      </trkpt>
      <trkpt lat="42.24442" lon="0.04863">
        <ele>714.2</ele>
        <time>2015-09-24T09:32:23Z</time>
      </trkpt>
      <trkpt lat="42.24438" lon="0.04865">
        <ele>714</ele>
        <time>2015-09-24T09:32:24Z</time>
      </trkpt>
      <trkpt lat="42.24435" lon="0.04866">
        <ele>713.8</ele>
        <time>2015-09-24T09:32:25Z</time>
      </trkpt>
      <trkpt lat="42.24433" lon="0.04868">
        <ele>713.6</ele>
        <time>2015-09-24T09:32:26Z</time>
      </trkpt>
      <trkpt lat="42.24431" lon="0.04869">
        <ele>713.4</ele>
        <time>2015-09-24T09:32:27Z</time>
      </trkpt>
      <trkpt lat="42.24426" lon="0.04873">
        <ele>713</ele>
        <time>2015-09-24T09:32:29Z</time>
      </trkpt>
      <trkpt lat="42.24421" lon="0.04875">
        <ele>712.6</ele>
        <time>2015-09-24T09:32:31Z</time>
      </trkpt>
      <trkpt lat="42.24417" lon="0.04878">
        <ele>712.3</ele>
        <time>2015-09-24T09:32:33Z</time>
      </trkpt>
      <trkpt lat="42.24412" lon="0.04881">
        <ele>711.9</ele>
        <time>2015-09-24T09:32:35Z</time>
      </trkpt>
      <trkpt lat="42.24407" lon="0.04884">
        <ele>711.5</ele>
        <time>2015-09-24T09:32:37Z</time>
      </trkpt>
      <trkpt lat="42.24402" lon="0.04885">
        <ele>711.3</ele>
        <time>2015-09-24T09:32:39Z</time>
      </trkpt>
      <trkpt lat="42.24398" lon="0.04885">
        <ele>711.1</ele>
        <time>2015-09-24T09:32:41Z</time>
      </trkpt>
      <trkpt lat="42.24393" lon="0.04881">
        <ele>711.2</ele>
        <time>2015-09-24T09:32:43Z</time>
      </trkpt>
      <trkpt lat="42.24391" lon="0.04878">
        <ele>711.4</ele>
        <time>2015-09-24T09:32:44Z</time>
      </trkpt>
      <trkpt lat="42.24389" lon="0.04875">
        <ele>711.5</ele>
        <time>2015-09-24T09:32:45Z</time>
      </trkpt>
      <trkpt lat="42.24387" lon="0.04872">
        <ele>711.7</ele>
        <time>2015-09-24T09:32:46Z</time>
      </trkpt>
      <trkpt lat="42.24385" lon="0.04868">
        <ele>711.8</ele>
        <time>2015-09-24T09:32:47Z</time>
      </trkpt>
      <trkpt lat="42.24383" lon="0.04866">
        <ele>712</ele>
        <time>2015-09-24T09:32:48Z</time>
      </trkpt>
      <trkpt lat="42.24379" lon="0.04861">
        <ele>712.2</ele>
        <time>2015-09-24T09:32:50Z</time>
      </trkpt>
      <trkpt lat="42.24377" lon="0.04857">
        <ele>712.4</ele>
        <time>2015-09-24T09:32:58Z</time>
      </trkpt>
      <trkpt lat="42.24374" lon="0.04854">
        <ele>712.4</ele>
        <time>2015-09-24T09:33:00Z</time>
      </trkpt>
      <trkpt lat="42.24372" lon="0.04852">
        <ele>712.4</ele>
        <time>2015-09-24T09:33:01Z</time>
      </trkpt>
      <trkpt lat="42.24369" lon="0.0485">
        <ele>712.4</ele>
        <time>2015-09-24T09:33:02Z</time>
      </trkpt>
      <trkpt lat="42.24361" lon="0.04844">
        <ele>712.2</ele>
        <time>2015-09-24T09:33:03Z</time>
      </trkpt>
      <trkpt lat="42.24357" lon="0.04841">
        <ele>712.1</ele>
        <time>2015-09-24T09:33:04Z</time>
      </trkpt>
      <trkpt lat="42.24353" lon="0.04839">
        <ele>711.9</ele>
        <time>2015-09-24T09:33:05Z</time>
      </trkpt>
      <trkpt lat="42.24348" lon="0.04837">
        <ele>711.7</ele>
        <time>2015-09-24T09:33:06Z</time>
      </trkpt>
      <trkpt lat="42.24344" lon="0.04836">
        <ele>711.4</ele>
        <time>2015-09-24T09:33:07Z</time>
      </trkpt>
      <trkpt lat="42.24341" lon="0.04834">
        <ele>711.3</ele>
        <time>2015-09-24T09:33:08Z</time>
      </trkpt>
      <trkpt lat="42.24337" lon="0.04833">
        <ele>711.1</ele>
        <time>2015-09-24T09:33:09Z</time>
      </trkpt>
      <trkpt lat="42.24333" lon="0.04831">
        <ele>710.8</ele>
        <time>2015-09-24T09:33:11Z</time>
      </trkpt>
      <trkpt lat="42.24327" lon="0.0483">
        <ele>710.4</ele>
        <time>2015-09-24T09:33:13Z</time>
      </trkpt>
      <trkpt lat="42.24324" lon="0.04829">
        <ele>710.2</ele>
        <time>2015-09-24T09:33:14Z</time>
      </trkpt>
      <trkpt lat="42.24321" lon="0.04829">
        <ele>709.9</ele>
        <time>2015-09-24T09:33:15Z</time>
      </trkpt>
      <trkpt lat="42.24318" lon="0.04828">
        <ele>709.7</ele>
        <time>2015-09-24T09:33:16Z</time>
      </trkpt>
      <trkpt lat="42.24313" lon="0.04829">
        <ele>709.3</ele>
        <time>2015-09-24T09:33:18Z</time>
      </trkpt>
      <trkpt lat="42.2431" lon="0.04829">
        <ele>709</ele>
        <time>2015-09-24T09:33:19Z</time>
      </trkpt>
      <trkpt lat="42.24307" lon="0.04829">
        <ele>708.8</ele>
        <time>2015-09-24T09:33:20Z</time>
      </trkpt>
      <trkpt lat="42.24304" lon="0.04828">
        <ele>708.6</ele>
        <time>2015-09-24T09:33:21Z</time>
      </trkpt>
      <trkpt lat="42.24302" lon="0.04827">
        <ele>708.4</ele>
        <time>2015-09-24T09:33:22Z</time>
      </trkpt>
      <trkpt lat="42.24299" lon="0.04826">
        <ele>708.2</ele>
        <time>2015-09-24T09:33:23Z</time>
      </trkpt>
      <trkpt lat="42.24294" lon="0.04823">
        <ele>707.8</ele>
        <time>2015-09-24T09:33:25Z</time>
      </trkpt>
      <trkpt lat="42.2429" lon="0.04819">
        <ele>707.5</ele>
        <time>2015-09-24T09:33:27Z</time>
      </trkpt>
      <trkpt lat="42.24288" lon="0.04816">
        <ele>707.2</ele>
        <time>2015-09-24T09:33:28Z</time>
      </trkpt>
      <trkpt lat="42.24284" lon="0.04812">
        <ele>706.9</ele>
        <time>2015-09-24T09:33:29Z</time>
      </trkpt>
      <trkpt lat="42.24281" lon="0.04808">
        <ele>706.6</ele>
        <time>2015-09-24T09:33:30Z</time>
      </trkpt>
      <trkpt lat="42.24277" lon="0.04804">
        <ele>706.1</ele>
        <time>2015-09-24T09:33:31Z</time>
      </trkpt>
      <trkpt lat="42.24271" lon="0.04799">
        <ele>705.5</ele>
        <time>2015-09-24T09:33:32Z</time>
      </trkpt>
      <trkpt lat="42.24268" lon="0.04795">
        <ele>705.1</ele>
        <time>2015-09-24T09:33:33Z</time>
      </trkpt>
      <trkpt lat="42.24264" lon="0.0479">
        <ele>704.7</ele>
        <time>2015-09-24T09:33:34Z</time>
      </trkpt>
      <trkpt lat="42.2426" lon="0.04785">
        <ele>704.2</ele>
        <time>2015-09-24T09:33:35Z</time>
      </trkpt>
      <trkpt lat="42.24256" lon="0.04781">
        <ele>703.7</ele>
        <time>2015-09-24T09:33:36Z</time>
      </trkpt>
      <trkpt lat="42.24252" lon="0.04777">
        <ele>703.3</ele>
        <time>2015-09-24T09:33:37Z</time>
      </trkpt>
      <trkpt lat="42.24248" lon="0.04774">
        <ele>702.8</ele>
        <time>2015-09-24T09:33:38Z</time>
      </trkpt>
      <trkpt lat="42.24244" lon="0.04771">
        <ele>702.4</ele>
        <time>2015-09-24T09:33:39Z</time>
      </trkpt>
      <trkpt lat="42.24241" lon="0.04767">
        <ele>702.1</ele>
        <time>2015-09-24T09:33:40Z</time>
      </trkpt>
      <trkpt lat="42.24238" lon="0.04765">
        <ele>701.8</ele>
        <time>2015-09-24T09:33:41Z</time>
      </trkpt>
      <trkpt lat="42.24235" lon="0.04763">
        <ele>701.4</ele>
        <time>2015-09-24T09:33:42Z</time>
      </trkpt>
      <trkpt lat="42.24231" lon="0.04761">
        <ele>701</ele>
        <time>2015-09-24T09:33:43Z</time>
      </trkpt>
      <trkpt lat="42.24228" lon="0.04759">
        <ele>700.6</ele>
        <time>2015-09-24T09:33:44Z</time>
      </trkpt>
      <trkpt lat="42.24225" lon="0.04758">
        <ele>700.3</ele>
        <time>2015-09-24T09:33:45Z</time>
      </trkpt>
      <trkpt lat="42.2422" lon="0.04756">
        <ele>699.8</ele>
        <time>2015-09-24T09:33:47Z</time>
      </trkpt>
      <trkpt lat="42.24217" lon="0.04753">
        <ele>699.4</ele>
        <time>2015-09-24T09:33:49Z</time>
      </trkpt>
      <trkpt lat="42.24214" lon="0.0475">
        <ele>699.1</ele>
        <time>2015-09-24T09:33:51Z</time>
      </trkpt>
      <trkpt lat="42.2421" lon="0.04748">
        <ele>698.8</ele>
        <time>2015-09-24T09:33:53Z</time>
      </trkpt>
      <trkpt lat="42.24207" lon="0.04746">
        <ele>698.5</ele>
        <time>2015-09-24T09:33:55Z</time>
      </trkpt>
      <trkpt lat="42.24202" lon="0.04745">
        <ele>698.5</ele>
        <time>2015-09-24T09:33:57Z</time>
      </trkpt>
      <trkpt lat="42.24199" lon="0.04745">
        <ele>698.4</ele>
        <time>2015-09-24T09:33:58Z</time>
      </trkpt>
      <trkpt lat="42.24196" lon="0.04746">
        <ele>698.4</ele>
        <time>2015-09-24T09:33:59Z</time>
      </trkpt>
      <trkpt lat="42.24194" lon="0.04747">
        <ele>698.3</ele>
        <time>2015-09-24T09:34:00Z</time>
      </trkpt>
      <trkpt lat="42.24191" lon="0.04745">
        <ele>698.3</ele>
        <time>2015-09-24T09:34:01Z</time>
      </trkpt>
      <trkpt lat="42.24189" lon="0.04742">
        <ele>698.4</ele>
        <time>2015-09-24T09:34:02Z</time>
      </trkpt>
      <trkpt lat="42.24187" lon="0.04737">
        <ele>698.5</ele>
        <time>2015-09-24T09:34:03Z</time>
      </trkpt>
      <trkpt lat="42.24186" lon="0.04732">
        <ele>698.7</ele>
        <time>2015-09-24T09:34:04Z</time>
      </trkpt>
      <trkpt lat="42.24186" lon="0.04726">
        <ele>698.9</ele>
        <time>2015-09-24T09:34:05Z</time>
      </trkpt>
      <trkpt lat="42.24185" lon="0.04721">
        <ele>699.1</ele>
        <time>2015-09-24T09:34:06Z</time>
      </trkpt>
      <trkpt lat="42.24185" lon="0.04716">
        <ele>699.3</ele>
        <time>2015-09-24T09:34:07Z</time>
      </trkpt>
      <trkpt lat="42.24185" lon="0.04711">
        <ele>699.5</ele>
        <time>2015-09-24T09:34:08Z</time>
      </trkpt>
      <trkpt lat="42.24185" lon="0.04707">
        <ele>699.7</ele>
        <time>2015-09-24T09:34:09Z</time>
      </trkpt>
      <trkpt lat="42.24184" lon="0.04702">
        <ele>700.1</ele>
        <time>2015-09-24T09:34:12Z</time>
      </trkpt>
      <trkpt lat="42.24183" lon="0.04699">
        <ele>700.5</ele>
        <time>2015-09-24T09:34:15Z</time>
      </trkpt>
      <trkpt lat="42.24182" lon="0.04692">
        <ele>701</ele>
        <time>2015-09-24T09:34:17Z</time>
      </trkpt>
      <trkpt lat="42.24181" lon="0.04688">
        <ele>701.5</ele>
        <time>2015-09-24T09:34:18Z</time>
      </trkpt>
      <trkpt lat="42.2418" lon="0.04683">
        <ele>701.9</ele>
        <time>2015-09-24T09:34:19Z</time>
      </trkpt>
      <trkpt lat="42.24179" lon="0.04678">
        <ele>702.4</ele>
        <time>2015-09-24T09:34:20Z</time>
      </trkpt>
      <trkpt lat="42.24178" lon="0.04673">
        <ele>702.8</ele>
        <time>2015-09-24T09:34:21Z</time>
      </trkpt>
      <trkpt lat="42.24176" lon="0.04668">
        <ele>703.2</ele>
        <time>2015-09-24T09:34:22Z</time>
      </trkpt>
      <trkpt lat="42.24175" lon="0.04663">
        <ele>703.7</ele>
        <time>2015-09-24T09:34:23Z</time>
      </trkpt>
      <trkpt lat="42.24174" lon="0.04656">
        <ele>704.4</ele>
        <time>2015-09-24T09:34:24Z</time>
      </trkpt>
      <trkpt lat="42.24171" lon="0.04651">
        <ele>704.8</ele>
        <time>2015-09-24T09:34:26Z</time>
      </trkpt>
      <trkpt lat="42.24167" lon="0.0465">
        <ele>704.9</ele>
        <time>2015-09-24T09:34:28Z</time>
      </trkpt>
      <trkpt lat="42.24164" lon="0.04649">
        <ele>705</ele>
        <time>2015-09-24T09:34:30Z</time>
      </trkpt>
      <trkpt lat="42.24161" lon="0.04649">
        <ele>705.1</ele>
        <time>2015-09-24T09:34:32Z</time>
      </trkpt>
      <trkpt lat="42.24158" lon="0.04649">
        <ele>705.1</ele>
        <time>2015-09-24T09:34:34Z</time>
      </trkpt>
      <trkpt lat="42.24155" lon="0.04649">
        <ele>705.1</ele>
        <time>2015-09-24T09:34:37Z</time>
      </trkpt>
      <trkpt lat="42.24152" lon="0.0465">
        <ele>705</ele>
        <time>2015-09-24T09:34:40Z</time>
      </trkpt>
      <trkpt lat="42.24149" lon="0.04652">
        <ele>704.9</ele>
        <time>2015-09-24T09:34:43Z</time>
      </trkpt>
      <trkpt lat="42.24145" lon="0.04653">
        <ele>704.8</ele>
        <time>2015-09-24T09:34:46Z</time>
      </trkpt>
      <trkpt lat="42.24142" lon="0.04654">
        <ele>704.8</ele>
        <time>2015-09-24T09:34:49Z</time>
      </trkpt>
      <trkpt lat="42.24138" lon="0.04654">
        <ele>704.8</ele>
        <time>2015-09-24T09:34:52Z</time>
      </trkpt>
      <trkpt lat="42.24136" lon="0.04654">
        <ele>704.8</ele>
        <time>2015-09-24T09:34:55Z</time>
      </trkpt>
      <trkpt lat="42.24133" lon="0.04652">
        <ele>705</ele>
        <time>2015-09-24T09:35:01Z</time>
      </trkpt>
      <trkpt lat="42.2413" lon="0.04651">
        <ele>705.1</ele>
        <time>2015-09-24T09:35:07Z</time>
      </trkpt>
      <trkpt lat="42.24127" lon="0.0465">
        <ele>705.2</ele>
        <time>2015-09-24T09:35:10Z</time>
      </trkpt>
      <trkpt lat="42.24124" lon="0.04648">
        <ele>705.3</ele>
        <time>2015-09-24T09:35:13Z</time>
      </trkpt>
      <trkpt lat="42.24122" lon="0.04645">
        <ele>705.2</ele>
        <time>2015-09-24T09:35:16Z</time>
      </trkpt>
      <trkpt lat="42.24119" lon="0.04642">
        <ele>705.2</ele>
        <time>2015-09-24T09:35:19Z</time>
      </trkpt>
      <trkpt lat="42.24117" lon="0.04639">
        <ele>705.2</ele>
        <time>2015-09-24T09:35:22Z</time>
      </trkpt>
      <trkpt lat="42.24115" lon="0.04635">
        <ele>705.3</ele>
        <time>2015-09-24T09:35:25Z</time>
      </trkpt>
      <trkpt lat="42.24113" lon="0.04631">
        <ele>705.4</ele>
        <time>2015-09-24T09:35:28Z</time>
      </trkpt>
      <trkpt lat="42.24111" lon="0.04627">
        <ele>705.3</ele>
        <time>2015-09-24T09:35:30Z</time>
      </trkpt>
      <trkpt lat="42.24107" lon="0.04623">
        <ele>705.2</ele>
        <time>2015-09-24T09:35:32Z</time>
      </trkpt>
      <trkpt lat="42.24104" lon="0.0462">
        <ele>704.9</ele>
        <time>2015-09-24T09:35:34Z</time>
      </trkpt>
      <trkpt lat="42.24101" lon="0.04618">
        <ele>704.7</ele>
        <time>2015-09-24T09:35:36Z</time>
      </trkpt>
      <trkpt lat="42.24098" lon="0.04617">
        <ele>704.4</ele>
        <time>2015-09-24T09:35:42Z</time>
      </trkpt>
      <trkpt lat="42.24096" lon="0.04615">
        <ele>704.3</ele>
        <time>2015-09-24T09:35:47Z</time>
      </trkpt>
      <trkpt lat="42.24092" lon="0.04613">
        <ele>704</ele>
        <time>2015-09-24T09:35:56Z</time>
      </trkpt>
      <trkpt lat="42.2409" lon="0.0461">
        <ele>703.8</ele>
        <time>2015-09-24T09:35:58Z</time>
      </trkpt>
      <trkpt lat="42.24087" lon="0.04607">
        <ele>703.6</ele>
        <time>2015-09-24T09:36:01Z</time>
      </trkpt>
      <trkpt lat="42.24085" lon="0.04604">
        <ele>703.5</ele>
        <time>2015-09-24T09:36:03Z</time>
      </trkpt>
      <trkpt lat="42.24083" lon="0.04601">
        <ele>703.5</ele>
        <time>2015-09-24T09:36:05Z</time>
      </trkpt>
      <trkpt lat="42.24083" lon="0.04597">
        <ele>703.6</ele>
        <time>2015-09-24T09:36:08Z</time>
      </trkpt>
      <trkpt lat="42.24082" lon="0.04593">
        <ele>703.6</ele>
        <time>2015-09-24T09:36:15Z</time>
      </trkpt>
      <trkpt lat="42.2408" lon="0.0459">
        <ele>703.7</ele>
        <time>2015-09-24T09:36:18Z</time>
      </trkpt>
      <trkpt lat="42.24079" lon="0.04585">
        <ele>703.7</ele>
        <time>2015-09-24T09:36:21Z</time>
      </trkpt>
      <trkpt lat="42.24078" lon="0.0458">
        <ele>703.8</ele>
        <time>2015-09-24T09:36:23Z</time>
      </trkpt>
      <trkpt lat="42.24076" lon="0.04573">
        <ele>703.9</ele>
        <time>2015-09-24T09:36:25Z</time>
      </trkpt>
      <trkpt lat="42.24075" lon="0.04569">
        <ele>704</ele>
        <time>2015-09-24T09:36:26Z</time>
      </trkpt>
      <trkpt lat="42.24075" lon="0.04565">
        <ele>704.2</ele>
        <time>2015-09-24T09:36:27Z</time>
      </trkpt>
      <trkpt lat="42.24075" lon="0.04558">
        <ele>704.5</ele>
        <time>2015-09-24T09:36:29Z</time>
      </trkpt>
      <trkpt lat="42.24075" lon="0.04554">
        <ele>704.7</ele>
        <time>2015-09-24T09:36:30Z</time>
      </trkpt>
      <trkpt lat="42.24076" lon="0.0455">
        <ele>704.9</ele>
        <time>2015-09-24T09:36:31Z</time>
      </trkpt>
      <trkpt lat="42.24076" lon="0.04546">
        <ele>705.1</ele>
        <time>2015-09-24T09:36:32Z</time>
      </trkpt>
      <trkpt lat="42.24076" lon="0.04542">
        <ele>705.3</ele>
        <time>2015-09-24T09:36:33Z</time>
      </trkpt>
      <trkpt lat="42.24076" lon="0.04537">
        <ele>705.6</ele>
        <time>2015-09-24T09:36:34Z</time>
      </trkpt>
      <trkpt lat="42.24076" lon="0.04531">
        <ele>705.8</ele>
        <time>2015-09-24T09:36:35Z</time>
      </trkpt>
      <trkpt lat="42.24074" lon="0.04525">
        <ele>706</ele>
        <time>2015-09-24T09:36:36Z</time>
      </trkpt>
      <trkpt lat="42.24073" lon="0.04519">
        <ele>706.1</ele>
        <time>2015-09-24T09:36:37Z</time>
      </trkpt>
      <trkpt lat="42.24071" lon="0.04513">
        <ele>706.3</ele>
        <time>2015-09-24T09:36:38Z</time>
      </trkpt>
      <trkpt lat="42.24069" lon="0.04507">
        <ele>706.4</ele>
        <time>2015-09-24T09:36:39Z</time>
      </trkpt>
      <trkpt lat="42.24067" lon="0.04501">
        <ele>706.6</ele>
        <time>2015-09-24T09:36:40Z</time>
      </trkpt>
      <trkpt lat="42.24065" lon="0.04495">
        <ele>706.7</ele>
        <time>2015-09-24T09:36:41Z</time>
      </trkpt>
      <trkpt lat="42.24063" lon="0.04489">
        <ele>706.9</ele>
        <time>2015-09-24T09:36:42Z</time>
      </trkpt>
      <trkpt lat="42.24061" lon="0.04483">
        <ele>707.1</ele>
        <time>2015-09-24T09:36:43Z</time>
      </trkpt>
      <trkpt lat="42.24059" lon="0.04478">
        <ele>707.2</ele>
        <time>2015-09-24T09:36:44Z</time>
      </trkpt>
      <trkpt lat="42.24057" lon="0.04473">
        <ele>707.3</ele>
        <time>2015-09-24T09:36:45Z</time>
      </trkpt>
      <trkpt lat="42.24055" lon="0.04468">
        <ele>707.4</ele>
        <time>2015-09-24T09:36:46Z</time>
      </trkpt>
      <trkpt lat="42.24053" lon="0.04463">
        <ele>707.6</ele>
        <time>2015-09-24T09:36:47Z</time>
      </trkpt>
      <trkpt lat="42.24051" lon="0.04457">
        <ele>707.7</ele>
        <time>2015-09-24T09:36:48Z</time>
      </trkpt>
      <trkpt lat="42.24048" lon="0.04452">
        <ele>707.8</ele>
        <time>2015-09-24T09:36:49Z</time>
      </trkpt>
      <trkpt lat="42.24046" lon="0.04448">
        <ele>707.8</ele>
        <time>2015-09-24T09:36:50Z</time>
      </trkpt>
      <trkpt lat="42.24043" lon="0.04443">
        <ele>707.8</ele>
        <time>2015-09-24T09:36:51Z</time>
      </trkpt>
      <trkpt lat="42.2404" lon="0.04439">
        <ele>707.9</ele>
        <time>2015-09-24T09:36:52Z</time>
      </trkpt>
      <trkpt lat="42.24037" lon="0.04435">
        <ele>708</ele>
        <time>2015-09-24T09:36:53Z</time>
      </trkpt>
      <trkpt lat="42.24033" lon="0.04433">
        <ele>708.1</ele>
        <time>2015-09-24T09:36:54Z</time>
      </trkpt>
      <trkpt lat="42.24029" lon="0.0443">
        <ele>708.1</ele>
        <time>2015-09-24T09:36:55Z</time>
      </trkpt>
      <trkpt lat="42.24024" lon="0.04427">
        <ele>708.1</ele>
        <time>2015-09-24T09:36:56Z</time>
      </trkpt>
      <trkpt lat="42.2402" lon="0.04424">
        <ele>708.2</ele>
        <time>2015-09-24T09:36:57Z</time>
      </trkpt>
      <trkpt lat="42.24016" lon="0.04421">
        <ele>708.2</ele>
        <time>2015-09-24T09:36:58Z</time>
      </trkpt>
      <trkpt lat="42.24012" lon="0.04417">
        <ele>708.3</ele>
        <time>2015-09-24T09:36:59Z</time>
      </trkpt>
      <trkpt lat="42.24008" lon="0.04414">
        <ele>708.3</ele>
        <time>2015-09-24T09:37:00Z</time>
      </trkpt>
      <trkpt lat="42.24004" lon="0.04411">
        <ele>708.3</ele>
        <time>2015-09-24T09:37:01Z</time>
      </trkpt>
      <trkpt lat="42.24001" lon="0.04409">
        <ele>708.3</ele>
        <time>2015-09-24T09:37:02Z</time>
      </trkpt>
      <trkpt lat="42.23998" lon="0.04406">
        <ele>708.3</ele>
        <time>2015-09-24T09:37:03Z</time>
      </trkpt>
      <trkpt lat="42.23995" lon="0.04403">
        <ele>708.4</ele>
        <time>2015-09-24T09:37:05Z</time>
      </trkpt>
      <trkpt lat="42.23991" lon="0.04398">
        <ele>708.4</ele>
        <time>2015-09-24T09:37:07Z</time>
      </trkpt>
      <trkpt lat="42.23989" lon="0.04395">
        <ele>708.4</ele>
        <time>2015-09-24T09:37:08Z</time>
      </trkpt>
      <trkpt lat="42.23988" lon="0.04393">
        <ele>708.5</ele>
        <time>2015-09-24T09:37:09Z</time>
      </trkpt>
      <trkpt lat="42.23985" lon="0.04387">
        <ele>708.6</ele>
        <time>2015-09-24T09:37:11Z</time>
      </trkpt>
      <trkpt lat="42.23983" lon="0.04382">
        <ele>708.7</ele>
        <time>2015-09-24T09:37:13Z</time>
      </trkpt>
      <trkpt lat="42.23981" lon="0.04376">
        <ele>708.8</ele>
        <time>2015-09-24T09:37:15Z</time>
      </trkpt>
      <trkpt lat="42.23979" lon="0.04371">
        <ele>709.1</ele>
        <time>2015-09-24T09:37:17Z</time>
      </trkpt>
      <trkpt lat="42.23977" lon="0.04366">
        <ele>709.5</ele>
        <time>2015-09-24T09:37:19Z</time>
      </trkpt>
      <trkpt lat="42.23975" lon="0.04362">
        <ele>709.8</ele>
        <time>2015-09-24T09:37:20Z</time>
      </trkpt>
      <trkpt lat="42.23974" lon="0.04359">
        <ele>710.1</ele>
        <time>2015-09-24T09:37:21Z</time>
      </trkpt>
      <trkpt lat="42.23972" lon="0.04355">
        <ele>710.3</ele>
        <time>2015-09-24T09:37:22Z</time>
      </trkpt>
      <trkpt lat="42.2397" lon="0.04352">
        <ele>710.6</ele>
        <time>2015-09-24T09:37:23Z</time>
      </trkpt>
      <trkpt lat="42.23969" lon="0.04349">
        <ele>710.9</ele>
        <time>2015-09-24T09:37:24Z</time>
      </trkpt>
      <trkpt lat="42.23967" lon="0.04345">
        <ele>711.1</ele>
        <time>2015-09-24T09:37:25Z</time>
      </trkpt>
      <trkpt lat="42.23965" lon="0.04343">
        <ele>711.3</ele>
        <time>2015-09-24T09:37:26Z</time>
      </trkpt>
      <trkpt lat="42.23964" lon="0.0434">
        <ele>711.6</ele>
        <time>2015-09-24T09:37:27Z</time>
      </trkpt>
      <trkpt lat="42.23962" lon="0.04337">
        <ele>711.8</ele>
        <time>2015-09-24T09:37:28Z</time>
      </trkpt>
      <trkpt lat="42.2396" lon="0.04334">
        <ele>712</ele>
        <time>2015-09-24T09:37:29Z</time>
      </trkpt>
      <trkpt lat="42.23958" lon="0.04331">
        <ele>712.2</ele>
        <time>2015-09-24T09:37:30Z</time>
      </trkpt>
      <trkpt lat="42.23956" lon="0.04329">
        <ele>712.5</ele>
        <time>2015-09-24T09:37:31Z</time>
      </trkpt>
      <trkpt lat="42.23953" lon="0.04326">
        <ele>712.7</ele>
        <time>2015-09-24T09:37:32Z</time>
      </trkpt>
      <trkpt lat="42.23949" lon="0.04323">
        <ele>713</ele>
        <time>2015-09-24T09:37:34Z</time>
      </trkpt>
      <trkpt lat="42.23945" lon="0.04318">
        <ele>713.4</ele>
        <time>2015-09-24T09:37:36Z</time>
      </trkpt>
      <trkpt lat="42.23941" lon="0.04314">
        <ele>713.8</ele>
        <time>2015-09-24T09:37:38Z</time>
      </trkpt>
      <trkpt lat="42.23937" lon="0.0431">
        <ele>714</ele>
        <time>2015-09-24T09:37:40Z</time>
      </trkpt>
      <trkpt lat="42.23936" lon="0.04305">
        <ele>714.4</ele>
        <time>2015-09-24T09:37:42Z</time>
      </trkpt>
      <trkpt lat="42.23934" lon="0.04301">
        <ele>714.7</ele>
        <time>2015-09-24T09:37:44Z</time>
      </trkpt>
      <trkpt lat="42.23932" lon="0.04297">
        <ele>715</ele>
        <time>2015-09-24T09:37:47Z</time>
      </trkpt>
      <trkpt lat="42.2393" lon="0.04294">
        <ele>715.2</ele>
        <time>2015-09-24T09:37:49Z</time>
      </trkpt>
      <trkpt lat="42.23927" lon="0.04291">
        <ele>715.3</ele>
        <time>2015-09-24T09:37:52Z</time>
      </trkpt>
      <trkpt lat="42.23925" lon="0.04287">
        <ele>715.6</ele>
        <time>2015-09-24T09:37:55Z</time>
      </trkpt>
      <trkpt lat="42.23923" lon="0.04283">
        <ele>715.9</ele>
        <time>2015-09-24T09:37:57Z</time>
      </trkpt>
      <trkpt lat="42.23921" lon="0.0428">
        <ele>716.1</ele>
        <time>2015-09-24T09:37:59Z</time>
      </trkpt>
      <trkpt lat="42.23917" lon="0.04276">
        <ele>716.4</ele>
        <time>2015-09-24T09:38:01Z</time>
      </trkpt>
      <trkpt lat="42.23912" lon="0.04271">
        <ele>716.8</ele>
        <time>2015-09-24T09:38:03Z</time>
      </trkpt>
      <trkpt lat="42.23909" lon="0.04268">
        <ele>717</ele>
        <time>2015-09-24T09:38:04Z</time>
      </trkpt>
      <trkpt lat="42.23907" lon="0.04265">
        <ele>717.2</ele>
        <time>2015-09-24T09:38:05Z</time>
      </trkpt>
      <trkpt lat="42.23904" lon="0.04263">
        <ele>717.3</ele>
        <time>2015-09-24T09:38:06Z</time>
      </trkpt>
      <trkpt lat="42.23902" lon="0.04261">
        <ele>717.5</ele>
        <time>2015-09-24T09:38:07Z</time>
      </trkpt>
      <trkpt lat="42.23898" lon="0.04258">
        <ele>717.7</ele>
        <time>2015-09-24T09:38:09Z</time>
      </trkpt>
      <trkpt lat="42.23895" lon="0.04256">
        <ele>717.8</ele>
        <time>2015-09-24T09:38:15Z</time>
      </trkpt>
      <trkpt lat="42.23893" lon="0.04254">
        <ele>717.9</ele>
        <time>2015-09-24T09:38:19Z</time>
      </trkpt>
      <trkpt lat="42.2389" lon="0.04252">
        <ele>718.1</ele>
        <time>2015-09-24T09:38:23Z</time>
      </trkpt>
      <trkpt lat="42.23888" lon="0.04249">
        <ele>718.4</ele>
        <time>2015-09-24T09:38:26Z</time>
      </trkpt>
      <trkpt lat="42.23886" lon="0.04246">
        <ele>718.6</ele>
        <time>2015-09-24T09:38:29Z</time>
      </trkpt>
      <trkpt lat="42.23883" lon="0.04245">
        <ele>718.6</ele>
        <time>2015-09-24T09:38:32Z</time>
      </trkpt>
      <trkpt lat="42.23881" lon="0.04243">
        <ele>718.8</ele>
        <time>2015-09-24T09:38:35Z</time>
      </trkpt>
      <trkpt lat="42.23878" lon="0.04239">
        <ele>719.1</ele>
        <time>2015-09-24T09:38:39Z</time>
      </trkpt>
      <trkpt lat="42.23875" lon="0.04235">
        <ele>719.4</ele>
        <time>2015-09-24T09:38:42Z</time>
      </trkpt>
      <trkpt lat="42.23871" lon="0.04232">
        <ele>719.5</ele>
        <time>2015-09-24T09:38:44Z</time>
      </trkpt>
      <trkpt lat="42.23868" lon="0.04227">
        <ele>719.8</ele>
        <time>2015-09-24T09:38:46Z</time>
      </trkpt>
      <trkpt lat="42.23865" lon="0.04222">
        <ele>720</ele>
        <time>2015-09-24T09:38:48Z</time>
      </trkpt>
      <trkpt lat="42.23863" lon="0.04218">
        <ele>720.2</ele>
        <time>2015-09-24T09:38:50Z</time>
      </trkpt>
      <trkpt lat="42.2386" lon="0.04214">
        <ele>720.4</ele>
        <time>2015-09-24T09:38:52Z</time>
      </trkpt>
      <trkpt lat="42.23857" lon="0.0421">
        <ele>720.5</ele>
        <time>2015-09-24T09:38:54Z</time>
      </trkpt>
      <trkpt lat="42.23854" lon="0.04205">
        <ele>720.6</ele>
        <time>2015-09-24T09:38:56Z</time>
      </trkpt>
      <trkpt lat="42.23851" lon="0.04201">
        <ele>720.6</ele>
        <time>2015-09-24T09:38:58Z</time>
      </trkpt>
      <trkpt lat="42.23849" lon="0.04198">
        <ele>720.6</ele>
        <time>2015-09-24T09:38:59Z</time>
      </trkpt>
      <trkpt lat="42.23846" lon="0.04193">
        <ele>720.6</ele>
        <time>2015-09-24T09:39:01Z</time>
      </trkpt>
      <trkpt lat="42.23843" lon="0.04188">
        <ele>720.7</ele>
        <time>2015-09-24T09:39:03Z</time>
      </trkpt>
      <trkpt lat="42.2384" lon="0.04182">
        <ele>720.8</ele>
        <time>2015-09-24T09:39:05Z</time>
      </trkpt>
      <trkpt lat="42.23836" lon="0.04178">
        <ele>720.8</ele>
        <time>2015-09-24T09:39:07Z</time>
      </trkpt>
      <trkpt lat="42.23832" lon="0.04174">
        <ele>720.8</ele>
        <time>2015-09-24T09:39:09Z</time>
      </trkpt>
      <trkpt lat="42.23829" lon="0.04169">
        <ele>720.9</ele>
        <time>2015-09-24T09:39:11Z</time>
      </trkpt>
      <trkpt lat="42.23827" lon="0.04164">
        <ele>721</ele>
        <time>2015-09-24T09:39:13Z</time>
      </trkpt>
      <trkpt lat="42.23825" lon="0.0416">
        <ele>721.2</ele>
        <time>2015-09-24T09:39:15Z</time>
      </trkpt>
      <trkpt lat="42.23823" lon="0.04156">
        <ele>721.3</ele>
        <time>2015-09-24T09:39:17Z</time>
      </trkpt>
      <trkpt lat="42.23822" lon="0.04152">
        <ele>721.5</ele>
        <time>2015-09-24T09:39:19Z</time>
      </trkpt>
      <trkpt lat="42.2382" lon="0.04148">
        <ele>721.7</ele>
        <time>2015-09-24T09:39:21Z</time>
      </trkpt>
      <trkpt lat="42.23818" lon="0.04145">
        <ele>721.8</ele>
        <time>2015-09-24T09:39:23Z</time>
      </trkpt>
      <trkpt lat="42.23816" lon="0.04141">
        <ele>721.9</ele>
        <time>2015-09-24T09:39:25Z</time>
      </trkpt>
      <trkpt lat="42.23814" lon="0.04137">
        <ele>722</ele>
        <time>2015-09-24T09:39:27Z</time>
      </trkpt>
      <trkpt lat="42.23812" lon="0.04132">
        <ele>722.3</ele>
        <time>2015-09-24T09:39:29Z</time>
      </trkpt>
      <trkpt lat="42.23811" lon="0.04127">
        <ele>722.6</ele>
        <time>2015-09-24T09:39:31Z</time>
      </trkpt>
      <trkpt lat="42.2381" lon="0.04123">
        <ele>722.9</ele>
        <time>2015-09-24T09:39:33Z</time>
      </trkpt>
      <trkpt lat="42.23809" lon="0.04118">
        <ele>723.5</ele>
        <time>2015-09-24T09:39:35Z</time>
      </trkpt>
      <trkpt lat="42.23809" lon="0.04113">
        <ele>724</ele>
        <time>2015-09-24T09:39:37Z</time>
      </trkpt>
      <trkpt lat="42.23808" lon="0.04107">
        <ele>724.6</ele>
        <time>2015-09-24T09:39:39Z</time>
      </trkpt>
      <trkpt lat="42.23807" lon="0.04102">
        <ele>725.2</ele>
        <time>2015-09-24T09:39:41Z</time>
      </trkpt>
      <trkpt lat="42.23806" lon="0.04096">
        <ele>725.8</ele>
        <time>2015-09-24T09:39:43Z</time>
      </trkpt>
      <trkpt lat="42.23805" lon="0.04091">
        <ele>726.4</ele>
        <time>2015-09-24T09:39:45Z</time>
      </trkpt>
      <trkpt lat="42.23804" lon="0.04087">
        <ele>726.9</ele>
        <time>2015-09-24T09:39:47Z</time>
      </trkpt>
      <trkpt lat="42.238" lon="0.04084">
        <ele>727.2</ele>
        <time>2015-09-24T09:40:36Z</time>
      </trkpt>
      <trkpt lat="42.23798" lon="0.04078">
        <ele>727.8</ele>
        <time>2015-09-24T09:40:38Z</time>
      </trkpt>
      <trkpt lat="42.23797" lon="0.04074">
        <ele>728.3</ele>
        <time>2015-09-24T09:40:39Z</time>
      </trkpt>
      <trkpt lat="42.23796" lon="0.04069">
        <ele>728.8</ele>
        <time>2015-09-24T09:40:40Z</time>
      </trkpt>
      <trkpt lat="42.23794" lon="0.04066">
        <ele>729.1</ele>
        <time>2015-09-24T09:40:41Z</time>
      </trkpt>
      <trkpt lat="42.2379" lon="0.04061">
        <ele>729.7</ele>
        <time>2015-09-24T09:40:43Z</time>
      </trkpt>
      <trkpt lat="42.23788" lon="0.04055">
        <ele>730.3</ele>
        <time>2015-09-24T09:40:45Z</time>
      </trkpt>
      <trkpt lat="42.23787" lon="0.04048">
        <ele>731.1</ele>
        <time>2015-09-24T09:40:47Z</time>
      </trkpt>
      <trkpt lat="42.23787" lon="0.04041">
        <ele>731.9</ele>
        <time>2015-09-24T09:40:49Z</time>
      </trkpt>
      <trkpt lat="42.23787" lon="0.04035">
        <ele>732.5</ele>
        <time>2015-09-24T09:40:51Z</time>
      </trkpt>
      <trkpt lat="42.23787" lon="0.04028">
        <ele>733.1</ele>
        <time>2015-09-24T09:40:53Z</time>
      </trkpt>
      <trkpt lat="42.23786" lon="0.04022">
        <ele>733.8</ele>
        <time>2015-09-24T09:40:55Z</time>
      </trkpt>
      <trkpt lat="42.23786" lon="0.04016">
        <ele>734.3</ele>
        <time>2015-09-24T09:40:57Z</time>
      </trkpt>
      <trkpt lat="42.23788" lon="0.04015">
        <ele>734.5</ele>
        <time>2015-09-24T09:41:06Z</time>
      </trkpt>
      <trkpt lat="42.23789" lon="0.04011">
        <ele>734.9</ele>
        <time>2015-09-24T09:41:12Z</time>
      </trkpt>
      <trkpt lat="42.23789" lon="0.04007">
        <ele>735.2</ele>
        <time>2015-09-24T09:41:24Z</time>
      </trkpt>
      <trkpt lat="42.23791" lon="0.04004">
        <ele>735.6</ele>
        <time>2015-09-24T09:41:31Z</time>
      </trkpt>
      <trkpt lat="42.23793" lon="0.04001">
        <ele>735.9</ele>
        <time>2015-09-24T09:41:39Z</time>
      </trkpt>
      <trkpt lat="42.23793" lon="0.03997">
        <ele>736.3</ele>
        <time>2015-09-24T09:41:47Z</time>
      </trkpt>
      <trkpt lat="42.23792" lon="0.03991">
        <ele>736.8</ele>
        <time>2015-09-24T09:41:49Z</time>
      </trkpt>
      <trkpt lat="42.23789" lon="0.03988">
        <ele>737.1</ele>
        <time>2015-09-24T09:41:51Z</time>
      </trkpt>
      <trkpt lat="42.23786" lon="0.03987">
        <ele>737.1</ele>
        <time>2015-09-24T09:41:53Z</time>
      </trkpt>
      <trkpt lat="42.23783" lon="0.03987">
        <ele>737</ele>
        <time>2015-09-24T09:41:55Z</time>
      </trkpt>
      <trkpt lat="42.2378" lon="0.0399">
        <ele>736.6</ele>
        <time>2015-09-24T09:41:58Z</time>
      </trkpt>
      <trkpt lat="42.23778" lon="0.03994">
        <ele>736.2</ele>
        <time>2015-09-24T09:42:01Z</time>
      </trkpt>
      <trkpt lat="42.23775" lon="0.03997">
        <ele>735.8</ele>
        <time>2015-09-24T09:42:04Z</time>
      </trkpt>
      <trkpt lat="42.23773" lon="0.04001">
        <ele>735.3</ele>
        <time>2015-09-24T09:42:07Z</time>
      </trkpt>
      <trkpt lat="42.23771" lon="0.04004">
        <ele>735</ele>
        <time>2015-09-24T09:42:09Z</time>
      </trkpt>
      <trkpt lat="42.23769" lon="0.04007">
        <ele>734.6</ele>
        <time>2015-09-24T09:42:11Z</time>
      </trkpt>
      <trkpt lat="42.23767" lon="0.0401">
        <ele>734.3</ele>
        <time>2015-09-24T09:42:13Z</time>
      </trkpt>
      <trkpt lat="42.23764" lon="0.04013">
        <ele>734</ele>
        <time>2015-09-24T09:42:15Z</time>
      </trkpt>
      <trkpt lat="42.23762" lon="0.04015">
        <ele>733.7</ele>
        <time>2015-09-24T09:42:17Z</time>
      </trkpt>
      <trkpt lat="42.23759" lon="0.04016">
        <ele>733.5</ele>
        <time>2015-09-24T09:42:19Z</time>
      </trkpt>
      <trkpt lat="42.23756" lon="0.04017">
        <ele>733.4</ele>
        <time>2015-09-24T09:42:21Z</time>
      </trkpt>
      <trkpt lat="42.23753" lon="0.04017">
        <ele>733.3</ele>
        <time>2015-09-24T09:42:23Z</time>
      </trkpt>
      <trkpt lat="42.2375" lon="0.04018">
        <ele>733.2</ele>
        <time>2015-09-24T09:42:25Z</time>
      </trkpt>
      <trkpt lat="42.23747" lon="0.04018">
        <ele>733</ele>
        <time>2015-09-24T09:42:27Z</time>
      </trkpt>
      <trkpt lat="42.23744" lon="0.04018">
        <ele>733</ele>
        <time>2015-09-24T09:42:29Z</time>
      </trkpt>
      <trkpt lat="42.23741" lon="0.04017">
        <ele>733</ele>
        <time>2015-09-24T09:42:31Z</time>
      </trkpt>
      <trkpt lat="42.23739" lon="0.04016">
        <ele>733</ele>
        <time>2015-09-24T09:42:33Z</time>
      </trkpt>
      <trkpt lat="42.23736" lon="0.04015">
        <ele>733</ele>
        <time>2015-09-24T09:42:35Z</time>
      </trkpt>
      <trkpt lat="42.23733" lon="0.04013">
        <ele>733.1</ele>
        <time>2015-09-24T09:42:37Z</time>
      </trkpt>
      <trkpt lat="42.23731" lon="0.0401">
        <ele>733.3</ele>
        <time>2015-09-24T09:42:39Z</time>
      </trkpt>
      <trkpt lat="42.2373" lon="0.04007">
        <ele>733.5</ele>
        <time>2015-09-24T09:42:41Z</time>
      </trkpt>
      <trkpt lat="42.23728" lon="0.04004">
        <ele>733.8</ele>
        <time>2015-09-24T09:42:43Z</time>
      </trkpt>
      <trkpt lat="42.23726" lon="0.04">
        <ele>734</ele>
        <time>2015-09-24T09:42:45Z</time>
      </trkpt>
      <trkpt lat="42.23725" lon="0.03997">
        <ele>734.2</ele>
        <time>2015-09-24T09:42:47Z</time>
      </trkpt>
      <trkpt lat="42.23723" lon="0.03994">
        <ele>734.5</ele>
        <time>2015-09-24T09:42:49Z</time>
      </trkpt>
      <trkpt lat="42.23721" lon="0.0399">
        <ele>734.7</ele>
        <time>2015-09-24T09:42:51Z</time>
      </trkpt>
      <trkpt lat="42.2372" lon="0.03987">
        <ele>735</ele>
        <time>2015-09-24T09:42:53Z</time>
      </trkpt>
      <trkpt lat="42.23718" lon="0.03984">
        <ele>735.2</ele>
        <time>2015-09-24T09:42:55Z</time>
      </trkpt>
      <trkpt lat="42.23716" lon="0.0398">
        <ele>735.5</ele>
        <time>2015-09-24T09:42:57Z</time>
      </trkpt>
      <trkpt lat="42.23715" lon="0.03976">
        <ele>735.7</ele>
        <time>2015-09-24T09:42:59Z</time>
      </trkpt>
      <trkpt lat="42.23714" lon="0.03972">
        <ele>736</ele>
        <time>2015-09-24T09:43:01Z</time>
      </trkpt>
      <trkpt lat="42.23712" lon="0.03968">
        <ele>736.3</ele>
        <time>2015-09-24T09:43:03Z</time>
      </trkpt>
      <trkpt lat="42.2371" lon="0.03963">
        <ele>736.7</ele>
        <time>2015-09-24T09:43:05Z</time>
      </trkpt>
      <trkpt lat="42.23707" lon="0.03958">
        <ele>737</ele>
        <time>2015-09-24T09:43:07Z</time>
      </trkpt>
      <trkpt lat="42.23704" lon="0.03952">
        <ele>737.5</ele>
        <time>2015-09-24T09:43:09Z</time>
      </trkpt>
      <trkpt lat="42.23701" lon="0.03946">
        <ele>738</ele>
        <time>2015-09-24T09:43:11Z</time>
      </trkpt>
      <trkpt lat="42.237" lon="0.03943">
        <ele>738.3</ele>
        <time>2015-09-24T09:43:12Z</time>
      </trkpt>
      <trkpt lat="42.23698" lon="0.0394">
        <ele>738.6</ele>
        <time>2015-09-24T09:43:13Z</time>
      </trkpt>
      <trkpt lat="42.23695" lon="0.03934">
        <ele>739</ele>
        <time>2015-09-24T09:43:15Z</time>
      </trkpt>
      <trkpt lat="42.23693" lon="0.03931">
        <ele>739.3</ele>
        <time>2015-09-24T09:46:13Z</time>
      </trkpt>
      <trkpt lat="42.2369" lon="0.03927">
        <ele>739.6</ele>
        <time>2015-09-24T09:46:15Z</time>
      </trkpt>
      <trkpt lat="42.23687" lon="0.03923">
        <ele>739.9</ele>
        <time>2015-09-24T09:46:17Z</time>
      </trkpt>
      <trkpt lat="42.23682" lon="0.03919">
        <ele>740.2</ele>
        <time>2015-09-24T09:46:19Z</time>
      </trkpt>
      <trkpt lat="42.2368" lon="0.03916">
        <ele>740.3</ele>
        <time>2015-09-24T09:46:20Z</time>
      </trkpt>
      <trkpt lat="42.23678" lon="0.03914">
        <ele>740.5</ele>
        <time>2015-09-24T09:46:21Z</time>
      </trkpt>
      <trkpt lat="42.23673" lon="0.03911">
        <ele>740.8</ele>
        <time>2015-09-24T09:46:23Z</time>
      </trkpt>
      <trkpt lat="42.23671" lon="0.03908">
        <ele>741</ele>
        <time>2015-09-24T09:46:25Z</time>
      </trkpt>
      <trkpt lat="42.23673" lon="0.0391">
        <ele>740.8</ele>
        <time>2015-09-24T09:46:35Z</time>
      </trkpt>
      <trkpt lat="42.23677" lon="0.03914">
        <ele>740.5</ele>
        <time>2015-09-24T09:46:37Z</time>
      </trkpt>
      <trkpt lat="42.23682" lon="0.03918">
        <ele>740.3</ele>
        <time>2015-09-24T09:46:39Z</time>
      </trkpt>
      <trkpt lat="42.23684" lon="0.0392">
        <ele>740.1</ele>
        <time>2015-09-24T09:46:40Z</time>
      </trkpt>
      <trkpt lat="42.23687" lon="0.03922">
        <ele>740</ele>
        <time>2015-09-24T09:46:41Z</time>
      </trkpt>
      <trkpt lat="42.23689" lon="0.03924">
        <ele>739.8</ele>
        <time>2015-09-24T09:46:42Z</time>
      </trkpt>
      <trkpt lat="42.23691" lon="0.03926">
        <ele>739.6</ele>
        <time>2015-09-24T09:46:43Z</time>
      </trkpt>
      <trkpt lat="42.23693" lon="0.03929">
        <ele>739.5</ele>
        <time>2015-09-24T09:46:44Z</time>
      </trkpt>
      <trkpt lat="42.23695" lon="0.03932">
        <ele>739.2</ele>
        <time>2015-09-24T09:46:45Z</time>
      </trkpt>
      <trkpt lat="42.23697" lon="0.03935">
        <ele>739</ele>
        <time>2015-09-24T09:46:46Z</time>
      </trkpt>
      <trkpt lat="42.23699" lon="0.03939">
        <ele>738.6</ele>
        <time>2015-09-24T09:46:47Z</time>
      </trkpt>
      <trkpt lat="42.23701" lon="0.03943">
        <ele>738.3</ele>
        <time>2015-09-24T09:46:48Z</time>
      </trkpt>
      <trkpt lat="42.23703" lon="0.03947">
        <ele>738</ele>
        <time>2015-09-24T09:46:49Z</time>
      </trkpt>
      <trkpt lat="42.23705" lon="0.03951">
        <ele>737.6</ele>
        <time>2015-09-24T09:46:50Z</time>
      </trkpt>
      <trkpt lat="42.23707" lon="0.03955">
        <ele>737.3</ele>
        <time>2015-09-24T09:46:51Z</time>
      </trkpt>
      <trkpt lat="42.23709" lon="0.03959">
        <ele>737</ele>
        <time>2015-09-24T09:46:52Z</time>
      </trkpt>
      <trkpt lat="42.23711" lon="0.03963">
        <ele>736.7</ele>
        <time>2015-09-24T09:46:53Z</time>
      </trkpt>
      <trkpt lat="42.23713" lon="0.03966">
        <ele>736.5</ele>
        <time>2015-09-24T09:46:54Z</time>
      </trkpt>
      <trkpt lat="42.23715" lon="0.0397">
        <ele>736.3</ele>
        <time>2015-09-24T09:46:55Z</time>
      </trkpt>
      <trkpt lat="42.23717" lon="0.03974">
        <ele>736</ele>
        <time>2015-09-24T09:46:57Z</time>
      </trkpt>
      <trkpt lat="42.23718" lon="0.03978">
        <ele>735.7</ele>
        <time>2015-09-24T09:47:10Z</time>
      </trkpt>
      <trkpt lat="42.2372" lon="0.03984">
        <ele>735.2</ele>
        <time>2015-09-24T09:47:12Z</time>
      </trkpt>
      <trkpt lat="42.2372" lon="0.03988">
        <ele>734.9</ele>
        <time>2015-09-24T09:47:14Z</time>
      </trkpt>
      <trkpt lat="42.23723" lon="0.03993">
        <ele>734.6</ele>
        <time>2015-09-24T09:47:26Z</time>
      </trkpt>
      <trkpt lat="42.23724" lon="0.03996">
        <ele>734.3</ele>
        <time>2015-09-24T09:47:27Z</time>
      </trkpt>
      <trkpt lat="42.23726" lon="0.03999">
        <ele>734.1</ele>
        <time>2015-09-24T09:47:28Z</time>
      </trkpt>
      <trkpt lat="42.23727" lon="0.04002">
        <ele>733.9</ele>
        <time>2015-09-24T09:47:29Z</time>
      </trkpt>
      <trkpt lat="42.23729" lon="0.04006">
        <ele>733.6</ele>
        <time>2015-09-24T09:47:30Z</time>
      </trkpt>
      <trkpt lat="42.23731" lon="0.04009">
        <ele>733.4</ele>
        <time>2015-09-24T09:47:31Z</time>
      </trkpt>
      <trkpt lat="42.23734" lon="0.04014">
        <ele>733</ele>
        <time>2015-09-24T09:47:33Z</time>
      </trkpt>
      <trkpt lat="42.23737" lon="0.04018">
        <ele>732.8</ele>
        <time>2015-09-24T09:47:35Z</time>
      </trkpt>
      <trkpt lat="42.23741" lon="0.04019">
        <ele>732.8</ele>
        <time>2015-09-24T09:47:37Z</time>
      </trkpt>
      <trkpt lat="42.23747" lon="0.04021">
        <ele>732.8</ele>
        <time>2015-09-24T09:47:39Z</time>
      </trkpt>
      <trkpt lat="42.2375" lon="0.0402">
        <ele>732.9</ele>
        <time>2015-09-24T09:47:40Z</time>
      </trkpt>
      <trkpt lat="42.23753" lon="0.04019">
        <ele>733.1</ele>
        <time>2015-09-24T09:47:41Z</time>
      </trkpt>
      <trkpt lat="42.23756" lon="0.04018">
        <ele>733.3</ele>
        <time>2015-09-24T09:47:42Z</time>
      </trkpt>
      <trkpt lat="42.23759" lon="0.04018">
        <ele>733.4</ele>
        <time>2015-09-24T09:47:43Z</time>
      </trkpt>
      <trkpt lat="42.23763" lon="0.04016">
        <ele>733.6</ele>
        <time>2015-09-24T09:47:45Z</time>
      </trkpt>
      <trkpt lat="42.23765" lon="0.04016">
        <ele>733.8</ele>
        <time>2015-09-24T09:47:59Z</time>
      </trkpt>
      <trkpt lat="42.23767" lon="0.04011">
        <ele>734.2</ele>
        <time>2015-09-24T09:48:02Z</time>
      </trkpt>
      <trkpt lat="42.2377" lon="0.04008">
        <ele>734.6</ele>
        <time>2015-09-24T09:48:05Z</time>
      </trkpt>
      <trkpt lat="42.23772" lon="0.04007">
        <ele>734.8</ele>
        <time>2015-09-24T09:48:08Z</time>
      </trkpt>
      <trkpt lat="42.23769" lon="0.04009">
        <ele>734.5</ele>
        <time>2015-09-24T09:48:14Z</time>
      </trkpt>
      <trkpt lat="42.23766" lon="0.04012">
        <ele>734.1</ele>
        <time>2015-09-24T09:48:17Z</time>
      </trkpt>
      <trkpt lat="42.23764" lon="0.04015">
        <ele>733.8</ele>
        <time>2015-09-24T09:48:20Z</time>
      </trkpt>
      <trkpt lat="42.23761" lon="0.04017">
        <ele>733.6</ele>
        <time>2015-09-24T09:48:23Z</time>
      </trkpt>
      <trkpt lat="42.23758" lon="0.04018">
        <ele>733.3</ele>
        <time>2015-09-24T09:48:26Z</time>
      </trkpt>
      <trkpt lat="42.23754" lon="0.04019">
        <ele>733.1</ele>
        <time>2015-09-24T09:48:29Z</time>
      </trkpt>
      <trkpt lat="42.23751" lon="0.0402">
        <ele>733</ele>
        <time>2015-09-24T09:48:32Z</time>
      </trkpt>
      <trkpt lat="42.23747" lon="0.0402">
        <ele>732.8</ele>
        <time>2015-09-24T09:48:35Z</time>
      </trkpt>
      <trkpt lat="42.23743" lon="0.0402">
        <ele>732.8</ele>
        <time>2015-09-24T09:48:37Z</time>
      </trkpt>
      <trkpt lat="42.23739" lon="0.04018">
        <ele>732.8</ele>
        <time>2015-09-24T09:48:39Z</time>
      </trkpt>
      <trkpt lat="42.23736" lon="0.04016">
        <ele>732.9</ele>
        <time>2015-09-24T09:48:42Z</time>
      </trkpt>
      <trkpt lat="42.23734" lon="0.04014">
        <ele>733</ele>
        <time>2015-09-24T09:48:45Z</time>
      </trkpt>
      <trkpt lat="42.23731" lon="0.04012">
        <ele>733.2</ele>
        <time>2015-09-24T09:48:49Z</time>
      </trkpt>
      <trkpt lat="42.23729" lon="0.04008">
        <ele>733.5</ele>
        <time>2015-09-24T09:48:56Z</time>
      </trkpt>
      <trkpt lat="42.23727" lon="0.04004">
        <ele>733.7</ele>
        <time>2015-09-24T09:48:58Z</time>
      </trkpt>
      <trkpt lat="42.23725" lon="0.04">
        <ele>734</ele>
        <time>2015-09-24T09:49:00Z</time>
      </trkpt>
      <trkpt lat="42.23723" lon="0.03996">
        <ele>734.3</ele>
        <time>2015-09-24T09:49:02Z</time>
      </trkpt>
      <trkpt lat="42.23721" lon="0.03991">
        <ele>734.6</ele>
        <time>2015-09-24T09:49:04Z</time>
      </trkpt>
      <trkpt lat="42.23719" lon="0.03987">
        <ele>735</ele>
        <time>2015-09-24T09:49:06Z</time>
      </trkpt>
      <trkpt lat="42.23717" lon="0.03982">
        <ele>735.3</ele>
        <time>2015-09-24T09:49:08Z</time>
      </trkpt>
      <trkpt lat="42.23715" lon="0.03977">
        <ele>735.7</ele>
        <time>2015-09-24T09:49:10Z</time>
      </trkpt>
      <trkpt lat="42.23713" lon="0.03972">
        <ele>736</ele>
        <time>2015-09-24T09:49:12Z</time>
      </trkpt>
      <trkpt lat="42.23711" lon="0.03967">
        <ele>736.4</ele>
        <time>2015-09-24T09:49:14Z</time>
      </trkpt>
      <trkpt lat="42.23709" lon="0.03962">
        <ele>736.7</ele>
        <time>2015-09-24T09:49:16Z</time>
      </trkpt>
      <trkpt lat="42.23707" lon="0.03958">
        <ele>737</ele>
        <time>2015-09-24T09:49:18Z</time>
      </trkpt>
      <trkpt lat="42.23703" lon="0.03952">
        <ele>737.5</ele>
        <time>2015-09-24T09:49:20Z</time>
      </trkpt>
      <trkpt lat="42.237" lon="0.03947">
        <ele>737.9</ele>
        <time>2015-09-24T09:49:22Z</time>
      </trkpt>
      <trkpt lat="42.23698" lon="0.03941">
        <ele>738.4</ele>
        <time>2015-09-24T09:49:24Z</time>
      </trkpt>
      <trkpt lat="42.23695" lon="0.03935">
        <ele>738.9</ele>
        <time>2015-09-24T09:49:26Z</time>
      </trkpt>
      <trkpt lat="42.23697" lon="0.03939">
        <ele>738.6</ele>
        <time>2015-09-24T09:49:49Z</time>
      </trkpt>
      <trkpt lat="42.237" lon="0.03944">
        <ele>738.2</ele>
        <time>2015-09-24T09:49:51Z</time>
      </trkpt>
      <trkpt lat="42.23702" lon="0.03949">
        <ele>737.8</ele>
        <time>2015-09-24T09:49:53Z</time>
      </trkpt>
      <trkpt lat="42.23705" lon="0.03954">
        <ele>737.4</ele>
        <time>2015-09-24T09:49:55Z</time>
      </trkpt>
      <trkpt lat="42.23708" lon="0.03959">
        <ele>736.9</ele>
        <time>2015-09-24T09:49:57Z</time>
      </trkpt>
      <trkpt lat="42.23711" lon="0.03965">
        <ele>736.5</ele>
        <time>2015-09-24T09:49:59Z</time>
      </trkpt>
      <trkpt lat="42.23713" lon="0.03971">
        <ele>736.1</ele>
        <time>2015-09-24T09:50:01Z</time>
      </trkpt>
      <trkpt lat="42.23715" lon="0.03977">
        <ele>735.7</ele>
        <time>2015-09-24T09:50:03Z</time>
      </trkpt>
      <trkpt lat="42.23718" lon="0.03984">
        <ele>735.2</ele>
        <time>2015-09-24T09:50:05Z</time>
      </trkpt>
      <trkpt lat="42.23719" lon="0.03987">
        <ele>734.9</ele>
        <time>2015-09-24T09:50:06Z</time>
      </trkpt>
      <trkpt lat="42.23721" lon="0.0399">
        <ele>734.7</ele>
        <time>2015-09-24T09:50:07Z</time>
      </trkpt>
      <trkpt lat="42.23723" lon="0.03994">
        <ele>734.5</ele>
        <time>2015-09-24T09:50:08Z</time>
      </trkpt>
      <trkpt lat="42.23724" lon="0.03997">
        <ele>734.2</ele>
        <time>2015-09-24T09:50:09Z</time>
      </trkpt>
      <trkpt lat="42.23726" lon="0.04">
        <ele>734</ele>
        <time>2015-09-24T09:50:10Z</time>
      </trkpt>
      <trkpt lat="42.23727" lon="0.04004">
        <ele>733.8</ele>
        <time>2015-09-24T09:50:11Z</time>
      </trkpt>
      <trkpt lat="42.23729" lon="0.04007">
        <ele>733.5</ele>
        <time>2015-09-24T09:50:12Z</time>
      </trkpt>
      <trkpt lat="42.2373" lon="0.0401">
        <ele>733.3</ele>
        <time>2015-09-24T09:50:13Z</time>
      </trkpt>
      <trkpt lat="42.23732" lon="0.04013">
        <ele>733.1</ele>
        <time>2015-09-24T09:50:14Z</time>
      </trkpt>
      <trkpt lat="42.23734" lon="0.04016">
        <ele>732.9</ele>
        <time>2015-09-24T09:50:15Z</time>
      </trkpt>
      <trkpt lat="42.23737" lon="0.04018">
        <ele>732.8</ele>
        <time>2015-09-24T09:50:16Z</time>
      </trkpt>
      <trkpt lat="42.2374" lon="0.04019">
        <ele>732.8</ele>
        <time>2015-09-24T09:50:17Z</time>
      </trkpt>
      <trkpt lat="42.23743" lon="0.0402">
        <ele>732.8</ele>
        <time>2015-09-24T09:50:18Z</time>
      </trkpt>
      <trkpt lat="42.23747" lon="0.0402">
        <ele>732.8</ele>
        <time>2015-09-24T09:50:19Z</time>
      </trkpt>
      <trkpt lat="42.23752" lon="0.0402">
        <ele>733</ele>
        <time>2015-09-24T09:50:20Z</time>
      </trkpt>
      <trkpt lat="42.23757" lon="0.04019">
        <ele>733.3</ele>
        <time>2015-09-24T09:50:21Z</time>
      </trkpt>
      <trkpt lat="42.23761" lon="0.04017">
        <ele>733.6</ele>
        <time>2015-09-24T09:50:22Z</time>
      </trkpt>
      <trkpt lat="42.23766" lon="0.04014">
        <ele>734</ele>
        <time>2015-09-24T09:50:23Z</time>
      </trkpt>
      <trkpt lat="42.23769" lon="0.04007">
        <ele>734.7</ele>
        <time>2015-09-24T09:50:24Z</time>
      </trkpt>
      <trkpt lat="42.23772" lon="0.04002">
        <ele>735.2</ele>
        <time>2015-09-24T09:50:25Z</time>
      </trkpt>
      <trkpt lat="42.23774" lon="0.03998">
        <ele>735.7</ele>
        <time>2015-09-24T09:50:26Z</time>
      </trkpt>
      <trkpt lat="42.23777" lon="0.03995">
        <ele>736.1</ele>
        <time>2015-09-24T09:50:27Z</time>
      </trkpt>
      <trkpt lat="42.2378" lon="0.0399">
        <ele>736.5</ele>
        <time>2015-09-24T09:50:29Z</time>
      </trkpt>
      <trkpt lat="42.23783" lon="0.03991">
        <ele>736.6</ele>
        <time>2015-09-24T09:50:37Z</time>
      </trkpt>
      <trkpt lat="42.23785" lon="0.03987">
        <ele>737</ele>
        <time>2015-09-24T09:50:46Z</time>
      </trkpt>
      <trkpt lat="42.23789" lon="0.03987">
        <ele>737.2</ele>
        <time>2015-09-24T09:50:49Z</time>
      </trkpt>
      <trkpt lat="42.23791" lon="0.0399">
        <ele>736.9</ele>
        <time>2015-09-24T09:50:52Z</time>
      </trkpt>
      <trkpt lat="42.23791" lon="0.03994">
        <ele>736.6</ele>
        <time>2015-09-24T09:50:57Z</time>
      </trkpt>
      <trkpt lat="42.23791" lon="0.03998">
        <ele>736.2</ele>
        <time>2015-09-24T09:51:08Z</time>
      </trkpt>
      <trkpt lat="42.23788" lon="0.03997">
        <ele>736.2</ele>
        <time>2015-09-24T09:51:25Z</time>
      </trkpt>
      <trkpt lat="42.23786" lon="0.03999">
        <ele>735.9</ele>
        <time>2015-09-24T09:51:32Z</time>
      </trkpt>
      <trkpt lat="42.23784" lon="0.04001">
        <ele>735.6</ele>
        <time>2015-09-24T09:51:42Z</time>
      </trkpt>
      <trkpt lat="42.23781" lon="0.04004">
        <ele>735.3</ele>
        <time>2015-09-24T09:51:50Z</time>
      </trkpt>
      <trkpt lat="42.23781" lon="0.04008">
        <ele>734.9</ele>
        <time>2015-09-24T09:51:55Z</time>
      </trkpt>
      <trkpt lat="42.2378" lon="0.04012">
        <ele>734.6</ele>
        <time>2015-09-24T09:52:00Z</time>
      </trkpt>
      <trkpt lat="42.23778" lon="0.04014">
        <ele>734.2</ele>
        <time>2015-09-24T09:52:19Z</time>
      </trkpt>
      <trkpt lat="42.23776" lon="0.04017">
        <ele>734</ele>
        <time>2015-09-24T09:53:10Z</time>
      </trkpt>
      <trkpt lat="42.23774" lon="0.04019">
        <ele>733.7</ele>
        <time>2015-09-24T09:53:14Z</time>
      </trkpt>
      <trkpt lat="42.23771" lon="0.04022">
        <ele>733.3</ele>
        <time>2015-09-24T09:53:30Z</time>
      </trkpt>
      <trkpt lat="42.23769" lon="0.04025">
        <ele>733</ele>
        <time>2015-09-24T09:53:33Z</time>
      </trkpt>
      <trkpt lat="42.23766" lon="0.04028">
        <ele>732.7</ele>
        <time>2015-09-24T09:53:35Z</time>
      </trkpt>
      <trkpt lat="42.23764" lon="0.0403">
        <ele>732.4</ele>
        <time>2015-09-24T09:53:37Z</time>
      </trkpt>
      <trkpt lat="42.23761" lon="0.04033">
        <ele>732</ele>
        <time>2015-09-24T09:53:39Z</time>
      </trkpt>
      <trkpt lat="42.23757" lon="0.04036">
        <ele>731.7</ele>
        <time>2015-09-24T09:53:41Z</time>
      </trkpt>
      <trkpt lat="42.23754" lon="0.04038">
        <ele>731.4</ele>
        <time>2015-09-24T09:53:43Z</time>
      </trkpt>
      <trkpt lat="42.2375" lon="0.04039">
        <ele>731.2</ele>
        <time>2015-09-24T09:53:45Z</time>
      </trkpt>
      <trkpt lat="42.23746" lon="0.04039">
        <ele>731.1</ele>
        <time>2015-09-24T09:53:47Z</time>
      </trkpt>
      <trkpt lat="42.23741" lon="0.04039">
        <ele>731</ele>
        <time>2015-09-24T09:53:49Z</time>
      </trkpt>
      <trkpt lat="42.23737" lon="0.04038">
        <ele>731</ele>
        <time>2015-09-24T09:53:51Z</time>
      </trkpt>
      <trkpt lat="42.23733" lon="0.04036">
        <ele>731.1</ele>
        <time>2015-09-24T09:53:53Z</time>
      </trkpt>
      <trkpt lat="42.2373" lon="0.04035">
        <ele>731.1</ele>
        <time>2015-09-24T09:53:57Z</time>
      </trkpt>
      <trkpt lat="42.23727" lon="0.04033">
        <ele>731.2</ele>
        <time>2015-09-24T09:54:00Z</time>
      </trkpt>
      <trkpt lat="42.23725" lon="0.04032">
        <ele>731.3</ele>
        <time>2015-09-24T09:54:03Z</time>
      </trkpt>
      <trkpt lat="42.23722" lon="0.0403">
        <ele>731.4</ele>
        <time>2015-09-24T09:54:06Z</time>
      </trkpt>
      <trkpt lat="42.23719" lon="0.04027">
        <ele>731.5</ele>
        <time>2015-09-24T09:54:09Z</time>
      </trkpt>
      <trkpt lat="42.23717" lon="0.04025">
        <ele>731.6</ele>
        <time>2015-09-24T09:54:12Z</time>
      </trkpt>
      <trkpt lat="42.23714" lon="0.04023">
        <ele>731.8</ele>
        <time>2015-09-24T09:54:15Z</time>
      </trkpt>
      <trkpt lat="42.23712" lon="0.0402">
        <ele>731.9</ele>
        <time>2015-09-24T09:54:21Z</time>
      </trkpt>
      <trkpt lat="42.23709" lon="0.04018">
        <ele>732.1</ele>
        <time>2015-09-24T09:54:23Z</time>
      </trkpt>
      <trkpt lat="42.23706" lon="0.04014">
        <ele>732.2</ele>
        <time>2015-09-24T09:54:25Z</time>
      </trkpt>
      <trkpt lat="42.23703" lon="0.04011">
        <ele>732.4</ele>
        <time>2015-09-24T09:54:27Z</time>
      </trkpt>
      <trkpt lat="42.23699" lon="0.04007">
        <ele>732.6</ele>
        <time>2015-09-24T09:54:29Z</time>
      </trkpt>
      <trkpt lat="42.23696" lon="0.04003">
        <ele>732.8</ele>
        <time>2015-09-24T09:54:31Z</time>
      </trkpt>
      <trkpt lat="42.23694" lon="0.04001">
        <ele>732.9</ele>
        <time>2015-09-24T09:54:32Z</time>
      </trkpt>
      <trkpt lat="42.23691" lon="0.03998">
        <ele>733.1</ele>
        <time>2015-09-24T09:54:33Z</time>
      </trkpt>
      <trkpt lat="42.23689" lon="0.03995">
        <ele>733.2</ele>
        <time>2015-09-24T09:54:34Z</time>
      </trkpt>
      <trkpt lat="42.23687" lon="0.03993">
        <ele>733.4</ele>
        <time>2015-09-24T09:54:35Z</time>
      </trkpt>
      <trkpt lat="42.23685" lon="0.0399">
        <ele>733.6</ele>
        <time>2015-09-24T09:54:36Z</time>
      </trkpt>
      <trkpt lat="42.23683" lon="0.03987">
        <ele>733.8</ele>
        <time>2015-09-24T09:54:37Z</time>
      </trkpt>
      <trkpt lat="42.23681" lon="0.03984">
        <ele>734</ele>
        <time>2015-09-24T09:54:38Z</time>
      </trkpt>
      <trkpt lat="42.23678" lon="0.03981">
        <ele>734.2</ele>
        <time>2015-09-24T09:54:39Z</time>
      </trkpt>
      <trkpt lat="42.23675" lon="0.03978">
        <ele>734.3</ele>
        <time>2015-09-24T09:54:40Z</time>
      </trkpt>
      <trkpt lat="42.23672" lon="0.03976">
        <ele>734.5</ele>
        <time>2015-09-24T09:54:41Z</time>
      </trkpt>
      <trkpt lat="42.23669" lon="0.03974">
        <ele>734.6</ele>
        <time>2015-09-24T09:54:42Z</time>
      </trkpt>
      <trkpt lat="42.23665" lon="0.03971">
        <ele>734.7</ele>
        <time>2015-09-24T09:54:43Z</time>
      </trkpt>
      <trkpt lat="42.23661" lon="0.03968">
        <ele>734.9</ele>
        <time>2015-09-24T09:54:44Z</time>
      </trkpt>
      <trkpt lat="42.23657" lon="0.03966">
        <ele>735</ele>
        <time>2015-09-24T09:54:45Z</time>
      </trkpt>
      <trkpt lat="42.23652" lon="0.03963">
        <ele>735.2</ele>
        <time>2015-09-24T09:54:46Z</time>
      </trkpt>
      <trkpt lat="42.23647" lon="0.0396">
        <ele>735.4</ele>
        <time>2015-09-24T09:54:47Z</time>
      </trkpt>
      <trkpt lat="42.23642" lon="0.03958">
        <ele>735.4</ele>
        <time>2015-09-24T09:54:48Z</time>
      </trkpt>
      <trkpt lat="42.23638" lon="0.03956">
        <ele>735.5</ele>
        <time>2015-09-24T09:54:49Z</time>
      </trkpt>
      <trkpt lat="42.23634" lon="0.03954">
        <ele>735.6</ele>
        <time>2015-09-24T09:54:50Z</time>
      </trkpt>
      <trkpt lat="42.2363" lon="0.03952">
        <ele>735.7</ele>
        <time>2015-09-24T09:54:51Z</time>
      </trkpt>
      <trkpt lat="42.23626" lon="0.0395">
        <ele>735.8</ele>
        <time>2015-09-24T09:54:52Z</time>
      </trkpt>
      <trkpt lat="42.23622" lon="0.03948">
        <ele>736</ele>
        <time>2015-09-24T09:54:54Z</time>
      </trkpt>
      <trkpt lat="42.23619" lon="0.03947">
        <ele>736.1</ele>
        <time>2015-09-24T09:54:55Z</time>
      </trkpt>
      <trkpt lat="42.23615" lon="0.03947">
        <ele>736.2</ele>
        <time>2015-09-24T09:54:56Z</time>
      </trkpt>
      <trkpt lat="42.23611" lon="0.03946">
        <ele>736.2</ele>
        <time>2015-09-24T09:54:57Z</time>
      </trkpt>
      <trkpt lat="42.23608" lon="0.03946">
        <ele>736.2</ele>
        <time>2015-09-24T09:54:58Z</time>
      </trkpt>
      <trkpt lat="42.23604" lon="0.03945">
        <ele>736.3</ele>
        <time>2015-09-24T09:54:59Z</time>
      </trkpt>
      <trkpt lat="42.236" lon="0.03945">
        <ele>736.4</ele>
        <time>2015-09-24T09:55:00Z</time>
      </trkpt>
      <trkpt lat="42.23596" lon="0.03944">
        <ele>736.5</ele>
        <time>2015-09-24T09:55:01Z</time>
      </trkpt>
      <trkpt lat="42.23592" lon="0.03943">
        <ele>736.6</ele>
        <time>2015-09-24T09:55:02Z</time>
      </trkpt>
      <trkpt lat="42.23588" lon="0.03942">
        <ele>736.7</ele>
        <time>2015-09-24T09:55:03Z</time>
      </trkpt>
      <trkpt lat="42.23584" lon="0.03941">
        <ele>736.9</ele>
        <time>2015-09-24T09:55:04Z</time>
      </trkpt>
      <trkpt lat="42.2358" lon="0.0394">
        <ele>737</ele>
        <time>2015-09-24T09:55:05Z</time>
      </trkpt>
      <trkpt lat="42.23576" lon="0.03938">
        <ele>737.2</ele>
        <time>2015-09-24T09:55:06Z</time>
      </trkpt>
      <trkpt lat="42.23572" lon="0.03936">
        <ele>737.5</ele>
        <time>2015-09-24T09:55:07Z</time>
      </trkpt>
      <trkpt lat="42.23568" lon="0.03934">
        <ele>737.8</ele>
        <time>2015-09-24T09:55:08Z</time>
      </trkpt>
      <trkpt lat="42.23564" lon="0.03931">
        <ele>738.1</ele>
        <time>2015-09-24T09:55:09Z</time>
      </trkpt>
      <trkpt lat="42.23561" lon="0.03929">
        <ele>738.3</ele>
        <time>2015-09-24T09:55:10Z</time>
      </trkpt>
      <trkpt lat="42.23557" lon="0.03927">
        <ele>738.6</ele>
        <time>2015-09-24T09:55:11Z</time>
      </trkpt>
      <trkpt lat="42.23553" lon="0.03925">
        <ele>738.9</ele>
        <time>2015-09-24T09:55:12Z</time>
      </trkpt>
      <trkpt lat="42.2355" lon="0.03924">
        <ele>739.1</ele>
        <time>2015-09-24T09:55:13Z</time>
      </trkpt>
      <trkpt lat="42.23544" lon="0.03922">
        <ele>739.3</ele>
        <time>2015-09-24T09:55:15Z</time>
      </trkpt>
      <trkpt lat="42.23539" lon="0.03921">
        <ele>739.5</ele>
        <time>2015-09-24T09:55:17Z</time>
      </trkpt>
      <trkpt lat="42.23534" lon="0.0392">
        <ele>739.7</ele>
        <time>2015-09-24T09:55:19Z</time>
      </trkpt>
      <trkpt lat="42.23531" lon="0.0392">
        <ele>739.8</ele>
        <time>2015-09-24T09:55:20Z</time>
      </trkpt>
      <trkpt lat="42.23527" lon="0.0392">
        <ele>739.9</ele>
        <time>2015-09-24T09:55:21Z</time>
      </trkpt>
      <trkpt lat="42.23524" lon="0.03919">
        <ele>740</ele>
        <time>2015-09-24T09:55:22Z</time>
      </trkpt>
      <trkpt lat="42.23521" lon="0.03919">
        <ele>740.1</ele>
        <time>2015-09-24T09:55:23Z</time>
      </trkpt>
      <trkpt lat="42.23518" lon="0.03918">
        <ele>740.3</ele>
        <time>2015-09-24T09:55:24Z</time>
      </trkpt>
      <trkpt lat="42.23515" lon="0.03917">
        <ele>740.4</ele>
        <time>2015-09-24T09:55:25Z</time>
      </trkpt>
      <trkpt lat="42.23512" lon="0.03917">
        <ele>740.5</ele>
        <time>2015-09-24T09:55:26Z</time>
      </trkpt>
      <trkpt lat="42.23509" lon="0.03917">
        <ele>740.5</ele>
        <time>2015-09-24T09:55:27Z</time>
      </trkpt>
      <trkpt lat="42.23507" lon="0.03917">
        <ele>740.6</ele>
        <time>2015-09-24T09:55:28Z</time>
      </trkpt>
      <trkpt lat="42.23504" lon="0.03916">
        <ele>740.7</ele>
        <time>2015-09-24T09:55:29Z</time>
      </trkpt>
      <trkpt lat="42.23499" lon="0.03915">
        <ele>740.9</ele>
        <time>2015-09-24T09:55:31Z</time>
      </trkpt>
      <trkpt lat="42.23496" lon="0.03914">
        <ele>741.1</ele>
        <time>2015-09-24T09:55:33Z</time>
      </trkpt>
      <trkpt lat="42.23491" lon="0.03913">
        <ele>741.3</ele>
        <time>2015-09-24T09:55:35Z</time>
      </trkpt>
      <trkpt lat="42.23487" lon="0.03911">
        <ele>741.6</ele>
        <time>2015-09-24T09:55:37Z</time>
      </trkpt>
      <trkpt lat="42.23483" lon="0.03909">
        <ele>741.9</ele>
        <time>2015-09-24T09:55:39Z</time>
      </trkpt>
      <trkpt lat="42.2348" lon="0.03907">
        <ele>742.2</ele>
        <time>2015-09-24T09:55:41Z</time>
      </trkpt>
      <trkpt lat="42.23476" lon="0.03905">
        <ele>742.5</ele>
        <time>2015-09-24T09:55:43Z</time>
      </trkpt>
      <trkpt lat="42.23472" lon="0.03903">
        <ele>742.8</ele>
        <time>2015-09-24T09:55:51Z</time>
      </trkpt>
      <trkpt lat="42.23468" lon="0.039">
        <ele>743.1</ele>
        <time>2015-09-24T09:55:53Z</time>
      </trkpt>
      <trkpt lat="42.23464" lon="0.03898">
        <ele>743.5</ele>
        <time>2015-09-24T09:55:55Z</time>
      </trkpt>
      <trkpt lat="42.23459" lon="0.03896">
        <ele>743.7</ele>
        <time>2015-09-24T09:55:57Z</time>
      </trkpt>
      <trkpt lat="42.23455" lon="0.03894">
        <ele>744</ele>
        <time>2015-09-24T09:55:59Z</time>
      </trkpt>
      <trkpt lat="42.23451" lon="0.03893">
        <ele>744.3</ele>
        <time>2015-09-24T09:56:01Z</time>
      </trkpt>
      <trkpt lat="42.23447" lon="0.0389">
        <ele>744.6</ele>
        <time>2015-09-24T09:56:03Z</time>
      </trkpt>
      <trkpt lat="42.23442" lon="0.03888">
        <ele>745</ele>
        <time>2015-09-24T09:56:05Z</time>
      </trkpt>
      <trkpt lat="42.2344" lon="0.03886">
        <ele>745.3</ele>
        <time>2015-09-24T09:56:06Z</time>
      </trkpt>
      <trkpt lat="42.23437" lon="0.03884">
        <ele>745.5</ele>
        <time>2015-09-24T09:56:07Z</time>
      </trkpt>
      <trkpt lat="42.23433" lon="0.03883">
        <ele>745.8</ele>
        <time>2015-09-24T09:56:08Z</time>
      </trkpt>
      <trkpt lat="42.2343" lon="0.03882">
        <ele>746</ele>
        <time>2015-09-24T09:56:09Z</time>
      </trkpt>
      <trkpt lat="42.23427" lon="0.03881">
        <ele>746.1</ele>
        <time>2015-09-24T09:56:10Z</time>
      </trkpt>
      <trkpt lat="42.23424" lon="0.0388">
        <ele>746.3</ele>
        <time>2015-09-24T09:56:11Z</time>
      </trkpt>
      <trkpt lat="42.23421" lon="0.0388">
        <ele>746.4</ele>
        <time>2015-09-24T09:56:12Z</time>
      </trkpt>
      <trkpt lat="42.23417" lon="0.03881">
        <ele>746.4</ele>
        <time>2015-09-24T09:56:13Z</time>
      </trkpt>
      <trkpt lat="42.23414" lon="0.03881">
        <ele>746.4</ele>
        <time>2015-09-24T09:56:14Z</time>
      </trkpt>
      <trkpt lat="42.2341" lon="0.03882">
        <ele>746.4</ele>
        <time>2015-09-24T09:56:15Z</time>
      </trkpt>
      <trkpt lat="42.23407" lon="0.03882">
        <ele>746.4</ele>
        <time>2015-09-24T09:56:16Z</time>
      </trkpt>
      <trkpt lat="42.23402" lon="0.03883">
        <ele>746.5</ele>
        <time>2015-09-24T09:56:18Z</time>
      </trkpt>
      <trkpt lat="42.23397" lon="0.03884">
        <ele>746.5</ele>
        <time>2015-09-24T09:56:20Z</time>
      </trkpt>
      <trkpt lat="42.23392" lon="0.03884">
        <ele>746.6</ele>
        <time>2015-09-24T09:56:22Z</time>
      </trkpt>
      <trkpt lat="42.23387" lon="0.03883">
        <ele>746.8</ele>
        <time>2015-09-24T09:56:24Z</time>
      </trkpt>
      <trkpt lat="42.23382" lon="0.03882">
        <ele>747.1</ele>
        <time>2015-09-24T09:56:26Z</time>
      </trkpt>
      <trkpt lat="42.23377" lon="0.03882">
        <ele>747.2</ele>
        <time>2015-09-24T09:56:28Z</time>
      </trkpt>
      <trkpt lat="42.23373" lon="0.0388">
        <ele>747.6</ele>
        <time>2015-09-24T09:56:30Z</time>
      </trkpt>
      <trkpt lat="42.23368" lon="0.03878">
        <ele>748.1</ele>
        <time>2015-09-24T09:56:32Z</time>
      </trkpt>
      <trkpt lat="42.23363" lon="0.03876">
        <ele>748.5</ele>
        <time>2015-09-24T09:56:34Z</time>
      </trkpt>
      <trkpt lat="42.23359" lon="0.03873">
        <ele>748.9</ele>
        <time>2015-09-24T09:56:36Z</time>
      </trkpt>
      <trkpt lat="42.23355" lon="0.0387">
        <ele>749.4</ele>
        <time>2015-09-24T09:56:38Z</time>
      </trkpt>
      <trkpt lat="42.23351" lon="0.03867">
        <ele>749.9</ele>
        <time>2015-09-24T09:56:40Z</time>
      </trkpt>
      <trkpt lat="42.23346" lon="0.03865">
        <ele>750.4</ele>
        <time>2015-09-24T09:56:42Z</time>
      </trkpt>
      <trkpt lat="42.23341" lon="0.03863">
        <ele>750.8</ele>
        <time>2015-09-24T09:56:44Z</time>
      </trkpt>
      <trkpt lat="42.23338" lon="0.03863">
        <ele>750.9</ele>
        <time>2015-09-24T09:56:47Z</time>
      </trkpt>
      <trkpt lat="42.23336" lon="0.03862">
        <ele>751.2</ele>
        <time>2015-09-24T09:56:50Z</time>
      </trkpt>
      <trkpt lat="42.23334" lon="0.03859">
        <ele>751.6</ele>
        <time>2015-09-24T09:56:52Z</time>
      </trkpt>
      <trkpt lat="42.23329" lon="0.03855">
        <ele>752.1</ele>
        <time>2015-09-24T09:56:54Z</time>
      </trkpt>
      <trkpt lat="42.23324" lon="0.03854">
        <ele>752.5</ele>
        <time>2015-09-24T09:56:56Z</time>
      </trkpt>
      <trkpt lat="42.23319" lon="0.03854">
        <ele>752.7</ele>
        <time>2015-09-24T09:56:58Z</time>
      </trkpt>
      <trkpt lat="42.23315" lon="0.03855">
        <ele>752.8</ele>
        <time>2015-09-24T09:57:00Z</time>
      </trkpt>
      <trkpt lat="42.23311" lon="0.03855">
        <ele>753</ele>
        <time>2015-09-24T09:57:02Z</time>
      </trkpt>
      <trkpt lat="42.23308" lon="0.03855">
        <ele>753.2</ele>
        <time>2015-09-24T09:57:05Z</time>
      </trkpt>
      <trkpt lat="42.23304" lon="0.03853">
        <ele>753.6</ele>
        <time>2015-09-24T09:57:08Z</time>
      </trkpt>
      <trkpt lat="42.23302" lon="0.0385">
        <ele>753.9</ele>
        <time>2015-09-24T09:57:10Z</time>
      </trkpt>
      <trkpt lat="42.233" lon="0.03847">
        <ele>754.3</ele>
        <time>2015-09-24T09:57:12Z</time>
      </trkpt>
      <trkpt lat="42.23298" lon="0.03843">
        <ele>754.7</ele>
        <time>2015-09-24T09:57:14Z</time>
      </trkpt>
      <trkpt lat="42.23296" lon="0.0384">
        <ele>755.2</ele>
        <time>2015-09-24T09:57:16Z</time>
      </trkpt>
      <trkpt lat="42.23294" lon="0.03836">
        <ele>755.6</ele>
        <time>2015-09-24T09:57:18Z</time>
      </trkpt>
      <trkpt lat="42.23292" lon="0.03833">
        <ele>756.1</ele>
        <time>2015-09-24T09:57:20Z</time>
      </trkpt>
      <trkpt lat="42.23289" lon="0.03831">
        <ele>756.4</ele>
        <time>2015-09-24T09:57:22Z</time>
      </trkpt>
      <trkpt lat="42.23286" lon="0.0383">
        <ele>756.6</ele>
        <time>2015-09-24T09:57:24Z</time>
      </trkpt>
      <trkpt lat="42.23283" lon="0.03829">
        <ele>756.9</ele>
        <time>2015-09-24T09:57:26Z</time>
      </trkpt>
      <trkpt lat="42.2328" lon="0.03829">
        <ele>757</ele>
        <time>2015-09-24T09:57:39Z</time>
      </trkpt>
      <trkpt lat="42.23276" lon="0.03828">
        <ele>757.3</ele>
        <time>2015-09-24T09:57:41Z</time>
      </trkpt>
      <trkpt lat="42.23271" lon="0.03828">
        <ele>757.6</ele>
        <time>2015-09-24T09:57:43Z</time>
      </trkpt>
      <trkpt lat="42.23267" lon="0.03826">
        <ele>758</ele>
        <time>2015-09-24T09:57:45Z</time>
      </trkpt>
      <trkpt lat="42.23263" lon="0.03825">
        <ele>758.3</ele>
        <time>2015-09-24T09:57:47Z</time>
      </trkpt>
      <trkpt lat="42.23258" lon="0.03824">
        <ele>758.7</ele>
        <time>2015-09-24T09:57:49Z</time>
      </trkpt>
      <trkpt lat="42.23254" lon="0.03822">
        <ele>759.1</ele>
        <time>2015-09-24T09:57:51Z</time>
      </trkpt>
      <trkpt lat="42.2325" lon="0.0382">
        <ele>759.5</ele>
        <time>2015-09-24T09:57:53Z</time>
      </trkpt>
      <trkpt lat="42.23247" lon="0.03817">
        <ele>759.9</ele>
        <time>2015-09-24T09:57:55Z</time>
      </trkpt>
      <trkpt lat="42.23243" lon="0.03813">
        <ele>760.4</ele>
        <time>2015-09-24T09:57:57Z</time>
      </trkpt>
      <trkpt lat="42.2324" lon="0.0381">
        <ele>760.9</ele>
        <time>2015-09-24T09:57:59Z</time>
      </trkpt>
      <trkpt lat="42.23237" lon="0.03806">
        <ele>761.3</ele>
        <time>2015-09-24T09:58:01Z</time>
      </trkpt>
      <trkpt lat="42.23234" lon="0.03803">
        <ele>761.8</ele>
        <time>2015-09-24T09:58:03Z</time>
      </trkpt>
      <trkpt lat="42.23231" lon="0.038">
        <ele>762.2</ele>
        <time>2015-09-24T09:58:05Z</time>
      </trkpt>
      <trkpt lat="42.23228" lon="0.03798">
        <ele>762.5</ele>
        <time>2015-09-24T09:58:07Z</time>
      </trkpt>
      <trkpt lat="42.23225" lon="0.03796">
        <ele>762.8</ele>
        <time>2015-09-24T09:58:09Z</time>
      </trkpt>
      <trkpt lat="42.23221" lon="0.03794">
        <ele>763.1</ele>
        <time>2015-09-24T09:58:11Z</time>
      </trkpt>
      <trkpt lat="42.23219" lon="0.03792">
        <ele>763.5</ele>
        <time>2015-09-24T09:58:13Z</time>
      </trkpt>
      <trkpt lat="42.23216" lon="0.03789">
        <ele>763.9</ele>
        <time>2015-09-24T09:58:15Z</time>
      </trkpt>
      <trkpt lat="42.23214" lon="0.03786">
        <ele>764.2</ele>
        <time>2015-09-24T09:58:17Z</time>
      </trkpt>
      <trkpt lat="42.23212" lon="0.03782">
        <ele>764.6</ele>
        <time>2015-09-24T09:58:19Z</time>
      </trkpt>
      <trkpt lat="42.23209" lon="0.03779">
        <ele>765</ele>
        <time>2015-09-24T09:58:21Z</time>
      </trkpt>
      <trkpt lat="42.23207" lon="0.03776">
        <ele>765.4</ele>
        <time>2015-09-24T09:58:23Z</time>
      </trkpt>
      <trkpt lat="42.23204" lon="0.03773">
        <ele>765.7</ele>
        <time>2015-09-24T09:58:25Z</time>
      </trkpt>
      <trkpt lat="42.23202" lon="0.0377">
        <ele>766</ele>
        <time>2015-09-24T09:58:27Z</time>
      </trkpt>
      <trkpt lat="42.23199" lon="0.03767">
        <ele>766.4</ele>
        <time>2015-09-24T09:58:29Z</time>
      </trkpt>
      <trkpt lat="42.23197" lon="0.03764">
        <ele>766.7</ele>
        <time>2015-09-24T09:58:31Z</time>
      </trkpt>
      <trkpt lat="42.23195" lon="0.03761">
        <ele>767</ele>
        <time>2015-09-24T09:58:33Z</time>
      </trkpt>
      <trkpt lat="42.23192" lon="0.03759">
        <ele>767.4</ele>
        <time>2015-09-24T09:58:35Z</time>
      </trkpt>
      <trkpt lat="42.2319" lon="0.03756">
        <ele>767.7</ele>
        <time>2015-09-24T09:58:37Z</time>
      </trkpt>
      <trkpt lat="42.23188" lon="0.03753">
        <ele>768</ele>
        <time>2015-09-24T09:58:39Z</time>
      </trkpt>
      <trkpt lat="42.23185" lon="0.0375">
        <ele>768.3</ele>
        <time>2015-09-24T09:58:41Z</time>
      </trkpt>
      <trkpt lat="42.23183" lon="0.03747">
        <ele>768.7</ele>
        <time>2015-09-24T09:58:43Z</time>
      </trkpt>
      <trkpt lat="42.2318" lon="0.03745">
        <ele>768.9</ele>
        <time>2015-09-24T09:58:45Z</time>
      </trkpt>
      <trkpt lat="42.23177" lon="0.03745">
        <ele>769.1</ele>
        <time>2015-09-24T09:58:47Z</time>
      </trkpt>
      <trkpt lat="42.23174" lon="0.03745">
        <ele>769.2</ele>
        <time>2015-09-24T09:58:49Z</time>
      </trkpt>
      <trkpt lat="42.2317" lon="0.03745">
        <ele>769.3</ele>
        <time>2015-09-24T09:58:51Z</time>
      </trkpt>
      <trkpt lat="42.23167" lon="0.03743">
        <ele>769.6</ele>
        <time>2015-09-24T09:58:53Z</time>
      </trkpt>
      <trkpt lat="42.23164" lon="0.03741">
        <ele>769.9</ele>
        <time>2015-09-24T09:58:55Z</time>
      </trkpt>
      <trkpt lat="42.23161" lon="0.03738">
        <ele>770.2</ele>
        <time>2015-09-24T09:58:57Z</time>
      </trkpt>
      <trkpt lat="42.23158" lon="0.03736">
        <ele>770.5</ele>
        <time>2015-09-24T09:58:59Z</time>
      </trkpt>
      <trkpt lat="42.23155" lon="0.03735">
        <ele>770.7</ele>
        <time>2015-09-24T09:59:01Z</time>
      </trkpt>
      <trkpt lat="42.23152" lon="0.03733">
        <ele>771</ele>
        <time>2015-09-24T09:59:03Z</time>
      </trkpt>
      <trkpt lat="42.23149" lon="0.03731">
        <ele>771.2</ele>
        <time>2015-09-24T09:59:05Z</time>
      </trkpt>
      <trkpt lat="42.23146" lon="0.03729">
        <ele>771.5</ele>
        <time>2015-09-24T09:59:07Z</time>
      </trkpt>
      <trkpt lat="42.23142" lon="0.03727">
        <ele>771.8</ele>
        <time>2015-09-24T09:59:09Z</time>
      </trkpt>
      <trkpt lat="42.23139" lon="0.03725">
        <ele>772.1</ele>
        <time>2015-09-24T09:59:11Z</time>
      </trkpt>
      <trkpt lat="42.23136" lon="0.03722">
        <ele>772.4</ele>
        <time>2015-09-24T09:59:13Z</time>
      </trkpt>
      <trkpt lat="42.23132" lon="0.0372">
        <ele>772.8</ele>
        <time>2015-09-24T09:59:15Z</time>
      </trkpt>
      <trkpt lat="42.23129" lon="0.03717">
        <ele>773.1</ele>
        <time>2015-09-24T09:59:17Z</time>
      </trkpt>
      <trkpt lat="42.23125" lon="0.03715">
        <ele>773.4</ele>
        <time>2015-09-24T09:59:19Z</time>
      </trkpt>
      <trkpt lat="42.23121" lon="0.03714">
        <ele>773.4</ele>
        <time>2015-09-24T09:59:21Z</time>
      </trkpt>
      <trkpt lat="42.23117" lon="0.0371">
        <ele>773.6</ele>
        <time>2015-09-24T09:59:23Z</time>
      </trkpt>
      <trkpt lat="42.23113" lon="0.03705">
        <ele>773.7</ele>
        <time>2015-09-24T09:59:25Z</time>
      </trkpt>
      <trkpt lat="42.2311" lon="0.037">
        <ele>773.8</ele>
        <time>2015-09-24T09:59:27Z</time>
      </trkpt>
      <trkpt lat="42.23106" lon="0.03695">
        <ele>773.8</ele>
        <time>2015-09-24T09:59:29Z</time>
      </trkpt>
      <trkpt lat="42.23102" lon="0.03691">
        <ele>773.8</ele>
        <time>2015-09-24T09:59:31Z</time>
      </trkpt>
      <trkpt lat="42.23099" lon="0.0369">
        <ele>773.8</ele>
        <time>2015-09-24T09:59:32Z</time>
      </trkpt>
      <trkpt lat="42.23096" lon="0.03689">
        <ele>773.8</ele>
        <time>2015-09-24T09:59:33Z</time>
      </trkpt>
      <trkpt lat="42.23094" lon="0.03688">
        <ele>773.7</ele>
        <time>2015-09-24T09:59:34Z</time>
      </trkpt>
      <trkpt lat="42.23091" lon="0.03687">
        <ele>773.6</ele>
        <time>2015-09-24T09:59:35Z</time>
      </trkpt>
      <trkpt lat="42.23088" lon="0.03686">
        <ele>773.6</ele>
        <time>2015-09-24T09:59:36Z</time>
      </trkpt>
      <trkpt lat="42.23085" lon="0.03686">
        <ele>773.5</ele>
        <time>2015-09-24T09:59:37Z</time>
      </trkpt>
      <trkpt lat="42.2308" lon="0.03684">
        <ele>773.4</ele>
        <time>2015-09-24T09:59:39Z</time>
      </trkpt>
      <trkpt lat="42.23077" lon="0.03681">
        <ele>773.5</ele>
        <time>2015-09-24T09:59:41Z</time>
      </trkpt>
      <trkpt lat="42.23074" lon="0.03677">
        <ele>773.6</ele>
        <time>2015-09-24T09:59:43Z</time>
      </trkpt>
      <trkpt lat="42.23072" lon="0.03672">
        <ele>773.7</ele>
        <time>2015-09-24T09:59:45Z</time>
      </trkpt>
      <trkpt lat="42.23069" lon="0.03668">
        <ele>773.8</ele>
        <time>2015-09-24T09:59:47Z</time>
      </trkpt>
      <trkpt lat="42.23066" lon="0.03662">
        <ele>773.9</ele>
        <time>2015-09-24T09:59:49Z</time>
      </trkpt>
      <trkpt lat="42.23065" lon="0.03658">
        <ele>774.1</ele>
        <time>2015-09-24T09:59:51Z</time>
      </trkpt>
      <trkpt lat="42.23068" lon="0.03657">
        <ele>774.2</ele>
        <time>2015-09-24T09:59:56Z</time>
      </trkpt>
      <trkpt lat="42.2307" lon="0.03656">
        <ele>774.3</ele>
        <time>2015-09-24T10:00:25Z</time>
      </trkpt>
      <trkpt lat="42.23074" lon="0.03655">
        <ele>774.5</ele>
        <time>2015-09-24T10:00:27Z</time>
      </trkpt>
      <trkpt lat="42.23077" lon="0.03654">
        <ele>774.6</ele>
        <time>2015-09-24T10:00:29Z</time>
      </trkpt>
      <trkpt lat="42.2308" lon="0.03653">
        <ele>774.7</ele>
        <time>2015-09-24T10:00:31Z</time>
      </trkpt>
      <trkpt lat="42.23082" lon="0.03651">
        <ele>774.9</ele>
        <time>2015-09-24T10:00:33Z</time>
      </trkpt>
      <trkpt lat="42.23085" lon="0.0365">
        <ele>775</ele>
        <time>2015-09-24T10:01:27Z</time>
      </trkpt>
      <trkpt lat="42.23087" lon="0.03648">
        <ele>775.2</ele>
        <time>2015-09-24T10:01:29Z</time>
      </trkpt>
      <trkpt lat="42.23091" lon="0.03643">
        <ele>775.4</ele>
        <time>2015-09-24T10:01:31Z</time>
      </trkpt>
      <trkpt lat="42.23094" lon="0.03639">
        <ele>775.7</ele>
        <time>2015-09-24T10:01:33Z</time>
      </trkpt>
      <trkpt lat="42.23098" lon="0.03635">
        <ele>776</ele>
        <time>2015-09-24T10:01:35Z</time>
      </trkpt>
      <trkpt lat="42.231" lon="0.03633">
        <ele>776.1</ele>
        <time>2015-09-24T10:01:36Z</time>
      </trkpt>
      <trkpt lat="42.23103" lon="0.0363">
        <ele>776.3</ele>
        <time>2015-09-24T10:01:37Z</time>
      </trkpt>
      <trkpt lat="42.23105" lon="0.03629">
        <ele>776.4</ele>
        <time>2015-09-24T10:01:38Z</time>
      </trkpt>
      <trkpt lat="42.23108" lon="0.03626">
        <ele>776.5</ele>
        <time>2015-09-24T10:01:39Z</time>
      </trkpt>
      <trkpt lat="42.2311" lon="0.03625">
        <ele>776.7</ele>
        <time>2015-09-24T10:01:40Z</time>
      </trkpt>
      <trkpt lat="42.23114" lon="0.03621">
        <ele>776.9</ele>
        <time>2015-09-24T10:01:42Z</time>
      </trkpt>
      <trkpt lat="42.23118" lon="0.03616">
        <ele>777.2</ele>
        <time>2015-09-24T10:01:44Z</time>
      </trkpt>
      <trkpt lat="42.23121" lon="0.03612">
        <ele>777.4</ele>
        <time>2015-09-24T10:01:46Z</time>
      </trkpt>
      <trkpt lat="42.23125" lon="0.03607">
        <ele>777.6</ele>
        <time>2015-09-24T10:01:48Z</time>
      </trkpt>
      <trkpt lat="42.23129" lon="0.03604">
        <ele>777.8</ele>
        <time>2015-09-24T10:01:50Z</time>
      </trkpt>
      <trkpt lat="42.23132" lon="0.03602">
        <ele>777.9</ele>
        <time>2015-09-24T10:01:51Z</time>
      </trkpt>
      <trkpt lat="42.23136" lon="0.03598">
        <ele>778.1</ele>
        <time>2015-09-24T10:01:53Z</time>
      </trkpt>
      <trkpt lat="42.2314" lon="0.03594">
        <ele>778.2</ele>
        <time>2015-09-24T10:01:55Z</time>
      </trkpt>
      <trkpt lat="42.23143" lon="0.0359">
        <ele>778.4</ele>
        <time>2015-09-24T10:01:57Z</time>
      </trkpt>
      <trkpt lat="42.23147" lon="0.03585">
        <ele>778.6</ele>
        <time>2015-09-24T10:01:59Z</time>
      </trkpt>
      <trkpt lat="42.23151" lon="0.0358">
        <ele>778.8</ele>
        <time>2015-09-24T10:02:01Z</time>
      </trkpt>
      <trkpt lat="42.23154" lon="0.03575">
        <ele>778.9</ele>
        <time>2015-09-24T10:02:03Z</time>
      </trkpt>
      <trkpt lat="42.23157" lon="0.0357">
        <ele>779.1</ele>
        <time>2015-09-24T10:02:05Z</time>
      </trkpt>
      <trkpt lat="42.2316" lon="0.03564">
        <ele>779.3</ele>
        <time>2015-09-24T10:02:07Z</time>
      </trkpt>
      <trkpt lat="42.23163" lon="0.03559">
        <ele>779.5</ele>
        <time>2015-09-24T10:02:09Z</time>
      </trkpt>
      <trkpt lat="42.23165" lon="0.03554">
        <ele>779.6</ele>
        <time>2015-09-24T10:02:11Z</time>
      </trkpt>
      <trkpt lat="42.23169" lon="0.0355">
        <ele>779.7</ele>
        <time>2015-09-24T10:02:13Z</time>
      </trkpt>
      <trkpt lat="42.23173" lon="0.03547">
        <ele>779.9</ele>
        <time>2015-09-24T10:02:15Z</time>
      </trkpt>
      <trkpt lat="42.23177" lon="0.03543">
        <ele>780</ele>
        <time>2015-09-24T10:02:17Z</time>
      </trkpt>
      <trkpt lat="42.23182" lon="0.03542">
        <ele>780</ele>
        <time>2015-09-24T10:02:19Z</time>
      </trkpt>
      <trkpt lat="42.23187" lon="0.03543">
        <ele>780</ele>
        <time>2015-09-24T10:02:21Z</time>
      </trkpt>
      <trkpt lat="42.23193" lon="0.03543">
        <ele>780</ele>
        <time>2015-09-24T10:02:23Z</time>
      </trkpt>
      <trkpt lat="42.23198" lon="0.03541">
        <ele>780</ele>
        <time>2015-09-24T10:02:25Z</time>
      </trkpt>
      <trkpt lat="42.23202" lon="0.03538">
        <ele>780.3</ele>
        <time>2015-09-24T10:02:27Z</time>
      </trkpt>
      <trkpt lat="42.23207" lon="0.03535">
        <ele>780.6</ele>
        <time>2015-09-24T10:02:29Z</time>
      </trkpt>
      <trkpt lat="42.23212" lon="0.03531">
        <ele>781</ele>
        <time>2015-09-24T10:02:31Z</time>
      </trkpt>
      <trkpt lat="42.23216" lon="0.03527">
        <ele>781.6</ele>
        <time>2015-09-24T10:02:33Z</time>
      </trkpt>
      <trkpt lat="42.2322" lon="0.03523">
        <ele>782.1</ele>
        <time>2015-09-24T10:02:35Z</time>
      </trkpt>
      <trkpt lat="42.23224" lon="0.03519">
        <ele>782.6</ele>
        <time>2015-09-24T10:02:37Z</time>
      </trkpt>
      <trkpt lat="42.23228" lon="0.03515">
        <ele>783</ele>
        <time>2015-09-24T10:02:39Z</time>
      </trkpt>
      <trkpt lat="42.23232" lon="0.03512">
        <ele>783.5</ele>
        <time>2015-09-24T10:02:41Z</time>
      </trkpt>
      <trkpt lat="42.23235" lon="0.03507">
        <ele>783.9</ele>
        <time>2015-09-24T10:02:43Z</time>
      </trkpt>
      <trkpt lat="42.23238" lon="0.03503">
        <ele>784.4</ele>
        <time>2015-09-24T10:02:45Z</time>
      </trkpt>
      <trkpt lat="42.23241" lon="0.03498">
        <ele>784.8</ele>
        <time>2015-09-24T10:02:47Z</time>
      </trkpt>
      <trkpt lat="42.23244" lon="0.03494">
        <ele>785.2</ele>
        <time>2015-09-24T10:02:49Z</time>
      </trkpt>
      <trkpt lat="42.23247" lon="0.03491">
        <ele>785.5</ele>
        <time>2015-09-24T10:02:51Z</time>
      </trkpt>
      <trkpt lat="42.23248" lon="0.03487">
        <ele>785.9</ele>
        <time>2015-09-24T10:02:53Z</time>
      </trkpt>
      <trkpt lat="42.23247" lon="0.03482">
        <ele>786.2</ele>
        <time>2015-09-24T10:02:55Z</time>
      </trkpt>
      <trkpt lat="42.23247" lon="0.03478">
        <ele>786.5</ele>
        <time>2015-09-24T10:02:57Z</time>
      </trkpt>
      <trkpt lat="42.23247" lon="0.03472">
        <ele>786.9</ele>
        <time>2015-09-24T10:02:59Z</time>
      </trkpt>
      <trkpt lat="42.23247" lon="0.03466">
        <ele>787.4</ele>
        <time>2015-09-24T10:03:01Z</time>
      </trkpt>
      <trkpt lat="42.23247" lon="0.03461">
        <ele>787.8</ele>
        <time>2015-09-24T10:03:03Z</time>
      </trkpt>
      <trkpt lat="42.23248" lon="0.03455">
        <ele>788.1</ele>
        <time>2015-09-24T10:03:05Z</time>
      </trkpt>
      <trkpt lat="42.2325" lon="0.0345">
        <ele>788.3</ele>
        <time>2015-09-24T10:03:07Z</time>
      </trkpt>
      <trkpt lat="42.23253" lon="0.03445">
        <ele>788.5</ele>
        <time>2015-09-24T10:03:09Z</time>
      </trkpt>
      <trkpt lat="42.23257" lon="0.03441">
        <ele>788.7</ele>
        <time>2015-09-24T10:03:11Z</time>
      </trkpt>
      <trkpt lat="42.2326" lon="0.03437">
        <ele>788.9</ele>
        <time>2015-09-24T10:03:13Z</time>
      </trkpt>
      <trkpt lat="42.23264" lon="0.03434">
        <ele>789</ele>
        <time>2015-09-24T10:03:15Z</time>
      </trkpt>
      <trkpt lat="42.23268" lon="0.03432">
        <ele>789.1</ele>
        <time>2015-09-24T10:03:17Z</time>
      </trkpt>
      <trkpt lat="42.23271" lon="0.03429">
        <ele>789.2</ele>
        <time>2015-09-24T10:03:19Z</time>
      </trkpt>
      <trkpt lat="42.23275" lon="0.03427">
        <ele>789.3</ele>
        <time>2015-09-24T10:03:21Z</time>
      </trkpt>
      <trkpt lat="42.23279" lon="0.03426">
        <ele>789.3</ele>
        <time>2015-09-24T10:03:23Z</time>
      </trkpt>
      <trkpt lat="42.23282" lon="0.03423">
        <ele>789.4</ele>
        <time>2015-09-24T10:03:25Z</time>
      </trkpt>
      <trkpt lat="42.23286" lon="0.03421">
        <ele>789.4</ele>
        <time>2015-09-24T10:03:27Z</time>
      </trkpt>
      <trkpt lat="42.23289" lon="0.03419">
        <ele>789.5</ele>
        <time>2015-09-24T10:03:29Z</time>
      </trkpt>
      <trkpt lat="42.23292" lon="0.03418">
        <ele>789.5</ele>
        <time>2015-09-24T10:03:31Z</time>
      </trkpt>
      <trkpt lat="42.23294" lon="0.03416">
        <ele>789.5</ele>
        <time>2015-09-24T10:03:40Z</time>
      </trkpt>
      <trkpt lat="42.23297" lon="0.03414">
        <ele>789.6</ele>
        <time>2015-09-24T10:03:43Z</time>
      </trkpt>
      <trkpt lat="42.23299" lon="0.03412">
        <ele>789.6</ele>
        <time>2015-09-24T10:03:46Z</time>
      </trkpt>
      <trkpt lat="42.23303" lon="0.03409">
        <ele>789.6</ele>
        <time>2015-09-24T10:03:49Z</time>
      </trkpt>
      <trkpt lat="42.23306" lon="0.03406">
        <ele>789.7</ele>
        <time>2015-09-24T10:03:51Z</time>
      </trkpt>
      <trkpt lat="42.2331" lon="0.03403">
        <ele>789.7</ele>
        <time>2015-09-24T10:03:53Z</time>
      </trkpt>
      <trkpt lat="42.23313" lon="0.034">
        <ele>789.8</ele>
        <time>2015-09-24T10:03:55Z</time>
      </trkpt>
      <trkpt lat="42.23317" lon="0.03397">
        <ele>789.8</ele>
        <time>2015-09-24T10:03:57Z</time>
      </trkpt>
      <trkpt lat="42.2332" lon="0.03395">
        <ele>789.8</ele>
        <time>2015-09-24T10:03:59Z</time>
      </trkpt>
      <trkpt lat="42.23324" lon="0.03391">
        <ele>789.9</ele>
        <time>2015-09-24T10:04:01Z</time>
      </trkpt>
      <trkpt lat="42.23329" lon="0.03387">
        <ele>789.9</ele>
        <time>2015-09-24T10:04:03Z</time>
      </trkpt>
      <trkpt lat="42.23332" lon="0.03382">
        <ele>790</ele>
        <time>2015-09-24T10:04:05Z</time>
      </trkpt>
      <trkpt lat="42.23336" lon="0.03377">
        <ele>790</ele>
        <time>2015-09-24T10:04:07Z</time>
      </trkpt>
      <trkpt lat="42.2334" lon="0.03372">
        <ele>790.2</ele>
        <time>2015-09-24T10:04:09Z</time>
      </trkpt>
      <trkpt lat="42.23345" lon="0.03369">
        <ele>790.5</ele>
        <time>2015-09-24T10:04:11Z</time>
      </trkpt>
      <trkpt lat="42.23347" lon="0.03367">
        <ele>790.6</ele>
        <time>2015-09-24T10:04:12Z</time>
      </trkpt>
      <trkpt lat="42.2335" lon="0.03365">
        <ele>790.8</ele>
        <time>2015-09-24T10:04:13Z</time>
      </trkpt>
      <trkpt lat="42.23352" lon="0.03363">
        <ele>790.9</ele>
        <time>2015-09-24T10:04:14Z</time>
      </trkpt>
      <trkpt lat="42.23355" lon="0.03361">
        <ele>791</ele>
        <time>2015-09-24T10:04:15Z</time>
      </trkpt>
      <trkpt lat="42.23358" lon="0.0336">
        <ele>791.1</ele>
        <time>2015-09-24T10:04:16Z</time>
      </trkpt>
      <trkpt lat="42.23361" lon="0.03359">
        <ele>791.2</ele>
        <time>2015-09-24T10:04:17Z</time>
      </trkpt>
      <trkpt lat="42.23365" lon="0.03357">
        <ele>791.3</ele>
        <time>2015-09-24T10:04:19Z</time>
      </trkpt>
      <trkpt lat="42.23368" lon="0.03355">
        <ele>791.5</ele>
        <time>2015-09-24T10:04:21Z</time>
      </trkpt>
      <trkpt lat="42.23371" lon="0.03351">
        <ele>791.7</ele>
        <time>2015-09-24T10:04:23Z</time>
      </trkpt>
      <trkpt lat="42.23373" lon="0.03345">
        <ele>792.2</ele>
        <time>2015-09-24T10:04:25Z</time>
      </trkpt>
      <trkpt lat="42.23376" lon="0.03339">
        <ele>792.6</ele>
        <time>2015-09-24T10:04:27Z</time>
      </trkpt>
      <trkpt lat="42.23378" lon="0.03336">
        <ele>792.9</ele>
        <time>2015-09-24T10:04:28Z</time>
      </trkpt>
      <trkpt lat="42.23379" lon="0.03332">
        <ele>793.1</ele>
        <time>2015-09-24T10:04:29Z</time>
      </trkpt>
      <trkpt lat="42.23381" lon="0.03326">
        <ele>793.6</ele>
        <time>2015-09-24T10:04:31Z</time>
      </trkpt>
      <trkpt lat="42.23383" lon="0.03323">
        <ele>793.9</ele>
        <time>2015-09-24T10:04:32Z</time>
      </trkpt>
      <trkpt lat="42.23384" lon="0.0332">
        <ele>794.1</ele>
        <time>2015-09-24T10:04:33Z</time>
      </trkpt>
      <trkpt lat="42.23388" lon="0.03314">
        <ele>794.5</ele>
        <time>2015-09-24T10:04:35Z</time>
      </trkpt>
      <trkpt lat="42.23392" lon="0.0331">
        <ele>794.9</ele>
        <time>2015-09-24T10:04:37Z</time>
      </trkpt>
      <trkpt lat="42.23396" lon="0.03306">
        <ele>795.2</ele>
        <time>2015-09-24T10:04:39Z</time>
      </trkpt>
      <trkpt lat="42.23401" lon="0.03302">
        <ele>795.5</ele>
        <time>2015-09-24T10:04:41Z</time>
      </trkpt>
      <trkpt lat="42.23405" lon="0.03298">
        <ele>795.9</ele>
        <time>2015-09-24T10:04:43Z</time>
      </trkpt>
      <trkpt lat="42.23409" lon="0.03294">
        <ele>796.2</ele>
        <time>2015-09-24T10:04:45Z</time>
      </trkpt>
      <trkpt lat="42.23413" lon="0.0329">
        <ele>796.6</ele>
        <time>2015-09-24T10:04:47Z</time>
      </trkpt>
      <trkpt lat="42.23418" lon="0.03286">
        <ele>797.1</ele>
        <time>2015-09-24T10:04:49Z</time>
      </trkpt>
      <trkpt lat="42.23422" lon="0.03283">
        <ele>797.5</ele>
        <time>2015-09-24T10:04:51Z</time>
      </trkpt>
      <trkpt lat="42.23427" lon="0.0328">
        <ele>797.9</ele>
        <time>2015-09-24T10:04:53Z</time>
      </trkpt>
      <trkpt lat="42.23431" lon="0.03277">
        <ele>798.2</ele>
        <time>2015-09-24T10:04:55Z</time>
      </trkpt>
      <trkpt lat="42.23436" lon="0.03275">
        <ele>798.5</ele>
        <time>2015-09-24T10:04:57Z</time>
      </trkpt>
      <trkpt lat="42.2344" lon="0.03273">
        <ele>798.8</ele>
        <time>2015-09-24T10:04:59Z</time>
      </trkpt>
      <trkpt lat="42.23444" lon="0.03271">
        <ele>799.1</ele>
        <time>2015-09-24T10:05:01Z</time>
      </trkpt>
      <trkpt lat="42.23448" lon="0.03269">
        <ele>799.3</ele>
        <time>2015-09-24T10:05:03Z</time>
      </trkpt>
      <trkpt lat="42.23452" lon="0.03267">
        <ele>799.6</ele>
        <time>2015-09-24T10:05:05Z</time>
      </trkpt>
      <trkpt lat="42.23456" lon="0.03264">
        <ele>800</ele>
        <time>2015-09-24T10:05:07Z</time>
      </trkpt>
      <trkpt lat="42.2346" lon="0.03261">
        <ele>800.4</ele>
        <time>2015-09-24T10:05:09Z</time>
      </trkpt>
      <trkpt lat="42.23464" lon="0.03258">
        <ele>800.9</ele>
        <time>2015-09-24T10:05:11Z</time>
      </trkpt>
      <trkpt lat="42.23468" lon="0.03254">
        <ele>801.4</ele>
        <time>2015-09-24T10:05:13Z</time>
      </trkpt>
      <trkpt lat="42.23472" lon="0.03252">
        <ele>801.9</ele>
        <time>2015-09-24T10:05:15Z</time>
      </trkpt>
      <trkpt lat="42.23475" lon="0.03249">
        <ele>802.3</ele>
        <time>2015-09-24T10:05:17Z</time>
      </trkpt>
      <trkpt lat="42.23478" lon="0.03246">
        <ele>802.8</ele>
        <time>2015-09-24T10:05:19Z</time>
      </trkpt>
      <trkpt lat="42.2348" lon="0.03243">
        <ele>803.1</ele>
        <time>2015-09-24T10:05:21Z</time>
      </trkpt>
      <trkpt lat="42.23483" lon="0.03241">
        <ele>803.5</ele>
        <time>2015-09-24T10:05:23Z</time>
      </trkpt>
      <trkpt lat="42.23486" lon="0.03239">
        <ele>803.8</ele>
        <time>2015-09-24T10:05:25Z</time>
      </trkpt>
      <trkpt lat="42.23488" lon="0.03237">
        <ele>804.1</ele>
        <time>2015-09-24T10:05:27Z</time>
      </trkpt>
      <trkpt lat="42.23491" lon="0.03235">
        <ele>804.4</ele>
        <time>2015-09-24T10:05:29Z</time>
      </trkpt>
      <trkpt lat="42.23493" lon="0.03232">
        <ele>804.8</ele>
        <time>2015-09-24T10:05:31Z</time>
      </trkpt>
      <trkpt lat="42.23495" lon="0.0323">
        <ele>805.1</ele>
        <time>2015-09-24T10:05:33Z</time>
      </trkpt>
      <trkpt lat="42.23498" lon="0.03228">
        <ele>805.4</ele>
        <time>2015-09-24T10:05:35Z</time>
      </trkpt>
      <trkpt lat="42.235" lon="0.03226">
        <ele>805.7</ele>
        <time>2015-09-24T10:05:37Z</time>
      </trkpt>
      <trkpt lat="42.23502" lon="0.03223">
        <ele>806.1</ele>
        <time>2015-09-24T10:05:39Z</time>
      </trkpt>
      <trkpt lat="42.23504" lon="0.03219">
        <ele>806.6</ele>
        <time>2015-09-24T10:05:42Z</time>
      </trkpt>
      <trkpt lat="42.23506" lon="0.03216">
        <ele>806.9</ele>
        <time>2015-09-24T10:05:44Z</time>
      </trkpt>
      <trkpt lat="42.23508" lon="0.03213">
        <ele>807.4</ele>
        <time>2015-09-24T10:05:49Z</time>
      </trkpt>
      <trkpt lat="42.2351" lon="0.0321">
        <ele>807.7</ele>
        <time>2015-09-24T10:05:51Z</time>
      </trkpt>
      <trkpt lat="42.23512" lon="0.03207">
        <ele>808.1</ele>
        <time>2015-09-24T10:05:54Z</time>
      </trkpt>
      <trkpt lat="42.23514" lon="0.03204">
        <ele>808.5</ele>
        <time>2015-09-24T10:05:57Z</time>
      </trkpt>
      <trkpt lat="42.23517" lon="0.032">
        <ele>808.9</ele>
        <time>2015-09-24T10:06:00Z</time>
      </trkpt>
      <trkpt lat="42.23518" lon="0.03197">
        <ele>809.3</ele>
        <time>2015-09-24T10:06:02Z</time>
      </trkpt>
      <trkpt lat="42.2352" lon="0.03193">
        <ele>809.7</ele>
        <time>2015-09-24T10:06:05Z</time>
      </trkpt>
      <trkpt lat="42.23523" lon="0.0319">
        <ele>810.1</ele>
        <time>2015-09-24T10:06:08Z</time>
      </trkpt>
      <trkpt lat="42.23526" lon="0.03187">
        <ele>810.5</ele>
        <time>2015-09-24T10:06:11Z</time>
      </trkpt>
      <trkpt lat="42.23528" lon="0.03184">
        <ele>810.9</ele>
        <time>2015-09-24T10:06:13Z</time>
      </trkpt>
      <trkpt lat="42.23529" lon="0.03181">
        <ele>811.3</ele>
        <time>2015-09-24T10:06:15Z</time>
      </trkpt>
      <trkpt lat="42.2353" lon="0.03177">
        <ele>811.7</ele>
        <time>2015-09-24T10:06:17Z</time>
      </trkpt>
      <trkpt lat="42.23531" lon="0.03173">
        <ele>812.1</ele>
        <time>2015-09-24T10:06:19Z</time>
      </trkpt>
      <trkpt lat="42.23533" lon="0.03169">
        <ele>812.5</ele>
        <time>2015-09-24T10:06:21Z</time>
      </trkpt>
      <trkpt lat="42.23535" lon="0.03165">
        <ele>813</ele>
        <time>2015-09-24T10:06:23Z</time>
      </trkpt>
      <trkpt lat="42.23536" lon="0.0316">
        <ele>813.4</ele>
        <time>2015-09-24T10:06:25Z</time>
      </trkpt>
      <trkpt lat="42.23538" lon="0.03156">
        <ele>813.9</ele>
        <time>2015-09-24T10:06:27Z</time>
      </trkpt>
      <trkpt lat="42.23539" lon="0.03152">
        <ele>814.3</ele>
        <time>2015-09-24T10:06:29Z</time>
      </trkpt>
      <trkpt lat="42.23542" lon="0.03149">
        <ele>814.7</ele>
        <time>2015-09-24T10:06:31Z</time>
      </trkpt>
      <trkpt lat="42.23545" lon="0.03147">
        <ele>814.9</ele>
        <time>2015-09-24T10:06:33Z</time>
      </trkpt>
      <trkpt lat="42.23549" lon="0.03146">
        <ele>814.9</ele>
        <time>2015-09-24T10:06:35Z</time>
      </trkpt>
      <trkpt lat="42.23552" lon="0.03145">
        <ele>815</ele>
        <time>2015-09-24T10:06:36Z</time>
      </trkpt>
      <trkpt lat="42.23555" lon="0.03144">
        <ele>815.1</ele>
        <time>2015-09-24T10:06:37Z</time>
      </trkpt>
      <trkpt lat="42.23558" lon="0.03143">
        <ele>815.1</ele>
        <time>2015-09-24T10:06:38Z</time>
      </trkpt>
      <trkpt lat="42.23561" lon="0.03141">
        <ele>815.2</ele>
        <time>2015-09-24T10:06:39Z</time>
      </trkpt>
      <trkpt lat="42.23564" lon="0.0314">
        <ele>815.3</ele>
        <time>2015-09-24T10:06:40Z</time>
      </trkpt>
      <trkpt lat="42.23567" lon="0.03138">
        <ele>815.5</ele>
        <time>2015-09-24T10:06:41Z</time>
      </trkpt>
      <trkpt lat="42.2357" lon="0.03136">
        <ele>815.6</ele>
        <time>2015-09-24T10:06:42Z</time>
      </trkpt>
      <trkpt lat="42.23573" lon="0.03134">
        <ele>815.8</ele>
        <time>2015-09-24T10:06:43Z</time>
      </trkpt>
      <trkpt lat="42.23576" lon="0.03133">
        <ele>815.8</ele>
        <time>2015-09-24T10:06:44Z</time>
      </trkpt>
      <trkpt lat="42.23579" lon="0.03133">
        <ele>815.8</ele>
        <time>2015-09-24T10:06:45Z</time>
      </trkpt>
      <trkpt lat="42.23582" lon="0.03134">
        <ele>815.7</ele>
        <time>2015-09-24T10:06:46Z</time>
      </trkpt>
      <trkpt lat="42.23586" lon="0.03134">
        <ele>815.7</ele>
        <time>2015-09-24T10:06:47Z</time>
      </trkpt>
      <trkpt lat="42.23589" lon="0.03134">
        <ele>815.6</ele>
        <time>2015-09-24T10:06:48Z</time>
      </trkpt>
      <trkpt lat="42.23592" lon="0.03134">
        <ele>815.6</ele>
        <time>2015-09-24T10:06:49Z</time>
      </trkpt>
      <trkpt lat="42.23596" lon="0.03135">
        <ele>815.4</ele>
        <time>2015-09-24T10:06:50Z</time>
      </trkpt>
      <trkpt lat="42.236" lon="0.03138">
        <ele>815.2</ele>
        <time>2015-09-24T10:06:51Z</time>
      </trkpt>
      <trkpt lat="42.23603" lon="0.03141">
        <ele>814.9</ele>
        <time>2015-09-24T10:06:52Z</time>
      </trkpt>
      <trkpt lat="42.23606" lon="0.03144">
        <ele>814.6</ele>
        <time>2015-09-24T10:06:53Z</time>
      </trkpt>
      <trkpt lat="42.23609" lon="0.03147">
        <ele>814.3</ele>
        <time>2015-09-24T10:06:54Z</time>
      </trkpt>
      <trkpt lat="42.23612" lon="0.03149">
        <ele>814.1</ele>
        <time>2015-09-24T10:06:55Z</time>
      </trkpt>
      <trkpt lat="42.23616" lon="0.03149">
        <ele>814.1</ele>
        <time>2015-09-24T10:06:56Z</time>
      </trkpt>
      <trkpt lat="42.23618" lon="0.03147">
        <ele>814.2</ele>
        <time>2015-09-24T10:06:57Z</time>
      </trkpt>
      <trkpt lat="42.23621" lon="0.03145">
        <ele>814.3</ele>
        <time>2015-09-24T10:06:58Z</time>
      </trkpt>
      <trkpt lat="42.23624" lon="0.03143">
        <ele>814.5</ele>
        <time>2015-09-24T10:06:59Z</time>
      </trkpt>
      <trkpt lat="42.23627" lon="0.03141">
        <ele>814.6</ele>
        <time>2015-09-24T10:07:00Z</time>
      </trkpt>
      <trkpt lat="42.2363" lon="0.0314">
        <ele>814.6</ele>
        <time>2015-09-24T10:07:01Z</time>
      </trkpt>
      <trkpt lat="42.23634" lon="0.03139">
        <ele>814.5</ele>
        <time>2015-09-24T10:07:02Z</time>
      </trkpt>
      <trkpt lat="42.23637" lon="0.03138">
        <ele>814.6</ele>
        <time>2015-09-24T10:07:03Z</time>
      </trkpt>
      <trkpt lat="42.23639" lon="0.03136">
        <ele>814.7</ele>
        <time>2015-09-24T10:07:04Z</time>
      </trkpt>
      <trkpt lat="42.23642" lon="0.03134">
        <ele>814.7</ele>
        <time>2015-09-24T10:07:05Z</time>
      </trkpt>
      <trkpt lat="42.23644" lon="0.03132">
        <ele>814.8</ele>
        <time>2015-09-24T10:07:06Z</time>
      </trkpt>
      <trkpt lat="42.23647" lon="0.03129">
        <ele>814.9</ele>
        <time>2015-09-24T10:07:07Z</time>
      </trkpt>
      <trkpt lat="42.23649" lon="0.03127">
        <ele>815</ele>
        <time>2015-09-24T10:07:08Z</time>
      </trkpt>
      <trkpt lat="42.23652" lon="0.03125">
        <ele>815.1</ele>
        <time>2015-09-24T10:07:09Z</time>
      </trkpt>
      <trkpt lat="42.23654" lon="0.03122">
        <ele>815.1</ele>
        <time>2015-09-24T10:07:10Z</time>
      </trkpt>
      <trkpt lat="42.23657" lon="0.0312">
        <ele>815.2</ele>
        <time>2015-09-24T10:07:11Z</time>
      </trkpt>
      <trkpt lat="42.23659" lon="0.03117">
        <ele>815.2</ele>
        <time>2015-09-24T10:07:12Z</time>
      </trkpt>
      <trkpt lat="42.23662" lon="0.03114">
        <ele>815.3</ele>
        <time>2015-09-24T10:07:13Z</time>
      </trkpt>
      <trkpt lat="42.23664" lon="0.03111">
        <ele>815.4</ele>
        <time>2015-09-24T10:07:14Z</time>
      </trkpt>
      <trkpt lat="42.23666" lon="0.03108">
        <ele>815.4</ele>
        <time>2015-09-24T10:07:15Z</time>
      </trkpt>
      <trkpt lat="42.23669" lon="0.03106">
        <ele>815.4</ele>
        <time>2015-09-24T10:07:16Z</time>
      </trkpt>
      <trkpt lat="42.23673" lon="0.03102">
        <ele>815.5</ele>
        <time>2015-09-24T10:07:18Z</time>
      </trkpt>
      <trkpt lat="42.23677" lon="0.03099">
        <ele>815.4</ele>
        <time>2015-09-24T10:07:20Z</time>
      </trkpt>
      <trkpt lat="42.23682" lon="0.03096">
        <ele>815.3</ele>
        <time>2015-09-24T10:07:22Z</time>
      </trkpt>
      <trkpt lat="42.23685" lon="0.03095">
        <ele>815.3</ele>
        <time>2015-09-24T10:07:23Z</time>
      </trkpt>
      <trkpt lat="42.23688" lon="0.03094">
        <ele>815.1</ele>
        <time>2015-09-24T10:07:24Z</time>
      </trkpt>
      <trkpt lat="42.23691" lon="0.03094">
        <ele>815</ele>
        <time>2015-09-24T10:07:25Z</time>
      </trkpt>
      <trkpt lat="42.23693" lon="0.03096">
        <ele>814.8</ele>
        <time>2015-09-24T10:07:26Z</time>
      </trkpt>
      <trkpt lat="42.23696" lon="0.03097">
        <ele>814.6</ele>
        <time>2015-09-24T10:07:27Z</time>
      </trkpt>
      <trkpt lat="42.237" lon="0.031">
        <ele>814.3</ele>
        <time>2015-09-24T10:07:29Z</time>
      </trkpt>
      <trkpt lat="42.23703" lon="0.03099">
        <ele>814.2</ele>
        <time>2015-09-24T10:07:31Z</time>
      </trkpt>
      <trkpt lat="42.23707" lon="0.03098">
        <ele>814</ele>
        <time>2015-09-24T10:07:33Z</time>
      </trkpt>
      <trkpt lat="42.2371" lon="0.03098">
        <ele>814</ele>
        <time>2015-09-24T10:07:35Z</time>
      </trkpt>
      <trkpt lat="42.23713" lon="0.03098">
        <ele>814.2</ele>
        <time>2015-09-24T10:07:38Z</time>
      </trkpt>
      <trkpt lat="42.23717" lon="0.03096">
        <ele>814.4</ele>
        <time>2015-09-24T10:07:41Z</time>
      </trkpt>
      <trkpt lat="42.2372" lon="0.03095">
        <ele>814.6</ele>
        <time>2015-09-24T10:07:43Z</time>
      </trkpt>
      <trkpt lat="42.23723" lon="0.03093">
        <ele>814.9</ele>
        <time>2015-09-24T10:07:45Z</time>
      </trkpt>
      <trkpt lat="42.23727" lon="0.03092">
        <ele>815.1</ele>
        <time>2015-09-24T10:07:47Z</time>
      </trkpt>
      <trkpt lat="42.2373" lon="0.0309">
        <ele>815.3</ele>
        <time>2015-09-24T10:07:49Z</time>
      </trkpt>
      <trkpt lat="42.23733" lon="0.03087">
        <ele>815.5</ele>
        <time>2015-09-24T10:07:51Z</time>
      </trkpt>
      <trkpt lat="42.23735" lon="0.03084">
        <ele>815.8</ele>
        <time>2015-09-24T10:07:53Z</time>
      </trkpt>
      <trkpt lat="42.23738" lon="0.03082">
        <ele>816</ele>
        <time>2015-09-24T10:07:55Z</time>
      </trkpt>
      <trkpt lat="42.23741" lon="0.0308">
        <ele>816.2</ele>
        <time>2015-09-24T10:07:57Z</time>
      </trkpt>
      <trkpt lat="42.23744" lon="0.03077">
        <ele>816.4</ele>
        <time>2015-09-24T10:07:59Z</time>
      </trkpt>
      <trkpt lat="42.23745" lon="0.03074">
        <ele>816.6</ele>
        <time>2015-09-24T10:08:01Z</time>
      </trkpt>
      <trkpt lat="42.23747" lon="0.0307">
        <ele>816.8</ele>
        <time>2015-09-24T10:08:03Z</time>
      </trkpt>
      <trkpt lat="42.23749" lon="0.03067">
        <ele>817.1</ele>
        <time>2015-09-24T10:08:05Z</time>
      </trkpt>
      <trkpt lat="42.23752" lon="0.03065">
        <ele>817.3</ele>
        <time>2015-09-24T10:08:07Z</time>
      </trkpt>
      <trkpt lat="42.23755" lon="0.03063">
        <ele>817.5</ele>
        <time>2015-09-24T10:08:09Z</time>
      </trkpt>
      <trkpt lat="42.23758" lon="0.03061">
        <ele>817.7</ele>
        <time>2015-09-24T10:08:11Z</time>
      </trkpt>
      <trkpt lat="42.23761" lon="0.0306">
        <ele>817.9</ele>
        <time>2015-09-24T10:08:13Z</time>
      </trkpt>
      <trkpt lat="42.23764" lon="0.03059">
        <ele>818.1</ele>
        <time>2015-09-24T10:08:15Z</time>
      </trkpt>
      <trkpt lat="42.23767" lon="0.03057">
        <ele>818.3</ele>
        <time>2015-09-24T10:08:17Z</time>
      </trkpt>
      <trkpt lat="42.2377" lon="0.03056">
        <ele>818.4</ele>
        <time>2015-09-24T10:08:19Z</time>
      </trkpt>
      <trkpt lat="42.23772" lon="0.03054">
        <ele>818.6</ele>
        <time>2015-09-24T10:08:21Z</time>
      </trkpt>
      <trkpt lat="42.23775" lon="0.03052">
        <ele>818.8</ele>
        <time>2015-09-24T10:08:23Z</time>
      </trkpt>
      <trkpt lat="42.23778" lon="0.03051">
        <ele>819</ele>
        <time>2015-09-24T10:08:25Z</time>
      </trkpt>
      <trkpt lat="42.2378" lon="0.03049">
        <ele>819.2</ele>
        <time>2015-09-24T10:08:27Z</time>
      </trkpt>
      <trkpt lat="42.23783" lon="0.03048">
        <ele>819.4</ele>
        <time>2015-09-24T10:08:29Z</time>
      </trkpt>
      <trkpt lat="42.23786" lon="0.03046">
        <ele>819.5</ele>
        <time>2015-09-24T10:08:31Z</time>
      </trkpt>
      <trkpt lat="42.23788" lon="0.03044">
        <ele>819.7</ele>
        <time>2015-09-24T10:08:33Z</time>
      </trkpt>
      <trkpt lat="42.23791" lon="0.03043">
        <ele>819.9</ele>
        <time>2015-09-24T10:08:35Z</time>
      </trkpt>
      <trkpt lat="42.23794" lon="0.03041">
        <ele>820.1</ele>
        <time>2015-09-24T10:08:37Z</time>
      </trkpt>
      <trkpt lat="42.23797" lon="0.0304">
        <ele>820.2</ele>
        <time>2015-09-24T10:08:39Z</time>
      </trkpt>
      <trkpt lat="42.238" lon="0.03039">
        <ele>820.3</ele>
        <time>2015-09-24T10:08:41Z</time>
      </trkpt>
      <trkpt lat="42.23803" lon="0.03038">
        <ele>820.4</ele>
        <time>2015-09-24T10:08:43Z</time>
      </trkpt>
      <trkpt lat="42.23807" lon="0.03038">
        <ele>820.6</ele>
        <time>2015-09-24T10:08:45Z</time>
      </trkpt>
      <trkpt lat="42.2381" lon="0.03037">
        <ele>820.7</ele>
        <time>2015-09-24T10:08:47Z</time>
      </trkpt>
      <trkpt lat="42.23813" lon="0.03036">
        <ele>820.8</ele>
        <time>2015-09-24T10:08:49Z</time>
      </trkpt>
      <trkpt lat="42.23816" lon="0.03035">
        <ele>820.9</ele>
        <time>2015-09-24T10:08:51Z</time>
      </trkpt>
      <trkpt lat="42.23819" lon="0.03034">
        <ele>821.1</ele>
        <time>2015-09-24T10:08:53Z</time>
      </trkpt>
      <trkpt lat="42.23823" lon="0.03034">
        <ele>821.2</ele>
        <time>2015-09-24T10:08:55Z</time>
      </trkpt>
      <trkpt lat="42.23826" lon="0.03035">
        <ele>821.4</ele>
        <time>2015-09-24T10:08:57Z</time>
      </trkpt>
      <trkpt lat="42.2383" lon="0.03035">
        <ele>821.6</ele>
        <time>2015-09-24T10:08:59Z</time>
      </trkpt>
      <trkpt lat="42.23833" lon="0.03035">
        <ele>821.8</ele>
        <time>2015-09-24T10:09:01Z</time>
      </trkpt>
      <trkpt lat="42.23837" lon="0.03035">
        <ele>821.9</ele>
        <time>2015-09-24T10:09:03Z</time>
      </trkpt>
      <trkpt lat="42.2384" lon="0.03032">
        <ele>822</ele>
        <time>2015-09-24T10:09:05Z</time>
      </trkpt>
      <trkpt lat="42.23843" lon="0.03029">
        <ele>822</ele>
        <time>2015-09-24T10:09:07Z</time>
      </trkpt>
      <trkpt lat="42.23846" lon="0.03026">
        <ele>822</ele>
        <time>2015-09-24T10:09:09Z</time>
      </trkpt>
      <trkpt lat="42.23849" lon="0.03023">
        <ele>822.1</ele>
        <time>2015-09-24T10:09:11Z</time>
      </trkpt>
      <trkpt lat="42.23852" lon="0.0302">
        <ele>822.1</ele>
        <time>2015-09-24T10:09:13Z</time>
      </trkpt>
      <trkpt lat="42.23856" lon="0.03017">
        <ele>822.2</ele>
        <time>2015-09-24T10:09:15Z</time>
      </trkpt>
      <trkpt lat="42.23859" lon="0.03014">
        <ele>822.2</ele>
        <time>2015-09-24T10:09:17Z</time>
      </trkpt>
      <trkpt lat="42.23862" lon="0.03011">
        <ele>822.3</ele>
        <time>2015-09-24T10:09:19Z</time>
      </trkpt>
      <trkpt lat="42.23865" lon="0.03007">
        <ele>822.3</ele>
        <time>2015-09-24T10:09:21Z</time>
      </trkpt>
      <trkpt lat="42.23867" lon="0.03002">
        <ele>822.2</ele>
        <time>2015-09-24T10:09:23Z</time>
      </trkpt>
      <trkpt lat="42.23868" lon="0.02995">
        <ele>822</ele>
        <time>2015-09-24T10:09:25Z</time>
      </trkpt>
      <trkpt lat="42.23869" lon="0.02989">
        <ele>821.8</ele>
        <time>2015-09-24T10:09:27Z</time>
      </trkpt>
      <trkpt lat="42.2387" lon="0.02983">
        <ele>821.7</ele>
        <time>2015-09-24T10:09:29Z</time>
      </trkpt>
      <trkpt lat="42.23873" lon="0.02979">
        <ele>821.6</ele>
        <time>2015-09-24T10:09:31Z</time>
      </trkpt>
      <trkpt lat="42.23875" lon="0.02976">
        <ele>821.6</ele>
        <time>2015-09-24T10:09:33Z</time>
      </trkpt>
      <trkpt lat="42.23878" lon="0.02974">
        <ele>821.7</ele>
        <time>2015-09-24T10:09:35Z</time>
      </trkpt>
      <trkpt lat="42.23881" lon="0.02972">
        <ele>821.8</ele>
        <time>2015-09-24T10:09:37Z</time>
      </trkpt>
      <trkpt lat="42.23884" lon="0.0297">
        <ele>821.9</ele>
        <time>2015-09-24T10:09:39Z</time>
      </trkpt>
      <trkpt lat="42.23886" lon="0.02967">
        <ele>822</ele>
        <time>2015-09-24T10:09:45Z</time>
      </trkpt>
      <trkpt lat="42.2389" lon="0.02967">
        <ele>822.2</ele>
        <time>2015-09-24T10:09:47Z</time>
      </trkpt>
      <trkpt lat="42.23894" lon="0.02967">
        <ele>822.4</ele>
        <time>2015-09-24T10:09:49Z</time>
      </trkpt>
      <trkpt lat="42.23898" lon="0.02965">
        <ele>822.5</ele>
        <time>2015-09-24T10:09:55Z</time>
      </trkpt>
      <trkpt lat="42.23902" lon="0.02961">
        <ele>822.7</ele>
        <time>2015-09-24T10:09:57Z</time>
      </trkpt>
      <trkpt lat="42.23906" lon="0.02958">
        <ele>822.8</ele>
        <time>2015-09-24T10:09:59Z</time>
      </trkpt>
      <trkpt lat="42.23908" lon="0.02953">
        <ele>823.1</ele>
        <time>2015-09-24T10:10:01Z</time>
      </trkpt>
      <trkpt lat="42.2391" lon="0.02945">
        <ele>823.4</ele>
        <time>2015-09-24T10:10:03Z</time>
      </trkpt>
      <trkpt lat="42.23912" lon="0.02941">
        <ele>823.6</ele>
        <time>2015-09-24T10:10:05Z</time>
      </trkpt>
      <trkpt lat="42.23913" lon="0.02937">
        <ele>823.8</ele>
        <time>2015-09-24T10:10:07Z</time>
      </trkpt>
      <trkpt lat="42.23915" lon="0.02933">
        <ele>824</ele>
        <time>2015-09-24T10:10:09Z</time>
      </trkpt>
      <trkpt lat="42.23917" lon="0.02928">
        <ele>824.2</ele>
        <time>2015-09-24T10:10:11Z</time>
      </trkpt>
      <trkpt lat="42.2392" lon="0.02925">
        <ele>824.6</ele>
        <time>2015-09-24T10:10:13Z</time>
      </trkpt>
      <trkpt lat="42.23925" lon="0.02921">
        <ele>825</ele>
        <time>2015-09-24T10:10:15Z</time>
      </trkpt>
      <trkpt lat="42.23927" lon="0.02919">
        <ele>825.2</ele>
        <time>2015-09-24T10:10:16Z</time>
      </trkpt>
      <trkpt lat="42.23929" lon="0.02917">
        <ele>825.4</ele>
        <time>2015-09-24T10:10:17Z</time>
      </trkpt>
      <trkpt lat="42.23932" lon="0.02915">
        <ele>825.6</ele>
        <time>2015-09-24T10:10:18Z</time>
      </trkpt>
      <trkpt lat="42.23934" lon="0.02911">
        <ele>825.9</ele>
        <time>2015-09-24T10:10:20Z</time>
      </trkpt>
      <trkpt lat="42.23937" lon="0.02907">
        <ele>826.2</ele>
        <time>2015-09-24T10:10:50Z</time>
      </trkpt>
      <trkpt lat="42.23941" lon="0.02903">
        <ele>826.7</ele>
        <time>2015-09-24T10:10:52Z</time>
      </trkpt>
      <trkpt lat="42.23944" lon="0.02901">
        <ele>826.9</ele>
        <time>2015-09-24T10:10:53Z</time>
      </trkpt>
      <trkpt lat="42.23946" lon="0.02898">
        <ele>827.2</ele>
        <time>2015-09-24T10:10:54Z</time>
      </trkpt>
      <trkpt lat="42.23948" lon="0.02896">
        <ele>827.5</ele>
        <time>2015-09-24T10:10:55Z</time>
      </trkpt>
      <trkpt lat="42.2395" lon="0.02893">
        <ele>827.7</ele>
        <time>2015-09-24T10:10:56Z</time>
      </trkpt>
      <trkpt lat="42.23952" lon="0.0289">
        <ele>828</ele>
        <time>2015-09-24T10:10:57Z</time>
      </trkpt>
      <trkpt lat="42.23954" lon="0.02887">
        <ele>828.3</ele>
        <time>2015-09-24T10:10:58Z</time>
      </trkpt>
      <trkpt lat="42.23957" lon="0.02884">
        <ele>828.6</ele>
        <time>2015-09-24T10:10:59Z</time>
      </trkpt>
      <trkpt lat="42.2396" lon="0.02881">
        <ele>828.7</ele>
        <time>2015-09-24T10:11:00Z</time>
      </trkpt>
      <trkpt lat="42.23963" lon="0.02879">
        <ele>828.6</ele>
        <time>2015-09-24T10:11:01Z</time>
      </trkpt>
      <trkpt lat="42.23965" lon="0.02877">
        <ele>828.4</ele>
        <time>2015-09-24T10:11:02Z</time>
      </trkpt>
      <trkpt lat="42.23968" lon="0.02875">
        <ele>828.3</ele>
        <time>2015-09-24T10:11:03Z</time>
      </trkpt>
      <trkpt lat="42.23971" lon="0.02872">
        <ele>828.2</ele>
        <time>2015-09-24T10:11:04Z</time>
      </trkpt>
      <trkpt lat="42.23974" lon="0.0287">
        <ele>828.2</ele>
        <time>2015-09-24T10:11:05Z</time>
      </trkpt>
      <trkpt lat="42.23977" lon="0.02868">
        <ele>828</ele>
        <time>2015-09-24T10:11:06Z</time>
      </trkpt>
      <trkpt lat="42.23981" lon="0.02867">
        <ele>827.8</ele>
        <time>2015-09-24T10:11:07Z</time>
      </trkpt>
      <trkpt lat="42.23984" lon="0.02867">
        <ele>827.6</ele>
        <time>2015-09-24T10:11:08Z</time>
      </trkpt>
      <trkpt lat="42.23988" lon="0.02868">
        <ele>827.3</ele>
        <time>2015-09-24T10:11:09Z</time>
      </trkpt>
      <trkpt lat="42.23991" lon="0.0287">
        <ele>827</ele>
        <time>2015-09-24T10:11:10Z</time>
      </trkpt>
      <trkpt lat="42.23994" lon="0.02871">
        <ele>826.6</ele>
        <time>2015-09-24T10:11:11Z</time>
      </trkpt>
      <trkpt lat="42.23997" lon="0.02872">
        <ele>826.4</ele>
        <time>2015-09-24T10:11:12Z</time>
      </trkpt>
      <trkpt lat="42.24001" lon="0.02871">
        <ele>826.1</ele>
        <time>2015-09-24T10:11:14Z</time>
      </trkpt>
      <trkpt lat="42.24005" lon="0.02868">
        <ele>826.1</ele>
        <time>2015-09-24T10:11:16Z</time>
      </trkpt>
      <trkpt lat="42.24008" lon="0.02863">
        <ele>826.2</ele>
        <time>2015-09-24T10:11:18Z</time>
      </trkpt>
      <trkpt lat="42.24012" lon="0.02858">
        <ele>826.2</ele>
        <time>2015-09-24T10:11:20Z</time>
      </trkpt>
      <trkpt lat="42.24014" lon="0.02855">
        <ele>826.3</ele>
        <time>2015-09-24T10:11:24Z</time>
      </trkpt>
      <trkpt lat="42.24016" lon="0.02852">
        <ele>826.4</ele>
        <time>2015-09-24T10:11:32Z</time>
      </trkpt>
      <trkpt lat="42.24019" lon="0.02848">
        <ele>826.4</ele>
        <time>2015-09-24T10:11:36Z</time>
      </trkpt>
      <trkpt lat="42.24021" lon="0.02845">
        <ele>826.5</ele>
        <time>2015-09-24T10:11:37Z</time>
      </trkpt>
      <trkpt lat="42.24022" lon="0.02842">
        <ele>826.6</ele>
        <time>2015-09-24T10:11:38Z</time>
      </trkpt>
      <trkpt lat="42.24022" lon="0.02838">
        <ele>826.9</ele>
        <time>2015-09-24T10:11:39Z</time>
      </trkpt>
      <trkpt lat="42.24022" lon="0.02833">
        <ele>827.2</ele>
        <time>2015-09-24T10:11:40Z</time>
      </trkpt>
      <trkpt lat="42.24022" lon="0.02829">
        <ele>827.5</ele>
        <time>2015-09-24T10:11:41Z</time>
      </trkpt>
      <trkpt lat="42.24023" lon="0.02826">
        <ele>827.6</ele>
        <time>2015-09-24T10:11:42Z</time>
      </trkpt>
      <trkpt lat="42.24025" lon="0.02823">
        <ele>827.7</ele>
        <time>2015-09-24T10:11:43Z</time>
      </trkpt>
      <trkpt lat="42.24028" lon="0.02824">
        <ele>827.5</ele>
        <time>2015-09-24T10:11:44Z</time>
      </trkpt>
      <trkpt lat="42.2403" lon="0.02826">
        <ele>827.2</ele>
        <time>2015-09-24T10:11:45Z</time>
      </trkpt>
      <trkpt lat="42.24034" lon="0.02832">
        <ele>826.6</ele>
        <time>2015-09-24T10:11:47Z</time>
      </trkpt>
      <trkpt lat="42.24036" lon="0.02834">
        <ele>826.3</ele>
        <time>2015-09-24T10:11:48Z</time>
      </trkpt>
      <trkpt lat="42.24038" lon="0.02837">
        <ele>826</ele>
        <time>2015-09-24T10:11:49Z</time>
      </trkpt>
      <trkpt lat="42.24042" lon="0.0284">
        <ele>825.5</ele>
        <time>2015-09-24T10:11:51Z</time>
      </trkpt>
      <trkpt lat="42.24046" lon="0.02841">
        <ele>825.3</ele>
        <time>2015-09-24T10:12:03Z</time>
      </trkpt>
      <trkpt lat="42.24049" lon="0.02843">
        <ele>825.1</ele>
        <time>2015-09-24T10:12:07Z</time>
      </trkpt>
      <trkpt lat="42.24052" lon="0.02845">
        <ele>824.9</ele>
        <time>2015-09-24T10:12:13Z</time>
      </trkpt>
      <trkpt lat="42.24055" lon="0.02846">
        <ele>824.7</ele>
        <time>2015-09-24T10:12:19Z</time>
      </trkpt>
      <trkpt lat="42.24058" lon="0.02846">
        <ele>824.6</ele>
        <time>2015-09-24T10:12:25Z</time>
      </trkpt>
      <trkpt lat="42.2406" lon="0.02848">
        <ele>824.3</ele>
        <time>2015-09-24T10:12:31Z</time>
      </trkpt>
      <trkpt lat="42.24062" lon="0.02851">
        <ele>824</ele>
        <time>2015-09-24T10:12:42Z</time>
      </trkpt>
      <trkpt lat="42.24065" lon="0.02853">
        <ele>823.7</ele>
        <time>2015-09-24T10:12:45Z</time>
      </trkpt>
      <trkpt lat="42.24067" lon="0.02854">
        <ele>823.5</ele>
        <time>2015-09-24T10:12:48Z</time>
      </trkpt>
      <trkpt lat="42.2407" lon="0.02857">
        <ele>823.1</ele>
        <time>2015-09-24T10:12:52Z</time>
      </trkpt>
      <trkpt lat="42.24073" lon="0.0286">
        <ele>822.7</ele>
        <time>2015-09-24T10:12:55Z</time>
      </trkpt>
      <trkpt lat="42.24076" lon="0.02861">
        <ele>822.4</ele>
        <time>2015-09-24T10:12:57Z</time>
      </trkpt>
      <trkpt lat="42.24079" lon="0.02862">
        <ele>822.2</ele>
        <time>2015-09-24T10:12:59Z</time>
      </trkpt>
      <trkpt lat="42.24082" lon="0.02862">
        <ele>822.1</ele>
        <time>2015-09-24T10:13:01Z</time>
      </trkpt>
      <trkpt lat="42.24086" lon="0.0286">
        <ele>822.1</ele>
        <time>2015-09-24T10:13:03Z</time>
      </trkpt>
      <trkpt lat="42.24091" lon="0.02857">
        <ele>822.2</ele>
        <time>2015-09-24T10:13:05Z</time>
      </trkpt>
      <trkpt lat="42.24094" lon="0.02855">
        <ele>822.3</ele>
        <time>2015-09-24T10:13:06Z</time>
      </trkpt>
      <trkpt lat="42.24098" lon="0.02853">
        <ele>822.4</ele>
        <time>2015-09-24T10:13:07Z</time>
      </trkpt>
      <trkpt lat="42.24101" lon="0.02851">
        <ele>822.6</ele>
        <time>2015-09-24T10:13:08Z</time>
      </trkpt>
      <trkpt lat="42.24104" lon="0.02847">
        <ele>823</ele>
        <time>2015-09-24T10:13:09Z</time>
      </trkpt>
      <trkpt lat="42.24106" lon="0.02844">
        <ele>823.4</ele>
        <time>2015-09-24T10:13:10Z</time>
      </trkpt>
      <trkpt lat="42.24108" lon="0.0284">
        <ele>823.9</ele>
        <time>2015-09-24T10:13:11Z</time>
      </trkpt>
      <trkpt lat="42.2411" lon="0.02836">
        <ele>824.4</ele>
        <time>2015-09-24T10:13:12Z</time>
      </trkpt>
      <trkpt lat="42.24112" lon="0.02832">
        <ele>824.9</ele>
        <time>2015-09-24T10:13:13Z</time>
      </trkpt>
      <trkpt lat="42.24114" lon="0.02828">
        <ele>825.5</ele>
        <time>2015-09-24T10:13:14Z</time>
      </trkpt>
      <trkpt lat="42.24116" lon="0.02824">
        <ele>826.1</ele>
        <time>2015-09-24T10:13:15Z</time>
      </trkpt>
      <trkpt lat="42.24118" lon="0.0282">
        <ele>826.7</ele>
        <time>2015-09-24T10:13:16Z</time>
      </trkpt>
      <trkpt lat="42.2412" lon="0.02816">
        <ele>827.3</ele>
        <time>2015-09-24T10:13:17Z</time>
      </trkpt>
      <trkpt lat="42.24123" lon="0.02812">
        <ele>827.8</ele>
        <time>2015-09-24T10:13:18Z</time>
      </trkpt>
      <trkpt lat="42.24127" lon="0.02809">
        <ele>828.1</ele>
        <time>2015-09-24T10:13:19Z</time>
      </trkpt>
      <trkpt lat="42.24132" lon="0.02806">
        <ele>828.1</ele>
        <time>2015-09-24T10:13:20Z</time>
      </trkpt>
      <trkpt lat="42.24136" lon="0.02804">
        <ele>828.2</ele>
        <time>2015-09-24T10:13:21Z</time>
      </trkpt>
      <trkpt lat="42.24141" lon="0.02801">
        <ele>828.2</ele>
        <time>2015-09-24T10:13:22Z</time>
      </trkpt>
      <trkpt lat="42.24145" lon="0.02797">
        <ele>828.4</ele>
        <time>2015-09-24T10:13:23Z</time>
      </trkpt>
      <trkpt lat="42.24148" lon="0.02795">
        <ele>828.5</ele>
        <time>2015-09-24T10:13:24Z</time>
      </trkpt>
      <trkpt lat="42.24152" lon="0.02792">
        <ele>828.6</ele>
        <time>2015-09-24T10:13:25Z</time>
      </trkpt>
      <trkpt lat="42.24155" lon="0.02789">
        <ele>828.8</ele>
        <time>2015-09-24T10:13:26Z</time>
      </trkpt>
      <trkpt lat="42.24159" lon="0.02786">
        <ele>829</ele>
        <time>2015-09-24T10:13:27Z</time>
      </trkpt>
      <trkpt lat="42.24162" lon="0.02783">
        <ele>829</ele>
        <time>2015-09-24T10:13:28Z</time>
      </trkpt>
      <trkpt lat="42.24165" lon="0.02781">
        <ele>829.1</ele>
        <time>2015-09-24T10:13:29Z</time>
      </trkpt>
      <trkpt lat="42.24169" lon="0.02779">
        <ele>829.2</ele>
        <time>2015-09-24T10:13:30Z</time>
      </trkpt>
      <trkpt lat="42.24173" lon="0.02777">
        <ele>829.1</ele>
        <time>2015-09-24T10:13:31Z</time>
      </trkpt>
      <trkpt lat="42.24177" lon="0.02774">
        <ele>829.3</ele>
        <time>2015-09-24T10:13:32Z</time>
      </trkpt>
      <trkpt lat="42.24181" lon="0.02771">
        <ele>829.4</ele>
        <time>2015-09-24T10:13:33Z</time>
      </trkpt>
      <trkpt lat="42.24184" lon="0.02769">
        <ele>829.6</ele>
        <time>2015-09-24T10:13:34Z</time>
      </trkpt>
      <trkpt lat="42.24188" lon="0.02765">
        <ele>829.9</ele>
        <time>2015-09-24T10:13:35Z</time>
      </trkpt>
      <trkpt lat="42.24192" lon="0.02763">
        <ele>830.2</ele>
        <time>2015-09-24T10:13:36Z</time>
      </trkpt>
      <trkpt lat="42.24195" lon="0.0276">
        <ele>830.4</ele>
        <time>2015-09-24T10:13:37Z</time>
      </trkpt>
      <trkpt lat="42.24198" lon="0.02757">
        <ele>830.7</ele>
        <time>2015-09-24T10:13:38Z</time>
      </trkpt>
      <trkpt lat="42.24202" lon="0.02754">
        <ele>831</ele>
        <time>2015-09-24T10:13:39Z</time>
      </trkpt>
      <trkpt lat="42.24206" lon="0.02752">
        <ele>831.3</ele>
        <time>2015-09-24T10:13:40Z</time>
      </trkpt>
      <trkpt lat="42.2421" lon="0.0275">
        <ele>831.5</ele>
        <time>2015-09-24T10:13:41Z</time>
      </trkpt>
      <trkpt lat="42.24213" lon="0.02748">
        <ele>831.6</ele>
        <time>2015-09-24T10:13:42Z</time>
      </trkpt>
      <trkpt lat="42.24217" lon="0.02747">
        <ele>831.6</ele>
        <time>2015-09-24T10:13:43Z</time>
      </trkpt>
      <trkpt lat="42.24221" lon="0.02746">
        <ele>831.6</ele>
        <time>2015-09-24T10:13:45Z</time>
      </trkpt>
      <trkpt lat="42.24227" lon="0.02744">
        <ele>831.5</ele>
        <time>2015-09-24T10:13:47Z</time>
      </trkpt>
      <trkpt lat="42.2423" lon="0.02744">
        <ele>831.4</ele>
        <time>2015-09-24T10:13:48Z</time>
      </trkpt>
      <trkpt lat="42.24234" lon="0.02743">
        <ele>831.2</ele>
        <time>2015-09-24T10:13:49Z</time>
      </trkpt>
      <trkpt lat="42.24238" lon="0.02742">
        <ele>831.2</ele>
        <time>2015-09-24T10:13:50Z</time>
      </trkpt>
      <trkpt lat="42.24242" lon="0.0274">
        <ele>831.3</ele>
        <time>2015-09-24T10:13:51Z</time>
      </trkpt>
      <trkpt lat="42.24247" lon="0.02736">
        <ele>831.9</ele>
        <time>2015-09-24T10:13:52Z</time>
      </trkpt>
      <trkpt lat="42.24251" lon="0.02734">
        <ele>832</ele>
        <time>2015-09-24T10:13:53Z</time>
      </trkpt>
      <trkpt lat="42.24254" lon="0.02732">
        <ele>832.2</ele>
        <time>2015-09-24T10:13:54Z</time>
      </trkpt>
      <trkpt lat="42.24257" lon="0.02731">
        <ele>832.3</ele>
        <time>2015-09-24T10:13:55Z</time>
      </trkpt>
      <trkpt lat="42.24261" lon="0.02731">
        <ele>832</ele>
        <time>2015-09-24T10:13:56Z</time>
      </trkpt>
      <trkpt lat="42.24265" lon="0.02732">
        <ele>831.7</ele>
        <time>2015-09-24T10:13:57Z</time>
      </trkpt>
      <trkpt lat="42.24268" lon="0.02733">
        <ele>831.2</ele>
        <time>2015-09-24T10:13:58Z</time>
      </trkpt>
      <trkpt lat="42.24272" lon="0.02735">
        <ele>830.7</ele>
        <time>2015-09-24T10:13:59Z</time>
      </trkpt>
      <trkpt lat="42.24276" lon="0.02735">
        <ele>830.5</ele>
        <time>2015-09-24T10:14:00Z</time>
      </trkpt>
      <trkpt lat="42.2428" lon="0.02733">
        <ele>830.7</ele>
        <time>2015-09-24T10:14:01Z</time>
      </trkpt>
      <trkpt lat="42.24283" lon="0.02731">
        <ele>830.9</ele>
        <time>2015-09-24T10:14:02Z</time>
      </trkpt>
      <trkpt lat="42.24287" lon="0.02729">
        <ele>831</ele>
        <time>2015-09-24T10:14:03Z</time>
      </trkpt>
      <trkpt lat="42.24291" lon="0.02728">
        <ele>831.1</ele>
        <time>2015-09-24T10:14:04Z</time>
      </trkpt>
      <trkpt lat="42.24295" lon="0.02726">
        <ele>831.2</ele>
        <time>2015-09-24T10:14:05Z</time>
      </trkpt>
      <trkpt lat="42.24299" lon="0.02725">
        <ele>831.4</ele>
        <time>2015-09-24T10:14:06Z</time>
      </trkpt>
      <trkpt lat="42.24303" lon="0.02724">
        <ele>831.5</ele>
        <time>2015-09-24T10:14:07Z</time>
      </trkpt>
      <trkpt lat="42.24306" lon="0.02724">
        <ele>831.4</ele>
        <time>2015-09-24T10:14:08Z</time>
      </trkpt>
      <trkpt lat="42.2431" lon="0.02725">
        <ele>831.1</ele>
        <time>2015-09-24T10:14:09Z</time>
      </trkpt>
      <trkpt lat="42.24314" lon="0.02726">
        <ele>830.8</ele>
        <time>2015-09-24T10:14:10Z</time>
      </trkpt>
      <trkpt lat="42.24317" lon="0.02727">
        <ele>830.5</ele>
        <time>2015-09-24T10:14:11Z</time>
      </trkpt>
      <trkpt lat="42.24321" lon="0.02727">
        <ele>830.4</ele>
        <time>2015-09-24T10:14:12Z</time>
      </trkpt>
      <trkpt lat="42.24325" lon="0.02726">
        <ele>830.4</ele>
        <time>2015-09-24T10:14:14Z</time>
      </trkpt>
      <trkpt lat="42.24329" lon="0.02725">
        <ele>830.6</ele>
        <time>2015-09-24T10:14:16Z</time>
      </trkpt>
      <trkpt lat="42.24333" lon="0.02723">
        <ele>830.8</ele>
        <time>2015-09-24T10:14:18Z</time>
      </trkpt>
      <trkpt lat="42.24337" lon="0.02721">
        <ele>831</ele>
        <time>2015-09-24T10:14:20Z</time>
      </trkpt>
      <trkpt lat="42.2434" lon="0.0272">
        <ele>831.2</ele>
        <time>2015-09-24T10:14:22Z</time>
      </trkpt>
      <trkpt lat="42.24344" lon="0.02719">
        <ele>831.2</ele>
        <time>2015-09-24T10:14:24Z</time>
      </trkpt>
      <trkpt lat="42.24349" lon="0.02719">
        <ele>831</ele>
        <time>2015-09-24T10:14:26Z</time>
      </trkpt>
      <trkpt lat="42.24353" lon="0.0272">
        <ele>830.7</ele>
        <time>2015-09-24T10:14:27Z</time>
      </trkpt>
      <trkpt lat="42.24358" lon="0.02722">
        <ele>830.3</ele>
        <time>2015-09-24T10:14:28Z</time>
      </trkpt>
      <trkpt lat="42.24362" lon="0.02723">
        <ele>829.9</ele>
        <time>2015-09-24T10:14:29Z</time>
      </trkpt>
      <trkpt lat="42.24367" lon="0.02725">
        <ele>829.5</ele>
        <time>2015-09-24T10:14:30Z</time>
      </trkpt>
      <trkpt lat="42.24371" lon="0.02726">
        <ele>829.2</ele>
        <time>2015-09-24T10:14:31Z</time>
      </trkpt>
      <trkpt lat="42.24375" lon="0.02727">
        <ele>828.9</ele>
        <time>2015-09-24T10:14:32Z</time>
      </trkpt>
      <trkpt lat="42.24378" lon="0.02728">
        <ele>829</ele>
        <time>2015-09-24T10:14:34Z</time>
      </trkpt>
      <trkpt lat="42.24382" lon="0.02727">
        <ele>829.4</ele>
        <time>2015-09-24T10:14:36Z</time>
      </trkpt>
      <trkpt lat="42.24385" lon="0.02727">
        <ele>829.6</ele>
        <time>2015-09-24T10:14:38Z</time>
      </trkpt>
      <trkpt lat="42.24388" lon="0.02726">
        <ele>829.9</ele>
        <time>2015-09-24T10:14:40Z</time>
      </trkpt>
      <trkpt lat="42.24391" lon="0.02726">
        <ele>830.3</ele>
        <time>2015-09-24T10:14:42Z</time>
      </trkpt>
      <trkpt lat="42.24394" lon="0.02725">
        <ele>830.7</ele>
        <time>2015-09-24T10:14:44Z</time>
      </trkpt>
      <trkpt lat="42.24397" lon="0.02725">
        <ele>830.9</ele>
        <time>2015-09-24T10:14:46Z</time>
      </trkpt>
      <trkpt lat="42.24399" lon="0.02726">
        <ele>830.9</ele>
        <time>2015-09-24T10:14:48Z</time>
      </trkpt>
      <trkpt lat="42.24403" lon="0.02726">
        <ele>831.1</ele>
        <time>2015-09-24T10:14:51Z</time>
      </trkpt>
      <trkpt lat="42.24406" lon="0.02727">
        <ele>831.1</ele>
        <time>2015-09-24T10:14:57Z</time>
      </trkpt>
      <trkpt lat="42.24408" lon="0.02726">
        <ele>831.5</ele>
        <time>2015-09-24T10:15:04Z</time>
      </trkpt>
      <trkpt lat="42.24411" lon="0.02725">
        <ele>831.8</ele>
        <time>2015-09-24T10:15:09Z</time>
      </trkpt>
      <trkpt lat="42.24414" lon="0.02726">
        <ele>832</ele>
        <time>2015-09-24T10:15:14Z</time>
      </trkpt>
      <trkpt lat="42.24418" lon="0.02725">
        <ele>832.3</ele>
        <time>2015-09-24T10:15:19Z</time>
      </trkpt>
      <trkpt lat="42.2442" lon="0.02725">
        <ele>832.5</ele>
        <time>2015-09-24T10:15:23Z</time>
      </trkpt>
      <trkpt lat="42.24423" lon="0.02727">
        <ele>832.5</ele>
        <time>2015-09-24T10:15:27Z</time>
      </trkpt>
      <trkpt lat="42.24426" lon="0.02728">
        <ele>832.5</ele>
        <time>2015-09-24T10:15:32Z</time>
      </trkpt>
      <trkpt lat="42.24429" lon="0.02729">
        <ele>832.5</ele>
        <time>2015-09-24T10:15:36Z</time>
      </trkpt>
      <trkpt lat="42.24432" lon="0.02729">
        <ele>832.9</ele>
        <time>2015-09-24T10:15:40Z</time>
      </trkpt>
      <trkpt lat="42.24435" lon="0.02728">
        <ele>833.2</ele>
        <time>2015-09-24T10:15:45Z</time>
      </trkpt>
      <trkpt lat="42.24439" lon="0.02728">
        <ele>833.6</ele>
        <time>2015-09-24T10:15:47Z</time>
      </trkpt>
      <trkpt lat="42.24443" lon="0.02728">
        <ele>833.8</ele>
        <time>2015-09-24T10:15:49Z</time>
      </trkpt>
      <trkpt lat="42.24446" lon="0.02728">
        <ele>834.1</ele>
        <time>2015-09-24T10:15:51Z</time>
      </trkpt>
      <trkpt lat="42.2445" lon="0.02728">
        <ele>834.4</ele>
        <time>2015-09-24T10:15:53Z</time>
      </trkpt>
      <trkpt lat="42.24453" lon="0.02728">
        <ele>834.6</ele>
        <time>2015-09-24T10:15:55Z</time>
      </trkpt>
      <trkpt lat="42.24456" lon="0.02728">
        <ele>834.8</ele>
        <time>2015-09-24T10:15:57Z</time>
      </trkpt>
      <trkpt lat="42.2446" lon="0.02728">
        <ele>834.9</ele>
        <time>2015-09-24T10:16:00Z</time>
      </trkpt>
      <trkpt lat="42.24463" lon="0.02729">
        <ele>834.9</ele>
        <time>2015-09-24T10:16:02Z</time>
      </trkpt>
      <trkpt lat="42.24466" lon="0.0273">
        <ele>834.9</ele>
        <time>2015-09-24T10:16:04Z</time>
      </trkpt>
      <trkpt lat="42.24469" lon="0.0273">
        <ele>835</ele>
        <time>2015-09-24T10:16:06Z</time>
      </trkpt>
      <trkpt lat="42.24473" lon="0.0273">
        <ele>835.2</ele>
        <time>2015-09-24T10:16:08Z</time>
      </trkpt>
      <trkpt lat="42.24476" lon="0.02729">
        <ele>835.5</ele>
        <time>2015-09-24T10:16:10Z</time>
      </trkpt>
      <trkpt lat="42.2448" lon="0.02729">
        <ele>835.7</ele>
        <time>2015-09-24T10:16:12Z</time>
      </trkpt>
      <trkpt lat="42.24484" lon="0.02728">
        <ele>835.9</ele>
        <time>2015-09-24T10:16:14Z</time>
      </trkpt>
      <trkpt lat="42.24488" lon="0.02729">
        <ele>835.9</ele>
        <time>2015-09-24T10:16:16Z</time>
      </trkpt>
      <trkpt lat="42.24491" lon="0.02729">
        <ele>836</ele>
        <time>2015-09-24T10:16:18Z</time>
      </trkpt>
      <trkpt lat="42.24495" lon="0.02729">
        <ele>836.2</ele>
        <time>2015-09-24T10:16:20Z</time>
      </trkpt>
      <trkpt lat="42.24498" lon="0.02729">
        <ele>836.3</ele>
        <time>2015-09-24T10:16:22Z</time>
      </trkpt>
      <trkpt lat="42.24502" lon="0.02728">
        <ele>836.6</ele>
        <time>2015-09-24T10:16:24Z</time>
      </trkpt>
      <trkpt lat="42.24505" lon="0.02725">
        <ele>837</ele>
        <time>2015-09-24T10:16:26Z</time>
      </trkpt>
      <trkpt lat="42.24508" lon="0.02722">
        <ele>837.5</ele>
        <time>2015-09-24T10:16:28Z</time>
      </trkpt>
      <trkpt lat="42.24511" lon="0.02718">
        <ele>838.1</ele>
        <time>2015-09-24T10:16:30Z</time>
      </trkpt>
      <trkpt lat="42.24514" lon="0.02715">
        <ele>838.6</ele>
        <time>2015-09-24T10:16:32Z</time>
      </trkpt>
      <trkpt lat="42.24517" lon="0.02712">
        <ele>839</ele>
        <time>2015-09-24T10:16:34Z</time>
      </trkpt>
      <trkpt lat="42.24521" lon="0.02709">
        <ele>839.4</ele>
        <time>2015-09-24T10:16:36Z</time>
      </trkpt>
      <trkpt lat="42.24525" lon="0.02706">
        <ele>840</ele>
        <time>2015-09-24T10:16:38Z</time>
      </trkpt>
      <trkpt lat="42.24528" lon="0.02702">
        <ele>840.9</ele>
        <time>2015-09-24T10:16:40Z</time>
      </trkpt>
      <trkpt lat="42.24531" lon="0.02698">
        <ele>841.8</ele>
        <time>2015-09-24T10:16:42Z</time>
      </trkpt>
      <trkpt lat="42.24532" lon="0.02693">
        <ele>842.8</ele>
        <time>2015-09-24T10:16:44Z</time>
      </trkpt>
      <trkpt lat="42.24533" lon="0.02689">
        <ele>843.7</ele>
        <time>2015-09-24T10:16:46Z</time>
      </trkpt>
      <trkpt lat="42.24535" lon="0.02684">
        <ele>844.6</ele>
        <time>2015-09-24T10:16:48Z</time>
      </trkpt>
      <trkpt lat="42.24536" lon="0.0268">
        <ele>845.4</ele>
        <time>2015-09-24T10:16:50Z</time>
      </trkpt>
      <trkpt lat="42.24537" lon="0.02676">
        <ele>846.3</ele>
        <time>2015-09-24T10:16:52Z</time>
      </trkpt>
      <trkpt lat="42.24539" lon="0.02671">
        <ele>847.1</ele>
        <time>2015-09-24T10:16:54Z</time>
      </trkpt>
      <trkpt lat="42.24541" lon="0.02667">
        <ele>848</ele>
        <time>2015-09-24T10:16:56Z</time>
      </trkpt>
      <trkpt lat="42.24543" lon="0.02663">
        <ele>848.7</ele>
        <time>2015-09-24T10:16:58Z</time>
      </trkpt>
      <trkpt lat="42.24545" lon="0.02659">
        <ele>849.3</ele>
        <time>2015-09-24T10:17:00Z</time>
      </trkpt>
      <trkpt lat="42.24549" lon="0.02655">
        <ele>850</ele>
        <time>2015-09-24T10:17:02Z</time>
      </trkpt>
      <trkpt lat="42.24551" lon="0.02652">
        <ele>850.4</ele>
        <time>2015-09-24T10:17:03Z</time>
      </trkpt>
      <trkpt lat="42.24554" lon="0.02649">
        <ele>850.9</ele>
        <time>2015-09-24T10:17:04Z</time>
      </trkpt>
      <trkpt lat="42.24557" lon="0.02646">
        <ele>851.3</ele>
        <time>2015-09-24T10:17:05Z</time>
      </trkpt>
      <trkpt lat="42.2456" lon="0.02644">
        <ele>851.5</ele>
        <time>2015-09-24T10:17:06Z</time>
      </trkpt>
      <trkpt lat="42.24563" lon="0.02643">
        <ele>851.6</ele>
        <time>2015-09-24T10:17:07Z</time>
      </trkpt>
      <trkpt lat="42.24567" lon="0.02641">
        <ele>851.7</ele>
        <time>2015-09-24T10:17:08Z</time>
      </trkpt>
      <trkpt lat="42.2457" lon="0.0264">
        <ele>851.8</ele>
        <time>2015-09-24T10:17:09Z</time>
      </trkpt>
      <trkpt lat="42.24573" lon="0.0264">
        <ele>851.8</ele>
        <time>2015-09-24T10:17:10Z</time>
      </trkpt>
      <trkpt lat="42.24577" lon="0.02639">
        <ele>851.7</ele>
        <time>2015-09-24T10:17:11Z</time>
      </trkpt>
      <trkpt lat="42.2458" lon="0.02638">
        <ele>851.7</ele>
        <time>2015-09-24T10:17:12Z</time>
      </trkpt>
      <trkpt lat="42.24582" lon="0.02637">
        <ele>851.9</ele>
        <time>2015-09-24T10:17:13Z</time>
      </trkpt>
      <trkpt lat="42.24585" lon="0.02635">
        <ele>852</ele>
        <time>2015-09-24T10:17:14Z</time>
      </trkpt>
      <trkpt lat="42.24589" lon="0.02635">
        <ele>852</ele>
        <time>2015-09-24T10:17:16Z</time>
      </trkpt>
      <trkpt lat="42.24593" lon="0.02635">
        <ele>851.8</ele>
        <time>2015-09-24T10:17:19Z</time>
      </trkpt>
      <trkpt lat="42.24596" lon="0.02635">
        <ele>851.6</ele>
        <time>2015-09-24T10:17:21Z</time>
      </trkpt>
      <trkpt lat="42.246" lon="0.02634">
        <ele>851.5</ele>
        <time>2015-09-24T10:17:23Z</time>
      </trkpt>
      <trkpt lat="42.24604" lon="0.02634">
        <ele>851.3</ele>
        <time>2015-09-24T10:17:25Z</time>
      </trkpt>
      <trkpt lat="42.24608" lon="0.02639">
        <ele>850.3</ele>
        <time>2015-09-24T10:17:27Z</time>
      </trkpt>
      <trkpt lat="42.2461" lon="0.02642">
        <ele>849.6</ele>
        <time>2015-09-24T10:17:28Z</time>
      </trkpt>
      <trkpt lat="42.24612" lon="0.02645">
        <ele>849</ele>
        <time>2015-09-24T10:17:29Z</time>
      </trkpt>
      <trkpt lat="42.24614" lon="0.02647">
        <ele>848.4</ele>
        <time>2015-09-24T10:17:30Z</time>
      </trkpt>
      <trkpt lat="42.24617" lon="0.0265">
        <ele>847.9</ele>
        <time>2015-09-24T10:17:31Z</time>
      </trkpt>
      <trkpt lat="42.24619" lon="0.02653">
        <ele>847.3</ele>
        <time>2015-09-24T10:17:32Z</time>
      </trkpt>
      <trkpt lat="42.24621" lon="0.02655">
        <ele>846.8</ele>
        <time>2015-09-24T10:17:33Z</time>
      </trkpt>
      <trkpt lat="42.24623" lon="0.02657">
        <ele>846.3</ele>
        <time>2015-09-24T10:17:34Z</time>
      </trkpt>
      <trkpt lat="42.24626" lon="0.02658">
        <ele>846.1</ele>
        <time>2015-09-24T10:17:35Z</time>
      </trkpt>
      <trkpt lat="42.24629" lon="0.02659">
        <ele>846.2</ele>
        <time>2015-09-24T10:17:36Z</time>
      </trkpt>
      <trkpt lat="42.24633" lon="0.02659">
        <ele>846.4</ele>
        <time>2015-09-24T10:17:37Z</time>
      </trkpt>
      <trkpt lat="42.24636" lon="0.02659">
        <ele>846.7</ele>
        <time>2015-09-24T10:17:38Z</time>
      </trkpt>
      <trkpt lat="42.2464" lon="0.02658">
        <ele>847.1</ele>
        <time>2015-09-24T10:17:39Z</time>
      </trkpt>
      <trkpt lat="42.24644" lon="0.02657">
        <ele>847.5</ele>
        <time>2015-09-24T10:17:40Z</time>
      </trkpt>
      <trkpt lat="42.24648" lon="0.02657">
        <ele>847.9</ele>
        <time>2015-09-24T10:17:41Z</time>
      </trkpt>
      <trkpt lat="42.24652" lon="0.02656">
        <ele>848.2</ele>
        <time>2015-09-24T10:17:42Z</time>
      </trkpt>
      <trkpt lat="42.24655" lon="0.02656">
        <ele>848.5</ele>
        <time>2015-09-24T10:17:43Z</time>
      </trkpt>
      <trkpt lat="42.24659" lon="0.02656">
        <ele>848.8</ele>
        <time>2015-09-24T10:17:44Z</time>
      </trkpt>
      <trkpt lat="42.24662" lon="0.02655">
        <ele>849.1</ele>
        <time>2015-09-24T10:17:45Z</time>
      </trkpt>
      <trkpt lat="42.24665" lon="0.02654">
        <ele>849.5</ele>
        <time>2015-09-24T10:17:46Z</time>
      </trkpt>
      <trkpt lat="42.24669" lon="0.02654">
        <ele>849.8</ele>
        <time>2015-09-24T10:17:47Z</time>
      </trkpt>
      <trkpt lat="42.24672" lon="0.02653">
        <ele>850.2</ele>
        <time>2015-09-24T10:17:48Z</time>
      </trkpt>
      <trkpt lat="42.24677" lon="0.02652">
        <ele>850.7</ele>
        <time>2015-09-24T10:17:50Z</time>
      </trkpt>
      <trkpt lat="42.2468" lon="0.02651">
        <ele>851</ele>
        <time>2015-09-24T10:17:51Z</time>
      </trkpt>
      <trkpt lat="42.24682" lon="0.0265">
        <ele>851.3</ele>
        <time>2015-09-24T10:17:52Z</time>
      </trkpt>
      <trkpt lat="42.24686" lon="0.0265">
        <ele>851.6</ele>
        <time>2015-09-24T10:17:53Z</time>
      </trkpt>
      <trkpt lat="42.24688" lon="0.02649">
        <ele>851.9</ele>
        <time>2015-09-24T10:17:54Z</time>
      </trkpt>
      <trkpt lat="42.24692" lon="0.02649">
        <ele>852.1</ele>
        <time>2015-09-24T10:17:55Z</time>
      </trkpt>
      <trkpt lat="42.24695" lon="0.02649">
        <ele>852.4</ele>
        <time>2015-09-24T10:17:56Z</time>
      </trkpt>
      <trkpt lat="42.24698" lon="0.02649">
        <ele>852.6</ele>
        <time>2015-09-24T10:17:57Z</time>
      </trkpt>
      <trkpt lat="42.24701" lon="0.02648">
        <ele>852.9</ele>
        <time>2015-09-24T10:17:58Z</time>
      </trkpt>
      <trkpt lat="42.24704" lon="0.02649">
        <ele>853</ele>
        <time>2015-09-24T10:17:59Z</time>
      </trkpt>
      <trkpt lat="42.24707" lon="0.0265">
        <ele>853.1</ele>
        <time>2015-09-24T10:18:00Z</time>
      </trkpt>
      <trkpt lat="42.24711" lon="0.0265">
        <ele>853.4</ele>
        <time>2015-09-24T10:18:02Z</time>
      </trkpt>
      <trkpt lat="42.24716" lon="0.02652">
        <ele>853.7</ele>
        <time>2015-09-24T10:18:04Z</time>
      </trkpt>
      <trkpt lat="42.24721" lon="0.02653">
        <ele>854.1</ele>
        <time>2015-09-24T10:18:06Z</time>
      </trkpt>
      <trkpt lat="42.24723" lon="0.02654">
        <ele>854.3</ele>
        <time>2015-09-24T10:18:07Z</time>
      </trkpt>
      <trkpt lat="42.24728" lon="0.02655">
        <ele>854.8</ele>
        <time>2015-09-24T10:18:09Z</time>
      </trkpt>
      <trkpt lat="42.24733" lon="0.02653">
        <ele>855.6</ele>
        <time>2015-09-24T10:18:11Z</time>
      </trkpt>
      <trkpt lat="42.24737" lon="0.02651">
        <ele>856.4</ele>
        <time>2015-09-24T10:18:13Z</time>
      </trkpt>
      <trkpt lat="42.24741" lon="0.0265">
        <ele>857</ele>
        <time>2015-09-24T10:18:15Z</time>
      </trkpt>
      <trkpt lat="42.24744" lon="0.02651">
        <ele>857.3</ele>
        <time>2015-09-24T10:18:17Z</time>
      </trkpt>
      <trkpt lat="42.24748" lon="0.02652">
        <ele>857.5</ele>
        <time>2015-09-24T10:18:19Z</time>
      </trkpt>
      <trkpt lat="42.24751" lon="0.02654">
        <ele>857.6</ele>
        <time>2015-09-24T10:18:21Z</time>
      </trkpt>
      <trkpt lat="42.24755" lon="0.02656">
        <ele>857.8</ele>
        <time>2015-09-24T10:18:23Z</time>
      </trkpt>
      <trkpt lat="42.24759" lon="0.02656">
        <ele>858.3</ele>
        <time>2015-09-24T10:18:25Z</time>
      </trkpt>
      <trkpt lat="42.24763" lon="0.02656">
        <ele>858.7</ele>
        <time>2015-09-24T10:18:27Z</time>
      </trkpt>
      <trkpt lat="42.24766" lon="0.02656">
        <ele>859.1</ele>
        <time>2015-09-24T10:18:29Z</time>
      </trkpt>
      <trkpt lat="42.24769" lon="0.02655">
        <ele>859.6</ele>
        <time>2015-09-24T10:18:31Z</time>
      </trkpt>
      <trkpt lat="42.24772" lon="0.02656">
        <ele>859.9</ele>
        <time>2015-09-24T10:18:44Z</time>
      </trkpt>
      <trkpt lat="42.24775" lon="0.02657">
        <ele>860</ele>
        <time>2015-09-24T10:18:49Z</time>
      </trkpt>
      <trkpt lat="42.24778" lon="0.02658">
        <ele>860.2</ele>
        <time>2015-09-24T10:18:58Z</time>
      </trkpt>
      <trkpt lat="42.24782" lon="0.02658">
        <ele>860.7</ele>
        <time>2015-09-24T10:19:01Z</time>
      </trkpt>
      <trkpt lat="42.24785" lon="0.0266">
        <ele>860.8</ele>
        <time>2015-09-24T10:19:03Z</time>
      </trkpt>
      <trkpt lat="42.24788" lon="0.02663">
        <ele>860.7</ele>
        <time>2015-09-24T10:19:05Z</time>
      </trkpt>
      <trkpt lat="42.24791" lon="0.02666">
        <ele>860.5</ele>
        <time>2015-09-24T10:19:07Z</time>
      </trkpt>
      <trkpt lat="42.24794" lon="0.02671">
        <ele>860.3</ele>
        <time>2015-09-24T10:19:09Z</time>
      </trkpt>
      <trkpt lat="42.24798" lon="0.02675">
        <ele>860.4</ele>
        <time>2015-09-24T10:19:11Z</time>
      </trkpt>
      <trkpt lat="42.24801" lon="0.0268">
        <ele>860.2</ele>
        <time>2015-09-24T10:19:13Z</time>
      </trkpt>
      <trkpt lat="42.24804" lon="0.02686">
        <ele>859.7</ele>
        <time>2015-09-24T10:19:15Z</time>
      </trkpt>
      <trkpt lat="42.24806" lon="0.02692">
        <ele>859.2</ele>
        <time>2015-09-24T10:19:17Z</time>
      </trkpt>
      <trkpt lat="42.24808" lon="0.02695">
        <ele>858.9</ele>
        <time>2015-09-24T10:19:18Z</time>
      </trkpt>
      <trkpt lat="42.2481" lon="0.02699">
        <ele>858.7</ele>
        <time>2015-09-24T10:19:19Z</time>
      </trkpt>
      <trkpt lat="42.24811" lon="0.02702">
        <ele>858.6</ele>
        <time>2015-09-24T10:19:20Z</time>
      </trkpt>
      <trkpt lat="42.24813" lon="0.02705">
        <ele>858.3</ele>
        <time>2015-09-24T10:19:21Z</time>
      </trkpt>
      <trkpt lat="42.24815" lon="0.02709">
        <ele>858.2</ele>
        <time>2015-09-24T10:19:22Z</time>
      </trkpt>
      <trkpt lat="42.24816" lon="0.02712">
        <ele>858.7</ele>
        <time>2015-09-24T10:19:23Z</time>
      </trkpt>
      <trkpt lat="42.24817" lon="0.02716">
        <ele>859.1</ele>
        <time>2015-09-24T10:19:24Z</time>
      </trkpt>
      <trkpt lat="42.24819" lon="0.02719">
        <ele>859.5</ele>
        <time>2015-09-24T10:19:25Z</time>
      </trkpt>
      <trkpt lat="42.24822" lon="0.02725">
        <ele>860.3</ele>
        <time>2015-09-24T10:19:27Z</time>
      </trkpt>
      <trkpt lat="42.24824" lon="0.02728">
        <ele>860.7</ele>
        <time>2015-09-24T10:19:28Z</time>
      </trkpt>
      <trkpt lat="42.24826" lon="0.0273">
        <ele>861.1</ele>
        <time>2015-09-24T10:19:29Z</time>
      </trkpt>
      <trkpt lat="42.24829" lon="0.02732">
        <ele>861.5</ele>
        <time>2015-09-24T10:19:30Z</time>
      </trkpt>
      <trkpt lat="42.24832" lon="0.02734">
        <ele>861.9</ele>
        <time>2015-09-24T10:19:31Z</time>
      </trkpt>
      <trkpt lat="42.24835" lon="0.02735">
        <ele>862.3</ele>
        <time>2015-09-24T10:19:32Z</time>
      </trkpt>
      <trkpt lat="42.24838" lon="0.02735">
        <ele>862.6</ele>
        <time>2015-09-24T10:19:33Z</time>
      </trkpt>
      <trkpt lat="42.2484" lon="0.02735">
        <ele>863</ele>
        <time>2015-09-24T10:19:34Z</time>
      </trkpt>
      <trkpt lat="42.24843" lon="0.02736">
        <ele>863.3</ele>
        <time>2015-09-24T10:19:35Z</time>
      </trkpt>
      <trkpt lat="42.24848" lon="0.02737">
        <ele>863.8</ele>
        <time>2015-09-24T10:19:37Z</time>
      </trkpt>
      <trkpt lat="42.2485" lon="0.02739">
        <ele>864.1</ele>
        <time>2015-09-24T10:19:45Z</time>
      </trkpt>
      <trkpt lat="42.24853" lon="0.02742">
        <ele>864.4</ele>
        <time>2015-09-24T10:19:47Z</time>
      </trkpt>
      <trkpt lat="42.24856" lon="0.02744">
        <ele>864.6</ele>
        <time>2015-09-24T10:19:49Z</time>
      </trkpt>
      <trkpt lat="42.24858" lon="0.0274">
        <ele>864.9</ele>
        <time>2015-09-24T10:20:07Z</time>
      </trkpt>
      <trkpt lat="42.24858" lon="0.02737">
        <ele>865</ele>
        <time>2015-09-24T10:20:10Z</time>
      </trkpt>
      <trkpt lat="42.24856" lon="0.02734">
        <ele>864.8</ele>
        <time>2015-09-24T10:20:14Z</time>
      </trkpt>
      <trkpt lat="42.2485" lon="0.02732">
        <ele>864.2</ele>
        <time>2015-09-24T10:21:02Z</time>
      </trkpt>
      <trkpt lat="42.24848" lon="0.02731">
        <ele>863.9</ele>
        <time>2015-09-24T10:21:04Z</time>
      </trkpt>
      <trkpt lat="42.24845" lon="0.02729">
        <ele>863.5</ele>
        <time>2015-09-24T10:21:06Z</time>
      </trkpt>
      <trkpt lat="42.24841" lon="0.02727">
        <ele>863</ele>
        <time>2015-09-24T10:21:08Z</time>
      </trkpt>
      <trkpt lat="42.24838" lon="0.02726">
        <ele>862.6</ele>
        <time>2015-09-24T10:21:10Z</time>
      </trkpt>
      <trkpt lat="42.24835" lon="0.02723">
        <ele>862.1</ele>
        <time>2015-09-24T10:21:12Z</time>
      </trkpt>
      <trkpt lat="42.24833" lon="0.02719">
        <ele>861.7</ele>
        <time>2015-09-24T10:21:14Z</time>
      </trkpt>
      <trkpt lat="42.24831" lon="0.02715">
        <ele>861.3</ele>
        <time>2015-09-24T10:21:35Z</time>
      </trkpt>
      <trkpt lat="42.24828" lon="0.02713">
        <ele>860.7</ele>
        <time>2015-09-24T10:21:37Z</time>
      </trkpt>
      <trkpt lat="42.24824" lon="0.02708">
        <ele>859.9</ele>
        <time>2015-09-24T10:21:39Z</time>
      </trkpt>
      <trkpt lat="42.24821" lon="0.02703">
        <ele>860</ele>
        <time>2015-09-24T10:21:41Z</time>
      </trkpt>
      <trkpt lat="42.24818" lon="0.02697">
        <ele>860.4</ele>
        <time>2015-09-24T10:21:43Z</time>
      </trkpt>
      <trkpt lat="42.24816" lon="0.02693">
        <ele>860.7</ele>
        <time>2015-09-24T10:21:44Z</time>
      </trkpt>
      <trkpt lat="42.24814" lon="0.0269">
        <ele>861</ele>
        <time>2015-09-24T10:21:45Z</time>
      </trkpt>
      <trkpt lat="42.24812" lon="0.02686">
        <ele>861.2</ele>
        <time>2015-09-24T10:21:46Z</time>
      </trkpt>
      <trkpt lat="42.2481" lon="0.02681">
        <ele>861.6</ele>
        <time>2015-09-24T10:21:47Z</time>
      </trkpt>
      <trkpt lat="42.24808" lon="0.02676">
        <ele>862</ele>
        <time>2015-09-24T10:21:48Z</time>
      </trkpt>
      <trkpt lat="42.24807" lon="0.02672">
        <ele>862.3</ele>
        <time>2015-09-24T10:21:49Z</time>
      </trkpt>
      <trkpt lat="42.24805" lon="0.02669">
        <ele>862.5</ele>
        <time>2015-09-24T10:21:50Z</time>
      </trkpt>
      <trkpt lat="42.24802" lon="0.02666">
        <ele>862.5</ele>
        <time>2015-09-24T10:21:51Z</time>
      </trkpt>
      <trkpt lat="42.248" lon="0.02663">
        <ele>862.6</ele>
        <time>2015-09-24T10:21:52Z</time>
      </trkpt>
      <trkpt lat="42.24797" lon="0.02657">
        <ele>862.9</ele>
        <time>2015-09-24T10:21:54Z</time>
      </trkpt>
      <trkpt lat="42.24793" lon="0.02653">
        <ele>862.9</ele>
        <time>2015-09-24T10:21:56Z</time>
      </trkpt>
      <trkpt lat="42.2479" lon="0.02648">
        <ele>863.1</ele>
        <time>2015-09-24T10:21:58Z</time>
      </trkpt>
      <trkpt lat="42.24786" lon="0.02643">
        <ele>863.4</ele>
        <time>2015-09-24T10:22:00Z</time>
      </trkpt>
      <trkpt lat="42.24781" lon="0.0264">
        <ele>863.4</ele>
        <time>2015-09-24T10:22:02Z</time>
      </trkpt>
      <trkpt lat="42.24777" lon="0.02637">
        <ele>863.4</ele>
        <time>2015-09-24T10:22:04Z</time>
      </trkpt>
      <trkpt lat="42.24773" lon="0.02634">
        <ele>863.4</ele>
        <time>2015-09-24T10:22:06Z</time>
      </trkpt>
      <trkpt lat="42.24769" lon="0.02631">
        <ele>863.3</ele>
        <time>2015-09-24T10:22:08Z</time>
      </trkpt>
      <trkpt lat="42.24764" lon="0.02628">
        <ele>863.2</ele>
        <time>2015-09-24T10:22:10Z</time>
      </trkpt>
      <trkpt lat="42.24762" lon="0.02627">
        <ele>863.1</ele>
        <time>2015-09-24T10:22:11Z</time>
      </trkpt>
      <trkpt lat="42.24759" lon="0.02625">
        <ele>863.1</ele>
        <time>2015-09-24T10:22:12Z</time>
      </trkpt>
      <trkpt lat="42.24757" lon="0.02623">
        <ele>863.1</ele>
        <time>2015-09-24T10:22:13Z</time>
      </trkpt>
      <trkpt lat="42.24755" lon="0.02621">
        <ele>863.2</ele>
        <time>2015-09-24T10:22:14Z</time>
      </trkpt>
      <trkpt lat="42.24752" lon="0.02618">
        <ele>863.2</ele>
        <time>2015-09-24T10:22:15Z</time>
      </trkpt>
      <trkpt lat="42.2475" lon="0.02616">
        <ele>863.3</ele>
        <time>2015-09-24T10:22:16Z</time>
      </trkpt>
      <trkpt lat="42.24748" lon="0.02614">
        <ele>863.3</ele>
        <time>2015-09-24T10:22:17Z</time>
      </trkpt>
      <trkpt lat="42.24743" lon="0.02611">
        <ele>863.4</ele>
        <time>2015-09-24T10:22:19Z</time>
      </trkpt>
      <trkpt lat="42.24739" lon="0.02608">
        <ele>863.3</ele>
        <time>2015-09-24T10:22:21Z</time>
      </trkpt>
      <trkpt lat="42.24734" lon="0.02606">
        <ele>863.2</ele>
        <time>2015-09-24T10:22:23Z</time>
      </trkpt>
      <trkpt lat="42.2473" lon="0.02604">
        <ele>863</ele>
        <time>2015-09-24T10:22:25Z</time>
      </trkpt>
      <trkpt lat="42.24726" lon="0.02601">
        <ele>863.1</ele>
        <time>2015-09-24T10:22:27Z</time>
      </trkpt>
      <trkpt lat="42.24722" lon="0.02598">
        <ele>863.2</ele>
        <time>2015-09-24T10:22:29Z</time>
      </trkpt>
      <trkpt lat="42.24718" lon="0.02595">
        <ele>863.2</ele>
        <time>2015-09-24T10:22:31Z</time>
      </trkpt>
      <trkpt lat="42.24714" lon="0.02592">
        <ele>863.4</ele>
        <time>2015-09-24T10:22:33Z</time>
      </trkpt>
      <trkpt lat="42.24711" lon="0.02589">
        <ele>863.7</ele>
        <time>2015-09-24T10:22:35Z</time>
      </trkpt>
      <trkpt lat="42.24708" lon="0.02585">
        <ele>864.2</ele>
        <time>2015-09-24T10:22:37Z</time>
      </trkpt>
      <trkpt lat="42.24707" lon="0.0258">
        <ele>865</ele>
        <time>2015-09-24T10:22:39Z</time>
      </trkpt>
      <trkpt lat="42.24707" lon="0.02575">
        <ele>866</ele>
        <time>2015-09-24T10:22:41Z</time>
      </trkpt>
      <trkpt lat="42.24708" lon="0.0257">
        <ele>866.9</ele>
        <time>2015-09-24T10:22:43Z</time>
      </trkpt>
      <trkpt lat="42.24711" lon="0.02567">
        <ele>867.6</ele>
        <time>2015-09-24T10:22:45Z</time>
      </trkpt>
      <trkpt lat="42.24714" lon="0.02564">
        <ele>868.3</ele>
        <time>2015-09-24T10:22:47Z</time>
      </trkpt>
      <trkpt lat="42.24717" lon="0.02562">
        <ele>868.9</ele>
        <time>2015-09-24T10:22:49Z</time>
      </trkpt>
      <trkpt lat="42.2472" lon="0.02561">
        <ele>869.4</ele>
        <time>2015-09-24T10:22:51Z</time>
      </trkpt>
      <trkpt lat="42.24724" lon="0.02559">
        <ele>869.8</ele>
        <time>2015-09-24T10:22:53Z</time>
      </trkpt>
      <trkpt lat="42.24727" lon="0.02557">
        <ele>870.3</ele>
        <time>2015-09-24T10:22:55Z</time>
      </trkpt>
      <trkpt lat="42.2473" lon="0.02554">
        <ele>871</ele>
        <time>2015-09-24T10:22:57Z</time>
      </trkpt>
      <trkpt lat="42.24733" lon="0.02552">
        <ele>871.6</ele>
        <time>2015-09-24T10:22:59Z</time>
      </trkpt>
      <trkpt lat="42.24736" lon="0.02549">
        <ele>872.2</ele>
        <time>2015-09-24T10:23:01Z</time>
      </trkpt>
      <trkpt lat="42.24738" lon="0.02546">
        <ele>872.8</ele>
        <time>2015-09-24T10:23:03Z</time>
      </trkpt>
      <trkpt lat="42.2474" lon="0.02542">
        <ele>873.5</ele>
        <time>2015-09-24T10:23:05Z</time>
      </trkpt>
      <trkpt lat="42.24741" lon="0.02538">
        <ele>874</ele>
        <time>2015-09-24T10:23:07Z</time>
      </trkpt>
      <trkpt lat="42.24743" lon="0.02534">
        <ele>874.4</ele>
        <time>2015-09-24T10:23:09Z</time>
      </trkpt>
      <trkpt lat="42.24744" lon="0.02531">
        <ele>874.8</ele>
        <time>2015-09-24T10:23:11Z</time>
      </trkpt>
      <trkpt lat="42.24746" lon="0.02527">
        <ele>875.2</ele>
        <time>2015-09-24T10:23:14Z</time>
      </trkpt>
      <trkpt lat="42.24748" lon="0.02524">
        <ele>875.7</ele>
        <time>2015-09-24T10:23:17Z</time>
      </trkpt>
      <trkpt lat="42.24751" lon="0.0252">
        <ele>876.1</ele>
        <time>2015-09-24T10:23:20Z</time>
      </trkpt>
      <trkpt lat="42.24754" lon="0.02517">
        <ele>876.4</ele>
        <time>2015-09-24T10:23:23Z</time>
      </trkpt>
      <trkpt lat="42.24758" lon="0.02518">
        <ele>876.5</ele>
        <time>2015-09-24T10:23:26Z</time>
      </trkpt>
      <trkpt lat="42.24761" lon="0.02521">
        <ele>876.2</ele>
        <time>2015-09-24T10:23:29Z</time>
      </trkpt>
      <trkpt lat="42.24761" lon="0.02527">
        <ele>875.8</ele>
        <time>2015-09-24T10:23:32Z</time>
      </trkpt>
      <trkpt lat="42.24761" lon="0.0253">
        <ele>875.5</ele>
        <time>2015-09-24T10:23:34Z</time>
      </trkpt>
      <trkpt lat="42.24761" lon="0.02534">
        <ele>875.2</ele>
        <time>2015-09-24T10:23:36Z</time>
      </trkpt>
      <trkpt lat="42.24763" lon="0.02537">
        <ele>875</ele>
        <time>2015-09-24T10:23:38Z</time>
      </trkpt>
      <trkpt lat="42.24766" lon="0.02539">
        <ele>875</ele>
        <time>2015-09-24T10:23:40Z</time>
      </trkpt>
      <trkpt lat="42.24769" lon="0.02541">
        <ele>874.9</ele>
        <time>2015-09-24T10:23:42Z</time>
      </trkpt>
      <trkpt lat="42.24772" lon="0.02544">
        <ele>874.7</ele>
        <time>2015-09-24T10:23:44Z</time>
      </trkpt>
      <trkpt lat="42.24776" lon="0.02548">
        <ele>874.5</ele>
        <time>2015-09-24T10:23:46Z</time>
      </trkpt>
      <trkpt lat="42.24779" lon="0.02554">
        <ele>874</ele>
        <time>2015-09-24T10:23:48Z</time>
      </trkpt>
      <trkpt lat="42.2478" lon="0.02557">
        <ele>873.6</ele>
        <time>2015-09-24T10:23:49Z</time>
      </trkpt>
      <trkpt lat="42.24781" lon="0.02561">
        <ele>873.2</ele>
        <time>2015-09-24T10:23:50Z</time>
      </trkpt>
      <trkpt lat="42.24782" lon="0.02565">
        <ele>872.9</ele>
        <time>2015-09-24T10:23:51Z</time>
      </trkpt>
      <trkpt lat="42.24784" lon="0.02569">
        <ele>872.5</ele>
        <time>2015-09-24T10:23:52Z</time>
      </trkpt>
      <trkpt lat="42.24785" lon="0.02573">
        <ele>872.2</ele>
        <time>2015-09-24T10:23:53Z</time>
      </trkpt>
      <trkpt lat="42.24786" lon="0.02576">
        <ele>871.8</ele>
        <time>2015-09-24T10:23:54Z</time>
      </trkpt>
      <trkpt lat="42.24788" lon="0.0258">
        <ele>871.5</ele>
        <time>2015-09-24T10:23:55Z</time>
      </trkpt>
      <trkpt lat="42.2479" lon="0.02584">
        <ele>871.3</ele>
        <time>2015-09-24T10:23:56Z</time>
      </trkpt>
      <trkpt lat="42.24793" lon="0.02589">
        <ele>871.2</ele>
        <time>2015-09-24T10:23:57Z</time>
      </trkpt>
      <trkpt lat="42.24796" lon="0.02592">
        <ele>871.3</ele>
        <time>2015-09-24T10:23:58Z</time>
      </trkpt>
      <trkpt lat="42.248" lon="0.02596">
        <ele>871.4</ele>
        <time>2015-09-24T10:23:59Z</time>
      </trkpt>
      <trkpt lat="42.24803" lon="0.02599">
        <ele>871.7</ele>
        <time>2015-09-24T10:24:00Z</time>
      </trkpt>
      <trkpt lat="42.24807" lon="0.02602">
        <ele>871.9</ele>
        <time>2015-09-24T10:24:01Z</time>
      </trkpt>
      <trkpt lat="42.2481" lon="0.02605">
        <ele>872.2</ele>
        <time>2015-09-24T10:24:02Z</time>
      </trkpt>
      <trkpt lat="42.24814" lon="0.02609">
        <ele>872.5</ele>
        <time>2015-09-24T10:24:03Z</time>
      </trkpt>
      <trkpt lat="42.24818" lon="0.02612">
        <ele>872.9</ele>
        <time>2015-09-24T10:24:04Z</time>
      </trkpt>
      <trkpt lat="42.24821" lon="0.02615">
        <ele>873.2</ele>
        <time>2015-09-24T10:24:05Z</time>
      </trkpt>
      <trkpt lat="42.24825" lon="0.02618">
        <ele>873.6</ele>
        <time>2015-09-24T10:24:06Z</time>
      </trkpt>
      <trkpt lat="42.24828" lon="0.02621">
        <ele>873.9</ele>
        <time>2015-09-24T10:24:07Z</time>
      </trkpt>
      <trkpt lat="42.24832" lon="0.02625">
        <ele>874.3</ele>
        <time>2015-09-24T10:24:08Z</time>
      </trkpt>
      <trkpt lat="42.24836" lon="0.02628">
        <ele>874.5</ele>
        <time>2015-09-24T10:24:09Z</time>
      </trkpt>
      <trkpt lat="42.24841" lon="0.02632">
        <ele>874.7</ele>
        <time>2015-09-24T10:24:10Z</time>
      </trkpt>
      <trkpt lat="42.24845" lon="0.02636">
        <ele>874.9</ele>
        <time>2015-09-24T10:24:11Z</time>
      </trkpt>
      <trkpt lat="42.24849" lon="0.02639">
        <ele>875.1</ele>
        <time>2015-09-24T10:24:12Z</time>
      </trkpt>
      <trkpt lat="42.24853" lon="0.02642">
        <ele>875.3</ele>
        <time>2015-09-24T10:24:13Z</time>
      </trkpt>
      <trkpt lat="42.24856" lon="0.02645">
        <ele>875.6</ele>
        <time>2015-09-24T10:24:14Z</time>
      </trkpt>
      <trkpt lat="42.24861" lon="0.02647">
        <ele>876</ele>
        <time>2015-09-24T10:24:15Z</time>
      </trkpt>
      <trkpt lat="42.24864" lon="0.02649">
        <ele>876.4</ele>
        <time>2015-09-24T10:24:16Z</time>
      </trkpt>
      <trkpt lat="42.24868" lon="0.02649">
        <ele>877</ele>
        <time>2015-09-24T10:24:17Z</time>
      </trkpt>
      <trkpt lat="42.24873" lon="0.0265">
        <ele>877.8</ele>
        <time>2015-09-24T10:24:18Z</time>
      </trkpt>
      <trkpt lat="42.24877" lon="0.0265">
        <ele>878.4</ele>
        <time>2015-09-24T10:24:19Z</time>
      </trkpt>
      <trkpt lat="42.24882" lon="0.0265">
        <ele>878.9</ele>
        <time>2015-09-24T10:24:20Z</time>
      </trkpt>
      <trkpt lat="42.24886" lon="0.0265">
        <ele>879.4</ele>
        <time>2015-09-24T10:24:21Z</time>
      </trkpt>
      <trkpt lat="42.2489" lon="0.0265">
        <ele>879.8</ele>
        <time>2015-09-24T10:24:22Z</time>
      </trkpt>
      <trkpt lat="42.24894" lon="0.02651">
        <ele>880.2</ele>
        <time>2015-09-24T10:24:23Z</time>
      </trkpt>
      <trkpt lat="42.24898" lon="0.02651">
        <ele>880.7</ele>
        <time>2015-09-24T10:24:24Z</time>
      </trkpt>
      <trkpt lat="42.24902" lon="0.02651">
        <ele>881.2</ele>
        <time>2015-09-24T10:24:25Z</time>
      </trkpt>
      <trkpt lat="42.24906" lon="0.02651">
        <ele>881.7</ele>
        <time>2015-09-24T10:24:26Z</time>
      </trkpt>
      <trkpt lat="42.2491" lon="0.02651">
        <ele>882.2</ele>
        <time>2015-09-24T10:24:27Z</time>
      </trkpt>
      <trkpt lat="42.24914" lon="0.0265">
        <ele>882.8</ele>
        <time>2015-09-24T10:24:28Z</time>
      </trkpt>
      <trkpt lat="42.24918" lon="0.0265">
        <ele>883.4</ele>
        <time>2015-09-24T10:24:29Z</time>
      </trkpt>
      <trkpt lat="42.24922" lon="0.02649">
        <ele>883.9</ele>
        <time>2015-09-24T10:24:30Z</time>
      </trkpt>
      <trkpt lat="42.24926" lon="0.02649">
        <ele>884.5</ele>
        <time>2015-09-24T10:24:31Z</time>
      </trkpt>
      <trkpt lat="42.2493" lon="0.02649">
        <ele>885</ele>
        <time>2015-09-24T10:24:32Z</time>
      </trkpt>
      <trkpt lat="42.24934" lon="0.02648">
        <ele>885.6</ele>
        <time>2015-09-24T10:24:33Z</time>
      </trkpt>
      <trkpt lat="42.24938" lon="0.02648">
        <ele>886.1</ele>
        <time>2015-09-24T10:24:34Z</time>
      </trkpt>
      <trkpt lat="42.24942" lon="0.02648">
        <ele>886.7</ele>
        <time>2015-09-24T10:24:35Z</time>
      </trkpt>
      <trkpt lat="42.24946" lon="0.02647">
        <ele>887.2</ele>
        <time>2015-09-24T10:24:36Z</time>
      </trkpt>
      <trkpt lat="42.2495" lon="0.02647">
        <ele>887.8</ele>
        <time>2015-09-24T10:24:37Z</time>
      </trkpt>
      <trkpt lat="42.24954" lon="0.02646">
        <ele>888.3</ele>
        <time>2015-09-24T10:24:38Z</time>
      </trkpt>
      <trkpt lat="42.24958" lon="0.02646">
        <ele>888.8</ele>
        <time>2015-09-24T10:24:39Z</time>
      </trkpt>
      <trkpt lat="42.24962" lon="0.02646">
        <ele>889.2</ele>
        <time>2015-09-24T10:24:40Z</time>
      </trkpt>
      <trkpt lat="42.24966" lon="0.02647">
        <ele>889.5</ele>
        <time>2015-09-24T10:24:41Z</time>
      </trkpt>
      <trkpt lat="42.2497" lon="0.02648">
        <ele>889.7</ele>
        <time>2015-09-24T10:24:42Z</time>
      </trkpt>
      <trkpt lat="42.24974" lon="0.0265">
        <ele>889.8</ele>
        <time>2015-09-24T10:24:43Z</time>
      </trkpt>
      <trkpt lat="42.24978" lon="0.02653">
        <ele>889.7</ele>
        <time>2015-09-24T10:24:44Z</time>
      </trkpt>
      <trkpt lat="42.24982" lon="0.02656">
        <ele>889.4</ele>
        <time>2015-09-24T10:24:45Z</time>
      </trkpt>
      <trkpt lat="42.24985" lon="0.02659">
        <ele>889.1</ele>
        <time>2015-09-24T10:24:46Z</time>
      </trkpt>
      <trkpt lat="42.24988" lon="0.02663">
        <ele>888.8</ele>
        <time>2015-09-24T10:24:47Z</time>
      </trkpt>
      <trkpt lat="42.24992" lon="0.02667">
        <ele>888.4</ele>
        <time>2015-09-24T10:24:48Z</time>
      </trkpt>
      <trkpt lat="42.24995" lon="0.0267">
        <ele>888.1</ele>
        <time>2015-09-24T10:24:49Z</time>
      </trkpt>
      <trkpt lat="42.24998" lon="0.02673">
        <ele>887.8</ele>
        <time>2015-09-24T10:24:50Z</time>
      </trkpt>
      <trkpt lat="42.25001" lon="0.02677">
        <ele>887.5</ele>
        <time>2015-09-24T10:24:51Z</time>
      </trkpt>
      <trkpt lat="42.25005" lon="0.0268">
        <ele>887.2</ele>
        <time>2015-09-24T10:24:52Z</time>
      </trkpt>
      <trkpt lat="42.25008" lon="0.02684">
        <ele>887</ele>
        <time>2015-09-24T10:24:53Z</time>
      </trkpt>
      <trkpt lat="42.25011" lon="0.02686">
        <ele>886.8</ele>
        <time>2015-09-24T10:24:54Z</time>
      </trkpt>
      <trkpt lat="42.25015" lon="0.02689">
        <ele>886.7</ele>
        <time>2015-09-24T10:24:55Z</time>
      </trkpt>
      <trkpt lat="42.25019" lon="0.02692">
        <ele>886.6</ele>
        <time>2015-09-24T10:24:56Z</time>
      </trkpt>
      <trkpt lat="42.25023" lon="0.02694">
        <ele>886.6</ele>
        <time>2015-09-24T10:24:57Z</time>
      </trkpt>
      <trkpt lat="42.25027" lon="0.02695">
        <ele>886.7</ele>
        <time>2015-09-24T10:24:58Z</time>
      </trkpt>
      <trkpt lat="42.25031" lon="0.02697">
        <ele>886.8</ele>
        <time>2015-09-24T10:24:59Z</time>
      </trkpt>
      <trkpt lat="42.25035" lon="0.02699">
        <ele>887</ele>
        <time>2015-09-24T10:25:00Z</time>
      </trkpt>
      <trkpt lat="42.25039" lon="0.027">
        <ele>887.1</ele>
        <time>2015-09-24T10:25:01Z</time>
      </trkpt>
      <trkpt lat="42.25042" lon="0.02702">
        <ele>887.3</ele>
        <time>2015-09-24T10:25:02Z</time>
      </trkpt>
      <trkpt lat="42.25046" lon="0.02703">
        <ele>887.6</ele>
        <time>2015-09-24T10:25:03Z</time>
      </trkpt>
      <trkpt lat="42.2505" lon="0.02705">
        <ele>887.8</ele>
        <time>2015-09-24T10:25:04Z</time>
      </trkpt>
      <trkpt lat="42.25054" lon="0.02707">
        <ele>888.1</ele>
        <time>2015-09-24T10:25:05Z</time>
      </trkpt>
      <trkpt lat="42.25058" lon="0.02708">
        <ele>888.4</ele>
        <time>2015-09-24T10:25:06Z</time>
      </trkpt>
      <trkpt lat="42.25062" lon="0.02709">
        <ele>888.7</ele>
        <time>2015-09-24T10:25:07Z</time>
      </trkpt>
      <trkpt lat="42.25065" lon="0.0271">
        <ele>889.2</ele>
        <time>2015-09-24T10:25:08Z</time>
      </trkpt>
      <trkpt lat="42.25069" lon="0.02711">
        <ele>889.6</ele>
        <time>2015-09-24T10:25:09Z</time>
      </trkpt>
      <trkpt lat="42.25073" lon="0.02712">
        <ele>890</ele>
        <time>2015-09-24T10:25:10Z</time>
      </trkpt>
      <trkpt lat="42.25077" lon="0.02713">
        <ele>890.5</ele>
        <time>2015-09-24T10:25:11Z</time>
      </trkpt>
      <trkpt lat="42.25081" lon="0.02714">
        <ele>891</ele>
        <time>2015-09-24T10:25:12Z</time>
      </trkpt>
      <trkpt lat="42.25085" lon="0.02714">
        <ele>891.5</ele>
        <time>2015-09-24T10:25:13Z</time>
      </trkpt>
      <trkpt lat="42.25089" lon="0.02714">
        <ele>891.9</ele>
        <time>2015-09-24T10:25:14Z</time>
      </trkpt>
      <trkpt lat="42.25093" lon="0.02715">
        <ele>892.4</ele>
        <time>2015-09-24T10:25:15Z</time>
      </trkpt>
      <trkpt lat="42.25097" lon="0.02716">
        <ele>892.9</ele>
        <time>2015-09-24T10:25:16Z</time>
      </trkpt>
      <trkpt lat="42.25101" lon="0.02716">
        <ele>893.3</ele>
        <time>2015-09-24T10:25:17Z</time>
      </trkpt>
      <trkpt lat="42.25104" lon="0.02717">
        <ele>893.8</ele>
        <time>2015-09-24T10:25:18Z</time>
      </trkpt>
      <trkpt lat="42.25108" lon="0.02717">
        <ele>894.2</ele>
        <time>2015-09-24T10:25:19Z</time>
      </trkpt>
      <trkpt lat="42.25111" lon="0.02717">
        <ele>894.7</ele>
        <time>2015-09-24T10:25:20Z</time>
      </trkpt>
      <trkpt lat="42.25115" lon="0.02717">
        <ele>895.1</ele>
        <time>2015-09-24T10:25:21Z</time>
      </trkpt>
      <trkpt lat="42.25118" lon="0.02717">
        <ele>895.5</ele>
        <time>2015-09-24T10:25:22Z</time>
      </trkpt>
      <trkpt lat="42.25121" lon="0.02718">
        <ele>895.9</ele>
        <time>2015-09-24T10:25:23Z</time>
      </trkpt>
      <trkpt lat="42.25125" lon="0.02718">
        <ele>896.3</ele>
        <time>2015-09-24T10:25:24Z</time>
      </trkpt>
      <trkpt lat="42.25128" lon="0.02718">
        <ele>896.5</ele>
        <time>2015-09-24T10:25:25Z</time>
      </trkpt>
      <trkpt lat="42.25131" lon="0.02719">
        <ele>896.7</ele>
        <time>2015-09-24T10:25:26Z</time>
      </trkpt>
      <trkpt lat="42.25134" lon="0.02719">
        <ele>896.9</ele>
        <time>2015-09-24T10:25:27Z</time>
      </trkpt>
      <trkpt lat="42.25137" lon="0.0272">
        <ele>897</ele>
        <time>2015-09-24T10:25:28Z</time>
      </trkpt>
      <trkpt lat="42.2514" lon="0.0272">
        <ele>897.2</ele>
        <time>2015-09-24T10:25:29Z</time>
      </trkpt>
      <trkpt lat="42.25142" lon="0.02721">
        <ele>897.3</ele>
        <time>2015-09-24T10:25:30Z</time>
      </trkpt>
      <trkpt lat="42.25146" lon="0.02721">
        <ele>897.5</ele>
        <time>2015-09-24T10:25:31Z</time>
      </trkpt>
      <trkpt lat="42.25149" lon="0.02721">
        <ele>897.7</ele>
        <time>2015-09-24T10:25:32Z</time>
      </trkpt>
      <trkpt lat="42.25152" lon="0.02722">
        <ele>898</ele>
        <time>2015-09-24T10:25:33Z</time>
      </trkpt>
      <trkpt lat="42.25155" lon="0.02722">
        <ele>898.2</ele>
        <time>2015-09-24T10:25:34Z</time>
      </trkpt>
      <trkpt lat="42.25158" lon="0.02722">
        <ele>898.4</ele>
        <time>2015-09-24T10:25:35Z</time>
      </trkpt>
      <trkpt lat="42.25161" lon="0.02722">
        <ele>898.7</ele>
        <time>2015-09-24T10:25:36Z</time>
      </trkpt>
      <trkpt lat="42.25164" lon="0.02721">
        <ele>899</ele>
        <time>2015-09-24T10:25:37Z</time>
      </trkpt>
      <trkpt lat="42.25167" lon="0.02721">
        <ele>899.4</ele>
        <time>2015-09-24T10:25:38Z</time>
      </trkpt>
      <trkpt lat="42.2517" lon="0.0272">
        <ele>899.8</ele>
        <time>2015-09-24T10:25:39Z</time>
      </trkpt>
      <trkpt lat="42.25173" lon="0.02719">
        <ele>900.2</ele>
        <time>2015-09-24T10:25:40Z</time>
      </trkpt>
      <trkpt lat="42.25175" lon="0.02718">
        <ele>900.6</ele>
        <time>2015-09-24T10:25:41Z</time>
      </trkpt>
      <trkpt lat="42.25178" lon="0.02717">
        <ele>901</ele>
        <time>2015-09-24T10:25:42Z</time>
      </trkpt>
      <trkpt lat="42.25181" lon="0.02716">
        <ele>901.5</ele>
        <time>2015-09-24T10:25:43Z</time>
      </trkpt>
      <trkpt lat="42.25184" lon="0.02714">
        <ele>901.9</ele>
        <time>2015-09-24T10:25:44Z</time>
      </trkpt>
      <trkpt lat="42.25187" lon="0.02713">
        <ele>902.4</ele>
        <time>2015-09-24T10:25:45Z</time>
      </trkpt>
      <trkpt lat="42.2519" lon="0.02712">
        <ele>902.8</ele>
        <time>2015-09-24T10:25:46Z</time>
      </trkpt>
      <trkpt lat="42.25193" lon="0.0271">
        <ele>903.3</ele>
        <time>2015-09-24T10:25:47Z</time>
      </trkpt>
      <trkpt lat="42.25196" lon="0.02709">
        <ele>903.8</ele>
        <time>2015-09-24T10:25:48Z</time>
      </trkpt>
      <trkpt lat="42.25198" lon="0.02707">
        <ele>904.4</ele>
        <time>2015-09-24T10:25:49Z</time>
      </trkpt>
      <trkpt lat="42.25201" lon="0.02705">
        <ele>905</ele>
        <time>2015-09-24T10:25:50Z</time>
      </trkpt>
      <trkpt lat="42.25204" lon="0.02703">
        <ele>905.7</ele>
        <time>2015-09-24T10:25:51Z</time>
      </trkpt>
      <trkpt lat="42.25207" lon="0.02701">
        <ele>906.4</ele>
        <time>2015-09-24T10:25:52Z</time>
      </trkpt>
      <trkpt lat="42.25209" lon="0.02698">
        <ele>907</ele>
        <time>2015-09-24T10:25:53Z</time>
      </trkpt>
      <trkpt lat="42.25212" lon="0.02696">
        <ele>907.4</ele>
        <time>2015-09-24T10:25:54Z</time>
      </trkpt>
      <trkpt lat="42.25214" lon="0.02693">
        <ele>907.9</ele>
        <time>2015-09-24T10:25:55Z</time>
      </trkpt>
      <trkpt lat="42.25216" lon="0.02691">
        <ele>908.3</ele>
        <time>2015-09-24T10:25:56Z</time>
      </trkpt>
      <trkpt lat="42.25221" lon="0.02687">
        <ele>909</ele>
        <time>2015-09-24T10:25:58Z</time>
      </trkpt>
      <trkpt lat="42.25223" lon="0.02684">
        <ele>909.4</ele>
        <time>2015-09-24T10:25:59Z</time>
      </trkpt>
      <trkpt lat="42.25225" lon="0.02682">
        <ele>909.8</ele>
        <time>2015-09-24T10:26:00Z</time>
      </trkpt>
      <trkpt lat="42.25228" lon="0.0268">
        <ele>910.2</ele>
        <time>2015-09-24T10:26:01Z</time>
      </trkpt>
      <trkpt lat="42.2523" lon="0.02678">
        <ele>910.6</ele>
        <time>2015-09-24T10:26:02Z</time>
      </trkpt>
      <trkpt lat="42.25232" lon="0.02675">
        <ele>911</ele>
        <time>2015-09-24T10:26:03Z</time>
      </trkpt>
      <trkpt lat="42.25234" lon="0.02672">
        <ele>911.6</ele>
        <time>2015-09-24T10:26:04Z</time>
      </trkpt>
      <trkpt lat="42.25236" lon="0.02669">
        <ele>912.1</ele>
        <time>2015-09-24T10:26:05Z</time>
      </trkpt>
      <trkpt lat="42.2524" lon="0.02664">
        <ele>913.2</ele>
        <time>2015-09-24T10:26:07Z</time>
      </trkpt>
      <trkpt lat="42.25242" lon="0.02662">
        <ele>913.6</ele>
        <time>2015-09-24T10:26:08Z</time>
      </trkpt>
      <trkpt lat="42.25244" lon="0.0266">
        <ele>913.9</ele>
        <time>2015-09-24T10:26:09Z</time>
      </trkpt>
      <trkpt lat="42.25246" lon="0.02657">
        <ele>914.3</ele>
        <time>2015-09-24T10:26:10Z</time>
      </trkpt>
      <trkpt lat="42.25249" lon="0.02655">
        <ele>914.8</ele>
        <time>2015-09-24T10:26:11Z</time>
      </trkpt>
      <trkpt lat="42.2525" lon="0.02652">
        <ele>915.4</ele>
        <time>2015-09-24T10:26:12Z</time>
      </trkpt>
      <trkpt lat="42.25252" lon="0.02649">
        <ele>916</ele>
        <time>2015-09-24T10:26:13Z</time>
      </trkpt>
      <trkpt lat="42.25254" lon="0.02646">
        <ele>916.5</ele>
        <time>2015-09-24T10:26:14Z</time>
      </trkpt>
      <trkpt lat="42.25256" lon="0.02643">
        <ele>917</ele>
        <time>2015-09-24T10:26:15Z</time>
      </trkpt>
      <trkpt lat="42.25258" lon="0.02641">
        <ele>917.5</ele>
        <time>2015-09-24T10:26:16Z</time>
      </trkpt>
      <trkpt lat="42.2526" lon="0.02638">
        <ele>918</ele>
        <time>2015-09-24T10:26:17Z</time>
      </trkpt>
      <trkpt lat="42.25264" lon="0.02633">
        <ele>918.9</ele>
        <time>2015-09-24T10:26:19Z</time>
      </trkpt>
      <trkpt lat="42.25267" lon="0.02631">
        <ele>919.4</ele>
        <time>2015-09-24T10:26:20Z</time>
      </trkpt>
      <trkpt lat="42.25269" lon="0.02628">
        <ele>919.9</ele>
        <time>2015-09-24T10:26:21Z</time>
      </trkpt>
      <trkpt lat="42.25273" lon="0.02624">
        <ele>920.7</ele>
        <time>2015-09-24T10:26:23Z</time>
      </trkpt>
      <trkpt lat="42.25276" lon="0.02619">
        <ele>921.6</ele>
        <time>2015-09-24T10:26:25Z</time>
      </trkpt>
      <trkpt lat="42.2528" lon="0.02614">
        <ele>922.5</ele>
        <time>2015-09-24T10:26:27Z</time>
      </trkpt>
      <trkpt lat="42.25284" lon="0.02609">
        <ele>923.3</ele>
        <time>2015-09-24T10:26:29Z</time>
      </trkpt>
      <trkpt lat="42.25288" lon="0.02604">
        <ele>924.2</ele>
        <time>2015-09-24T10:26:31Z</time>
      </trkpt>
      <trkpt lat="42.25292" lon="0.026">
        <ele>925</ele>
        <time>2015-09-24T10:26:33Z</time>
      </trkpt>
      <trkpt lat="42.25297" lon="0.02596">
        <ele>925.2</ele>
        <time>2015-09-24T10:26:35Z</time>
      </trkpt>
      <trkpt lat="42.25301" lon="0.02593">
        <ele>925.4</ele>
        <time>2015-09-24T10:26:37Z</time>
      </trkpt>
      <trkpt lat="42.25305" lon="0.02589">
        <ele>925.5</ele>
        <time>2015-09-24T10:26:39Z</time>
      </trkpt>
      <trkpt lat="42.2531" lon="0.02585">
        <ele>925.6</ele>
        <time>2015-09-24T10:26:41Z</time>
      </trkpt>
      <trkpt lat="42.25315" lon="0.02582">
        <ele>925.5</ele>
        <time>2015-09-24T10:26:43Z</time>
      </trkpt>
      <trkpt lat="42.25319" lon="0.02579">
        <ele>925.4</ele>
        <time>2015-09-24T10:26:45Z</time>
      </trkpt>
      <trkpt lat="42.25324" lon="0.02576">
        <ele>925.4</ele>
        <time>2015-09-24T10:26:47Z</time>
      </trkpt>
      <trkpt lat="42.25329" lon="0.02573">
        <ele>925.2</ele>
        <time>2015-09-24T10:26:49Z</time>
      </trkpt>
      <trkpt lat="42.25334" lon="0.0257">
        <ele>925.1</ele>
        <time>2015-09-24T10:26:51Z</time>
      </trkpt>
      <trkpt lat="42.25338" lon="0.02568">
        <ele>925</ele>
        <time>2015-09-24T10:26:53Z</time>
      </trkpt>
      <trkpt lat="42.25343" lon="0.02564">
        <ele>925</ele>
        <time>2015-09-24T10:26:55Z</time>
      </trkpt>
      <trkpt lat="42.25346" lon="0.0256">
        <ele>925.2</ele>
        <time>2015-09-24T10:26:57Z</time>
      </trkpt>
      <trkpt lat="42.25351" lon="0.02555">
        <ele>925.4</ele>
        <time>2015-09-24T10:26:59Z</time>
      </trkpt>
      <trkpt lat="42.25355" lon="0.02552">
        <ele>925.4</ele>
        <time>2015-09-24T10:27:01Z</time>
      </trkpt>
      <trkpt lat="42.25359" lon="0.02547">
        <ele>925.5</ele>
        <time>2015-09-24T10:27:03Z</time>
      </trkpt>
      <trkpt lat="42.25363" lon="0.02542">
        <ele>925.9</ele>
        <time>2015-09-24T10:27:05Z</time>
      </trkpt>
      <trkpt lat="42.25366" lon="0.02536">
        <ele>925.8</ele>
        <time>2015-09-24T10:27:07Z</time>
      </trkpt>
      <trkpt lat="42.25368" lon="0.02533">
        <ele>925.8</ele>
        <time>2015-09-24T10:27:08Z</time>
      </trkpt>
      <trkpt lat="42.25369" lon="0.0253">
        <ele>925.9</ele>
        <time>2015-09-24T10:27:09Z</time>
      </trkpt>
      <trkpt lat="42.25371" lon="0.02526">
        <ele>926</ele>
        <time>2015-09-24T10:27:10Z</time>
      </trkpt>
      <trkpt lat="42.25372" lon="0.02523">
        <ele>926.1</ele>
        <time>2015-09-24T10:27:11Z</time>
      </trkpt>
      <trkpt lat="42.25373" lon="0.02519">
        <ele>926.2</ele>
        <time>2015-09-24T10:27:12Z</time>
      </trkpt>
      <trkpt lat="42.25375" lon="0.02515">
        <ele>926.2</ele>
        <time>2015-09-24T10:27:13Z</time>
      </trkpt>
      <trkpt lat="42.25376" lon="0.02512">
        <ele>926.5</ele>
        <time>2015-09-24T10:27:14Z</time>
      </trkpt>
      <trkpt lat="42.25378" lon="0.02507">
        <ele>926.8</ele>
        <time>2015-09-24T10:27:15Z</time>
      </trkpt>
      <trkpt lat="42.25379" lon="0.02503">
        <ele>927.1</ele>
        <time>2015-09-24T10:27:16Z</time>
      </trkpt>
      <trkpt lat="42.25381" lon="0.02499">
        <ele>927.4</ele>
        <time>2015-09-24T10:27:17Z</time>
      </trkpt>
      <trkpt lat="42.25383" lon="0.02495">
        <ele>927.7</ele>
        <time>2015-09-24T10:27:18Z</time>
      </trkpt>
      <trkpt lat="42.25385" lon="0.02491">
        <ele>927.9</ele>
        <time>2015-09-24T10:27:19Z</time>
      </trkpt>
      <trkpt lat="42.25389" lon="0.02488">
        <ele>928.2</ele>
        <time>2015-09-24T10:27:20Z</time>
      </trkpt>
      <trkpt lat="42.25392" lon="0.02486">
        <ele>928.3</ele>
        <time>2015-09-24T10:27:21Z</time>
      </trkpt>
      <trkpt lat="42.25396" lon="0.02484">
        <ele>928.4</ele>
        <time>2015-09-24T10:27:22Z</time>
      </trkpt>
      <trkpt lat="42.254" lon="0.02484">
        <ele>928.3</ele>
        <time>2015-09-24T10:27:23Z</time>
      </trkpt>
      <trkpt lat="42.25404" lon="0.02485">
        <ele>928.2</ele>
        <time>2015-09-24T10:27:24Z</time>
      </trkpt>
      <trkpt lat="42.25407" lon="0.02486">
        <ele>928</ele>
        <time>2015-09-24T10:27:25Z</time>
      </trkpt>
      <trkpt lat="42.25411" lon="0.02487">
        <ele>927.7</ele>
        <time>2015-09-24T10:27:26Z</time>
      </trkpt>
      <trkpt lat="42.25415" lon="0.02489">
        <ele>927.4</ele>
        <time>2015-09-24T10:27:27Z</time>
      </trkpt>
      <trkpt lat="42.25418" lon="0.02491">
        <ele>927</ele>
        <time>2015-09-24T10:27:28Z</time>
      </trkpt>
      <trkpt lat="42.25421" lon="0.02494">
        <ele>926.6</ele>
        <time>2015-09-24T10:27:29Z</time>
      </trkpt>
      <trkpt lat="42.25425" lon="0.02497">
        <ele>926.2</ele>
        <time>2015-09-24T10:27:30Z</time>
      </trkpt>
      <trkpt lat="42.25428" lon="0.02499">
        <ele>925.7</ele>
        <time>2015-09-24T10:27:31Z</time>
      </trkpt>
      <trkpt lat="42.25431" lon="0.02501">
        <ele>925.3</ele>
        <time>2015-09-24T10:27:32Z</time>
      </trkpt>
      <trkpt lat="42.25435" lon="0.02503">
        <ele>924.9</ele>
        <time>2015-09-24T10:27:33Z</time>
      </trkpt>
      <trkpt lat="42.25438" lon="0.02506">
        <ele>924.5</ele>
        <time>2015-09-24T10:27:34Z</time>
      </trkpt>
      <trkpt lat="42.25442" lon="0.02507">
        <ele>924</ele>
        <time>2015-09-24T10:27:35Z</time>
      </trkpt>
      <trkpt lat="42.25445" lon="0.02509">
        <ele>923.6</ele>
        <time>2015-09-24T10:27:36Z</time>
      </trkpt>
      <trkpt lat="42.25449" lon="0.02511">
        <ele>923.3</ele>
        <time>2015-09-24T10:27:37Z</time>
      </trkpt>
      <trkpt lat="42.25452" lon="0.02512">
        <ele>922.9</ele>
        <time>2015-09-24T10:27:38Z</time>
      </trkpt>
      <trkpt lat="42.25456" lon="0.02514">
        <ele>922.5</ele>
        <time>2015-09-24T10:27:39Z</time>
      </trkpt>
      <trkpt lat="42.2546" lon="0.02515">
        <ele>922.3</ele>
        <time>2015-09-24T10:27:40Z</time>
      </trkpt>
      <trkpt lat="42.25463" lon="0.02517">
        <ele>922.6</ele>
        <time>2015-09-24T10:27:41Z</time>
      </trkpt>
      <trkpt lat="42.25466" lon="0.02519">
        <ele>922.9</ele>
        <time>2015-09-24T10:27:42Z</time>
      </trkpt>
      <trkpt lat="42.2547" lon="0.0252">
        <ele>923.1</ele>
        <time>2015-09-24T10:27:43Z</time>
      </trkpt>
      <trkpt lat="42.25473" lon="0.02522">
        <ele>923.4</ele>
        <time>2015-09-24T10:27:44Z</time>
      </trkpt>
      <trkpt lat="42.25477" lon="0.02524">
        <ele>923.6</ele>
        <time>2015-09-24T10:27:45Z</time>
      </trkpt>
      <trkpt lat="42.2548" lon="0.02526">
        <ele>923.8</ele>
        <time>2015-09-24T10:27:46Z</time>
      </trkpt>
      <trkpt lat="42.25483" lon="0.02527">
        <ele>924</ele>
        <time>2015-09-24T10:27:47Z</time>
      </trkpt>
      <trkpt lat="42.25486" lon="0.02529">
        <ele>924.2</ele>
        <time>2015-09-24T10:27:48Z</time>
      </trkpt>
      <trkpt lat="42.2549" lon="0.0253">
        <ele>924.4</ele>
        <time>2015-09-24T10:27:49Z</time>
      </trkpt>
      <trkpt lat="42.25493" lon="0.02532">
        <ele>924.5</ele>
        <time>2015-09-24T10:27:50Z</time>
      </trkpt>
      <trkpt lat="42.25496" lon="0.02534">
        <ele>924.6</ele>
        <time>2015-09-24T10:27:51Z</time>
      </trkpt>
      <trkpt lat="42.25499" lon="0.02535">
        <ele>924.7</ele>
        <time>2015-09-24T10:27:52Z</time>
      </trkpt>
      <trkpt lat="42.25502" lon="0.02537">
        <ele>924.9</ele>
        <time>2015-09-24T10:27:53Z</time>
      </trkpt>
      <trkpt lat="42.25505" lon="0.02538">
        <ele>925</ele>
        <time>2015-09-24T10:27:54Z</time>
      </trkpt>
      <trkpt lat="42.25508" lon="0.0254">
        <ele>925</ele>
        <time>2015-09-24T10:27:55Z</time>
      </trkpt>
      <trkpt lat="42.25511" lon="0.02541">
        <ele>925.1</ele>
        <time>2015-09-24T10:27:56Z</time>
      </trkpt>
      <trkpt lat="42.25514" lon="0.02542">
        <ele>925.3</ele>
        <time>2015-09-24T10:27:57Z</time>
      </trkpt>
      <trkpt lat="42.25516" lon="0.02543">
        <ele>925.5</ele>
        <time>2015-09-24T10:27:58Z</time>
      </trkpt>
      <trkpt lat="42.25519" lon="0.02544">
        <ele>925.8</ele>
        <time>2015-09-24T10:27:59Z</time>
      </trkpt>
      <trkpt lat="42.25522" lon="0.02544">
        <ele>926.1</ele>
        <time>2015-09-24T10:28:00Z</time>
      </trkpt>
      <trkpt lat="42.25525" lon="0.02544">
        <ele>926.5</ele>
        <time>2015-09-24T10:28:01Z</time>
      </trkpt>
      <trkpt lat="42.25528" lon="0.02544">
        <ele>926.9</ele>
        <time>2015-09-24T10:28:02Z</time>
      </trkpt>
      <trkpt lat="42.25531" lon="0.02543">
        <ele>927.4</ele>
        <time>2015-09-24T10:28:03Z</time>
      </trkpt>
      <trkpt lat="42.25534" lon="0.02542">
        <ele>927.9</ele>
        <time>2015-09-24T10:28:04Z</time>
      </trkpt>
      <trkpt lat="42.25537" lon="0.02541">
        <ele>928.5</ele>
        <time>2015-09-24T10:28:05Z</time>
      </trkpt>
      <trkpt lat="42.2554" lon="0.0254">
        <ele>929.2</ele>
        <time>2015-09-24T10:28:06Z</time>
      </trkpt>
      <trkpt lat="42.25543" lon="0.02539">
        <ele>929.9</ele>
        <time>2015-09-24T10:28:07Z</time>
      </trkpt>
      <trkpt lat="42.25546" lon="0.02537">
        <ele>930.6</ele>
        <time>2015-09-24T10:28:08Z</time>
      </trkpt>
      <trkpt lat="42.25549" lon="0.02536">
        <ele>931.3</ele>
        <time>2015-09-24T10:28:09Z</time>
      </trkpt>
      <trkpt lat="42.25552" lon="0.02534">
        <ele>931.9</ele>
        <time>2015-09-24T10:28:10Z</time>
      </trkpt>
      <trkpt lat="42.25555" lon="0.02533">
        <ele>932.6</ele>
        <time>2015-09-24T10:28:11Z</time>
      </trkpt>
      <trkpt lat="42.25558" lon="0.02531">
        <ele>933.3</ele>
        <time>2015-09-24T10:28:12Z</time>
      </trkpt>
      <trkpt lat="42.25561" lon="0.0253">
        <ele>933.9</ele>
        <time>2015-09-24T10:28:13Z</time>
      </trkpt>
      <trkpt lat="42.25563" lon="0.02529">
        <ele>934.5</ele>
        <time>2015-09-24T10:28:14Z</time>
      </trkpt>
      <trkpt lat="42.25566" lon="0.02527">
        <ele>935.2</ele>
        <time>2015-09-24T10:28:15Z</time>
      </trkpt>
      <trkpt lat="42.25569" lon="0.02526">
        <ele>935.8</ele>
        <time>2015-09-24T10:28:16Z</time>
      </trkpt>
      <trkpt lat="42.25572" lon="0.02525">
        <ele>936.5</ele>
        <time>2015-09-24T10:28:17Z</time>
      </trkpt>
      <trkpt lat="42.25575" lon="0.02523">
        <ele>937.2</ele>
        <time>2015-09-24T10:28:18Z</time>
      </trkpt>
      <trkpt lat="42.25578" lon="0.02522">
        <ele>937.8</ele>
        <time>2015-09-24T10:28:19Z</time>
      </trkpt>
      <trkpt lat="42.2558" lon="0.02521">
        <ele>938.3</ele>
        <time>2015-09-24T10:28:20Z</time>
      </trkpt>
      <trkpt lat="42.25583" lon="0.02521">
        <ele>938.7</ele>
        <time>2015-09-24T10:28:21Z</time>
      </trkpt>
      <trkpt lat="42.25586" lon="0.0252">
        <ele>939.2</ele>
        <time>2015-09-24T10:28:22Z</time>
      </trkpt>
      <trkpt lat="42.25589" lon="0.02519">
        <ele>939.8</ele>
        <time>2015-09-24T10:28:23Z</time>
      </trkpt>
      <trkpt lat="42.25592" lon="0.02518">
        <ele>940.5</ele>
        <time>2015-09-24T10:28:24Z</time>
      </trkpt>
      <trkpt lat="42.25594" lon="0.02517">
        <ele>941.2</ele>
        <time>2015-09-24T10:28:25Z</time>
      </trkpt>
      <trkpt lat="42.25597" lon="0.02515">
        <ele>941.8</ele>
        <time>2015-09-24T10:28:26Z</time>
      </trkpt>
      <trkpt lat="42.256" lon="0.02515">
        <ele>942.4</ele>
        <time>2015-09-24T10:28:27Z</time>
      </trkpt>
      <trkpt lat="42.25603" lon="0.02515">
        <ele>942.7</ele>
        <time>2015-09-24T10:28:28Z</time>
      </trkpt>
      <trkpt lat="42.25605" lon="0.02515">
        <ele>942.9</ele>
        <time>2015-09-24T10:28:29Z</time>
      </trkpt>
      <trkpt lat="42.25608" lon="0.02516">
        <ele>942.9</ele>
        <time>2015-09-24T10:28:30Z</time>
      </trkpt>
      <trkpt lat="42.25611" lon="0.02518">
        <ele>942.6</ele>
        <time>2015-09-24T10:28:31Z</time>
      </trkpt>
      <trkpt lat="42.25613" lon="0.0252">
        <ele>942.1</ele>
        <time>2015-09-24T10:28:32Z</time>
      </trkpt>
      <trkpt lat="42.25615" lon="0.02523">
        <ele>941.3</ele>
        <time>2015-09-24T10:28:33Z</time>
      </trkpt>
      <trkpt lat="42.25617" lon="0.02527">
        <ele>940.3</ele>
        <time>2015-09-24T10:28:34Z</time>
      </trkpt>
      <trkpt lat="42.25617" lon="0.02531">
        <ele>939</ele>
        <time>2015-09-24T10:28:35Z</time>
      </trkpt>
      <trkpt lat="42.25618" lon="0.02535">
        <ele>937.7</ele>
        <time>2015-09-24T10:28:36Z</time>
      </trkpt>
      <trkpt lat="42.25618" lon="0.02539">
        <ele>936.4</ele>
        <time>2015-09-24T10:28:37Z</time>
      </trkpt>
      <trkpt lat="42.25617" lon="0.02542">
        <ele>935.3</ele>
        <time>2015-09-24T10:28:38Z</time>
      </trkpt>
      <trkpt lat="42.25615" lon="0.02546">
        <ele>935</ele>
        <time>2015-09-24T10:28:39Z</time>
      </trkpt>
      <trkpt lat="42.25613" lon="0.02549">
        <ele>934.7</ele>
        <time>2015-09-24T10:28:40Z</time>
      </trkpt>
      <trkpt lat="42.2561" lon="0.02552">
        <ele>934.3</ele>
        <time>2015-09-24T10:28:41Z</time>
      </trkpt>
      <trkpt lat="42.25607" lon="0.02554">
        <ele>933.9</ele>
        <time>2015-09-24T10:28:42Z</time>
      </trkpt>
      <trkpt lat="42.25604" lon="0.02557">
        <ele>933.4</ele>
        <time>2015-09-24T10:28:43Z</time>
      </trkpt>
      <trkpt lat="42.25601" lon="0.0256">
        <ele>933</ele>
        <time>2015-09-24T10:28:44Z</time>
      </trkpt>
      <trkpt lat="42.25598" lon="0.02562">
        <ele>932.5</ele>
        <time>2015-09-24T10:28:45Z</time>
      </trkpt>
      <trkpt lat="42.25595" lon="0.02564">
        <ele>932.1</ele>
        <time>2015-09-24T10:28:46Z</time>
      </trkpt>
      <trkpt lat="42.25592" lon="0.02567">
        <ele>931.6</ele>
        <time>2015-09-24T10:28:47Z</time>
      </trkpt>
      <trkpt lat="42.2559" lon="0.02569">
        <ele>931.2</ele>
        <time>2015-09-24T10:28:48Z</time>
      </trkpt>
      <trkpt lat="42.25588" lon="0.02571">
        <ele>930.8</ele>
        <time>2015-09-24T10:28:49Z</time>
      </trkpt>
      <trkpt lat="42.25584" lon="0.02576">
        <ele>929.9</ele>
        <time>2015-09-24T10:28:51Z</time>
      </trkpt>
      <trkpt lat="42.2558" lon="0.0258">
        <ele>929</ele>
        <time>2015-09-24T10:28:53Z</time>
      </trkpt>
      <trkpt lat="42.25576" lon="0.02585">
        <ele>928</ele>
        <time>2015-09-24T10:28:55Z</time>
      </trkpt>
      <trkpt lat="42.25572" lon="0.0259">
        <ele>927.1</ele>
        <time>2015-09-24T10:28:57Z</time>
      </trkpt>
      <trkpt lat="42.25568" lon="0.02595">
        <ele>926</ele>
        <time>2015-09-24T10:28:59Z</time>
      </trkpt>
      <trkpt lat="42.25565" lon="0.02601">
        <ele>925</ele>
        <time>2015-09-24T10:29:01Z</time>
      </trkpt>
      <trkpt lat="42.25562" lon="0.02606">
        <ele>923.9</ele>
        <time>2015-09-24T10:29:03Z</time>
      </trkpt>
      <trkpt lat="42.25559" lon="0.02612">
        <ele>922.8</ele>
        <time>2015-09-24T10:29:05Z</time>
      </trkpt>
      <trkpt lat="42.25557" lon="0.02618">
        <ele>921.7</ele>
        <time>2015-09-24T10:29:07Z</time>
      </trkpt>
      <trkpt lat="42.25555" lon="0.02624">
        <ele>920.7</ele>
        <time>2015-09-24T10:29:09Z</time>
      </trkpt>
      <trkpt lat="42.25552" lon="0.02629">
        <ele>920.6</ele>
        <time>2015-09-24T10:29:11Z</time>
      </trkpt>
      <trkpt lat="42.2555" lon="0.02635">
        <ele>920.8</ele>
        <time>2015-09-24T10:29:13Z</time>
      </trkpt>
      <trkpt lat="42.25548" lon="0.02641">
        <ele>921.1</ele>
        <time>2015-09-24T10:29:15Z</time>
      </trkpt>
      <trkpt lat="42.25546" lon="0.02646">
        <ele>921.4</ele>
        <time>2015-09-24T10:29:17Z</time>
      </trkpt>
      <trkpt lat="42.25545" lon="0.02652">
        <ele>921.9</ele>
        <time>2015-09-24T10:29:20Z</time>
      </trkpt>
      <trkpt lat="42.25544" lon="0.02657">
        <ele>922.2</ele>
        <time>2015-09-24T10:29:22Z</time>
      </trkpt>
      <trkpt lat="42.25542" lon="0.02662">
        <ele>922.4</ele>
        <time>2015-09-24T10:29:24Z</time>
      </trkpt>
      <trkpt lat="42.2554" lon="0.02667">
        <ele>922.9</ele>
        <time>2015-09-24T10:29:26Z</time>
      </trkpt>
      <trkpt lat="42.25538" lon="0.02673">
        <ele>923.4</ele>
        <time>2015-09-24T10:29:28Z</time>
      </trkpt>
      <trkpt lat="42.25537" lon="0.02679">
        <ele>924</ele>
        <time>2015-09-24T10:29:30Z</time>
      </trkpt>
      <trkpt lat="42.25536" lon="0.02686">
        <ele>924.7</ele>
        <time>2015-09-24T10:29:32Z</time>
      </trkpt>
      <trkpt lat="42.25535" lon="0.02693">
        <ele>925.4</ele>
        <time>2015-09-24T10:29:34Z</time>
      </trkpt>
      <trkpt lat="42.25535" lon="0.02699">
        <ele>926.1</ele>
        <time>2015-09-24T10:29:36Z</time>
      </trkpt>
      <trkpt lat="42.25535" lon="0.02706">
        <ele>926.9</ele>
        <time>2015-09-24T10:29:38Z</time>
      </trkpt>
      <trkpt lat="42.25535" lon="0.02712">
        <ele>927.6</ele>
        <time>2015-09-24T10:29:40Z</time>
      </trkpt>
      <trkpt lat="42.25535" lon="0.02719">
        <ele>928.2</ele>
        <time>2015-09-24T10:29:42Z</time>
      </trkpt>
      <trkpt lat="42.25535" lon="0.02726">
        <ele>928.8</ele>
        <time>2015-09-24T10:29:44Z</time>
      </trkpt>
      <trkpt lat="42.25535" lon="0.02733">
        <ele>929.4</ele>
        <time>2015-09-24T10:29:46Z</time>
      </trkpt>
      <trkpt lat="42.25537" lon="0.0274">
        <ele>930.1</ele>
        <time>2015-09-24T10:29:48Z</time>
      </trkpt>
      <trkpt lat="42.25538" lon="0.02746">
        <ele>930.9</ele>
        <time>2015-09-24T10:29:50Z</time>
      </trkpt>
      <trkpt lat="42.25539" lon="0.02753">
        <ele>931.6</ele>
        <time>2015-09-24T10:29:52Z</time>
      </trkpt>
      <trkpt lat="42.25541" lon="0.0276">
        <ele>932.2</ele>
        <time>2015-09-24T10:29:54Z</time>
      </trkpt>
      <trkpt lat="42.25542" lon="0.02767">
        <ele>932.9</ele>
        <time>2015-09-24T10:29:56Z</time>
      </trkpt>
      <trkpt lat="42.25544" lon="0.02773">
        <ele>933.8</ele>
        <time>2015-09-24T10:29:58Z</time>
      </trkpt>
      <trkpt lat="42.25545" lon="0.0278">
        <ele>934.8</ele>
        <time>2015-09-24T10:30:00Z</time>
      </trkpt>
      <trkpt lat="42.25547" lon="0.02786">
        <ele>935.7</ele>
        <time>2015-09-24T10:30:02Z</time>
      </trkpt>
      <trkpt lat="42.25549" lon="0.02793">
        <ele>936.5</ele>
        <time>2015-09-24T10:30:04Z</time>
      </trkpt>
      <trkpt lat="42.2555" lon="0.02799">
        <ele>937.2</ele>
        <time>2015-09-24T10:30:06Z</time>
      </trkpt>
      <trkpt lat="42.25552" lon="0.02806">
        <ele>937.9</ele>
        <time>2015-09-24T10:30:08Z</time>
      </trkpt>
      <trkpt lat="42.25553" lon="0.02813">
        <ele>938.6</ele>
        <time>2015-09-24T10:30:10Z</time>
      </trkpt>
      <trkpt lat="42.25554" lon="0.02816">
        <ele>939</ele>
        <time>2015-09-24T10:30:11Z</time>
      </trkpt>
      <trkpt lat="42.25555" lon="0.0282">
        <ele>939.3</ele>
        <time>2015-09-24T10:30:12Z</time>
      </trkpt>
      <trkpt lat="42.25555" lon="0.02823">
        <ele>939.7</ele>
        <time>2015-09-24T10:30:13Z</time>
      </trkpt>
      <trkpt lat="42.25556" lon="0.02828">
        <ele>940.1</ele>
        <time>2015-09-24T10:30:14Z</time>
      </trkpt>
      <trkpt lat="42.25557" lon="0.02832">
        <ele>940.5</ele>
        <time>2015-09-24T10:30:15Z</time>
      </trkpt>
      <trkpt lat="42.25558" lon="0.02836">
        <ele>940.9</ele>
        <time>2015-09-24T10:30:16Z</time>
      </trkpt>
      <trkpt lat="42.25559" lon="0.0284">
        <ele>941.3</ele>
        <time>2015-09-24T10:30:17Z</time>
      </trkpt>
      <trkpt lat="42.2556" lon="0.02844">
        <ele>941.7</ele>
        <time>2015-09-24T10:30:18Z</time>
      </trkpt>
      <trkpt lat="42.25561" lon="0.02848">
        <ele>942.1</ele>
        <time>2015-09-24T10:30:19Z</time>
      </trkpt>
      <trkpt lat="42.25562" lon="0.02852">
        <ele>942.5</ele>
        <time>2015-09-24T10:30:20Z</time>
      </trkpt>
      <trkpt lat="42.25563" lon="0.02857">
        <ele>942.9</ele>
        <time>2015-09-24T10:30:21Z</time>
      </trkpt>
      <trkpt lat="42.25564" lon="0.02861">
        <ele>943.2</ele>
        <time>2015-09-24T10:30:22Z</time>
      </trkpt>
      <trkpt lat="42.25566" lon="0.02865">
        <ele>943.6</ele>
        <time>2015-09-24T10:30:23Z</time>
      </trkpt>
      <trkpt lat="42.25567" lon="0.02869">
        <ele>944</ele>
        <time>2015-09-24T10:30:24Z</time>
      </trkpt>
      <trkpt lat="42.25568" lon="0.02873">
        <ele>944.3</ele>
        <time>2015-09-24T10:30:25Z</time>
      </trkpt>
      <trkpt lat="42.25569" lon="0.02877">
        <ele>944.6</ele>
        <time>2015-09-24T10:30:26Z</time>
      </trkpt>
      <trkpt lat="42.2557" lon="0.02881">
        <ele>944.7</ele>
        <time>2015-09-24T10:30:27Z</time>
      </trkpt>
      <trkpt lat="42.25571" lon="0.02885">
        <ele>944.8</ele>
        <time>2015-09-24T10:30:28Z</time>
      </trkpt>
      <trkpt lat="42.25573" lon="0.02889">
        <ele>945</ele>
        <time>2015-09-24T10:30:29Z</time>
      </trkpt>
      <trkpt lat="42.25575" lon="0.02892">
        <ele>945.1</ele>
        <time>2015-09-24T10:30:30Z</time>
      </trkpt>
      <trkpt lat="42.25577" lon="0.02896">
        <ele>945.3</ele>
        <time>2015-09-24T10:30:31Z</time>
      </trkpt>
      <trkpt lat="42.25579" lon="0.02899">
        <ele>945.4</ele>
        <time>2015-09-24T10:30:32Z</time>
      </trkpt>
      <trkpt lat="42.25581" lon="0.02902">
        <ele>945.6</ele>
        <time>2015-09-24T10:30:33Z</time>
      </trkpt>
      <trkpt lat="42.25583" lon="0.02905">
        <ele>945.7</ele>
        <time>2015-09-24T10:30:34Z</time>
      </trkpt>
      <trkpt lat="42.25585" lon="0.02908">
        <ele>945.9</ele>
        <time>2015-09-24T10:30:35Z</time>
      </trkpt>
      <trkpt lat="42.25588" lon="0.0291">
        <ele>946.1</ele>
        <time>2015-09-24T10:30:36Z</time>
      </trkpt>
      <trkpt lat="42.2559" lon="0.02913">
        <ele>946.2</ele>
        <time>2015-09-24T10:30:37Z</time>
      </trkpt>
      <trkpt lat="42.25593" lon="0.02915">
        <ele>946.4</ele>
        <time>2015-09-24T10:30:38Z</time>
      </trkpt>
      <trkpt lat="42.25595" lon="0.02917">
        <ele>946.5</ele>
        <time>2015-09-24T10:30:39Z</time>
      </trkpt>
      <trkpt lat="42.25598" lon="0.02919">
        <ele>946.6</ele>
        <time>2015-09-24T10:30:40Z</time>
      </trkpt>
      <trkpt lat="42.25601" lon="0.02921">
        <ele>946.8</ele>
        <time>2015-09-24T10:30:41Z</time>
      </trkpt>
      <trkpt lat="42.25603" lon="0.02923">
        <ele>946.9</ele>
        <time>2015-09-24T10:30:42Z</time>
      </trkpt>
      <trkpt lat="42.25606" lon="0.02924">
        <ele>947</ele>
        <time>2015-09-24T10:30:43Z</time>
      </trkpt>
      <trkpt lat="42.25609" lon="0.02926">
        <ele>947.2</ele>
        <time>2015-09-24T10:30:44Z</time>
      </trkpt>
      <trkpt lat="42.25612" lon="0.02926">
        <ele>947.3</ele>
        <time>2015-09-24T10:30:45Z</time>
      </trkpt>
      <trkpt lat="42.25615" lon="0.02927">
        <ele>947.5</ele>
        <time>2015-09-24T10:30:46Z</time>
      </trkpt>
      <trkpt lat="42.25618" lon="0.02927">
        <ele>947.7</ele>
        <time>2015-09-24T10:30:47Z</time>
      </trkpt>
      <trkpt lat="42.2562" lon="0.02927">
        <ele>947.9</ele>
        <time>2015-09-24T10:30:48Z</time>
      </trkpt>
      <trkpt lat="42.25625" lon="0.02925">
        <ele>948.4</ele>
        <time>2015-09-24T10:30:50Z</time>
      </trkpt>
      <trkpt lat="42.25628" lon="0.02923">
        <ele>948.7</ele>
        <time>2015-09-24T10:30:51Z</time>
      </trkpt>
      <trkpt lat="42.25632" lon="0.02918">
        <ele>949.4</ele>
        <time>2015-09-24T10:30:53Z</time>
      </trkpt>
      <trkpt lat="42.25636" lon="0.02914">
        <ele>950</ele>
        <time>2015-09-24T10:30:55Z</time>
      </trkpt>
      <trkpt lat="42.25639" lon="0.02909">
        <ele>950.6</ele>
        <time>2015-09-24T10:30:57Z</time>
      </trkpt>
      <trkpt lat="42.25642" lon="0.02904">
        <ele>951.3</ele>
        <time>2015-09-24T10:30:59Z</time>
      </trkpt>
      <trkpt lat="42.25646" lon="0.02899">
        <ele>951.9</ele>
        <time>2015-09-24T10:31:01Z</time>
      </trkpt>
      <trkpt lat="42.25649" lon="0.02894">
        <ele>952.5</ele>
        <time>2015-09-24T10:31:03Z</time>
      </trkpt>
      <trkpt lat="42.25652" lon="0.02889">
        <ele>953.2</ele>
        <time>2015-09-24T10:31:05Z</time>
      </trkpt>
      <trkpt lat="42.25655" lon="0.02884">
        <ele>953.8</ele>
        <time>2015-09-24T10:31:07Z</time>
      </trkpt>
      <trkpt lat="42.25658" lon="0.0288">
        <ele>954.4</ele>
        <time>2015-09-24T10:31:09Z</time>
      </trkpt>
      <trkpt lat="42.25661" lon="0.02876">
        <ele>955</ele>
        <time>2015-09-24T10:31:11Z</time>
      </trkpt>
      <trkpt lat="42.25665" lon="0.02872">
        <ele>955.4</ele>
        <time>2015-09-24T10:31:13Z</time>
      </trkpt>
      <trkpt lat="42.25668" lon="0.02867">
        <ele>955.9</ele>
        <time>2015-09-24T10:31:15Z</time>
      </trkpt>
      <trkpt lat="42.25671" lon="0.02863">
        <ele>956.3</ele>
        <time>2015-09-24T10:31:17Z</time>
      </trkpt>
      <trkpt lat="42.25674" lon="0.02859">
        <ele>956.8</ele>
        <time>2015-09-24T10:31:19Z</time>
      </trkpt>
      <trkpt lat="42.25677" lon="0.02855">
        <ele>957.3</ele>
        <time>2015-09-24T10:31:21Z</time>
      </trkpt>
      <trkpt lat="42.2568" lon="0.02851">
        <ele>957.8</ele>
        <time>2015-09-24T10:31:23Z</time>
      </trkpt>
      <trkpt lat="42.25684" lon="0.02847">
        <ele>958.3</ele>
        <time>2015-09-24T10:31:25Z</time>
      </trkpt>
      <trkpt lat="42.25687" lon="0.02843">
        <ele>958.9</ele>
        <time>2015-09-24T10:31:27Z</time>
      </trkpt>
      <trkpt lat="42.2569" lon="0.02839">
        <ele>959.5</ele>
        <time>2015-09-24T10:31:29Z</time>
      </trkpt>
      <trkpt lat="42.25693" lon="0.02835">
        <ele>960.1</ele>
        <time>2015-09-24T10:31:31Z</time>
      </trkpt>
      <trkpt lat="42.25695" lon="0.0283">
        <ele>960.7</ele>
        <time>2015-09-24T10:31:33Z</time>
      </trkpt>
      <trkpt lat="42.25698" lon="0.02825">
        <ele>961.3</ele>
        <time>2015-09-24T10:31:35Z</time>
      </trkpt>
      <trkpt lat="42.25701" lon="0.02821">
        <ele>962</ele>
        <time>2015-09-24T10:31:37Z</time>
      </trkpt>
      <trkpt lat="42.25704" lon="0.02817">
        <ele>962.7</ele>
        <time>2015-09-24T10:31:39Z</time>
      </trkpt>
      <trkpt lat="42.25708" lon="0.02813">
        <ele>963.4</ele>
        <time>2015-09-24T10:31:41Z</time>
      </trkpt>
      <trkpt lat="42.25711" lon="0.02809">
        <ele>963.9</ele>
        <time>2015-09-24T10:31:43Z</time>
      </trkpt>
      <trkpt lat="42.25715" lon="0.02805">
        <ele>964.3</ele>
        <time>2015-09-24T10:31:45Z</time>
      </trkpt>
      <trkpt lat="42.25718" lon="0.02802">
        <ele>964.8</ele>
        <time>2015-09-24T10:31:47Z</time>
      </trkpt>
      <trkpt lat="42.25721" lon="0.02798">
        <ele>965.3</ele>
        <time>2015-09-24T10:31:49Z</time>
      </trkpt>
      <trkpt lat="42.25724" lon="0.02793">
        <ele>965.8</ele>
        <time>2015-09-24T10:31:51Z</time>
      </trkpt>
      <trkpt lat="42.25727" lon="0.02789">
        <ele>966.1</ele>
        <time>2015-09-24T10:31:53Z</time>
      </trkpt>
      <trkpt lat="42.2573" lon="0.02785">
        <ele>966.2</ele>
        <time>2015-09-24T10:31:55Z</time>
      </trkpt>
      <trkpt lat="42.25733" lon="0.0278">
        <ele>966.4</ele>
        <time>2015-09-24T10:31:57Z</time>
      </trkpt>
      <trkpt lat="42.25736" lon="0.02776">
        <ele>966.6</ele>
        <time>2015-09-24T10:31:59Z</time>
      </trkpt>
      <trkpt lat="42.25738" lon="0.02772">
        <ele>966.9</ele>
        <time>2015-09-24T10:32:01Z</time>
      </trkpt>
      <trkpt lat="42.25741" lon="0.02767">
        <ele>967.1</ele>
        <time>2015-09-24T10:32:03Z</time>
      </trkpt>
      <trkpt lat="42.25744" lon="0.02763">
        <ele>967.5</ele>
        <time>2015-09-24T10:32:05Z</time>
      </trkpt>
      <trkpt lat="42.25747" lon="0.02759">
        <ele>967.8</ele>
        <time>2015-09-24T10:32:07Z</time>
      </trkpt>
      <trkpt lat="42.2575" lon="0.02754">
        <ele>968.2</ele>
        <time>2015-09-24T10:32:09Z</time>
      </trkpt>
      <trkpt lat="42.25753" lon="0.0275">
        <ele>968.6</ele>
        <time>2015-09-24T10:32:11Z</time>
      </trkpt>
      <trkpt lat="42.25756" lon="0.02747">
        <ele>969.1</ele>
        <time>2015-09-24T10:32:13Z</time>
      </trkpt>
      <trkpt lat="42.2576" lon="0.02743">
        <ele>969.6</ele>
        <time>2015-09-24T10:32:15Z</time>
      </trkpt>
      <trkpt lat="42.25763" lon="0.02739">
        <ele>970.1</ele>
        <time>2015-09-24T10:32:17Z</time>
      </trkpt>
      <trkpt lat="42.25766" lon="0.02734">
        <ele>970.7</ele>
        <time>2015-09-24T10:32:19Z</time>
      </trkpt>
      <trkpt lat="42.25769" lon="0.0273">
        <ele>971.2</ele>
        <time>2015-09-24T10:32:21Z</time>
      </trkpt>
      <trkpt lat="42.25772" lon="0.02725">
        <ele>971.8</ele>
        <time>2015-09-24T10:32:23Z</time>
      </trkpt>
      <trkpt lat="42.25775" lon="0.02721">
        <ele>972.5</ele>
        <time>2015-09-24T10:32:25Z</time>
      </trkpt>
      <trkpt lat="42.25778" lon="0.02717">
        <ele>973.2</ele>
        <time>2015-09-24T10:32:27Z</time>
      </trkpt>
      <trkpt lat="42.25781" lon="0.02713">
        <ele>973.9</ele>
        <time>2015-09-24T10:32:29Z</time>
      </trkpt>
      <trkpt lat="42.25784" lon="0.02709">
        <ele>974.7</ele>
        <time>2015-09-24T10:32:31Z</time>
      </trkpt>
      <trkpt lat="42.25787" lon="0.02704">
        <ele>974.8</ele>
        <time>2015-09-24T10:32:33Z</time>
      </trkpt>
      <trkpt lat="42.25789" lon="0.027">
        <ele>974.9</ele>
        <time>2015-09-24T10:32:35Z</time>
      </trkpt>
      <trkpt lat="42.25792" lon="0.02696">
        <ele>975</ele>
        <time>2015-09-24T10:32:37Z</time>
      </trkpt>
      <trkpt lat="42.25796" lon="0.02692">
        <ele>974.9</ele>
        <time>2015-09-24T10:32:39Z</time>
      </trkpt>
      <trkpt lat="42.25798" lon="0.02688">
        <ele>974.8</ele>
        <time>2015-09-24T10:32:41Z</time>
      </trkpt>
      <trkpt lat="42.258" lon="0.02683">
        <ele>974.5</ele>
        <time>2015-09-24T10:32:43Z</time>
      </trkpt>
      <trkpt lat="42.25802" lon="0.02677">
        <ele>974.3</ele>
        <time>2015-09-24T10:32:45Z</time>
      </trkpt>
      <trkpt lat="42.25804" lon="0.02672">
        <ele>974</ele>
        <time>2015-09-24T10:32:47Z</time>
      </trkpt>
      <trkpt lat="42.25805" lon="0.02666">
        <ele>973.9</ele>
        <time>2015-09-24T10:32:49Z</time>
      </trkpt>
      <trkpt lat="42.25808" lon="0.02661">
        <ele>973.8</ele>
        <time>2015-09-24T10:32:51Z</time>
      </trkpt>
      <trkpt lat="42.2581" lon="0.02656">
        <ele>973.7</ele>
        <time>2015-09-24T10:32:53Z</time>
      </trkpt>
      <trkpt lat="42.25812" lon="0.02651">
        <ele>973.7</ele>
        <time>2015-09-24T10:32:55Z</time>
      </trkpt>
      <trkpt lat="42.25814" lon="0.02645">
        <ele>973.6</ele>
        <time>2015-09-24T10:32:57Z</time>
      </trkpt>
      <trkpt lat="42.25816" lon="0.0264">
        <ele>973.6</ele>
        <time>2015-09-24T10:32:59Z</time>
      </trkpt>
      <trkpt lat="42.25818" lon="0.02635">
        <ele>973.6</ele>
        <time>2015-09-24T10:33:01Z</time>
      </trkpt>
      <trkpt lat="42.25819" lon="0.02629">
        <ele>973.5</ele>
        <time>2015-09-24T10:33:03Z</time>
      </trkpt>
      <trkpt lat="42.25821" lon="0.02624">
        <ele>973.5</ele>
        <time>2015-09-24T10:33:05Z</time>
      </trkpt>
      <trkpt lat="42.25823" lon="0.02619">
        <ele>973.5</ele>
        <time>2015-09-24T10:33:07Z</time>
      </trkpt>
      <trkpt lat="42.25825" lon="0.02614">
        <ele>973.5</ele>
        <time>2015-09-24T10:33:09Z</time>
      </trkpt>
      <trkpt lat="42.25827" lon="0.02608">
        <ele>973.4</ele>
        <time>2015-09-24T10:33:11Z</time>
      </trkpt>
      <trkpt lat="42.25829" lon="0.02603">
        <ele>973.5</ele>
        <time>2015-09-24T10:33:13Z</time>
      </trkpt>
      <trkpt lat="42.25831" lon="0.02598">
        <ele>973.6</ele>
        <time>2015-09-24T10:33:15Z</time>
      </trkpt>
      <trkpt lat="42.25833" lon="0.02593">
        <ele>973.7</ele>
        <time>2015-09-24T10:33:17Z</time>
      </trkpt>
      <trkpt lat="42.25835" lon="0.02588">
        <ele>973.8</ele>
        <time>2015-09-24T10:33:19Z</time>
      </trkpt>
      <trkpt lat="42.25837" lon="0.02583">
        <ele>974</ele>
        <time>2015-09-24T10:33:21Z</time>
      </trkpt>
      <trkpt lat="42.25839" lon="0.02578">
        <ele>974.3</ele>
        <time>2015-09-24T10:33:23Z</time>
      </trkpt>
      <trkpt lat="42.25842" lon="0.02574">
        <ele>974.7</ele>
        <time>2015-09-24T10:33:25Z</time>
      </trkpt>
      <trkpt lat="42.25846" lon="0.0257">
        <ele>975.4</ele>
        <time>2015-09-24T10:33:27Z</time>
      </trkpt>
      <trkpt lat="42.25851" lon="0.02567">
        <ele>976.5</ele>
        <time>2015-09-24T10:33:29Z</time>
      </trkpt>
      <trkpt lat="42.25854" lon="0.02566">
        <ele>977</ele>
        <time>2015-09-24T10:33:30Z</time>
      </trkpt>
      <trkpt lat="42.25856" lon="0.02565">
        <ele>977.7</ele>
        <time>2015-09-24T10:33:31Z</time>
      </trkpt>
      <trkpt lat="42.25859" lon="0.02565">
        <ele>978.3</ele>
        <time>2015-09-24T10:33:32Z</time>
      </trkpt>
      <trkpt lat="42.25862" lon="0.02565">
        <ele>979</ele>
        <time>2015-09-24T10:33:33Z</time>
      </trkpt>
      <trkpt lat="42.25865" lon="0.02564">
        <ele>979.7</ele>
        <time>2015-09-24T10:33:34Z</time>
      </trkpt>
      <trkpt lat="42.25868" lon="0.02564">
        <ele>980.4</ele>
        <time>2015-09-24T10:33:35Z</time>
      </trkpt>
      <trkpt lat="42.25871" lon="0.02563">
        <ele>981.1</ele>
        <time>2015-09-24T10:33:36Z</time>
      </trkpt>
      <trkpt lat="42.25874" lon="0.02562">
        <ele>981.8</ele>
        <time>2015-09-24T10:33:37Z</time>
      </trkpt>
      <trkpt lat="42.25877" lon="0.02561">
        <ele>982.1</ele>
        <time>2015-09-24T10:33:38Z</time>
      </trkpt>
      <trkpt lat="42.2588" lon="0.0256">
        <ele>982.3</ele>
        <time>2015-09-24T10:33:39Z</time>
      </trkpt>
      <trkpt lat="42.25883" lon="0.02558">
        <ele>982.6</ele>
        <time>2015-09-24T10:33:40Z</time>
      </trkpt>
      <trkpt lat="42.25886" lon="0.02557">
        <ele>982.8</ele>
        <time>2015-09-24T10:33:41Z</time>
      </trkpt>
      <trkpt lat="42.25889" lon="0.02555">
        <ele>983</ele>
        <time>2015-09-24T10:33:42Z</time>
      </trkpt>
      <trkpt lat="42.25892" lon="0.02553">
        <ele>983.2</ele>
        <time>2015-09-24T10:33:43Z</time>
      </trkpt>
      <trkpt lat="42.25894" lon="0.02551">
        <ele>983.5</ele>
        <time>2015-09-24T10:33:44Z</time>
      </trkpt>
      <trkpt lat="42.25897" lon="0.02549">
        <ele>983.7</ele>
        <time>2015-09-24T10:33:45Z</time>
      </trkpt>
      <trkpt lat="42.259" lon="0.02547">
        <ele>983.9</ele>
        <time>2015-09-24T10:33:46Z</time>
      </trkpt>
      <trkpt lat="42.25903" lon="0.02545">
        <ele>984.2</ele>
        <time>2015-09-24T10:33:47Z</time>
      </trkpt>
      <trkpt lat="42.25905" lon="0.02544">
        <ele>984.5</ele>
        <time>2015-09-24T10:33:48Z</time>
      </trkpt>
      <trkpt lat="42.25908" lon="0.02541">
        <ele>984.7</ele>
        <time>2015-09-24T10:33:49Z</time>
      </trkpt>
      <trkpt lat="42.2591" lon="0.0254">
        <ele>984.8</ele>
        <time>2015-09-24T10:33:50Z</time>
      </trkpt>
      <trkpt lat="42.25912" lon="0.02538">
        <ele>984.9</ele>
        <time>2015-09-24T10:33:51Z</time>
      </trkpt>
      <trkpt lat="42.25915" lon="0.02536">
        <ele>985</ele>
        <time>2015-09-24T10:33:52Z</time>
      </trkpt>
      <trkpt lat="42.25916" lon="0.02532">
        <ele>985</ele>
        <time>2015-09-24T10:33:54Z</time>
      </trkpt>
      <trkpt lat="42.25919" lon="0.02528">
        <ele>985</ele>
        <time>2015-09-24T10:33:56Z</time>
      </trkpt>
      <trkpt lat="42.25921" lon="0.02526">
        <ele>985.2</ele>
        <time>2015-09-24T10:33:58Z</time>
      </trkpt>
      <trkpt lat="42.25925" lon="0.02523">
        <ele>985.4</ele>
        <time>2015-09-24T10:34:00Z</time>
      </trkpt>
      <trkpt lat="42.25927" lon="0.0252">
        <ele>985.5</ele>
        <time>2015-09-24T10:34:02Z</time>
      </trkpt>
      <trkpt lat="42.25928" lon="0.02516">
        <ele>985.4</ele>
        <time>2015-09-24T10:34:05Z</time>
      </trkpt>
      <trkpt lat="42.25932" lon="0.02516">
        <ele>985.8</ele>
        <time>2015-09-24T10:34:08Z</time>
      </trkpt>
      <trkpt lat="42.25936" lon="0.02514">
        <ele>986</ele>
        <time>2015-09-24T10:34:10Z</time>
      </trkpt>
      <trkpt lat="42.25939" lon="0.02511">
        <ele>986.3</ele>
        <time>2015-09-24T10:34:12Z</time>
      </trkpt>
      <trkpt lat="42.25942" lon="0.02509">
        <ele>986.5</ele>
        <time>2015-09-24T10:34:14Z</time>
      </trkpt>
      <trkpt lat="42.25945" lon="0.02506">
        <ele>986.7</ele>
        <time>2015-09-24T10:34:16Z</time>
      </trkpt>
      <trkpt lat="42.25948" lon="0.02503">
        <ele>986.9</ele>
        <time>2015-09-24T10:34:18Z</time>
      </trkpt>
      <trkpt lat="42.2595" lon="0.025">
        <ele>987</ele>
        <time>2015-09-24T10:34:20Z</time>
      </trkpt>
      <trkpt lat="42.25952" lon="0.02498">
        <ele>987.3</ele>
        <time>2015-09-24T10:34:24Z</time>
      </trkpt>
      <trkpt lat="42.25955" lon="0.02498">
        <ele>987.6</ele>
        <time>2015-09-24T10:36:11Z</time>
      </trkpt>
      <trkpt lat="42.25957" lon="0.02501">
        <ele>987.8</ele>
        <time>2015-09-24T10:36:12Z</time>
      </trkpt>
      <trkpt lat="42.25958" lon="0.02506">
        <ele>988.1</ele>
        <time>2015-09-24T10:36:13Z</time>
      </trkpt>
      <trkpt lat="42.25959" lon="0.02511">
        <ele>988.3</ele>
        <time>2015-09-24T10:36:14Z</time>
      </trkpt>
      <trkpt lat="42.25961" lon="0.02516">
        <ele>988.4</ele>
        <time>2015-09-24T10:36:15Z</time>
      </trkpt>
      <trkpt lat="42.25963" lon="0.02521">
        <ele>988.6</ele>
        <time>2015-09-24T10:36:16Z</time>
      </trkpt>
      <trkpt lat="42.25966" lon="0.02526">
        <ele>988.7</ele>
        <time>2015-09-24T10:36:17Z</time>
      </trkpt>
      <trkpt lat="42.25969" lon="0.02531">
        <ele>988.7</ele>
        <time>2015-09-24T10:36:18Z</time>
      </trkpt>
      <trkpt lat="42.25972" lon="0.02535">
        <ele>988.8</ele>
        <time>2015-09-24T10:36:19Z</time>
      </trkpt>
      <trkpt lat="42.25978" lon="0.02541">
        <ele>988.8</ele>
        <time>2015-09-24T10:36:20Z</time>
      </trkpt>
      <trkpt lat="42.25982" lon="0.02546">
        <ele>988.4</ele>
        <time>2015-09-24T10:36:21Z</time>
      </trkpt>
      <trkpt lat="42.25983" lon="0.02551">
        <ele>987.9</ele>
        <time>2015-09-24T10:36:22Z</time>
      </trkpt>
      <trkpt lat="42.25985" lon="0.02556">
        <ele>987.4</ele>
        <time>2015-09-24T10:36:23Z</time>
      </trkpt>
      <trkpt lat="42.25986" lon="0.02561">
        <ele>987</ele>
        <time>2015-09-24T10:36:24Z</time>
      </trkpt>
      <trkpt lat="42.25988" lon="0.02565">
        <ele>986.7</ele>
        <time>2015-09-24T10:36:25Z</time>
      </trkpt>
      <trkpt lat="42.25989" lon="0.02569">
        <ele>986.3</ele>
        <time>2015-09-24T10:36:26Z</time>
      </trkpt>
      <trkpt lat="42.25991" lon="0.02575">
        <ele>985.9</ele>
        <time>2015-09-24T10:36:27Z</time>
      </trkpt>
      <trkpt lat="42.25992" lon="0.0258">
        <ele>985.4</ele>
        <time>2015-09-24T10:36:28Z</time>
      </trkpt>
      <trkpt lat="42.25994" lon="0.02585">
        <ele>985</ele>
        <time>2015-09-24T10:36:29Z</time>
      </trkpt>
      <trkpt lat="42.25995" lon="0.02589">
        <ele>984.6</ele>
        <time>2015-09-24T10:36:30Z</time>
      </trkpt>
      <trkpt lat="42.25996" lon="0.02594">
        <ele>984.2</ele>
        <time>2015-09-24T10:36:31Z</time>
      </trkpt>
      <trkpt lat="42.25999" lon="0.02599">
        <ele>983.7</ele>
        <time>2015-09-24T10:36:32Z</time>
      </trkpt>
      <trkpt lat="42.26001" lon="0.02604">
        <ele>983.3</ele>
        <time>2015-09-24T10:36:33Z</time>
      </trkpt>
      <trkpt lat="42.26005" lon="0.02609">
        <ele>982.8</ele>
        <time>2015-09-24T10:36:34Z</time>
      </trkpt>
      <trkpt lat="42.26008" lon="0.02613">
        <ele>982.4</ele>
        <time>2015-09-24T10:36:35Z</time>
      </trkpt>
      <trkpt lat="42.26011" lon="0.02617">
        <ele>982</ele>
        <time>2015-09-24T10:36:36Z</time>
      </trkpt>
      <trkpt lat="42.26014" lon="0.02621">
        <ele>981.7</ele>
        <time>2015-09-24T10:36:37Z</time>
      </trkpt>
      <trkpt lat="42.26017" lon="0.02624">
        <ele>981.4</ele>
        <time>2015-09-24T10:36:38Z</time>
      </trkpt>
      <trkpt lat="42.26021" lon="0.02629">
        <ele>980.9</ele>
        <time>2015-09-24T10:36:39Z</time>
      </trkpt>
      <trkpt lat="42.26024" lon="0.02635">
        <ele>980.2</ele>
        <time>2015-09-24T10:36:40Z</time>
      </trkpt>
      <trkpt lat="42.26027" lon="0.0264">
        <ele>979.6</ele>
        <time>2015-09-24T10:36:41Z</time>
      </trkpt>
      <trkpt lat="42.26029" lon="0.02646">
        <ele>979</ele>
        <time>2015-09-24T10:36:42Z</time>
      </trkpt>
      <trkpt lat="42.26032" lon="0.02653">
        <ele>978.2</ele>
        <time>2015-09-24T10:36:43Z</time>
      </trkpt>
      <trkpt lat="42.26035" lon="0.02659">
        <ele>977.5</ele>
        <time>2015-09-24T10:36:44Z</time>
      </trkpt>
      <trkpt lat="42.26036" lon="0.02664">
        <ele>977</ele>
        <time>2015-09-24T10:36:45Z</time>
      </trkpt>
      <trkpt lat="42.26038" lon="0.02667">
        <ele>976.6</ele>
        <time>2015-09-24T10:36:47Z</time>
      </trkpt>
      <trkpt lat="42.26041" lon="0.02666">
        <ele>976.6</ele>
        <time>2015-09-24T10:36:50Z</time>
      </trkpt>
      <trkpt lat="42.26043" lon="0.02665">
        <ele>976.7</ele>
        <time>2015-09-24T10:36:53Z</time>
      </trkpt>
      <trkpt lat="42.26047" lon="0.02664">
        <ele>976.8</ele>
        <time>2015-09-24T10:36:56Z</time>
      </trkpt>
      <trkpt lat="42.2605" lon="0.02663">
        <ele>976.9</ele>
        <time>2015-09-24T10:36:59Z</time>
      </trkpt>
      <trkpt lat="42.26052" lon="0.02663">
        <ele>976.9</ele>
        <time>2015-09-24T10:37:02Z</time>
      </trkpt>
      <trkpt lat="42.26056" lon="0.02663">
        <ele>976.9</ele>
        <time>2015-09-24T10:37:05Z</time>
      </trkpt>
      <trkpt lat="42.26061" lon="0.02666">
        <ele>976.6</ele>
        <time>2015-09-24T10:37:07Z</time>
      </trkpt>
      <trkpt lat="42.26065" lon="0.02669">
        <ele>976.2</ele>
        <time>2015-09-24T10:37:09Z</time>
      </trkpt>
      <trkpt lat="42.26068" lon="0.02671">
        <ele>976</ele>
        <time>2015-09-24T10:37:10Z</time>
      </trkpt>
      <trkpt lat="42.26071" lon="0.02674">
        <ele>975.7</ele>
        <time>2015-09-24T10:37:11Z</time>
      </trkpt>
      <trkpt lat="42.26074" lon="0.02676">
        <ele>975.4</ele>
        <time>2015-09-24T10:37:12Z</time>
      </trkpt>
      <trkpt lat="42.26077" lon="0.02679">
        <ele>975.1</ele>
        <time>2015-09-24T10:37:13Z</time>
      </trkpt>
      <trkpt lat="42.2608" lon="0.02681">
        <ele>974.8</ele>
        <time>2015-09-24T10:37:14Z</time>
      </trkpt>
      <trkpt lat="42.26083" lon="0.02683">
        <ele>974.5</ele>
        <time>2015-09-24T10:37:15Z</time>
      </trkpt>
      <trkpt lat="42.26086" lon="0.02685">
        <ele>974.3</ele>
        <time>2015-09-24T10:37:16Z</time>
      </trkpt>
      <trkpt lat="42.26089" lon="0.02687">
        <ele>974</ele>
        <time>2015-09-24T10:37:17Z</time>
      </trkpt>
      <trkpt lat="42.26092" lon="0.02689">
        <ele>973.8</ele>
        <time>2015-09-24T10:37:18Z</time>
      </trkpt>
      <trkpt lat="42.26096" lon="0.02691">
        <ele>973.5</ele>
        <time>2015-09-24T10:37:19Z</time>
      </trkpt>
      <trkpt lat="42.26099" lon="0.02692">
        <ele>973.3</ele>
        <time>2015-09-24T10:37:20Z</time>
      </trkpt>
      <trkpt lat="42.26103" lon="0.02694">
        <ele>973.1</ele>
        <time>2015-09-24T10:37:21Z</time>
      </trkpt>
      <trkpt lat="42.26106" lon="0.02695">
        <ele>972.9</ele>
        <time>2015-09-24T10:37:22Z</time>
      </trkpt>
      <trkpt lat="42.2611" lon="0.02697">
        <ele>972.6</ele>
        <time>2015-09-24T10:37:23Z</time>
      </trkpt>
      <trkpt lat="42.26114" lon="0.027">
        <ele>972.3</ele>
        <time>2015-09-24T10:37:24Z</time>
      </trkpt>
      <trkpt lat="42.26117" lon="0.02703">
        <ele>971.9</ele>
        <time>2015-09-24T10:37:25Z</time>
      </trkpt>
      <trkpt lat="42.26121" lon="0.02705">
        <ele>971.4</ele>
        <time>2015-09-24T10:37:26Z</time>
      </trkpt>
      <trkpt lat="42.26124" lon="0.02708">
        <ele>971</ele>
        <time>2015-09-24T10:37:27Z</time>
      </trkpt>
      <trkpt lat="42.26128" lon="0.02711">
        <ele>970.9</ele>
        <time>2015-09-24T10:37:28Z</time>
      </trkpt>
      <trkpt lat="42.26132" lon="0.02713">
        <ele>970.8</ele>
        <time>2015-09-24T10:37:29Z</time>
      </trkpt>
      <trkpt lat="42.26135" lon="0.02716">
        <ele>970.7</ele>
        <time>2015-09-24T10:37:30Z</time>
      </trkpt>
      <trkpt lat="42.26139" lon="0.02719">
        <ele>970.6</ele>
        <time>2015-09-24T10:37:31Z</time>
      </trkpt>
      <trkpt lat="42.26142" lon="0.02722">
        <ele>970.5</ele>
        <time>2015-09-24T10:37:32Z</time>
      </trkpt>
      <trkpt lat="42.26146" lon="0.02725">
        <ele>970.4</ele>
        <time>2015-09-24T10:37:33Z</time>
      </trkpt>
      <trkpt lat="42.26149" lon="0.02727">
        <ele>970.3</ele>
        <time>2015-09-24T10:37:34Z</time>
      </trkpt>
      <trkpt lat="42.26153" lon="0.0273">
        <ele>970.2</ele>
        <time>2015-09-24T10:37:35Z</time>
      </trkpt>
      <trkpt lat="42.26156" lon="0.02733">
        <ele>970.1</ele>
        <time>2015-09-24T10:37:36Z</time>
      </trkpt>
      <trkpt lat="42.2616" lon="0.02736">
        <ele>969.9</ele>
        <time>2015-09-24T10:37:37Z</time>
      </trkpt>
      <trkpt lat="42.26163" lon="0.02739">
        <ele>969.8</ele>
        <time>2015-09-24T10:37:38Z</time>
      </trkpt>
      <trkpt lat="42.26167" lon="0.02742">
        <ele>969.7</ele>
        <time>2015-09-24T10:37:39Z</time>
      </trkpt>
      <trkpt lat="42.26171" lon="0.02745">
        <ele>969.6</ele>
        <time>2015-09-24T10:37:40Z</time>
      </trkpt>
      <trkpt lat="42.26174" lon="0.02747">
        <ele>969.5</ele>
        <time>2015-09-24T10:37:41Z</time>
      </trkpt>
      <trkpt lat="42.26178" lon="0.0275">
        <ele>969.4</ele>
        <time>2015-09-24T10:37:42Z</time>
      </trkpt>
      <trkpt lat="42.26182" lon="0.02752">
        <ele>969.3</ele>
        <time>2015-09-24T10:37:43Z</time>
      </trkpt>
      <trkpt lat="42.26185" lon="0.02755">
        <ele>969.2</ele>
        <time>2015-09-24T10:37:44Z</time>
      </trkpt>
      <trkpt lat="42.26188" lon="0.02758">
        <ele>969.1</ele>
        <time>2015-09-24T10:37:45Z</time>
      </trkpt>
      <trkpt lat="42.26192" lon="0.0276">
        <ele>969</ele>
        <time>2015-09-24T10:37:46Z</time>
      </trkpt>
      <trkpt lat="42.26195" lon="0.02763">
        <ele>968.9</ele>
        <time>2015-09-24T10:37:47Z</time>
      </trkpt>
      <trkpt lat="42.26198" lon="0.02766">
        <ele>968.8</ele>
        <time>2015-09-24T10:37:48Z</time>
      </trkpt>
      <trkpt lat="42.26201" lon="0.02767">
        <ele>968.8</ele>
        <time>2015-09-24T10:37:49Z</time>
      </trkpt>
      <trkpt lat="42.26204" lon="0.02768">
        <ele>968.8</ele>
        <time>2015-09-24T10:37:50Z</time>
      </trkpt>
      <trkpt lat="42.26208" lon="0.02768">
        <ele>969</ele>
        <time>2015-09-24T10:37:51Z</time>
      </trkpt>
      <trkpt lat="42.26211" lon="0.02768">
        <ele>969</ele>
        <time>2015-09-24T10:37:52Z</time>
      </trkpt>
      <trkpt lat="42.26215" lon="0.02767">
        <ele>969.1</ele>
        <time>2015-09-24T10:37:53Z</time>
      </trkpt>
      <trkpt lat="42.26218" lon="0.02766">
        <ele>969.2</ele>
        <time>2015-09-24T10:37:54Z</time>
      </trkpt>
      <trkpt lat="42.26221" lon="0.02764">
        <ele>969.3</ele>
        <time>2015-09-24T10:37:55Z</time>
      </trkpt>
      <trkpt lat="42.26224" lon="0.02763">
        <ele>969.5</ele>
        <time>2015-09-24T10:37:56Z</time>
      </trkpt>
      <trkpt lat="42.26227" lon="0.02761">
        <ele>969.7</ele>
        <time>2015-09-24T10:37:57Z</time>
      </trkpt>
      <trkpt lat="42.26233" lon="0.0276">
        <ele>969.9</ele>
        <time>2015-09-24T10:37:59Z</time>
      </trkpt>
      <trkpt lat="42.26236" lon="0.02759">
        <ele>970</ele>
        <time>2015-09-24T10:38:00Z</time>
      </trkpt>
      <trkpt lat="42.26239" lon="0.02758">
        <ele>970.3</ele>
        <time>2015-09-24T10:38:01Z</time>
      </trkpt>
      <trkpt lat="42.26242" lon="0.02756">
        <ele>970.5</ele>
        <time>2015-09-24T10:38:02Z</time>
      </trkpt>
      <trkpt lat="42.26246" lon="0.02754">
        <ele>970.8</ele>
        <time>2015-09-24T10:38:03Z</time>
      </trkpt>
      <trkpt lat="42.26249" lon="0.02752">
        <ele>971.1</ele>
        <time>2015-09-24T10:38:04Z</time>
      </trkpt>
      <trkpt lat="42.26252" lon="0.02751">
        <ele>971.4</ele>
        <time>2015-09-24T10:38:05Z</time>
      </trkpt>
      <trkpt lat="42.26255" lon="0.02749">
        <ele>971.8</ele>
        <time>2015-09-24T10:38:06Z</time>
      </trkpt>
      <trkpt lat="42.26259" lon="0.02747">
        <ele>972.1</ele>
        <time>2015-09-24T10:38:07Z</time>
      </trkpt>
      <trkpt lat="42.26264" lon="0.02745">
        <ele>972.6</ele>
        <time>2015-09-24T10:38:08Z</time>
      </trkpt>
      <trkpt lat="42.26268" lon="0.02743">
        <ele>973.1</ele>
        <time>2015-09-24T10:38:09Z</time>
      </trkpt>
      <trkpt lat="42.26271" lon="0.02741">
        <ele>973.6</ele>
        <time>2015-09-24T10:38:10Z</time>
      </trkpt>
      <trkpt lat="42.26274" lon="0.02739">
        <ele>974</ele>
        <time>2015-09-24T10:38:11Z</time>
      </trkpt>
      <trkpt lat="42.26278" lon="0.02738">
        <ele>974.3</ele>
        <time>2015-09-24T10:38:12Z</time>
      </trkpt>
      <trkpt lat="42.26281" lon="0.02737">
        <ele>974.7</ele>
        <time>2015-09-24T10:38:13Z</time>
      </trkpt>
      <trkpt lat="42.26285" lon="0.02736">
        <ele>975.1</ele>
        <time>2015-09-24T10:38:14Z</time>
      </trkpt>
      <trkpt lat="42.26288" lon="0.02735">
        <ele>975.4</ele>
        <time>2015-09-24T10:38:15Z</time>
      </trkpt>
      <trkpt lat="42.26292" lon="0.02734">
        <ele>975.7</ele>
        <time>2015-09-24T10:38:16Z</time>
      </trkpt>
      <trkpt lat="42.26295" lon="0.02734">
        <ele>975.9</ele>
        <time>2015-09-24T10:38:17Z</time>
      </trkpt>
      <trkpt lat="42.26299" lon="0.02733">
        <ele>976.1</ele>
        <time>2015-09-24T10:38:18Z</time>
      </trkpt>
      <trkpt lat="42.26302" lon="0.02731">
        <ele>976.5</ele>
        <time>2015-09-24T10:38:19Z</time>
      </trkpt>
      <trkpt lat="42.26307" lon="0.02729">
        <ele>977</ele>
        <time>2015-09-24T10:38:20Z</time>
      </trkpt>
      <trkpt lat="42.26311" lon="0.02727">
        <ele>977.6</ele>
        <time>2015-09-24T10:38:21Z</time>
      </trkpt>
      <trkpt lat="42.26315" lon="0.02724">
        <ele>978.1</ele>
        <time>2015-09-24T10:38:22Z</time>
      </trkpt>
      <trkpt lat="42.26319" lon="0.02722">
        <ele>978.6</ele>
        <time>2015-09-24T10:38:23Z</time>
      </trkpt>
      <trkpt lat="42.26324" lon="0.0272">
        <ele>979</ele>
        <time>2015-09-24T10:38:24Z</time>
      </trkpt>
      <trkpt lat="42.26328" lon="0.0272">
        <ele>979.2</ele>
        <time>2015-09-24T10:38:25Z</time>
      </trkpt>
      <trkpt lat="42.26332" lon="0.0272">
        <ele>979.3</ele>
        <time>2015-09-24T10:38:26Z</time>
      </trkpt>
      <trkpt lat="42.26337" lon="0.02723">
        <ele>978.6</ele>
        <time>2015-09-24T10:38:27Z</time>
      </trkpt>
      <trkpt lat="42.26341" lon="0.02727">
        <ele>978</ele>
        <time>2015-09-24T10:38:28Z</time>
      </trkpt>
      <trkpt lat="42.26345" lon="0.0273">
        <ele>977.4</ele>
        <time>2015-09-24T10:38:29Z</time>
      </trkpt>
      <trkpt lat="42.26346" lon="0.02735">
        <ele>976.5</ele>
        <time>2015-09-24T10:38:30Z</time>
      </trkpt>
      <trkpt lat="42.26348" lon="0.0274">
        <ele>975.4</ele>
        <time>2015-09-24T10:38:31Z</time>
      </trkpt>
      <trkpt lat="42.26349" lon="0.02746">
        <ele>974.4</ele>
        <time>2015-09-24T10:38:32Z</time>
      </trkpt>
      <trkpt lat="42.26349" lon="0.02751">
        <ele>973.4</ele>
        <time>2015-09-24T10:38:33Z</time>
      </trkpt>
      <trkpt lat="42.26349" lon="0.02756">
        <ele>972.4</ele>
        <time>2015-09-24T10:38:34Z</time>
      </trkpt>
      <trkpt lat="42.26347" lon="0.0276">
        <ele>971.5</ele>
        <time>2015-09-24T10:38:35Z</time>
      </trkpt>
      <trkpt lat="42.26345" lon="0.02764">
        <ele>970.7</ele>
        <time>2015-09-24T10:38:36Z</time>
      </trkpt>
      <trkpt lat="42.26342" lon="0.02767">
        <ele>970</ele>
        <time>2015-09-24T10:38:37Z</time>
      </trkpt>
      <trkpt lat="42.26339" lon="0.0277">
        <ele>969.5</ele>
        <time>2015-09-24T10:38:38Z</time>
      </trkpt>
      <trkpt lat="42.26337" lon="0.02772">
        <ele>968.9</ele>
        <time>2015-09-24T10:38:39Z</time>
      </trkpt>
      <trkpt lat="42.26335" lon="0.02775">
        <ele>968.3</ele>
        <time>2015-09-24T10:38:40Z</time>
      </trkpt>
      <trkpt lat="42.26332" lon="0.02778">
        <ele>967.8</ele>
        <time>2015-09-24T10:38:41Z</time>
      </trkpt>
      <trkpt lat="42.26331" lon="0.0278">
        <ele>967.2</ele>
        <time>2015-09-24T10:38:42Z</time>
      </trkpt>
      <trkpt lat="42.26329" lon="0.02783">
        <ele>966.6</ele>
        <time>2015-09-24T10:38:43Z</time>
      </trkpt>
      <trkpt lat="42.26326" lon="0.02789">
        <ele>965.3</ele>
        <time>2015-09-24T10:38:45Z</time>
      </trkpt>
      <trkpt lat="42.26325" lon="0.02794">
        <ele>964.7</ele>
        <time>2015-09-24T10:38:47Z</time>
      </trkpt>
      <trkpt lat="42.26326" lon="0.02799">
        <ele>964.4</ele>
        <time>2015-09-24T10:38:49Z</time>
      </trkpt>
      <trkpt lat="42.26326" lon="0.02804">
        <ele>964.1</ele>
        <time>2015-09-24T10:38:51Z</time>
      </trkpt>
      <trkpt lat="42.26327" lon="0.02808">
        <ele>963.9</ele>
        <time>2015-09-24T10:38:53Z</time>
      </trkpt>
      <trkpt lat="42.26327" lon="0.02812">
        <ele>963.7</ele>
        <time>2015-09-24T10:38:56Z</time>
      </trkpt>
      <trkpt lat="42.26327" lon="0.02817">
        <ele>963.4</ele>
        <time>2015-09-24T10:39:00Z</time>
      </trkpt>
      <trkpt lat="42.26327" lon="0.02822">
        <ele>963.1</ele>
        <time>2015-09-24T10:39:03Z</time>
      </trkpt>
      <trkpt lat="42.26327" lon="0.02827">
        <ele>962.8</ele>
        <time>2015-09-24T10:39:06Z</time>
      </trkpt>
      <trkpt lat="42.26328" lon="0.02831">
        <ele>962.6</ele>
        <time>2015-09-24T10:39:08Z</time>
      </trkpt>
      <trkpt lat="42.26328" lon="0.02837">
        <ele>962.4</ele>
        <time>2015-09-24T10:39:10Z</time>
      </trkpt>
      <trkpt lat="42.26328" lon="0.02842">
        <ele>962.1</ele>
        <time>2015-09-24T10:39:12Z</time>
      </trkpt>
      <trkpt lat="42.26328" lon="0.02847">
        <ele>961.8</ele>
        <time>2015-09-24T10:39:14Z</time>
      </trkpt>
      <trkpt lat="42.26328" lon="0.02853">
        <ele>961.5</ele>
        <time>2015-09-24T10:39:16Z</time>
      </trkpt>
      <trkpt lat="42.26329" lon="0.02858">
        <ele>961.2</ele>
        <time>2015-09-24T10:39:18Z</time>
      </trkpt>
      <trkpt lat="42.26329" lon="0.02862">
        <ele>961.1</ele>
        <time>2015-09-24T10:39:20Z</time>
      </trkpt>
      <trkpt lat="42.2633" lon="0.02866">
        <ele>961</ele>
        <time>2015-09-24T10:39:23Z</time>
      </trkpt>
      <trkpt lat="42.26332" lon="0.02871">
        <ele>960.9</ele>
        <time>2015-09-24T10:39:26Z</time>
      </trkpt>
      <trkpt lat="42.26333" lon="0.02875">
        <ele>961</ele>
        <time>2015-09-24T10:39:28Z</time>
      </trkpt>
      <trkpt lat="42.26334" lon="0.02878">
        <ele>961</ele>
        <time>2015-09-24T10:39:30Z</time>
      </trkpt>
      <trkpt lat="42.26336" lon="0.02882">
        <ele>961</ele>
        <time>2015-09-24T10:39:32Z</time>
      </trkpt>
      <trkpt lat="42.26338" lon="0.02885">
        <ele>961.1</ele>
        <time>2015-09-24T10:39:34Z</time>
      </trkpt>
      <trkpt lat="42.2634" lon="0.02889">
        <ele>961.1</ele>
        <time>2015-09-24T10:39:36Z</time>
      </trkpt>
      <trkpt lat="42.26341" lon="0.02893">
        <ele>961.2</ele>
        <time>2015-09-24T10:39:38Z</time>
      </trkpt>
      <trkpt lat="42.26343" lon="0.02897">
        <ele>961.2</ele>
        <time>2015-09-24T10:39:40Z</time>
      </trkpt>
      <trkpt lat="42.26344" lon="0.02901">
        <ele>961.2</ele>
        <time>2015-09-24T10:39:42Z</time>
      </trkpt>
      <trkpt lat="42.26346" lon="0.02906">
        <ele>961.3</ele>
        <time>2015-09-24T10:39:44Z</time>
      </trkpt>
      <trkpt lat="42.26348" lon="0.0291">
        <ele>961.5</ele>
        <time>2015-09-24T10:39:46Z</time>
      </trkpt>
      <trkpt lat="42.2635" lon="0.02914">
        <ele>961.7</ele>
        <time>2015-09-24T10:39:48Z</time>
      </trkpt>
      <trkpt lat="42.26353" lon="0.02918">
        <ele>961.9</ele>
        <time>2015-09-24T10:39:50Z</time>
      </trkpt>
      <trkpt lat="42.26355" lon="0.02921">
        <ele>962.3</ele>
        <time>2015-09-24T10:39:52Z</time>
      </trkpt>
      <trkpt lat="42.26358" lon="0.02924">
        <ele>962.6</ele>
        <time>2015-09-24T10:39:54Z</time>
      </trkpt>
      <trkpt lat="42.2636" lon="0.02928">
        <ele>962.9</ele>
        <time>2015-09-24T10:39:56Z</time>
      </trkpt>
      <trkpt lat="42.26363" lon="0.02931">
        <ele>963.3</ele>
        <time>2015-09-24T10:39:58Z</time>
      </trkpt>
      <trkpt lat="42.26365" lon="0.02934">
        <ele>963.6</ele>
        <time>2015-09-24T10:40:00Z</time>
      </trkpt>
      <trkpt lat="42.26367" lon="0.02937">
        <ele>964</ele>
        <time>2015-09-24T10:40:02Z</time>
      </trkpt>
      <trkpt lat="42.2637" lon="0.0294">
        <ele>964.4</ele>
        <time>2015-09-24T10:40:04Z</time>
      </trkpt>
      <trkpt lat="42.26373" lon="0.02943">
        <ele>964.9</ele>
        <time>2015-09-24T10:40:06Z</time>
      </trkpt>
      <trkpt lat="42.26375" lon="0.02946">
        <ele>965.4</ele>
        <time>2015-09-24T10:40:08Z</time>
      </trkpt>
      <trkpt lat="42.26378" lon="0.02948">
        <ele>966.2</ele>
        <time>2015-09-24T10:40:10Z</time>
      </trkpt>
      <trkpt lat="42.26382" lon="0.0295">
        <ele>967</ele>
        <time>2015-09-24T10:40:12Z</time>
      </trkpt>
      <trkpt lat="42.26385" lon="0.02952">
        <ele>967.9</ele>
        <time>2015-09-24T10:40:14Z</time>
      </trkpt>
      <trkpt lat="42.26388" lon="0.02953">
        <ele>968.8</ele>
        <time>2015-09-24T10:40:16Z</time>
      </trkpt>
      <trkpt lat="42.26392" lon="0.02952">
        <ele>969.8</ele>
        <time>2015-09-24T10:40:18Z</time>
      </trkpt>
      <trkpt lat="42.26395" lon="0.02952">
        <ele>970.7</ele>
        <time>2015-09-24T10:40:20Z</time>
      </trkpt>
      <trkpt lat="42.26398" lon="0.02953">
        <ele>971.4</ele>
        <time>2015-09-24T10:40:22Z</time>
      </trkpt>
      <trkpt lat="42.264" lon="0.02955">
        <ele>972</ele>
        <time>2015-09-24T10:40:24Z</time>
      </trkpt>
      <trkpt lat="42.26403" lon="0.02957">
        <ele>972.6</ele>
        <time>2015-09-24T10:40:26Z</time>
      </trkpt>
      <trkpt lat="42.26406" lon="0.02959">
        <ele>973.4</ele>
        <time>2015-09-24T10:40:28Z</time>
      </trkpt>
      <trkpt lat="42.26409" lon="0.02961">
        <ele>973.9</ele>
        <time>2015-09-24T10:40:30Z</time>
      </trkpt>
      <trkpt lat="42.26412" lon="0.02964">
        <ele>974.5</ele>
        <time>2015-09-24T10:40:32Z</time>
      </trkpt>
      <trkpt lat="42.26416" lon="0.02967">
        <ele>975.1</ele>
        <time>2015-09-24T10:40:34Z</time>
      </trkpt>
      <trkpt lat="42.2642" lon="0.02971">
        <ele>975.7</ele>
        <time>2015-09-24T10:40:36Z</time>
      </trkpt>
      <trkpt lat="42.26423" lon="0.02975">
        <ele>976.1</ele>
        <time>2015-09-24T10:40:38Z</time>
      </trkpt>
      <trkpt lat="42.26426" lon="0.02981">
        <ele>976.1</ele>
        <time>2015-09-24T10:40:40Z</time>
      </trkpt>
      <trkpt lat="42.26428" lon="0.02986">
        <ele>976.2</ele>
        <time>2015-09-24T10:40:42Z</time>
      </trkpt>
      <trkpt lat="42.26431" lon="0.0299">
        <ele>976.4</ele>
        <time>2015-09-24T10:40:44Z</time>
      </trkpt>
      <trkpt lat="42.26434" lon="0.02995">
        <ele>976.5</ele>
        <time>2015-09-24T10:40:46Z</time>
      </trkpt>
      <trkpt lat="42.26436" lon="0.02999">
        <ele>976.8</ele>
        <time>2015-09-24T10:40:48Z</time>
      </trkpt>
      <trkpt lat="42.26439" lon="0.03003">
        <ele>976.9</ele>
        <time>2015-09-24T10:40:50Z</time>
      </trkpt>
      <trkpt lat="42.26441" lon="0.03008">
        <ele>976.9</ele>
        <time>2015-09-24T10:40:52Z</time>
      </trkpt>
      <trkpt lat="42.26443" lon="0.03012">
        <ele>977.1</ele>
        <time>2015-09-24T10:40:54Z</time>
      </trkpt>
      <trkpt lat="42.26446" lon="0.03016">
        <ele>977.4</ele>
        <time>2015-09-24T10:40:56Z</time>
      </trkpt>
      <trkpt lat="42.26448" lon="0.0302">
        <ele>977.6</ele>
        <time>2015-09-24T10:40:58Z</time>
      </trkpt>
      <trkpt lat="42.26451" lon="0.03025">
        <ele>977.7</ele>
        <time>2015-09-24T10:41:00Z</time>
      </trkpt>
      <trkpt lat="42.26453" lon="0.0303">
        <ele>977.7</ele>
        <time>2015-09-24T10:41:02Z</time>
      </trkpt>
      <trkpt lat="42.26455" lon="0.03034">
        <ele>977.9</ele>
        <time>2015-09-24T10:41:04Z</time>
      </trkpt>
      <trkpt lat="42.26457" lon="0.03038">
        <ele>978</ele>
        <time>2015-09-24T10:41:06Z</time>
      </trkpt>
      <trkpt lat="42.26459" lon="0.03042">
        <ele>978.2</ele>
        <time>2015-09-24T10:41:08Z</time>
      </trkpt>
      <trkpt lat="42.26461" lon="0.03046">
        <ele>978.5</ele>
        <time>2015-09-24T10:41:10Z</time>
      </trkpt>
      <trkpt lat="42.26464" lon="0.0305">
        <ele>978.7</ele>
        <time>2015-09-24T10:41:12Z</time>
      </trkpt>
      <trkpt lat="42.26466" lon="0.03054">
        <ele>978.9</ele>
        <time>2015-09-24T10:41:14Z</time>
      </trkpt>
      <trkpt lat="42.26468" lon="0.03059">
        <ele>979.1</ele>
        <time>2015-09-24T10:41:16Z</time>
      </trkpt>
      <trkpt lat="42.2647" lon="0.03063">
        <ele>979.2</ele>
        <time>2015-09-24T10:41:18Z</time>
      </trkpt>
      <trkpt lat="42.26472" lon="0.03067">
        <ele>979.3</ele>
        <time>2015-09-24T10:41:21Z</time>
      </trkpt>
      <trkpt lat="42.26473" lon="0.0307">
        <ele>979.6</ele>
        <time>2015-09-24T10:41:23Z</time>
      </trkpt>
      <trkpt lat="42.26475" lon="0.03073">
        <ele>979.7</ele>
        <time>2015-09-24T10:41:25Z</time>
      </trkpt>
      <trkpt lat="42.26477" lon="0.03077">
        <ele>979.9</ele>
        <time>2015-09-24T10:41:27Z</time>
      </trkpt>
      <trkpt lat="42.26479" lon="0.0308">
        <ele>980.1</ele>
        <time>2015-09-24T10:41:29Z</time>
      </trkpt>
      <trkpt lat="42.2648" lon="0.03084">
        <ele>980.3</ele>
        <time>2015-09-24T10:42:59Z</time>
      </trkpt>
      <trkpt lat="42.26482" lon="0.03086">
        <ele>980.6</ele>
        <time>2015-09-24T10:43:03Z</time>
      </trkpt>
      <trkpt lat="42.26484" lon="0.0309">
        <ele>980.9</ele>
        <time>2015-09-24T10:43:08Z</time>
      </trkpt>
      <trkpt lat="42.26486" lon="0.03095">
        <ele>981.1</ele>
        <time>2015-09-24T10:43:11Z</time>
      </trkpt>
      <trkpt lat="42.26488" lon="0.03099">
        <ele>981.3</ele>
        <time>2015-09-24T10:43:13Z</time>
      </trkpt>
      <trkpt lat="42.2649" lon="0.03103">
        <ele>981.5</ele>
        <time>2015-09-24T10:43:15Z</time>
      </trkpt>
      <trkpt lat="42.26492" lon="0.03108">
        <ele>981.7</ele>
        <time>2015-09-24T10:43:17Z</time>
      </trkpt>
      <trkpt lat="42.26494" lon="0.03112">
        <ele>981.9</ele>
        <time>2015-09-24T10:43:19Z</time>
      </trkpt>
      <trkpt lat="42.26496" lon="0.03117">
        <ele>982.1</ele>
        <time>2015-09-24T10:43:21Z</time>
      </trkpt>
      <trkpt lat="42.26499" lon="0.03121">
        <ele>982.4</ele>
        <time>2015-09-24T10:43:23Z</time>
      </trkpt>
      <trkpt lat="42.26501" lon="0.03126">
        <ele>982.7</ele>
        <time>2015-09-24T10:43:25Z</time>
      </trkpt>
      <trkpt lat="42.26503" lon="0.0313">
        <ele>983.1</ele>
        <time>2015-09-24T10:43:27Z</time>
      </trkpt>
      <trkpt lat="42.26505" lon="0.03135">
        <ele>983.3</ele>
        <time>2015-09-24T10:43:29Z</time>
      </trkpt>
      <trkpt lat="42.26507" lon="0.03139">
        <ele>983.7</ele>
        <time>2015-09-24T10:43:31Z</time>
      </trkpt>
      <trkpt lat="42.26509" lon="0.03143">
        <ele>984.4</ele>
        <time>2015-09-24T10:43:33Z</time>
      </trkpt>
      <trkpt lat="42.26512" lon="0.03147">
        <ele>984.9</ele>
        <time>2015-09-24T10:43:35Z</time>
      </trkpt>
      <trkpt lat="42.26514" lon="0.03151">
        <ele>985.4</ele>
        <time>2015-09-24T10:43:37Z</time>
      </trkpt>
      <trkpt lat="42.26516" lon="0.03156">
        <ele>985.7</ele>
        <time>2015-09-24T10:43:39Z</time>
      </trkpt>
      <trkpt lat="42.26518" lon="0.0316">
        <ele>986</ele>
        <time>2015-09-24T10:43:41Z</time>
      </trkpt>
      <trkpt lat="42.2652" lon="0.03167">
        <ele>986.2</ele>
        <time>2015-09-24T10:43:43Z</time>
      </trkpt>
      <trkpt lat="42.26521" lon="0.0317">
        <ele>986.3</ele>
        <time>2015-09-24T10:43:44Z</time>
      </trkpt>
      <trkpt lat="42.26523" lon="0.03173">
        <ele>986.6</ele>
        <time>2015-09-24T10:43:45Z</time>
      </trkpt>
      <trkpt lat="42.26525" lon="0.03176">
        <ele>986.9</ele>
        <time>2015-09-24T10:43:46Z</time>
      </trkpt>
      <trkpt lat="42.26526" lon="0.0318">
        <ele>987.2</ele>
        <time>2015-09-24T10:43:47Z</time>
      </trkpt>
      <trkpt lat="42.26528" lon="0.03183">
        <ele>987.6</ele>
        <time>2015-09-24T10:43:48Z</time>
      </trkpt>
      <trkpt lat="42.2653" lon="0.03186">
        <ele>987.9</ele>
        <time>2015-09-24T10:43:49Z</time>
      </trkpt>
      <trkpt lat="42.26532" lon="0.0319">
        <ele>988.2</ele>
        <time>2015-09-24T10:43:50Z</time>
      </trkpt>
      <trkpt lat="42.26534" lon="0.03193">
        <ele>988.6</ele>
        <time>2015-09-24T10:43:51Z</time>
      </trkpt>
      <trkpt lat="42.26536" lon="0.03196">
        <ele>989</ele>
        <time>2015-09-24T10:43:52Z</time>
      </trkpt>
      <trkpt lat="42.26538" lon="0.03198">
        <ele>989.5</ele>
        <time>2015-09-24T10:43:53Z</time>
      </trkpt>
      <trkpt lat="42.26542" lon="0.03203">
        <ele>990.4</ele>
        <time>2015-09-24T10:43:55Z</time>
      </trkpt>
      <trkpt lat="42.26546" lon="0.03206">
        <ele>990.7</ele>
        <time>2015-09-24T10:43:57Z</time>
      </trkpt>
      <trkpt lat="42.26549" lon="0.03209">
        <ele>990.9</ele>
        <time>2015-09-24T10:44:21Z</time>
      </trkpt>
      <trkpt lat="42.26552" lon="0.03214">
        <ele>991.1</ele>
        <time>2015-09-24T10:44:23Z</time>
      </trkpt>
      <trkpt lat="42.26555" lon="0.03216">
        <ele>991.2</ele>
        <time>2015-09-24T10:44:24Z</time>
      </trkpt>
      <trkpt lat="42.26559" lon="0.03218">
        <ele>991.6</ele>
        <time>2015-09-24T10:44:26Z</time>
      </trkpt>
      <trkpt lat="42.26562" lon="0.03218">
        <ele>992</ele>
        <time>2015-09-24T10:44:41Z</time>
      </trkpt>
      <trkpt lat="42.26567" lon="0.0322">
        <ele>992.5</ele>
        <time>2015-09-24T10:44:43Z</time>
      </trkpt>
      <trkpt lat="42.26571" lon="0.03221">
        <ele>992.9</ele>
        <time>2015-09-24T10:44:44Z</time>
      </trkpt>
      <trkpt lat="42.26574" lon="0.0322">
        <ele>993.3</ele>
        <time>2015-09-24T10:44:45Z</time>
      </trkpt>
      <trkpt lat="42.26577" lon="0.0322">
        <ele>993.7</ele>
        <time>2015-09-24T10:44:46Z</time>
      </trkpt>
      <trkpt lat="42.2658" lon="0.03219">
        <ele>994.1</ele>
        <time>2015-09-24T10:44:47Z</time>
      </trkpt>
      <trkpt lat="42.26583" lon="0.03218">
        <ele>994.6</ele>
        <time>2015-09-24T10:44:48Z</time>
      </trkpt>
      <trkpt lat="42.26586" lon="0.03217">
        <ele>995.1</ele>
        <time>2015-09-24T10:44:49Z</time>
      </trkpt>
      <trkpt lat="42.26589" lon="0.03216">
        <ele>995.6</ele>
        <time>2015-09-24T10:44:50Z</time>
      </trkpt>
      <trkpt lat="42.26592" lon="0.03214">
        <ele>996.1</ele>
        <time>2015-09-24T10:44:51Z</time>
      </trkpt>
      <trkpt lat="42.26595" lon="0.03213">
        <ele>996.6</ele>
        <time>2015-09-24T10:44:52Z</time>
      </trkpt>
      <trkpt lat="42.26598" lon="0.03211">
        <ele>997.2</ele>
        <time>2015-09-24T10:44:53Z</time>
      </trkpt>
      <trkpt lat="42.26601" lon="0.03209">
        <ele>997.8</ele>
        <time>2015-09-24T10:44:54Z</time>
      </trkpt>
      <trkpt lat="42.26604" lon="0.03206">
        <ele>998.5</ele>
        <time>2015-09-24T10:44:55Z</time>
      </trkpt>
      <trkpt lat="42.26607" lon="0.03204">
        <ele>999.2</ele>
        <time>2015-09-24T10:44:56Z</time>
      </trkpt>
      <trkpt lat="42.26609" lon="0.03201">
        <ele>999.9</ele>
        <time>2015-09-24T10:44:57Z</time>
      </trkpt>
      <trkpt lat="42.26612" lon="0.03199">
        <ele>1000.6</ele>
        <time>2015-09-24T10:44:58Z</time>
      </trkpt>
      <trkpt lat="42.26615" lon="0.03197">
        <ele>1001.3</ele>
        <time>2015-09-24T10:44:59Z</time>
      </trkpt>
      <trkpt lat="42.26618" lon="0.03196">
        <ele>1001.8</ele>
        <time>2015-09-24T10:45:00Z</time>
      </trkpt>
      <trkpt lat="42.26621" lon="0.03195">
        <ele>1002.4</ele>
        <time>2015-09-24T10:45:01Z</time>
      </trkpt>
      <trkpt lat="42.26626" lon="0.03195">
        <ele>1002.9</ele>
        <time>2015-09-24T10:45:09Z</time>
      </trkpt>
      <trkpt lat="42.2663" lon="0.03194">
        <ele>1003.2</ele>
        <time>2015-09-24T10:45:10Z</time>
      </trkpt>
      <trkpt lat="42.26634" lon="0.03193">
        <ele>1003.6</ele>
        <time>2015-09-24T10:45:11Z</time>
      </trkpt>
      <trkpt lat="42.26639" lon="0.03191">
        <ele>1004</ele>
        <time>2015-09-24T10:45:12Z</time>
      </trkpt>
      <trkpt lat="42.26643" lon="0.0319">
        <ele>1004.4</ele>
        <time>2015-09-24T10:45:13Z</time>
      </trkpt>
      <trkpt lat="42.26648" lon="0.0319">
        <ele>1004.6</ele>
        <time>2015-09-24T10:45:14Z</time>
      </trkpt>
      <trkpt lat="42.26652" lon="0.03194">
        <ele>1004.1</ele>
        <time>2015-09-24T10:45:15Z</time>
      </trkpt>
      <trkpt lat="42.26654" lon="0.032">
        <ele>1003.3</ele>
        <time>2015-09-24T10:45:17Z</time>
      </trkpt>
      <trkpt lat="42.26656" lon="0.03204">
        <ele>1002.7</ele>
        <time>2015-09-24T10:45:21Z</time>
      </trkpt>
      <trkpt lat="42.26657" lon="0.03208">
        <ele>1002.3</ele>
        <time>2015-09-24T10:45:23Z</time>
      </trkpt>
      <trkpt lat="42.26659" lon="0.03213">
        <ele>1001.6</ele>
        <time>2015-09-24T10:45:25Z</time>
      </trkpt>
      <trkpt lat="42.26662" lon="0.03218">
        <ele>1000.9</ele>
        <time>2015-09-24T10:45:27Z</time>
      </trkpt>
      <trkpt lat="42.26664" lon="0.03222">
        <ele>1000.4</ele>
        <time>2015-09-24T10:45:28Z</time>
      </trkpt>
      <trkpt lat="42.26667" lon="0.03226">
        <ele>999.9</ele>
        <time>2015-09-24T10:45:29Z</time>
      </trkpt>
      <trkpt lat="42.26669" lon="0.03231">
        <ele>999.3</ele>
        <time>2015-09-24T10:45:30Z</time>
      </trkpt>
      <trkpt lat="42.26671" lon="0.03236">
        <ele>998.7</ele>
        <time>2015-09-24T10:45:31Z</time>
      </trkpt>
      <trkpt lat="42.26674" lon="0.03241">
        <ele>998</ele>
        <time>2015-09-24T10:45:32Z</time>
      </trkpt>
      <trkpt lat="42.26677" lon="0.03246">
        <ele>997.3</ele>
        <time>2015-09-24T10:45:33Z</time>
      </trkpt>
      <trkpt lat="42.26679" lon="0.03251">
        <ele>996.7</ele>
        <time>2015-09-24T10:45:34Z</time>
      </trkpt>
      <trkpt lat="42.26681" lon="0.03255">
        <ele>996.1</ele>
        <time>2015-09-24T10:45:35Z</time>
      </trkpt>
      <trkpt lat="42.26683" lon="0.03259">
        <ele>995.6</ele>
        <time>2015-09-24T10:45:36Z</time>
      </trkpt>
      <trkpt lat="42.26685" lon="0.03262">
        <ele>995.2</ele>
        <time>2015-09-24T10:45:37Z</time>
      </trkpt>
      <trkpt lat="42.26687" lon="0.03266">
        <ele>994.6</ele>
        <time>2015-09-24T10:45:39Z</time>
      </trkpt>
      <trkpt lat="42.26691" lon="0.03272">
        <ele>993.7</ele>
        <time>2015-09-24T10:45:41Z</time>
      </trkpt>
      <trkpt lat="42.26693" lon="0.03275">
        <ele>993.3</ele>
        <time>2015-09-24T10:45:42Z</time>
      </trkpt>
      <trkpt lat="42.26695" lon="0.03278">
        <ele>992.9</ele>
        <time>2015-09-24T10:45:43Z</time>
      </trkpt>
      <trkpt lat="42.26696" lon="0.03281">
        <ele>992.5</ele>
        <time>2015-09-24T10:45:44Z</time>
      </trkpt>
      <trkpt lat="42.26698" lon="0.03284">
        <ele>992.1</ele>
        <time>2015-09-24T10:45:45Z</time>
      </trkpt>
      <trkpt lat="42.267" lon="0.03287">
        <ele>991.6</ele>
        <time>2015-09-24T10:45:46Z</time>
      </trkpt>
      <trkpt lat="42.26702" lon="0.03291">
        <ele>991.1</ele>
        <time>2015-09-24T10:45:47Z</time>
      </trkpt>
      <trkpt lat="42.26703" lon="0.03294">
        <ele>990.4</ele>
        <time>2015-09-24T10:45:48Z</time>
      </trkpt>
      <trkpt lat="42.26706" lon="0.03298">
        <ele>989.6</ele>
        <time>2015-09-24T10:45:49Z</time>
      </trkpt>
      <trkpt lat="42.26708" lon="0.03302">
        <ele>988.8</ele>
        <time>2015-09-24T10:45:50Z</time>
      </trkpt>
      <trkpt lat="42.26711" lon="0.03307">
        <ele>988.4</ele>
        <time>2015-09-24T10:45:51Z</time>
      </trkpt>
      <trkpt lat="42.26713" lon="0.03311">
        <ele>988.1</ele>
        <time>2015-09-24T10:45:52Z</time>
      </trkpt>
      <trkpt lat="42.26715" lon="0.03316">
        <ele>987.8</ele>
        <time>2015-09-24T10:45:53Z</time>
      </trkpt>
      <trkpt lat="42.26718" lon="0.03321">
        <ele>987.4</ele>
        <time>2015-09-24T10:45:54Z</time>
      </trkpt>
      <trkpt lat="42.2672" lon="0.03326">
        <ele>987</ele>
        <time>2015-09-24T10:45:55Z</time>
      </trkpt>
      <trkpt lat="42.26723" lon="0.03331">
        <ele>986.6</ele>
        <time>2015-09-24T10:45:56Z</time>
      </trkpt>
      <trkpt lat="42.26725" lon="0.03336">
        <ele>986.3</ele>
        <time>2015-09-24T10:45:57Z</time>
      </trkpt>
      <trkpt lat="42.26728" lon="0.03341">
        <ele>986</ele>
        <time>2015-09-24T10:45:58Z</time>
      </trkpt>
      <trkpt lat="42.2673" lon="0.03346">
        <ele>985.7</ele>
        <time>2015-09-24T10:45:59Z</time>
      </trkpt>
      <trkpt lat="42.26733" lon="0.03351">
        <ele>985.4</ele>
        <time>2015-09-24T10:46:00Z</time>
      </trkpt>
      <trkpt lat="42.26734" lon="0.03356">
        <ele>984.8</ele>
        <time>2015-09-24T10:46:01Z</time>
      </trkpt>
      <trkpt lat="42.26737" lon="0.03361">
        <ele>984.5</ele>
        <time>2015-09-24T10:46:02Z</time>
      </trkpt>
      <trkpt lat="42.26739" lon="0.03366">
        <ele>984.3</ele>
        <time>2015-09-24T10:46:03Z</time>
      </trkpt>
      <trkpt lat="42.26742" lon="0.0337">
        <ele>984.1</ele>
        <time>2015-09-24T10:46:04Z</time>
      </trkpt>
      <trkpt lat="42.26744" lon="0.03373">
        <ele>984.1</ele>
        <time>2015-09-24T10:46:05Z</time>
      </trkpt>
      <trkpt lat="42.26746" lon="0.03376">
        <ele>984.1</ele>
        <time>2015-09-24T10:46:06Z</time>
      </trkpt>
      <trkpt lat="42.26748" lon="0.0338">
        <ele>984</ele>
        <time>2015-09-24T10:46:07Z</time>
      </trkpt>
      <trkpt lat="42.2675" lon="0.03384">
        <ele>983.9</ele>
        <time>2015-09-24T10:46:08Z</time>
      </trkpt>
      <trkpt lat="42.26751" lon="0.03387">
        <ele>983.6</ele>
        <time>2015-09-24T10:46:09Z</time>
      </trkpt>
      <trkpt lat="42.26753" lon="0.03391">
        <ele>983.3</ele>
        <time>2015-09-24T10:46:10Z</time>
      </trkpt>
      <trkpt lat="42.26755" lon="0.03397">
        <ele>982.9</ele>
        <time>2015-09-24T10:46:12Z</time>
      </trkpt>
      <trkpt lat="42.26757" lon="0.034">
        <ele>982.8</ele>
        <time>2015-09-24T10:46:13Z</time>
      </trkpt>
      <trkpt lat="42.26759" lon="0.03403">
        <ele>982.6</ele>
        <time>2015-09-24T10:46:14Z</time>
      </trkpt>
      <trkpt lat="42.26761" lon="0.03407">
        <ele>982.4</ele>
        <time>2015-09-24T10:46:15Z</time>
      </trkpt>
      <trkpt lat="42.26763" lon="0.03411">
        <ele>982.2</ele>
        <time>2015-09-24T10:46:16Z</time>
      </trkpt>
      <trkpt lat="42.26764" lon="0.03415">
        <ele>982</ele>
        <time>2015-09-24T10:46:17Z</time>
      </trkpt>
      <trkpt lat="42.26766" lon="0.03419">
        <ele>981.7</ele>
        <time>2015-09-24T10:46:18Z</time>
      </trkpt>
      <trkpt lat="42.26768" lon="0.03422">
        <ele>981.7</ele>
        <time>2015-09-24T10:46:19Z</time>
      </trkpt>
      <trkpt lat="42.26771" lon="0.03425">
        <ele>981.8</ele>
        <time>2015-09-24T10:46:21Z</time>
      </trkpt>
      <trkpt lat="42.26774" lon="0.03429">
        <ele>981.9</ele>
        <time>2015-09-24T10:46:23Z</time>
      </trkpt>
      <trkpt lat="42.26777" lon="0.03432">
        <ele>982.1</ele>
        <time>2015-09-24T10:46:24Z</time>
      </trkpt>
      <trkpt lat="42.26779" lon="0.03434">
        <ele>982.3</ele>
        <time>2015-09-24T10:46:25Z</time>
      </trkpt>
      <trkpt lat="42.26781" lon="0.03436">
        <ele>982.4</ele>
        <time>2015-09-24T10:46:26Z</time>
      </trkpt>
      <trkpt lat="42.26783" lon="0.03439">
        <ele>982.4</ele>
        <time>2015-09-24T10:46:27Z</time>
      </trkpt>
      <trkpt lat="42.26785" lon="0.03442">
        <ele>982.4</ele>
        <time>2015-09-24T10:46:28Z</time>
      </trkpt>
      <trkpt lat="42.26788" lon="0.03445">
        <ele>982.7</ele>
        <time>2015-09-24T10:46:29Z</time>
      </trkpt>
      <trkpt lat="42.26791" lon="0.03446">
        <ele>983.2</ele>
        <time>2015-09-24T10:46:30Z</time>
      </trkpt>
      <trkpt lat="42.26794" lon="0.03448">
        <ele>983.4</ele>
        <time>2015-09-24T10:46:31Z</time>
      </trkpt>
      <trkpt lat="42.268" lon="0.03449">
        <ele>983.9</ele>
        <time>2015-09-24T10:46:33Z</time>
      </trkpt>
      <trkpt lat="42.26802" lon="0.03449">
        <ele>984.4</ele>
        <time>2015-09-24T10:46:34Z</time>
      </trkpt>
      <trkpt lat="42.26806" lon="0.03448">
        <ele>985.1</ele>
        <time>2015-09-24T10:46:35Z</time>
      </trkpt>
      <trkpt lat="42.2681" lon="0.03446">
        <ele>986.1</ele>
        <time>2015-09-24T10:46:36Z</time>
      </trkpt>
      <trkpt lat="42.26814" lon="0.03444">
        <ele>987.1</ele>
        <time>2015-09-24T10:46:37Z</time>
      </trkpt>
      <trkpt lat="42.26818" lon="0.03442">
        <ele>988</ele>
        <time>2015-09-24T10:46:38Z</time>
      </trkpt>
      <trkpt lat="42.26822" lon="0.03441">
        <ele>989</ele>
        <time>2015-09-24T10:46:39Z</time>
      </trkpt>
      <trkpt lat="42.26826" lon="0.03439">
        <ele>989.8</ele>
        <time>2015-09-24T10:46:40Z</time>
      </trkpt>
      <trkpt lat="42.2683" lon="0.03437">
        <ele>990.7</ele>
        <time>2015-09-24T10:46:41Z</time>
      </trkpt>
      <trkpt lat="42.26835" lon="0.03437">
        <ele>991.5</ele>
        <time>2015-09-24T10:46:43Z</time>
      </trkpt>
      <trkpt lat="42.26838" lon="0.03439">
        <ele>991.6</ele>
        <time>2015-09-24T10:46:44Z</time>
      </trkpt>
      <trkpt lat="42.2684" lon="0.03441">
        <ele>991.5</ele>
        <time>2015-09-24T10:46:45Z</time>
      </trkpt>
      <trkpt lat="42.26842" lon="0.03445">
        <ele>991.3</ele>
        <time>2015-09-24T10:46:46Z</time>
      </trkpt>
      <trkpt lat="42.26845" lon="0.03448">
        <ele>991</ele>
        <time>2015-09-24T10:46:47Z</time>
      </trkpt>
      <trkpt lat="42.26847" lon="0.03453">
        <ele>990.5</ele>
        <time>2015-09-24T10:46:48Z</time>
      </trkpt>
      <trkpt lat="42.26849" lon="0.03458">
        <ele>990</ele>
        <time>2015-09-24T10:46:49Z</time>
      </trkpt>
      <trkpt lat="42.26851" lon="0.03464">
        <ele>989.4</ele>
        <time>2015-09-24T10:46:50Z</time>
      </trkpt>
      <trkpt lat="42.26854" lon="0.03469">
        <ele>988.7</ele>
        <time>2015-09-24T10:46:51Z</time>
      </trkpt>
      <trkpt lat="42.26856" lon="0.03476">
        <ele>987.7</ele>
        <time>2015-09-24T10:46:52Z</time>
      </trkpt>
      <trkpt lat="42.26858" lon="0.0348">
        <ele>987.4</ele>
        <time>2015-09-24T10:46:53Z</time>
      </trkpt>
      <trkpt lat="42.2686" lon="0.03483">
        <ele>987.2</ele>
        <time>2015-09-24T10:46:55Z</time>
      </trkpt>
      <trkpt lat="42.26862" lon="0.03486">
        <ele>986.8</ele>
        <time>2015-09-24T10:46:57Z</time>
      </trkpt>
      <trkpt lat="42.26864" lon="0.03491">
        <ele>986.1</ele>
        <time>2015-09-24T10:46:59Z</time>
      </trkpt>
      <trkpt lat="42.26867" lon="0.03497">
        <ele>985.5</ele>
        <time>2015-09-24T10:47:01Z</time>
      </trkpt>
      <trkpt lat="42.26868" lon="0.035">
        <ele>985</ele>
        <time>2015-09-24T10:47:02Z</time>
      </trkpt>
      <trkpt lat="42.2687" lon="0.03504">
        <ele>984.5</ele>
        <time>2015-09-24T10:47:03Z</time>
      </trkpt>
      <trkpt lat="42.26871" lon="0.03507">
        <ele>984.1</ele>
        <time>2015-09-24T10:47:04Z</time>
      </trkpt>
      <trkpt lat="42.26875" lon="0.03512">
        <ele>983.6</ele>
        <time>2015-09-24T10:47:06Z</time>
      </trkpt>
      <trkpt lat="42.26878" lon="0.03517">
        <ele>983.6</ele>
        <time>2015-09-24T10:47:08Z</time>
      </trkpt>
      <trkpt lat="42.26881" lon="0.03523">
        <ele>983.2</ele>
        <time>2015-09-24T10:47:10Z</time>
      </trkpt>
      <trkpt lat="42.26883" lon="0.03526">
        <ele>983</ele>
        <time>2015-09-24T10:47:11Z</time>
      </trkpt>
      <trkpt lat="42.26884" lon="0.03529">
        <ele>982.8</ele>
        <time>2015-09-24T10:47:12Z</time>
      </trkpt>
      <trkpt lat="42.26886" lon="0.03533">
        <ele>982.6</ele>
        <time>2015-09-24T10:47:13Z</time>
      </trkpt>
      <trkpt lat="42.26887" lon="0.03536">
        <ele>982.3</ele>
        <time>2015-09-24T10:47:14Z</time>
      </trkpt>
      <trkpt lat="42.26888" lon="0.0354">
        <ele>981.9</ele>
        <time>2015-09-24T10:47:15Z</time>
      </trkpt>
      <trkpt lat="42.2689" lon="0.03545">
        <ele>981.4</ele>
        <time>2015-09-24T10:47:16Z</time>
      </trkpt>
      <trkpt lat="42.26891" lon="0.0355">
        <ele>980.8</ele>
        <time>2015-09-24T10:47:17Z</time>
      </trkpt>
      <trkpt lat="42.26893" lon="0.03555">
        <ele>980.3</ele>
        <time>2015-09-24T10:47:18Z</time>
      </trkpt>
      <trkpt lat="42.26895" lon="0.0356">
        <ele>979.8</ele>
        <time>2015-09-24T10:47:19Z</time>
      </trkpt>
      <trkpt lat="42.26896" lon="0.03565">
        <ele>979.4</ele>
        <time>2015-09-24T10:47:20Z</time>
      </trkpt>
      <trkpt lat="42.26898" lon="0.0357">
        <ele>978.9</ele>
        <time>2015-09-24T10:47:21Z</time>
      </trkpt>
      <trkpt lat="42.269" lon="0.03575">
        <ele>978.4</ele>
        <time>2015-09-24T10:47:22Z</time>
      </trkpt>
      <trkpt lat="42.26901" lon="0.03581">
        <ele>977.8</ele>
        <time>2015-09-24T10:47:23Z</time>
      </trkpt>
      <trkpt lat="42.26902" lon="0.03586">
        <ele>977.1</ele>
        <time>2015-09-24T10:47:24Z</time>
      </trkpt>
      <trkpt lat="42.26903" lon="0.03592">
        <ele>976.4</ele>
        <time>2015-09-24T10:47:25Z</time>
      </trkpt>
      <trkpt lat="42.26905" lon="0.03597">
        <ele>975.8</ele>
        <time>2015-09-24T10:47:26Z</time>
      </trkpt>
      <trkpt lat="42.26906" lon="0.03603">
        <ele>975.2</ele>
        <time>2015-09-24T10:47:27Z</time>
      </trkpt>
      <trkpt lat="42.26908" lon="0.03608">
        <ele>974.7</ele>
        <time>2015-09-24T10:47:28Z</time>
      </trkpt>
      <trkpt lat="42.26909" lon="0.03613">
        <ele>974.1</ele>
        <time>2015-09-24T10:47:29Z</time>
      </trkpt>
      <trkpt lat="42.2691" lon="0.03619">
        <ele>973.5</ele>
        <time>2015-09-24T10:47:30Z</time>
      </trkpt>
      <trkpt lat="42.26911" lon="0.03624">
        <ele>972.8</ele>
        <time>2015-09-24T10:47:31Z</time>
      </trkpt>
      <trkpt lat="42.26912" lon="0.0363">
        <ele>972.6</ele>
        <time>2015-09-24T10:47:32Z</time>
      </trkpt>
      <trkpt lat="42.26914" lon="0.03635">
        <ele>972.4</ele>
        <time>2015-09-24T10:47:33Z</time>
      </trkpt>
      <trkpt lat="42.26915" lon="0.03641">
        <ele>972.2</ele>
        <time>2015-09-24T10:47:34Z</time>
      </trkpt>
      <trkpt lat="42.26916" lon="0.03647">
        <ele>971.8</ele>
        <time>2015-09-24T10:47:35Z</time>
      </trkpt>
      <trkpt lat="42.26917" lon="0.03652">
        <ele>971.5</ele>
        <time>2015-09-24T10:47:36Z</time>
      </trkpt>
      <trkpt lat="42.26918" lon="0.03657">
        <ele>971.1</ele>
        <time>2015-09-24T10:47:37Z</time>
      </trkpt>
      <trkpt lat="42.26918" lon="0.03661">
        <ele>970.9</ele>
        <time>2015-09-24T10:47:38Z</time>
      </trkpt>
      <trkpt lat="42.26919" lon="0.03666">
        <ele>970.6</ele>
        <time>2015-09-24T10:47:39Z</time>
      </trkpt>
      <trkpt lat="42.2692" lon="0.0367">
        <ele>970.4</ele>
        <time>2015-09-24T10:47:40Z</time>
      </trkpt>
      <trkpt lat="42.26921" lon="0.03674">
        <ele>970.1</ele>
        <time>2015-09-24T10:47:41Z</time>
      </trkpt>
      <trkpt lat="42.26922" lon="0.03678">
        <ele>970</ele>
        <time>2015-09-24T10:47:42Z</time>
      </trkpt>
      <trkpt lat="42.26923" lon="0.03682">
        <ele>969.9</ele>
        <time>2015-09-24T10:47:43Z</time>
      </trkpt>
      <trkpt lat="42.26924" lon="0.03686">
        <ele>969.9</ele>
        <time>2015-09-24T10:47:44Z</time>
      </trkpt>
      <trkpt lat="42.26926" lon="0.0369">
        <ele>970</ele>
        <time>2015-09-24T10:47:45Z</time>
      </trkpt>
      <trkpt lat="42.26928" lon="0.03694">
        <ele>970.1</ele>
        <time>2015-09-24T10:47:46Z</time>
      </trkpt>
      <trkpt lat="42.2693" lon="0.03698">
        <ele>970.3</ele>
        <time>2015-09-24T10:47:47Z</time>
      </trkpt>
      <trkpt lat="42.26932" lon="0.03702">
        <ele>970.6</ele>
        <time>2015-09-24T10:47:48Z</time>
      </trkpt>
      <trkpt lat="42.26935" lon="0.03706">
        <ele>971</ele>
        <time>2015-09-24T10:47:49Z</time>
      </trkpt>
      <trkpt lat="42.26938" lon="0.0371">
        <ele>971.6</ele>
        <time>2015-09-24T10:47:50Z</time>
      </trkpt>
      <trkpt lat="42.26941" lon="0.03714">
        <ele>972.4</ele>
        <time>2015-09-24T10:47:51Z</time>
      </trkpt>
      <trkpt lat="42.26945" lon="0.03718">
        <ele>973.3</ele>
        <time>2015-09-24T10:47:52Z</time>
      </trkpt>
      <trkpt lat="42.26951" lon="0.03722">
        <ele>974.8</ele>
        <time>2015-09-24T10:47:53Z</time>
      </trkpt>
      <trkpt lat="42.26954" lon="0.03725">
        <ele>975.8</ele>
        <time>2015-09-24T10:47:54Z</time>
      </trkpt>
      <trkpt lat="42.26958" lon="0.03727">
        <ele>976.9</ele>
        <time>2015-09-24T10:47:55Z</time>
      </trkpt>
      <trkpt lat="42.26963" lon="0.0373">
        <ele>977.2</ele>
        <time>2015-09-24T10:47:56Z</time>
      </trkpt>
      <trkpt lat="42.26966" lon="0.03733">
        <ele>977.4</ele>
        <time>2015-09-24T10:47:57Z</time>
      </trkpt>
      <trkpt lat="42.2697" lon="0.03734">
        <ele>977.6</ele>
        <time>2015-09-24T10:47:58Z</time>
      </trkpt>
      <trkpt lat="42.26974" lon="0.03737">
        <ele>977.8</ele>
        <time>2015-09-24T10:47:59Z</time>
      </trkpt>
      <trkpt lat="42.26976" lon="0.03738">
        <ele>977.9</ele>
        <time>2015-09-24T10:48:00Z</time>
      </trkpt>
      <trkpt lat="42.26979" lon="0.0374">
        <ele>978</ele>
        <time>2015-09-24T10:48:01Z</time>
      </trkpt>
      <trkpt lat="42.26981" lon="0.03742">
        <ele>978.1</ele>
        <time>2015-09-24T10:48:02Z</time>
      </trkpt>
      <trkpt lat="42.26984" lon="0.03745">
        <ele>978.1</ele>
        <time>2015-09-24T10:48:03Z</time>
      </trkpt>
      <trkpt lat="42.26987" lon="0.03747">
        <ele>978.2</ele>
        <time>2015-09-24T10:48:04Z</time>
      </trkpt>
      <trkpt lat="42.26991" lon="0.03749">
        <ele>978.4</ele>
        <time>2015-09-24T10:48:05Z</time>
      </trkpt>
      <trkpt lat="42.26994" lon="0.0375">
        <ele>978.5</ele>
        <time>2015-09-24T10:48:06Z</time>
      </trkpt>
      <trkpt lat="42.26998" lon="0.03752">
        <ele>978.7</ele>
        <time>2015-09-24T10:48:07Z</time>
      </trkpt>
      <trkpt lat="42.27002" lon="0.03753">
        <ele>978.8</ele>
        <time>2015-09-24T10:48:08Z</time>
      </trkpt>
      <trkpt lat="42.27005" lon="0.03754">
        <ele>978.9</ele>
        <time>2015-09-24T10:48:09Z</time>
      </trkpt>
      <trkpt lat="42.27008" lon="0.03756">
        <ele>979</ele>
        <time>2015-09-24T10:48:10Z</time>
      </trkpt>
      <trkpt lat="42.27012" lon="0.03757">
        <ele>979.2</ele>
        <time>2015-09-24T10:48:11Z</time>
      </trkpt>
      <trkpt lat="42.27016" lon="0.03758">
        <ele>979.2</ele>
        <time>2015-09-24T10:48:12Z</time>
      </trkpt>
      <trkpt lat="42.27019" lon="0.0376">
        <ele>979.3</ele>
        <time>2015-09-24T10:48:13Z</time>
      </trkpt>
      <trkpt lat="42.27024" lon="0.03761">
        <ele>979.6</ele>
        <time>2015-09-24T10:48:15Z</time>
      </trkpt>
      <trkpt lat="42.27027" lon="0.03761">
        <ele>979.7</ele>
        <time>2015-09-24T10:48:16Z</time>
      </trkpt>
      <trkpt lat="42.2703" lon="0.03761">
        <ele>979.9</ele>
        <time>2015-09-24T10:48:17Z</time>
      </trkpt>
      <trkpt lat="42.27032" lon="0.03762">
        <ele>980</ele>
        <time>2015-09-24T10:48:18Z</time>
      </trkpt>
      <trkpt lat="42.27035" lon="0.03762">
        <ele>980.1</ele>
        <time>2015-09-24T10:48:19Z</time>
      </trkpt>
      <trkpt lat="42.27039" lon="0.03764">
        <ele>980.2</ele>
        <time>2015-09-24T10:48:20Z</time>
      </trkpt>
      <trkpt lat="42.27043" lon="0.03766">
        <ele>980</ele>
        <time>2015-09-24T10:48:21Z</time>
      </trkpt>
      <trkpt lat="42.27046" lon="0.03767">
        <ele>979.7</ele>
        <time>2015-09-24T10:48:22Z</time>
      </trkpt>
      <trkpt lat="42.2705" lon="0.03768">
        <ele>979.5</ele>
        <time>2015-09-24T10:48:23Z</time>
      </trkpt>
      <trkpt lat="42.27053" lon="0.03767">
        <ele>979.6</ele>
        <time>2015-09-24T10:48:24Z</time>
      </trkpt>
      <trkpt lat="42.27057" lon="0.03766">
        <ele>979.6</ele>
        <time>2015-09-24T10:48:25Z</time>
      </trkpt>
      <trkpt lat="42.27061" lon="0.03766">
        <ele>979.6</ele>
        <time>2015-09-24T10:48:26Z</time>
      </trkpt>
      <trkpt lat="42.27065" lon="0.03765">
        <ele>979.5</ele>
        <time>2015-09-24T10:48:27Z</time>
      </trkpt>
      <trkpt lat="42.27069" lon="0.03765">
        <ele>979.6</ele>
        <time>2015-09-24T10:48:28Z</time>
      </trkpt>
      <trkpt lat="42.27073" lon="0.03763">
        <ele>979.8</ele>
        <time>2015-09-24T10:48:29Z</time>
      </trkpt>
      <trkpt lat="42.27078" lon="0.03761">
        <ele>979.9</ele>
        <time>2015-09-24T10:48:30Z</time>
      </trkpt>
      <trkpt lat="42.27082" lon="0.0376">
        <ele>980</ele>
        <time>2015-09-24T10:48:31Z</time>
      </trkpt>
      <trkpt lat="42.27087" lon="0.0376">
        <ele>980</ele>
        <time>2015-09-24T10:48:32Z</time>
      </trkpt>
      <trkpt lat="42.27091" lon="0.0376">
        <ele>979.9</ele>
        <time>2015-09-24T10:48:33Z</time>
      </trkpt>
      <trkpt lat="42.27095" lon="0.03761">
        <ele>979.5</ele>
        <time>2015-09-24T10:48:34Z</time>
      </trkpt>
      <trkpt lat="42.271" lon="0.03764">
        <ele>979</ele>
        <time>2015-09-24T10:48:35Z</time>
      </trkpt>
      <trkpt lat="42.27105" lon="0.03767">
        <ele>978.3</ele>
        <time>2015-09-24T10:48:36Z</time>
      </trkpt>
      <trkpt lat="42.2711" lon="0.03769">
        <ele>977.8</ele>
        <time>2015-09-24T10:48:37Z</time>
      </trkpt>
      <trkpt lat="42.27114" lon="0.03772">
        <ele>977.1</ele>
        <time>2015-09-24T10:48:38Z</time>
      </trkpt>
      <trkpt lat="42.27119" lon="0.03775">
        <ele>976.4</ele>
        <time>2015-09-24T10:48:39Z</time>
      </trkpt>
      <trkpt lat="42.27124" lon="0.03778">
        <ele>975.7</ele>
        <time>2015-09-24T10:48:40Z</time>
      </trkpt>
      <trkpt lat="42.27128" lon="0.03782">
        <ele>975</ele>
        <time>2015-09-24T10:48:41Z</time>
      </trkpt>
      <trkpt lat="42.27132" lon="0.03787">
        <ele>974.4</ele>
        <time>2015-09-24T10:48:42Z</time>
      </trkpt>
      <trkpt lat="42.27136" lon="0.03792">
        <ele>973.7</ele>
        <time>2015-09-24T10:48:43Z</time>
      </trkpt>
      <trkpt lat="42.2714" lon="0.03797">
        <ele>973.2</ele>
        <time>2015-09-24T10:48:44Z</time>
      </trkpt>
      <trkpt lat="42.27144" lon="0.03802">
        <ele>972.8</ele>
        <time>2015-09-24T10:48:45Z</time>
      </trkpt>
      <trkpt lat="42.27148" lon="0.03806">
        <ele>972.5</ele>
        <time>2015-09-24T10:48:46Z</time>
      </trkpt>
      <trkpt lat="42.27152" lon="0.03811">
        <ele>972</ele>
        <time>2015-09-24T10:48:47Z</time>
      </trkpt>
      <trkpt lat="42.27156" lon="0.03815">
        <ele>971.6</ele>
        <time>2015-09-24T10:48:48Z</time>
      </trkpt>
      <trkpt lat="42.27159" lon="0.0382">
        <ele>971.1</ele>
        <time>2015-09-24T10:48:49Z</time>
      </trkpt>
      <trkpt lat="42.27163" lon="0.03825">
        <ele>970.6</ele>
        <time>2015-09-24T10:48:50Z</time>
      </trkpt>
      <trkpt lat="42.27167" lon="0.0383">
        <ele>969.9</ele>
        <time>2015-09-24T10:48:51Z</time>
      </trkpt>
      <trkpt lat="42.27171" lon="0.03836">
        <ele>969.2</ele>
        <time>2015-09-24T10:48:52Z</time>
      </trkpt>
      <trkpt lat="42.27175" lon="0.03842">
        <ele>968.5</ele>
        <time>2015-09-24T10:48:53Z</time>
      </trkpt>
      <trkpt lat="42.2718" lon="0.03847">
        <ele>967.9</ele>
        <time>2015-09-24T10:48:54Z</time>
      </trkpt>
      <trkpt lat="42.27185" lon="0.03853">
        <ele>967.2</ele>
        <time>2015-09-24T10:48:55Z</time>
      </trkpt>
      <trkpt lat="42.2719" lon="0.03856">
        <ele>966.7</ele>
        <time>2015-09-24T10:48:56Z</time>
      </trkpt>
      <trkpt lat="42.27195" lon="0.03859">
        <ele>966.4</ele>
        <time>2015-09-24T10:48:57Z</time>
      </trkpt>
      <trkpt lat="42.27199" lon="0.03863">
        <ele>965.9</ele>
        <time>2015-09-24T10:48:58Z</time>
      </trkpt>
      <trkpt lat="42.27204" lon="0.03865">
        <ele>965.5</ele>
        <time>2015-09-24T10:48:59Z</time>
      </trkpt>
      <trkpt lat="42.27209" lon="0.03868">
        <ele>965.2</ele>
        <time>2015-09-24T10:49:00Z</time>
      </trkpt>
      <trkpt lat="42.27212" lon="0.03872">
        <ele>965.1</ele>
        <time>2015-09-24T10:49:01Z</time>
      </trkpt>
      <trkpt lat="42.27217" lon="0.03873">
        <ele>965.5</ele>
        <time>2015-09-24T10:49:02Z</time>
      </trkpt>
      <trkpt lat="42.27221" lon="0.03875">
        <ele>966</ele>
        <time>2015-09-24T10:49:03Z</time>
      </trkpt>
      <trkpt lat="42.27225" lon="0.03877">
        <ele>966.3</ele>
        <time>2015-09-24T10:49:04Z</time>
      </trkpt>
      <trkpt lat="42.27229" lon="0.03878">
        <ele>966.6</ele>
        <time>2015-09-24T10:49:05Z</time>
      </trkpt>
      <trkpt lat="42.27232" lon="0.03879">
        <ele>966.9</ele>
        <time>2015-09-24T10:49:06Z</time>
      </trkpt>
      <trkpt lat="42.27236" lon="0.03881">
        <ele>967.2</ele>
        <time>2015-09-24T10:49:07Z</time>
      </trkpt>
      <trkpt lat="42.2724" lon="0.03883">
        <ele>967.5</ele>
        <time>2015-09-24T10:49:08Z</time>
      </trkpt>
      <trkpt lat="42.27244" lon="0.03885">
        <ele>967.7</ele>
        <time>2015-09-24T10:49:09Z</time>
      </trkpt>
      <trkpt lat="42.27248" lon="0.03887">
        <ele>967.8</ele>
        <time>2015-09-24T10:49:10Z</time>
      </trkpt>
      <trkpt lat="42.27251" lon="0.03889">
        <ele>967.9</ele>
        <time>2015-09-24T10:49:11Z</time>
      </trkpt>
      <trkpt lat="42.27254" lon="0.0389">
        <ele>968</ele>
        <time>2015-09-24T10:49:12Z</time>
      </trkpt>
      <trkpt lat="42.27257" lon="0.03891">
        <ele>968.1</ele>
        <time>2015-09-24T10:49:13Z</time>
      </trkpt>
      <trkpt lat="42.27259" lon="0.03893">
        <ele>968.1</ele>
        <time>2015-09-24T10:49:14Z</time>
      </trkpt>
      <trkpt lat="42.27262" lon="0.03894">
        <ele>968.2</ele>
        <time>2015-09-24T10:49:15Z</time>
      </trkpt>
      <trkpt lat="42.27267" lon="0.03896">
        <ele>968.4</ele>
        <time>2015-09-24T10:49:17Z</time>
      </trkpt>
      <trkpt lat="42.27272" lon="0.03898">
        <ele>968.6</ele>
        <time>2015-09-24T10:49:19Z</time>
      </trkpt>
      <trkpt lat="42.27275" lon="0.03899">
        <ele>968.5</ele>
        <time>2015-09-24T10:49:20Z</time>
      </trkpt>
      <trkpt lat="42.27279" lon="0.03902">
        <ele>968.4</ele>
        <time>2015-09-24T10:49:21Z</time>
      </trkpt>
      <trkpt lat="42.27282" lon="0.03904">
        <ele>968.2</ele>
        <time>2015-09-24T10:49:22Z</time>
      </trkpt>
      <trkpt lat="42.27286" lon="0.03907">
        <ele>968</ele>
        <time>2015-09-24T10:49:23Z</time>
      </trkpt>
      <trkpt lat="42.2729" lon="0.0391">
        <ele>967.7</ele>
        <time>2015-09-24T10:49:24Z</time>
      </trkpt>
      <trkpt lat="42.27294" lon="0.03913">
        <ele>967.4</ele>
        <time>2015-09-24T10:49:25Z</time>
      </trkpt>
      <trkpt lat="42.27297" lon="0.03916">
        <ele>967.1</ele>
        <time>2015-09-24T10:49:26Z</time>
      </trkpt>
      <trkpt lat="42.27301" lon="0.0392">
        <ele>966.9</ele>
        <time>2015-09-24T10:49:27Z</time>
      </trkpt>
      <trkpt lat="42.27305" lon="0.03923">
        <ele>966.6</ele>
        <time>2015-09-24T10:49:28Z</time>
      </trkpt>
      <trkpt lat="42.27308" lon="0.03927">
        <ele>966.1</ele>
        <time>2015-09-24T10:49:29Z</time>
      </trkpt>
      <trkpt lat="42.27311" lon="0.03932">
        <ele>965.5</ele>
        <time>2015-09-24T10:49:30Z</time>
      </trkpt>
      <trkpt lat="42.27315" lon="0.03937">
        <ele>964.8</ele>
        <time>2015-09-24T10:49:31Z</time>
      </trkpt>
      <trkpt lat="42.27318" lon="0.03939">
        <ele>964.6</ele>
        <time>2015-09-24T10:49:32Z</time>
      </trkpt>
      <trkpt lat="42.27321" lon="0.03943">
        <ele>964.2</ele>
        <time>2015-09-24T10:49:33Z</time>
      </trkpt>
      <trkpt lat="42.27324" lon="0.03947">
        <ele>963.8</ele>
        <time>2015-09-24T10:49:34Z</time>
      </trkpt>
      <trkpt lat="42.27327" lon="0.03951">
        <ele>963.3</ele>
        <time>2015-09-24T10:49:35Z</time>
      </trkpt>
      <trkpt lat="42.2733" lon="0.03954">
        <ele>963</ele>
        <time>2015-09-24T10:49:36Z</time>
      </trkpt>
      <trkpt lat="42.27333" lon="0.03957">
        <ele>962.8</ele>
        <time>2015-09-24T10:49:37Z</time>
      </trkpt>
      <trkpt lat="42.27336" lon="0.0396">
        <ele>962.6</ele>
        <time>2015-09-24T10:49:38Z</time>
      </trkpt>
      <trkpt lat="42.27339" lon="0.03964">
        <ele>962.3</ele>
        <time>2015-09-24T10:49:39Z</time>
      </trkpt>
      <trkpt lat="42.27342" lon="0.03968">
        <ele>962</ele>
        <time>2015-09-24T10:49:40Z</time>
      </trkpt>
      <trkpt lat="42.27345" lon="0.03972">
        <ele>961.8</ele>
        <time>2015-09-24T10:49:41Z</time>
      </trkpt>
      <trkpt lat="42.27348" lon="0.03975">
        <ele>961.6</ele>
        <time>2015-09-24T10:49:42Z</time>
      </trkpt>
      <trkpt lat="42.27351" lon="0.03979">
        <ele>961.3</ele>
        <time>2015-09-24T10:49:43Z</time>
      </trkpt>
      <trkpt lat="42.27354" lon="0.03982">
        <ele>961</ele>
        <time>2015-09-24T10:49:44Z</time>
      </trkpt>
      <trkpt lat="42.27357" lon="0.03986">
        <ele>960.7</ele>
        <time>2015-09-24T10:49:45Z</time>
      </trkpt>
      <trkpt lat="42.27359" lon="0.0399">
        <ele>960.3</ele>
        <time>2015-09-24T10:49:46Z</time>
      </trkpt>
      <trkpt lat="42.27362" lon="0.03994">
        <ele>959.9</ele>
        <time>2015-09-24T10:49:47Z</time>
      </trkpt>
      <trkpt lat="42.27365" lon="0.03997">
        <ele>959.6</ele>
        <time>2015-09-24T10:49:48Z</time>
      </trkpt>
      <trkpt lat="42.27368" lon="0.04">
        <ele>959.4</ele>
        <time>2015-09-24T10:49:49Z</time>
      </trkpt>
      <trkpt lat="42.27371" lon="0.04003">
        <ele>959.1</ele>
        <time>2015-09-24T10:49:50Z</time>
      </trkpt>
      <trkpt lat="42.27374" lon="0.04007">
        <ele>958.8</ele>
        <time>2015-09-24T10:49:51Z</time>
      </trkpt>
      <trkpt lat="42.27377" lon="0.0401">
        <ele>958.5</ele>
        <time>2015-09-24T10:49:52Z</time>
      </trkpt>
      <trkpt lat="42.2738" lon="0.04014">
        <ele>958.2</ele>
        <time>2015-09-24T10:49:53Z</time>
      </trkpt>
      <trkpt lat="42.27383" lon="0.04017">
        <ele>957.9</ele>
        <time>2015-09-24T10:49:54Z</time>
      </trkpt>
      <trkpt lat="42.27386" lon="0.04021">
        <ele>957.6</ele>
        <time>2015-09-24T10:49:55Z</time>
      </trkpt>
      <trkpt lat="42.2739" lon="0.04025">
        <ele>957.3</ele>
        <time>2015-09-24T10:49:56Z</time>
      </trkpt>
      <trkpt lat="42.27393" lon="0.04029">
        <ele>957</ele>
        <time>2015-09-24T10:49:57Z</time>
      </trkpt>
      <trkpt lat="42.27396" lon="0.04032">
        <ele>956.9</ele>
        <time>2015-09-24T10:49:58Z</time>
      </trkpt>
      <trkpt lat="42.274" lon="0.04035">
        <ele>956.9</ele>
        <time>2015-09-24T10:49:59Z</time>
      </trkpt>
      <trkpt lat="42.27403" lon="0.04038">
        <ele>956.9</ele>
        <time>2015-09-24T10:50:00Z</time>
      </trkpt>
      <trkpt lat="42.27407" lon="0.04041">
        <ele>956.9</ele>
        <time>2015-09-24T10:50:01Z</time>
      </trkpt>
      <trkpt lat="42.27411" lon="0.04043">
        <ele>957.1</ele>
        <time>2015-09-24T10:50:02Z</time>
      </trkpt>
      <trkpt lat="42.27415" lon="0.04045">
        <ele>957.3</ele>
        <time>2015-09-24T10:50:03Z</time>
      </trkpt>
      <trkpt lat="42.27418" lon="0.04047">
        <ele>957.6</ele>
        <time>2015-09-24T10:50:04Z</time>
      </trkpt>
      <trkpt lat="42.27422" lon="0.04049">
        <ele>957.8</ele>
        <time>2015-09-24T10:50:05Z</time>
      </trkpt>
      <trkpt lat="42.27426" lon="0.0405">
        <ele>958.2</ele>
        <time>2015-09-24T10:50:06Z</time>
      </trkpt>
      <trkpt lat="42.2743" lon="0.04052">
        <ele>958.7</ele>
        <time>2015-09-24T10:50:07Z</time>
      </trkpt>
      <trkpt lat="42.27435" lon="0.04053">
        <ele>959.1</ele>
        <time>2015-09-24T10:50:08Z</time>
      </trkpt>
      <trkpt lat="42.27439" lon="0.04054">
        <ele>959.6</ele>
        <time>2015-09-24T10:50:09Z</time>
      </trkpt>
      <trkpt lat="42.27443" lon="0.04056">
        <ele>960</ele>
        <time>2015-09-24T10:50:10Z</time>
      </trkpt>
      <trkpt lat="42.27449" lon="0.04056">
        <ele>960.9</ele>
        <time>2015-09-24T10:50:11Z</time>
      </trkpt>
      <trkpt lat="42.27453" lon="0.04056">
        <ele>961.6</ele>
        <time>2015-09-24T10:50:12Z</time>
      </trkpt>
      <trkpt lat="42.27458" lon="0.04057">
        <ele>962.3</ele>
        <time>2015-09-24T10:50:13Z</time>
      </trkpt>
      <trkpt lat="42.27462" lon="0.04058">
        <ele>962.3</ele>
        <time>2015-09-24T10:50:14Z</time>
      </trkpt>
      <trkpt lat="42.27468" lon="0.04058">
        <ele>962.5</ele>
        <time>2015-09-24T10:50:15Z</time>
      </trkpt>
      <trkpt lat="42.27472" lon="0.04058">
        <ele>962.7</ele>
        <time>2015-09-24T10:50:16Z</time>
      </trkpt>
      <trkpt lat="42.27477" lon="0.04057">
        <ele>963</ele>
        <time>2015-09-24T10:50:17Z</time>
      </trkpt>
      <trkpt lat="42.27481" lon="0.04056">
        <ele>963.4</ele>
        <time>2015-09-24T10:50:18Z</time>
      </trkpt>
      <trkpt lat="42.27486" lon="0.04055">
        <ele>963.9</ele>
        <time>2015-09-24T10:50:19Z</time>
      </trkpt>
      <trkpt lat="42.2749" lon="0.04054">
        <ele>964.1</ele>
        <time>2015-09-24T10:50:20Z</time>
      </trkpt>
      <trkpt lat="42.27495" lon="0.04053">
        <ele>964.5</ele>
        <time>2015-09-24T10:50:21Z</time>
      </trkpt>
      <trkpt lat="42.275" lon="0.04052">
        <ele>965</ele>
        <time>2015-09-24T10:50:22Z</time>
      </trkpt>
      <trkpt lat="42.27505" lon="0.0405">
        <ele>965.6</ele>
        <time>2015-09-24T10:50:23Z</time>
      </trkpt>
      <trkpt lat="42.27509" lon="0.04049">
        <ele>966.2</ele>
        <time>2015-09-24T10:50:24Z</time>
      </trkpt>
      <trkpt lat="42.27513" lon="0.04046">
        <ele>966.8</ele>
        <time>2015-09-24T10:50:25Z</time>
      </trkpt>
      <trkpt lat="42.27518" lon="0.04044">
        <ele>967.5</ele>
        <time>2015-09-24T10:50:26Z</time>
      </trkpt>
      <trkpt lat="42.27523" lon="0.04043">
        <ele>968.1</ele>
        <time>2015-09-24T10:50:27Z</time>
      </trkpt>
      <trkpt lat="42.27528" lon="0.04041">
        <ele>968.6</ele>
        <time>2015-09-24T10:50:28Z</time>
      </trkpt>
      <trkpt lat="42.27532" lon="0.0404">
        <ele>969.1</ele>
        <time>2015-09-24T10:50:29Z</time>
      </trkpt>
      <trkpt lat="42.27537" lon="0.04036">
        <ele>969.9</ele>
        <time>2015-09-24T10:50:30Z</time>
      </trkpt>
      <trkpt lat="42.27541" lon="0.04033">
        <ele>970.7</ele>
        <time>2015-09-24T10:50:31Z</time>
      </trkpt>
      <trkpt lat="42.27545" lon="0.0403">
        <ele>971</ele>
        <time>2015-09-24T10:50:32Z</time>
      </trkpt>
      <trkpt lat="42.27549" lon="0.0403">
        <ele>970.8</ele>
        <time>2015-09-24T10:50:33Z</time>
      </trkpt>
      <trkpt lat="42.27552" lon="0.04028">
        <ele>970.9</ele>
        <time>2015-09-24T10:50:34Z</time>
      </trkpt>
      <trkpt lat="42.27555" lon="0.04026">
        <ele>971</ele>
        <time>2015-09-24T10:50:35Z</time>
      </trkpt>
      <trkpt lat="42.27559" lon="0.04023">
        <ele>971.3</ele>
        <time>2015-09-24T10:50:36Z</time>
      </trkpt>
      <trkpt lat="42.27562" lon="0.04021">
        <ele>971.3</ele>
        <time>2015-09-24T10:50:37Z</time>
      </trkpt>
      <trkpt lat="42.27565" lon="0.04019">
        <ele>971.5</ele>
        <time>2015-09-24T10:50:38Z</time>
      </trkpt>
      <trkpt lat="42.27568" lon="0.04017">
        <ele>971.8</ele>
        <time>2015-09-24T10:50:39Z</time>
      </trkpt>
      <trkpt lat="42.2757" lon="0.04013">
        <ele>972.2</ele>
        <time>2015-09-24T10:50:40Z</time>
      </trkpt>
      <trkpt lat="42.27572" lon="0.0401">
        <ele>972.6</ele>
        <time>2015-09-24T10:50:41Z</time>
      </trkpt>
      <trkpt lat="42.27576" lon="0.04007">
        <ele>972.8</ele>
        <time>2015-09-24T10:50:43Z</time>
      </trkpt>
      <trkpt lat="42.27581" lon="0.04003">
        <ele>973.2</ele>
        <time>2015-09-24T10:50:45Z</time>
      </trkpt>
      <trkpt lat="42.27585" lon="0.03999">
        <ele>973.6</ele>
        <time>2015-09-24T10:50:47Z</time>
      </trkpt>
      <trkpt lat="42.27588" lon="0.03998">
        <ele>973.5</ele>
        <time>2015-09-24T10:50:48Z</time>
      </trkpt>
      <trkpt lat="42.27591" lon="0.03999">
        <ele>973</ele>
        <time>2015-09-24T10:50:49Z</time>
      </trkpt>
      <trkpt lat="42.27593" lon="0.04001">
        <ele>972.3</ele>
        <time>2015-09-24T10:50:50Z</time>
      </trkpt>
      <trkpt lat="42.27596" lon="0.04005">
        <ele>971.4</ele>
        <time>2015-09-24T10:50:51Z</time>
      </trkpt>
      <trkpt lat="42.27598" lon="0.04009">
        <ele>970.4</ele>
        <time>2015-09-24T10:50:52Z</time>
      </trkpt>
      <trkpt lat="42.276" lon="0.04013">
        <ele>969.5</ele>
        <time>2015-09-24T10:50:53Z</time>
      </trkpt>
      <trkpt lat="42.27602" lon="0.04016">
        <ele>968.7</ele>
        <time>2015-09-24T10:50:54Z</time>
      </trkpt>
      <trkpt lat="42.27604" lon="0.04019">
        <ele>967.9</ele>
        <time>2015-09-24T10:50:55Z</time>
      </trkpt>
      <trkpt lat="42.27606" lon="0.04023">
        <ele>967.1</ele>
        <time>2015-09-24T10:50:56Z</time>
      </trkpt>
      <trkpt lat="42.27608" lon="0.04029">
        <ele>965.8</ele>
        <time>2015-09-24T10:50:58Z</time>
      </trkpt>
      <trkpt lat="42.27611" lon="0.04034">
        <ele>964.5</ele>
        <time>2015-09-24T10:51:00Z</time>
      </trkpt>
      <trkpt lat="42.27614" lon="0.0404">
        <ele>963.3</ele>
        <time>2015-09-24T10:51:02Z</time>
      </trkpt>
      <trkpt lat="42.27616" lon="0.04045">
        <ele>962.3</ele>
        <time>2015-09-24T10:51:04Z</time>
      </trkpt>
      <trkpt lat="42.27618" lon="0.04051">
        <ele>961.6</ele>
        <time>2015-09-24T10:51:06Z</time>
      </trkpt>
      <trkpt lat="42.27621" lon="0.04056">
        <ele>960.9</ele>
        <time>2015-09-24T10:51:08Z</time>
      </trkpt>
      <trkpt lat="42.27623" lon="0.04059">
        <ele>960.4</ele>
        <time>2015-09-24T10:51:10Z</time>
      </trkpt>
      <trkpt lat="42.27625" lon="0.04064">
        <ele>959.9</ele>
        <time>2015-09-24T10:51:12Z</time>
      </trkpt>
      <trkpt lat="42.27627" lon="0.04067">
        <ele>959.9</ele>
        <time>2015-09-24T10:51:14Z</time>
      </trkpt>
      <trkpt lat="42.27629" lon="0.04071">
        <ele>959.9</ele>
        <time>2015-09-24T10:51:16Z</time>
      </trkpt>
      <trkpt lat="42.27631" lon="0.04075">
        <ele>959.9</ele>
        <time>2015-09-24T10:51:18Z</time>
      </trkpt>
      <trkpt lat="42.27633" lon="0.04078">
        <ele>959.9</ele>
        <time>2015-09-24T10:51:20Z</time>
      </trkpt>
      <trkpt lat="42.27634" lon="0.04082">
        <ele>959.9</ele>
        <time>2015-09-24T10:51:22Z</time>
      </trkpt>
      <trkpt lat="42.27636" lon="0.04086">
        <ele>960</ele>
        <time>2015-09-24T10:51:24Z</time>
      </trkpt>
      <trkpt lat="42.27638" lon="0.04089">
        <ele>960</ele>
        <time>2015-09-24T10:51:26Z</time>
      </trkpt>
      <trkpt lat="42.2764" lon="0.04092">
        <ele>960.2</ele>
        <time>2015-09-24T10:51:28Z</time>
      </trkpt>
      <trkpt lat="42.27642" lon="0.04095">
        <ele>960.2</ele>
        <time>2015-09-24T10:51:30Z</time>
      </trkpt>
      <trkpt lat="42.27644" lon="0.04098">
        <ele>960.3</ele>
        <time>2015-09-24T10:51:32Z</time>
      </trkpt>
      <trkpt lat="42.27646" lon="0.04101">
        <ele>960.5</ele>
        <time>2015-09-24T10:51:34Z</time>
      </trkpt>
      <trkpt lat="42.27648" lon="0.04104">
        <ele>960.8</ele>
        <time>2015-09-24T10:51:36Z</time>
      </trkpt>
      <trkpt lat="42.2765" lon="0.04107">
        <ele>960.9</ele>
        <time>2015-09-24T10:51:38Z</time>
      </trkpt>
      <trkpt lat="42.27652" lon="0.0411">
        <ele>961.1</ele>
        <time>2015-09-24T10:51:40Z</time>
      </trkpt>
      <trkpt lat="42.27654" lon="0.04113">
        <ele>961.3</ele>
        <time>2015-09-24T10:51:42Z</time>
      </trkpt>
      <trkpt lat="42.27657" lon="0.04117">
        <ele>961.5</ele>
        <time>2015-09-24T10:51:44Z</time>
      </trkpt>
      <trkpt lat="42.27659" lon="0.04121">
        <ele>961.6</ele>
        <time>2015-09-24T10:51:46Z</time>
      </trkpt>
      <trkpt lat="42.27661" lon="0.04125">
        <ele>961.7</ele>
        <time>2015-09-24T10:51:48Z</time>
      </trkpt>
      <trkpt lat="42.27663" lon="0.04128">
        <ele>962.1</ele>
        <time>2015-09-24T10:51:50Z</time>
      </trkpt>
      <trkpt lat="42.27666" lon="0.04131">
        <ele>962.7</ele>
        <time>2015-09-24T10:51:52Z</time>
      </trkpt>
      <trkpt lat="42.27669" lon="0.04133">
        <ele>963.2</ele>
        <time>2015-09-24T10:51:54Z</time>
      </trkpt>
      <trkpt lat="42.27672" lon="0.04136">
        <ele>963.8</ele>
        <time>2015-09-24T10:51:56Z</time>
      </trkpt>
      <trkpt lat="42.27675" lon="0.04138">
        <ele>964.4</ele>
        <time>2015-09-24T10:51:58Z</time>
      </trkpt>
      <trkpt lat="42.27678" lon="0.04141">
        <ele>964.9</ele>
        <time>2015-09-24T10:52:00Z</time>
      </trkpt>
      <trkpt lat="42.27681" lon="0.04145">
        <ele>965.4</ele>
        <time>2015-09-24T10:52:02Z</time>
      </trkpt>
      <trkpt lat="42.27685" lon="0.0415">
        <ele>966.1</ele>
        <time>2015-09-24T10:52:04Z</time>
      </trkpt>
      <trkpt lat="42.27689" lon="0.04154">
        <ele>966.8</ele>
        <time>2015-09-24T10:52:06Z</time>
      </trkpt>
      <trkpt lat="42.27691" lon="0.04156">
        <ele>967.1</ele>
        <time>2015-09-24T10:52:07Z</time>
      </trkpt>
      <trkpt lat="42.27695" lon="0.04161">
        <ele>967.8</ele>
        <time>2015-09-24T10:52:09Z</time>
      </trkpt>
      <trkpt lat="42.27699" lon="0.04164">
        <ele>968.7</ele>
        <time>2015-09-24T10:52:11Z</time>
      </trkpt>
      <trkpt lat="42.27704" lon="0.04166">
        <ele>969.7</ele>
        <time>2015-09-24T10:52:13Z</time>
      </trkpt>
      <trkpt lat="42.2771" lon="0.04167">
        <ele>970.7</ele>
        <time>2015-09-24T10:52:15Z</time>
      </trkpt>
      <trkpt lat="42.27715" lon="0.04167">
        <ele>971.3</ele>
        <time>2015-09-24T10:52:17Z</time>
      </trkpt>
      <trkpt lat="42.2772" lon="0.04166">
        <ele>971.9</ele>
        <time>2015-09-24T10:52:19Z</time>
      </trkpt>
      <trkpt lat="42.27725" lon="0.04165">
        <ele>972.5</ele>
        <time>2015-09-24T10:52:21Z</time>
      </trkpt>
      <trkpt lat="42.2773" lon="0.04165">
        <ele>973</ele>
        <time>2015-09-24T10:52:23Z</time>
      </trkpt>
      <trkpt lat="42.27735" lon="0.04165">
        <ele>973.6</ele>
        <time>2015-09-24T10:52:25Z</time>
      </trkpt>
      <trkpt lat="42.2774" lon="0.04165">
        <ele>974.2</ele>
        <time>2015-09-24T10:52:27Z</time>
      </trkpt>
      <trkpt lat="42.27743" lon="0.04165">
        <ele>974.5</ele>
        <time>2015-09-24T10:52:28Z</time>
      </trkpt>
      <trkpt lat="42.27746" lon="0.04165">
        <ele>974.9</ele>
        <time>2015-09-24T10:52:29Z</time>
      </trkpt>
      <trkpt lat="42.2775" lon="0.04164">
        <ele>975.3</ele>
        <time>2015-09-24T10:52:30Z</time>
      </trkpt>
      <trkpt lat="42.27753" lon="0.04165">
        <ele>975.7</ele>
        <time>2015-09-24T10:52:31Z</time>
      </trkpt>
      <trkpt lat="42.27756" lon="0.04165">
        <ele>976</ele>
        <time>2015-09-24T10:52:32Z</time>
      </trkpt>
      <trkpt lat="42.2776" lon="0.04165">
        <ele>976.4</ele>
        <time>2015-09-24T10:52:33Z</time>
      </trkpt>
      <trkpt lat="42.27763" lon="0.04165">
        <ele>976.8</ele>
        <time>2015-09-24T10:52:34Z</time>
      </trkpt>
      <trkpt lat="42.27767" lon="0.04165">
        <ele>977.3</ele>
        <time>2015-09-24T10:52:35Z</time>
      </trkpt>
      <trkpt lat="42.27771" lon="0.04164">
        <ele>977.8</ele>
        <time>2015-09-24T10:52:36Z</time>
      </trkpt>
      <trkpt lat="42.27775" lon="0.04163">
        <ele>978.3</ele>
        <time>2015-09-24T10:52:37Z</time>
      </trkpt>
      <trkpt lat="42.27778" lon="0.04162">
        <ele>978.8</ele>
        <time>2015-09-24T10:52:38Z</time>
      </trkpt>
      <trkpt lat="42.27782" lon="0.04161">
        <ele>979.3</ele>
        <time>2015-09-24T10:52:39Z</time>
      </trkpt>
      <trkpt lat="42.27785" lon="0.0416">
        <ele>979.7</ele>
        <time>2015-09-24T10:52:40Z</time>
      </trkpt>
      <trkpt lat="42.27789" lon="0.04159">
        <ele>980.2</ele>
        <time>2015-09-24T10:52:41Z</time>
      </trkpt>
      <trkpt lat="42.27792" lon="0.04158">
        <ele>980.7</ele>
        <time>2015-09-24T10:52:42Z</time>
      </trkpt>
      <trkpt lat="42.27796" lon="0.04157">
        <ele>980.9</ele>
        <time>2015-09-24T10:52:43Z</time>
      </trkpt>
      <trkpt lat="42.27799" lon="0.04157">
        <ele>981.1</ele>
        <time>2015-09-24T10:52:44Z</time>
      </trkpt>
      <trkpt lat="42.27803" lon="0.04157">
        <ele>981.3</ele>
        <time>2015-09-24T10:52:45Z</time>
      </trkpt>
      <trkpt lat="42.27807" lon="0.04157">
        <ele>981.5</ele>
        <time>2015-09-24T10:52:46Z</time>
      </trkpt>
      <trkpt lat="42.2781" lon="0.04156">
        <ele>981.8</ele>
        <time>2015-09-24T10:52:47Z</time>
      </trkpt>
      <trkpt lat="42.27814" lon="0.04155">
        <ele>982.1</ele>
        <time>2015-09-24T10:52:48Z</time>
      </trkpt>
      <trkpt lat="42.27817" lon="0.04153">
        <ele>982.4</ele>
        <time>2015-09-24T10:52:49Z</time>
      </trkpt>
      <trkpt lat="42.27821" lon="0.04152">
        <ele>982.7</ele>
        <time>2015-09-24T10:52:50Z</time>
      </trkpt>
      <trkpt lat="42.27824" lon="0.0415">
        <ele>983.1</ele>
        <time>2015-09-24T10:52:51Z</time>
      </trkpt>
      <trkpt lat="42.27828" lon="0.04149">
        <ele>983.4</ele>
        <time>2015-09-24T10:52:52Z</time>
      </trkpt>
      <trkpt lat="42.27831" lon="0.04149">
        <ele>983.6</ele>
        <time>2015-09-24T10:52:53Z</time>
      </trkpt>
      <trkpt lat="42.27835" lon="0.04148">
        <ele>983.8</ele>
        <time>2015-09-24T10:52:54Z</time>
      </trkpt>
      <trkpt lat="42.27839" lon="0.04148">
        <ele>984.1</ele>
        <time>2015-09-24T10:52:55Z</time>
      </trkpt>
      <trkpt lat="42.27842" lon="0.04148">
        <ele>984.3</ele>
        <time>2015-09-24T10:52:56Z</time>
      </trkpt>
      <trkpt lat="42.27846" lon="0.04149">
        <ele>984.5</ele>
        <time>2015-09-24T10:52:57Z</time>
      </trkpt>
      <trkpt lat="42.2785" lon="0.04149">
        <ele>984.6</ele>
        <time>2015-09-24T10:52:58Z</time>
      </trkpt>
      <trkpt lat="42.27853" lon="0.0415">
        <ele>984.7</ele>
        <time>2015-09-24T10:52:59Z</time>
      </trkpt>
      <trkpt lat="42.27857" lon="0.04152">
        <ele>984.8</ele>
        <time>2015-09-24T10:53:00Z</time>
      </trkpt>
      <trkpt lat="42.27861" lon="0.04153">
        <ele>984.9</ele>
        <time>2015-09-24T10:53:01Z</time>
      </trkpt>
      <trkpt lat="42.27865" lon="0.04153">
        <ele>985</ele>
        <time>2015-09-24T10:53:02Z</time>
      </trkpt>
      <trkpt lat="42.27869" lon="0.04153">
        <ele>985.3</ele>
        <time>2015-09-24T10:53:03Z</time>
      </trkpt>
      <trkpt lat="42.27873" lon="0.04153">
        <ele>985.5</ele>
        <time>2015-09-24T10:53:04Z</time>
      </trkpt>
      <trkpt lat="42.27877" lon="0.04153">
        <ele>985.6</ele>
        <time>2015-09-24T10:53:05Z</time>
      </trkpt>
      <trkpt lat="42.27881" lon="0.04152">
        <ele>985.6</ele>
        <time>2015-09-24T10:53:06Z</time>
      </trkpt>
      <trkpt lat="42.27886" lon="0.04151">
        <ele>985.5</ele>
        <time>2015-09-24T10:53:07Z</time>
      </trkpt>
      <trkpt lat="42.2789" lon="0.04149">
        <ele>985.6</ele>
        <time>2015-09-24T10:53:08Z</time>
      </trkpt>
      <trkpt lat="42.27894" lon="0.04148">
        <ele>985.6</ele>
        <time>2015-09-24T10:53:09Z</time>
      </trkpt>
      <trkpt lat="42.27898" lon="0.04146">
        <ele>985.7</ele>
        <time>2015-09-24T10:53:10Z</time>
      </trkpt>
      <trkpt lat="42.27902" lon="0.04144">
        <ele>985.8</ele>
        <time>2015-09-24T10:53:11Z</time>
      </trkpt>
      <trkpt lat="42.27907" lon="0.04142">
        <ele>985.9</ele>
        <time>2015-09-24T10:53:12Z</time>
      </trkpt>
      <trkpt lat="42.27911" lon="0.04141">
        <ele>986</ele>
        <time>2015-09-24T10:53:13Z</time>
      </trkpt>
      <trkpt lat="42.27915" lon="0.04139">
        <ele>986.1</ele>
        <time>2015-09-24T10:53:14Z</time>
      </trkpt>
      <trkpt lat="42.2792" lon="0.04133">
        <ele>986.8</ele>
        <time>2015-09-24T10:53:15Z</time>
      </trkpt>
      <trkpt lat="42.27925" lon="0.0413">
        <ele>987.1</ele>
        <time>2015-09-24T10:53:16Z</time>
      </trkpt>
      <trkpt lat="42.2793" lon="0.04126">
        <ele>987.5</ele>
        <time>2015-09-24T10:53:17Z</time>
      </trkpt>
      <trkpt lat="42.27935" lon="0.04123">
        <ele>987.9</ele>
        <time>2015-09-24T10:53:18Z</time>
      </trkpt>
      <trkpt lat="42.2794" lon="0.04119">
        <ele>988.3</ele>
        <time>2015-09-24T10:53:19Z</time>
      </trkpt>
      <trkpt lat="42.27944" lon="0.04116">
        <ele>988.7</ele>
        <time>2015-09-24T10:53:20Z</time>
      </trkpt>
      <trkpt lat="42.27948" lon="0.04113">
        <ele>989</ele>
        <time>2015-09-24T10:53:21Z</time>
      </trkpt>
      <trkpt lat="42.27952" lon="0.0411">
        <ele>989.4</ele>
        <time>2015-09-24T10:53:22Z</time>
      </trkpt>
      <trkpt lat="42.27956" lon="0.04107">
        <ele>989.6</ele>
        <time>2015-09-24T10:53:23Z</time>
      </trkpt>
      <trkpt lat="42.2796" lon="0.04105">
        <ele>989.5</ele>
        <time>2015-09-24T10:53:24Z</time>
      </trkpt>
      <trkpt lat="42.27964" lon="0.04102">
        <ele>989.1</ele>
        <time>2015-09-24T10:53:25Z</time>
      </trkpt>
      <trkpt lat="42.27967" lon="0.041">
        <ele>988.5</ele>
        <time>2015-09-24T10:53:26Z</time>
      </trkpt>
      <trkpt lat="42.2797" lon="0.04097">
        <ele>988.2</ele>
        <time>2015-09-24T10:53:27Z</time>
      </trkpt>
      <trkpt lat="42.27973" lon="0.04094">
        <ele>988</ele>
        <time>2015-09-24T10:53:28Z</time>
      </trkpt>
      <trkpt lat="42.27975" lon="0.04091">
        <ele>988</ele>
        <time>2015-09-24T10:53:29Z</time>
      </trkpt>
      <trkpt lat="42.27977" lon="0.04087">
        <ele>988.1</ele>
        <time>2015-09-24T10:53:30Z</time>
      </trkpt>
      <trkpt lat="42.27979" lon="0.04084">
        <ele>988.1</ele>
        <time>2015-09-24T10:53:31Z</time>
      </trkpt>
      <trkpt lat="42.27981" lon="0.0408">
        <ele>988.1</ele>
        <time>2015-09-24T10:53:32Z</time>
      </trkpt>
      <trkpt lat="42.27985" lon="0.04076">
        <ele>987.8</ele>
        <time>2015-09-24T10:53:34Z</time>
      </trkpt>
      <trkpt lat="42.27988" lon="0.04074">
        <ele>987.4</ele>
        <time>2015-09-24T10:53:36Z</time>
      </trkpt>
      <trkpt lat="42.2799" lon="0.0407">
        <ele>987.5</ele>
        <time>2015-09-24T10:53:38Z</time>
      </trkpt>
      <trkpt lat="42.27993" lon="0.04065">
        <ele>987.7</ele>
        <time>2015-09-24T10:53:40Z</time>
      </trkpt>
      <trkpt lat="42.27996" lon="0.0406">
        <ele>987.7</ele>
        <time>2015-09-24T10:53:42Z</time>
      </trkpt>
      <trkpt lat="42.28" lon="0.04056">
        <ele>987.4</ele>
        <time>2015-09-24T10:53:44Z</time>
      </trkpt>
      <trkpt lat="42.28003" lon="0.04052">
        <ele>987.1</ele>
        <time>2015-09-24T10:53:46Z</time>
      </trkpt>
      <trkpt lat="42.28008" lon="0.04046">
        <ele>987.1</ele>
        <time>2015-09-24T10:53:48Z</time>
      </trkpt>
      <trkpt lat="42.2801" lon="0.04043">
        <ele>986.9</ele>
        <time>2015-09-24T10:53:49Z</time>
      </trkpt>
      <trkpt lat="42.28013" lon="0.04041">
        <ele>986.6</ele>
        <time>2015-09-24T10:53:50Z</time>
      </trkpt>
      <trkpt lat="42.28017" lon="0.04039">
        <ele>986.1</ele>
        <time>2015-09-24T10:53:51Z</time>
      </trkpt>
      <trkpt lat="42.2802" lon="0.04037">
        <ele>985.6</ele>
        <time>2015-09-24T10:53:52Z</time>
      </trkpt>
      <trkpt lat="42.28023" lon="0.04035">
        <ele>985.2</ele>
        <time>2015-09-24T10:53:53Z</time>
      </trkpt>
      <trkpt lat="42.28026" lon="0.04033">
        <ele>985</ele>
        <time>2015-09-24T10:53:54Z</time>
      </trkpt>
      <trkpt lat="42.28028" lon="0.0403">
        <ele>985</ele>
        <time>2015-09-24T10:53:55Z</time>
      </trkpt>
      <trkpt lat="42.28031" lon="0.04024">
        <ele>985.2</ele>
        <time>2015-09-24T10:53:57Z</time>
      </trkpt>
      <trkpt lat="42.28035" lon="0.04019">
        <ele>985.3</ele>
        <time>2015-09-24T10:53:59Z</time>
      </trkpt>
      <trkpt lat="42.28037" lon="0.04016">
        <ele>985.3</ele>
        <time>2015-09-24T10:54:00Z</time>
      </trkpt>
      <trkpt lat="42.28039" lon="0.04013">
        <ele>985.3</ele>
        <time>2015-09-24T10:54:01Z</time>
      </trkpt>
      <trkpt lat="42.28042" lon="0.0401">
        <ele>985.3</ele>
        <time>2015-09-24T10:54:02Z</time>
      </trkpt>
      <trkpt lat="42.28045" lon="0.04006">
        <ele>985.5</ele>
        <time>2015-09-24T10:54:03Z</time>
      </trkpt>
      <trkpt lat="42.28047" lon="0.04003">
        <ele>985.7</ele>
        <time>2015-09-24T10:54:04Z</time>
      </trkpt>
      <trkpt lat="42.2805" lon="0.03999">
        <ele>985.9</ele>
        <time>2015-09-24T10:54:05Z</time>
      </trkpt>
      <trkpt lat="42.28053" lon="0.03997">
        <ele>985.8</ele>
        <time>2015-09-24T10:54:06Z</time>
      </trkpt>
      <trkpt lat="42.28057" lon="0.03995">
        <ele>985.6</ele>
        <time>2015-09-24T10:54:07Z</time>
      </trkpt>
      <trkpt lat="42.28061" lon="0.03993">
        <ele>985.3</ele>
        <time>2015-09-24T10:54:08Z</time>
      </trkpt>
      <trkpt lat="42.28065" lon="0.03992">
        <ele>984.9</ele>
        <time>2015-09-24T10:54:09Z</time>
      </trkpt>
      <trkpt lat="42.28069" lon="0.03991">
        <ele>984.5</ele>
        <time>2015-09-24T10:54:10Z</time>
      </trkpt>
      <trkpt lat="42.28073" lon="0.03991">
        <ele>984</ele>
        <time>2015-09-24T10:54:11Z</time>
      </trkpt>
      <trkpt lat="42.28076" lon="0.03992">
        <ele>983.3</ele>
        <time>2015-09-24T10:54:12Z</time>
      </trkpt>
      <trkpt lat="42.2808" lon="0.03995">
        <ele>982.2</ele>
        <time>2015-09-24T10:54:14Z</time>
      </trkpt>
      <trkpt lat="42.28084" lon="0.04">
        <ele>981</ele>
        <time>2015-09-24T10:54:16Z</time>
      </trkpt>
      <trkpt lat="42.28087" lon="0.04005">
        <ele>979.7</ele>
        <time>2015-09-24T10:54:18Z</time>
      </trkpt>
      <trkpt lat="42.28088" lon="0.04008">
        <ele>979</ele>
        <time>2015-09-24T10:54:19Z</time>
      </trkpt>
      <trkpt lat="42.2809" lon="0.04012">
        <ele>978.2</ele>
        <time>2015-09-24T10:54:20Z</time>
      </trkpt>
      <trkpt lat="42.28092" lon="0.04015">
        <ele>977.5</ele>
        <time>2015-09-24T10:54:21Z</time>
      </trkpt>
      <trkpt lat="42.28094" lon="0.04018">
        <ele>976.7</ele>
        <time>2015-09-24T10:54:22Z</time>
      </trkpt>
      <trkpt lat="42.28096" lon="0.04021">
        <ele>976</ele>
        <time>2015-09-24T10:54:23Z</time>
      </trkpt>
      <trkpt lat="42.28098" lon="0.04024">
        <ele>975.3</ele>
        <time>2015-09-24T10:54:24Z</time>
      </trkpt>
      <trkpt lat="42.281" lon="0.04027">
        <ele>974.6</ele>
        <time>2015-09-24T10:54:25Z</time>
      </trkpt>
      <trkpt lat="42.28102" lon="0.0403">
        <ele>973.9</ele>
        <time>2015-09-24T10:54:26Z</time>
      </trkpt>
      <trkpt lat="42.28104" lon="0.04033">
        <ele>973.2</ele>
        <time>2015-09-24T10:54:27Z</time>
      </trkpt>
      <trkpt lat="42.28107" lon="0.04038">
        <ele>971.9</ele>
        <time>2015-09-24T10:54:29Z</time>
      </trkpt>
      <trkpt lat="42.2811" lon="0.04044">
        <ele>970.7</ele>
        <time>2015-09-24T10:54:31Z</time>
      </trkpt>
      <trkpt lat="42.28115" lon="0.04048">
        <ele>969.6</ele>
        <time>2015-09-24T10:54:33Z</time>
      </trkpt>
      <trkpt lat="42.28118" lon="0.04049">
        <ele>968.9</ele>
        <time>2015-09-24T10:54:35Z</time>
      </trkpt>
      <trkpt lat="42.28122" lon="0.0405">
        <ele>968.4</ele>
        <time>2015-09-24T10:54:37Z</time>
      </trkpt>
      <trkpt lat="42.28125" lon="0.0405">
        <ele>968</ele>
        <time>2015-09-24T10:54:39Z</time>
      </trkpt>
      <trkpt lat="42.28128" lon="0.04047">
        <ele>968</ele>
        <time>2015-09-24T10:54:41Z</time>
      </trkpt>
      <trkpt lat="42.28131" lon="0.04042">
        <ele>968.1</ele>
        <time>2015-09-24T10:54:43Z</time>
      </trkpt>
      <trkpt lat="42.28135" lon="0.04038">
        <ele>968.3</ele>
        <time>2015-09-24T10:54:45Z</time>
      </trkpt>
      <trkpt lat="42.28138" lon="0.04033">
        <ele>968.6</ele>
        <time>2015-09-24T10:54:47Z</time>
      </trkpt>
      <trkpt lat="42.2814" lon="0.04031">
        <ele>968.6</ele>
        <time>2015-09-24T10:55:13Z</time>
      </trkpt>
      <trkpt lat="42.28143" lon="0.04027">
        <ele>969</ele>
        <time>2015-09-24T10:55:15Z</time>
      </trkpt>
      <trkpt lat="42.28146" lon="0.0402">
        <ele>969.7</ele>
        <time>2015-09-24T10:55:17Z</time>
      </trkpt>
      <trkpt lat="42.28148" lon="0.04017">
        <ele>970</ele>
        <time>2015-09-24T10:55:18Z</time>
      </trkpt>
      <trkpt lat="42.2815" lon="0.04013">
        <ele>970.4</ele>
        <time>2015-09-24T10:55:19Z</time>
      </trkpt>
      <trkpt lat="42.28152" lon="0.04011">
        <ele>970.7</ele>
        <time>2015-09-24T10:55:20Z</time>
      </trkpt>
      <trkpt lat="42.28154" lon="0.04008">
        <ele>970.9</ele>
        <time>2015-09-24T10:55:21Z</time>
      </trkpt>
      <trkpt lat="42.28156" lon="0.04005">
        <ele>971.1</ele>
        <time>2015-09-24T10:55:22Z</time>
      </trkpt>
      <trkpt lat="42.28158" lon="0.04002">
        <ele>971.5</ele>
        <time>2015-09-24T10:55:23Z</time>
      </trkpt>
      <trkpt lat="42.28159" lon="0.03998">
        <ele>972.1</ele>
        <time>2015-09-24T10:55:24Z</time>
      </trkpt>
      <trkpt lat="42.28159" lon="0.03995">
        <ele>972.7</ele>
        <time>2015-09-24T10:55:25Z</time>
      </trkpt>
      <trkpt lat="42.28159" lon="0.03991">
        <ele>973.3</ele>
        <time>2015-09-24T10:55:26Z</time>
      </trkpt>
      <trkpt lat="42.2816" lon="0.03986">
        <ele>974</ele>
        <time>2015-09-24T10:55:27Z</time>
      </trkpt>
      <trkpt lat="42.28162" lon="0.03982">
        <ele>974.7</ele>
        <time>2015-09-24T10:55:28Z</time>
      </trkpt>
      <trkpt lat="42.28163" lon="0.03977">
        <ele>975.4</ele>
        <time>2015-09-24T10:55:29Z</time>
      </trkpt>
      <trkpt lat="42.28165" lon="0.03974">
        <ele>975.9</ele>
        <time>2015-09-24T10:55:30Z</time>
      </trkpt>
      <trkpt lat="42.28167" lon="0.0397">
        <ele>976.4</ele>
        <time>2015-09-24T10:55:31Z</time>
      </trkpt>
      <trkpt lat="42.28169" lon="0.03966">
        <ele>976.9</ele>
        <time>2015-09-24T10:55:32Z</time>
      </trkpt>
      <trkpt lat="42.28171" lon="0.03963">
        <ele>977.4</ele>
        <time>2015-09-24T10:55:33Z</time>
      </trkpt>
      <trkpt lat="42.28172" lon="0.03959">
        <ele>978.1</ele>
        <time>2015-09-24T10:55:35Z</time>
      </trkpt>
      <trkpt lat="42.28174" lon="0.03955">
        <ele>978.7</ele>
        <time>2015-09-24T10:55:37Z</time>
      </trkpt>
      <trkpt lat="42.28176" lon="0.03951">
        <ele>979.4</ele>
        <time>2015-09-24T10:55:39Z</time>
      </trkpt>
      <trkpt lat="42.28178" lon="0.03946">
        <ele>980.3</ele>
        <time>2015-09-24T10:55:41Z</time>
      </trkpt>
      <trkpt lat="42.28181" lon="0.03942">
        <ele>981.2</ele>
        <time>2015-09-24T10:55:43Z</time>
      </trkpt>
      <trkpt lat="42.28183" lon="0.03939">
        <ele>981.7</ele>
        <time>2015-09-24T10:55:44Z</time>
      </trkpt>
      <trkpt lat="42.28185" lon="0.03936">
        <ele>982.2</ele>
        <time>2015-09-24T10:55:45Z</time>
      </trkpt>
      <trkpt lat="42.28187" lon="0.03932">
        <ele>983</ele>
        <time>2015-09-24T10:55:46Z</time>
      </trkpt>
      <trkpt lat="42.2819" lon="0.03928">
        <ele>983.8</ele>
        <time>2015-09-24T10:55:47Z</time>
      </trkpt>
      <trkpt lat="42.28193" lon="0.03924">
        <ele>984.6</ele>
        <time>2015-09-24T10:55:48Z</time>
      </trkpt>
      <trkpt lat="42.28196" lon="0.0392">
        <ele>985.4</ele>
        <time>2015-09-24T10:55:49Z</time>
      </trkpt>
      <trkpt lat="42.28199" lon="0.03916">
        <ele>986.3</ele>
        <time>2015-09-24T10:55:50Z</time>
      </trkpt>
      <trkpt lat="42.28202" lon="0.03912">
        <ele>987.2</ele>
        <time>2015-09-24T10:55:51Z</time>
      </trkpt>
      <trkpt lat="42.28206" lon="0.03908">
        <ele>988.1</ele>
        <time>2015-09-24T10:55:52Z</time>
      </trkpt>
      <trkpt lat="42.2821" lon="0.03904">
        <ele>988.3</ele>
        <time>2015-09-24T10:55:53Z</time>
      </trkpt>
      <trkpt lat="42.28214" lon="0.03901">
        <ele>987.6</ele>
        <time>2015-09-24T10:55:54Z</time>
      </trkpt>
      <trkpt lat="42.2822" lon="0.03897">
        <ele>986.5</ele>
        <time>2015-09-24T10:55:55Z</time>
      </trkpt>
      <trkpt lat="42.28224" lon="0.03893">
        <ele>985.9</ele>
        <time>2015-09-24T10:55:56Z</time>
      </trkpt>
      <trkpt lat="42.28229" lon="0.0389">
        <ele>985.1</ele>
        <time>2015-09-24T10:55:57Z</time>
      </trkpt>
      <trkpt lat="42.28234" lon="0.03887">
        <ele>984</ele>
        <time>2015-09-24T10:55:58Z</time>
      </trkpt>
      <trkpt lat="42.28239" lon="0.03884">
        <ele>983.1</ele>
        <time>2015-09-24T10:55:59Z</time>
      </trkpt>
      <trkpt lat="42.28244" lon="0.0388">
        <ele>982.5</ele>
        <time>2015-09-24T10:56:00Z</time>
      </trkpt>
      <trkpt lat="42.28249" lon="0.03876">
        <ele>982</ele>
        <time>2015-09-24T10:56:01Z</time>
      </trkpt>
      <trkpt lat="42.28254" lon="0.03872">
        <ele>981.4</ele>
        <time>2015-09-24T10:56:02Z</time>
      </trkpt>
      <trkpt lat="42.28258" lon="0.03869">
        <ele>980.8</ele>
        <time>2015-09-24T10:56:03Z</time>
      </trkpt>
      <trkpt lat="42.28263" lon="0.03864">
        <ele>980.6</ele>
        <time>2015-09-24T10:56:04Z</time>
      </trkpt>
      <trkpt lat="42.28266" lon="0.03861">
        <ele>980.4</ele>
        <time>2015-09-24T10:56:05Z</time>
      </trkpt>
      <trkpt lat="42.2827" lon="0.03856">
        <ele>980.4</ele>
        <time>2015-09-24T10:56:06Z</time>
      </trkpt>
      <trkpt lat="42.28274" lon="0.03853">
        <ele>980.1</ele>
        <time>2015-09-24T10:56:07Z</time>
      </trkpt>
      <trkpt lat="42.28278" lon="0.03848">
        <ele>980.1</ele>
        <time>2015-09-24T10:56:08Z</time>
      </trkpt>
      <trkpt lat="42.28282" lon="0.03844">
        <ele>980</ele>
        <time>2015-09-24T10:56:09Z</time>
      </trkpt>
      <trkpt lat="42.28286" lon="0.03842">
        <ele>979.3</ele>
        <time>2015-09-24T10:56:10Z</time>
      </trkpt>
      <trkpt lat="42.2829" lon="0.03838">
        <ele>979.2</ele>
        <time>2015-09-24T10:56:11Z</time>
      </trkpt>
      <trkpt lat="42.28294" lon="0.03834">
        <ele>978.8</ele>
        <time>2015-09-24T10:56:12Z</time>
      </trkpt>
      <trkpt lat="42.28297" lon="0.0383">
        <ele>978.1</ele>
        <time>2015-09-24T10:56:13Z</time>
      </trkpt>
      <trkpt lat="42.28301" lon="0.03825">
        <ele>977.5</ele>
        <time>2015-09-24T10:56:14Z</time>
      </trkpt>
      <trkpt lat="42.28305" lon="0.03821">
        <ele>976.9</ele>
        <time>2015-09-24T10:56:15Z</time>
      </trkpt>
      <trkpt lat="42.28309" lon="0.03817">
        <ele>976</ele>
        <time>2015-09-24T10:56:16Z</time>
      </trkpt>
      <trkpt lat="42.28312" lon="0.03813">
        <ele>975.3</ele>
        <time>2015-09-24T10:56:17Z</time>
      </trkpt>
      <trkpt lat="42.28316" lon="0.03808">
        <ele>975</ele>
        <time>2015-09-24T10:56:18Z</time>
      </trkpt>
      <trkpt lat="42.28319" lon="0.03805">
        <ele>974.3</ele>
        <time>2015-09-24T10:56:19Z</time>
      </trkpt>
      <trkpt lat="42.28323" lon="0.03801">
        <ele>973.6</ele>
        <time>2015-09-24T10:56:20Z</time>
      </trkpt>
      <trkpt lat="42.28326" lon="0.03796">
        <ele>972.9</ele>
        <time>2015-09-24T10:56:21Z</time>
      </trkpt>
      <trkpt lat="42.2833" lon="0.03792">
        <ele>972.2</ele>
        <time>2015-09-24T10:56:22Z</time>
      </trkpt>
      <trkpt lat="42.28333" lon="0.03787">
        <ele>971.6</ele>
        <time>2015-09-24T10:56:23Z</time>
      </trkpt>
      <trkpt lat="42.28337" lon="0.03784">
        <ele>970.6</ele>
        <time>2015-09-24T10:56:24Z</time>
      </trkpt>
      <trkpt lat="42.2834" lon="0.03779">
        <ele>970.1</ele>
        <time>2015-09-24T10:56:25Z</time>
      </trkpt>
      <trkpt lat="42.28343" lon="0.03775">
        <ele>969.7</ele>
        <time>2015-09-24T10:56:26Z</time>
      </trkpt>
      <trkpt lat="42.28346" lon="0.0377">
        <ele>969.1</ele>
        <time>2015-09-24T10:56:27Z</time>
      </trkpt>
      <trkpt lat="42.28349" lon="0.03766">
        <ele>968.4</ele>
        <time>2015-09-24T10:56:28Z</time>
      </trkpt>
      <trkpt lat="42.28352" lon="0.03763">
        <ele>967.8</ele>
        <time>2015-09-24T10:56:29Z</time>
      </trkpt>
      <trkpt lat="42.28355" lon="0.03759">
        <ele>967</ele>
        <time>2015-09-24T10:56:30Z</time>
      </trkpt>
      <trkpt lat="42.28359" lon="0.03756">
        <ele>966.1</ele>
        <time>2015-09-24T10:56:31Z</time>
      </trkpt>
      <trkpt lat="42.28361" lon="0.03753">
        <ele>965.6</ele>
        <time>2015-09-24T10:56:32Z</time>
      </trkpt>
      <trkpt lat="42.28364" lon="0.03748">
        <ele>965</ele>
        <time>2015-09-24T10:56:34Z</time>
      </trkpt>
      <trkpt lat="42.28366" lon="0.03745">
        <ele>964.9</ele>
        <time>2015-09-24T10:56:45Z</time>
      </trkpt>
      <trkpt lat="42.28367" lon="0.03742">
        <ele>965</ele>
        <time>2015-09-24T10:56:54Z</time>
      </trkpt>
      <trkpt lat="42.28369" lon="0.03738">
        <ele>965.1</ele>
        <time>2015-09-24T10:59:12Z</time>
      </trkpt>
      <trkpt lat="42.28371" lon="0.03736">
        <ele>964.5</ele>
        <time>2015-09-24T10:59:13Z</time>
      </trkpt>
      <trkpt lat="42.28374" lon="0.03733">
        <ele>963.9</ele>
        <time>2015-09-24T10:59:14Z</time>
      </trkpt>
      <trkpt lat="42.28376" lon="0.0373">
        <ele>963.3</ele>
        <time>2015-09-24T10:59:15Z</time>
      </trkpt>
      <trkpt lat="42.28379" lon="0.03727">
        <ele>962.7</ele>
        <time>2015-09-24T10:59:16Z</time>
      </trkpt>
      <trkpt lat="42.28382" lon="0.03724">
        <ele>962.1</ele>
        <time>2015-09-24T10:59:17Z</time>
      </trkpt>
      <trkpt lat="42.28384" lon="0.03721">
        <ele>961.7</ele>
        <time>2015-09-24T10:59:18Z</time>
      </trkpt>
      <trkpt lat="42.28387" lon="0.03718">
        <ele>961.3</ele>
        <time>2015-09-24T10:59:19Z</time>
      </trkpt>
      <trkpt lat="42.28389" lon="0.03714">
        <ele>961</ele>
        <time>2015-09-24T10:59:20Z</time>
      </trkpt>
      <trkpt lat="42.28392" lon="0.03709">
        <ele>960.8</ele>
        <time>2015-09-24T10:59:21Z</time>
      </trkpt>
      <trkpt lat="42.28394" lon="0.03705">
        <ele>960.8</ele>
        <time>2015-09-24T10:59:22Z</time>
      </trkpt>
      <trkpt lat="42.28397" lon="0.037">
        <ele>960.9</ele>
        <time>2015-09-24T10:59:23Z</time>
      </trkpt>
      <trkpt lat="42.28399" lon="0.03696">
        <ele>961.1</ele>
        <time>2015-09-24T10:59:24Z</time>
      </trkpt>
      <trkpt lat="42.28401" lon="0.03691">
        <ele>961.2</ele>
        <time>2015-09-24T10:59:25Z</time>
      </trkpt>
      <trkpt lat="42.28403" lon="0.03687">
        <ele>961.2</ele>
        <time>2015-09-24T10:59:26Z</time>
      </trkpt>
      <trkpt lat="42.28405" lon="0.03683">
        <ele>961.2</ele>
        <time>2015-09-24T10:59:27Z</time>
      </trkpt>
      <trkpt lat="42.28408" lon="0.0368">
        <ele>960.5</ele>
        <time>2015-09-24T10:59:29Z</time>
      </trkpt>
      <trkpt lat="42.28412" lon="0.03679">
        <ele>958.7</ele>
        <time>2015-09-24T10:59:31Z</time>
      </trkpt>
      <trkpt lat="42.28417" lon="0.03678">
        <ele>956.8</ele>
        <time>2015-09-24T10:59:33Z</time>
      </trkpt>
      <trkpt lat="42.28422" lon="0.03676">
        <ele>954.8</ele>
        <time>2015-09-24T10:59:35Z</time>
      </trkpt>
      <trkpt lat="42.28425" lon="0.03674">
        <ele>953.6</ele>
        <time>2015-09-24T10:59:36Z</time>
      </trkpt>
      <trkpt lat="42.28429" lon="0.03671">
        <ele>952.5</ele>
        <time>2015-09-24T10:59:37Z</time>
      </trkpt>
      <trkpt lat="42.28432" lon="0.03668">
        <ele>951.8</ele>
        <time>2015-09-24T10:59:38Z</time>
      </trkpt>
      <trkpt lat="42.28435" lon="0.03663">
        <ele>951.4</ele>
        <time>2015-09-24T10:59:39Z</time>
      </trkpt>
      <trkpt lat="42.28438" lon="0.03657">
        <ele>951.3</ele>
        <time>2015-09-24T10:59:40Z</time>
      </trkpt>
      <trkpt lat="42.2844" lon="0.03652">
        <ele>951.3</ele>
        <time>2015-09-24T10:59:41Z</time>
      </trkpt>
      <trkpt lat="42.28443" lon="0.03647">
        <ele>951.3</ele>
        <time>2015-09-24T10:59:42Z</time>
      </trkpt>
      <trkpt lat="42.28445" lon="0.03642">
        <ele>951</ele>
        <time>2015-09-24T10:59:43Z</time>
      </trkpt>
      <trkpt lat="42.28448" lon="0.03639">
        <ele>950.3</ele>
        <time>2015-09-24T10:59:44Z</time>
      </trkpt>
      <trkpt lat="42.28451" lon="0.03638">
        <ele>949</ele>
        <time>2015-09-24T10:59:45Z</time>
      </trkpt>
      <trkpt lat="42.28454" lon="0.03639">
        <ele>947.4</ele>
        <time>2015-09-24T10:59:46Z</time>
      </trkpt>
      <trkpt lat="42.28456" lon="0.03641">
        <ele>945.7</ele>
        <time>2015-09-24T10:59:47Z</time>
      </trkpt>
      <trkpt lat="42.28458" lon="0.03644">
        <ele>944.1</ele>
        <time>2015-09-24T10:59:48Z</time>
      </trkpt>
      <trkpt lat="42.28461" lon="0.03648">
        <ele>942.8</ele>
        <time>2015-09-24T10:59:50Z</time>
      </trkpt>
      <trkpt lat="42.28463" lon="0.03651">
        <ele>942</ele>
        <time>2015-09-24T10:59:52Z</time>
      </trkpt>
      <trkpt lat="42.28464" lon="0.03654">
        <ele>941.1</ele>
        <time>2015-09-24T10:59:54Z</time>
      </trkpt>
      <trkpt lat="42.28466" lon="0.03658">
        <ele>940.1</ele>
        <time>2015-09-24T10:59:56Z</time>
      </trkpt>
      <trkpt lat="42.28468" lon="0.03662">
        <ele>938.9</ele>
        <time>2015-09-24T10:59:58Z</time>
      </trkpt>
      <trkpt lat="42.2847" lon="0.03667">
        <ele>937.8</ele>
        <time>2015-09-24T11:00:00Z</time>
      </trkpt>
      <trkpt lat="42.28472" lon="0.03671">
        <ele>936.8</ele>
        <time>2015-09-24T11:00:02Z</time>
      </trkpt>
      <trkpt lat="42.28473" lon="0.03675">
        <ele>935.9</ele>
        <time>2015-09-24T11:00:06Z</time>
      </trkpt>
      <trkpt lat="42.28475" lon="0.03678">
        <ele>935.1</ele>
        <time>2015-09-24T11:00:10Z</time>
      </trkpt>
      <trkpt lat="42.28477" lon="0.03682">
        <ele>934</ele>
        <time>2015-09-24T11:00:15Z</time>
      </trkpt>
      <trkpt lat="42.2848" lon="0.03686">
        <ele>932.8</ele>
        <time>2015-09-24T11:00:17Z</time>
      </trkpt>
      <trkpt lat="42.28483" lon="0.0369">
        <ele>931.7</ele>
        <time>2015-09-24T11:00:19Z</time>
      </trkpt>
      <trkpt lat="42.28485" lon="0.03694">
        <ele>930.8</ele>
        <time>2015-09-24T11:00:21Z</time>
      </trkpt>
      <trkpt lat="42.28489" lon="0.03696">
        <ele>930.1</ele>
        <time>2015-09-24T11:00:23Z</time>
      </trkpt>
      <trkpt lat="42.28492" lon="0.03697">
        <ele>929.5</ele>
        <time>2015-09-24T11:00:25Z</time>
      </trkpt>
      <trkpt lat="42.28496" lon="0.03699">
        <ele>928.7</ele>
        <time>2015-09-24T11:00:27Z</time>
      </trkpt>
      <trkpt lat="42.285" lon="0.03702">
        <ele>927.8</ele>
        <time>2015-09-24T11:00:29Z</time>
      </trkpt>
      <trkpt lat="42.28505" lon="0.03705">
        <ele>926.8</ele>
        <time>2015-09-24T11:00:31Z</time>
      </trkpt>
      <trkpt lat="42.28508" lon="0.03707">
        <ele>926.2</ele>
        <time>2015-09-24T11:00:32Z</time>
      </trkpt>
      <trkpt lat="42.2851" lon="0.03709">
        <ele>925.6</ele>
        <time>2015-09-24T11:00:33Z</time>
      </trkpt>
      <trkpt lat="42.28513" lon="0.03711">
        <ele>925</ele>
        <time>2015-09-24T11:00:34Z</time>
      </trkpt>
      <trkpt lat="42.28515" lon="0.03714">
        <ele>924.4</ele>
        <time>2015-09-24T11:00:35Z</time>
      </trkpt>
      <trkpt lat="42.28518" lon="0.03717">
        <ele>923.7</ele>
        <time>2015-09-24T11:00:36Z</time>
      </trkpt>
      <trkpt lat="42.2852" lon="0.03719">
        <ele>923.2</ele>
        <time>2015-09-24T11:00:37Z</time>
      </trkpt>
      <trkpt lat="42.28523" lon="0.03722">
        <ele>922.7</ele>
        <time>2015-09-24T11:00:38Z</time>
      </trkpt>
      <trkpt lat="42.28525" lon="0.03724">
        <ele>922.2</ele>
        <time>2015-09-24T11:00:39Z</time>
      </trkpt>
      <trkpt lat="42.28528" lon="0.03726">
        <ele>921.8</ele>
        <time>2015-09-24T11:00:41Z</time>
      </trkpt>
      <trkpt lat="42.28529" lon="0.03729">
        <ele>921.2</ele>
        <time>2015-09-24T11:00:45Z</time>
      </trkpt>
      <trkpt lat="42.28532" lon="0.03733">
        <ele>920.6</ele>
        <time>2015-09-24T11:00:47Z</time>
      </trkpt>
      <trkpt lat="42.28535" lon="0.03736">
        <ele>920.1</ele>
        <time>2015-09-24T11:00:49Z</time>
      </trkpt>
      <trkpt lat="42.28538" lon="0.0374">
        <ele>919.4</ele>
        <time>2015-09-24T11:00:51Z</time>
      </trkpt>
      <trkpt lat="42.28541" lon="0.03743">
        <ele>918.9</ele>
        <time>2015-09-24T11:00:52Z</time>
      </trkpt>
      <trkpt lat="42.28543" lon="0.03745">
        <ele>918.7</ele>
        <time>2015-09-24T11:00:53Z</time>
      </trkpt>
      <trkpt lat="42.28546" lon="0.03747">
        <ele>918.7</ele>
        <time>2015-09-24T11:00:54Z</time>
      </trkpt>
      <trkpt lat="42.2855" lon="0.03751">
        <ele>918.8</ele>
        <time>2015-09-24T11:00:56Z</time>
      </trkpt>
      <trkpt lat="42.28554" lon="0.03755">
        <ele>918.6</ele>
        <time>2015-09-24T11:00:58Z</time>
      </trkpt>
      <trkpt lat="42.28556" lon="0.03759">
        <ele>918.4</ele>
        <time>2015-09-24T11:00:59Z</time>
      </trkpt>
      <trkpt lat="42.28558" lon="0.03763">
        <ele>918.1</ele>
        <time>2015-09-24T11:01:00Z</time>
      </trkpt>
      <trkpt lat="42.2856" lon="0.03767">
        <ele>917.8</ele>
        <time>2015-09-24T11:01:01Z</time>
      </trkpt>
      <trkpt lat="42.28564" lon="0.0377">
        <ele>917.7</ele>
        <time>2015-09-24T11:01:02Z</time>
      </trkpt>
      <trkpt lat="42.28567" lon="0.03773">
        <ele>917.8</ele>
        <time>2015-09-24T11:01:03Z</time>
      </trkpt>
      <trkpt lat="42.2857" lon="0.03774">
        <ele>917.9</ele>
        <time>2015-09-24T11:01:04Z</time>
      </trkpt>
      <trkpt lat="42.28573" lon="0.03777">
        <ele>917.9</ele>
        <time>2015-09-24T11:01:05Z</time>
      </trkpt>
      <trkpt lat="42.28575" lon="0.0378">
        <ele>917.7</ele>
        <time>2015-09-24T11:01:06Z</time>
      </trkpt>
      <trkpt lat="42.28578" lon="0.03782">
        <ele>917.7</ele>
        <time>2015-09-24T11:01:07Z</time>
      </trkpt>
      <trkpt lat="42.28582" lon="0.03783">
        <ele>917.9</ele>
        <time>2015-09-24T11:01:08Z</time>
      </trkpt>
      <trkpt lat="42.28585" lon="0.03784">
        <ele>918.2</ele>
        <time>2015-09-24T11:01:09Z</time>
      </trkpt>
      <trkpt lat="42.2859" lon="0.03784">
        <ele>918.6</ele>
        <time>2015-09-24T11:01:10Z</time>
      </trkpt>
      <trkpt lat="42.28599" lon="0.03783">
        <ele>919.6</ele>
        <time>2015-09-24T11:01:11Z</time>
      </trkpt>
      <trkpt lat="42.28603" lon="0.03784">
        <ele>920</ele>
        <time>2015-09-24T11:01:12Z</time>
      </trkpt>
      <trkpt lat="42.28608" lon="0.03783">
        <ele>920.6</ele>
        <time>2015-09-24T11:01:13Z</time>
      </trkpt>
      <trkpt lat="42.28612" lon="0.03783">
        <ele>920.9</ele>
        <time>2015-09-24T11:01:14Z</time>
      </trkpt>
      <trkpt lat="42.28616" lon="0.03781">
        <ele>921.5</ele>
        <time>2015-09-24T11:01:15Z</time>
      </trkpt>
      <trkpt lat="42.2862" lon="0.03782">
        <ele>921.8</ele>
        <time>2015-09-24T11:01:16Z</time>
      </trkpt>
      <trkpt lat="42.28624" lon="0.03783">
        <ele>922.1</ele>
        <time>2015-09-24T11:01:17Z</time>
      </trkpt>
      <trkpt lat="42.28627" lon="0.03784">
        <ele>922.1</ele>
        <time>2015-09-24T11:01:18Z</time>
      </trkpt>
      <trkpt lat="42.2863" lon="0.03784">
        <ele>922.1</ele>
        <time>2015-09-24T11:01:19Z</time>
      </trkpt>
      <trkpt lat="42.28633" lon="0.03785">
        <ele>921.9</ele>
        <time>2015-09-24T11:01:20Z</time>
      </trkpt>
      <trkpt lat="42.28636" lon="0.03786">
        <ele>921.9</ele>
        <time>2015-09-24T11:01:21Z</time>
      </trkpt>
      <trkpt lat="42.28641" lon="0.03788">
        <ele>921.7</ele>
        <time>2015-09-24T11:01:23Z</time>
      </trkpt>
      <trkpt lat="42.28645" lon="0.03789">
        <ele>921.7</ele>
        <time>2015-09-24T11:01:25Z</time>
      </trkpt>
      <trkpt lat="42.2865" lon="0.03788">
        <ele>921.8</ele>
        <time>2015-09-24T11:01:27Z</time>
      </trkpt>
      <trkpt lat="42.28654" lon="0.03789">
        <ele>921.7</ele>
        <time>2015-09-24T11:01:29Z</time>
      </trkpt>
      <trkpt lat="42.28659" lon="0.0379">
        <ele>921.7</ele>
        <time>2015-09-24T11:01:31Z</time>
      </trkpt>
      <trkpt lat="42.28662" lon="0.03789">
        <ele>921.8</ele>
        <time>2015-09-24T11:01:32Z</time>
      </trkpt>
      <trkpt lat="42.28665" lon="0.03789">
        <ele>921.9</ele>
        <time>2015-09-24T11:01:33Z</time>
      </trkpt>
      <trkpt lat="42.28668" lon="0.03789">
        <ele>921.9</ele>
        <time>2015-09-24T11:01:34Z</time>
      </trkpt>
      <trkpt lat="42.28671" lon="0.0379">
        <ele>921.8</ele>
        <time>2015-09-24T11:01:35Z</time>
      </trkpt>
      <trkpt lat="42.28675" lon="0.03791">
        <ele>921.7</ele>
        <time>2015-09-24T11:01:36Z</time>
      </trkpt>
      <trkpt lat="42.28678" lon="0.03792">
        <ele>921.5</ele>
        <time>2015-09-24T11:01:37Z</time>
      </trkpt>
      <trkpt lat="42.28682" lon="0.03793">
        <ele>921.4</ele>
        <time>2015-09-24T11:01:38Z</time>
      </trkpt>
      <trkpt lat="42.28686" lon="0.03793">
        <ele>921.4</ele>
        <time>2015-09-24T11:01:39Z</time>
      </trkpt>
      <trkpt lat="42.2869" lon="0.03793">
        <ele>921.6</ele>
        <time>2015-09-24T11:01:40Z</time>
      </trkpt>
      <trkpt lat="42.28696" lon="0.03792">
        <ele>921.7</ele>
        <time>2015-09-24T11:01:41Z</time>
      </trkpt>
      <trkpt lat="42.28701" lon="0.03792">
        <ele>921.9</ele>
        <time>2015-09-24T11:01:42Z</time>
      </trkpt>
      <trkpt lat="42.28707" lon="0.03788">
        <ele>922.6</ele>
        <time>2015-09-24T11:01:43Z</time>
      </trkpt>
      <trkpt lat="42.28712" lon="0.03783">
        <ele>922.5</ele>
        <time>2015-09-24T11:01:44Z</time>
      </trkpt>
      <trkpt lat="42.28717" lon="0.03778">
        <ele>922</ele>
        <time>2015-09-24T11:01:45Z</time>
      </trkpt>
      <trkpt lat="42.28721" lon="0.03772">
        <ele>921.7</ele>
        <time>2015-09-24T11:01:46Z</time>
      </trkpt>
      <trkpt lat="42.28725" lon="0.03767">
        <ele>921.3</ele>
        <time>2015-09-24T11:01:47Z</time>
      </trkpt>
      <trkpt lat="42.28729" lon="0.03763">
        <ele>921</ele>
        <time>2015-09-24T11:01:48Z</time>
      </trkpt>
      <trkpt lat="42.28731" lon="0.03758">
        <ele>921.2</ele>
        <time>2015-09-24T11:01:49Z</time>
      </trkpt>
      <trkpt lat="42.28733" lon="0.03753">
        <ele>921.7</ele>
        <time>2015-09-24T11:01:50Z</time>
      </trkpt>
      <trkpt lat="42.28736" lon="0.03747">
        <ele>921.9</ele>
        <time>2015-09-24T11:01:51Z</time>
      </trkpt>
      <trkpt lat="42.28738" lon="0.0374">
        <ele>922.4</ele>
        <time>2015-09-24T11:01:52Z</time>
      </trkpt>
      <trkpt lat="42.2874" lon="0.03734">
        <ele>922.8</ele>
        <time>2015-09-24T11:01:53Z</time>
      </trkpt>
      <trkpt lat="42.28743" lon="0.03727">
        <ele>923.2</ele>
        <time>2015-09-24T11:01:54Z</time>
      </trkpt>
      <trkpt lat="42.28746" lon="0.0372">
        <ele>923.7</ele>
        <time>2015-09-24T11:01:55Z</time>
      </trkpt>
      <trkpt lat="42.28749" lon="0.03712">
        <ele>924.2</ele>
        <time>2015-09-24T11:01:56Z</time>
      </trkpt>
      <trkpt lat="42.2875" lon="0.03704">
        <ele>925.2</ele>
        <time>2015-09-24T11:01:57Z</time>
      </trkpt>
      <trkpt lat="42.28752" lon="0.03696">
        <ele>926.2</ele>
        <time>2015-09-24T11:01:58Z</time>
      </trkpt>
      <trkpt lat="42.28754" lon="0.03688">
        <ele>927.1</ele>
        <time>2015-09-24T11:01:59Z</time>
      </trkpt>
      <trkpt lat="42.28758" lon="0.03682">
        <ele>927.3</ele>
        <time>2015-09-24T11:02:00Z</time>
      </trkpt>
      <trkpt lat="42.28761" lon="0.03678">
        <ele>927</ele>
        <time>2015-09-24T11:02:01Z</time>
      </trkpt>
      <trkpt lat="42.28765" lon="0.03675">
        <ele>926.5</ele>
        <time>2015-09-24T11:02:02Z</time>
      </trkpt>
      <trkpt lat="42.28769" lon="0.03671">
        <ele>926.1</ele>
        <time>2015-09-24T11:02:03Z</time>
      </trkpt>
      <trkpt lat="42.28772" lon="0.03667">
        <ele>925.7</ele>
        <time>2015-09-24T11:02:04Z</time>
      </trkpt>
      <trkpt lat="42.28777" lon="0.03662">
        <ele>925.3</ele>
        <time>2015-09-24T11:02:05Z</time>
      </trkpt>
      <trkpt lat="42.2878" lon="0.03657">
        <ele>925.2</ele>
        <time>2015-09-24T11:02:06Z</time>
      </trkpt>
      <trkpt lat="42.28784" lon="0.03652">
        <ele>925.1</ele>
        <time>2015-09-24T11:02:07Z</time>
      </trkpt>
      <trkpt lat="42.28788" lon="0.03647">
        <ele>924.8</ele>
        <time>2015-09-24T11:02:08Z</time>
      </trkpt>
      <trkpt lat="42.28792" lon="0.03643">
        <ele>924.4</ele>
        <time>2015-09-24T11:02:09Z</time>
      </trkpt>
      <trkpt lat="42.28797" lon="0.03639">
        <ele>923.4</ele>
        <time>2015-09-24T11:02:10Z</time>
      </trkpt>
      <trkpt lat="42.288" lon="0.03636">
        <ele>922.6</ele>
        <time>2015-09-24T11:02:11Z</time>
      </trkpt>
      <trkpt lat="42.28804" lon="0.03632">
        <ele>921.8</ele>
        <time>2015-09-24T11:02:12Z</time>
      </trkpt>
      <trkpt lat="42.28806" lon="0.03628">
        <ele>921.6</ele>
        <time>2015-09-24T11:02:13Z</time>
      </trkpt>
      <trkpt lat="42.28809" lon="0.03624">
        <ele>921.3</ele>
        <time>2015-09-24T11:02:14Z</time>
      </trkpt>
      <trkpt lat="42.28813" lon="0.03618">
        <ele>921.4</ele>
        <time>2015-09-24T11:02:15Z</time>
      </trkpt>
      <trkpt lat="42.28816" lon="0.03612">
        <ele>921.1</ele>
        <time>2015-09-24T11:02:16Z</time>
      </trkpt>
      <trkpt lat="42.2882" lon="0.03607">
        <ele>920.7</ele>
        <time>2015-09-24T11:02:17Z</time>
      </trkpt>
      <trkpt lat="42.28825" lon="0.03601">
        <ele>920.4</ele>
        <time>2015-09-24T11:02:18Z</time>
      </trkpt>
      <trkpt lat="42.28829" lon="0.03594">
        <ele>920.3</ele>
        <time>2015-09-24T11:02:19Z</time>
      </trkpt>
      <trkpt lat="42.28833" lon="0.03588">
        <ele>920</ele>
        <time>2015-09-24T11:02:20Z</time>
      </trkpt>
      <trkpt lat="42.28837" lon="0.03583">
        <ele>919.5</ele>
        <time>2015-09-24T11:02:21Z</time>
      </trkpt>
      <trkpt lat="42.28842" lon="0.03578">
        <ele>918.7</ele>
        <time>2015-09-24T11:02:22Z</time>
      </trkpt>
      <trkpt lat="42.28847" lon="0.03574">
        <ele>917.7</ele>
        <time>2015-09-24T11:02:23Z</time>
      </trkpt>
      <trkpt lat="42.28851" lon="0.0357">
        <ele>917</ele>
        <time>2015-09-24T11:02:24Z</time>
      </trkpt>
      <trkpt lat="42.28855" lon="0.03565">
        <ele>916.6</ele>
        <time>2015-09-24T11:02:25Z</time>
      </trkpt>
      <trkpt lat="42.28859" lon="0.03559">
        <ele>916.6</ele>
        <time>2015-09-24T11:02:26Z</time>
      </trkpt>
      <trkpt lat="42.28862" lon="0.03551">
        <ele>917</ele>
        <time>2015-09-24T11:02:27Z</time>
      </trkpt>
      <trkpt lat="42.28866" lon="0.03544">
        <ele>917.3</ele>
        <time>2015-09-24T11:02:28Z</time>
      </trkpt>
      <trkpt lat="42.28869" lon="0.03536">
        <ele>917.4</ele>
        <time>2015-09-24T11:02:29Z</time>
      </trkpt>
      <trkpt lat="42.28872" lon="0.03529">
        <ele>917.2</ele>
        <time>2015-09-24T11:02:30Z</time>
      </trkpt>
      <trkpt lat="42.28877" lon="0.03522">
        <ele>916.7</ele>
        <time>2015-09-24T11:02:31Z</time>
      </trkpt>
      <trkpt lat="42.28881" lon="0.03514">
        <ele>916.2</ele>
        <time>2015-09-24T11:02:32Z</time>
      </trkpt>
      <trkpt lat="42.28885" lon="0.03507">
        <ele>915.6</ele>
        <time>2015-09-24T11:02:33Z</time>
      </trkpt>
      <trkpt lat="42.28889" lon="0.03499">
        <ele>915.2</ele>
        <time>2015-09-24T11:02:34Z</time>
      </trkpt>
      <trkpt lat="42.28893" lon="0.03491">
        <ele>915</ele>
        <time>2015-09-24T11:02:35Z</time>
      </trkpt>
      <trkpt lat="42.28897" lon="0.03483">
        <ele>914.6</ele>
        <time>2015-09-24T11:02:36Z</time>
      </trkpt>
      <trkpt lat="42.28901" lon="0.03475">
        <ele>914</ele>
        <time>2015-09-24T11:02:37Z</time>
      </trkpt>
      <trkpt lat="42.28905" lon="0.03469">
        <ele>913.3</ele>
        <time>2015-09-24T11:02:38Z</time>
      </trkpt>
      <trkpt lat="42.2891" lon="0.03463">
        <ele>912.4</ele>
        <time>2015-09-24T11:02:39Z</time>
      </trkpt>
      <trkpt lat="42.28914" lon="0.03457">
        <ele>911.3</ele>
        <time>2015-09-24T11:02:40Z</time>
      </trkpt>
      <trkpt lat="42.2892" lon="0.03453">
        <ele>910.3</ele>
        <time>2015-09-24T11:02:41Z</time>
      </trkpt>
      <trkpt lat="42.28925" lon="0.03449">
        <ele>909.2</ele>
        <time>2015-09-24T11:02:42Z</time>
      </trkpt>
      <trkpt lat="42.2893" lon="0.03445">
        <ele>907.9</ele>
        <time>2015-09-24T11:02:43Z</time>
      </trkpt>
      <trkpt lat="42.28935" lon="0.03443">
        <ele>906.4</ele>
        <time>2015-09-24T11:02:44Z</time>
      </trkpt>
      <trkpt lat="42.28939" lon="0.0344">
        <ele>905.3</ele>
        <time>2015-09-24T11:02:45Z</time>
      </trkpt>
      <trkpt lat="42.28943" lon="0.03438">
        <ele>904.2</ele>
        <time>2015-09-24T11:02:46Z</time>
      </trkpt>
      <trkpt lat="42.28947" lon="0.03434">
        <ele>903.8</ele>
        <time>2015-09-24T11:02:47Z</time>
      </trkpt>
      <trkpt lat="42.2895" lon="0.03431">
        <ele>903.1</ele>
        <time>2015-09-24T11:02:48Z</time>
      </trkpt>
      <trkpt lat="42.28954" lon="0.03428">
        <ele>902.2</ele>
        <time>2015-09-24T11:02:49Z</time>
      </trkpt>
      <trkpt lat="42.28958" lon="0.03426">
        <ele>901.1</ele>
        <time>2015-09-24T11:02:50Z</time>
      </trkpt>
      <trkpt lat="42.28963" lon="0.03424">
        <ele>900.3</ele>
        <time>2015-09-24T11:02:51Z</time>
      </trkpt>
      <trkpt lat="42.28968" lon="0.03422">
        <ele>899.5</ele>
        <time>2015-09-24T11:02:52Z</time>
      </trkpt>
      <trkpt lat="42.28973" lon="0.03419">
        <ele>898.8</ele>
        <time>2015-09-24T11:02:53Z</time>
      </trkpt>
      <trkpt lat="42.28977" lon="0.03417">
        <ele>898.1</ele>
        <time>2015-09-24T11:02:54Z</time>
      </trkpt>
      <trkpt lat="42.28981" lon="0.03415">
        <ele>897.2</ele>
        <time>2015-09-24T11:02:55Z</time>
      </trkpt>
      <trkpt lat="42.28986" lon="0.03412">
        <ele>896.5</ele>
        <time>2015-09-24T11:02:56Z</time>
      </trkpt>
      <trkpt lat="42.28991" lon="0.0341">
        <ele>895.5</ele>
        <time>2015-09-24T11:02:57Z</time>
      </trkpt>
      <trkpt lat="42.28995" lon="0.03408">
        <ele>894.6</ele>
        <time>2015-09-24T11:02:58Z</time>
      </trkpt>
      <trkpt lat="42.29" lon="0.03404">
        <ele>893.9</ele>
        <time>2015-09-24T11:02:59Z</time>
      </trkpt>
      <trkpt lat="42.29005" lon="0.03401">
        <ele>893.1</ele>
        <time>2015-09-24T11:03:00Z</time>
      </trkpt>
      <trkpt lat="42.2901" lon="0.03397">
        <ele>892.2</ele>
        <time>2015-09-24T11:03:01Z</time>
      </trkpt>
      <trkpt lat="42.29014" lon="0.03393">
        <ele>891.5</ele>
        <time>2015-09-24T11:03:02Z</time>
      </trkpt>
      <trkpt lat="42.29019" lon="0.03389">
        <ele>890.7</ele>
        <time>2015-09-24T11:03:03Z</time>
      </trkpt>
      <trkpt lat="42.29023" lon="0.03384">
        <ele>890.1</ele>
        <time>2015-09-24T11:03:04Z</time>
      </trkpt>
      <trkpt lat="42.29028" lon="0.0338">
        <ele>889.1</ele>
        <time>2015-09-24T11:03:05Z</time>
      </trkpt>
      <trkpt lat="42.29033" lon="0.03376">
        <ele>888</ele>
        <time>2015-09-24T11:03:06Z</time>
      </trkpt>
      <trkpt lat="42.29039" lon="0.03372">
        <ele>886.6</ele>
        <time>2015-09-24T11:03:07Z</time>
      </trkpt>
      <trkpt lat="42.29043" lon="0.03369">
        <ele>885.8</ele>
        <time>2015-09-24T11:03:08Z</time>
      </trkpt>
      <trkpt lat="42.29047" lon="0.03366">
        <ele>885.5</ele>
        <time>2015-09-24T11:03:09Z</time>
      </trkpt>
      <trkpt lat="42.29052" lon="0.03363">
        <ele>885.2</ele>
        <time>2015-09-24T11:03:10Z</time>
      </trkpt>
      <trkpt lat="42.29057" lon="0.0336">
        <ele>884.8</ele>
        <time>2015-09-24T11:03:11Z</time>
      </trkpt>
      <trkpt lat="42.29062" lon="0.03357">
        <ele>884.3</ele>
        <time>2015-09-24T11:03:12Z</time>
      </trkpt>
      <trkpt lat="42.29067" lon="0.03354">
        <ele>884</ele>
        <time>2015-09-24T11:03:13Z</time>
      </trkpt>
      <trkpt lat="42.29071" lon="0.03351">
        <ele>883.6</ele>
        <time>2015-09-24T11:03:14Z</time>
      </trkpt>
      <trkpt lat="42.29077" lon="0.0335">
        <ele>882.9</ele>
        <time>2015-09-24T11:03:15Z</time>
      </trkpt>
      <trkpt lat="42.29082" lon="0.03348">
        <ele>882.2</ele>
        <time>2015-09-24T11:03:16Z</time>
      </trkpt>
      <trkpt lat="42.29087" lon="0.03345">
        <ele>881.6</ele>
        <time>2015-09-24T11:03:17Z</time>
      </trkpt>
      <trkpt lat="42.29092" lon="0.03343">
        <ele>881</ele>
        <time>2015-09-24T11:03:18Z</time>
      </trkpt>
      <trkpt lat="42.29098" lon="0.0334">
        <ele>880.3</ele>
        <time>2015-09-24T11:03:19Z</time>
      </trkpt>
      <trkpt lat="42.29104" lon="0.03337">
        <ele>879.6</ele>
        <time>2015-09-24T11:03:20Z</time>
      </trkpt>
      <trkpt lat="42.2911" lon="0.03335">
        <ele>878.8</ele>
        <time>2015-09-24T11:03:21Z</time>
      </trkpt>
      <trkpt lat="42.29116" lon="0.03334">
        <ele>877.7</ele>
        <time>2015-09-24T11:03:22Z</time>
      </trkpt>
      <trkpt lat="42.29122" lon="0.03334">
        <ele>876.4</ele>
        <time>2015-09-24T11:03:23Z</time>
      </trkpt>
      <trkpt lat="42.29128" lon="0.03336">
        <ele>875.8</ele>
        <time>2015-09-24T11:03:24Z</time>
      </trkpt>
      <trkpt lat="42.29133" lon="0.03337">
        <ele>875.7</ele>
        <time>2015-09-24T11:03:25Z</time>
      </trkpt>
      <trkpt lat="42.29138" lon="0.03338">
        <ele>875.7</ele>
        <time>2015-09-24T11:03:26Z</time>
      </trkpt>
      <trkpt lat="42.29142" lon="0.03341">
        <ele>875.4</ele>
        <time>2015-09-24T11:03:27Z</time>
      </trkpt>
      <trkpt lat="42.29146" lon="0.03345">
        <ele>875</ele>
        <time>2015-09-24T11:03:28Z</time>
      </trkpt>
      <trkpt lat="42.29149" lon="0.0335">
        <ele>874.5</ele>
        <time>2015-09-24T11:03:29Z</time>
      </trkpt>
      <trkpt lat="42.29151" lon="0.03353">
        <ele>874.2</ele>
        <time>2015-09-24T11:03:30Z</time>
      </trkpt>
      <trkpt lat="42.29155" lon="0.03357">
        <ele>873.9</ele>
        <time>2015-09-24T11:03:31Z</time>
      </trkpt>
      <trkpt lat="42.29158" lon="0.0336">
        <ele>873.6</ele>
        <time>2015-09-24T11:03:32Z</time>
      </trkpt>
      <trkpt lat="42.29162" lon="0.03363">
        <ele>873.3</ele>
        <time>2015-09-24T11:03:33Z</time>
      </trkpt>
      <trkpt lat="42.29166" lon="0.03366">
        <ele>873</ele>
        <time>2015-09-24T11:03:34Z</time>
      </trkpt>
      <trkpt lat="42.2917" lon="0.03369">
        <ele>872.7</ele>
        <time>2015-09-24T11:03:35Z</time>
      </trkpt>
      <trkpt lat="42.29173" lon="0.03372">
        <ele>872.5</ele>
        <time>2015-09-24T11:03:36Z</time>
      </trkpt>
      <trkpt lat="42.29177" lon="0.03376">
        <ele>872.1</ele>
        <time>2015-09-24T11:03:37Z</time>
      </trkpt>
      <trkpt lat="42.29181" lon="0.03379">
        <ele>871.8</ele>
        <time>2015-09-24T11:03:38Z</time>
      </trkpt>
      <trkpt lat="42.29184" lon="0.03383">
        <ele>871.5</ele>
        <time>2015-09-24T11:03:39Z</time>
      </trkpt>
      <trkpt lat="42.29188" lon="0.03387">
        <ele>871.1</ele>
        <time>2015-09-24T11:03:40Z</time>
      </trkpt>
      <trkpt lat="42.29191" lon="0.03391">
        <ele>870.8</ele>
        <time>2015-09-24T11:03:41Z</time>
      </trkpt>
      <trkpt lat="42.29193" lon="0.03394">
        <ele>870.5</ele>
        <time>2015-09-24T11:03:42Z</time>
      </trkpt>
      <trkpt lat="42.29196" lon="0.03396">
        <ele>870.3</ele>
        <time>2015-09-24T11:03:43Z</time>
      </trkpt>
      <trkpt lat="42.29199" lon="0.03398">
        <ele>870.2</ele>
        <time>2015-09-24T11:03:44Z</time>
      </trkpt>
      <trkpt lat="42.29202" lon="0.034">
        <ele>870.1</ele>
        <time>2015-09-24T11:03:45Z</time>
      </trkpt>
      <trkpt lat="42.29206" lon="0.03403">
        <ele>869.9</ele>
        <time>2015-09-24T11:03:47Z</time>
      </trkpt>
      <trkpt lat="42.29209" lon="0.03406">
        <ele>869.7</ele>
        <time>2015-09-24T11:03:49Z</time>
      </trkpt>
      <trkpt lat="42.29213" lon="0.03409">
        <ele>869.5</ele>
        <time>2015-09-24T11:03:51Z</time>
      </trkpt>
      <trkpt lat="42.29216" lon="0.03412">
        <ele>869.4</ele>
        <time>2015-09-24T11:03:53Z</time>
      </trkpt>
      <trkpt lat="42.29221" lon="0.03416">
        <ele>869.4</ele>
        <time>2015-09-24T11:03:55Z</time>
      </trkpt>
      <trkpt lat="42.29225" lon="0.03418">
        <ele>869.4</ele>
        <time>2015-09-24T11:03:56Z</time>
      </trkpt>
      <trkpt lat="42.29229" lon="0.03419">
        <ele>869.5</ele>
        <time>2015-09-24T11:03:57Z</time>
      </trkpt>
      <trkpt lat="42.29234" lon="0.03419">
        <ele>869.8</ele>
        <time>2015-09-24T11:03:58Z</time>
      </trkpt>
      <trkpt lat="42.2924" lon="0.03417">
        <ele>870.4</ele>
        <time>2015-09-24T11:03:59Z</time>
      </trkpt>
      <trkpt lat="42.29244" lon="0.03416">
        <ele>870.7</ele>
        <time>2015-09-24T11:04:00Z</time>
      </trkpt>
      <trkpt lat="42.29249" lon="0.03415">
        <ele>871.1</ele>
        <time>2015-09-24T11:04:01Z</time>
      </trkpt>
      <trkpt lat="42.29254" lon="0.03413">
        <ele>871.6</ele>
        <time>2015-09-24T11:04:02Z</time>
      </trkpt>
      <trkpt lat="42.29259" lon="0.03412">
        <ele>871.9</ele>
        <time>2015-09-24T11:04:03Z</time>
      </trkpt>
      <trkpt lat="42.29264" lon="0.03412">
        <ele>872.3</ele>
        <time>2015-09-24T11:04:04Z</time>
      </trkpt>
      <trkpt lat="42.29269" lon="0.03411">
        <ele>872.7</ele>
        <time>2015-09-24T11:04:05Z</time>
      </trkpt>
      <trkpt lat="42.29273" lon="0.03408">
        <ele>873.2</ele>
        <time>2015-09-24T11:04:06Z</time>
      </trkpt>
      <trkpt lat="42.29277" lon="0.03405">
        <ele>873.7</ele>
        <time>2015-09-24T11:04:07Z</time>
      </trkpt>
      <trkpt lat="42.29282" lon="0.03402">
        <ele>874.1</ele>
        <time>2015-09-24T11:04:08Z</time>
      </trkpt>
      <trkpt lat="42.29285" lon="0.03399">
        <ele>874.6</ele>
        <time>2015-09-24T11:04:09Z</time>
      </trkpt>
      <trkpt lat="42.29289" lon="0.03396">
        <ele>875.1</ele>
        <time>2015-09-24T11:04:10Z</time>
      </trkpt>
      <trkpt lat="42.29292" lon="0.03392">
        <ele>875.6</ele>
        <time>2015-09-24T11:04:11Z</time>
      </trkpt>
      <trkpt lat="42.29294" lon="0.03388">
        <ele>875.7</ele>
        <time>2015-09-24T11:04:12Z</time>
      </trkpt>
      <trkpt lat="42.29296" lon="0.03384">
        <ele>875.9</ele>
        <time>2015-09-24T11:04:13Z</time>
      </trkpt>
      <trkpt lat="42.29298" lon="0.0338">
        <ele>876.1</ele>
        <time>2015-09-24T11:04:14Z</time>
      </trkpt>
      <trkpt lat="42.293" lon="0.03376">
        <ele>876.3</ele>
        <time>2015-09-24T11:04:15Z</time>
      </trkpt>
      <trkpt lat="42.29302" lon="0.03372">
        <ele>876.6</ele>
        <time>2015-09-24T11:04:16Z</time>
      </trkpt>
      <trkpt lat="42.29303" lon="0.03368">
        <ele>876.8</ele>
        <time>2015-09-24T11:04:17Z</time>
      </trkpt>
      <trkpt lat="42.29306" lon="0.03363">
        <ele>876.9</ele>
        <time>2015-09-24T11:04:18Z</time>
      </trkpt>
      <trkpt lat="42.29309" lon="0.0336">
        <ele>877</ele>
        <time>2015-09-24T11:04:19Z</time>
      </trkpt>
      <trkpt lat="42.29313" lon="0.03357">
        <ele>876.9</ele>
        <time>2015-09-24T11:04:20Z</time>
      </trkpt>
      <trkpt lat="42.29318" lon="0.03355">
        <ele>876.7</ele>
        <time>2015-09-24T11:04:21Z</time>
      </trkpt>
      <trkpt lat="42.29323" lon="0.03354">
        <ele>876.4</ele>
        <time>2015-09-24T11:04:22Z</time>
      </trkpt>
      <trkpt lat="42.29328" lon="0.03354">
        <ele>876</ele>
        <time>2015-09-24T11:04:23Z</time>
      </trkpt>
      <trkpt lat="42.29333" lon="0.03355">
        <ele>875.6</ele>
        <time>2015-09-24T11:04:24Z</time>
      </trkpt>
      <trkpt lat="42.29338" lon="0.03354">
        <ele>875.3</ele>
        <time>2015-09-24T11:04:25Z</time>
      </trkpt>
      <trkpt lat="42.29342" lon="0.03353">
        <ele>875.1</ele>
        <time>2015-09-24T11:04:26Z</time>
      </trkpt>
      <trkpt lat="42.29346" lon="0.03351">
        <ele>874.9</ele>
        <time>2015-09-24T11:04:27Z</time>
      </trkpt>
      <trkpt lat="42.2935" lon="0.03349">
        <ele>874.8</ele>
        <time>2015-09-24T11:04:28Z</time>
      </trkpt>
      <trkpt lat="42.29354" lon="0.03348">
        <ele>874.6</ele>
        <time>2015-09-24T11:04:29Z</time>
      </trkpt>
      <trkpt lat="42.29357" lon="0.03347">
        <ele>874.4</ele>
        <time>2015-09-24T11:04:30Z</time>
      </trkpt>
      <trkpt lat="42.29362" lon="0.03348">
        <ele>874</ele>
        <time>2015-09-24T11:04:31Z</time>
      </trkpt>
      <trkpt lat="42.29365" lon="0.0335">
        <ele>873.5</ele>
        <time>2015-09-24T11:04:32Z</time>
      </trkpt>
      <trkpt lat="42.29369" lon="0.03353">
        <ele>873</ele>
        <time>2015-09-24T11:04:33Z</time>
      </trkpt>
      <trkpt lat="42.29373" lon="0.03356">
        <ele>872.5</ele>
        <time>2015-09-24T11:04:34Z</time>
      </trkpt>
      <trkpt lat="42.29377" lon="0.03359">
        <ele>871.9</ele>
        <time>2015-09-24T11:04:35Z</time>
      </trkpt>
      <trkpt lat="42.2938" lon="0.03362">
        <ele>871.1</ele>
        <time>2015-09-24T11:04:36Z</time>
      </trkpt>
      <trkpt lat="42.29384" lon="0.03364">
        <ele>870.4</ele>
        <time>2015-09-24T11:04:37Z</time>
      </trkpt>
      <trkpt lat="42.29387" lon="0.03366">
        <ele>869.6</ele>
        <time>2015-09-24T11:04:38Z</time>
      </trkpt>
      <trkpt lat="42.29391" lon="0.03368">
        <ele>868.8</ele>
        <time>2015-09-24T11:04:39Z</time>
      </trkpt>
      <trkpt lat="42.29395" lon="0.0337">
        <ele>868</ele>
        <time>2015-09-24T11:04:40Z</time>
      </trkpt>
      <trkpt lat="42.29401" lon="0.03371">
        <ele>866.9</ele>
        <time>2015-09-24T11:04:41Z</time>
      </trkpt>
      <trkpt lat="42.29406" lon="0.03371">
        <ele>866</ele>
        <time>2015-09-24T11:04:42Z</time>
      </trkpt>
      <trkpt lat="42.29412" lon="0.0337">
        <ele>865.1</ele>
        <time>2015-09-24T11:04:43Z</time>
      </trkpt>
      <trkpt lat="42.29418" lon="0.0337">
        <ele>864.2</ele>
        <time>2015-09-24T11:04:44Z</time>
      </trkpt>
      <trkpt lat="42.29424" lon="0.0337">
        <ele>863.2</ele>
        <time>2015-09-24T11:04:45Z</time>
      </trkpt>
      <trkpt lat="42.29429" lon="0.03369">
        <ele>862.4</ele>
        <time>2015-09-24T11:04:46Z</time>
      </trkpt>
      <trkpt lat="42.29434" lon="0.03367">
        <ele>861.7</ele>
        <time>2015-09-24T11:04:47Z</time>
      </trkpt>
      <trkpt lat="42.29438" lon="0.03365">
        <ele>861.3</ele>
        <time>2015-09-24T11:04:48Z</time>
      </trkpt>
      <trkpt lat="42.2944" lon="0.03362">
        <ele>861.1</ele>
        <time>2015-09-24T11:04:49Z</time>
      </trkpt>
      <trkpt lat="42.29442" lon="0.03359">
        <ele>860.9</ele>
        <time>2015-09-24T11:04:50Z</time>
      </trkpt>
      <trkpt lat="42.29444" lon="0.03355">
        <ele>860.9</ele>
        <time>2015-09-24T11:04:51Z</time>
      </trkpt>
      <trkpt lat="42.29446" lon="0.03351">
        <ele>860.9</ele>
        <time>2015-09-24T11:04:52Z</time>
      </trkpt>
      <trkpt lat="42.29447" lon="0.03346">
        <ele>861</ele>
        <time>2015-09-24T11:04:53Z</time>
      </trkpt>
      <trkpt lat="42.29448" lon="0.0334">
        <ele>861.3</ele>
        <time>2015-09-24T11:04:54Z</time>
      </trkpt>
      <trkpt lat="42.29449" lon="0.03333">
        <ele>861.6</ele>
        <time>2015-09-24T11:04:55Z</time>
      </trkpt>
      <trkpt lat="42.2945" lon="0.03327">
        <ele>861.9</ele>
        <time>2015-09-24T11:04:56Z</time>
      </trkpt>
      <trkpt lat="42.29451" lon="0.03321">
        <ele>862.1</ele>
        <time>2015-09-24T11:04:57Z</time>
      </trkpt>
      <trkpt lat="42.29453" lon="0.03317">
        <ele>862</ele>
        <time>2015-09-24T11:04:58Z</time>
      </trkpt>
      <trkpt lat="42.29456" lon="0.03314">
        <ele>861.8</ele>
        <time>2015-09-24T11:04:59Z</time>
      </trkpt>
      <trkpt lat="42.29459" lon="0.03313">
        <ele>861.4</ele>
        <time>2015-09-24T11:05:00Z</time>
      </trkpt>
      <trkpt lat="42.29463" lon="0.03313">
        <ele>861.2</ele>
        <time>2015-09-24T11:05:01Z</time>
      </trkpt>
      <trkpt lat="42.29466" lon="0.03314">
        <ele>861</ele>
        <time>2015-09-24T11:05:02Z</time>
      </trkpt>
      <trkpt lat="42.29469" lon="0.03314">
        <ele>860.9</ele>
        <time>2015-09-24T11:05:03Z</time>
      </trkpt>
      <trkpt lat="42.29473" lon="0.03315">
        <ele>860.6</ele>
        <time>2015-09-24T11:05:04Z</time>
      </trkpt>
      <trkpt lat="42.29475" lon="0.03316">
        <ele>860.5</ele>
        <time>2015-09-24T11:05:05Z</time>
      </trkpt>
      <trkpt lat="42.29478" lon="0.03317">
        <ele>860.2</ele>
        <time>2015-09-24T11:05:06Z</time>
      </trkpt>
      <trkpt lat="42.29481" lon="0.03317">
        <ele>860.1</ele>
        <time>2015-09-24T11:05:07Z</time>
      </trkpt>
      <trkpt lat="42.29484" lon="0.03318">
        <ele>859.9</ele>
        <time>2015-09-24T11:05:08Z</time>
      </trkpt>
      <trkpt lat="42.29487" lon="0.03319">
        <ele>859.7</ele>
        <time>2015-09-24T11:05:09Z</time>
      </trkpt>
      <trkpt lat="42.2949" lon="0.03319">
        <ele>859.5</ele>
        <time>2015-09-24T11:05:10Z</time>
      </trkpt>
      <trkpt lat="42.29493" lon="0.0332">
        <ele>859.3</ele>
        <time>2015-09-24T11:05:11Z</time>
      </trkpt>
      <trkpt lat="42.29496" lon="0.03322">
        <ele>859</ele>
        <time>2015-09-24T11:05:12Z</time>
      </trkpt>
      <trkpt lat="42.29499" lon="0.03323">
        <ele>858.8</ele>
        <time>2015-09-24T11:05:13Z</time>
      </trkpt>
      <trkpt lat="42.29503" lon="0.03325">
        <ele>858.5</ele>
        <time>2015-09-24T11:05:15Z</time>
      </trkpt>
      <trkpt lat="42.29507" lon="0.03325">
        <ele>858.3</ele>
        <time>2015-09-24T11:05:17Z</time>
      </trkpt>
      <trkpt lat="42.29511" lon="0.03323">
        <ele>858.2</ele>
        <time>2015-09-24T11:05:19Z</time>
      </trkpt>
      <trkpt lat="42.29516" lon="0.03318">
        <ele>858.4</ele>
        <time>2015-09-24T11:05:21Z</time>
      </trkpt>
      <trkpt lat="42.29518" lon="0.03315">
        <ele>858.4</ele>
        <time>2015-09-24T11:05:22Z</time>
      </trkpt>
      <trkpt lat="42.29521" lon="0.03312">
        <ele>858.5</ele>
        <time>2015-09-24T11:05:23Z</time>
      </trkpt>
      <trkpt lat="42.29524" lon="0.0331">
        <ele>858.6</ele>
        <time>2015-09-24T11:05:24Z</time>
      </trkpt>
      <trkpt lat="42.29527" lon="0.03307">
        <ele>858.6</ele>
        <time>2015-09-24T11:05:25Z</time>
      </trkpt>
      <trkpt lat="42.2953" lon="0.03305">
        <ele>858.6</ele>
        <time>2015-09-24T11:05:26Z</time>
      </trkpt>
      <trkpt lat="42.29533" lon="0.03303">
        <ele>858.6</ele>
        <time>2015-09-24T11:05:27Z</time>
      </trkpt>
      <trkpt lat="42.29536" lon="0.03301">
        <ele>858.6</ele>
        <time>2015-09-24T11:05:28Z</time>
      </trkpt>
      <trkpt lat="42.2954" lon="0.033">
        <ele>858.5</ele>
        <time>2015-09-24T11:05:29Z</time>
      </trkpt>
      <trkpt lat="42.29543" lon="0.03298">
        <ele>858.7</ele>
        <time>2015-09-24T11:05:30Z</time>
      </trkpt>
      <trkpt lat="42.29547" lon="0.03297">
        <ele>859.1</ele>
        <time>2015-09-24T11:05:31Z</time>
      </trkpt>
      <trkpt lat="42.2955" lon="0.03297">
        <ele>859.6</ele>
        <time>2015-09-24T11:05:32Z</time>
      </trkpt>
      <trkpt lat="42.29554" lon="0.03297">
        <ele>860</ele>
        <time>2015-09-24T11:05:33Z</time>
      </trkpt>
      <trkpt lat="42.29558" lon="0.03298">
        <ele>860.3</ele>
        <time>2015-09-24T11:05:34Z</time>
      </trkpt>
      <trkpt lat="42.29562" lon="0.033">
        <ele>860.6</ele>
        <time>2015-09-24T11:05:35Z</time>
      </trkpt>
      <trkpt lat="42.29566" lon="0.03302">
        <ele>860.9</ele>
        <time>2015-09-24T11:05:36Z</time>
      </trkpt>
      <trkpt lat="42.2957" lon="0.03304">
        <ele>861.1</ele>
        <time>2015-09-24T11:05:37Z</time>
      </trkpt>
      <trkpt lat="42.29574" lon="0.03306">
        <ele>861.2</ele>
        <time>2015-09-24T11:05:38Z</time>
      </trkpt>
      <trkpt lat="42.29578" lon="0.03308">
        <ele>861.4</ele>
        <time>2015-09-24T11:05:39Z</time>
      </trkpt>
      <trkpt lat="42.29582" lon="0.0331">
        <ele>861.5</ele>
        <time>2015-09-24T11:05:40Z</time>
      </trkpt>
      <trkpt lat="42.29586" lon="0.03312">
        <ele>861.6</ele>
        <time>2015-09-24T11:05:41Z</time>
      </trkpt>
      <trkpt lat="42.2959" lon="0.03314">
        <ele>861.8</ele>
        <time>2015-09-24T11:05:42Z</time>
      </trkpt>
      <trkpt lat="42.29594" lon="0.03316">
        <ele>861.9</ele>
        <time>2015-09-24T11:05:43Z</time>
      </trkpt>
      <trkpt lat="42.29598" lon="0.03317">
        <ele>862.1</ele>
        <time>2015-09-24T11:05:44Z</time>
      </trkpt>
      <trkpt lat="42.29602" lon="0.03318">
        <ele>862.3</ele>
        <time>2015-09-24T11:05:45Z</time>
      </trkpt>
      <trkpt lat="42.29606" lon="0.03319">
        <ele>862.5</ele>
        <time>2015-09-24T11:05:46Z</time>
      </trkpt>
      <trkpt lat="42.2961" lon="0.0332">
        <ele>862.7</ele>
        <time>2015-09-24T11:05:47Z</time>
      </trkpt>
      <trkpt lat="42.29614" lon="0.03322">
        <ele>862.7</ele>
        <time>2015-09-24T11:05:48Z</time>
      </trkpt>
      <trkpt lat="42.29618" lon="0.03323">
        <ele>862.8</ele>
        <time>2015-09-24T11:05:49Z</time>
      </trkpt>
      <trkpt lat="42.29621" lon="0.03324">
        <ele>862.8</ele>
        <time>2015-09-24T11:05:50Z</time>
      </trkpt>
      <trkpt lat="42.29624" lon="0.03326">
        <ele>862.8</ele>
        <time>2015-09-24T11:05:51Z</time>
      </trkpt>
      <trkpt lat="42.29626" lon="0.03327">
        <ele>862.7</ele>
        <time>2015-09-24T11:05:52Z</time>
      </trkpt>
      <trkpt lat="42.29628" lon="0.0333">
        <ele>862.6</ele>
        <time>2015-09-24T11:05:53Z</time>
      </trkpt>
      <trkpt lat="42.29632" lon="0.03335">
        <ele>862</ele>
        <time>2015-09-24T11:05:55Z</time>
      </trkpt>
      <trkpt lat="42.29636" lon="0.0334">
        <ele>861.5</ele>
        <time>2015-09-24T11:05:57Z</time>
      </trkpt>
      <trkpt lat="42.2964" lon="0.03346">
        <ele>861.1</ele>
        <time>2015-09-24T11:05:59Z</time>
      </trkpt>
      <trkpt lat="42.29642" lon="0.03348">
        <ele>860.9</ele>
        <time>2015-09-24T11:06:00Z</time>
      </trkpt>
      <trkpt lat="42.29644" lon="0.03351">
        <ele>860.6</ele>
        <time>2015-09-24T11:06:01Z</time>
      </trkpt>
      <trkpt lat="42.29646" lon="0.03354">
        <ele>860.4</ele>
        <time>2015-09-24T11:06:02Z</time>
      </trkpt>
      <trkpt lat="42.29647" lon="0.03357">
        <ele>860.1</ele>
        <time>2015-09-24T11:06:03Z</time>
      </trkpt>
      <trkpt lat="42.29649" lon="0.0336">
        <ele>859.9</ele>
        <time>2015-09-24T11:06:04Z</time>
      </trkpt>
      <trkpt lat="42.29651" lon="0.03362">
        <ele>859.6</ele>
        <time>2015-09-24T11:06:05Z</time>
      </trkpt>
      <trkpt lat="42.29653" lon="0.03365">
        <ele>859.4</ele>
        <time>2015-09-24T11:06:06Z</time>
      </trkpt>
      <trkpt lat="42.29656" lon="0.03368">
        <ele>859.2</ele>
        <time>2015-09-24T11:06:07Z</time>
      </trkpt>
      <trkpt lat="42.29658" lon="0.03372">
        <ele>858.9</ele>
        <time>2015-09-24T11:06:08Z</time>
      </trkpt>
      <trkpt lat="42.29661" lon="0.03376">
        <ele>858.6</ele>
        <time>2015-09-24T11:06:09Z</time>
      </trkpt>
      <trkpt lat="42.29664" lon="0.0338">
        <ele>858.5</ele>
        <time>2015-09-24T11:06:10Z</time>
      </trkpt>
      <trkpt lat="42.29667" lon="0.03384">
        <ele>858.3</ele>
        <time>2015-09-24T11:06:11Z</time>
      </trkpt>
      <trkpt lat="42.2967" lon="0.03387">
        <ele>858.2</ele>
        <time>2015-09-24T11:06:12Z</time>
      </trkpt>
      <trkpt lat="42.29674" lon="0.03391">
        <ele>858.1</ele>
        <time>2015-09-24T11:06:13Z</time>
      </trkpt>
      <trkpt lat="42.29677" lon="0.03394">
        <ele>858.1</ele>
        <time>2015-09-24T11:06:14Z</time>
      </trkpt>
      <trkpt lat="42.29681" lon="0.03398">
        <ele>858</ele>
        <time>2015-09-24T11:06:15Z</time>
      </trkpt>
      <trkpt lat="42.29684" lon="0.034">
        <ele>858</ele>
        <time>2015-09-24T11:06:16Z</time>
      </trkpt>
      <trkpt lat="42.29688" lon="0.03403">
        <ele>858</ele>
        <time>2015-09-24T11:06:17Z</time>
      </trkpt>
      <trkpt lat="42.29691" lon="0.03405">
        <ele>858.1</ele>
        <time>2015-09-24T11:06:18Z</time>
      </trkpt>
      <trkpt lat="42.29694" lon="0.03407">
        <ele>858.1</ele>
        <time>2015-09-24T11:06:19Z</time>
      </trkpt>
      <trkpt lat="42.29699" lon="0.03409">
        <ele>858.3</ele>
        <time>2015-09-24T11:06:21Z</time>
      </trkpt>
      <trkpt lat="42.29704" lon="0.03411">
        <ele>858.5</ele>
        <time>2015-09-24T11:06:23Z</time>
      </trkpt>
      <trkpt lat="42.29707" lon="0.03412">
        <ele>858.5</ele>
        <time>2015-09-24T11:06:24Z</time>
      </trkpt>
      <trkpt lat="42.2971" lon="0.03414">
        <ele>858.6</ele>
        <time>2015-09-24T11:06:25Z</time>
      </trkpt>
      <trkpt lat="42.29713" lon="0.03416">
        <ele>858.6</ele>
        <time>2015-09-24T11:06:26Z</time>
      </trkpt>
      <trkpt lat="42.29717" lon="0.03417">
        <ele>858.6</ele>
        <time>2015-09-24T11:06:27Z</time>
      </trkpt>
      <trkpt lat="42.2972" lon="0.03419">
        <ele>858.6</ele>
        <time>2015-09-24T11:06:28Z</time>
      </trkpt>
      <trkpt lat="42.29724" lon="0.03421">
        <ele>858.6</ele>
        <time>2015-09-24T11:06:29Z</time>
      </trkpt>
      <trkpt lat="42.29727" lon="0.03423">
        <ele>858.6</ele>
        <time>2015-09-24T11:06:30Z</time>
      </trkpt>
      <trkpt lat="42.29731" lon="0.03425">
        <ele>858.7</ele>
        <time>2015-09-24T11:06:31Z</time>
      </trkpt>
      <trkpt lat="42.29734" lon="0.03426">
        <ele>858.7</ele>
        <time>2015-09-24T11:06:32Z</time>
      </trkpt>
      <trkpt lat="42.29738" lon="0.03428">
        <ele>858.8</ele>
        <time>2015-09-24T11:06:33Z</time>
      </trkpt>
      <trkpt lat="42.29741" lon="0.03429">
        <ele>858.9</ele>
        <time>2015-09-24T11:06:34Z</time>
      </trkpt>
      <trkpt lat="42.29745" lon="0.03431">
        <ele>859</ele>
        <time>2015-09-24T11:06:35Z</time>
      </trkpt>
      <trkpt lat="42.29748" lon="0.03432">
        <ele>859</ele>
        <time>2015-09-24T11:06:36Z</time>
      </trkpt>
      <trkpt lat="42.29751" lon="0.03434">
        <ele>859.1</ele>
        <time>2015-09-24T11:06:37Z</time>
      </trkpt>
      <trkpt lat="42.29754" lon="0.03436">
        <ele>859.1</ele>
        <time>2015-09-24T11:06:38Z</time>
      </trkpt>
      <trkpt lat="42.29757" lon="0.03439">
        <ele>859</ele>
        <time>2015-09-24T11:06:39Z</time>
      </trkpt>
      <trkpt lat="42.29761" lon="0.03441">
        <ele>859.1</ele>
        <time>2015-09-24T11:06:40Z</time>
      </trkpt>
      <trkpt lat="42.29764" lon="0.03444">
        <ele>859</ele>
        <time>2015-09-24T11:06:41Z</time>
      </trkpt>
      <trkpt lat="42.29768" lon="0.03446">
        <ele>859</ele>
        <time>2015-09-24T11:06:42Z</time>
      </trkpt>
      <trkpt lat="42.29771" lon="0.03449">
        <ele>859</ele>
        <time>2015-09-24T11:06:43Z</time>
      </trkpt>
      <trkpt lat="42.29775" lon="0.03452">
        <ele>859.1</ele>
        <time>2015-09-24T11:06:44Z</time>
      </trkpt>
      <trkpt lat="42.29779" lon="0.03454">
        <ele>859.1</ele>
        <time>2015-09-24T11:06:45Z</time>
      </trkpt>
      <trkpt lat="42.29782" lon="0.03457">
        <ele>859.2</ele>
        <time>2015-09-24T11:06:46Z</time>
      </trkpt>
      <trkpt lat="42.29786" lon="0.03459">
        <ele>859.2</ele>
        <time>2015-09-24T11:06:47Z</time>
      </trkpt>
      <trkpt lat="42.2979" lon="0.03462">
        <ele>859.1</ele>
        <time>2015-09-24T11:06:48Z</time>
      </trkpt>
      <trkpt lat="42.29793" lon="0.03465">
        <ele>858.9</ele>
        <time>2015-09-24T11:06:49Z</time>
      </trkpt>
      <trkpt lat="42.29796" lon="0.03468">
        <ele>858.6</ele>
        <time>2015-09-24T11:06:50Z</time>
      </trkpt>
      <trkpt lat="42.298" lon="0.03472">
        <ele>858.2</ele>
        <time>2015-09-24T11:06:51Z</time>
      </trkpt>
      <trkpt lat="42.29804" lon="0.03476">
        <ele>857.7</ele>
        <time>2015-09-24T11:06:52Z</time>
      </trkpt>
      <trkpt lat="42.29808" lon="0.0348">
        <ele>857.2</ele>
        <time>2015-09-24T11:06:53Z</time>
      </trkpt>
      <trkpt lat="42.2981" lon="0.03482">
        <ele>856.9</ele>
        <time>2015-09-24T11:06:54Z</time>
      </trkpt>
      <trkpt lat="42.29814" lon="0.03484">
        <ele>856.8</ele>
        <time>2015-09-24T11:06:55Z</time>
      </trkpt>
      <trkpt lat="42.29816" lon="0.03486">
        <ele>856.6</ele>
        <time>2015-09-24T11:06:56Z</time>
      </trkpt>
      <trkpt lat="42.29819" lon="0.03488">
        <ele>856.4</ele>
        <time>2015-09-24T11:06:57Z</time>
      </trkpt>
      <trkpt lat="42.29822" lon="0.0349">
        <ele>856.3</ele>
        <time>2015-09-24T11:06:58Z</time>
      </trkpt>
      <trkpt lat="42.29826" lon="0.03492">
        <ele>856.3</ele>
        <time>2015-09-24T11:06:59Z</time>
      </trkpt>
      <trkpt lat="42.2983" lon="0.03493">
        <ele>856.2</ele>
        <time>2015-09-24T11:07:00Z</time>
      </trkpt>
      <trkpt lat="42.29834" lon="0.03494">
        <ele>856.2</ele>
        <time>2015-09-24T11:07:01Z</time>
      </trkpt>
      <trkpt lat="42.29838" lon="0.03496">
        <ele>856.2</ele>
        <time>2015-09-24T11:07:02Z</time>
      </trkpt>
      <trkpt lat="42.29842" lon="0.03497">
        <ele>856.2</ele>
        <time>2015-09-24T11:07:03Z</time>
      </trkpt>
      <trkpt lat="42.29846" lon="0.03499">
        <ele>856.2</ele>
        <time>2015-09-24T11:07:04Z</time>
      </trkpt>
      <trkpt lat="42.29849" lon="0.035">
        <ele>856.1</ele>
        <time>2015-09-24T11:07:05Z</time>
      </trkpt>
      <trkpt lat="42.29853" lon="0.03501">
        <ele>856.1</ele>
        <time>2015-09-24T11:07:06Z</time>
      </trkpt>
      <trkpt lat="42.29857" lon="0.03502">
        <ele>856.1</ele>
        <time>2015-09-24T11:07:07Z</time>
      </trkpt>
      <trkpt lat="42.2986" lon="0.03504">
        <ele>856.1</ele>
        <time>2015-09-24T11:07:08Z</time>
      </trkpt>
      <trkpt lat="42.29864" lon="0.03505">
        <ele>856.2</ele>
        <time>2015-09-24T11:07:09Z</time>
      </trkpt>
      <trkpt lat="42.29867" lon="0.03506">
        <ele>856.2</ele>
        <time>2015-09-24T11:07:10Z</time>
      </trkpt>
      <trkpt lat="42.2987" lon="0.03507">
        <ele>856.2</ele>
        <time>2015-09-24T11:07:11Z</time>
      </trkpt>
      <trkpt lat="42.29873" lon="0.03508">
        <ele>856.2</ele>
        <time>2015-09-24T11:07:13Z</time>
      </trkpt>
      <trkpt lat="42.29877" lon="0.03509">
        <ele>856.2</ele>
        <time>2015-09-24T11:07:15Z</time>
      </trkpt>
      <trkpt lat="42.29882" lon="0.0351">
        <ele>856.4</ele>
        <time>2015-09-24T11:07:17Z</time>
      </trkpt>
      <trkpt lat="42.29887" lon="0.03511">
        <ele>856.6</ele>
        <time>2015-09-24T11:07:19Z</time>
      </trkpt>
      <trkpt lat="42.29892" lon="0.0351">
        <ele>857</ele>
        <time>2015-09-24T11:07:21Z</time>
      </trkpt>
      <trkpt lat="42.29897" lon="0.03508">
        <ele>857.5</ele>
        <time>2015-09-24T11:07:23Z</time>
      </trkpt>
      <trkpt lat="42.29901" lon="0.03505">
        <ele>858.1</ele>
        <time>2015-09-24T11:07:25Z</time>
      </trkpt>
      <trkpt lat="42.29905" lon="0.03503">
        <ele>858.6</ele>
        <time>2015-09-24T11:07:27Z</time>
      </trkpt>
      <trkpt lat="42.29908" lon="0.03501">
        <ele>859</ele>
        <time>2015-09-24T11:07:29Z</time>
      </trkpt>
      <trkpt lat="42.29911" lon="0.035">
        <ele>859.3</ele>
        <time>2015-09-24T11:07:31Z</time>
      </trkpt>
      <trkpt lat="42.29913" lon="0.03497">
        <ele>859.6</ele>
        <time>2015-09-24T11:07:33Z</time>
      </trkpt>
      <trkpt lat="42.29916" lon="0.03494">
        <ele>860.1</ele>
        <time>2015-09-24T11:07:35Z</time>
      </trkpt>
      <trkpt lat="42.29918" lon="0.03492">
        <ele>860.5</ele>
        <time>2015-09-24T11:07:37Z</time>
      </trkpt>
      <trkpt lat="42.2992" lon="0.03489">
        <ele>860.8</ele>
        <time>2015-09-24T11:07:39Z</time>
      </trkpt>
      <trkpt lat="42.29924" lon="0.03489">
        <ele>861</ele>
        <time>2015-09-24T11:07:41Z</time>
      </trkpt>
      <trkpt lat="42.29927" lon="0.03488">
        <ele>861.2</ele>
        <time>2015-09-24T11:07:43Z</time>
      </trkpt>
      <trkpt lat="42.29931" lon="0.03488">
        <ele>861.3</ele>
        <time>2015-09-24T11:07:44Z</time>
      </trkpt>
      <trkpt lat="42.29935" lon="0.03488">
        <ele>861.4</ele>
        <time>2015-09-24T11:07:45Z</time>
      </trkpt>
      <trkpt lat="42.2994" lon="0.03489">
        <ele>861.5</ele>
        <time>2015-09-24T11:07:46Z</time>
      </trkpt>
      <trkpt lat="42.29944" lon="0.03492">
        <ele>861.4</ele>
        <time>2015-09-24T11:07:47Z</time>
      </trkpt>
      <trkpt lat="42.29948" lon="0.03494">
        <ele>861.4</ele>
        <time>2015-09-24T11:07:48Z</time>
      </trkpt>
      <trkpt lat="42.29951" lon="0.03501">
        <ele>861.1</ele>
        <time>2015-09-24T11:07:49Z</time>
      </trkpt>
      <trkpt lat="42.29954" lon="0.03506">
        <ele>860.9</ele>
        <time>2015-09-24T11:07:50Z</time>
      </trkpt>
      <trkpt lat="42.29957" lon="0.03516">
        <ele>860.5</ele>
        <time>2015-09-24T11:07:51Z</time>
      </trkpt>
      <trkpt lat="42.2996" lon="0.03521">
        <ele>860.2</ele>
        <time>2015-09-24T11:07:52Z</time>
      </trkpt>
      <trkpt lat="42.29965" lon="0.03526">
        <ele>859.6</ele>
        <time>2015-09-24T11:07:53Z</time>
      </trkpt>
      <trkpt lat="42.29969" lon="0.03531">
        <ele>859.1</ele>
        <time>2015-09-24T11:07:54Z</time>
      </trkpt>
      <trkpt lat="42.29972" lon="0.03536">
        <ele>858.5</ele>
        <time>2015-09-24T11:07:55Z</time>
      </trkpt>
      <trkpt lat="42.29976" lon="0.03542">
        <ele>857.9</ele>
        <time>2015-09-24T11:07:56Z</time>
      </trkpt>
      <trkpt lat="42.2998" lon="0.03549">
        <ele>857.2</ele>
        <time>2015-09-24T11:07:57Z</time>
      </trkpt>
      <trkpt lat="42.29984" lon="0.03555">
        <ele>856.6</ele>
        <time>2015-09-24T11:07:58Z</time>
      </trkpt>
      <trkpt lat="42.2999" lon="0.03562">
        <ele>855.8</ele>
        <time>2015-09-24T11:07:59Z</time>
      </trkpt>
      <trkpt lat="42.29997" lon="0.03568">
        <ele>855.2</ele>
        <time>2015-09-24T11:08:00Z</time>
      </trkpt>
      <trkpt lat="42.30004" lon="0.03574">
        <ele>854.6</ele>
        <time>2015-09-24T11:08:01Z</time>
      </trkpt>
      <trkpt lat="42.3001" lon="0.0358">
        <ele>854.1</ele>
        <time>2015-09-24T11:08:02Z</time>
      </trkpt>
      <trkpt lat="42.30017" lon="0.03585">
        <ele>853.7</ele>
        <time>2015-09-24T11:08:03Z</time>
      </trkpt>
      <trkpt lat="42.30023" lon="0.0359">
        <ele>853.3</ele>
        <time>2015-09-24T11:08:04Z</time>
      </trkpt>
      <trkpt lat="42.30028" lon="0.03596">
        <ele>853</ele>
        <time>2015-09-24T11:08:05Z</time>
      </trkpt>
      <trkpt lat="42.30033" lon="0.03601">
        <ele>852.7</ele>
        <time>2015-09-24T11:08:06Z</time>
      </trkpt>
      <trkpt lat="42.30037" lon="0.03606">
        <ele>852.5</ele>
        <time>2015-09-24T11:08:07Z</time>
      </trkpt>
      <trkpt lat="42.3004" lon="0.03611">
        <ele>852.3</ele>
        <time>2015-09-24T11:08:08Z</time>
      </trkpt>
      <trkpt lat="42.30044" lon="0.03615">
        <ele>852.2</ele>
        <time>2015-09-24T11:08:09Z</time>
      </trkpt>
      <trkpt lat="42.30048" lon="0.03619">
        <ele>852</ele>
        <time>2015-09-24T11:08:10Z</time>
      </trkpt>
      <trkpt lat="42.30053" lon="0.03623">
        <ele>851.8</ele>
        <time>2015-09-24T11:08:11Z</time>
      </trkpt>
      <trkpt lat="42.30056" lon="0.03624">
        <ele>851.7</ele>
        <time>2015-09-24T11:08:12Z</time>
      </trkpt>
      <trkpt lat="42.30061" lon="0.03626">
        <ele>851.5</ele>
        <time>2015-09-24T11:08:13Z</time>
      </trkpt>
      <trkpt lat="42.30065" lon="0.03628">
        <ele>851.3</ele>
        <time>2015-09-24T11:08:14Z</time>
      </trkpt>
      <trkpt lat="42.3007" lon="0.03629">
        <ele>851.1</ele>
        <time>2015-09-24T11:08:15Z</time>
      </trkpt>
      <trkpt lat="42.30076" lon="0.0363">
        <ele>850.9</ele>
        <time>2015-09-24T11:08:16Z</time>
      </trkpt>
      <trkpt lat="42.30081" lon="0.03631">
        <ele>850.7</ele>
        <time>2015-09-24T11:08:17Z</time>
      </trkpt>
      <trkpt lat="42.30088" lon="0.03632">
        <ele>850.5</ele>
        <time>2015-09-24T11:08:18Z</time>
      </trkpt>
      <trkpt lat="42.30094" lon="0.03634">
        <ele>850.2</ele>
        <time>2015-09-24T11:08:19Z</time>
      </trkpt>
      <trkpt lat="42.30099" lon="0.03635">
        <ele>850</ele>
        <time>2015-09-24T11:08:20Z</time>
      </trkpt>
      <trkpt lat="42.30104" lon="0.03637">
        <ele>849.8</ele>
        <time>2015-09-24T11:08:21Z</time>
      </trkpt>
      <trkpt lat="42.3011" lon="0.03642">
        <ele>849.4</ele>
        <time>2015-09-24T11:08:22Z</time>
      </trkpt>
      <trkpt lat="42.30117" lon="0.03646">
        <ele>848.9</ele>
        <time>2015-09-24T11:08:23Z</time>
      </trkpt>
      <trkpt lat="42.30123" lon="0.03652">
        <ele>848.4</ele>
        <time>2015-09-24T11:08:24Z</time>
      </trkpt>
      <trkpt lat="42.3013" lon="0.03657">
        <ele>847.8</ele>
        <time>2015-09-24T11:08:25Z</time>
      </trkpt>
      <trkpt lat="42.30137" lon="0.03662">
        <ele>847.1</ele>
        <time>2015-09-24T11:08:26Z</time>
      </trkpt>
      <trkpt lat="42.30145" lon="0.03667">
        <ele>846.3</ele>
        <time>2015-09-24T11:08:27Z</time>
      </trkpt>
      <trkpt lat="42.30153" lon="0.0367">
        <ele>845.6</ele>
        <time>2015-09-24T11:08:28Z</time>
      </trkpt>
      <trkpt lat="42.30163" lon="0.03671">
        <ele>845</ele>
        <time>2015-09-24T11:08:29Z</time>
      </trkpt>
      <trkpt lat="42.30172" lon="0.03668">
        <ele>844.6</ele>
        <time>2015-09-24T11:08:30Z</time>
      </trkpt>
      <trkpt lat="42.30181" lon="0.03664">
        <ele>844.3</ele>
        <time>2015-09-24T11:08:31Z</time>
      </trkpt>
      <trkpt lat="42.3019" lon="0.03659">
        <ele>843.9</ele>
        <time>2015-09-24T11:08:32Z</time>
      </trkpt>
      <trkpt lat="42.30199" lon="0.03655">
        <ele>843.5</ele>
        <time>2015-09-24T11:08:33Z</time>
      </trkpt>
      <trkpt lat="42.30207" lon="0.03652">
        <ele>843.1</ele>
        <time>2015-09-24T11:08:34Z</time>
      </trkpt>
      <trkpt lat="42.30216" lon="0.03649">
        <ele>842.9</ele>
        <time>2015-09-24T11:08:35Z</time>
      </trkpt>
      <trkpt lat="42.30225" lon="0.03647">
        <ele>842.7</ele>
        <time>2015-09-24T11:08:36Z</time>
      </trkpt>
      <trkpt lat="42.30234" lon="0.03644">
        <ele>842.6</ele>
        <time>2015-09-24T11:08:37Z</time>
      </trkpt>
      <trkpt lat="42.30242" lon="0.03641">
        <ele>842.5</ele>
        <time>2015-09-24T11:08:38Z</time>
      </trkpt>
      <trkpt lat="42.3025" lon="0.03639">
        <ele>842.3</ele>
        <time>2015-09-24T11:08:39Z</time>
      </trkpt>
      <trkpt lat="42.30258" lon="0.03637">
        <ele>842.2</ele>
        <time>2015-09-24T11:08:40Z</time>
      </trkpt>
      <trkpt lat="42.30265" lon="0.03635">
        <ele>842.1</ele>
        <time>2015-09-24T11:08:41Z</time>
      </trkpt>
      <trkpt lat="42.30273" lon="0.03633">
        <ele>842</ele>
        <time>2015-09-24T11:08:42Z</time>
      </trkpt>
      <trkpt lat="42.30281" lon="0.03633">
        <ele>841.8</ele>
        <time>2015-09-24T11:08:43Z</time>
      </trkpt>
      <trkpt lat="42.3029" lon="0.03633">
        <ele>841.6</ele>
        <time>2015-09-24T11:08:44Z</time>
      </trkpt>
      <trkpt lat="42.30298" lon="0.03634">
        <ele>841.4</ele>
        <time>2015-09-24T11:08:45Z</time>
      </trkpt>
      <trkpt lat="42.30306" lon="0.03636">
        <ele>841.2</ele>
        <time>2015-09-24T11:08:46Z</time>
      </trkpt>
      <trkpt lat="42.30314" lon="0.03638">
        <ele>841</ele>
        <time>2015-09-24T11:08:47Z</time>
      </trkpt>
      <trkpt lat="42.30321" lon="0.03641">
        <ele>840.7</ele>
        <time>2015-09-24T11:08:48Z</time>
      </trkpt>
      <trkpt lat="42.30328" lon="0.03645">
        <ele>840.3</ele>
        <time>2015-09-24T11:08:49Z</time>
      </trkpt>
      <trkpt lat="42.30334" lon="0.0365">
        <ele>840</ele>
        <time>2015-09-24T11:08:50Z</time>
      </trkpt>
      <trkpt lat="42.3034" lon="0.03655">
        <ele>839.6</ele>
        <time>2015-09-24T11:08:51Z</time>
      </trkpt>
      <trkpt lat="42.30345" lon="0.0366">
        <ele>839.2</ele>
        <time>2015-09-24T11:08:52Z</time>
      </trkpt>
      <trkpt lat="42.30351" lon="0.03666">
        <ele>838.8</ele>
        <time>2015-09-24T11:08:53Z</time>
      </trkpt>
      <trkpt lat="42.30356" lon="0.03671">
        <ele>838.4</ele>
        <time>2015-09-24T11:08:54Z</time>
      </trkpt>
      <trkpt lat="42.30361" lon="0.03677">
        <ele>838</ele>
        <time>2015-09-24T11:08:55Z</time>
      </trkpt>
      <trkpt lat="42.30366" lon="0.03683">
        <ele>837.7</ele>
        <time>2015-09-24T11:08:56Z</time>
      </trkpt>
      <trkpt lat="42.3037" lon="0.03687">
        <ele>837.3</ele>
        <time>2015-09-24T11:08:57Z</time>
      </trkpt>
      <trkpt lat="42.30375" lon="0.03692">
        <ele>837</ele>
        <time>2015-09-24T11:08:58Z</time>
      </trkpt>
      <trkpt lat="42.3038" lon="0.03695">
        <ele>836.8</ele>
        <time>2015-09-24T11:08:59Z</time>
      </trkpt>
      <trkpt lat="42.30384" lon="0.03699">
        <ele>836.7</ele>
        <time>2015-09-24T11:09:00Z</time>
      </trkpt>
      <trkpt lat="42.30388" lon="0.03703">
        <ele>836.6</ele>
        <time>2015-09-24T11:09:01Z</time>
      </trkpt>
      <trkpt lat="42.30391" lon="0.03707">
        <ele>836.5</ele>
        <time>2015-09-24T11:09:02Z</time>
      </trkpt>
      <trkpt lat="42.30395" lon="0.03711">
        <ele>836.6</ele>
        <time>2015-09-24T11:09:03Z</time>
      </trkpt>
      <trkpt lat="42.30399" lon="0.03714">
        <ele>836.9</ele>
        <time>2015-09-24T11:09:04Z</time>
      </trkpt>
      <trkpt lat="42.30402" lon="0.03718">
        <ele>837.1</ele>
        <time>2015-09-24T11:09:05Z</time>
      </trkpt>
      <trkpt lat="42.30406" lon="0.03721">
        <ele>837.4</ele>
        <time>2015-09-24T11:09:06Z</time>
      </trkpt>
      <trkpt lat="42.30409" lon="0.03725">
        <ele>837.7</ele>
        <time>2015-09-24T11:09:07Z</time>
      </trkpt>
      <trkpt lat="42.30412" lon="0.03728">
        <ele>837.9</ele>
        <time>2015-09-24T11:09:08Z</time>
      </trkpt>
      <trkpt lat="42.30416" lon="0.03731">
        <ele>838.2</ele>
        <time>2015-09-24T11:09:09Z</time>
      </trkpt>
      <trkpt lat="42.30419" lon="0.03734">
        <ele>838.5</ele>
        <time>2015-09-24T11:09:10Z</time>
      </trkpt>
      <trkpt lat="42.30422" lon="0.03738">
        <ele>838.8</ele>
        <time>2015-09-24T11:09:11Z</time>
      </trkpt>
      <trkpt lat="42.30426" lon="0.03742">
        <ele>839.1</ele>
        <time>2015-09-24T11:09:12Z</time>
      </trkpt>
      <trkpt lat="42.3043" lon="0.03745">
        <ele>839.4</ele>
        <time>2015-09-24T11:09:13Z</time>
      </trkpt>
      <trkpt lat="42.30433" lon="0.03748">
        <ele>839.7</ele>
        <time>2015-09-24T11:09:14Z</time>
      </trkpt>
      <trkpt lat="42.30437" lon="0.03752">
        <ele>840</ele>
        <time>2015-09-24T11:09:15Z</time>
      </trkpt>
      <trkpt lat="42.3044" lon="0.03756">
        <ele>840.3</ele>
        <time>2015-09-24T11:09:16Z</time>
      </trkpt>
      <trkpt lat="42.30444" lon="0.03759">
        <ele>840.6</ele>
        <time>2015-09-24T11:09:17Z</time>
      </trkpt>
      <trkpt lat="42.30447" lon="0.03763">
        <ele>840.9</ele>
        <time>2015-09-24T11:09:18Z</time>
      </trkpt>
      <trkpt lat="42.30451" lon="0.03767">
        <ele>841.3</ele>
        <time>2015-09-24T11:09:19Z</time>
      </trkpt>
      <trkpt lat="42.30455" lon="0.0377">
        <ele>841.6</ele>
        <time>2015-09-24T11:09:20Z</time>
      </trkpt>
      <trkpt lat="42.30458" lon="0.03774">
        <ele>841.9</ele>
        <time>2015-09-24T11:09:21Z</time>
      </trkpt>
      <trkpt lat="42.30462" lon="0.03777">
        <ele>842.2</ele>
        <time>2015-09-24T11:09:22Z</time>
      </trkpt>
      <trkpt lat="42.30465" lon="0.03781">
        <ele>842.6</ele>
        <time>2015-09-24T11:09:23Z</time>
      </trkpt>
      <trkpt lat="42.30469" lon="0.03785">
        <ele>842.9</ele>
        <time>2015-09-24T11:09:24Z</time>
      </trkpt>
      <trkpt lat="42.30472" lon="0.03789">
        <ele>843.2</ele>
        <time>2015-09-24T11:09:25Z</time>
      </trkpt>
      <trkpt lat="42.30475" lon="0.03792">
        <ele>843.4</ele>
        <time>2015-09-24T11:09:26Z</time>
      </trkpt>
      <trkpt lat="42.30479" lon="0.03795">
        <ele>843.5</ele>
        <time>2015-09-24T11:09:27Z</time>
      </trkpt>
      <trkpt lat="42.30483" lon="0.03798">
        <ele>843.6</ele>
        <time>2015-09-24T11:09:28Z</time>
      </trkpt>
      <trkpt lat="42.30487" lon="0.03801">
        <ele>843.7</ele>
        <time>2015-09-24T11:09:29Z</time>
      </trkpt>
      <trkpt lat="42.30491" lon="0.03802">
        <ele>843.8</ele>
        <time>2015-09-24T11:09:30Z</time>
      </trkpt>
      <trkpt lat="42.30496" lon="0.03805">
        <ele>844</ele>
        <time>2015-09-24T11:09:31Z</time>
      </trkpt>
      <trkpt lat="42.305" lon="0.03806">
        <ele>844.1</ele>
        <time>2015-09-24T11:09:32Z</time>
      </trkpt>
      <trkpt lat="42.30505" lon="0.03808">
        <ele>844.2</ele>
        <time>2015-09-24T11:09:33Z</time>
      </trkpt>
      <trkpt lat="42.30509" lon="0.03808">
        <ele>844.3</ele>
        <time>2015-09-24T11:09:34Z</time>
      </trkpt>
      <trkpt lat="42.30514" lon="0.03809">
        <ele>844.5</ele>
        <time>2015-09-24T11:09:35Z</time>
      </trkpt>
      <trkpt lat="42.30518" lon="0.03809">
        <ele>844.6</ele>
        <time>2015-09-24T11:09:36Z</time>
      </trkpt>
      <trkpt lat="42.30523" lon="0.0381">
        <ele>844.7</ele>
        <time>2015-09-24T11:09:37Z</time>
      </trkpt>
      <trkpt lat="42.30527" lon="0.03811">
        <ele>844.8</ele>
        <time>2015-09-24T11:09:38Z</time>
      </trkpt>
      <trkpt lat="42.30531" lon="0.03812">
        <ele>845</ele>
        <time>2015-09-24T11:09:39Z</time>
      </trkpt>
      <trkpt lat="42.30535" lon="0.03814">
        <ele>845.1</ele>
        <time>2015-09-24T11:09:40Z</time>
      </trkpt>
      <trkpt lat="42.30539" lon="0.03815">
        <ele>845.2</ele>
        <time>2015-09-24T11:09:41Z</time>
      </trkpt>
      <trkpt lat="42.30543" lon="0.03816">
        <ele>845.3</ele>
        <time>2015-09-24T11:09:42Z</time>
      </trkpt>
      <trkpt lat="42.30547" lon="0.03817">
        <ele>845.3</ele>
        <time>2015-09-24T11:09:43Z</time>
      </trkpt>
      <trkpt lat="42.30551" lon="0.03818">
        <ele>845.3</ele>
        <time>2015-09-24T11:09:44Z</time>
      </trkpt>
      <trkpt lat="42.30555" lon="0.0382">
        <ele>845.3</ele>
        <time>2015-09-24T11:09:45Z</time>
      </trkpt>
      <trkpt lat="42.30558" lon="0.03822">
        <ele>845.3</ele>
        <time>2015-09-24T11:09:46Z</time>
      </trkpt>
      <trkpt lat="42.30562" lon="0.03823">
        <ele>845.3</ele>
        <time>2015-09-24T11:09:47Z</time>
      </trkpt>
      <trkpt lat="42.30566" lon="0.03825">
        <ele>845.3</ele>
        <time>2015-09-24T11:09:48Z</time>
      </trkpt>
      <trkpt lat="42.3057" lon="0.03827">
        <ele>845.3</ele>
        <time>2015-09-24T11:09:49Z</time>
      </trkpt>
      <trkpt lat="42.30573" lon="0.0383">
        <ele>845.3</ele>
        <time>2015-09-24T11:09:50Z</time>
      </trkpt>
      <trkpt lat="42.30576" lon="0.03833">
        <ele>845.3</ele>
        <time>2015-09-24T11:09:51Z</time>
      </trkpt>
      <trkpt lat="42.30579" lon="0.03836">
        <ele>845.3</ele>
        <time>2015-09-24T11:09:52Z</time>
      </trkpt>
      <trkpt lat="42.30581" lon="0.03841">
        <ele>845.3</ele>
        <time>2015-09-24T11:09:53Z</time>
      </trkpt>
      <trkpt lat="42.30582" lon="0.03846">
        <ele>845.3</ele>
        <time>2015-09-24T11:09:54Z</time>
      </trkpt>
      <trkpt lat="42.30582" lon="0.03852">
        <ele>845.4</ele>
        <time>2015-09-24T11:09:55Z</time>
      </trkpt>
      <trkpt lat="42.30582" lon="0.03858">
        <ele>845.4</ele>
        <time>2015-09-24T11:09:56Z</time>
      </trkpt>
      <trkpt lat="42.30578" lon="0.03866">
        <ele>845.5</ele>
        <time>2015-09-24T11:09:57Z</time>
      </trkpt>
      <trkpt lat="42.30576" lon="0.03873">
        <ele>845.6</ele>
        <time>2015-09-24T11:09:58Z</time>
      </trkpt>
      <trkpt lat="42.30574" lon="0.03878">
        <ele>845.8</ele>
        <time>2015-09-24T11:09:59Z</time>
      </trkpt>
      <trkpt lat="42.30571" lon="0.03883">
        <ele>846.1</ele>
        <time>2015-09-24T11:10:00Z</time>
      </trkpt>
      <trkpt lat="42.30568" lon="0.03888">
        <ele>846.4</ele>
        <time>2015-09-24T11:10:01Z</time>
      </trkpt>
      <trkpt lat="42.30566" lon="0.03893">
        <ele>846.7</ele>
        <time>2015-09-24T11:10:02Z</time>
      </trkpt>
      <trkpt lat="42.30563" lon="0.03899">
        <ele>846.9</ele>
        <time>2015-09-24T11:10:03Z</time>
      </trkpt>
      <trkpt lat="42.30561" lon="0.03903">
        <ele>847.2</ele>
        <time>2015-09-24T11:10:04Z</time>
      </trkpt>
      <trkpt lat="42.30558" lon="0.03908">
        <ele>847.5</ele>
        <time>2015-09-24T11:10:05Z</time>
      </trkpt>
      <trkpt lat="42.30556" lon="0.03912">
        <ele>847.7</ele>
        <time>2015-09-24T11:10:06Z</time>
      </trkpt>
      <trkpt lat="42.30553" lon="0.03917">
        <ele>847.9</ele>
        <time>2015-09-24T11:10:07Z</time>
      </trkpt>
      <trkpt lat="42.3055" lon="0.0392">
        <ele>848.1</ele>
        <time>2015-09-24T11:10:08Z</time>
      </trkpt>
      <trkpt lat="42.30548" lon="0.03924">
        <ele>848.3</ele>
        <time>2015-09-24T11:10:09Z</time>
      </trkpt>
      <trkpt lat="42.30546" lon="0.03928">
        <ele>848.5</ele>
        <time>2015-09-24T11:10:10Z</time>
      </trkpt>
      <trkpt lat="42.30544" lon="0.03931">
        <ele>848.7</ele>
        <time>2015-09-24T11:10:11Z</time>
      </trkpt>
      <trkpt lat="42.30541" lon="0.03935">
        <ele>848.8</ele>
        <time>2015-09-24T11:10:12Z</time>
      </trkpt>
      <trkpt lat="42.30539" lon="0.03938">
        <ele>848.9</ele>
        <time>2015-09-24T11:10:13Z</time>
      </trkpt>
      <trkpt lat="42.30537" lon="0.03941">
        <ele>848.9</ele>
        <time>2015-09-24T11:10:14Z</time>
      </trkpt>
      <trkpt lat="42.30534" lon="0.03943">
        <ele>848.9</ele>
        <time>2015-09-24T11:10:15Z</time>
      </trkpt>
      <trkpt lat="42.30531" lon="0.03946">
        <ele>848.8</ele>
        <time>2015-09-24T11:10:16Z</time>
      </trkpt>
      <trkpt lat="42.30529" lon="0.03949">
        <ele>848.8</ele>
        <time>2015-09-24T11:10:17Z</time>
      </trkpt>
      <trkpt lat="42.30527" lon="0.03952">
        <ele>848.8</ele>
        <time>2015-09-24T11:10:18Z</time>
      </trkpt>
      <trkpt lat="42.30525" lon="0.03954">
        <ele>848.8</ele>
        <time>2015-09-24T11:10:19Z</time>
      </trkpt>
      <trkpt lat="42.30523" lon="0.03957">
        <ele>848.8</ele>
        <time>2015-09-24T11:10:20Z</time>
      </trkpt>
      <trkpt lat="42.30521" lon="0.0396">
        <ele>848.9</ele>
        <time>2015-09-24T11:10:21Z</time>
      </trkpt>
      <trkpt lat="42.30518" lon="0.03962">
        <ele>849.1</ele>
        <time>2015-09-24T11:10:22Z</time>
      </trkpt>
      <trkpt lat="42.30516" lon="0.03964">
        <ele>849.2</ele>
        <time>2015-09-24T11:10:23Z</time>
      </trkpt>
      <trkpt lat="42.30513" lon="0.03966">
        <ele>849.2</ele>
        <time>2015-09-24T11:10:24Z</time>
      </trkpt>
      <trkpt lat="42.30511" lon="0.03967">
        <ele>849.3</ele>
        <time>2015-09-24T11:10:25Z</time>
      </trkpt>
      <trkpt lat="42.30508" lon="0.03969">
        <ele>849.4</ele>
        <time>2015-09-24T11:10:26Z</time>
      </trkpt>
      <trkpt lat="42.30505" lon="0.0397">
        <ele>849.4</ele>
        <time>2015-09-24T11:10:27Z</time>
      </trkpt>
      <trkpt lat="42.30503" lon="0.03972">
        <ele>849.4</ele>
        <time>2015-09-24T11:10:28Z</time>
      </trkpt>
      <trkpt lat="42.305" lon="0.03973">
        <ele>849.5</ele>
        <time>2015-09-24T11:10:29Z</time>
      </trkpt>
      <trkpt lat="42.30497" lon="0.03975">
        <ele>849.5</ele>
        <time>2015-09-24T11:10:30Z</time>
      </trkpt>
      <trkpt lat="42.30495" lon="0.03976">
        <ele>849.5</ele>
        <time>2015-09-24T11:10:31Z</time>
      </trkpt>
      <trkpt lat="42.30492" lon="0.03978">
        <ele>849.6</ele>
        <time>2015-09-24T11:10:32Z</time>
      </trkpt>
      <trkpt lat="42.30489" lon="0.0398">
        <ele>849.7</ele>
        <time>2015-09-24T11:10:33Z</time>
      </trkpt>
      <trkpt lat="42.30487" lon="0.03982">
        <ele>849.8</ele>
        <time>2015-09-24T11:10:34Z</time>
      </trkpt>
      <trkpt lat="42.30485" lon="0.03984">
        <ele>850</ele>
        <time>2015-09-24T11:10:35Z</time>
      </trkpt>
      <trkpt lat="42.30483" lon="0.03987">
        <ele>850.2</ele>
        <time>2015-09-24T11:10:36Z</time>
      </trkpt>
      <trkpt lat="42.30481" lon="0.0399">
        <ele>850.6</ele>
        <time>2015-09-24T11:10:37Z</time>
      </trkpt>
      <trkpt lat="42.3048" lon="0.03993">
        <ele>850.9</ele>
        <time>2015-09-24T11:10:38Z</time>
      </trkpt>
      <trkpt lat="42.30478" lon="0.03997">
        <ele>851.3</ele>
        <time>2015-09-24T11:10:39Z</time>
      </trkpt>
      <trkpt lat="42.30477" lon="0.04">
        <ele>851.6</ele>
        <time>2015-09-24T11:10:40Z</time>
      </trkpt>
      <trkpt lat="42.30475" lon="0.04003">
        <ele>851.9</ele>
        <time>2015-09-24T11:10:41Z</time>
      </trkpt>
      <trkpt lat="42.30472" lon="0.04009">
        <ele>852.5</ele>
        <time>2015-09-24T11:10:43Z</time>
      </trkpt>
      <trkpt lat="42.30471" lon="0.04012">
        <ele>852.9</ele>
        <time>2015-09-24T11:10:44Z</time>
      </trkpt>
      <trkpt lat="42.3047" lon="0.04016">
        <ele>853.3</ele>
        <time>2015-09-24T11:10:45Z</time>
      </trkpt>
      <trkpt lat="42.30469" lon="0.04023">
        <ele>854.2</ele>
        <time>2015-09-24T11:10:47Z</time>
      </trkpt>
      <trkpt lat="42.30469" lon="0.04027">
        <ele>854.7</ele>
        <time>2015-09-24T11:10:48Z</time>
      </trkpt>
      <trkpt lat="42.30469" lon="0.04031">
        <ele>855.2</ele>
        <time>2015-09-24T11:10:49Z</time>
      </trkpt>
      <trkpt lat="42.30469" lon="0.04034">
        <ele>855.7</ele>
        <time>2015-09-24T11:10:50Z</time>
      </trkpt>
      <trkpt lat="42.30472" lon="0.04038">
        <ele>856.3</ele>
        <time>2015-09-24T11:10:51Z</time>
      </trkpt>
      <trkpt lat="42.30473" lon="0.04041">
        <ele>856.8</ele>
        <time>2015-09-24T11:10:52Z</time>
      </trkpt>
      <trkpt lat="42.30475" lon="0.04044">
        <ele>857.2</ele>
        <time>2015-09-24T11:10:53Z</time>
      </trkpt>
      <trkpt lat="42.30477" lon="0.04047">
        <ele>857.5</ele>
        <time>2015-09-24T11:10:54Z</time>
      </trkpt>
      <trkpt lat="42.30479" lon="0.0405">
        <ele>857.9</ele>
        <time>2015-09-24T11:10:55Z</time>
      </trkpt>
      <trkpt lat="42.30481" lon="0.04053">
        <ele>858.2</ele>
        <time>2015-09-24T11:10:56Z</time>
      </trkpt>
      <trkpt lat="42.30483" lon="0.04056">
        <ele>858.5</ele>
        <time>2015-09-24T11:10:57Z</time>
      </trkpt>
      <trkpt lat="42.30486" lon="0.04058">
        <ele>858.8</ele>
        <time>2015-09-24T11:10:58Z</time>
      </trkpt>
      <trkpt lat="42.30488" lon="0.04061">
        <ele>859.1</ele>
        <time>2015-09-24T11:10:59Z</time>
      </trkpt>
      <trkpt lat="42.30492" lon="0.04064">
        <ele>859.4</ele>
        <time>2015-09-24T11:11:00Z</time>
      </trkpt>
      <trkpt lat="42.30496" lon="0.04067">
        <ele>859.7</ele>
        <time>2015-09-24T11:11:01Z</time>
      </trkpt>
      <trkpt lat="42.30499" lon="0.04069">
        <ele>860</ele>
        <time>2015-09-24T11:11:02Z</time>
      </trkpt>
      <trkpt lat="42.30505" lon="0.04073">
        <ele>860.3</ele>
        <time>2015-09-24T11:11:03Z</time>
      </trkpt>
      <trkpt lat="42.3051" lon="0.04076">
        <ele>860.6</ele>
        <time>2015-09-24T11:11:04Z</time>
      </trkpt>
      <trkpt lat="42.30516" lon="0.0408">
        <ele>860.9</ele>
        <time>2015-09-24T11:11:05Z</time>
      </trkpt>
      <trkpt lat="42.30522" lon="0.04084">
        <ele>861.1</ele>
        <time>2015-09-24T11:11:06Z</time>
      </trkpt>
      <trkpt lat="42.30529" lon="0.04088">
        <ele>861.4</ele>
        <time>2015-09-24T11:11:07Z</time>
      </trkpt>
      <trkpt lat="42.30536" lon="0.04092">
        <ele>861.5</ele>
        <time>2015-09-24T11:11:08Z</time>
      </trkpt>
      <trkpt lat="42.30543" lon="0.04096">
        <ele>861.6</ele>
        <time>2015-09-24T11:11:09Z</time>
      </trkpt>
      <trkpt lat="42.3055" lon="0.04101">
        <ele>861.4</ele>
        <time>2015-09-24T11:11:10Z</time>
      </trkpt>
      <trkpt lat="42.30557" lon="0.04105">
        <ele>861.3</ele>
        <time>2015-09-24T11:11:11Z</time>
      </trkpt>
      <trkpt lat="42.30564" lon="0.04109">
        <ele>861.1</ele>
        <time>2015-09-24T11:11:12Z</time>
      </trkpt>
      <trkpt lat="42.30572" lon="0.04112">
        <ele>860.8</ele>
        <time>2015-09-24T11:11:13Z</time>
      </trkpt>
      <trkpt lat="42.30578" lon="0.04115">
        <ele>860.6</ele>
        <time>2015-09-24T11:11:14Z</time>
      </trkpt>
      <trkpt lat="42.30586" lon="0.04117">
        <ele>860.4</ele>
        <time>2015-09-24T11:11:15Z</time>
      </trkpt>
      <trkpt lat="42.30594" lon="0.04119">
        <ele>860.1</ele>
        <time>2015-09-24T11:11:16Z</time>
      </trkpt>
      <trkpt lat="42.30603" lon="0.0412">
        <ele>859.8</ele>
        <time>2015-09-24T11:11:17Z</time>
      </trkpt>
      <trkpt lat="42.30612" lon="0.04122">
        <ele>859.5</ele>
        <time>2015-09-24T11:11:18Z</time>
      </trkpt>
      <trkpt lat="42.30622" lon="0.04123">
        <ele>859.1</ele>
        <time>2015-09-24T11:11:19Z</time>
      </trkpt>
      <trkpt lat="42.30631" lon="0.04124">
        <ele>858.5</ele>
        <time>2015-09-24T11:11:20Z</time>
      </trkpt>
      <trkpt lat="42.3064" lon="0.04126">
        <ele>857.8</ele>
        <time>2015-09-24T11:11:21Z</time>
      </trkpt>
      <trkpt lat="42.30647" lon="0.04129">
        <ele>857.1</ele>
        <time>2015-09-24T11:11:22Z</time>
      </trkpt>
      <trkpt lat="42.30654" lon="0.04134">
        <ele>856.4</ele>
        <time>2015-09-24T11:11:23Z</time>
      </trkpt>
      <trkpt lat="42.3066" lon="0.04139">
        <ele>855.6</ele>
        <time>2015-09-24T11:11:24Z</time>
      </trkpt>
      <trkpt lat="42.30666" lon="0.04146">
        <ele>854.8</ele>
        <time>2015-09-24T11:11:25Z</time>
      </trkpt>
      <trkpt lat="42.30671" lon="0.04154">
        <ele>854</ele>
        <time>2015-09-24T11:11:26Z</time>
      </trkpt>
      <trkpt lat="42.30676" lon="0.0416">
        <ele>853.3</ele>
        <time>2015-09-24T11:11:27Z</time>
      </trkpt>
      <trkpt lat="42.30681" lon="0.04165">
        <ele>852.7</ele>
        <time>2015-09-24T11:11:28Z</time>
      </trkpt>
      <trkpt lat="42.30686" lon="0.0417">
        <ele>852.2</ele>
        <time>2015-09-24T11:11:29Z</time>
      </trkpt>
      <trkpt lat="42.30688" lon="0.04173">
        <ele>851.9</ele>
        <time>2015-09-24T11:11:30Z</time>
      </trkpt>
      <trkpt lat="42.30691" lon="0.04176">
        <ele>851.6</ele>
        <time>2015-09-24T11:11:32Z</time>
      </trkpt>
      <trkpt lat="42.30691" lon="0.0418">
        <ele>851.4</ele>
        <time>2015-09-24T11:11:34Z</time>
      </trkpt>
    </trkseg>
  </trk>
</gpx>